<?xml version='1.0' encoding='UTF-8'?><gpx version="1.1" creator="JPX - https://github.com/jenetics/jpx" xmlns="http://www.topografix.com/GPX/1/1"><trk><trkseg><trkpt lat="43.6441704" lon="11.4495339"><ele>135.0</ele><time>2026-03-28T09:14:53.35Z</time></trkpt><trkpt lat="43.6441747" lon="11.4496223"><ele>135.0</ele><time>2026-03-28T09:15:12.405Z</time></trkpt><trkpt lat="43.6441896" lon="11.4497089"><ele>135.0</ele><time>2026-03-28T09:15:49.405Z</time></trkpt><trkpt lat="43.6440805" lon="11.44976"><ele>135.0</ele><time>2026-03-28T09:23:03.406Z</time></trkpt><trkpt lat="43.6440179" lon="11.4497759"><ele>135.0</ele><time>2026-03-28T09:23:04.406Z</time></trkpt><trkpt lat="43.6439515" lon="11.4497945"><ele>135.0</ele><time>2026-03-28T09:23:05.406Z</time></trkpt><trkpt lat="43.6438374" lon="11.4498017"><ele>133.4</ele><time>2026-03-28T09:23:07.406Z</time></trkpt><trkpt lat="43.6437364" lon="11.449833"><ele>131.8</ele><time>2026-03-28T09:23:09.406Z</time></trkpt><trkpt lat="43.6436941" lon="11.4500025"><ele>130.2</ele><time>2026-03-28T09:23:11.406Z</time></trkpt><trkpt lat="43.643628" lon="11.4500694"><ele>128.6</ele><time>2026-03-28T09:23:13.406Z</time></trkpt><trkpt lat="43.6435579" lon="11.4500632"><ele>127.0</ele><time>2026-03-28T09:23:14.406Z</time></trkpt><trkpt lat="43.6434435" lon="11.4500729"><ele>126.8</ele><time>2026-03-28T09:23:16.406Z</time></trkpt><trkpt lat="43.6433614" lon="11.4501494"><ele>126.6</ele><time>2026-03-28T09:23:18.406Z</time></trkpt><trkpt lat="43.6433473" lon="11.4503257"><ele>126.39999999999999</ele><time>2026-03-28T09:23:20.406Z</time></trkpt><trkpt lat="43.6433502" lon="11.45042"><ele>126.19999999999999</ele><time>2026-03-28T09:23:21.406Z</time></trkpt><trkpt lat="43.6433542" lon="11.4505279"><ele>126.0</ele><time>2026-03-28T09:23:22.406Z</time></trkpt><trkpt lat="43.6433528" lon="11.4506325"><ele>125.8</ele><time>2026-03-28T09:23:23.406Z</time></trkpt><trkpt lat="43.6433591" lon="11.4507527"><ele>125.6</ele><time>2026-03-28T09:23:24.406Z</time></trkpt><trkpt lat="43.6433661" lon="11.4508846"><ele>125.4</ele><time>2026-03-28T09:23:25.406Z</time></trkpt><trkpt lat="43.6433694" lon="11.4510177"><ele>125.2</ele><time>2026-03-28T09:23:26.406Z</time></trkpt><trkpt lat="43.6433735" lon="11.4511549"><ele>125.0</ele><time>2026-03-28T09:23:27.406Z</time></trkpt><trkpt lat="43.6433786" lon="11.4512766"><ele>124.83333333333333</ele><time>2026-03-28T09:23:28.406Z</time></trkpt><trkpt lat="43.6433871" lon="11.4513861"><ele>124.66666666666666</ele><time>2026-03-28T09:23:29.406Z</time></trkpt><trkpt lat="43.643399" lon="11.4514765"><ele>124.5</ele><time>2026-03-28T09:23:30.406Z</time></trkpt><trkpt lat="43.643404" lon="11.4516265"><ele>124.33333333333334</ele><time>2026-03-28T09:23:32.406Z</time></trkpt><trkpt lat="43.6433974" lon="11.451741"><ele>124.16666666666667</ele><time>2026-03-28T09:23:34.406Z</time></trkpt><trkpt lat="43.6434786" lon="11.451804"><ele>124.0</ele><time>2026-03-28T09:23:38.406Z</time></trkpt><trkpt lat="43.6436157" lon="11.451736"><ele>123.83333333333334</ele><time>2026-03-28T09:23:40.406Z</time></trkpt><trkpt lat="43.6436986" lon="11.451697"><ele>123.66666666666667</ele><time>2026-03-28T09:23:41.406Z</time></trkpt><trkpt lat="43.6437926" lon="11.4516611"><ele>123.5</ele><time>2026-03-28T09:23:42.406Z</time></trkpt><trkpt lat="43.6438766" lon="11.4516216"><ele>123.33333333333334</ele><time>2026-03-28T09:23:43.406Z</time></trkpt><trkpt lat="43.6439649" lon="11.4515907"><ele>123.16666666666667</ele><time>2026-03-28T09:23:44.406Z</time></trkpt><trkpt lat="43.6440365" lon="11.451563"><ele>123.0</ele><time>2026-03-28T09:23:45.407Z</time></trkpt><trkpt lat="43.6441132" lon="11.4515433"><ele>123.00000000000001</ele><time>2026-03-28T09:23:46.406Z</time></trkpt><trkpt lat="43.6441841" lon="11.4515267"><ele>123.0</ele><time>2026-03-28T09:23:47.406Z</time></trkpt><trkpt lat="43.6442517" lon="11.4515217"><ele>123.00000000000001</ele><time>2026-03-28T09:23:48.406Z</time></trkpt><trkpt lat="43.6443219" lon="11.4515236"><ele>123.00000000000001</ele><time>2026-03-28T09:23:49.406Z</time></trkpt><trkpt lat="43.644385" lon="11.4515476"><ele>123.0</ele><time>2026-03-28T09:23:50.406Z</time></trkpt><trkpt lat="43.6444488" lon="11.4516621"><ele>123.00000000000001</ele><time>2026-03-28T09:23:52.406Z</time></trkpt><trkpt lat="43.6444642" lon="11.4517519"><ele>123.00000000000001</ele><time>2026-03-28T09:24:04.406Z</time></trkpt><trkpt lat="43.6445681" lon="11.4517598"><ele>122.60000000000001</ele><time>2026-03-28T09:24:06.406Z</time></trkpt><trkpt lat="43.6446489" lon="11.4517266"><ele>122.20000000000002</ele><time>2026-03-28T09:24:07.406Z</time></trkpt><trkpt lat="43.6447386" lon="11.4516938"><ele>121.8</ele><time>2026-03-28T09:24:08.406Z</time></trkpt><trkpt lat="43.6448419" lon="11.4516481"><ele>121.4</ele><time>2026-03-28T09:24:09.406Z</time></trkpt><trkpt lat="43.6449564" lon="11.4515976"><ele>121.0</ele><time>2026-03-28T09:24:10.406Z</time></trkpt><trkpt lat="43.6450741" lon="11.4515367"><ele>121.0</ele><time>2026-03-28T09:24:11.406Z</time></trkpt><trkpt lat="43.6451979" lon="11.4514782"><ele>121.0</ele><time>2026-03-28T09:24:12.406Z</time></trkpt><trkpt lat="43.6453371" lon="11.4514238"><ele>121.0</ele><time>2026-03-28T09:24:13.406Z</time></trkpt><trkpt lat="43.6454876" lon="11.4513827"><ele>121.0</ele><time>2026-03-28T09:24:14.406Z</time></trkpt><trkpt lat="43.645639" lon="11.4513375"><ele>120.33333333333334</ele><time>2026-03-28T09:24:15.406Z</time></trkpt><trkpt lat="43.6457965" lon="11.4512949"><ele>119.66666666666666</ele><time>2026-03-28T09:24:16.406Z</time></trkpt><trkpt lat="43.6459582" lon="11.4512506"><ele>119.0</ele><time>2026-03-28T09:24:17.406Z</time></trkpt><trkpt lat="43.6461261" lon="11.4512069"><ele>120.0</ele><time>2026-03-28T09:24:18.406Z</time></trkpt><trkpt lat="43.6462986" lon="11.4511622"><ele>121.0</ele><time>2026-03-28T09:24:19.406Z</time></trkpt><trkpt lat="43.6464719" lon="11.4511226"><ele>122.0</ele><time>2026-03-28T09:24:20.406Z</time></trkpt><trkpt lat="43.6466439" lon="11.4510758"><ele>122.0</ele><time>2026-03-28T09:24:21.406Z</time></trkpt><trkpt lat="43.6468169" lon="11.4510347"><ele>122.0</ele><time>2026-03-28T09:24:22.406Z</time></trkpt><trkpt lat="43.6469895" lon="11.4509928"><ele>122.0</ele><time>2026-03-28T09:24:23.406Z</time></trkpt><trkpt lat="43.6471584" lon="11.4509515"><ele>122.0</ele><time>2026-03-28T09:24:24.406Z</time></trkpt><trkpt lat="43.6473294" lon="11.4509219"><ele>122.0</ele><time>2026-03-28T09:24:25.406Z</time></trkpt><trkpt lat="43.6474998" lon="11.4509021"><ele>122.0</ele><time>2026-03-28T09:24:26.406Z</time></trkpt><trkpt lat="43.647676" lon="11.4508877"><ele>122.0</ele><time>2026-03-28T09:24:27.406Z</time></trkpt><trkpt lat="43.6478429" lon="11.4508703"><ele>122.0</ele><time>2026-03-28T09:24:28.406Z</time></trkpt><trkpt lat="43.6480119" lon="11.4508606"><ele>122.0</ele><time>2026-03-28T09:24:29.406Z</time></trkpt><trkpt lat="43.6481788" lon="11.4508559"><ele>122.0</ele><time>2026-03-28T09:24:30.406Z</time></trkpt><trkpt lat="43.6483477" lon="11.4508732"><ele>122.0</ele><time>2026-03-28T09:24:31.406Z</time></trkpt><trkpt lat="43.6485033" lon="11.450902"><ele>122.0</ele><time>2026-03-28T09:24:32.406Z</time></trkpt><trkpt lat="43.6486495" lon="11.4509386"><ele>121.75</ele><time>2026-03-28T09:24:33.406Z</time></trkpt><trkpt lat="43.648795" lon="11.4509733"><ele>121.5</ele><time>2026-03-28T09:24:34.406Z</time></trkpt><trkpt lat="43.6489279" lon="11.4510059"><ele>121.25</ele><time>2026-03-28T09:24:35.406Z</time></trkpt><trkpt lat="43.649055" lon="11.4510313"><ele>121.0</ele><time>2026-03-28T09:24:36.406Z</time></trkpt><trkpt lat="43.6491694" lon="11.4510619"><ele>121.0</ele><time>2026-03-28T09:24:37.406Z</time></trkpt><trkpt lat="43.6492708" lon="11.4510792"><ele>121.0</ele><time>2026-03-28T09:24:38.406Z</time></trkpt><trkpt lat="43.6493704" lon="11.4510933"><ele>121.0</ele><time>2026-03-28T09:24:39.406Z</time></trkpt><trkpt lat="43.6494817" lon="11.4511119"><ele>121.0</ele><time>2026-03-28T09:24:40.406Z</time></trkpt><trkpt lat="43.6495982" lon="11.4511223"><ele>121.0</ele><time>2026-03-28T09:24:41.406Z</time></trkpt><trkpt lat="43.6497173" lon="11.4511264"><ele>121.25</ele><time>2026-03-28T09:24:42.406Z</time></trkpt><trkpt lat="43.6498396" lon="11.4511261"><ele>121.5</ele><time>2026-03-28T09:24:43.406Z</time></trkpt><trkpt lat="43.6499621" lon="11.4511174"><ele>121.75</ele><time>2026-03-28T09:24:44.406Z</time></trkpt><trkpt lat="43.6500902" lon="11.4511042"><ele>122.0</ele><time>2026-03-28T09:24:45.406Z</time></trkpt><trkpt lat="43.6502138" lon="11.4511007"><ele>122.75</ele><time>2026-03-28T09:24:46.406Z</time></trkpt><trkpt lat="43.6503312" lon="11.4510952"><ele>123.5</ele><time>2026-03-28T09:24:47.406Z</time></trkpt><trkpt lat="43.6504509" lon="11.4510873"><ele>124.25</ele><time>2026-03-28T09:24:48.406Z</time></trkpt><trkpt lat="43.6505666" lon="11.4510897"><ele>125.0</ele><time>2026-03-28T09:24:49.406Z</time></trkpt><trkpt lat="43.6506768" lon="11.4510956"><ele>125.0</ele><time>2026-03-28T09:24:50.406Z</time></trkpt><trkpt lat="43.6507859" lon="11.451113"><ele>125.0</ele><time>2026-03-28T09:24:51.406Z</time></trkpt><trkpt lat="43.6508972" lon="11.4511429"><ele>125.0</ele><time>2026-03-28T09:24:52.406Z</time></trkpt><trkpt lat="43.6510085" lon="11.4511933"><ele>125.0</ele><time>2026-03-28T09:24:53.406Z</time></trkpt><trkpt lat="43.6511075" lon="11.4512387"><ele>125.0</ele><time>2026-03-28T09:24:54.406Z</time></trkpt><trkpt lat="43.6512014" lon="11.4512856"><ele>124.6</ele><time>2026-03-28T09:24:55.406Z</time></trkpt><trkpt lat="43.6512958" lon="11.4513392"><ele>124.2</ele><time>2026-03-28T09:24:56.406Z</time></trkpt><trkpt lat="43.651394" lon="11.4513917"><ele>123.80000000000001</ele><time>2026-03-28T09:24:57.406Z</time></trkpt><trkpt lat="43.6514972" lon="11.4514336"><ele>123.4</ele><time>2026-03-28T09:24:58.406Z</time></trkpt><trkpt lat="43.6516037" lon="11.4514688"><ele>123.0</ele><time>2026-03-28T09:24:59.406Z</time></trkpt><trkpt lat="43.6517139" lon="11.4514738"><ele>123.0</ele><time>2026-03-28T09:25:00.406Z</time></trkpt><trkpt lat="43.6518333" lon="11.451456"><ele>123.00000000000001</ele><time>2026-03-28T09:25:01.406Z</time></trkpt><trkpt lat="43.6519479" lon="11.451444"><ele>123.00000000000001</ele><time>2026-03-28T09:25:02.406Z</time></trkpt><trkpt lat="43.6520496" lon="11.4514217"><ele>123.0</ele><time>2026-03-28T09:25:03.406Z</time></trkpt><trkpt lat="43.6521438" lon="11.4514042"><ele>123.0</ele><time>2026-03-28T09:25:04.406Z</time></trkpt><trkpt lat="43.6522382" lon="11.4513934"><ele>122.5</ele><time>2026-03-28T09:25:05.406Z</time></trkpt><trkpt lat="43.6523402" lon="11.4513891"><ele>122.0</ele><time>2026-03-28T09:25:06.406Z</time></trkpt><trkpt lat="43.6524503" lon="11.4513795"><ele>121.5</ele><time>2026-03-28T09:25:07.406Z</time></trkpt><trkpt lat="43.6525719" lon="11.4513531"><ele>121.0</ele><time>2026-03-28T09:25:08.406Z</time></trkpt><trkpt lat="43.6527116" lon="11.4513269"><ele>121.25</ele><time>2026-03-28T09:25:09.406Z</time></trkpt><trkpt lat="43.6528498" lon="11.4512979"><ele>121.5</ele><time>2026-03-28T09:25:10.406Z</time></trkpt><trkpt lat="43.6529768" lon="11.4512803"><ele>121.75</ele><time>2026-03-28T09:25:11.406Z</time></trkpt><trkpt lat="43.6530919" lon="11.4512496"><ele>122.0</ele><time>2026-03-28T09:25:12.406Z</time></trkpt><trkpt lat="43.6531867" lon="11.4512207"><ele>122.19999999999999</ele><time>2026-03-28T09:25:13.406Z</time></trkpt><trkpt lat="43.6532601" lon="11.4511922"><ele>122.39999999999999</ele><time>2026-03-28T09:25:14.406Z</time></trkpt><trkpt lat="43.653326" lon="11.4511679"><ele>122.60000000000001</ele><time>2026-03-28T09:25:15.406Z</time></trkpt><trkpt lat="43.6534331" lon="11.4511234"><ele>122.80000000000001</ele><time>2026-03-28T09:25:17.406Z</time></trkpt><trkpt lat="43.6535328" lon="11.4510816"><ele>123.0</ele><time>2026-03-28T09:25:19.406Z</time></trkpt><trkpt lat="43.6536445" lon="11.4510795"><ele>123.0</ele><time>2026-03-28T09:25:21.406Z</time></trkpt><trkpt lat="43.6537523" lon="11.4509987"><ele>123.0</ele><time>2026-03-28T09:25:23.406Z</time></trkpt><trkpt lat="43.6538065" lon="11.4509384"><ele>123.0</ele><time>2026-03-28T09:25:24.406Z</time></trkpt><trkpt lat="43.6538573" lon="11.4508784"><ele>123.0</ele><time>2026-03-28T09:25:25.406Z</time></trkpt><trkpt lat="43.6539123" lon="11.4508352"><ele>123.0</ele><time>2026-03-28T09:25:26.406Z</time></trkpt><trkpt lat="43.6539771" lon="11.4507924"><ele>123.0</ele><time>2026-03-28T09:25:27.406Z</time></trkpt><trkpt lat="43.6540437" lon="11.4507514"><ele>123.0</ele><time>2026-03-28T09:25:28.406Z</time></trkpt><trkpt lat="43.6541124" lon="11.4506971"><ele>123.0</ele><time>2026-03-28T09:25:29.406Z</time></trkpt><trkpt lat="43.6541828" lon="11.4506398"><ele>123.0</ele><time>2026-03-28T09:25:30.406Z</time></trkpt><trkpt lat="43.6542572" lon="11.4505795"><ele>123.0</ele><time>2026-03-28T09:25:31.406Z</time></trkpt><trkpt lat="43.6543327" lon="11.4505245"><ele>123.0</ele><time>2026-03-28T09:25:32.406Z</time></trkpt><trkpt lat="43.6544089" lon="11.4504655"><ele>123.0</ele><time>2026-03-28T09:25:33.406Z</time></trkpt><trkpt lat="43.654485" lon="11.4504007"><ele>123.0</ele><time>2026-03-28T09:25:34.406Z</time></trkpt><trkpt lat="43.6545681" lon="11.4503404"><ele>123.00000000000001</ele><time>2026-03-28T09:25:35.406Z</time></trkpt><trkpt lat="43.6546561" lon="11.4502706"><ele>123.00000000000001</ele><time>2026-03-28T09:25:36.406Z</time></trkpt><trkpt lat="43.6547449" lon="11.4502084"><ele>123.0</ele><time>2026-03-28T09:25:37.406Z</time></trkpt><trkpt lat="43.6548317" lon="11.4501351"><ele>123.0</ele><time>2026-03-28T09:25:38.406Z</time></trkpt><trkpt lat="43.654917" lon="11.4500709"><ele>123.0</ele><time>2026-03-28T09:25:39.406Z</time></trkpt><trkpt lat="43.6550087" lon="11.4500163"><ele>123.00000000000001</ele><time>2026-03-28T09:25:40.406Z</time></trkpt><trkpt lat="43.6550933" lon="11.4499677"><ele>123.00000000000001</ele><time>2026-03-28T09:25:41.406Z</time></trkpt><trkpt lat="43.6551849" lon="11.4499276"><ele>123.0</ele><time>2026-03-28T09:25:42.406Z</time></trkpt><trkpt lat="43.6552638" lon="11.4498932"><ele>123.0</ele><time>2026-03-28T09:25:43.406Z</time></trkpt><trkpt lat="43.6553394" lon="11.4498537"><ele>123.2</ele><time>2026-03-28T09:25:44.406Z</time></trkpt><trkpt lat="43.6554059" lon="11.4498243"><ele>123.4</ele><time>2026-03-28T09:25:45.406Z</time></trkpt><trkpt lat="43.6555139" lon="11.4497849"><ele>123.60000000000001</ele><time>2026-03-28T09:25:47.406Z</time></trkpt><trkpt lat="43.6556072" lon="11.4496899"><ele>123.80000000000001</ele><time>2026-03-28T09:25:49.406Z</time></trkpt><trkpt lat="43.6556213" lon="11.4495273"><ele>124.0</ele><time>2026-03-28T09:25:51.406Z</time></trkpt><trkpt lat="43.655619" lon="11.4494337"><ele>124.0</ele><time>2026-03-28T09:25:52.406Z</time></trkpt><trkpt lat="43.6556096" lon="11.4493375"><ele>124.0</ele><time>2026-03-28T09:25:53.406Z</time></trkpt><trkpt lat="43.6556004" lon="11.4492253"><ele>124.0</ele><time>2026-03-28T09:25:54.406Z</time></trkpt><trkpt lat="43.6555875" lon="11.4490914"><ele>124.0</ele><time>2026-03-28T09:25:55.406Z</time></trkpt><trkpt lat="43.6555772" lon="11.4489251"><ele>124.0</ele><time>2026-03-28T09:25:56.406Z</time></trkpt><trkpt lat="43.6555768" lon="11.4487591"><ele>124.4</ele><time>2026-03-28T09:25:57.406Z</time></trkpt><trkpt lat="43.6555658" lon="11.4485886"><ele>124.80000000000001</ele><time>2026-03-28T09:25:58.406Z</time></trkpt><trkpt lat="43.6555847" lon="11.4484611"><ele>125.19999999999999</ele><time>2026-03-28T09:25:59.406Z</time></trkpt><trkpt lat="43.6556158" lon="11.44835"><ele>125.6</ele><time>2026-03-28T09:26:00.406Z</time></trkpt><trkpt lat="43.6556594" lon="11.4482516"><ele>126.0</ele><time>2026-03-28T09:26:01.406Z</time></trkpt><trkpt lat="43.6557233" lon="11.4481948"><ele>126.0</ele><time>2026-03-28T09:26:02.406Z</time></trkpt><trkpt lat="43.6558167" lon="11.4481474"><ele>126.0</ele><time>2026-03-28T09:26:04.406Z</time></trkpt><trkpt lat="43.6558749" lon="11.4480766"><ele>126.0</ele><time>2026-03-28T09:26:06.406Z</time></trkpt><trkpt lat="43.6558573" lon="11.4478965"><ele>126.0</ele><time>2026-03-28T09:26:08.406Z</time></trkpt><trkpt lat="43.6558435" lon="11.4477583"><ele>126.0</ele><time>2026-03-28T09:26:09.406Z</time></trkpt><trkpt lat="43.6558319" lon="11.4476174"><ele>127.6</ele><time>2026-03-28T09:26:10.406Z</time></trkpt><trkpt lat="43.6558326" lon="11.4474692"><ele>129.2</ele><time>2026-03-28T09:26:11.406Z</time></trkpt><trkpt lat="43.6558234" lon="11.4473221"><ele>130.8</ele><time>2026-03-28T09:26:12.406Z</time></trkpt><trkpt lat="43.6557913" lon="11.4472038"><ele>132.4</ele><time>2026-03-28T09:26:13.406Z</time></trkpt><trkpt lat="43.6557323" lon="11.4471204"><ele>134.0</ele><time>2026-03-28T09:26:14.406Z</time></trkpt><trkpt lat="43.6556345" lon="11.4470755"><ele>135.4</ele><time>2026-03-28T09:26:15.406Z</time></trkpt><trkpt lat="43.6555404" lon="11.4470319"><ele>136.8</ele><time>2026-03-28T09:26:16.406Z</time></trkpt><trkpt lat="43.6554477" lon="11.4469746"><ele>138.2</ele><time>2026-03-28T09:26:17.406Z</time></trkpt><trkpt lat="43.6553549" lon="11.4468948"><ele>139.6</ele><time>2026-03-28T09:26:18.406Z</time></trkpt><trkpt lat="43.6552698" lon="11.4468031"><ele>141.0</ele><time>2026-03-28T09:26:19.406Z</time></trkpt><trkpt lat="43.6551829" lon="11.4466938"><ele>141.0</ele><time>2026-03-28T09:26:20.406Z</time></trkpt><trkpt lat="43.6550925" lon="11.4465678"><ele>141.0</ele><time>2026-03-28T09:26:21.406Z</time></trkpt><trkpt lat="43.6549975" lon="11.4464296"><ele>141.0</ele><time>2026-03-28T09:26:22.406Z</time></trkpt><trkpt lat="43.6548997" lon="11.4463077"><ele>141.0</ele><time>2026-03-28T09:26:23.406Z</time></trkpt><trkpt lat="43.6547946" lon="11.4461956"><ele>141.0</ele><time>2026-03-28T09:26:24.406Z</time></trkpt><trkpt lat="43.6546874" lon="11.4460865"><ele>141.0</ele><time>2026-03-28T09:26:25.406Z</time></trkpt><trkpt lat="43.654583" lon="11.4459839"><ele>141.0</ele><time>2026-03-28T09:26:26.406Z</time></trkpt><trkpt lat="43.6544833" lon="11.4458836"><ele>141.0</ele><time>2026-03-28T09:26:27.406Z</time></trkpt><trkpt lat="43.6544032" lon="11.4457535"><ele>141.0</ele><time>2026-03-28T09:26:28.406Z</time></trkpt><trkpt lat="43.6543568" lon="11.4455894"><ele>141.0</ele><time>2026-03-28T09:26:29.406Z</time></trkpt><trkpt lat="43.6543371" lon="11.4454057"><ele>141.0</ele><time>2026-03-28T09:26:30.406Z</time></trkpt><trkpt lat="43.6542907" lon="11.4452242"><ele>141.0</ele><time>2026-03-28T09:26:31.406Z</time></trkpt><trkpt lat="43.6542398" lon="11.4450437"><ele>143.5</ele><time>2026-03-28T09:26:32.406Z</time></trkpt><trkpt lat="43.6541835" lon="11.4448741"><ele>146.0</ele><time>2026-03-28T09:26:33.406Z</time></trkpt><trkpt lat="43.6541447" lon="11.4446793"><ele>148.5</ele><time>2026-03-28T09:26:34.406Z</time></trkpt><trkpt lat="43.6541211" lon="11.4444892"><ele>151.0</ele><time>2026-03-28T09:26:35.406Z</time></trkpt><trkpt lat="43.6541013" lon="11.4443123"><ele>155.25</ele><time>2026-03-28T09:26:36.406Z</time></trkpt><trkpt lat="43.6540864" lon="11.4441382"><ele>159.5</ele><time>2026-03-28T09:26:37.406Z</time></trkpt><trkpt lat="43.6540714" lon="11.4439638"><ele>163.75</ele><time>2026-03-28T09:26:38.406Z</time></trkpt><trkpt lat="43.6540611" lon="11.4437932"><ele>168.0</ele><time>2026-03-28T09:26:39.406Z</time></trkpt><trkpt lat="43.6540518" lon="11.4436258"><ele>171.0</ele><time>2026-03-28T09:26:40.406Z</time></trkpt><trkpt lat="43.6540458" lon="11.4434587"><ele>174.0</ele><time>2026-03-28T09:26:41.406Z</time></trkpt><trkpt lat="43.6540449" lon="11.443281"><ele>177.0</ele><time>2026-03-28T09:26:42.406Z</time></trkpt><trkpt lat="43.6540566" lon="11.4431021"><ele>180.0</ele><time>2026-03-28T09:26:43.406Z</time></trkpt><trkpt lat="43.6540953" lon="11.4429195"><ele>180.75</ele><time>2026-03-28T09:26:44.406Z</time></trkpt><trkpt lat="43.6541518" lon="11.4427535"><ele>181.5</ele><time>2026-03-28T09:26:45.406Z</time></trkpt><trkpt lat="43.6542207" lon="11.4425948"><ele>182.25</ele><time>2026-03-28T09:26:46.406Z</time></trkpt><trkpt lat="43.6543194" lon="11.4424398"><ele>183.0</ele><time>2026-03-28T09:26:47.406Z</time></trkpt><trkpt lat="43.654414" lon="11.4422752"><ele>188.33333333333331</ele><time>2026-03-28T09:26:48.406Z</time></trkpt><trkpt lat="43.654479" lon="11.4420666"><ele>193.66666666666666</ele><time>2026-03-28T09:26:49.406Z</time></trkpt><trkpt lat="43.6545216" lon="11.4418458"><ele>199.0</ele><time>2026-03-28T09:26:50.406Z</time></trkpt><trkpt lat="43.6545648" lon="11.4416332"><ele>199.0</ele><time>2026-03-28T09:26:51.406Z</time></trkpt><trkpt lat="43.6545954" lon="11.4414263"><ele>199.0</ele><time>2026-03-28T09:26:52.406Z</time></trkpt><trkpt lat="43.6546016" lon="11.4412118"><ele>199.0</ele><time>2026-03-28T09:26:53.406Z</time></trkpt><trkpt lat="43.6545854" lon="11.4409883"><ele>200.66666666666666</ele><time>2026-03-28T09:26:54.406Z</time></trkpt><trkpt lat="43.6545499" lon="11.4407569"><ele>202.33333333333331</ele><time>2026-03-28T09:26:55.406Z</time></trkpt><trkpt lat="43.6545128" lon="11.440535"><ele>204.0</ele><time>2026-03-28T09:26:56.406Z</time></trkpt><trkpt lat="43.6544702" lon="11.4403175"><ele>201.5</ele><time>2026-03-28T09:26:57.406Z</time></trkpt><trkpt lat="43.6544165" lon="11.4401142"><ele>199.0</ele><time>2026-03-28T09:26:58.406Z</time></trkpt><trkpt lat="43.6543603" lon="11.4399487"><ele>196.5</ele><time>2026-03-28T09:26:59.406Z</time></trkpt><trkpt lat="43.6543424" lon="11.4397864"><ele>194.0</ele><time>2026-03-28T09:27:00.406Z</time></trkpt><trkpt lat="43.6543836" lon="11.4396386"><ele>197.75</ele><time>2026-03-28T09:27:01.406Z</time></trkpt><trkpt lat="43.6544521" lon="11.4394834"><ele>201.5</ele><time>2026-03-28T09:27:02.406Z</time></trkpt><trkpt lat="43.6545386" lon="11.4393291"><ele>205.25</ele><time>2026-03-28T09:27:03.406Z</time></trkpt><trkpt lat="43.6546155" lon="11.439162"><ele>209.0</ele><time>2026-03-28T09:27:04.406Z</time></trkpt><trkpt lat="43.6546883" lon="11.4389938"><ele>211.75</ele><time>2026-03-28T09:27:05.406Z</time></trkpt><trkpt lat="43.6547249" lon="11.4388049"><ele>214.5</ele><time>2026-03-28T09:27:06.406Z</time></trkpt><trkpt lat="43.6547246" lon="11.4386145"><ele>217.25</ele><time>2026-03-28T09:27:07.406Z</time></trkpt><trkpt lat="43.6546828" lon="11.4384269"><ele>220.0</ele><time>2026-03-28T09:27:08.406Z</time></trkpt><trkpt lat="43.6545998" lon="11.4382435"><ele>220.5</ele><time>2026-03-28T09:27:09.406Z</time></trkpt><trkpt lat="43.654497" lon="11.4380863"><ele>221.0</ele><time>2026-03-28T09:27:10.406Z</time></trkpt><trkpt lat="43.6544359" lon="11.4379232"><ele>221.5</ele><time>2026-03-28T09:27:11.406Z</time></trkpt><trkpt lat="43.6544259" lon="11.4377462"><ele>222.0</ele><time>2026-03-28T09:27:12.406Z</time></trkpt><trkpt lat="43.6544544" lon="11.4375898"><ele>224.5</ele><time>2026-03-28T09:27:13.406Z</time></trkpt><trkpt lat="43.6545287" lon="11.4374632"><ele>227.0</ele><time>2026-03-28T09:27:14.406Z</time></trkpt><trkpt lat="43.6546206" lon="11.4373538"><ele>229.5</ele><time>2026-03-28T09:27:15.406Z</time></trkpt><trkpt lat="43.6547274" lon="11.4372333"><ele>232.0</ele><time>2026-03-28T09:27:16.406Z</time></trkpt><trkpt lat="43.6548261" lon="11.4371045"><ele>234.25</ele><time>2026-03-28T09:27:17.406Z</time></trkpt><trkpt lat="43.6549129" lon="11.4369604"><ele>236.5</ele><time>2026-03-28T09:27:18.406Z</time></trkpt><trkpt lat="43.6549827" lon="11.4367833"><ele>238.75</ele><time>2026-03-28T09:27:19.406Z</time></trkpt><trkpt lat="43.6550456" lon="11.4365881"><ele>241.0</ele><time>2026-03-28T09:27:20.406Z</time></trkpt><trkpt lat="43.6550905" lon="11.4363826"><ele>242.60000000000002</ele><time>2026-03-28T09:27:21.406Z</time></trkpt><trkpt lat="43.6551218" lon="11.4361844"><ele>244.20000000000002</ele><time>2026-03-28T09:27:22.406Z</time></trkpt><trkpt lat="43.6551494" lon="11.4360152"><ele>245.79999999999998</ele><time>2026-03-28T09:27:23.406Z</time></trkpt><trkpt lat="43.6551603" lon="11.4358893"><ele>247.39999999999998</ele><time>2026-03-28T09:27:24.406Z</time></trkpt><trkpt lat="43.6551743" lon="11.4357955"><ele>249.0</ele><time>2026-03-28T09:27:25.406Z</time></trkpt><trkpt lat="43.6552054" lon="11.4356335"><ele>249.0</ele><time>2026-03-28T09:27:27.406Z</time></trkpt><trkpt lat="43.6551931" lon="11.4355179"><ele>248.99999999999997</ele><time>2026-03-28T09:27:28.406Z</time></trkpt><trkpt lat="43.6551636" lon="11.4353638"><ele>248.99999999999997</ele><time>2026-03-28T09:27:29.406Z</time></trkpt><trkpt lat="43.6551253" lon="11.4352068"><ele>249.0</ele><time>2026-03-28T09:27:30.406Z</time></trkpt><trkpt lat="43.6550973" lon="11.4350518"><ele>249.0</ele><time>2026-03-28T09:27:31.406Z</time></trkpt><trkpt lat="43.6550878" lon="11.4349128"><ele>249.5</ele><time>2026-03-28T09:27:32.406Z</time></trkpt><trkpt lat="43.6550888" lon="11.434794"><ele>250.0</ele><time>2026-03-28T09:27:33.406Z</time></trkpt><trkpt lat="43.6550927" lon="11.4347024"><ele>250.5</ele><time>2026-03-28T09:27:34.406Z</time></trkpt><trkpt lat="43.6550741" lon="11.4345903"><ele>251.0</ele><time>2026-03-28T09:27:35.406Z</time></trkpt><trkpt lat="43.6550316" lon="11.4344758"><ele>251.5</ele><time>2026-03-28T09:27:36.406Z</time></trkpt><trkpt lat="43.6549656" lon="11.4343514"><ele>252.0</ele><time>2026-03-28T09:27:37.406Z</time></trkpt><trkpt lat="43.6548643" lon="11.4342509"><ele>252.0</ele><time>2026-03-28T09:27:38.406Z</time></trkpt><trkpt lat="43.6547338" lon="11.4341916"><ele>252.0</ele><time>2026-03-28T09:27:39.406Z</time></trkpt><trkpt lat="43.6545895" lon="11.4341419"><ele>252.0</ele><time>2026-03-28T09:27:40.406Z</time></trkpt><trkpt lat="43.6544428" lon="11.4340825"><ele>252.0</ele><time>2026-03-28T09:27:41.406Z</time></trkpt><trkpt lat="43.6543068" lon="11.4340021"><ele>251.75</ele><time>2026-03-28T09:27:42.406Z</time></trkpt><trkpt lat="43.6541904" lon="11.4338978"><ele>251.5</ele><time>2026-03-28T09:27:43.406Z</time></trkpt><trkpt lat="43.6540878" lon="11.4337786"><ele>251.25</ele><time>2026-03-28T09:27:44.406Z</time></trkpt><trkpt lat="43.6539902" lon="11.4336457"><ele>251.0</ele><time>2026-03-28T09:27:45.406Z</time></trkpt><trkpt lat="43.6538983" lon="11.433487"><ele>251.0</ele><time>2026-03-28T09:27:46.406Z</time></trkpt><trkpt lat="43.653831" lon="11.4332866"><ele>251.0</ele><time>2026-03-28T09:27:47.406Z</time></trkpt><trkpt lat="43.6537863" lon="11.4330692"><ele>251.0</ele><time>2026-03-28T09:27:48.406Z</time></trkpt><trkpt lat="43.6537542" lon="11.4328459"><ele>252.0</ele><time>2026-03-28T09:27:49.406Z</time></trkpt><trkpt lat="43.6537514" lon="11.4326122"><ele>253.0</ele><time>2026-03-28T09:27:50.406Z</time></trkpt><trkpt lat="43.653775" lon="11.4323916"><ele>254.0</ele><time>2026-03-28T09:27:51.406Z</time></trkpt><trkpt lat="43.6538084" lon="11.4321981"><ele>254.75</ele><time>2026-03-28T09:27:52.406Z</time></trkpt><trkpt lat="43.6538305" lon="11.43202"><ele>255.5</ele><time>2026-03-28T09:27:53.406Z</time></trkpt><trkpt lat="43.6538411" lon="11.4318415"><ele>256.25</ele><time>2026-03-28T09:27:54.406Z</time></trkpt><trkpt lat="43.653836" lon="11.4316667"><ele>257.0</ele><time>2026-03-28T09:27:55.406Z</time></trkpt><trkpt lat="43.6538015" lon="11.4314835"><ele>257.5</ele><time>2026-03-28T09:27:56.406Z</time></trkpt><trkpt lat="43.6537397" lon="11.4312918"><ele>258.0</ele><time>2026-03-28T09:27:57.406Z</time></trkpt><trkpt lat="43.65368" lon="11.4311037"><ele>258.5</ele><time>2026-03-28T09:27:58.407Z</time></trkpt><trkpt lat="43.6536214" lon="11.4309195"><ele>259.0</ele><time>2026-03-28T09:27:59.406Z</time></trkpt><trkpt lat="43.653555" lon="11.430765"><ele>259.75</ele><time>2026-03-28T09:28:00.406Z</time></trkpt><trkpt lat="43.6534679" lon="11.4306637"><ele>260.5</ele><time>2026-03-28T09:28:01.406Z</time></trkpt><trkpt lat="43.6533686" lon="11.4306086"><ele>261.25</ele><time>2026-03-28T09:28:02.406Z</time></trkpt><trkpt lat="43.6532276" lon="11.4305824"><ele>262.0</ele><time>2026-03-28T09:28:03.406Z</time></trkpt><trkpt lat="43.6530833" lon="11.4305498"><ele>262.0</ele><time>2026-03-28T09:28:04.406Z</time></trkpt><trkpt lat="43.6529328" lon="11.4305076"><ele>262.0</ele><time>2026-03-28T09:28:05.406Z</time></trkpt><trkpt lat="43.6527875" lon="11.4304661"><ele>262.0</ele><time>2026-03-28T09:28:06.406Z</time></trkpt><trkpt lat="43.6526483" lon="11.4304281"><ele>262.0</ele><time>2026-03-28T09:28:07.406Z</time></trkpt><trkpt lat="43.6525179" lon="11.4303911"><ele>265.25</ele><time>2026-03-28T09:28:08.406Z</time></trkpt><trkpt lat="43.6523846" lon="11.4303412"><ele>268.5</ele><time>2026-03-28T09:28:09.406Z</time></trkpt><trkpt lat="43.6522536" lon="11.4302635"><ele>271.75</ele><time>2026-03-28T09:28:10.406Z</time></trkpt><trkpt lat="43.652125" lon="11.4301671"><ele>275.0</ele><time>2026-03-28T09:28:11.406Z</time></trkpt><trkpt lat="43.6520005" lon="11.4300512"><ele>276.6666666666667</ele><time>2026-03-28T09:28:12.406Z</time></trkpt><trkpt lat="43.6518759" lon="11.4299235"><ele>278.3333333333333</ele><time>2026-03-28T09:28:13.406Z</time></trkpt><trkpt lat="43.6517599" lon="11.4297807"><ele>280.0</ele><time>2026-03-28T09:28:14.406Z</time></trkpt><trkpt lat="43.6516604" lon="11.4296171"><ele>280.0</ele><time>2026-03-28T09:28:15.406Z</time></trkpt><trkpt lat="43.6515613" lon="11.4294515"><ele>280.0</ele><time>2026-03-28T09:28:16.406Z</time></trkpt><trkpt lat="43.6514609" lon="11.4292926"><ele>280.0</ele><time>2026-03-28T09:28:17.406Z</time></trkpt><trkpt lat="43.6513658" lon="11.4291491"><ele>280.0</ele><time>2026-03-28T09:28:18.406Z</time></trkpt><trkpt lat="43.6512867" lon="11.4289994"><ele>280.0</ele><time>2026-03-28T09:28:19.406Z</time></trkpt><trkpt lat="43.6512286" lon="11.4288272"><ele>280.0</ele><time>2026-03-28T09:28:20.406Z</time></trkpt><trkpt lat="43.6511625" lon="11.4286526"><ele>280.0</ele><time>2026-03-28T09:28:21.406Z</time></trkpt><trkpt lat="43.6510611" lon="11.4284878"><ele>280.0</ele><time>2026-03-28T09:28:22.406Z</time></trkpt><trkpt lat="43.6509553" lon="11.4283258"><ele>280.25</ele><time>2026-03-28T09:28:23.406Z</time></trkpt><trkpt lat="43.6508583" lon="11.428155"><ele>280.5</ele><time>2026-03-28T09:28:24.406Z</time></trkpt><trkpt lat="43.6507573" lon="11.4280103"><ele>280.75</ele><time>2026-03-28T09:28:25.406Z</time></trkpt><trkpt lat="43.65065" lon="11.427889"><ele>281.0</ele><time>2026-03-28T09:28:26.406Z</time></trkpt><trkpt lat="43.6505585" lon="11.4277555"><ele>281.0</ele><time>2026-03-28T09:28:27.406Z</time></trkpt><trkpt lat="43.6504806" lon="11.42761"><ele>281.0</ele><time>2026-03-28T09:28:28.406Z</time></trkpt><trkpt lat="43.6504144" lon="11.4274682"><ele>281.0</ele><time>2026-03-28T09:28:29.406Z</time></trkpt><trkpt lat="43.6503402" lon="11.4273536"><ele>281.0</ele><time>2026-03-28T09:28:30.406Z</time></trkpt><trkpt lat="43.6502688" lon="11.4272673"><ele>277.8</ele><time>2026-03-28T09:28:31.406Z</time></trkpt><trkpt lat="43.6502087" lon="11.4271828"><ele>274.6</ele><time>2026-03-28T09:28:32.406Z</time></trkpt><trkpt lat="43.6501811" lon="11.4270796"><ele>271.4</ele><time>2026-03-28T09:28:33.406Z</time></trkpt><trkpt lat="43.6502127" lon="11.4269456"><ele>268.2</ele><time>2026-03-28T09:28:34.406Z</time></trkpt><trkpt lat="43.650237" lon="11.4267878"><ele>265.0</ele><time>2026-03-28T09:28:35.406Z</time></trkpt><trkpt lat="43.6502557" lon="11.426618"><ele>265.0</ele><time>2026-03-28T09:28:36.406Z</time></trkpt><trkpt lat="43.6502573" lon="11.4264282"><ele>265.0</ele><time>2026-03-28T09:28:37.406Z</time></trkpt><trkpt lat="43.650236" lon="11.4262187"><ele>265.0</ele><time>2026-03-28T09:28:38.406Z</time></trkpt><trkpt lat="43.6502162" lon="11.426007"><ele>265.0</ele><time>2026-03-28T09:28:39.406Z</time></trkpt><trkpt lat="43.6501938" lon="11.4257942"><ele>265.5</ele><time>2026-03-28T09:28:40.406Z</time></trkpt><trkpt lat="43.6501619" lon="11.4255931"><ele>266.0</ele><time>2026-03-28T09:28:41.406Z</time></trkpt><trkpt lat="43.6501354" lon="11.4254263"><ele>266.5</ele><time>2026-03-28T09:28:42.406Z</time></trkpt><trkpt lat="43.6501203" lon="11.4252771"><ele>267.0</ele><time>2026-03-28T09:28:43.406Z</time></trkpt><trkpt lat="43.650099" lon="11.4251789"><ele>268.2</ele><time>2026-03-28T09:28:44.406Z</time></trkpt><trkpt lat="43.6500313" lon="11.4251239"><ele>269.4</ele><time>2026-03-28T09:28:45.406Z</time></trkpt><trkpt lat="43.6499228" lon="11.425139"><ele>270.6</ele><time>2026-03-28T09:28:46.406Z</time></trkpt><trkpt lat="43.6498135" lon="11.4251284"><ele>271.8</ele><time>2026-03-28T09:28:47.406Z</time></trkpt><trkpt lat="43.6497224" lon="11.4251025"><ele>273.0</ele><time>2026-03-28T09:28:48.406Z</time></trkpt><trkpt lat="43.6496532" lon="11.4250232"><ele>273.0</ele><time>2026-03-28T09:28:49.406Z</time></trkpt><trkpt lat="43.6496135" lon="11.4248739"><ele>273.0</ele><time>2026-03-28T09:28:50.406Z</time></trkpt><trkpt lat="43.6495767" lon="11.4247291"><ele>273.0</ele><time>2026-03-28T09:28:51.406Z</time></trkpt><trkpt lat="43.6495187" lon="11.4246175"><ele>273.0</ele><time>2026-03-28T09:28:52.406Z</time></trkpt><trkpt lat="43.6494275" lon="11.4245207"><ele>273.0</ele><time>2026-03-28T09:28:53.406Z</time></trkpt><trkpt lat="43.6493276" lon="11.4244153"><ele>276.5</ele><time>2026-03-28T09:28:54.406Z</time></trkpt><trkpt lat="43.6492274" lon="11.4243143"><ele>280.0</ele><time>2026-03-28T09:28:55.406Z</time></trkpt><trkpt lat="43.6491357" lon="11.42419"><ele>283.5</ele><time>2026-03-28T09:28:56.406Z</time></trkpt><trkpt lat="43.6490675" lon="11.424051"><ele>287.0</ele><time>2026-03-28T09:28:57.406Z</time></trkpt><trkpt lat="43.6490191" lon="11.4239157"><ele>290.1666666666667</ele><time>2026-03-28T09:28:58.406Z</time></trkpt><trkpt lat="43.6489707" lon="11.4237968"><ele>293.33333333333337</ele><time>2026-03-28T09:28:59.406Z</time></trkpt><trkpt lat="43.6489113" lon="11.423702"><ele>296.5</ele><time>2026-03-28T09:29:00.406Z</time></trkpt><trkpt lat="43.6488491" lon="11.4236126"><ele>299.6666666666667</ele><time>2026-03-28T09:29:01.406Z</time></trkpt><trkpt lat="43.6487874" lon="11.423555"><ele>302.8333333333333</ele><time>2026-03-28T09:29:02.406Z</time></trkpt><trkpt lat="43.6487065" lon="11.4235523"><ele>306.0</ele><time>2026-03-28T09:29:03.406Z</time></trkpt><trkpt lat="43.6486286" lon="11.4236087"><ele>305.5</ele><time>2026-03-28T09:29:04.406Z</time></trkpt><trkpt lat="43.6485657" lon="11.4237077"><ele>305.0</ele><time>2026-03-28T09:29:05.406Z</time></trkpt><trkpt lat="43.6485007" lon="11.4237867"><ele>304.5</ele><time>2026-03-28T09:29:06.406Z</time></trkpt><trkpt lat="43.6484368" lon="11.4237887"><ele>304.0</ele><time>2026-03-28T09:29:07.406Z</time></trkpt><trkpt lat="43.6483796" lon="11.4237148"><ele>303.5</ele><time>2026-03-28T09:29:08.406Z</time></trkpt><trkpt lat="43.6483843" lon="11.4235828"><ele>303.0</ele><time>2026-03-28T09:29:09.406Z</time></trkpt><trkpt lat="43.6483814" lon="11.4234671"><ele>303.0</ele><time>2026-03-28T09:29:10.406Z</time></trkpt><trkpt lat="43.6483607" lon="11.4233644"><ele>303.0</ele><time>2026-03-28T09:29:11.406Z</time></trkpt><trkpt lat="43.6483028" lon="11.423302"><ele>303.0</ele><time>2026-03-28T09:29:12.406Z</time></trkpt><trkpt lat="43.648241" lon="11.4232787"><ele>303.0</ele><time>2026-03-28T09:29:13.406Z</time></trkpt><trkpt lat="43.648144" lon="11.4232608"><ele>303.0</ele><time>2026-03-28T09:29:15.406Z</time></trkpt><trkpt lat="43.6480651" lon="11.423252"><ele>303.0</ele><time>2026-03-28T09:29:17.406Z</time></trkpt><trkpt lat="43.6479844" lon="11.423221"><ele>303.0</ele><time>2026-03-28T09:29:19.406Z</time></trkpt><trkpt lat="43.6478809" lon="11.4231983"><ele>303.0</ele><time>2026-03-28T09:29:21.407Z</time></trkpt><trkpt lat="43.6477857" lon="11.4231774"><ele>303.0</ele><time>2026-03-28T09:29:23.406Z</time></trkpt><trkpt lat="43.6477088" lon="11.4231215"><ele>303.0</ele><time>2026-03-28T09:29:25.406Z</time></trkpt><trkpt lat="43.6476604" lon="11.4230237"><ele>303.0</ele><time>2026-03-28T09:29:27.406Z</time></trkpt><trkpt lat="43.6476688" lon="11.422855"><ele>303.8333333333333</ele><time>2026-03-28T09:29:29.406Z</time></trkpt><trkpt lat="43.6476805" lon="11.4227581"><ele>304.6666666666667</ele><time>2026-03-28T09:29:30.406Z</time></trkpt><trkpt lat="43.6477111" lon="11.4226771"><ele>305.5</ele><time>2026-03-28T09:29:31.406Z</time></trkpt><trkpt lat="43.6477657" lon="11.4225385"><ele>306.33333333333337</ele><time>2026-03-28T09:29:33.406Z</time></trkpt><trkpt lat="43.6478194" lon="11.4224142"><ele>307.1666666666667</ele><time>2026-03-28T09:29:35.406Z</time></trkpt><trkpt lat="43.6478476" lon="11.4223141"><ele>308.0</ele><time>2026-03-28T09:29:37.406Z</time></trkpt><trkpt lat="43.6478317" lon="11.4222223"><ele>303.8</ele><time>2026-03-28T09:29:39.406Z</time></trkpt><trkpt lat="43.6477306" lon="11.4221462"><ele>299.6</ele><time>2026-03-28T09:29:41.406Z</time></trkpt><trkpt lat="43.6476506" lon="11.4220815"><ele>295.4</ele><time>2026-03-28T09:29:43.406Z</time></trkpt><trkpt lat="43.647591" lon="11.4220263"><ele>291.2</ele><time>2026-03-28T09:29:45.406Z</time></trkpt><trkpt lat="43.6475312" lon="11.4219427"><ele>287.0</ele><time>2026-03-28T09:29:48.406Z</time></trkpt><trkpt lat="43.6474936" lon="11.4218231"><ele>287.0</ele><time>2026-03-28T09:29:51.406Z</time></trkpt><trkpt lat="43.6474719" lon="11.4217373"><ele>287.0</ele><time>2026-03-28T09:29:53.406Z</time></trkpt><trkpt lat="43.647423" lon="11.4216185"><ele>287.0</ele><time>2026-03-28T09:29:55.406Z</time></trkpt><trkpt lat="43.647361" lon="11.4214875"><ele>287.0</ele><time>2026-03-28T09:29:57.406Z</time></trkpt><trkpt lat="43.6473196" lon="11.4213326"><ele>287.0</ele><time>2026-03-28T09:29:59.406Z</time></trkpt><trkpt lat="43.647327" lon="11.4212316"><ele>286.42857142857144</ele><time>2026-03-28T09:30:00.406Z</time></trkpt><trkpt lat="43.6473399" lon="11.421128"><ele>285.8571428571429</ele><time>2026-03-28T09:30:01.406Z</time></trkpt><trkpt lat="43.6473698" lon="11.421023"><ele>285.2857142857143</ele><time>2026-03-28T09:30:02.406Z</time></trkpt><trkpt lat="43.6473986" lon="11.4209172"><ele>284.7142857142857</ele><time>2026-03-28T09:30:03.406Z</time></trkpt><trkpt lat="43.6474226" lon="11.420828"><ele>284.14285714285717</ele><time>2026-03-28T09:30:04.406Z</time></trkpt><trkpt lat="43.647449" lon="11.4207489"><ele>283.57142857142856</ele><time>2026-03-28T09:30:05.406Z</time></trkpt><trkpt lat="43.6474966" lon="11.4206688"><ele>283.0</ele><time>2026-03-28T09:30:06.406Z</time></trkpt><trkpt lat="43.6475482" lon="11.4205918"><ele>283.0</ele><time>2026-03-28T09:30:07.406Z</time></trkpt><trkpt lat="43.6475924" lon="11.4205069"><ele>283.0</ele><time>2026-03-28T09:30:08.406Z</time></trkpt><trkpt lat="43.647641" lon="11.4204322"><ele>283.0</ele><time>2026-03-28T09:30:09.406Z</time></trkpt><trkpt lat="43.6476976" lon="11.4203627"><ele>283.0</ele><time>2026-03-28T09:30:10.406Z</time></trkpt><trkpt lat="43.6477507" lon="11.4202916"><ele>283.0</ele><time>2026-03-28T09:30:11.406Z</time></trkpt><trkpt lat="43.6478069" lon="11.4202236"><ele>283.0</ele><time>2026-03-28T09:30:12.406Z</time></trkpt><trkpt lat="43.6478723" lon="11.4201379"><ele>283.6</ele><time>2026-03-28T09:30:13.406Z</time></trkpt><trkpt lat="43.6479258" lon="11.4200287"><ele>284.20000000000005</ele><time>2026-03-28T09:30:14.406Z</time></trkpt><trkpt lat="43.6479613" lon="11.4199233"><ele>284.8</ele><time>2026-03-28T09:30:15.406Z</time></trkpt><trkpt lat="43.647996" lon="11.4198139"><ele>285.40000000000003</ele><time>2026-03-28T09:30:16.406Z</time></trkpt><trkpt lat="43.6480368" lon="11.419703"><ele>286.0</ele><time>2026-03-28T09:30:17.406Z</time></trkpt><trkpt lat="43.6480752" lon="11.4195847"><ele>286.0</ele><time>2026-03-28T09:30:18.406Z</time></trkpt><trkpt lat="43.648114" lon="11.4194686"><ele>286.0</ele><time>2026-03-28T09:30:19.406Z</time></trkpt><trkpt lat="43.6481366" lon="11.4193584"><ele>286.0</ele><time>2026-03-28T09:30:20.406Z</time></trkpt><trkpt lat="43.6481561" lon="11.4192683"><ele>286.0</ele><time>2026-03-28T09:30:21.406Z</time></trkpt><trkpt lat="43.6482096" lon="11.4191383"><ele>286.0</ele><time>2026-03-28T09:30:23.406Z</time></trkpt><trkpt lat="43.6482545" lon="11.4190128"><ele>286.0</ele><time>2026-03-28T09:30:25.406Z</time></trkpt><trkpt lat="43.6482745" lon="11.4188228"><ele>286.0</ele><time>2026-03-28T09:30:27.406Z</time></trkpt><trkpt lat="43.6482572" lon="11.4187006"><ele>286.0</ele><time>2026-03-28T09:30:28.406Z</time></trkpt><trkpt lat="43.6482411" lon="11.4185713"><ele>286.0</ele><time>2026-03-28T09:30:29.406Z</time></trkpt><trkpt lat="43.6482236" lon="11.418444"><ele>286.0</ele><time>2026-03-28T09:30:30.407Z</time></trkpt><trkpt lat="43.6482019" lon="11.4183273"><ele>285.99999999999994</ele><time>2026-03-28T09:30:31.406Z</time></trkpt><trkpt lat="43.6481874" lon="11.4182255"><ele>286.0</ele><time>2026-03-28T09:30:32.406Z</time></trkpt><trkpt lat="43.6481877" lon="11.4181311"><ele>286.0</ele><time>2026-03-28T09:30:33.406Z</time></trkpt><trkpt lat="43.6481913" lon="11.4180387"><ele>286.0</ele><time>2026-03-28T09:30:34.406Z</time></trkpt><trkpt lat="43.6482044" lon="11.4179458"><ele>286.0</ele><time>2026-03-28T09:30:35.406Z</time></trkpt><trkpt lat="43.6482198" lon="11.4178498"><ele>285.99999999999994</ele><time>2026-03-28T09:30:36.406Z</time></trkpt><trkpt lat="43.6482343" lon="11.4177412"><ele>286.0</ele><time>2026-03-28T09:30:37.406Z</time></trkpt><trkpt lat="43.6482515" lon="11.417648"><ele>285.99999999999994</ele><time>2026-03-28T09:30:38.406Z</time></trkpt><trkpt lat="43.6482665" lon="11.4175634"><ele>286.0</ele><time>2026-03-28T09:30:39.406Z</time></trkpt><trkpt lat="43.6482878" lon="11.4174715"><ele>286.0</ele><time>2026-03-28T09:30:40.407Z</time></trkpt><trkpt lat="43.6483175" lon="11.417375"><ele>286.0</ele><time>2026-03-28T09:30:41.406Z</time></trkpt><trkpt lat="43.6483567" lon="11.4172935"><ele>286.0</ele><time>2026-03-28T09:30:42.406Z</time></trkpt><trkpt lat="43.6483881" lon="11.4172165"><ele>285.99999999999994</ele><time>2026-03-28T09:30:43.406Z</time></trkpt><trkpt lat="43.648431" lon="11.4170833"><ele>286.0</ele><time>2026-03-28T09:30:45.406Z</time></trkpt><trkpt lat="43.6484154" lon="11.4169813"><ele>286.0</ele><time>2026-03-28T09:30:47.406Z</time></trkpt><trkpt lat="43.6483879" lon="11.416887"><ele>286.0</ele><time>2026-03-28T09:30:49.406Z</time></trkpt><trkpt lat="43.6483466" lon="11.4167383"><ele>286.0</ele><time>2026-03-28T09:30:51.406Z</time></trkpt><trkpt lat="43.6483046" lon="11.4166135"><ele>286.0</ele><time>2026-03-28T09:30:53.406Z</time></trkpt><trkpt lat="43.6482686" lon="11.4165329"><ele>286.0</ele><time>2026-03-28T09:30:55.406Z</time></trkpt><trkpt lat="43.6482071" lon="11.4164395"><ele>286.0</ele><time>2026-03-28T09:30:58.406Z</time></trkpt><trkpt lat="43.6481613" lon="11.416369"><ele>286.6</ele><time>2026-03-28T09:31:00.406Z</time></trkpt><trkpt lat="43.6480908" lon="11.4162885"><ele>287.20000000000005</ele><time>2026-03-28T09:31:02.406Z</time></trkpt><trkpt lat="43.6480317" lon="11.4162146"><ele>287.79999999999995</ele><time>2026-03-28T09:31:03.406Z</time></trkpt><trkpt lat="43.6479482" lon="11.4161546"><ele>288.4</ele><time>2026-03-28T09:31:04.406Z</time></trkpt><trkpt lat="43.6478603" lon="11.4160722"><ele>289.0</ele><time>2026-03-28T09:31:05.406Z</time></trkpt><trkpt lat="43.6477663" lon="11.4160152"><ele>289.2</ele><time>2026-03-28T09:31:06.406Z</time></trkpt><trkpt lat="43.6476721" lon="11.4159568"><ele>289.4</ele><time>2026-03-28T09:31:07.406Z</time></trkpt><trkpt lat="43.6475746" lon="11.4159101"><ele>289.6</ele><time>2026-03-28T09:31:08.406Z</time></trkpt><trkpt lat="43.647501" lon="11.41586"><ele>289.8</ele><time>2026-03-28T09:31:09.406Z</time></trkpt><trkpt lat="43.6474414" lon="11.4157904"><ele>290.0</ele><time>2026-03-28T09:31:10.406Z</time></trkpt><trkpt lat="43.6473789" lon="11.4156927"><ele>290.0</ele><time>2026-03-28T09:31:11.406Z</time></trkpt><trkpt lat="43.6473175" lon="11.4155811"><ele>290.0</ele><time>2026-03-28T09:31:12.406Z</time></trkpt><trkpt lat="43.6472629" lon="11.4154497"><ele>290.0</ele><time>2026-03-28T09:31:13.406Z</time></trkpt><trkpt lat="43.6471966" lon="11.4153051"><ele>290.0</ele><time>2026-03-28T09:31:14.406Z</time></trkpt><trkpt lat="43.6471279" lon="11.4151596"><ele>290.6666666666667</ele><time>2026-03-28T09:31:15.406Z</time></trkpt><trkpt lat="43.6470434" lon="11.4149851"><ele>291.3333333333333</ele><time>2026-03-28T09:31:16.406Z</time></trkpt><trkpt lat="43.6469625" lon="11.4148217"><ele>292.0</ele><time>2026-03-28T09:31:17.406Z</time></trkpt><trkpt lat="43.6468821" lon="11.4146303"><ele>292.0</ele><time>2026-03-28T09:31:18.406Z</time></trkpt><trkpt lat="43.6467978" lon="11.4144543"><ele>292.0</ele><time>2026-03-28T09:31:19.406Z</time></trkpt><trkpt lat="43.6467178" lon="11.4142788"><ele>292.0</ele><time>2026-03-28T09:31:20.406Z</time></trkpt><trkpt lat="43.6466409" lon="11.4141139"><ele>292.0</ele><time>2026-03-28T09:31:21.406Z</time></trkpt><trkpt lat="43.6465674" lon="11.4139563"><ele>294.5</ele><time>2026-03-28T09:31:22.406Z</time></trkpt><trkpt lat="43.6464944" lon="11.4138007"><ele>297.0</ele><time>2026-03-28T09:31:23.406Z</time></trkpt><trkpt lat="43.6464172" lon="11.4136509"><ele>299.5</ele><time>2026-03-28T09:31:24.406Z</time></trkpt><trkpt lat="43.646329" lon="11.4134924"><ele>302.0</ele><time>2026-03-28T09:31:25.406Z</time></trkpt><trkpt lat="43.646258" lon="11.4133397"><ele>302.0</ele><time>2026-03-28T09:31:26.406Z</time></trkpt><trkpt lat="43.6461954" lon="11.4131957"><ele>302.0</ele><time>2026-03-28T09:31:27.406Z</time></trkpt><trkpt lat="43.6461391" lon="11.4130812"><ele>302.0</ele><time>2026-03-28T09:31:28.406Z</time></trkpt><trkpt lat="43.646076" lon="11.412978"><ele>302.0</ele><time>2026-03-28T09:31:29.406Z</time></trkpt><trkpt lat="43.6460004" lon="11.4128985"><ele>302.0</ele><time>2026-03-28T09:31:30.406Z</time></trkpt><trkpt lat="43.6459107" lon="11.4128505"><ele>303.0</ele><time>2026-03-28T09:31:31.406Z</time></trkpt><trkpt lat="43.6458118" lon="11.4128245"><ele>304.0</ele><time>2026-03-28T09:31:32.406Z</time></trkpt><trkpt lat="43.6457199" lon="11.4128408"><ele>305.0</ele><time>2026-03-28T09:31:33.406Z</time></trkpt><trkpt lat="43.6456572" lon="11.4128712"><ele>306.0</ele><time>2026-03-28T09:31:34.406Z</time></trkpt><trkpt lat="43.6456069" lon="11.4129455"><ele>307.0</ele><time>2026-03-28T09:31:35.406Z</time></trkpt><trkpt lat="43.6455756" lon="11.4130576"><ele>308.0</ele><time>2026-03-28T09:31:36.406Z</time></trkpt><trkpt lat="43.6455497" lon="11.4132059"><ele>308.0</ele><time>2026-03-28T09:31:37.406Z</time></trkpt><trkpt lat="43.6455125" lon="11.4133652"><ele>308.0</ele><time>2026-03-28T09:31:38.406Z</time></trkpt><trkpt lat="43.6454678" lon="11.4135315"><ele>308.0</ele><time>2026-03-28T09:31:39.406Z</time></trkpt><trkpt lat="43.6454268" lon="11.4137096"><ele>308.0</ele><time>2026-03-28T09:31:40.406Z</time></trkpt><trkpt lat="43.6453944" lon="11.4138855"><ele>307.6</ele><time>2026-03-28T09:31:41.406Z</time></trkpt><trkpt lat="43.6453686" lon="11.4140304"><ele>307.20000000000005</ele><time>2026-03-28T09:31:42.406Z</time></trkpt><trkpt lat="43.6453317" lon="11.4141283"><ele>306.8</ele><time>2026-03-28T09:31:43.406Z</time></trkpt><trkpt lat="43.6452734" lon="11.4141973"><ele>306.40000000000003</ele><time>2026-03-28T09:31:44.406Z</time></trkpt><trkpt lat="43.6451792" lon="11.4142419"><ele>306.0</ele><time>2026-03-28T09:31:45.406Z</time></trkpt><trkpt lat="43.6450876" lon="11.4142368"><ele>310.0</ele><time>2026-03-28T09:31:46.406Z</time></trkpt><trkpt lat="43.644984" lon="11.4142053"><ele>314.0</ele><time>2026-03-28T09:31:47.406Z</time></trkpt><trkpt lat="43.6448788" lon="11.4141529"><ele>318.0</ele><time>2026-03-28T09:31:48.406Z</time></trkpt><trkpt lat="43.644775" lon="11.4140949"><ele>322.0</ele><time>2026-03-28T09:31:49.406Z</time></trkpt><trkpt lat="43.6446902" lon="11.4140556"><ele>326.0</ele><time>2026-03-28T09:31:50.406Z</time></trkpt><trkpt lat="43.6446268" lon="11.4140113"><ele>326.0</ele><time>2026-03-28T09:31:51.406Z</time></trkpt><trkpt lat="43.6445814" lon="11.413938"><ele>326.0</ele><time>2026-03-28T09:31:52.406Z</time></trkpt><trkpt lat="43.6445502" lon="11.4138293"><ele>326.0</ele><time>2026-03-28T09:31:53.406Z</time></trkpt><trkpt lat="43.6445178" lon="11.4137037"><ele>326.0</ele><time>2026-03-28T09:31:54.406Z</time></trkpt><trkpt lat="43.6444925" lon="11.4135385"><ele>326.0</ele><time>2026-03-28T09:31:55.406Z</time></trkpt><trkpt lat="43.6444598" lon="11.4133692"><ele>326.5</ele><time>2026-03-28T09:31:56.406Z</time></trkpt><trkpt lat="43.6444392" lon="11.4131897"><ele>327.0</ele><time>2026-03-28T09:31:57.406Z</time></trkpt><trkpt lat="43.6444185" lon="11.4130091"><ele>327.5</ele><time>2026-03-28T09:31:58.406Z</time></trkpt><trkpt lat="43.6443813" lon="11.4128567"><ele>328.0</ele><time>2026-03-28T09:31:59.406Z</time></trkpt><trkpt lat="43.6443209" lon="11.4127303"><ele>329.16666666666663</ele><time>2026-03-28T09:32:00.406Z</time></trkpt><trkpt lat="43.644258" lon="11.412632"><ele>330.3333333333333</ele><time>2026-03-28T09:32:01.406Z</time></trkpt><trkpt lat="43.6441931" lon="11.4125582"><ele>331.5</ele><time>2026-03-28T09:32:02.406Z</time></trkpt><trkpt lat="43.644126" lon="11.4124965"><ele>332.6666666666667</ele><time>2026-03-28T09:32:03.406Z</time></trkpt><trkpt lat="43.6440664" lon="11.4124435"><ele>333.83333333333337</ele><time>2026-03-28T09:32:04.406Z</time></trkpt><trkpt lat="43.6439652" lon="11.4123719"><ele>335.0</ele><time>2026-03-28T09:32:06.407Z</time></trkpt><trkpt lat="43.6438821" lon="11.4123752"><ele>335.0</ele><time>2026-03-28T09:32:07.406Z</time></trkpt><trkpt lat="43.6437672" lon="11.4124242"><ele>335.0</ele><time>2026-03-28T09:32:08.406Z</time></trkpt><trkpt lat="43.6436481" lon="11.4124962"><ele>335.0</ele><time>2026-03-28T09:32:09.406Z</time></trkpt><trkpt lat="43.6435094" lon="11.4125591"><ele>335.0</ele><time>2026-03-28T09:32:10.406Z</time></trkpt><trkpt lat="43.64336" lon="11.4126236"><ele>333.0</ele><time>2026-03-28T09:32:11.406Z</time></trkpt><trkpt lat="43.6432028" lon="11.4126893"><ele>331.0</ele><time>2026-03-28T09:32:12.406Z</time></trkpt><trkpt lat="43.643042" lon="11.4127914"><ele>329.0</ele><time>2026-03-28T09:32:13.406Z</time></trkpt><trkpt lat="43.6429066" lon="11.4129446"><ele>329.0</ele><time>2026-03-28T09:32:14.406Z</time></trkpt><trkpt lat="43.6427986" lon="11.4131479"><ele>329.0</ele><time>2026-03-28T09:32:15.406Z</time></trkpt><trkpt lat="43.6427206" lon="11.4133939"><ele>329.0</ele><time>2026-03-28T09:32:16.406Z</time></trkpt><trkpt lat="43.6426511" lon="11.4136699"><ele>325.33333333333337</ele><time>2026-03-28T09:32:17.406Z</time></trkpt><trkpt lat="43.6425674" lon="11.4139468"><ele>321.6666666666667</ele><time>2026-03-28T09:32:18.406Z</time></trkpt><trkpt lat="43.6424763" lon="11.4142249"><ele>318.0</ele><time>2026-03-28T09:32:19.406Z</time></trkpt><trkpt lat="43.6423787" lon="11.4145"><ele>315.0</ele><time>2026-03-28T09:32:20.406Z</time></trkpt><trkpt lat="43.6422791" lon="11.4147776"><ele>312.0</ele><time>2026-03-28T09:32:21.406Z</time></trkpt><trkpt lat="43.6421811" lon="11.415055"><ele>309.0</ele><time>2026-03-28T09:32:22.406Z</time></trkpt><trkpt lat="43.6420876" lon="11.415334"><ele>310.6666666666667</ele><time>2026-03-28T09:32:23.406Z</time></trkpt><trkpt lat="43.6419895" lon="11.4156081"><ele>312.33333333333337</ele><time>2026-03-28T09:32:24.406Z</time></trkpt><trkpt lat="43.6418909" lon="11.4158909"><ele>314.0</ele><time>2026-03-28T09:32:25.406Z</time></trkpt><trkpt lat="43.6417944" lon="11.4161663"><ele>311.33333333333337</ele><time>2026-03-28T09:32:26.406Z</time></trkpt><trkpt lat="43.6416922" lon="11.4164457"><ele>308.6666666666667</ele><time>2026-03-28T09:32:27.407Z</time></trkpt><trkpt lat="43.6415922" lon="11.4167204"><ele>306.0</ele><time>2026-03-28T09:32:28.407Z</time></trkpt><trkpt lat="43.6415024" lon="11.4169989"><ele>302.3333333333333</ele><time>2026-03-28T09:32:29.407Z</time></trkpt><trkpt lat="43.6414357" lon="11.4172897"><ele>298.66666666666663</ele><time>2026-03-28T09:32:30.407Z</time></trkpt><trkpt lat="43.6414023" lon="11.4175848"><ele>295.0</ele><time>2026-03-28T09:32:31.407Z</time></trkpt><trkpt lat="43.6413991" lon="11.4178835"><ele>292.3333333333333</ele><time>2026-03-28T09:32:32.407Z</time></trkpt><trkpt lat="43.6413947" lon="11.4181903"><ele>289.6666666666667</ele><time>2026-03-28T09:32:33.407Z</time></trkpt><trkpt lat="43.6413787" lon="11.4184747"><ele>287.0</ele><time>2026-03-28T09:32:34.407Z</time></trkpt><trkpt lat="43.6413347" lon="11.4187551"><ele>284.6666666666667</ele><time>2026-03-28T09:32:35.407Z</time></trkpt><trkpt lat="43.6412587" lon="11.4190129"><ele>282.3333333333333</ele><time>2026-03-28T09:32:36.407Z</time></trkpt><trkpt lat="43.6411559" lon="11.419236"><ele>280.0</ele><time>2026-03-28T09:32:37.407Z</time></trkpt><trkpt lat="43.6410366" lon="11.4194295"><ele>280.3333333333333</ele><time>2026-03-28T09:32:38.407Z</time></trkpt><trkpt lat="43.6409091" lon="11.4196028"><ele>280.6666666666667</ele><time>2026-03-28T09:32:39.407Z</time></trkpt><trkpt lat="43.6407776" lon="11.4197756"><ele>281.0</ele><time>2026-03-28T09:32:40.407Z</time></trkpt><trkpt lat="43.6406496" lon="11.4199494"><ele>281.0</ele><time>2026-03-28T09:32:41.407Z</time></trkpt><trkpt lat="43.6405232" lon="11.4201355"><ele>281.0</ele><time>2026-03-28T09:32:42.407Z</time></trkpt><trkpt lat="43.6404025" lon="11.4203405"><ele>281.0</ele><time>2026-03-28T09:32:43.407Z</time></trkpt><trkpt lat="43.6402862" lon="11.4205607"><ele>281.33333333333337</ele><time>2026-03-28T09:32:44.408Z</time></trkpt><trkpt lat="43.6401823" lon="11.4207783"><ele>281.6666666666667</ele><time>2026-03-28T09:32:45.407Z</time></trkpt><trkpt lat="43.640082" lon="11.4210049"><ele>282.0</ele><time>2026-03-28T09:32:46.407Z</time></trkpt><trkpt lat="43.6399953" lon="11.4212375"><ele>278.6666666666667</ele><time>2026-03-28T09:32:47.407Z</time></trkpt><trkpt lat="43.6399209" lon="11.421462"><ele>275.33333333333337</ele><time>2026-03-28T09:32:48.407Z</time></trkpt><trkpt lat="43.6398552" lon="11.4216812"><ele>272.0</ele><time>2026-03-28T09:32:49.407Z</time></trkpt><trkpt lat="43.6397963" lon="11.4218937"><ele>272.0</ele><time>2026-03-28T09:32:50.407Z</time></trkpt><trkpt lat="43.639737" lon="11.4220974"><ele>272.0</ele><time>2026-03-28T09:32:51.407Z</time></trkpt><trkpt lat="43.6396745" lon="11.422295"><ele>272.0</ele><time>2026-03-28T09:32:52.407Z</time></trkpt><trkpt lat="43.6396095" lon="11.422486"><ele>271.25</ele><time>2026-03-28T09:32:53.407Z</time></trkpt><trkpt lat="43.639555" lon="11.4226715"><ele>270.5</ele><time>2026-03-28T09:32:54.407Z</time></trkpt><trkpt lat="43.6395037" lon="11.4228494"><ele>269.75</ele><time>2026-03-28T09:32:55.407Z</time></trkpt><trkpt lat="43.639449" lon="11.4230154"><ele>269.0</ele><time>2026-03-28T09:32:56.407Z</time></trkpt><trkpt lat="43.6393789" lon="11.4231601"><ele>269.0</ele><time>2026-03-28T09:32:57.407Z</time></trkpt><trkpt lat="43.6392837" lon="11.4232575"><ele>269.0</ele><time>2026-03-28T09:32:58.407Z</time></trkpt><trkpt lat="43.6391664" lon="11.4232954"><ele>269.0</ele><time>2026-03-28T09:32:59.407Z</time></trkpt><trkpt lat="43.6390441" lon="11.4232739"><ele>269.0</ele><time>2026-03-28T09:33:00.407Z</time></trkpt><trkpt lat="43.6389311" lon="11.4231855"><ele>269.0</ele><time>2026-03-28T09:33:01.407Z</time></trkpt><trkpt lat="43.6388379" lon="11.4230762"><ele>269.0</ele><time>2026-03-28T09:33:02.407Z</time></trkpt><trkpt lat="43.638744" lon="11.4229403"><ele>269.0</ele><time>2026-03-28T09:33:03.407Z</time></trkpt><trkpt lat="43.6386533" lon="11.4228188"><ele>269.0</ele><time>2026-03-28T09:33:04.407Z</time></trkpt><trkpt lat="43.6385522" lon="11.4227197"><ele>270.25</ele><time>2026-03-28T09:33:05.407Z</time></trkpt><trkpt lat="43.6384264" lon="11.4226676"><ele>271.5</ele><time>2026-03-28T09:33:06.407Z</time></trkpt><trkpt lat="43.638299" lon="11.4226531"><ele>272.75</ele><time>2026-03-28T09:33:07.407Z</time></trkpt><trkpt lat="43.6381713" lon="11.4226805"><ele>274.0</ele><time>2026-03-28T09:33:08.407Z</time></trkpt><trkpt lat="43.6380257" lon="11.4227293"><ele>274.0</ele><time>2026-03-28T09:33:09.407Z</time></trkpt><trkpt lat="43.6378824" lon="11.4227752"><ele>274.0</ele><time>2026-03-28T09:33:10.407Z</time></trkpt><trkpt lat="43.6377572" lon="11.4228306"><ele>274.0</ele><time>2026-03-28T09:33:11.407Z</time></trkpt><trkpt lat="43.6376344" lon="11.4229201"><ele>274.0</ele><time>2026-03-28T09:33:12.407Z</time></trkpt><trkpt lat="43.6375553" lon="11.4230975"><ele>272.3333333333333</ele><time>2026-03-28T09:33:13.407Z</time></trkpt><trkpt lat="43.637504" lon="11.4232947"><ele>270.6666666666667</ele><time>2026-03-28T09:33:14.407Z</time></trkpt><trkpt lat="43.6374732" lon="11.4235045"><ele>269.0</ele><time>2026-03-28T09:33:15.407Z</time></trkpt><trkpt lat="43.6374549" lon="11.4237133"><ele>268.0</ele><time>2026-03-28T09:33:16.407Z</time></trkpt><trkpt lat="43.6374367" lon="11.4239189"><ele>267.0</ele><time>2026-03-28T09:33:17.407Z</time></trkpt><trkpt lat="43.6374481" lon="11.4241319"><ele>266.0</ele><time>2026-03-28T09:33:18.407Z</time></trkpt><trkpt lat="43.6374826" lon="11.4243386"><ele>266.0</ele><time>2026-03-28T09:33:19.407Z</time></trkpt><trkpt lat="43.6375283" lon="11.424538"><ele>266.0</ele><time>2026-03-28T09:33:20.407Z</time></trkpt><trkpt lat="43.6375787" lon="11.4247327"><ele>266.0</ele><time>2026-03-28T09:33:21.407Z</time></trkpt><trkpt lat="43.6376286" lon="11.4249265"><ele>267.25</ele><time>2026-03-28T09:33:22.407Z</time></trkpt><trkpt lat="43.6376696" lon="11.4251224"><ele>268.5</ele><time>2026-03-28T09:33:23.407Z</time></trkpt><trkpt lat="43.6377052" lon="11.425317"><ele>269.75</ele><time>2026-03-28T09:33:24.407Z</time></trkpt><trkpt lat="43.6377381" lon="11.4255163"><ele>271.0</ele><time>2026-03-28T09:33:25.407Z</time></trkpt><trkpt lat="43.6377564" lon="11.4257098"><ele>270.75</ele><time>2026-03-28T09:33:26.407Z</time></trkpt><trkpt lat="43.6377634" lon="11.425909"><ele>270.5</ele><time>2026-03-28T09:33:27.407Z</time></trkpt><trkpt lat="43.6377617" lon="11.426103"><ele>270.25</ele><time>2026-03-28T09:33:28.407Z</time></trkpt><trkpt lat="43.6377537" lon="11.4262868"><ele>270.0</ele><time>2026-03-28T09:33:29.407Z</time></trkpt><trkpt lat="43.6377509" lon="11.4264511"><ele>270.0</ele><time>2026-03-28T09:33:30.407Z</time></trkpt><trkpt lat="43.6377522" lon="11.4265945"><ele>270.0</ele><time>2026-03-28T09:33:31.407Z</time></trkpt><trkpt lat="43.6377536" lon="11.426695"><ele>270.0</ele><time>2026-03-28T09:33:32.407Z</time></trkpt><trkpt lat="43.6377092" lon="11.4268022"><ele>270.0</ele><time>2026-03-28T09:33:34.407Z</time></trkpt><trkpt lat="43.637598" lon="11.4267643"><ele>270.0</ele><time>2026-03-28T09:33:36.407Z</time></trkpt><trkpt lat="43.6375491" lon="11.4266506"><ele>270.0</ele><time>2026-03-28T09:33:37.407Z</time></trkpt><trkpt lat="43.6374866" lon="11.4265044"><ele>270.0</ele><time>2026-03-28T09:33:38.407Z</time></trkpt><trkpt lat="43.6374233" lon="11.4263594"><ele>270.0</ele><time>2026-03-28T09:33:39.407Z</time></trkpt><trkpt lat="43.6373588" lon="11.426195"><ele>270.0</ele><time>2026-03-28T09:33:40.408Z</time></trkpt><trkpt lat="43.6372987" lon="11.4260118"><ele>270.25</ele><time>2026-03-28T09:33:41.407Z</time></trkpt><trkpt lat="43.6372564" lon="11.425828"><ele>270.5</ele><time>2026-03-28T09:33:42.407Z</time></trkpt><trkpt lat="43.6372237" lon="11.4256496"><ele>270.75</ele><time>2026-03-28T09:33:43.407Z</time></trkpt><trkpt lat="43.6371876" lon="11.4254848"><ele>271.0</ele><time>2026-03-28T09:33:44.407Z</time></trkpt><trkpt lat="43.6371513" lon="11.4253285"><ele>271.0</ele><time>2026-03-28T09:33:45.407Z</time></trkpt><trkpt lat="43.6370764" lon="11.4251962"><ele>271.0</ele><time>2026-03-28T09:33:46.407Z</time></trkpt><trkpt lat="43.6369752" lon="11.4251536"><ele>271.0</ele><time>2026-03-28T09:33:47.407Z</time></trkpt><trkpt lat="43.6368523" lon="11.4251488"><ele>271.0</ele><time>2026-03-28T09:33:48.407Z</time></trkpt><trkpt lat="43.6367054" lon="11.4252064"><ele>273.3333333333333</ele><time>2026-03-28T09:33:49.407Z</time></trkpt><trkpt lat="43.6365489" lon="11.4252535"><ele>275.6666666666667</ele><time>2026-03-28T09:33:50.407Z</time></trkpt><trkpt lat="43.6363939" lon="11.425277"><ele>278.0</ele><time>2026-03-28T09:33:51.407Z</time></trkpt><trkpt lat="43.6362354" lon="11.4252792"><ele>277.0</ele><time>2026-03-28T09:33:52.407Z</time></trkpt><trkpt lat="43.6360937" lon="11.4252511"><ele>276.0</ele><time>2026-03-28T09:33:53.407Z</time></trkpt><trkpt lat="43.6359684" lon="11.4252449"><ele>275.0</ele><time>2026-03-28T09:33:54.407Z</time></trkpt><trkpt lat="43.6358356" lon="11.4253347"><ele>274.0</ele><time>2026-03-28T09:33:55.407Z</time></trkpt><trkpt lat="43.6357119" lon="11.4254942"><ele>274.0</ele><time>2026-03-28T09:33:56.407Z</time></trkpt><trkpt lat="43.6355961" lon="11.4256683"><ele>274.0</ele><time>2026-03-28T09:33:57.407Z</time></trkpt><trkpt lat="43.6354554" lon="11.4258391"><ele>274.0</ele><time>2026-03-28T09:33:58.407Z</time></trkpt><trkpt lat="43.6353086" lon="11.4260065"><ele>275.0</ele><time>2026-03-28T09:33:59.407Z</time></trkpt><trkpt lat="43.6351665" lon="11.4261779"><ele>276.0</ele><time>2026-03-28T09:34:00.407Z</time></trkpt><trkpt lat="43.6350362" lon="11.4263414"><ele>277.0</ele><time>2026-03-28T09:34:01.408Z</time></trkpt><trkpt lat="43.6349053" lon="11.426489"><ele>277.0</ele><time>2026-03-28T09:34:02.407Z</time></trkpt><trkpt lat="43.634765" lon="11.4266184"><ele>277.0</ele><time>2026-03-28T09:34:03.407Z</time></trkpt><trkpt lat="43.6346189" lon="11.4267247"><ele>277.0</ele><time>2026-03-28T09:34:04.407Z</time></trkpt><trkpt lat="43.6344865" lon="11.426815"><ele>278.75</ele><time>2026-03-28T09:34:05.407Z</time></trkpt><trkpt lat="43.6343597" lon="11.4268814"><ele>280.5</ele><time>2026-03-28T09:34:06.407Z</time></trkpt><trkpt lat="43.6342333" lon="11.426915"><ele>282.25</ele><time>2026-03-28T09:34:07.408Z</time></trkpt><trkpt lat="43.6341097" lon="11.4269008"><ele>284.0</ele><time>2026-03-28T09:34:08.407Z</time></trkpt><trkpt lat="43.633991" lon="11.4268318"><ele>284.0</ele><time>2026-03-28T09:34:09.407Z</time></trkpt><trkpt lat="43.6338787" lon="11.4267292"><ele>284.0</ele><time>2026-03-28T09:34:10.407Z</time></trkpt><trkpt lat="43.6337618" lon="11.4266328"><ele>284.0</ele><time>2026-03-28T09:34:11.407Z</time></trkpt><trkpt lat="43.6336338" lon="11.4265408"><ele>284.0</ele><time>2026-03-28T09:34:12.407Z</time></trkpt><trkpt lat="43.6334973" lon="11.4264427"><ele>284.0</ele><time>2026-03-28T09:34:13.407Z</time></trkpt><trkpt lat="43.6333573" lon="11.4263485"><ele>284.0</ele><time>2026-03-28T09:34:14.407Z</time></trkpt><trkpt lat="43.6332283" lon="11.4262681"><ele>284.0</ele><time>2026-03-28T09:34:15.407Z</time></trkpt><trkpt lat="43.6331276" lon="11.4261998"><ele>284.0</ele><time>2026-03-28T09:34:16.407Z</time></trkpt><trkpt lat="43.6330389" lon="11.4261909"><ele>284.0</ele><time>2026-03-28T09:34:17.407Z</time></trkpt><trkpt lat="43.6329605" lon="11.426226"><ele>284.0</ele><time>2026-03-28T09:34:18.407Z</time></trkpt><trkpt lat="43.6328849" lon="11.4263172"><ele>284.0</ele><time>2026-03-28T09:34:19.407Z</time></trkpt><trkpt lat="43.632829" lon="11.4264394"><ele>284.0</ele><time>2026-03-28T09:34:20.407Z</time></trkpt><trkpt lat="43.6327563" lon="11.4266008"><ele>284.0</ele><time>2026-03-28T09:34:21.407Z</time></trkpt><trkpt lat="43.632684" lon="11.4267608"><ele>284.4</ele><time>2026-03-28T09:34:22.407Z</time></trkpt><trkpt lat="43.6326107" lon="11.426897"><ele>284.79999999999995</ele><time>2026-03-28T09:34:23.407Z</time></trkpt><trkpt lat="43.6325362" lon="11.4270038"><ele>285.20000000000005</ele><time>2026-03-28T09:34:24.407Z</time></trkpt><trkpt lat="43.6324504" lon="11.4270574"><ele>285.6</ele><time>2026-03-28T09:34:25.407Z</time></trkpt><trkpt lat="43.6323338" lon="11.4270605"><ele>286.0</ele><time>2026-03-28T09:34:26.407Z</time></trkpt><trkpt lat="43.6322164" lon="11.4270632"><ele>286.0</ele><time>2026-03-28T09:34:27.407Z</time></trkpt><trkpt lat="43.6321108" lon="11.4270975"><ele>286.0</ele><time>2026-03-28T09:34:28.407Z</time></trkpt><trkpt lat="43.6320158" lon="11.4271692"><ele>286.0</ele><time>2026-03-28T09:34:29.407Z</time></trkpt><trkpt lat="43.6319302" lon="11.4273063"><ele>286.0</ele><time>2026-03-28T09:34:30.407Z</time></trkpt><trkpt lat="43.6318707" lon="11.4275067"><ele>285.3333333333333</ele><time>2026-03-28T09:34:31.407Z</time></trkpt><trkpt lat="43.6318044" lon="11.4277129"><ele>284.6666666666667</ele><time>2026-03-28T09:34:32.407Z</time></trkpt><trkpt lat="43.6317318" lon="11.4279146"><ele>284.0</ele><time>2026-03-28T09:34:33.407Z</time></trkpt><trkpt lat="43.6316569" lon="11.4281089"><ele>282.5</ele><time>2026-03-28T09:34:34.407Z</time></trkpt><trkpt lat="43.6315956" lon="11.4282915"><ele>281.0</ele><time>2026-03-28T09:34:35.407Z</time></trkpt><trkpt lat="43.6315473" lon="11.4284639"><ele>279.5</ele><time>2026-03-28T09:34:36.407Z</time></trkpt><trkpt lat="43.6315431" lon="11.4286588"><ele>278.0</ele><time>2026-03-28T09:34:37.407Z</time></trkpt><trkpt lat="43.6315431" lon="11.4288735"><ele>275.75</ele><time>2026-03-28T09:34:38.407Z</time></trkpt><trkpt lat="43.6315186" lon="11.4290654"><ele>273.5</ele><time>2026-03-28T09:34:39.407Z</time></trkpt><trkpt lat="43.631447" lon="11.4292152"><ele>271.25</ele><time>2026-03-28T09:34:40.407Z</time></trkpt><trkpt lat="43.6313443" lon="11.4293066"><ele>269.0</ele><time>2026-03-28T09:34:41.407Z</time></trkpt><trkpt lat="43.6312168" lon="11.4294069"><ele>269.6666666666667</ele><time>2026-03-28T09:34:42.407Z</time></trkpt><trkpt lat="43.6310835" lon="11.4295053"><ele>270.3333333333333</ele><time>2026-03-28T09:34:43.407Z</time></trkpt><trkpt lat="43.6309482" lon="11.4296159"><ele>271.0</ele><time>2026-03-28T09:34:44.407Z</time></trkpt><trkpt lat="43.6308203" lon="11.4297239"><ele>271.0</ele><time>2026-03-28T09:34:45.407Z</time></trkpt><trkpt lat="43.630704" lon="11.4298194"><ele>271.0</ele><time>2026-03-28T09:34:46.407Z</time></trkpt><trkpt lat="43.6305949" lon="11.4299322"><ele>271.0</ele><time>2026-03-28T09:34:47.407Z</time></trkpt><trkpt lat="43.6305024" lon="11.4300699"><ele>271.0</ele><time>2026-03-28T09:34:48.407Z</time></trkpt><trkpt lat="43.6304523" lon="11.4302448"><ele>271.0</ele><time>2026-03-28T09:34:49.407Z</time></trkpt><trkpt lat="43.6304528" lon="11.4304164"><ele>271.0</ele><time>2026-03-28T09:34:50.407Z</time></trkpt><trkpt lat="43.6304672" lon="11.4306027"><ele>271.0</ele><time>2026-03-28T09:34:51.407Z</time></trkpt><trkpt lat="43.6304724" lon="11.4307988"><ele>271.0</ele><time>2026-03-28T09:34:52.407Z</time></trkpt><trkpt lat="43.6304897" lon="11.4309842"><ele>271.0</ele><time>2026-03-28T09:34:53.407Z</time></trkpt><trkpt lat="43.6305549" lon="11.4311774"><ele>271.0</ele><time>2026-03-28T09:34:54.407Z</time></trkpt><trkpt lat="43.6306398" lon="11.4313474"><ele>271.0</ele><time>2026-03-28T09:34:55.407Z</time></trkpt><trkpt lat="43.6307265" lon="11.4315022"><ele>271.0</ele><time>2026-03-28T09:34:56.407Z</time></trkpt><trkpt lat="43.6308102" lon="11.4316485"><ele>271.5</ele><time>2026-03-28T09:34:57.407Z</time></trkpt><trkpt lat="43.6308831" lon="11.4317871"><ele>272.0</ele><time>2026-03-28T09:34:58.407Z</time></trkpt><trkpt lat="43.6308881" lon="11.4319267"><ele>272.5</ele><time>2026-03-28T09:34:59.407Z</time></trkpt><trkpt lat="43.6308399" lon="11.4320891"><ele>273.0</ele><time>2026-03-28T09:35:00.407Z</time></trkpt><trkpt lat="43.6307774" lon="11.432241"><ele>273.0</ele><time>2026-03-28T09:35:01.407Z</time></trkpt><trkpt lat="43.6307043" lon="11.4323857"><ele>273.0</ele><time>2026-03-28T09:35:02.407Z</time></trkpt><trkpt lat="43.6306142" lon="11.4325005"><ele>273.0</ele><time>2026-03-28T09:35:03.407Z</time></trkpt><trkpt lat="43.6304947" lon="11.4325811"><ele>273.0</ele><time>2026-03-28T09:35:04.408Z</time></trkpt><trkpt lat="43.6303581" lon="11.4326495"><ele>275.6666666666667</ele><time>2026-03-28T09:35:05.407Z</time></trkpt><trkpt lat="43.6302096" lon="11.4327087"><ele>278.33333333333337</ele><time>2026-03-28T09:35:06.407Z</time></trkpt><trkpt lat="43.6300487" lon="11.4327518"><ele>281.0</ele><time>2026-03-28T09:35:07.407Z</time></trkpt><trkpt lat="43.629881" lon="11.4327779"><ele>281.0</ele><time>2026-03-28T09:35:08.407Z</time></trkpt><trkpt lat="43.6297116" lon="11.4328082"><ele>281.0</ele><time>2026-03-28T09:35:09.407Z</time></trkpt><trkpt lat="43.629538" lon="11.432834"><ele>281.0</ele><time>2026-03-28T09:35:10.407Z</time></trkpt><trkpt lat="43.6293644" lon="11.432875"><ele>281.0</ele><time>2026-03-28T09:35:11.407Z</time></trkpt><trkpt lat="43.6291991" lon="11.4329405"><ele>281.0</ele><time>2026-03-28T09:35:12.407Z</time></trkpt><trkpt lat="43.6290324" lon="11.4330209"><ele>281.0</ele><time>2026-03-28T09:35:13.407Z</time></trkpt><trkpt lat="43.628857" lon="11.4331018"><ele>277.33333333333337</ele><time>2026-03-28T09:35:14.407Z</time></trkpt><trkpt lat="43.6286897" lon="11.4331953"><ele>273.6666666666667</ele><time>2026-03-28T09:35:15.407Z</time></trkpt><trkpt lat="43.6285276" lon="11.4332921"><ele>270.0</ele><time>2026-03-28T09:35:16.407Z</time></trkpt><trkpt lat="43.6283724" lon="11.433383"><ele>270.0</ele><time>2026-03-28T09:35:17.407Z</time></trkpt><trkpt lat="43.6282227" lon="11.4334535"><ele>270.0</ele><time>2026-03-28T09:35:18.407Z</time></trkpt><trkpt lat="43.6280711" lon="11.4334747"><ele>270.0</ele><time>2026-03-28T09:35:19.407Z</time></trkpt><trkpt lat="43.6279136" lon="11.4334696"><ele>269.6666666666667</ele><time>2026-03-28T09:35:20.407Z</time></trkpt><trkpt lat="43.6277602" lon="11.4334752"><ele>269.33333333333337</ele><time>2026-03-28T09:35:21.407Z</time></trkpt><trkpt lat="43.6276078" lon="11.4335405"><ele>269.0</ele><time>2026-03-28T09:35:22.407Z</time></trkpt><trkpt lat="43.6274616" lon="11.4336297"><ele>269.0</ele><time>2026-03-28T09:35:23.407Z</time></trkpt><trkpt lat="43.6273261" lon="11.4337242"><ele>269.0</ele><time>2026-03-28T09:35:24.407Z</time></trkpt><trkpt lat="43.6272027" lon="11.4338045"><ele>269.0</ele><time>2026-03-28T09:35:25.407Z</time></trkpt><trkpt lat="43.6271027" lon="11.4339385"><ele>269.0</ele><time>2026-03-28T09:35:26.407Z</time></trkpt><trkpt lat="43.6270295" lon="11.4341341"><ele>268.0</ele><time>2026-03-28T09:35:27.407Z</time></trkpt><trkpt lat="43.6269818" lon="11.4343428"><ele>267.0</ele><time>2026-03-28T09:35:28.407Z</time></trkpt><trkpt lat="43.6269442" lon="11.4345477"><ele>266.0</ele><time>2026-03-28T09:35:29.407Z</time></trkpt><trkpt lat="43.6268941" lon="11.4347292"><ele>265.0</ele><time>2026-03-28T09:35:30.407Z</time></trkpt><trkpt lat="43.6268232" lon="11.4348854"><ele>264.0</ele><time>2026-03-28T09:35:31.407Z</time></trkpt><trkpt lat="43.6267401" lon="11.4350166"><ele>263.0</ele><time>2026-03-28T09:35:32.407Z</time></trkpt><trkpt lat="43.6266256" lon="11.4351072"><ele>262.0</ele><time>2026-03-28T09:35:33.407Z</time></trkpt><trkpt lat="43.6264801" lon="11.4351721"><ele>262.0</ele><time>2026-03-28T09:35:34.407Z</time></trkpt><trkpt lat="43.6263313" lon="11.4352327"><ele>262.0</ele><time>2026-03-28T09:35:35.407Z</time></trkpt><trkpt lat="43.6261855" lon="11.4353058"><ele>262.0</ele><time>2026-03-28T09:35:36.407Z</time></trkpt><trkpt lat="43.6260459" lon="11.4353787"><ele>261.25</ele><time>2026-03-28T09:35:37.407Z</time></trkpt><trkpt lat="43.6258996" lon="11.4354186"><ele>260.5</ele><time>2026-03-28T09:35:38.407Z</time></trkpt><trkpt lat="43.6257503" lon="11.4354421"><ele>259.75</ele><time>2026-03-28T09:35:39.407Z</time></trkpt><trkpt lat="43.6256131" lon="11.435453"><ele>259.0</ele><time>2026-03-28T09:35:40.407Z</time></trkpt><trkpt lat="43.6254818" lon="11.4355113"><ele>259.0</ele><time>2026-03-28T09:35:41.407Z</time></trkpt><trkpt lat="43.6253673" lon="11.4356189"><ele>259.0</ele><time>2026-03-28T09:35:42.407Z</time></trkpt><trkpt lat="43.6252577" lon="11.4357674"><ele>259.0</ele><time>2026-03-28T09:35:43.407Z</time></trkpt><trkpt lat="43.6251556" lon="11.4358986"><ele>259.0</ele><time>2026-03-28T09:35:44.407Z</time></trkpt><trkpt lat="43.6250372" lon="11.435993"><ele>260.5</ele><time>2026-03-28T09:35:45.407Z</time></trkpt><trkpt lat="43.624915" lon="11.4360094"><ele>262.0</ele><time>2026-03-28T09:35:46.407Z</time></trkpt><trkpt lat="43.6248082" lon="11.4360044"><ele>263.5</ele><time>2026-03-28T09:35:47.407Z</time></trkpt><trkpt lat="43.6247001" lon="11.4359671"><ele>265.0</ele><time>2026-03-28T09:35:48.407Z</time></trkpt><trkpt lat="43.6246216" lon="11.4358606"><ele>265.0</ele><time>2026-03-28T09:35:49.407Z</time></trkpt><trkpt lat="43.6245485" lon="11.4357036"><ele>265.0</ele><time>2026-03-28T09:35:50.407Z</time></trkpt><trkpt lat="43.6244963" lon="11.435532"><ele>265.0</ele><time>2026-03-28T09:35:51.407Z</time></trkpt><trkpt lat="43.6244271" lon="11.4353862"><ele>265.0</ele><time>2026-03-28T09:35:52.407Z</time></trkpt><trkpt lat="43.6243237" lon="11.4352831"><ele>267.5</ele><time>2026-03-28T09:35:53.407Z</time></trkpt><trkpt lat="43.6241916" lon="11.4352062"><ele>270.0</ele><time>2026-03-28T09:35:54.407Z</time></trkpt><trkpt lat="43.6240531" lon="11.4351352"><ele>272.5</ele><time>2026-03-28T09:35:55.407Z</time></trkpt><trkpt lat="43.6239223" lon="11.4350921"><ele>275.0</ele><time>2026-03-28T09:35:56.407Z</time></trkpt><trkpt lat="43.6237903" lon="11.4351014"><ele>275.0</ele><time>2026-03-28T09:35:57.407Z</time></trkpt><trkpt lat="43.6236584" lon="11.4351577"><ele>275.0</ele><time>2026-03-28T09:35:58.407Z</time></trkpt><trkpt lat="43.6235242" lon="11.4352375"><ele>275.0</ele><time>2026-03-28T09:35:59.407Z</time></trkpt><trkpt lat="43.6233861" lon="11.4352611"><ele>275.0</ele><time>2026-03-28T09:36:00.407Z</time></trkpt><trkpt lat="43.6232397" lon="11.4352382"><ele>276.0</ele><time>2026-03-28T09:36:01.407Z</time></trkpt><trkpt lat="43.6230985" lon="11.4352056"><ele>277.0</ele><time>2026-03-28T09:36:02.407Z</time></trkpt><trkpt lat="43.6229587" lon="11.4351851"><ele>278.0</ele><time>2026-03-28T09:36:03.407Z</time></trkpt><trkpt lat="43.6228285" lon="11.4352218"><ele>279.0</ele><time>2026-03-28T09:36:04.407Z</time></trkpt><trkpt lat="43.6227193" lon="11.4353114"><ele>277.75</ele><time>2026-03-28T09:36:05.407Z</time></trkpt><trkpt lat="43.6226049" lon="11.4354466"><ele>276.5</ele><time>2026-03-28T09:36:06.407Z</time></trkpt><trkpt lat="43.6225011" lon="11.4355533"><ele>275.25</ele><time>2026-03-28T09:36:07.407Z</time></trkpt><trkpt lat="43.622359" lon="11.4355539"><ele>274.0</ele><time>2026-03-28T09:36:08.407Z</time></trkpt><trkpt lat="43.6222002" lon="11.435517"><ele>274.0</ele><time>2026-03-28T09:36:09.407Z</time></trkpt><trkpt lat="43.6220353" lon="11.4354749"><ele>274.0</ele><time>2026-03-28T09:36:10.407Z</time></trkpt><trkpt lat="43.6218751" lon="11.435438"><ele>274.0</ele><time>2026-03-28T09:36:11.407Z</time></trkpt><trkpt lat="43.6217119" lon="11.4354029"><ele>279.0</ele><time>2026-03-28T09:36:12.407Z</time></trkpt><trkpt lat="43.6215439" lon="11.4353634"><ele>284.0</ele><time>2026-03-28T09:36:13.407Z</time></trkpt><trkpt lat="43.6213719" lon="11.4353138"><ele>289.0</ele><time>2026-03-28T09:36:14.407Z</time></trkpt><trkpt lat="43.6212004" lon="11.4352685"><ele>287.0</ele><time>2026-03-28T09:36:15.407Z</time></trkpt><trkpt lat="43.6210253" lon="11.4352224"><ele>285.0</ele><time>2026-03-28T09:36:16.407Z</time></trkpt><trkpt lat="43.6208567" lon="11.4352065"><ele>283.0</ele><time>2026-03-28T09:36:17.407Z</time></trkpt><trkpt lat="43.6206867" lon="11.4352307"><ele>283.0</ele><time>2026-03-28T09:36:18.407Z</time></trkpt><trkpt lat="43.6205107" lon="11.4352756"><ele>283.0</ele><time>2026-03-28T09:36:19.407Z</time></trkpt><trkpt lat="43.6203323" lon="11.4353242"><ele>283.0</ele><time>2026-03-28T09:36:20.407Z</time></trkpt><trkpt lat="43.6201765" lon="11.4353494"><ele>283.8</ele><time>2026-03-28T09:36:21.407Z</time></trkpt><trkpt lat="43.6200449" lon="11.4353691"><ele>284.6</ele><time>2026-03-28T09:36:22.407Z</time></trkpt><trkpt lat="43.6199492" lon="11.4353991"><ele>285.4</ele><time>2026-03-28T09:36:23.407Z</time></trkpt><trkpt lat="43.6198728" lon="11.4354125"><ele>286.2</ele><time>2026-03-28T09:36:24.407Z</time></trkpt><trkpt lat="43.619782" lon="11.4353733"><ele>287.0</ele><time>2026-03-28T09:36:26.407Z</time></trkpt><trkpt lat="43.6198077" lon="11.435265"><ele>287.0</ele><time>2026-03-28T09:36:28.407Z</time></trkpt><trkpt lat="43.6198403" lon="11.4351813"><ele>287.0</ele><time>2026-03-28T09:36:29.407Z</time></trkpt><trkpt lat="43.6198808" lon="11.4350707"><ele>287.0</ele><time>2026-03-28T09:36:30.407Z</time></trkpt><trkpt lat="43.6199266" lon="11.4349482"><ele>287.0</ele><time>2026-03-28T09:36:31.407Z</time></trkpt><trkpt lat="43.6199704" lon="11.4348092"><ele>287.0</ele><time>2026-03-28T09:36:32.407Z</time></trkpt><trkpt lat="43.6200205" lon="11.4346665"><ele>288.5</ele><time>2026-03-28T09:36:33.407Z</time></trkpt><trkpt lat="43.6200741" lon="11.4345212"><ele>290.0</ele><time>2026-03-28T09:36:34.407Z</time></trkpt><trkpt lat="43.6201514" lon="11.4343736"><ele>291.5</ele><time>2026-03-28T09:36:35.407Z</time></trkpt><trkpt lat="43.6202396" lon="11.434245"><ele>293.0</ele><time>2026-03-28T09:36:36.407Z</time></trkpt><trkpt lat="43.6203497" lon="11.4341419"><ele>294.0</ele><time>2026-03-28T09:36:37.407Z</time></trkpt><trkpt lat="43.6204682" lon="11.4340431"><ele>295.0</ele><time>2026-03-28T09:36:38.407Z</time></trkpt><trkpt lat="43.6205925" lon="11.4339434"><ele>296.0</ele><time>2026-03-28T09:36:39.407Z</time></trkpt><trkpt lat="43.6207142" lon="11.4338451"><ele>297.0</ele><time>2026-03-28T09:36:40.408Z</time></trkpt><trkpt lat="43.6208315" lon="11.4337488"><ele>300.25</ele><time>2026-03-28T09:36:41.407Z</time></trkpt><trkpt lat="43.6209541" lon="11.4336583"><ele>303.5</ele><time>2026-03-28T09:36:42.407Z</time></trkpt><trkpt lat="43.6210687" lon="11.4335827"><ele>306.75</ele><time>2026-03-28T09:36:43.407Z</time></trkpt><trkpt lat="43.6211657" lon="11.4335193"><ele>310.0</ele><time>2026-03-28T09:36:44.407Z</time></trkpt><trkpt lat="43.6212597" lon="11.433463"><ele>312.2</ele><time>2026-03-28T09:36:45.407Z</time></trkpt><trkpt lat="43.6213606" lon="11.4334528"><ele>314.4</ele><time>2026-03-28T09:36:46.407Z</time></trkpt><trkpt lat="43.6214549" lon="11.4335042"><ele>316.6</ele><time>2026-03-28T09:36:47.407Z</time></trkpt><trkpt lat="43.6215266" lon="11.4335941"><ele>318.8</ele><time>2026-03-28T09:36:48.407Z</time></trkpt><trkpt lat="43.6215979" lon="11.4336856"><ele>321.0</ele><time>2026-03-28T09:36:49.407Z</time></trkpt><trkpt lat="43.6216728" lon="11.4337577"><ele>321.0</ele><time>2026-03-28T09:36:50.407Z</time></trkpt><trkpt lat="43.6217661" lon="11.4337929"><ele>321.0</ele><time>2026-03-28T09:36:51.407Z</time></trkpt><trkpt lat="43.6218574" lon="11.4337939"><ele>321.0</ele><time>2026-03-28T09:36:52.407Z</time></trkpt><trkpt lat="43.6219476" lon="11.4337721"><ele>321.0</ele><time>2026-03-28T09:36:53.407Z</time></trkpt><trkpt lat="43.6220245" lon="11.4337219"><ele>321.0</ele><time>2026-03-28T09:36:54.407Z</time></trkpt><trkpt lat="43.6221052" lon="11.4336333"><ele>321.0</ele><time>2026-03-28T09:36:55.407Z</time></trkpt><trkpt lat="43.622186" lon="11.433533"><ele>321.0</ele><time>2026-03-28T09:36:56.407Z</time></trkpt><trkpt lat="43.6222826" lon="11.4334545"><ele>321.0</ele><time>2026-03-28T09:36:57.407Z</time></trkpt><trkpt lat="43.6223835" lon="11.433433"><ele>321.0</ele><time>2026-03-28T09:36:58.407Z</time></trkpt><trkpt lat="43.6224812" lon="11.4334338"><ele>321.0</ele><time>2026-03-28T09:36:59.407Z</time></trkpt><trkpt lat="43.6225528" lon="11.4334121"><ele>321.0</ele><time>2026-03-28T09:37:00.407Z</time></trkpt><trkpt lat="43.6226181" lon="11.4333382"><ele>321.0</ele><time>2026-03-28T09:37:01.407Z</time></trkpt><trkpt lat="43.6226744" lon="11.433209"><ele>321.0</ele><time>2026-03-28T09:37:02.407Z</time></trkpt><trkpt lat="43.622707" lon="11.4330873"><ele>321.0</ele><time>2026-03-28T09:37:03.407Z</time></trkpt><trkpt lat="43.6227284" lon="11.4329791"><ele>321.0</ele><time>2026-03-28T09:37:04.407Z</time></trkpt><trkpt lat="43.6227648" lon="11.4328894"><ele>321.0</ele><time>2026-03-28T09:37:05.407Z</time></trkpt><trkpt lat="43.6228337" lon="11.4328162"><ele>321.3333333333333</ele><time>2026-03-28T09:37:06.407Z</time></trkpt><trkpt lat="43.6229136" lon="11.432777"><ele>321.6666666666667</ele><time>2026-03-28T09:37:07.407Z</time></trkpt><trkpt lat="43.6230034" lon="11.4327727"><ele>322.0</ele><time>2026-03-28T09:37:08.407Z</time></trkpt><trkpt lat="43.6230798" lon="11.4327466"><ele>322.33333333333337</ele><time>2026-03-28T09:37:09.407Z</time></trkpt><trkpt lat="43.6231321" lon="11.4326626"><ele>322.6666666666667</ele><time>2026-03-28T09:37:10.407Z</time></trkpt><trkpt lat="43.6231546" lon="11.4325569"><ele>323.0</ele><time>2026-03-28T09:37:11.407Z</time></trkpt><trkpt lat="43.6231689" lon="11.4324284"><ele>323.0</ele><time>2026-03-28T09:37:12.407Z</time></trkpt><trkpt lat="43.6231866" lon="11.4322879"><ele>323.0</ele><time>2026-03-28T09:37:13.407Z</time></trkpt><trkpt lat="43.6232227" lon="11.4321495"><ele>323.0</ele><time>2026-03-28T09:37:14.407Z</time></trkpt><trkpt lat="43.6232805" lon="11.4320194"><ele>323.0</ele><time>2026-03-28T09:37:15.407Z</time></trkpt><trkpt lat="43.6233445" lon="11.4319043"><ele>323.0</ele><time>2026-03-28T09:37:16.407Z</time></trkpt><trkpt lat="43.6234278" lon="11.4318294"><ele>324.59999999999997</ele><time>2026-03-28T09:37:17.407Z</time></trkpt><trkpt lat="43.6235275" lon="11.4317784"><ele>326.2</ele><time>2026-03-28T09:37:18.408Z</time></trkpt><trkpt lat="43.6236401" lon="11.4317428"><ele>327.8</ele><time>2026-03-28T09:37:19.407Z</time></trkpt><trkpt lat="43.6237435" lon="11.4316991"><ele>329.4</ele><time>2026-03-28T09:37:20.407Z</time></trkpt><trkpt lat="43.6238497" lon="11.431641"><ele>331.0</ele><time>2026-03-28T09:37:21.407Z</time></trkpt><trkpt lat="43.6239588" lon="11.4315518"><ele>331.0</ele><time>2026-03-28T09:37:22.407Z</time></trkpt><trkpt lat="43.6240742" lon="11.4314607"><ele>331.0</ele><time>2026-03-28T09:37:23.407Z</time></trkpt><trkpt lat="43.624198" lon="11.4313695"><ele>331.0</ele><time>2026-03-28T09:37:24.407Z</time></trkpt><trkpt lat="43.6243135" lon="11.4312742"><ele>331.0</ele><time>2026-03-28T09:37:25.407Z</time></trkpt><trkpt lat="43.6244252" lon="11.4311817"><ele>332.0</ele><time>2026-03-28T09:37:26.407Z</time></trkpt><trkpt lat="43.6245396" lon="11.4310993"><ele>333.0</ele><time>2026-03-28T09:37:27.407Z</time></trkpt><trkpt lat="43.6246563" lon="11.4310334"><ele>334.0</ele><time>2026-03-28T09:37:28.407Z</time></trkpt><trkpt lat="43.6247706" lon="11.4309764"><ele>335.0</ele><time>2026-03-28T09:37:29.407Z</time></trkpt><trkpt lat="43.6248791" lon="11.430908"><ele>335.0</ele><time>2026-03-28T09:37:30.407Z</time></trkpt><trkpt lat="43.6249821" lon="11.4308209"><ele>335.0</ele><time>2026-03-28T09:37:31.407Z</time></trkpt><trkpt lat="43.625086" lon="11.4307142"><ele>335.0</ele><time>2026-03-28T09:37:32.407Z</time></trkpt><trkpt lat="43.6251911" lon="11.4305996"><ele>335.0</ele><time>2026-03-28T09:37:33.407Z</time></trkpt><trkpt lat="43.6252985" lon="11.4304921"><ele>338.5</ele><time>2026-03-28T09:37:34.407Z</time></trkpt><trkpt lat="43.6254047" lon="11.4304026"><ele>342.0</ele><time>2026-03-28T09:37:35.407Z</time></trkpt><trkpt lat="43.6255203" lon="11.4303309"><ele>345.5</ele><time>2026-03-28T09:37:36.407Z</time></trkpt><trkpt lat="43.6256516" lon="11.4302822"><ele>349.0</ele><time>2026-03-28T09:37:37.407Z</time></trkpt><trkpt lat="43.6257913" lon="11.4302418"><ele>349.0</ele><time>2026-03-28T09:37:38.407Z</time></trkpt><trkpt lat="43.6259279" lon="11.4302062"><ele>349.0</ele><time>2026-03-28T09:37:39.407Z</time></trkpt><trkpt lat="43.62605" lon="11.4301853"><ele>349.0</ele><time>2026-03-28T09:37:40.407Z</time></trkpt><trkpt lat="43.6261579" lon="11.430165"><ele>349.0</ele><time>2026-03-28T09:37:41.407Z</time></trkpt><trkpt lat="43.6262396" lon="11.4301309"><ele>348.79999999999995</ele><time>2026-03-28T09:37:42.407Z</time></trkpt><trkpt lat="43.6262963" lon="11.4300599"><ele>348.59999999999997</ele><time>2026-03-28T09:37:43.407Z</time></trkpt><trkpt lat="43.6263273" lon="11.4299668"><ele>348.4</ele><time>2026-03-28T09:37:44.407Z</time></trkpt><trkpt lat="43.6263615" lon="11.4298254"><ele>348.2</ele><time>2026-03-28T09:37:45.407Z</time></trkpt><trkpt lat="43.6264046" lon="11.4296716"><ele>348.0</ele><time>2026-03-28T09:37:46.407Z</time></trkpt><trkpt lat="43.6264582" lon="11.4294974"><ele>348.0</ele><time>2026-03-28T09:37:47.407Z</time></trkpt><trkpt lat="43.6265161" lon="11.4293237"><ele>348.0</ele><time>2026-03-28T09:37:48.407Z</time></trkpt><trkpt lat="43.6265711" lon="11.4291613"><ele>348.0</ele><time>2026-03-28T09:37:49.407Z</time></trkpt><trkpt lat="43.6266154" lon="11.4290082"><ele>348.0</ele><time>2026-03-28T09:37:50.407Z</time></trkpt><trkpt lat="43.62664" lon="11.4288633"><ele>349.0</ele><time>2026-03-28T09:37:51.407Z</time></trkpt><trkpt lat="43.6266403" lon="11.4287138"><ele>350.0</ele><time>2026-03-28T09:37:52.407Z</time></trkpt><trkpt lat="43.6266037" lon="11.4285896"><ele>351.0</ele><time>2026-03-28T09:37:53.407Z</time></trkpt><trkpt lat="43.6265743" lon="11.4284847"><ele>352.0</ele><time>2026-03-28T09:37:54.407Z</time></trkpt><trkpt lat="43.6265704" lon="11.4283837"><ele>353.0</ele><time>2026-03-28T09:37:55.407Z</time></trkpt><trkpt lat="43.626624" lon="11.4282697"><ele>353.0</ele><time>2026-03-28T09:37:56.407Z</time></trkpt><trkpt lat="43.6266981" lon="11.4281526"><ele>353.0</ele><time>2026-03-28T09:37:57.407Z</time></trkpt><trkpt lat="43.6267936" lon="11.4280237"><ele>353.0</ele><time>2026-03-28T09:37:58.416Z</time></trkpt><trkpt lat="43.6268961" lon="11.427887"><ele>353.0</ele><time>2026-03-28T09:37:59.416Z</time></trkpt><trkpt lat="43.6269816" lon="11.4277681"><ele>352.4</ele><time>2026-03-28T09:38:00.417Z</time></trkpt><trkpt lat="43.6270587" lon="11.4276577"><ele>351.79999999999995</ele><time>2026-03-28T09:38:01.416Z</time></trkpt><trkpt lat="43.6271273" lon="11.4275538"><ele>351.2</ele><time>2026-03-28T09:38:02.416Z</time></trkpt><trkpt lat="43.6271834" lon="11.4274252"><ele>350.6</ele><time>2026-03-28T09:38:03.416Z</time></trkpt><trkpt lat="43.6272079" lon="11.4272782"><ele>350.0</ele><time>2026-03-28T09:38:04.416Z</time></trkpt><trkpt lat="43.6272303" lon="11.4271074"><ele>352.25</ele><time>2026-03-28T09:38:05.416Z</time></trkpt><trkpt lat="43.6272609" lon="11.426923"><ele>354.5</ele><time>2026-03-28T09:38:06.416Z</time></trkpt><trkpt lat="43.6272864" lon="11.4267391"><ele>356.75</ele><time>2026-03-28T09:38:07.416Z</time></trkpt><trkpt lat="43.6273067" lon="11.4265566"><ele>359.0</ele><time>2026-03-28T09:38:08.416Z</time></trkpt><trkpt lat="43.6273242" lon="11.4263665"><ele>361.4</ele><time>2026-03-28T09:38:09.416Z</time></trkpt><trkpt lat="43.6273421" lon="11.426226"><ele>363.79999999999995</ele><time>2026-03-28T09:38:10.416Z</time></trkpt><trkpt lat="43.627349" lon="11.4260918"><ele>366.20000000000005</ele><time>2026-03-28T09:38:11.416Z</time></trkpt><trkpt lat="43.6273772" lon="11.4259492"><ele>368.6</ele><time>2026-03-28T09:38:12.416Z</time></trkpt><trkpt lat="43.6274338" lon="11.4258082"><ele>371.0</ele><time>2026-03-28T09:38:13.416Z</time></trkpt><trkpt lat="43.6275174" lon="11.4256783"><ele>371.0</ele><time>2026-03-28T09:38:14.416Z</time></trkpt><trkpt lat="43.6276125" lon="11.425555"><ele>371.0</ele><time>2026-03-28T09:38:15.416Z</time></trkpt><trkpt lat="43.6277177" lon="11.4254071"><ele>371.0</ele><time>2026-03-28T09:38:16.416Z</time></trkpt><trkpt lat="43.6278238" lon="11.4252763"><ele>371.0</ele><time>2026-03-28T09:38:17.416Z</time></trkpt><trkpt lat="43.6279365" lon="11.4251353"><ele>372.75</ele><time>2026-03-28T09:38:18.416Z</time></trkpt><trkpt lat="43.6280365" lon="11.4249965"><ele>374.5</ele><time>2026-03-28T09:38:19.416Z</time></trkpt><trkpt lat="43.6281264" lon="11.4248666"><ele>376.25</ele><time>2026-03-28T09:38:20.416Z</time></trkpt><trkpt lat="43.6282109" lon="11.4247455"><ele>378.0</ele><time>2026-03-28T09:38:21.416Z</time></trkpt><trkpt lat="43.6282948" lon="11.4246481"><ele>382.0</ele><time>2026-03-28T09:38:22.416Z</time></trkpt><trkpt lat="43.6283618" lon="11.4245402"><ele>386.0</ele><time>2026-03-28T09:38:23.416Z</time></trkpt><trkpt lat="43.6284119" lon="11.4244014"><ele>390.0</ele><time>2026-03-28T09:38:24.416Z</time></trkpt><trkpt lat="43.6284674" lon="11.4242381"><ele>394.0</ele><time>2026-03-28T09:38:25.416Z</time></trkpt><trkpt lat="43.6285341" lon="11.4240559"><ele>394.0</ele><time>2026-03-28T09:38:26.416Z</time></trkpt><trkpt lat="43.6285932" lon="11.4238761"><ele>394.0</ele><time>2026-03-28T09:38:27.416Z</time></trkpt><trkpt lat="43.6286515" lon="11.4236826"><ele>394.0</ele><time>2026-03-28T09:38:28.416Z</time></trkpt><trkpt lat="43.6287009" lon="11.4234825"><ele>394.0</ele><time>2026-03-28T09:38:29.416Z</time></trkpt><trkpt lat="43.6287533" lon="11.4233006"><ele>392.6</ele><time>2026-03-28T09:38:30.416Z</time></trkpt><trkpt lat="43.6287991" lon="11.4231389"><ele>391.2</ele><time>2026-03-28T09:38:31.416Z</time></trkpt><trkpt lat="43.6288361" lon="11.4230094"><ele>389.8</ele><time>2026-03-28T09:38:32.416Z</time></trkpt><trkpt lat="43.6288433" lon="11.4228909"><ele>388.40000000000003</ele><time>2026-03-28T09:38:33.416Z</time></trkpt><trkpt lat="43.6288215" lon="11.4227862"><ele>387.0</ele><time>2026-03-28T09:38:34.416Z</time></trkpt><trkpt lat="43.6287684" lon="11.4226856"><ele>387.0</ele><time>2026-03-28T09:38:35.416Z</time></trkpt><trkpt lat="43.6286941" lon="11.4226006"><ele>387.0</ele><time>2026-03-28T09:38:36.416Z</time></trkpt><trkpt lat="43.6286253" lon="11.4225072"><ele>387.0</ele><time>2026-03-28T09:38:37.416Z</time></trkpt><trkpt lat="43.6285711" lon="11.4223729"><ele>387.0</ele><time>2026-03-28T09:38:38.416Z</time></trkpt><trkpt lat="43.6285483" lon="11.4222322"><ele>387.0</ele><time>2026-03-28T09:38:39.416Z</time></trkpt><trkpt lat="43.6285171" lon="11.4220862"><ele>392.6</ele><time>2026-03-28T09:38:40.416Z</time></trkpt><trkpt lat="43.6284715" lon="11.4219364"><ele>398.20000000000005</ele><time>2026-03-28T09:38:41.416Z</time></trkpt><trkpt lat="43.6284492" lon="11.4218229"><ele>403.8</ele><time>2026-03-28T09:38:42.416Z</time></trkpt><trkpt lat="43.6284359" lon="11.4217133"><ele>409.4</ele><time>2026-03-28T09:38:43.416Z</time></trkpt><trkpt lat="43.6285081" lon="11.4215443"><ele>415.0</ele><time>2026-03-28T09:38:45.416Z</time></trkpt><trkpt lat="43.6285671" lon="11.4214766"><ele>413.83333333333337</ele><time>2026-03-28T09:38:46.416Z</time></trkpt><trkpt lat="43.6286484" lon="11.42143"><ele>412.6666666666667</ele><time>2026-03-28T09:38:47.416Z</time></trkpt><trkpt lat="43.6287386" lon="11.4213967"><ele>411.5</ele><time>2026-03-28T09:38:48.416Z</time></trkpt><trkpt lat="43.62883" lon="11.4213934"><ele>410.33333333333337</ele><time>2026-03-28T09:38:49.416Z</time></trkpt><trkpt lat="43.6289013" lon="11.4213616"><ele>409.1666666666667</ele><time>2026-03-28T09:38:50.416Z</time></trkpt><trkpt lat="43.6289773" lon="11.4212781"><ele>408.0</ele><time>2026-03-28T09:38:52.416Z</time></trkpt><trkpt lat="43.629012" lon="11.4211854"><ele>408.0</ele><time>2026-03-28T09:38:53.416Z</time></trkpt><trkpt lat="43.6290238" lon="11.4210829"><ele>408.0</ele><time>2026-03-28T09:38:54.416Z</time></trkpt><trkpt lat="43.629005" lon="11.4209704"><ele>408.0</ele><time>2026-03-28T09:38:55.416Z</time></trkpt><trkpt lat="43.6289622" lon="11.4208275"><ele>408.0</ele><time>2026-03-28T09:38:56.416Z</time></trkpt><trkpt lat="43.6289273" lon="11.4207281"><ele>408.0</ele><time>2026-03-28T09:38:57.416Z</time></trkpt><trkpt lat="43.6288834" lon="11.4206525"><ele>408.0</ele><time>2026-03-28T09:38:58.416Z</time></trkpt><trkpt lat="43.6287602" lon="11.4206021"><ele>408.0</ele><time>2026-03-28T09:39:00.416Z</time></trkpt><trkpt lat="43.6286612" lon="11.4206413"><ele>408.0</ele><time>2026-03-28T09:39:01.416Z</time></trkpt><trkpt lat="43.6285636" lon="11.4207006"><ele>408.0</ele><time>2026-03-28T09:39:02.416Z</time></trkpt><trkpt lat="43.6284554" lon="11.4207732"><ele>408.0</ele><time>2026-03-28T09:39:03.416Z</time></trkpt><trkpt lat="43.6283728" lon="11.4208384"><ele>408.0</ele><time>2026-03-28T09:39:04.416Z</time></trkpt><trkpt lat="43.6282971" lon="11.4208855"><ele>411.1666666666667</ele><time>2026-03-28T09:39:05.416Z</time></trkpt><trkpt lat="43.6282165" lon="11.4208914"><ele>414.33333333333337</ele><time>2026-03-28T09:39:06.416Z</time></trkpt><trkpt lat="43.6281294" lon="11.4208761"><ele>417.5</ele><time>2026-03-28T09:39:07.416Z</time></trkpt><trkpt lat="43.6280544" lon="11.4208306"><ele>420.6666666666667</ele><time>2026-03-28T09:39:08.416Z</time></trkpt><trkpt lat="43.6279932" lon="11.4207347"><ele>423.83333333333337</ele><time>2026-03-28T09:39:09.416Z</time></trkpt><trkpt lat="43.6279576" lon="11.4206191"><ele>427.0</ele><time>2026-03-28T09:39:10.416Z</time></trkpt><trkpt lat="43.627927" lon="11.420502"><ele>428.75</ele><time>2026-03-28T09:39:11.416Z</time></trkpt><trkpt lat="43.6279419" lon="11.4203345"><ele>430.5</ele><time>2026-03-28T09:39:12.416Z</time></trkpt><trkpt lat="43.6279593" lon="11.4201459"><ele>432.25</ele><time>2026-03-28T09:39:13.416Z</time></trkpt><trkpt lat="43.6279674" lon="11.4199518"><ele>434.0</ele><time>2026-03-28T09:39:14.416Z</time></trkpt><trkpt lat="43.6279757" lon="11.4197837"><ele>436.2</ele><time>2026-03-28T09:39:15.417Z</time></trkpt><trkpt lat="43.6279725" lon="11.4196331"><ele>438.4</ele><time>2026-03-28T09:39:16.416Z</time></trkpt><trkpt lat="43.6279639" lon="11.419479"><ele>440.6</ele><time>2026-03-28T09:39:17.416Z</time></trkpt><trkpt lat="43.6279599" lon="11.4193482"><ele>442.8</ele><time>2026-03-28T09:39:18.416Z</time></trkpt><trkpt lat="43.6279769" lon="11.4192393"><ele>445.0</ele><time>2026-03-28T09:39:20.416Z</time></trkpt><trkpt lat="43.6280533" lon="11.4192253"><ele>445.00000000000006</ele><time>2026-03-28T09:39:34.416Z</time></trkpt><trkpt lat="43.6281653" lon="11.4191822"><ele>445.0</ele><time>2026-03-28T09:39:36.416Z</time></trkpt><trkpt lat="43.6282246" lon="11.4191459"><ele>445.0</ele><time>2026-03-28T09:39:37.416Z</time></trkpt><trkpt lat="43.6282876" lon="11.419101"><ele>445.0</ele><time>2026-03-28T09:39:38.416Z</time></trkpt><trkpt lat="43.6283385" lon="11.4190431"><ele>445.00000000000006</ele><time>2026-03-28T09:39:39.416Z</time></trkpt><trkpt lat="43.6283833" lon="11.4189675"><ele>445.0</ele><time>2026-03-28T09:39:40.416Z</time></trkpt><trkpt lat="43.6284328" lon="11.4188816"><ele>443.83333333333337</ele><time>2026-03-28T09:39:41.416Z</time></trkpt><trkpt lat="43.6284881" lon="11.4187892"><ele>442.6666666666667</ele><time>2026-03-28T09:39:42.416Z</time></trkpt><trkpt lat="43.6285351" lon="11.4186883"><ele>441.5</ele><time>2026-03-28T09:39:43.416Z</time></trkpt><trkpt lat="43.6285755" lon="11.4185814"><ele>440.33333333333337</ele><time>2026-03-28T09:39:44.416Z</time></trkpt><trkpt lat="43.6286264" lon="11.4185032"><ele>439.1666666666667</ele><time>2026-03-28T09:39:45.416Z</time></trkpt><trkpt lat="43.6286869" lon="11.4184275"><ele>438.0</ele><time>2026-03-28T09:39:46.416Z</time></trkpt><trkpt lat="43.6287462" lon="11.4183438"><ele>438.0</ele><time>2026-03-28T09:39:47.416Z</time></trkpt><trkpt lat="43.6287991" lon="11.4182345"><ele>437.99999999999994</ele><time>2026-03-28T09:39:48.416Z</time></trkpt><trkpt lat="43.6288552" lon="11.4181285"><ele>437.99999999999994</ele><time>2026-03-28T09:39:49.416Z</time></trkpt><trkpt lat="43.6289099" lon="11.4180262"><ele>438.0</ele><time>2026-03-28T09:39:50.416Z</time></trkpt><trkpt lat="43.628966" lon="11.4179272"><ele>438.0</ele><time>2026-03-28T09:39:51.416Z</time></trkpt><trkpt lat="43.6290275" lon="11.4178418"><ele>441.4</ele><time>2026-03-28T09:39:52.416Z</time></trkpt><trkpt lat="43.6290769" lon="11.4177503"><ele>444.79999999999995</ele><time>2026-03-28T09:39:53.416Z</time></trkpt><trkpt lat="43.6291199" lon="11.4176687"><ele>448.2</ele><time>2026-03-28T09:39:54.416Z</time></trkpt><trkpt lat="43.629175" lon="11.4175184"><ele>451.6</ele><time>2026-03-28T09:39:56.416Z</time></trkpt><trkpt lat="43.6292164" lon="11.4174041"><ele>455.0</ele><time>2026-03-28T09:39:58.416Z</time></trkpt><trkpt lat="43.6292729" lon="11.4172894"><ele>455.0</ele><time>2026-03-28T09:40:00.416Z</time></trkpt><trkpt lat="43.6293057" lon="11.4171852"><ele>455.0</ele><time>2026-03-28T09:40:02.416Z</time></trkpt><trkpt lat="43.6293313" lon="11.4170682"><ele>455.0</ele><time>2026-03-28T09:40:04.416Z</time></trkpt><trkpt lat="43.6293235" lon="11.4169412"><ele>455.0</ele><time>2026-03-28T09:40:06.416Z</time></trkpt><trkpt lat="43.6292765" lon="11.4168174"><ele>455.0</ele><time>2026-03-28T09:40:08.416Z</time></trkpt><trkpt lat="43.6291803" lon="11.4167187"><ele>455.4</ele><time>2026-03-28T09:40:10.416Z</time></trkpt><trkpt lat="43.6291158" lon="11.4166161"><ele>455.8</ele><time>2026-03-28T09:40:12.416Z</time></trkpt><trkpt lat="43.6291269" lon="11.4165301"><ele>456.20000000000005</ele><time>2026-03-28T09:40:14.416Z</time></trkpt><trkpt lat="43.6292188" lon="11.4164829"><ele>456.6</ele><time>2026-03-28T09:40:17.416Z</time></trkpt><trkpt lat="43.6293325" lon="11.416398"><ele>457.0</ele><time>2026-03-28T09:40:19.416Z</time></trkpt><trkpt lat="43.629403" lon="11.4163276"><ele>457.8</ele><time>2026-03-28T09:40:20.416Z</time></trkpt><trkpt lat="43.6294657" lon="11.4162885"><ele>458.6</ele><time>2026-03-28T09:40:21.416Z</time></trkpt><trkpt lat="43.6295216" lon="11.4162441"><ele>459.40000000000003</ele><time>2026-03-28T09:40:22.416Z</time></trkpt><trkpt lat="43.6295876" lon="11.4161311"><ele>460.20000000000005</ele><time>2026-03-28T09:40:24.416Z</time></trkpt><trkpt lat="43.629608" lon="11.4159931"><ele>461.0</ele><time>2026-03-28T09:40:26.416Z</time></trkpt><trkpt lat="43.6296353" lon="11.4158191"><ele>461.0</ele><time>2026-03-28T09:40:28.416Z</time></trkpt><trkpt lat="43.6296751" lon="11.4157016"><ele>461.0</ele><time>2026-03-28T09:40:30.416Z</time></trkpt><trkpt lat="43.6297684" lon="11.4157043"><ele>461.0</ele><time>2026-03-28T09:40:32.416Z</time></trkpt><trkpt lat="43.6298712" lon="11.4157557"><ele>461.0</ele><time>2026-03-28T09:40:34.416Z</time></trkpt><trkpt lat="43.6299713" lon="11.4158418"><ele>461.0</ele><time>2026-03-28T09:40:36.416Z</time></trkpt><trkpt lat="43.6300722" lon="11.4159096"><ele>460.99999999999994</ele><time>2026-03-28T09:40:38.416Z</time></trkpt><trkpt lat="43.6301691" lon="11.4159164"><ele>461.0</ele><time>2026-03-28T09:40:40.416Z</time></trkpt><trkpt lat="43.630259" lon="11.4158257"><ele>461.0</ele><time>2026-03-28T09:40:42.416Z</time></trkpt><trkpt lat="43.6303492" lon="11.415743"><ele>461.0</ele><time>2026-03-28T09:40:44.416Z</time></trkpt><trkpt lat="43.6304034" lon="11.4156956"><ele>460.99999999999994</ele><time>2026-03-28T09:40:45.416Z</time></trkpt><trkpt lat="43.6304607" lon="11.4156539"><ele>461.0</ele><time>2026-03-28T09:40:46.416Z</time></trkpt><trkpt lat="43.6305257" lon="11.4156151"><ele>461.8333333333333</ele><time>2026-03-28T09:40:47.416Z</time></trkpt><trkpt lat="43.6305979" lon="11.4155661"><ele>462.66666666666663</ele><time>2026-03-28T09:40:48.416Z</time></trkpt><trkpt lat="43.6306645" lon="11.4155194"><ele>463.5</ele><time>2026-03-28T09:40:49.416Z</time></trkpt><trkpt lat="43.6307291" lon="11.4154686"><ele>464.33333333333337</ele><time>2026-03-28T09:40:50.416Z</time></trkpt><trkpt lat="43.6307756" lon="11.415322"><ele>465.1666666666667</ele><time>2026-03-28T09:40:52.416Z</time></trkpt><trkpt lat="43.6307734" lon="11.4152188"><ele>466.0</ele><time>2026-03-28T09:40:53.416Z</time></trkpt><trkpt lat="43.6307796" lon="11.415115"><ele>470.20000000000005</ele><time>2026-03-28T09:40:54.416Z</time></trkpt><trkpt lat="43.6307808" lon="11.415024"><ele>474.40000000000003</ele><time>2026-03-28T09:40:55.416Z</time></trkpt><trkpt lat="43.6307756" lon="11.4149359"><ele>478.6</ele><time>2026-03-28T09:40:56.416Z</time></trkpt><trkpt lat="43.6307667" lon="11.4148461"><ele>482.8</ele><time>2026-03-28T09:40:57.416Z</time></trkpt><trkpt lat="43.630751" lon="11.4146713"><ele>487.0</ele><time>2026-03-28T09:40:59.416Z</time></trkpt><trkpt lat="43.6307358" lon="11.4144942"><ele>490.8</ele><time>2026-03-28T09:41:01.416Z</time></trkpt><trkpt lat="43.6307338" lon="11.4143992"><ele>494.6</ele><time>2026-03-28T09:41:02.416Z</time></trkpt><trkpt lat="43.630732" lon="11.4143119"><ele>498.40000000000003</ele><time>2026-03-28T09:41:03.416Z</time></trkpt><trkpt lat="43.6307553" lon="11.4141325"><ele>502.20000000000005</ele><time>2026-03-28T09:41:05.416Z</time></trkpt><trkpt lat="43.6307694" lon="11.4140358"><ele>506.0</ele><time>2026-03-28T09:41:06.416Z</time></trkpt><trkpt lat="43.6308346" lon="11.4139035"><ele>505.99999999999994</ele><time>2026-03-28T09:41:08.416Z</time></trkpt><trkpt lat="43.6309294" lon="11.4138574"><ele>506.0</ele><time>2026-03-28T09:41:10.416Z</time></trkpt><trkpt lat="43.6309941" lon="11.4138689"><ele>506.0</ele><time>2026-03-28T09:41:11.416Z</time></trkpt><trkpt lat="43.6310608" lon="11.4139064"><ele>506.0</ele><time>2026-03-28T09:41:12.416Z</time></trkpt><trkpt lat="43.63112" lon="11.4139534"><ele>505.99999999999994</ele><time>2026-03-28T09:41:13.416Z</time></trkpt><trkpt lat="43.6312198" lon="11.4140122"><ele>506.0</ele><time>2026-03-28T09:41:15.416Z</time></trkpt><trkpt lat="43.6312931" lon="11.4140619"><ele>506.8333333333333</ele><time>2026-03-28T09:41:17.416Z</time></trkpt><trkpt lat="43.6313999" lon="11.4141136"><ele>507.66666666666663</ele><time>2026-03-28T09:41:19.416Z</time></trkpt><trkpt lat="43.6315057" lon="11.4141169"><ele>508.5</ele><time>2026-03-28T09:41:21.416Z</time></trkpt><trkpt lat="43.6315855" lon="11.4141049"><ele>509.33333333333337</ele><time>2026-03-28T09:41:23.416Z</time></trkpt><trkpt lat="43.6316359" lon="11.4140478"><ele>510.1666666666667</ele><time>2026-03-28T09:41:25.416Z</time></trkpt><trkpt lat="43.6316266" lon="11.4139568"><ele>511.0</ele><time>2026-03-28T09:41:36.416Z</time></trkpt><trkpt lat="43.631618" lon="11.4138058"><ele>512.4</ele><time>2026-03-28T09:41:38.416Z</time></trkpt><trkpt lat="43.6315826" lon="11.4136559"><ele>513.8</ele><time>2026-03-28T09:41:40.416Z</time></trkpt><trkpt lat="43.6315095" lon="11.4135721"><ele>515.1999999999999</ele><time>2026-03-28T09:41:42.416Z</time></trkpt><trkpt lat="43.6314972" lon="11.4134645"><ele>516.6</ele><time>2026-03-28T09:41:43.416Z</time></trkpt><trkpt lat="43.631483" lon="11.4133184"><ele>518.0</ele><time>2026-03-28T09:41:45.416Z</time></trkpt><trkpt lat="43.6314202" lon="11.4132121"><ele>518.0</ele><time>2026-03-28T09:41:47.416Z</time></trkpt><trkpt lat="43.631304" lon="11.4131283"><ele>518.0</ele><time>2026-03-28T09:41:49.416Z</time></trkpt><trkpt lat="43.6312494" lon="11.4130742"><ele>518.0</ele><time>2026-03-28T09:41:50.416Z</time></trkpt><trkpt lat="43.6311722" lon="11.4129399"><ele>518.0</ele><time>2026-03-28T09:41:52.416Z</time></trkpt><trkpt lat="43.6310785" lon="11.4128973"><ele>518.0</ele><time>2026-03-28T09:41:54.416Z</time></trkpt><trkpt lat="43.6309987" lon="11.4129186"><ele>521.8</ele><time>2026-03-28T09:41:55.416Z</time></trkpt><trkpt lat="43.6309141" lon="11.4129474"><ele>525.5999999999999</ele><time>2026-03-28T09:41:56.416Z</time></trkpt><trkpt lat="43.6308151" lon="11.4129475"><ele>529.4000000000001</ele><time>2026-03-28T09:41:58.416Z</time></trkpt><trkpt lat="43.6308079" lon="11.4128247"><ele>533.2</ele><time>2026-03-28T09:42:00.416Z</time></trkpt><trkpt lat="43.6308053" lon="11.4126911"><ele>537.0</ele><time>2026-03-28T09:42:02.416Z</time></trkpt><trkpt lat="43.6307657" lon="11.4125478"><ele>537.0</ele><time>2026-03-28T09:42:04.416Z</time></trkpt><trkpt lat="43.6306794" lon="11.4124378"><ele>537.0</ele><time>2026-03-28T09:42:06.416Z</time></trkpt><trkpt lat="43.6306289" lon="11.4123823"><ele>537.0</ele><time>2026-03-28T09:42:07.416Z</time></trkpt><trkpt lat="43.6305334" lon="11.4123008"><ele>537.0</ele><time>2026-03-28T09:42:09.416Z</time></trkpt><trkpt lat="43.6304906" lon="11.4121788"><ele>537.0</ele><time>2026-03-28T09:42:11.416Z</time></trkpt><trkpt lat="43.6304795" lon="11.4120162"><ele>538.5</ele><time>2026-03-28T09:42:13.416Z</time></trkpt><trkpt lat="43.6304563" lon="11.4119292"><ele>540.0</ele><time>2026-03-28T09:42:14.416Z</time></trkpt><trkpt lat="43.6304229" lon="11.4118445"><ele>541.5</ele><time>2026-03-28T09:42:15.416Z</time></trkpt><trkpt lat="43.6303831" lon="11.4116724"><ele>543.0</ele><time>2026-03-28T09:42:17.416Z</time></trkpt><trkpt lat="43.6303702" lon="11.4115717"><ele>544.5</ele><time>2026-03-28T09:42:18.416Z</time></trkpt><trkpt lat="43.630357" lon="11.4114675"><ele>546.0</ele><time>2026-03-28T09:42:19.416Z</time></trkpt><trkpt lat="43.6303479" lon="11.4113567"><ele>549.4</ele><time>2026-03-28T09:42:20.416Z</time></trkpt><trkpt lat="43.6303417" lon="11.4112523"><ele>552.8</ele><time>2026-03-28T09:42:21.416Z</time></trkpt><trkpt lat="43.6303354" lon="11.4111575"><ele>556.1999999999999</ele><time>2026-03-28T09:42:22.416Z</time></trkpt><trkpt lat="43.6303238" lon="11.4109983"><ele>559.6</ele><time>2026-03-28T09:42:24.416Z</time></trkpt><trkpt lat="43.6302967" lon="11.4108323"><ele>563.0</ele><time>2026-03-28T09:42:26.416Z</time></trkpt><trkpt lat="43.630292" lon="11.4106854"><ele>563.5</ele><time>2026-03-28T09:42:28.416Z</time></trkpt><trkpt lat="43.6303738" lon="11.4105855"><ele>564.0</ele><time>2026-03-28T09:42:30.416Z</time></trkpt><trkpt lat="43.6304295" lon="11.4105216"><ele>564.5</ele><time>2026-03-28T09:42:31.416Z</time></trkpt><trkpt lat="43.6304741" lon="11.4104548"><ele>565.0</ele><time>2026-03-28T09:42:32.416Z</time></trkpt><trkpt lat="43.6305066" lon="11.4103756"><ele>565.5</ele><time>2026-03-28T09:42:51.416Z</time></trkpt><trkpt lat="43.6305328" lon="11.4102468"><ele>566.0</ele><time>2026-03-28T09:42:53.416Z</time></trkpt><trkpt lat="43.6305271" lon="11.4100729"><ele>569.0</ele><time>2026-03-28T09:42:55.416Z</time></trkpt><trkpt lat="43.6305054" lon="11.4099801"><ele>572.0</ele><time>2026-03-28T09:42:56.416Z</time></trkpt><trkpt lat="43.6304813" lon="11.4098909"><ele>575.0</ele><time>2026-03-28T09:42:57.416Z</time></trkpt><trkpt lat="43.6304516" lon="11.4097986"><ele>578.0</ele><time>2026-03-28T09:42:58.416Z</time></trkpt><trkpt lat="43.6304208" lon="11.4096976"><ele>581.0</ele><time>2026-03-28T09:42:59.416Z</time></trkpt><trkpt lat="43.6303891" lon="11.4095998"><ele>584.0</ele><time>2026-03-28T09:43:00.416Z</time></trkpt><trkpt lat="43.6303591" lon="11.4094915"><ele>583.5</ele><time>2026-03-28T09:43:01.416Z</time></trkpt><trkpt lat="43.6303238" lon="11.4093702"><ele>583.0</ele><time>2026-03-28T09:43:02.416Z</time></trkpt><trkpt lat="43.6302969" lon="11.409245"><ele>582.5</ele><time>2026-03-28T09:43:03.416Z</time></trkpt><trkpt lat="43.6302696" lon="11.4091334"><ele>582.0</ele><time>2026-03-28T09:43:04.416Z</time></trkpt><trkpt lat="43.6302434" lon="11.4090359"><ele>581.5</ele><time>2026-03-28T09:43:05.416Z</time></trkpt><trkpt lat="43.6302279" lon="11.408946"><ele>581.0</ele><time>2026-03-28T09:43:06.416Z</time></trkpt><trkpt lat="43.6302788" lon="11.4088012"><ele>585.0</ele><time>2026-03-28T09:43:08.416Z</time></trkpt><trkpt lat="43.6303658" lon="11.4087475"><ele>589.0</ele><time>2026-03-28T09:43:10.416Z</time></trkpt><trkpt lat="43.6304378" lon="11.408858"><ele>593.0</ele><time>2026-03-28T09:43:12.416Z</time></trkpt><trkpt lat="43.6304917" lon="11.408978"><ele>597.0</ele><time>2026-03-28T09:43:14.416Z</time></trkpt><trkpt lat="43.6306085" lon="11.4090246"><ele>601.0</ele><time>2026-03-28T09:43:16.416Z</time></trkpt><trkpt lat="43.6306898" lon="11.4090088"><ele>601.0</ele><time>2026-03-28T09:43:17.416Z</time></trkpt><trkpt lat="43.6307581" lon="11.4090005"><ele>601.0</ele><time>2026-03-28T09:43:18.416Z</time></trkpt><trkpt lat="43.6308185" lon="11.4089664"><ele>601.0</ele><time>2026-03-28T09:43:19.416Z</time></trkpt><trkpt lat="43.6308561" lon="11.4088944"><ele>601.0</ele><time>2026-03-28T09:43:20.416Z</time></trkpt><trkpt lat="43.6308721" lon="11.4087983"><ele>601.0</ele><time>2026-03-28T09:43:21.416Z</time></trkpt><trkpt lat="43.6308859" lon="11.4087052"><ele>601.0</ele><time>2026-03-28T09:43:22.416Z</time></trkpt><trkpt lat="43.6309317" lon="11.4085338"><ele>601.8333333333334</ele><time>2026-03-28T09:43:24.416Z</time></trkpt><trkpt lat="43.6309623" lon="11.4084442"><ele>602.6666666666667</ele><time>2026-03-28T09:43:25.416Z</time></trkpt><trkpt lat="43.6309946" lon="11.4083573"><ele>603.5</ele><time>2026-03-28T09:43:26.416Z</time></trkpt><trkpt lat="43.6310239" lon="11.4082782"><ele>604.3333333333334</ele><time>2026-03-28T09:43:27.416Z</time></trkpt><trkpt lat="43.6310546" lon="11.4081949"><ele>605.1666666666666</ele><time>2026-03-28T09:43:28.416Z</time></trkpt><trkpt lat="43.6310832" lon="11.4081136"><ele>606.0</ele><time>2026-03-28T09:43:29.416Z</time></trkpt><trkpt lat="43.63116" lon="11.4079944"><ele>609.6666666666666</ele><time>2026-03-28T09:43:31.416Z</time></trkpt><trkpt lat="43.6312193" lon="11.407943"><ele>613.3333333333334</ele><time>2026-03-28T09:43:32.416Z</time></trkpt><trkpt lat="43.6312913" lon="11.4079006"><ele>617.0</ele><time>2026-03-28T09:43:33.416Z</time></trkpt><trkpt lat="43.6313787" lon="11.4078778"><ele>620.6666666666667</ele><time>2026-03-28T09:43:34.416Z</time></trkpt><trkpt lat="43.6314656" lon="11.4078605"><ele>624.3333333333334</ele><time>2026-03-28T09:43:35.417Z</time></trkpt><trkpt lat="43.6315581" lon="11.4078538"><ele>628.0</ele><time>2026-03-28T09:43:36.416Z</time></trkpt><trkpt lat="43.6316479" lon="11.4078723"><ele>628.0</ele><time>2026-03-28T09:43:37.416Z</time></trkpt><trkpt lat="43.6317129" lon="11.4078999"><ele>628.0</ele><time>2026-03-28T09:43:38.416Z</time></trkpt><trkpt lat="43.6318268" lon="11.4079618"><ele>628.0</ele><time>2026-03-28T09:43:40.416Z</time></trkpt><trkpt lat="43.6318899" lon="11.4079783"><ele>628.0</ele><time>2026-03-28T09:43:41.416Z</time></trkpt><trkpt lat="43.631955" lon="11.4079884"><ele>628.0</ele><time>2026-03-28T09:43:42.416Z</time></trkpt><trkpt lat="43.6320702" lon="11.4079923"><ele>628.0</ele><time>2026-03-28T09:43:44.416Z</time></trkpt><trkpt lat="43.6321319" lon="11.4079556"><ele>630.0</ele><time>2026-03-28T09:43:45.416Z</time></trkpt><trkpt lat="43.632195" lon="11.4079016"><ele>632.0</ele><time>2026-03-28T09:43:46.416Z</time></trkpt><trkpt lat="43.6322492" lon="11.4078306"><ele>634.0</ele><time>2026-03-28T09:43:47.416Z</time></trkpt><trkpt lat="43.6322846" lon="11.4077411"><ele>636.0</ele><time>2026-03-28T09:43:48.416Z</time></trkpt><trkpt lat="43.6323022" lon="11.4076534"><ele>638.0</ele><time>2026-03-28T09:43:49.416Z</time></trkpt><trkpt lat="43.6322569" lon="11.407504"><ele>640.0</ele><time>2026-03-28T09:43:51.416Z</time></trkpt><trkpt lat="43.6322054" lon="11.4074389"><ele>640.0</ele><time>2026-03-28T09:43:52.416Z</time></trkpt><trkpt lat="43.6321477" lon="11.407376"><ele>640.0</ele><time>2026-03-28T09:43:53.416Z</time></trkpt><trkpt lat="43.6320869" lon="11.4073122"><ele>640.0</ele><time>2026-03-28T09:43:54.416Z</time></trkpt><trkpt lat="43.6320328" lon="11.407265"><ele>640.0</ele><time>2026-03-28T09:43:55.416Z</time></trkpt><trkpt lat="43.6319692" lon="11.4071794"><ele>640.0</ele><time>2026-03-28T09:43:57.416Z</time></trkpt><trkpt lat="43.6320325" lon="11.407089"><ele>640.0</ele><time>2026-03-28T09:44:00.416Z</time></trkpt><trkpt lat="43.6321363" lon="11.4071422"><ele>642.5</ele><time>2026-03-28T09:44:02.416Z</time></trkpt><trkpt lat="43.632223" lon="11.4071195"><ele>645.0</ele><time>2026-03-28T09:44:04.416Z</time></trkpt><trkpt lat="43.632326" lon="11.4070316"><ele>647.5</ele><time>2026-03-28T09:44:06.416Z</time></trkpt><trkpt lat="43.6323921" lon="11.4069855"><ele>650.0</ele><time>2026-03-28T09:44:07.416Z</time></trkpt><trkpt lat="43.632467" lon="11.4069455"><ele>652.5</ele><time>2026-03-28T09:44:08.416Z</time></trkpt><trkpt lat="43.6325265" lon="11.4069023"><ele>655.0</ele><time>2026-03-28T09:44:09.416Z</time></trkpt><trkpt lat="43.6325767" lon="11.4068145"><ele>655.0</ele><time>2026-03-28T09:44:11.416Z</time></trkpt><trkpt lat="43.6324892" lon="11.4067483"><ele>655.0</ele><time>2026-03-28T09:44:13.416Z</time></trkpt><trkpt lat="43.6324073" lon="11.4067572"><ele>655.0</ele><time>2026-03-28T09:44:14.416Z</time></trkpt><trkpt lat="43.6323406" lon="11.4067406"><ele>655.0</ele><time>2026-03-28T09:44:15.417Z</time></trkpt><trkpt lat="43.6322249" lon="11.4066702"><ele>655.0</ele><time>2026-03-28T09:44:17.416Z</time></trkpt><trkpt lat="43.6321621" lon="11.4066222"><ele>655.0</ele><time>2026-03-28T09:44:18.416Z</time></trkpt><trkpt lat="43.6321018" lon="11.4065679"><ele>655.0</ele><time>2026-03-28T09:44:19.416Z</time></trkpt><trkpt lat="43.6320466" lon="11.4065033"><ele>655.0</ele><time>2026-03-28T09:44:20.416Z</time></trkpt><trkpt lat="43.6319916" lon="11.4064331"><ele>655.0</ele><time>2026-03-28T09:44:21.416Z</time></trkpt><trkpt lat="43.6319421" lon="11.4063619"><ele>655.0</ele><time>2026-03-28T09:44:22.416Z</time></trkpt><trkpt lat="43.631897" lon="11.4062987"><ele>655.0</ele><time>2026-03-28T09:44:23.416Z</time></trkpt><trkpt lat="43.6318354" lon="11.4061946"><ele>655.0</ele><time>2026-03-28T09:44:25.416Z</time></trkpt><trkpt lat="43.6318294" lon="11.4060412"><ele>655.6</ele><time>2026-03-28T09:44:27.416Z</time></trkpt><trkpt lat="43.6318508" lon="11.4058931"><ele>656.2</ele><time>2026-03-28T09:44:29.416Z</time></trkpt><trkpt lat="43.6319561" lon="11.4057693"><ele>656.8</ele><time>2026-03-28T09:44:31.416Z</time></trkpt><trkpt lat="43.6320359" lon="11.4057218"><ele>657.4</ele><time>2026-03-28T09:44:32.416Z</time></trkpt><trkpt lat="43.6320939" lon="11.4056595"><ele>658.0</ele><time>2026-03-28T09:44:33.416Z</time></trkpt><trkpt lat="43.6321418" lon="11.4055831"><ele>659.8333333333334</ele><time>2026-03-28T09:44:34.416Z</time></trkpt><trkpt lat="43.6321826" lon="11.4054983"><ele>661.6666666666667</ele><time>2026-03-28T09:44:35.416Z</time></trkpt><trkpt lat="43.6322505" lon="11.4053649"><ele>663.5</ele><time>2026-03-28T09:44:37.416Z</time></trkpt><trkpt lat="43.6323504" lon="11.4053169"><ele>665.3333333333334</ele><time>2026-03-28T09:44:39.416Z</time></trkpt><trkpt lat="43.6324148" lon="11.4053344"><ele>667.1666666666666</ele><time>2026-03-28T09:44:40.416Z</time></trkpt><trkpt lat="43.632488" lon="11.4053584"><ele>669.0</ele><time>2026-03-28T09:44:41.416Z</time></trkpt><trkpt lat="43.6325519" lon="11.4053771"><ele>671.0</ele><time>2026-03-28T09:44:42.416Z</time></trkpt><trkpt lat="43.6326277" lon="11.4052986"><ele>673.0</ele><time>2026-03-28T09:44:44.416Z</time></trkpt><trkpt lat="43.6326218" lon="11.4052001"><ele>675.0</ele><time>2026-03-28T09:44:45.416Z</time></trkpt><trkpt lat="43.6326015" lon="11.4050924"><ele>677.0</ele><time>2026-03-28T09:44:46.416Z</time></trkpt><trkpt lat="43.6325822" lon="11.4049941"><ele>679.0</ele><time>2026-03-28T09:44:47.416Z</time></trkpt><trkpt lat="43.6325767" lon="11.4049059"><ele>681.0</ele><time>2026-03-28T09:44:48.416Z</time></trkpt><trkpt lat="43.6325465" lon="11.4047524"><ele>681.0</ele><time>2026-03-28T09:44:50.416Z</time></trkpt><trkpt lat="43.63252" lon="11.4046633"><ele>681.0</ele><time>2026-03-28T09:44:51.416Z</time></trkpt><trkpt lat="43.632507" lon="11.4045672"><ele>681.0</ele><time>2026-03-28T09:44:52.416Z</time></trkpt><trkpt lat="43.6325026" lon="11.4044692"><ele>681.0</ele><time>2026-03-28T09:44:53.416Z</time></trkpt><trkpt lat="43.6325108" lon="11.4043736"><ele>681.0</ele><time>2026-03-28T09:44:54.416Z</time></trkpt><trkpt lat="43.6325299" lon="11.4042805"><ele>681.0</ele><time>2026-03-28T09:44:55.416Z</time></trkpt><trkpt lat="43.6325845" lon="11.4041462"><ele>682.1666666666666</ele><time>2026-03-28T09:44:57.416Z</time></trkpt><trkpt lat="43.6326364" lon="11.4040216"><ele>683.3333333333334</ele><time>2026-03-28T09:44:59.416Z</time></trkpt><trkpt lat="43.6326549" lon="11.4039383"><ele>684.5</ele><time>2026-03-28T09:45:00.416Z</time></trkpt><trkpt lat="43.6326631" lon="11.4038404"><ele>685.6666666666667</ele><time>2026-03-28T09:45:01.416Z</time></trkpt><trkpt lat="43.6326645" lon="11.4037456"><ele>686.8333333333334</ele><time>2026-03-28T09:45:02.416Z</time></trkpt><trkpt lat="43.632652" lon="11.40366"><ele>688.0</ele><time>2026-03-28T09:45:03.416Z</time></trkpt><trkpt lat="43.6326399" lon="11.4035016"><ele>688.0</ele><time>2026-03-28T09:45:05.417Z</time></trkpt><trkpt lat="43.632638" lon="11.4033535"><ele>688.0</ele><time>2026-03-28T09:45:07.416Z</time></trkpt><trkpt lat="43.6326386" lon="11.4032654"><ele>688.0</ele><time>2026-03-28T09:45:08.416Z</time></trkpt><trkpt lat="43.6326495" lon="11.4031116"><ele>688.0</ele><time>2026-03-28T09:45:10.416Z</time></trkpt><trkpt lat="43.6326287" lon="11.4029188"><ele>688.0</ele><time>2026-03-28T09:45:12.416Z</time></trkpt><trkpt lat="43.6326202" lon="11.4028078"><ele>687.5</ele><time>2026-03-28T09:45:13.416Z</time></trkpt><trkpt lat="43.6326127" lon="11.402701"><ele>687.0</ele><time>2026-03-28T09:45:14.416Z</time></trkpt><trkpt lat="43.632611" lon="11.402611"><ele>686.5</ele><time>2026-03-28T09:45:15.416Z</time></trkpt><trkpt lat="43.6325703" lon="11.4024646"><ele>686.0</ele><time>2026-03-28T09:45:17.416Z</time></trkpt><trkpt lat="43.6324965" lon="11.4023525"><ele>685.5</ele><time>2026-03-28T09:45:19.416Z</time></trkpt><trkpt lat="43.6324397" lon="11.4023009"><ele>685.0</ele><time>2026-03-28T09:45:20.416Z</time></trkpt><trkpt lat="43.6323855" lon="11.4022394"><ele>685.0</ele><time>2026-03-28T09:45:21.416Z</time></trkpt><trkpt lat="43.6323314" lon="11.4021862"><ele>685.0</ele><time>2026-03-28T09:45:22.416Z</time></trkpt><trkpt lat="43.6322733" lon="11.4021498"><ele>685.0</ele><time>2026-03-28T09:45:23.416Z</time></trkpt><trkpt lat="43.6321659" lon="11.4020792"><ele>685.0</ele><time>2026-03-28T09:45:25.416Z</time></trkpt><trkpt lat="43.6320828" lon="11.4020378"><ele>685.0</ele><time>2026-03-28T09:45:27.416Z</time></trkpt><trkpt lat="43.6320957" lon="11.40195"><ele>685.0</ele><time>2026-03-28T09:45:29.416Z</time></trkpt><trkpt lat="43.6321839" lon="11.4018988"><ele>683.5</ele><time>2026-03-28T09:45:31.416Z</time></trkpt><trkpt lat="43.6322591" lon="11.4019069"><ele>682.0</ele><time>2026-03-28T09:45:32.416Z</time></trkpt><trkpt lat="43.6323305" lon="11.4019152"><ele>680.5</ele><time>2026-03-28T09:45:33.416Z</time></trkpt><trkpt lat="43.6324396" lon="11.4018964"><ele>679.0</ele><time>2026-03-28T09:45:35.416Z</time></trkpt><trkpt lat="43.6325217" lon="11.4017931"><ele>677.5</ele><time>2026-03-28T09:45:37.416Z</time></trkpt><trkpt lat="43.632552" lon="11.4017054"><ele>676.0</ele><time>2026-03-28T09:45:38.416Z</time></trkpt><trkpt lat="43.632581" lon="11.4016114"><ele>676.0</ele><time>2026-03-28T09:45:39.416Z</time></trkpt><trkpt lat="43.6326104" lon="11.401519"><ele>676.0</ele><time>2026-03-28T09:45:40.416Z</time></trkpt><trkpt lat="43.6326385" lon="11.401431"><ele>676.0</ele><time>2026-03-28T09:45:41.416Z</time></trkpt><trkpt lat="43.6326592" lon="11.401341"><ele>676.0</ele><time>2026-03-28T09:45:42.416Z</time></trkpt><trkpt lat="43.6327028" lon="11.4011914"><ele>676.0</ele><time>2026-03-28T09:45:44.416Z</time></trkpt><trkpt lat="43.6327074" lon="11.4010881"><ele>676.0</ele><time>2026-03-28T09:45:45.416Z</time></trkpt><trkpt lat="43.6326967" lon="11.4009897"><ele>676.1666666666667</ele><time>2026-03-28T09:45:46.416Z</time></trkpt><trkpt lat="43.63268" lon="11.4008457"><ele>676.3333333333334</ele><time>2026-03-28T09:45:48.416Z</time></trkpt><trkpt lat="43.632678" lon="11.4006902"><ele>676.5</ele><time>2026-03-28T09:45:50.416Z</time></trkpt><trkpt lat="43.632682" lon="11.4005961"><ele>676.6666666666666</ele><time>2026-03-28T09:45:51.416Z</time></trkpt><trkpt lat="43.6326978" lon="11.4005025"><ele>676.8333333333333</ele><time>2026-03-28T09:45:52.416Z</time></trkpt><trkpt lat="43.6327198" lon="11.4004148"><ele>677.0</ele><time>2026-03-28T09:45:53.416Z</time></trkpt><trkpt lat="43.6327198" lon="11.4003254"><ele>677.0</ele><time>2026-03-28T09:45:54.416Z</time></trkpt><trkpt lat="43.6326717" lon="11.4001698"><ele>677.0</ele><time>2026-03-28T09:45:56.416Z</time></trkpt><trkpt lat="43.6326581" lon="11.4000592"><ele>677.0</ele><time>2026-03-28T09:45:57.416Z</time></trkpt><trkpt lat="43.6326403" lon="11.3999426"><ele>677.0</ele><time>2026-03-28T09:45:58.416Z</time></trkpt><trkpt lat="43.6325996" lon="11.3998242"><ele>677.0</ele><time>2026-03-28T09:45:59.416Z</time></trkpt><trkpt lat="43.6325409" lon="11.3997098"><ele>679.8333333333333</ele><time>2026-03-28T09:46:00.416Z</time></trkpt><trkpt lat="43.6324974" lon="11.3996187"><ele>682.6666666666666</ele><time>2026-03-28T09:46:01.416Z</time></trkpt><trkpt lat="43.6324612" lon="11.3995269"><ele>685.5</ele><time>2026-03-28T09:46:02.416Z</time></trkpt><trkpt lat="43.6324184" lon="11.3994299"><ele>688.3333333333334</ele><time>2026-03-28T09:46:03.416Z</time></trkpt><trkpt lat="43.6323609" lon="11.3993338"><ele>691.1666666666667</ele><time>2026-03-28T09:46:04.416Z</time></trkpt><trkpt lat="43.6322974" lon="11.3992778"><ele>694.0</ele><time>2026-03-28T09:46:05.416Z</time></trkpt><trkpt lat="43.632225" lon="11.3992367"><ele>694.0</ele><time>2026-03-28T09:46:06.416Z</time></trkpt><trkpt lat="43.6321584" lon="11.3991937"><ele>694.0</ele><time>2026-03-28T09:46:07.416Z</time></trkpt><trkpt lat="43.6320949" lon="11.3991342"><ele>694.0</ele><time>2026-03-28T09:46:08.416Z</time></trkpt><trkpt lat="43.6320045" lon="11.3989988"><ele>694.0</ele><time>2026-03-28T09:46:10.416Z</time></trkpt><trkpt lat="43.631953" lon="11.3989245"><ele>694.0</ele><time>2026-03-28T09:46:11.416Z</time></trkpt><trkpt lat="43.6318993" lon="11.3988554"><ele>694.0</ele><time>2026-03-28T09:46:12.416Z</time></trkpt><trkpt lat="43.6318582" lon="11.3987809"><ele>692.8333333333334</ele><time>2026-03-28T09:46:13.416Z</time></trkpt><trkpt lat="43.6318136" lon="11.3987118"><ele>691.6666666666667</ele><time>2026-03-28T09:46:14.416Z</time></trkpt><trkpt lat="43.6317716" lon="11.3986356"><ele>690.5</ele><time>2026-03-28T09:46:15.416Z</time></trkpt><trkpt lat="43.631774" lon="11.3984687"><ele>689.3333333333334</ele><time>2026-03-28T09:46:17.416Z</time></trkpt><trkpt lat="43.6318141" lon="11.3983934"><ele>688.1666666666666</ele><time>2026-03-28T09:46:18.416Z</time></trkpt><trkpt lat="43.631887" lon="11.398312"><ele>687.0</ele><time>2026-03-28T09:46:19.416Z</time></trkpt><trkpt lat="43.6319561" lon="11.3982277"><ele>688.6</ele><time>2026-03-28T09:46:20.416Z</time></trkpt><trkpt lat="43.6320194" lon="11.3981214"><ele>690.2</ele><time>2026-03-28T09:46:21.416Z</time></trkpt><trkpt lat="43.6320953" lon="11.3980123"><ele>691.8</ele><time>2026-03-28T09:46:22.416Z</time></trkpt><trkpt lat="43.6321939" lon="11.3978995"><ele>693.4</ele><time>2026-03-28T09:46:23.416Z</time></trkpt><trkpt lat="43.6322835" lon="11.3978103"><ele>695.0</ele><time>2026-03-28T09:46:24.416Z</time></trkpt><trkpt lat="43.6323543" lon="11.3977455"><ele>695.0</ele><time>2026-03-28T09:46:25.416Z</time></trkpt><trkpt lat="43.6324183" lon="11.3976979"><ele>695.0</ele><time>2026-03-28T09:46:26.416Z</time></trkpt><trkpt lat="43.6324768" lon="11.3976549"><ele>695.0</ele><time>2026-03-28T09:46:27.416Z</time></trkpt><trkpt lat="43.6325412" lon="11.3976252"><ele>695.0</ele><time>2026-03-28T09:46:28.416Z</time></trkpt><trkpt lat="43.6326234" lon="11.3975908"><ele>695.0</ele><time>2026-03-28T09:46:29.416Z</time></trkpt><trkpt lat="43.6327089" lon="11.3975507"><ele>695.0</ele><time>2026-03-28T09:46:30.416Z</time></trkpt><trkpt lat="43.6328124" lon="11.3975185"><ele>695.8</ele><time>2026-03-28T09:46:31.416Z</time></trkpt><trkpt lat="43.6329177" lon="11.3974944"><ele>696.6</ele><time>2026-03-28T09:46:32.416Z</time></trkpt><trkpt lat="43.6330211" lon="11.3974668"><ele>697.4000000000001</ele><time>2026-03-28T09:46:33.416Z</time></trkpt><trkpt lat="43.6331253" lon="11.3974473"><ele>698.2</ele><time>2026-03-28T09:46:34.416Z</time></trkpt><trkpt lat="43.6332089" lon="11.3974253"><ele>699.0</ele><time>2026-03-28T09:46:35.416Z</time></trkpt><trkpt lat="43.6332799" lon="11.397413"><ele>699.0</ele><time>2026-03-28T09:46:36.416Z</time></trkpt><trkpt lat="43.6333949" lon="11.3973526"><ele>699.0</ele><time>2026-03-28T09:46:38.417Z</time></trkpt><trkpt lat="43.6335087" lon="11.3973155"><ele>699.0</ele><time>2026-03-28T09:46:40.416Z</time></trkpt><trkpt lat="43.6335778" lon="11.3973104"><ele>699.0</ele><time>2026-03-28T09:46:41.416Z</time></trkpt><trkpt lat="43.6336751" lon="11.3973205"><ele>699.0</ele><time>2026-03-28T09:46:42.416Z</time></trkpt><trkpt lat="43.6337769" lon="11.3972933"><ele>699.6</ele><time>2026-03-28T09:46:43.416Z</time></trkpt><trkpt lat="43.6338758" lon="11.3972339"><ele>700.2</ele><time>2026-03-28T09:46:44.416Z</time></trkpt><trkpt lat="43.6339534" lon="11.3971735"><ele>700.8000000000001</ele><time>2026-03-28T09:46:45.416Z</time></trkpt><trkpt lat="43.6340085" lon="11.3971148"><ele>701.4000000000001</ele><time>2026-03-28T09:46:46.416Z</time></trkpt><trkpt lat="43.634063" lon="11.3969986"><ele>702.0</ele><time>2026-03-28T09:46:48.416Z</time></trkpt><trkpt lat="43.6340722" lon="11.396851"><ele>700.5</ele><time>2026-03-28T09:46:50.416Z</time></trkpt><trkpt lat="43.6340385" lon="11.3967678"><ele>699.0</ele><time>2026-03-28T09:46:52.416Z</time></trkpt><trkpt lat="43.6340361" lon="11.3966664"><ele>697.5</ele><time>2026-03-28T09:46:55.416Z</time></trkpt><trkpt lat="43.6341082" lon="11.396634"><ele>696.0</ele><time>2026-03-28T09:48:21.417Z</time></trkpt><trkpt lat="43.6342232" lon="11.3966677"><ele>694.5</ele><time>2026-03-28T09:48:23.417Z</time></trkpt><trkpt lat="43.6343005" lon="11.39669"><ele>693.0</ele><time>2026-03-28T09:48:24.417Z</time></trkpt><trkpt lat="43.634377" lon="11.3967262"><ele>693.0</ele><time>2026-03-28T09:48:25.417Z</time></trkpt><trkpt lat="43.6344596" lon="11.3967481"><ele>693.0</ele><time>2026-03-28T09:48:26.417Z</time></trkpt><trkpt lat="43.6345417" lon="11.3967708"><ele>693.0</ele><time>2026-03-28T09:48:27.417Z</time></trkpt><trkpt lat="43.6346206" lon="11.3967757"><ele>693.0</ele><time>2026-03-28T09:48:28.417Z</time></trkpt><trkpt lat="43.6346981" lon="11.3967959"><ele>693.0</ele><time>2026-03-28T09:48:29.417Z</time></trkpt><trkpt lat="43.6347682" lon="11.3968017"><ele>693.0</ele><time>2026-03-28T09:48:30.417Z</time></trkpt><trkpt lat="43.6348477" lon="11.3967679"><ele>692.0</ele><time>2026-03-28T09:48:31.417Z</time></trkpt><trkpt lat="43.6349251" lon="11.3967088"><ele>691.0</ele><time>2026-03-28T09:48:32.417Z</time></trkpt><trkpt lat="43.6349963" lon="11.3966448"><ele>690.0</ele><time>2026-03-28T09:48:33.417Z</time></trkpt><trkpt lat="43.6350708" lon="11.3965667"><ele>689.0</ele><time>2026-03-28T09:48:34.417Z</time></trkpt><trkpt lat="43.6351396" lon="11.396491"><ele>688.0</ele><time>2026-03-28T09:48:35.417Z</time></trkpt><trkpt lat="43.6352085" lon="11.3964143"><ele>687.0</ele><time>2026-03-28T09:48:36.417Z</time></trkpt><trkpt lat="43.6352733" lon="11.3963403"><ele>688.5</ele><time>2026-03-28T09:48:37.417Z</time></trkpt><trkpt lat="43.6353412" lon="11.3962651"><ele>690.0</ele><time>2026-03-28T09:48:38.417Z</time></trkpt><trkpt lat="43.6354093" lon="11.3961821"><ele>691.5</ele><time>2026-03-28T09:48:39.417Z</time></trkpt><trkpt lat="43.6354653" lon="11.3961034"><ele>693.0</ele><time>2026-03-28T09:48:40.417Z</time></trkpt><trkpt lat="43.6355099" lon="11.3960312"><ele>694.5</ele><time>2026-03-28T09:48:41.417Z</time></trkpt><trkpt lat="43.6355506" lon="11.395962"><ele>696.0</ele><time>2026-03-28T09:48:42.417Z</time></trkpt><trkpt lat="43.6355546" lon="11.3957921"><ele>696.0</ele><time>2026-03-28T09:48:44.417Z</time></trkpt><trkpt lat="43.6355472" lon="11.3956887"><ele>696.0</ele><time>2026-03-28T09:48:45.417Z</time></trkpt><trkpt lat="43.6355278" lon="11.3955851"><ele>696.0</ele><time>2026-03-28T09:48:46.417Z</time></trkpt><trkpt lat="43.6355037" lon="11.3954914"><ele>696.0</ele><time>2026-03-28T09:48:47.417Z</time></trkpt><trkpt lat="43.6354751" lon="11.3954132"><ele>696.0</ele><time>2026-03-28T09:48:48.417Z</time></trkpt><trkpt lat="43.6354489" lon="11.3953319"><ele>696.0</ele><time>2026-03-28T09:48:49.418Z</time></trkpt><trkpt lat="43.6354192" lon="11.3952526"><ele>696.0</ele><time>2026-03-28T09:48:50.417Z</time></trkpt><trkpt lat="43.6353711" lon="11.3951381"><ele>696.6666666666666</ele><time>2026-03-28T09:48:52.417Z</time></trkpt><trkpt lat="43.6353093" lon="11.3949985"><ele>697.3333333333334</ele><time>2026-03-28T09:48:54.417Z</time></trkpt><trkpt lat="43.6352537" lon="11.3949297"><ele>698.0</ele><time>2026-03-28T09:48:55.417Z</time></trkpt><trkpt lat="43.6352057" lon="11.3948643"><ele>698.6666666666667</ele><time>2026-03-28T09:48:56.417Z</time></trkpt><trkpt lat="43.6351564" lon="11.394795"><ele>699.3333333333334</ele><time>2026-03-28T09:48:57.417Z</time></trkpt><trkpt lat="43.6351108" lon="11.3947113"><ele>700.0</ele><time>2026-03-28T09:48:58.417Z</time></trkpt><trkpt lat="43.6350869" lon="11.3946234"><ele>700.0</ele><time>2026-03-28T09:48:59.417Z</time></trkpt><trkpt lat="43.6350402" lon="11.3944705"><ele>700.0</ele><time>2026-03-28T09:49:01.417Z</time></trkpt><trkpt lat="43.63502" lon="11.3943847"><ele>700.0</ele><time>2026-03-28T09:49:02.417Z</time></trkpt><trkpt lat="43.6349958" lon="11.3942871"><ele>700.0</ele><time>2026-03-28T09:49:03.417Z</time></trkpt><trkpt lat="43.634977" lon="11.3942009"><ele>700.0</ele><time>2026-03-28T09:49:04.417Z</time></trkpt><trkpt lat="43.6349574" lon="11.3940585"><ele>700.0</ele><time>2026-03-28T09:49:06.417Z</time></trkpt><trkpt lat="43.6349687" lon="11.393934"><ele>699.0</ele><time>2026-03-28T09:49:08.417Z</time></trkpt><trkpt lat="43.6350372" lon="11.393821"><ele>698.0</ele><time>2026-03-28T09:49:10.417Z</time></trkpt><trkpt lat="43.6350937" lon="11.3937501"><ele>697.0</ele><time>2026-03-28T09:49:11.417Z</time></trkpt><trkpt lat="43.6351571" lon="11.3936642"><ele>696.0</ele><time>2026-03-28T09:49:12.417Z</time></trkpt><trkpt lat="43.6352225" lon="11.3935912"><ele>695.0</ele><time>2026-03-28T09:49:13.417Z</time></trkpt><trkpt lat="43.6352841" lon="11.3935115"><ele>694.0</ele><time>2026-03-28T09:49:14.417Z</time></trkpt><trkpt lat="43.6353537" lon="11.3934417"><ele>697.5</ele><time>2026-03-28T09:49:15.417Z</time></trkpt><trkpt lat="43.6354281" lon="11.3933755"><ele>701.0</ele><time>2026-03-28T09:49:16.417Z</time></trkpt><trkpt lat="43.6354974" lon="11.3933127"><ele>704.5</ele><time>2026-03-28T09:49:17.417Z</time></trkpt><trkpt lat="43.6355629" lon="11.3932436"><ele>708.0</ele><time>2026-03-28T09:49:18.417Z</time></trkpt><trkpt lat="43.6356166" lon="11.3931765"><ele>711.5</ele><time>2026-03-28T09:49:19.417Z</time></trkpt><trkpt lat="43.6356728" lon="11.3931335"><ele>715.0</ele><time>2026-03-28T09:49:20.417Z</time></trkpt><trkpt lat="43.6357293" lon="11.3930904"><ele>715.0</ele><time>2026-03-28T09:49:21.417Z</time></trkpt><trkpt lat="43.6357941" lon="11.3930477"><ele>715.0</ele><time>2026-03-28T09:49:22.417Z</time></trkpt><trkpt lat="43.635855" lon="11.3929898"><ele>715.0</ele><time>2026-03-28T09:49:23.417Z</time></trkpt><trkpt lat="43.6359636" lon="11.3929004"><ele>715.0</ele><time>2026-03-28T09:49:25.417Z</time></trkpt><trkpt lat="43.6360092" lon="11.3928317"><ele>715.0</ele><time>2026-03-28T09:49:26.417Z</time></trkpt><trkpt lat="43.6360484" lon="11.3927403"><ele>715.0</ele><time>2026-03-28T09:49:27.417Z</time></trkpt><trkpt lat="43.6360797" lon="11.3926521"><ele>714.0</ele><time>2026-03-28T09:49:28.417Z</time></trkpt><trkpt lat="43.6360955" lon="11.392551"><ele>713.0</ele><time>2026-03-28T09:49:29.417Z</time></trkpt><trkpt lat="43.6361197" lon="11.3924539"><ele>712.0</ele><time>2026-03-28T09:49:30.417Z</time></trkpt><trkpt lat="43.6361455" lon="11.3923661"><ele>711.0</ele><time>2026-03-28T09:49:31.417Z</time></trkpt><trkpt lat="43.6362072" lon="11.3922434"><ele>710.0</ele><time>2026-03-28T09:49:33.417Z</time></trkpt><trkpt lat="43.6362322" lon="11.392139"><ele>709.0</ele><time>2026-03-28T09:49:35.417Z</time></trkpt><trkpt lat="43.6362509" lon="11.3920526"><ele>712.0</ele><time>2026-03-28T09:49:37.417Z</time></trkpt><trkpt lat="43.6362714" lon="11.391953"><ele>715.0</ele><time>2026-03-28T09:49:40.417Z</time></trkpt><trkpt lat="43.6362929" lon="11.3918671"><ele>718.0</ele><time>2026-03-28T09:49:43.417Z</time></trkpt><trkpt lat="43.6362708" lon="11.3917793"><ele>721.0</ele><time>2026-03-28T09:49:46.417Z</time></trkpt><trkpt lat="43.6361883" lon="11.3917128"><ele>724.0</ele><time>2026-03-28T09:49:49.417Z</time></trkpt><trkpt lat="43.6360723" lon="11.3916845"><ele>727.0</ele><time>2026-03-28T09:49:51.417Z</time></trkpt><trkpt lat="43.6359918" lon="11.3916751"><ele>727.0</ele><time>2026-03-28T09:49:52.417Z</time></trkpt><trkpt lat="43.635925" lon="11.3916703"><ele>727.0</ele><time>2026-03-28T09:49:53.417Z</time></trkpt><trkpt lat="43.6358618" lon="11.3916805"><ele>727.0</ele><time>2026-03-28T09:49:54.417Z</time></trkpt><trkpt lat="43.6357663" lon="11.3917367"><ele>727.0</ele><time>2026-03-28T09:49:56.417Z</time></trkpt><trkpt lat="43.6356936" lon="11.391796"><ele>727.0</ele><time>2026-03-28T09:49:58.417Z</time></trkpt><trkpt lat="43.6356179" lon="11.3918259"><ele>727.0</ele><time>2026-03-28T09:50:00.417Z</time></trkpt><trkpt lat="43.6355126" lon="11.3918316"><ele>727.0</ele><time>2026-03-28T09:50:02.417Z</time></trkpt><trkpt lat="43.6354141" lon="11.3918304"><ele>727.0</ele><time>2026-03-28T09:50:04.417Z</time></trkpt><trkpt lat="43.6353132" lon="11.3918155"><ele>727.0</ele><time>2026-03-28T09:50:06.417Z</time></trkpt><trkpt lat="43.6352324" lon="11.3918013"><ele>727.0</ele><time>2026-03-28T09:50:07.417Z</time></trkpt><trkpt lat="43.63516" lon="11.3917844"><ele>727.0</ele><time>2026-03-28T09:50:08.417Z</time></trkpt><trkpt lat="43.635043" lon="11.3917575"><ele>727.6</ele><time>2026-03-28T09:50:10.417Z</time></trkpt><trkpt lat="43.6349403" lon="11.391675"><ele>728.2</ele><time>2026-03-28T09:50:12.417Z</time></trkpt><trkpt lat="43.6348613" lon="11.3915769"><ele>728.8</ele><time>2026-03-28T09:50:14.417Z</time></trkpt><trkpt lat="43.6347808" lon="11.3914885"><ele>729.4</ele><time>2026-03-28T09:50:16.417Z</time></trkpt><trkpt lat="43.6346844" lon="11.3914293"><ele>730.0</ele><time>2026-03-28T09:50:18.417Z</time></trkpt><trkpt lat="43.6345717" lon="11.3914379"><ele>728.0</ele><time>2026-03-28T09:50:20.417Z</time></trkpt><trkpt lat="43.6344514" lon="11.3914174"><ele>726.0</ele><time>2026-03-28T09:50:22.417Z</time></trkpt><trkpt lat="43.6343276" lon="11.3913907"><ele>724.0</ele><time>2026-03-28T09:50:24.417Z</time></trkpt><trkpt lat="43.6342274" lon="11.391368"><ele>722.0</ele><time>2026-03-28T09:50:26.417Z</time></trkpt><trkpt lat="43.6341319" lon="11.3913258"><ele>720.0</ele><time>2026-03-28T09:50:28.417Z</time></trkpt><trkpt lat="43.6340252" lon="11.3912709"><ele>721.1666666666666</ele><time>2026-03-28T09:50:30.417Z</time></trkpt><trkpt lat="43.633914" lon="11.3912282"><ele>722.3333333333334</ele><time>2026-03-28T09:50:32.417Z</time></trkpt><trkpt lat="43.6338454" lon="11.3912121"><ele>723.5</ele><time>2026-03-28T09:50:33.417Z</time></trkpt><trkpt lat="43.6337831" lon="11.3911985"><ele>724.6666666666667</ele><time>2026-03-28T09:50:34.417Z</time></trkpt><trkpt lat="43.633715" lon="11.3911733"><ele>725.8333333333334</ele><time>2026-03-28T09:50:35.417Z</time></trkpt><trkpt lat="43.6336014" lon="11.3911621"><ele>727.0</ele><time>2026-03-28T09:50:37.417Z</time></trkpt><trkpt lat="43.633486" lon="11.3911427"><ele>727.0</ele><time>2026-03-28T09:50:39.417Z</time></trkpt><trkpt lat="43.6333736" lon="11.3910969"><ele>727.0</ele><time>2026-03-28T09:50:41.417Z</time></trkpt><trkpt lat="43.6332813" lon="11.3910629"><ele>727.0</ele><time>2026-03-28T09:50:43.417Z</time></trkpt><trkpt lat="43.633182" lon="11.3910097"><ele>727.0</ele><time>2026-03-28T09:50:45.417Z</time></trkpt><trkpt lat="43.6330815" lon="11.3909551"><ele>727.0</ele><time>2026-03-28T09:50:47.417Z</time></trkpt><trkpt lat="43.6329939" lon="11.3908902"><ele>727.0</ele><time>2026-03-28T09:50:49.417Z</time></trkpt><trkpt lat="43.6329128" lon="11.3907998"><ele>727.0</ele><time>2026-03-28T09:50:51.417Z</time></trkpt><trkpt lat="43.6328605" lon="11.3907513"><ele>727.0</ele><time>2026-03-28T09:50:52.417Z</time></trkpt><trkpt lat="43.6327813" lon="11.3906686"><ele>727.0</ele><time>2026-03-28T09:50:54.417Z</time></trkpt><trkpt lat="43.6327287" lon="11.3906119"><ele>727.0</ele><time>2026-03-28T09:51:18.417Z</time></trkpt><trkpt lat="43.6326812" lon="11.3905514"><ele>727.0</ele><time>2026-03-28T09:51:27.417Z</time></trkpt><trkpt lat="43.6326415" lon="11.3904644"><ele>724.3333333333334</ele><time>2026-03-28T09:51:37.417Z</time></trkpt><trkpt lat="43.6325795" lon="11.3903752"><ele>721.6666666666667</ele><time>2026-03-28T09:51:40.417Z</time></trkpt><trkpt lat="43.6325229" lon="11.3903341"><ele>719.0</ele><time>2026-03-28T09:51:42.417Z</time></trkpt><trkpt lat="43.6324503" lon="11.3902888"><ele>716.3333333333334</ele><time>2026-03-28T09:51:44.417Z</time></trkpt><trkpt lat="43.6323684" lon="11.3902485"><ele>713.6666666666666</ele><time>2026-03-28T09:51:46.417Z</time></trkpt><trkpt lat="43.6323041" lon="11.3902068"><ele>711.0</ele><time>2026-03-28T09:51:48.417Z</time></trkpt><trkpt lat="43.6322455" lon="11.3901379"><ele>711.0</ele><time>2026-03-28T09:51:50.417Z</time></trkpt><trkpt lat="43.6321767" lon="11.3900458"><ele>711.0</ele><time>2026-03-28T09:51:53.417Z</time></trkpt><trkpt lat="43.6321509" lon="11.3899413"><ele>711.0</ele><time>2026-03-28T09:51:55.417Z</time></trkpt><trkpt lat="43.6321468" lon="11.3898368"><ele>711.0</ele><time>2026-03-28T09:51:57.417Z</time></trkpt><trkpt lat="43.6322029" lon="11.389697"><ele>711.0</ele><time>2026-03-28T09:51:59.417Z</time></trkpt><trkpt lat="43.63224" lon="11.389605"><ele>711.0</ele><time>2026-03-28T09:52:00.417Z</time></trkpt><trkpt lat="43.6322718" lon="11.3894823"><ele>710.4</ele><time>2026-03-28T09:52:02.417Z</time></trkpt><trkpt lat="43.6323233" lon="11.3893594"><ele>709.8</ele><time>2026-03-28T09:52:04.417Z</time></trkpt><trkpt lat="43.6324015" lon="11.3892627"><ele>709.1999999999999</ele><time>2026-03-28T09:52:06.417Z</time></trkpt><trkpt lat="43.6324966" lon="11.3891683"><ele>708.5999999999999</ele><time>2026-03-28T09:52:08.417Z</time></trkpt><trkpt lat="43.6325918" lon="11.3890845"><ele>708.0</ele><time>2026-03-28T09:52:10.417Z</time></trkpt><trkpt lat="43.6326772" lon="11.3890207"><ele>708.0</ele><time>2026-03-28T09:52:12.417Z</time></trkpt><trkpt lat="43.6327682" lon="11.3889885"><ele>708.0</ele><time>2026-03-28T09:52:14.417Z</time></trkpt><trkpt lat="43.6328811" lon="11.3889945"><ele>708.0</ele><time>2026-03-28T09:52:16.417Z</time></trkpt><trkpt lat="43.6329779" lon="11.3890186"><ele>708.0</ele><time>2026-03-28T09:52:18.417Z</time></trkpt><trkpt lat="43.633082" lon="11.3890331"><ele>708.0</ele><time>2026-03-28T09:52:20.417Z</time></trkpt><trkpt lat="43.6331628" lon="11.3890256"><ele>709.3333333333334</ele><time>2026-03-28T09:52:22.417Z</time></trkpt><trkpt lat="43.6332322" lon="11.3889946"><ele>710.6666666666666</ele><time>2026-03-28T09:52:24.417Z</time></trkpt><trkpt lat="43.6332646" lon="11.3888882"><ele>712.0</ele><time>2026-03-28T09:52:28.417Z</time></trkpt><trkpt lat="43.6332609" lon="11.3887635"><ele>713.3333333333333</ele><time>2026-03-28T09:52:31.417Z</time></trkpt><trkpt lat="43.6332444" lon="11.3886563"><ele>714.6666666666666</ele><time>2026-03-28T09:52:34.417Z</time></trkpt><trkpt lat="43.6332489" lon="11.3885653"><ele>716.0</ele><time>2026-03-28T09:52:37.417Z</time></trkpt><trkpt lat="43.6332354" lon="11.3884417"><ele>716.0</ele><time>2026-03-28T09:52:40.417Z</time></trkpt><trkpt lat="43.6332366" lon="11.3883137"><ele>716.0</ele><time>2026-03-28T09:52:43.417Z</time></trkpt><trkpt lat="43.6332226" lon="11.3882205"><ele>716.0</ele><time>2026-03-28T09:52:45.417Z</time></trkpt><trkpt lat="43.6332231" lon="11.3881097"><ele>716.0</ele><time>2026-03-28T09:52:48.417Z</time></trkpt><trkpt lat="43.6332227" lon="11.3880064"><ele>716.0</ele><time>2026-03-28T09:52:50.417Z</time></trkpt><trkpt lat="43.6332261" lon="11.3878967"><ele>716.0</ele><time>2026-03-28T09:52:52.417Z</time></trkpt><trkpt lat="43.6332343" lon="11.387741"><ele>714.6666666666666</ele><time>2026-03-28T09:52:54.417Z</time></trkpt><trkpt lat="43.6332524" lon="11.3876101"><ele>713.3333333333333</ele><time>2026-03-28T09:52:56.417Z</time></trkpt><trkpt lat="43.6332991" lon="11.3874901"><ele>712.0</ele><time>2026-03-28T09:52:58.417Z</time></trkpt><trkpt lat="43.6333495" lon="11.3874163"><ele>710.6666666666666</ele><time>2026-03-28T09:52:59.417Z</time></trkpt><trkpt lat="43.6333914" lon="11.3873479"><ele>709.3333333333334</ele><time>2026-03-28T09:53:00.417Z</time></trkpt><trkpt lat="43.6334379" lon="11.3872878"><ele>708.0</ele><time>2026-03-28T09:53:01.417Z</time></trkpt><trkpt lat="43.6335117" lon="11.3871744"><ele>710.2</ele><time>2026-03-28T09:53:03.417Z</time></trkpt><trkpt lat="43.63358" lon="11.3870641"><ele>712.4</ele><time>2026-03-28T09:53:05.417Z</time></trkpt><trkpt lat="43.6336589" lon="11.3869714"><ele>714.6</ele><time>2026-03-28T09:53:07.417Z</time></trkpt><trkpt lat="43.633725" lon="11.3868745"><ele>716.8000000000001</ele><time>2026-03-28T09:53:09.417Z</time></trkpt><trkpt lat="43.6337877" lon="11.3867577"><ele>719.0</ele><time>2026-03-28T09:53:11.417Z</time></trkpt><trkpt lat="43.6338659" lon="11.3866535"><ele>719.0</ele><time>2026-03-28T09:53:13.417Z</time></trkpt><trkpt lat="43.6339248" lon="11.386607"><ele>719.0</ele><time>2026-03-28T09:53:14.417Z</time></trkpt><trkpt lat="43.6340179" lon="11.3865054"><ele>719.0</ele><time>2026-03-28T09:53:16.417Z</time></trkpt><trkpt lat="43.6341258" lon="11.3864329"><ele>719.0</ele><time>2026-03-28T09:53:18.417Z</time></trkpt><trkpt lat="43.6342239" lon="11.3863619"><ele>719.0</ele><time>2026-03-28T09:53:20.417Z</time></trkpt><trkpt lat="43.6343125" lon="11.3863854"><ele>719.0</ele><time>2026-03-28T09:53:22.417Z</time></trkpt><trkpt lat="43.634392" lon="11.3864566"><ele>719.0</ele><time>2026-03-28T09:53:25.417Z</time></trkpt><trkpt lat="43.634458" lon="11.3865524"><ele>719.0</ele><time>2026-03-28T09:53:27.417Z</time></trkpt><trkpt lat="43.6345221" lon="11.3866284"><ele>719.0</ele><time>2026-03-28T09:53:29.417Z</time></trkpt><trkpt lat="43.6345866" lon="11.3866979"><ele>719.0</ele><time>2026-03-28T09:53:31.417Z</time></trkpt><trkpt lat="43.6346633" lon="11.3867482"><ele>719.0</ele><time>2026-03-28T09:53:33.417Z</time></trkpt><trkpt lat="43.6347298" lon="11.386784"><ele>720.8333333333333</ele><time>2026-03-28T09:53:35.417Z</time></trkpt><trkpt lat="43.6348281" lon="11.3867565"><ele>722.6666666666666</ele><time>2026-03-28T09:53:38.417Z</time></trkpt><trkpt lat="43.6348925" lon="11.3866947"><ele>724.5</ele><time>2026-03-28T09:53:40.417Z</time></trkpt><trkpt lat="43.6349517" lon="11.3866269"><ele>726.3333333333334</ele><time>2026-03-28T09:53:42.417Z</time></trkpt><trkpt lat="43.6350113" lon="11.386579"><ele>728.1666666666667</ele><time>2026-03-28T09:53:45.417Z</time></trkpt><trkpt lat="43.6350628" lon="11.3864887"><ele>730.0</ele><time>2026-03-28T09:53:48.417Z</time></trkpt><trkpt lat="43.6351105" lon="11.3864021"><ele>730.6666666666667</ele><time>2026-03-28T09:53:50.417Z</time></trkpt><trkpt lat="43.6351764" lon="11.386303"><ele>731.3333333333334</ele><time>2026-03-28T09:53:52.417Z</time></trkpt><trkpt lat="43.6352175" lon="11.3862037"><ele>732.0</ele><time>2026-03-28T09:53:55.417Z</time></trkpt><trkpt lat="43.6352512" lon="11.3861213"><ele>732.6666666666666</ele><time>2026-03-28T09:53:58.417Z</time></trkpt><trkpt lat="43.6353145" lon="11.3860392"><ele>733.3333333333333</ele><time>2026-03-28T09:54:01.417Z</time></trkpt><trkpt lat="43.6353683" lon="11.3859619"><ele>734.0</ele><time>2026-03-28T09:54:03.417Z</time></trkpt><trkpt lat="43.6354407" lon="11.3858643"><ele>734.0</ele><time>2026-03-28T09:54:05.417Z</time></trkpt><trkpt lat="43.635528" lon="11.3857453"><ele>734.0</ele><time>2026-03-28T09:54:07.417Z</time></trkpt><trkpt lat="43.6356113" lon="11.3856472"><ele>734.0</ele><time>2026-03-28T09:54:09.417Z</time></trkpt><trkpt lat="43.6356728" lon="11.3855558"><ele>734.0</ele><time>2026-03-28T09:54:11.417Z</time></trkpt><trkpt lat="43.6357258" lon="11.3854302"><ele>734.0</ele><time>2026-03-28T09:54:13.417Z</time></trkpt><trkpt lat="43.6357956" lon="11.3852936"><ele>731.2</ele><time>2026-03-28T09:54:15.417Z</time></trkpt><trkpt lat="43.6358277" lon="11.3852136"><ele>728.4000000000001</ele><time>2026-03-28T09:54:16.417Z</time></trkpt><trkpt lat="43.635859" lon="11.385073"><ele>725.6</ele><time>2026-03-28T09:54:18.417Z</time></trkpt><trkpt lat="43.6358958" lon="11.3849252"><ele>722.8</ele><time>2026-03-28T09:54:20.417Z</time></trkpt><trkpt lat="43.635944" lon="11.3848236"><ele>720.0</ele><time>2026-03-28T09:54:22.417Z</time></trkpt><trkpt lat="43.6359774" lon="11.3847259"><ele>721.0</ele><time>2026-03-28T09:54:24.417Z</time></trkpt><trkpt lat="43.6360274" lon="11.3846207"><ele>722.0</ele><time>2026-03-28T09:54:26.417Z</time></trkpt><trkpt lat="43.6360769" lon="11.3845629"><ele>723.0</ele><time>2026-03-28T09:54:27.417Z</time></trkpt><trkpt lat="43.6361531" lon="11.3844683"><ele>724.0</ele><time>2026-03-28T09:54:29.417Z</time></trkpt><trkpt lat="43.6362183" lon="11.384391"><ele>725.0</ele><time>2026-03-28T09:54:31.417Z</time></trkpt><trkpt lat="43.6362773" lon="11.384341"><ele>726.0</ele><time>2026-03-28T09:54:33.417Z</time></trkpt><trkpt lat="43.636357" lon="11.3842728"><ele>726.0</ele><time>2026-03-28T09:54:36.417Z</time></trkpt><trkpt lat="43.6364131" lon="11.3842301"><ele>726.0</ele><time>2026-03-28T09:54:38.417Z</time></trkpt><trkpt lat="43.6364923" lon="11.3841873"><ele>726.0</ele><time>2026-03-28T09:54:41.417Z</time></trkpt><trkpt lat="43.63658" lon="11.3841439"><ele>726.0</ele><time>2026-03-28T09:54:45.417Z</time></trkpt><trkpt lat="43.6366453" lon="11.3840862"><ele>726.0</ele><time>2026-03-28T09:54:48.417Z</time></trkpt><trkpt lat="43.6367109" lon="11.3840614"><ele>726.0</ele><time>2026-03-28T09:54:53.417Z</time></trkpt><trkpt lat="43.6367769" lon="11.3840322"><ele>726.0</ele><time>2026-03-28T09:54:57.417Z</time></trkpt><trkpt lat="43.6368608" lon="11.3840163"><ele>726.0</ele><time>2026-03-28T09:55:00.418Z</time></trkpt><trkpt lat="43.6369535" lon="11.3840046"><ele>726.0</ele><time>2026-03-28T09:55:03.417Z</time></trkpt><trkpt lat="43.6370253" lon="11.3839885"><ele>726.0</ele><time>2026-03-28T09:55:05.417Z</time></trkpt><trkpt lat="43.6370985" lon="11.3839578"><ele>726.0</ele><time>2026-03-28T09:55:07.417Z</time></trkpt><trkpt lat="43.6371618" lon="11.3839008"><ele>726.0</ele><time>2026-03-28T09:55:09.417Z</time></trkpt><trkpt lat="43.6372394" lon="11.3838612"><ele>722.0</ele><time>2026-03-28T09:55:11.417Z</time></trkpt><trkpt lat="43.6373241" lon="11.3838134"><ele>718.0</ele><time>2026-03-28T09:55:13.417Z</time></trkpt><trkpt lat="43.6373805" lon="11.3837716"><ele>714.0</ele><time>2026-03-28T09:55:15.417Z</time></trkpt><trkpt lat="43.6374691" lon="11.3837193"><ele>710.0</ele><time>2026-03-28T09:55:18.417Z</time></trkpt><trkpt lat="43.6375271" lon="11.3836729"><ele>706.0</ele><time>2026-03-28T09:55:20.417Z</time></trkpt><trkpt lat="43.6375918" lon="11.3836258"><ele>702.0</ele><time>2026-03-28T09:55:22.417Z</time></trkpt><trkpt lat="43.6376823" lon="11.3835729"><ele>702.0000000000001</ele><time>2026-03-28T09:55:25.417Z</time></trkpt><trkpt lat="43.6377588" lon="11.3835341"><ele>702.0</ele><time>2026-03-28T09:55:27.417Z</time></trkpt><trkpt lat="43.6378306" lon="11.3835207"><ele>702.0</ele><time>2026-03-28T09:55:29.417Z</time></trkpt><trkpt lat="43.6379141" lon="11.3835108"><ele>702.0</ele><time>2026-03-28T09:55:31.417Z</time></trkpt><trkpt lat="43.6379908" lon="11.3835023"><ele>702.0</ele><time>2026-03-28T09:55:33.417Z</time></trkpt><trkpt lat="43.6380541" lon="11.3835218"><ele>702.0000000000001</ele><time>2026-03-28T09:55:35.417Z</time></trkpt><trkpt lat="43.6381129" lon="11.3835629"><ele>702.0</ele><time>2026-03-28T09:55:37.417Z</time></trkpt><trkpt lat="43.6381845" lon="11.3835884"><ele>702.2</ele><time>2026-03-28T09:55:39.417Z</time></trkpt><trkpt lat="43.6382832" lon="11.3835828"><ele>702.4000000000001</ele><time>2026-03-28T09:55:42.417Z</time></trkpt><trkpt lat="43.6383724" lon="11.3835241"><ele>702.5999999999999</ele><time>2026-03-28T09:55:44.417Z</time></trkpt><trkpt lat="43.6384598" lon="11.3834959"><ele>702.8</ele><time>2026-03-28T09:55:46.417Z</time></trkpt><trkpt lat="43.638569" lon="11.3834658"><ele>703.0</ele><time>2026-03-28T09:55:48.417Z</time></trkpt><trkpt lat="43.6386822" lon="11.3834337"><ele>703.6666666666667</ele><time>2026-03-28T09:55:50.417Z</time></trkpt><trkpt lat="43.6388011" lon="11.3834337"><ele>704.3333333333334</ele><time>2026-03-28T09:55:52.417Z</time></trkpt><trkpt lat="43.6388654" lon="11.3834413"><ele>705.0</ele><time>2026-03-28T09:55:53.417Z</time></trkpt><trkpt lat="43.6389339" lon="11.3834383"><ele>705.6666666666666</ele><time>2026-03-28T09:55:55.418Z</time></trkpt><trkpt lat="43.6390056" lon="11.3834136"><ele>706.3333333333333</ele><time>2026-03-28T09:55:57.417Z</time></trkpt><trkpt lat="43.6390287" lon="11.3832955"><ele>707.0</ele><time>2026-03-28T09:56:00.417Z</time></trkpt><trkpt lat="43.6390223" lon="11.3831956"><ele>707.0</ele><time>2026-03-28T09:56:02.417Z</time></trkpt><trkpt lat="43.6389813" lon="11.3831219"><ele>707.0</ele><time>2026-03-28T09:56:05.417Z</time></trkpt><trkpt lat="43.6389147" lon="11.3830501"><ele>707.0</ele><time>2026-03-28T09:56:08.417Z</time></trkpt><trkpt lat="43.6388631" lon="11.3829726"><ele>707.0</ele><time>2026-03-28T09:56:10.417Z</time></trkpt><trkpt lat="43.6387872" lon="11.3828868"><ele>707.0</ele><time>2026-03-28T09:56:13.417Z</time></trkpt><trkpt lat="43.6387105" lon="11.3828075"><ele>707.0</ele><time>2026-03-28T09:56:16.417Z</time></trkpt><trkpt lat="43.6386497" lon="11.3827407"><ele>705.8</ele><time>2026-03-28T09:56:18.417Z</time></trkpt><trkpt lat="43.6385946" lon="11.3826397"><ele>704.6</ele><time>2026-03-28T09:56:20.417Z</time></trkpt><trkpt lat="43.6385451" lon="11.3825129"><ele>703.4</ele><time>2026-03-28T09:56:22.417Z</time></trkpt><trkpt lat="43.6385289" lon="11.3824129"><ele>702.1999999999999</ele><time>2026-03-28T09:56:23.417Z</time></trkpt><trkpt lat="43.6384789" lon="11.3822829"><ele>701.0</ele><time>2026-03-28T09:56:25.417Z</time></trkpt><trkpt lat="43.6384337" lon="11.3821829"><ele>702.1999999999999</ele><time>2026-03-28T09:56:27.417Z</time></trkpt><trkpt lat="43.6383605" lon="11.3820524"><ele>703.4</ele><time>2026-03-28T09:56:29.417Z</time></trkpt><trkpt lat="43.6382678" lon="11.3819357"><ele>704.6</ele><time>2026-03-28T09:56:31.417Z</time></trkpt><trkpt lat="43.6381909" lon="11.3818904"><ele>705.8</ele><time>2026-03-28T09:56:33.417Z</time></trkpt><trkpt lat="43.638108" lon="11.381859"><ele>707.0</ele><time>2026-03-28T09:56:36.417Z</time></trkpt><trkpt lat="43.6380384" lon="11.3818313"><ele>707.0</ele><time>2026-03-28T09:56:39.417Z</time></trkpt><trkpt lat="43.6379666" lon="11.3817833"><ele>707.0</ele><time>2026-03-28T09:56:41.417Z</time></trkpt><trkpt lat="43.6378551" lon="11.3816858"><ele>707.0</ele><time>2026-03-28T09:56:43.417Z</time></trkpt><trkpt lat="43.6378042" lon="11.3816345"><ele>707.0</ele><time>2026-03-28T09:56:44.417Z</time></trkpt><trkpt lat="43.6377744" lon="11.3814922"><ele>707.0</ele><time>2026-03-28T09:56:46.418Z</time></trkpt><trkpt lat="43.6377765" lon="11.3813686"><ele>706.3333333333333</ele><time>2026-03-28T09:56:48.417Z</time></trkpt><trkpt lat="43.6377571" lon="11.3811932"><ele>705.6666666666666</ele><time>2026-03-28T09:56:50.417Z</time></trkpt><trkpt lat="43.6377211" lon="11.3811118"><ele>705.0</ele><time>2026-03-28T09:56:51.417Z</time></trkpt><trkpt lat="43.6376917" lon="11.3810109"><ele>704.3333333333334</ele><time>2026-03-28T09:56:52.417Z</time></trkpt><trkpt lat="43.637656" lon="11.3809205"><ele>703.6666666666667</ele><time>2026-03-28T09:56:53.417Z</time></trkpt><trkpt lat="43.6376236" lon="11.3808298"><ele>703.0</ele><time>2026-03-28T09:56:54.417Z</time></trkpt><trkpt lat="43.6375809" lon="11.380731"><ele>703.0</ele><time>2026-03-28T09:56:56.417Z</time></trkpt><trkpt lat="43.6375364" lon="11.3806595"><ele>703.0</ele><time>2026-03-28T09:57:00.417Z</time></trkpt><trkpt lat="43.637519" lon="11.3805523"><ele>703.0</ele><time>2026-03-28T09:57:03.417Z</time></trkpt><trkpt lat="43.6375041" lon="11.380458"><ele>703.0</ele><time>2026-03-28T09:57:06.417Z</time></trkpt><trkpt lat="43.6374834" lon="11.3803701"><ele>703.0</ele><time>2026-03-28T09:57:08.417Z</time></trkpt><trkpt lat="43.6374493" lon="11.3802472"><ele>703.0</ele><time>2026-03-28T09:57:10.417Z</time></trkpt><trkpt lat="43.6373783" lon="11.3801224"><ele>704.1666666666667</ele><time>2026-03-28T09:57:12.417Z</time></trkpt><trkpt lat="43.6373429" lon="11.380011"><ele>705.3333333333334</ele><time>2026-03-28T09:57:14.417Z</time></trkpt><trkpt lat="43.6372838" lon="11.3799317"><ele>706.5</ele><time>2026-03-28T09:57:16.417Z</time></trkpt><trkpt lat="43.637198" lon="11.3798638"><ele>707.6666666666666</ele><time>2026-03-28T09:57:18.417Z</time></trkpt><trkpt lat="43.6371176" lon="11.3798006"><ele>708.8333333333333</ele><time>2026-03-28T09:57:20.417Z</time></trkpt><trkpt lat="43.637048" lon="11.3797608"><ele>710.0</ele><time>2026-03-28T09:57:22.417Z</time></trkpt><trkpt lat="43.6369881" lon="11.3797899"><ele>708.6666666666666</ele><time>2026-03-28T09:57:26.417Z</time></trkpt><trkpt lat="43.6369101" lon="11.3797571"><ele>707.3333333333333</ele><time>2026-03-28T09:57:29.417Z</time></trkpt><trkpt lat="43.6368536" lon="11.3796811"><ele>706.0</ele><time>2026-03-28T09:57:32.417Z</time></trkpt><trkpt lat="43.6368153" lon="11.3795956"><ele>704.6666666666666</ele><time>2026-03-28T09:57:36.417Z</time></trkpt><trkpt lat="43.6367852" lon="11.3794908"><ele>703.3333333333334</ele><time>2026-03-28T09:57:40.417Z</time></trkpt><trkpt lat="43.6367586" lon="11.3793791"><ele>702.0</ele><time>2026-03-28T09:57:43.417Z</time></trkpt><trkpt lat="43.6367387" lon="11.3792557"><ele>701.8333333333334</ele><time>2026-03-28T09:57:46.417Z</time></trkpt><trkpt lat="43.6367224" lon="11.3791457"><ele>701.6666666666666</ele><time>2026-03-28T09:57:50.417Z</time></trkpt><trkpt lat="43.6367034" lon="11.3790283"><ele>701.5</ele><time>2026-03-28T09:57:53.417Z</time></trkpt><trkpt lat="43.6367072" lon="11.3789309"><ele>701.3333333333333</ele><time>2026-03-28T09:57:55.417Z</time></trkpt><trkpt lat="43.6367344" lon="11.378795"><ele>701.1666666666666</ele><time>2026-03-28T09:57:57.418Z</time></trkpt><trkpt lat="43.6367667" lon="11.3786591"><ele>701.0</ele><time>2026-03-28T09:57:59.417Z</time></trkpt><trkpt lat="43.6367817" lon="11.3785235"><ele>700.8</ele><time>2026-03-28T09:58:01.417Z</time></trkpt><trkpt lat="43.6367663" lon="11.3783507"><ele>700.5999999999999</ele><time>2026-03-28T09:58:03.417Z</time></trkpt><trkpt lat="43.6367412" lon="11.3782694"><ele>700.4</ele><time>2026-03-28T09:58:04.417Z</time></trkpt><trkpt lat="43.6366746" lon="11.3781258"><ele>700.2</ele><time>2026-03-28T09:58:06.417Z</time></trkpt><trkpt lat="43.636599" lon="11.3780394"><ele>700.0</ele><time>2026-03-28T09:58:08.417Z</time></trkpt><trkpt lat="43.6365235" lon="11.3779865"><ele>701.5</ele><time>2026-03-28T09:58:10.417Z</time></trkpt><trkpt lat="43.6364375" lon="11.377919"><ele>703.0</ele><time>2026-03-28T09:58:12.417Z</time></trkpt><trkpt lat="43.6363735" lon="11.3778838"><ele>704.5</ele><time>2026-03-28T09:58:13.417Z</time></trkpt><trkpt lat="43.6363069" lon="11.3778516"><ele>706.0</ele><time>2026-03-28T09:58:14.417Z</time></trkpt><trkpt lat="43.6362351" lon="11.377813"><ele>707.5</ele><time>2026-03-28T09:58:15.417Z</time></trkpt><trkpt lat="43.6361727" lon="11.3777617"><ele>709.0</ele><time>2026-03-28T09:58:16.417Z</time></trkpt><trkpt lat="43.6360694" lon="11.3776701"><ele>705.2</ele><time>2026-03-28T09:58:18.417Z</time></trkpt><trkpt lat="43.635972" lon="11.3775972"><ele>701.4000000000001</ele><time>2026-03-28T09:58:20.417Z</time></trkpt><trkpt lat="43.6358828" lon="11.3775548"><ele>697.6</ele><time>2026-03-28T09:58:22.417Z</time></trkpt><trkpt lat="43.635821" lon="11.3774464"><ele>693.8</ele><time>2026-03-28T09:58:25.417Z</time></trkpt><trkpt lat="43.635791" lon="11.3773223"><ele>690.0</ele><time>2026-03-28T09:58:27.417Z</time></trkpt><trkpt lat="43.6357886" lon="11.3771826"><ele>690.0</ele><time>2026-03-28T09:58:29.417Z</time></trkpt><trkpt lat="43.6358093" lon="11.3770595"><ele>690.0</ele><time>2026-03-28T09:58:31.417Z</time></trkpt><trkpt lat="43.6358459" lon="11.3769812"><ele>690.0</ele><time>2026-03-28T09:58:33.417Z</time></trkpt><trkpt lat="43.6358839" lon="11.3769047"><ele>690.0</ele><time>2026-03-28T09:58:35.417Z</time></trkpt><trkpt lat="43.6359332" lon="11.3768032"><ele>690.0</ele><time>2026-03-28T09:58:37.417Z</time></trkpt><trkpt lat="43.6359554" lon="11.3766662"><ele>690.0</ele><time>2026-03-28T09:58:39.417Z</time></trkpt><trkpt lat="43.6359481" lon="11.3765335"><ele>690.0</ele><time>2026-03-28T09:58:41.417Z</time></trkpt><trkpt lat="43.6359237" lon="11.3764482"><ele>690.0</ele><time>2026-03-28T09:58:43.417Z</time></trkpt><trkpt lat="43.6358683" lon="11.3763994"><ele>690.0</ele><time>2026-03-28T09:58:45.417Z</time></trkpt><trkpt lat="43.6357956" lon="11.3763511"><ele>690.0</ele><time>2026-03-28T09:58:47.417Z</time></trkpt><trkpt lat="43.6356996" lon="11.3762709"><ele>690.0</ele><time>2026-03-28T09:58:49.417Z</time></trkpt><trkpt lat="43.6356071" lon="11.3761629"><ele>690.0</ele><time>2026-03-28T09:58:51.417Z</time></trkpt><trkpt lat="43.6355363" lon="11.3760623"><ele>690.2</ele><time>2026-03-28T09:58:53.417Z</time></trkpt><trkpt lat="43.6354931" lon="11.3759861"><ele>690.4</ele><time>2026-03-28T09:58:55.417Z</time></trkpt><trkpt lat="43.6354524" lon="11.3758863"><ele>690.5999999999999</ele><time>2026-03-28T09:58:57.417Z</time></trkpt><trkpt lat="43.6354131" lon="11.375755"><ele>690.8</ele><time>2026-03-28T09:58:59.417Z</time></trkpt><trkpt lat="43.6353959" lon="11.3756213"><ele>691.0</ele><time>2026-03-28T09:59:01.417Z</time></trkpt><trkpt lat="43.6354018" lon="11.3754674"><ele>690.5999999999999</ele><time>2026-03-28T09:59:03.417Z</time></trkpt><trkpt lat="43.6354189" lon="11.37531"><ele>690.2</ele><time>2026-03-28T09:59:05.417Z</time></trkpt><trkpt lat="43.6354454" lon="11.3751979"><ele>689.8</ele><time>2026-03-28T09:59:07.417Z</time></trkpt><trkpt lat="43.6354555" lon="11.3750621"><ele>689.4000000000001</ele><time>2026-03-28T09:59:09.417Z</time></trkpt><trkpt lat="43.6354301" lon="11.3749149"><ele>689.0</ele><time>2026-03-28T09:59:11.417Z</time></trkpt><trkpt lat="43.6353915" lon="11.3748075"><ele>689.0</ele><time>2026-03-28T09:59:13.417Z</time></trkpt><trkpt lat="43.6353558" lon="11.3747225"><ele>689.0</ele><time>2026-03-28T09:59:15.417Z</time></trkpt><trkpt lat="43.6353181" lon="11.3746453"><ele>689.0</ele><time>2026-03-28T09:59:17.417Z</time></trkpt><trkpt lat="43.6352719" lon="11.3745494"><ele>689.0</ele><time>2026-03-28T09:59:19.417Z</time></trkpt><trkpt lat="43.6352074" lon="11.3744293"><ele>689.0</ele><time>2026-03-28T09:59:21.417Z</time></trkpt><trkpt lat="43.6351501" lon="11.3742802"><ele>687.5</ele><time>2026-03-28T09:59:23.417Z</time></trkpt><trkpt lat="43.635126" lon="11.3741858"><ele>686.0</ele><time>2026-03-28T09:59:24.417Z</time></trkpt><trkpt lat="43.6351179" lon="11.3740481"><ele>684.5</ele><time>2026-03-28T09:59:26.417Z</time></trkpt><trkpt lat="43.6351458" lon="11.3739499"><ele>683.0</ele><time>2026-03-28T09:59:28.417Z</time></trkpt><trkpt lat="43.6351723" lon="11.3738698"><ele>681.5</ele><time>2026-03-28T09:59:30.417Z</time></trkpt><trkpt lat="43.6351401" lon="11.3737741"><ele>680.0</ele><time>2026-03-28T09:59:50.417Z</time></trkpt><trkpt lat="43.6350541" lon="11.3736939"><ele>680.0</ele><time>2026-03-28T09:59:52.417Z</time></trkpt><trkpt lat="43.6350057" lon="11.373634"><ele>680.0</ele><time>2026-03-28T09:59:53.417Z</time></trkpt><trkpt lat="43.6349451" lon="11.3735624"><ele>680.0</ele><time>2026-03-28T09:59:54.417Z</time></trkpt><trkpt lat="43.6348894" lon="11.3734828"><ele>680.0</ele><time>2026-03-28T09:59:55.417Z</time></trkpt><trkpt lat="43.634823" lon="11.3734028"><ele>680.0</ele><time>2026-03-28T09:59:56.417Z</time></trkpt><trkpt lat="43.6347573" lon="11.3733272"><ele>680.0</ele><time>2026-03-28T09:59:57.417Z</time></trkpt><trkpt lat="43.6346993" lon="11.3732666"><ele>680.0</ele><time>2026-03-28T09:59:58.417Z</time></trkpt><trkpt lat="43.6346429" lon="11.3732121"><ele>680.0</ele><time>2026-03-28T09:59:59.417Z</time></trkpt><trkpt lat="43.6345642" lon="11.3730851"><ele>680.0</ele><time>2026-03-28T10:00:01.417Z</time></trkpt><trkpt lat="43.6344974" lon="11.3729836"><ele>680.0</ele><time>2026-03-28T10:00:03.417Z</time></trkpt><trkpt lat="43.6344313" lon="11.3729156"><ele>680.0</ele><time>2026-03-28T10:00:05.417Z</time></trkpt><trkpt lat="43.6343712" lon="11.3728481"><ele>680.0</ele><time>2026-03-28T10:00:07.418Z</time></trkpt><trkpt lat="43.6343375" lon="11.3727496"><ele>683.8333333333333</ele><time>2026-03-28T10:00:09.419Z</time></trkpt><trkpt lat="43.6343097" lon="11.3725771"><ele>687.6666666666666</ele><time>2026-03-28T10:00:11.418Z</time></trkpt><trkpt lat="43.6342904" lon="11.3724879"><ele>691.5</ele><time>2026-03-28T10:00:12.418Z</time></trkpt><trkpt lat="43.6342725" lon="11.3723924"><ele>695.3333333333334</ele><time>2026-03-28T10:00:13.418Z</time></trkpt><trkpt lat="43.6342627" lon="11.3722999"><ele>699.1666666666667</ele><time>2026-03-28T10:00:14.418Z</time></trkpt><trkpt lat="43.6342431" lon="11.3721471"><ele>703.0</ele><time>2026-03-28T10:00:16.418Z</time></trkpt><trkpt lat="43.634237" lon="11.3720292"><ele>703.0</ele><time>2026-03-28T10:00:18.418Z</time></trkpt><trkpt lat="43.6341866" lon="11.3719313"><ele>703.0</ele><time>2026-03-28T10:00:20.418Z</time></trkpt><trkpt lat="43.6341348" lon="11.3718606"><ele>703.0</ele><time>2026-03-28T10:00:21.418Z</time></trkpt><trkpt lat="43.6340773" lon="11.3717665"><ele>703.0</ele><time>2026-03-28T10:00:22.418Z</time></trkpt><trkpt lat="43.6340281" lon="11.371668"><ele>703.0</ele><time>2026-03-28T10:00:23.418Z</time></trkpt><trkpt lat="43.6339865" lon="11.3715822"><ele>703.0</ele><time>2026-03-28T10:00:24.418Z</time></trkpt><trkpt lat="43.6339351" lon="11.3715273"><ele>703.0</ele><time>2026-03-28T10:00:25.418Z</time></trkpt><trkpt lat="43.6338649" lon="11.3714955"><ele>703.0</ele><time>2026-03-28T10:00:26.418Z</time></trkpt><trkpt lat="43.6337841" lon="11.3714741"><ele>703.0</ele><time>2026-03-28T10:00:27.418Z</time></trkpt><trkpt lat="43.6337061" lon="11.3714521"><ele>703.0</ele><time>2026-03-28T10:00:28.418Z</time></trkpt><trkpt lat="43.6336275" lon="11.3714254"><ele>703.0</ele><time>2026-03-28T10:00:29.418Z</time></trkpt><trkpt lat="43.6335527" lon="11.3714024"><ele>703.0</ele><time>2026-03-28T10:00:30.418Z</time></trkpt><trkpt lat="43.6334897" lon="11.3713783"><ele>703.2</ele><time>2026-03-28T10:00:31.418Z</time></trkpt><trkpt lat="43.6333959" lon="11.3713442"><ele>703.4</ele><time>2026-03-28T10:00:33.418Z</time></trkpt><trkpt lat="43.6333092" lon="11.3712945"><ele>703.6</ele><time>2026-03-28T10:00:35.418Z</time></trkpt><trkpt lat="43.6332422" lon="11.3712036"><ele>703.8000000000001</ele><time>2026-03-28T10:00:37.418Z</time></trkpt><trkpt lat="43.6331934" lon="11.3710705"><ele>704.0</ele><time>2026-03-28T10:00:39.418Z</time></trkpt><trkpt lat="43.633176" lon="11.3709398"><ele>704.0</ele><time>2026-03-28T10:00:41.418Z</time></trkpt><trkpt lat="43.6331767" lon="11.3708017"><ele>704.0</ele><time>2026-03-28T10:00:43.418Z</time></trkpt><trkpt lat="43.6331841" lon="11.3706902"><ele>704.0</ele><time>2026-03-28T10:00:45.418Z</time></trkpt><trkpt lat="43.6332244" lon="11.3706105"><ele>704.0</ele><time>2026-03-28T10:00:47.418Z</time></trkpt><trkpt lat="43.6332238" lon="11.3705218"><ele>704.0</ele><time>2026-03-28T10:00:57.418Z</time></trkpt><trkpt lat="43.6332212" lon="11.370426"><ele>704.0</ele><time>2026-03-28T10:00:59.418Z</time></trkpt><trkpt lat="43.6332104" lon="11.3703272"><ele>704.1428571428571</ele><time>2026-03-28T10:01:01.418Z</time></trkpt><trkpt lat="43.6331962" lon="11.3702376"><ele>704.2857142857142</ele><time>2026-03-28T10:01:03.418Z</time></trkpt><trkpt lat="43.6331835" lon="11.3701192"><ele>704.4285714285713</ele><time>2026-03-28T10:01:06.418Z</time></trkpt><trkpt lat="43.6331752" lon="11.3700289"><ele>704.5714285714286</ele><time>2026-03-28T10:01:08.418Z</time></trkpt><trkpt lat="43.6331786" lon="11.369918"><ele>704.7142857142857</ele><time>2026-03-28T10:01:12.418Z</time></trkpt><trkpt lat="43.6332067" lon="11.3698263"><ele>704.8571428571428</ele><time>2026-03-28T10:01:15.418Z</time></trkpt><trkpt lat="43.6332398" lon="11.3697325"><ele>705.0</ele><time>2026-03-28T10:01:23.418Z</time></trkpt><trkpt lat="43.6332167" lon="11.3696368"><ele>705.2</ele><time>2026-03-28T10:01:25.418Z</time></trkpt><trkpt lat="43.6331348" lon="11.3695122"><ele>705.4</ele><time>2026-03-28T10:01:27.418Z</time></trkpt><trkpt lat="43.6330836" lon="11.3694502"><ele>705.5999999999999</ele><time>2026-03-28T10:01:28.418Z</time></trkpt><trkpt lat="43.6330223" lon="11.369329"><ele>705.8</ele><time>2026-03-28T10:01:29.418Z</time></trkpt><trkpt lat="43.6329746" lon="11.3692092"><ele>706.0</ele><time>2026-03-28T10:01:31.418Z</time></trkpt><trkpt lat="43.6328746" lon="11.3691415"><ele>706.3333333333334</ele><time>2026-03-28T10:01:33.418Z</time></trkpt><trkpt lat="43.6327937" lon="11.3691113"><ele>706.6666666666667</ele><time>2026-03-28T10:01:35.418Z</time></trkpt><trkpt lat="43.6327385" lon="11.3690489"><ele>707.0</ele><time>2026-03-28T10:01:37.418Z</time></trkpt><trkpt lat="43.6326964" lon="11.3689654"><ele>707.3333333333334</ele><time>2026-03-28T10:01:39.418Z</time></trkpt><trkpt lat="43.6326906" lon="11.3688571"><ele>707.6666666666666</ele><time>2026-03-28T10:01:41.418Z</time></trkpt><trkpt lat="43.632704" lon="11.3687048"><ele>708.0</ele><time>2026-03-28T10:01:43.418Z</time></trkpt><trkpt lat="43.6327396" lon="11.368515"><ele>708.3333333333334</ele><time>2026-03-28T10:01:45.418Z</time></trkpt><trkpt lat="43.6327632" lon="11.3684204"><ele>708.6666666666666</ele><time>2026-03-28T10:01:46.418Z</time></trkpt><trkpt lat="43.6327857" lon="11.3683267"><ele>709.0</ele><time>2026-03-28T10:01:47.418Z</time></trkpt><trkpt lat="43.6327812" lon="11.3682319"><ele>709.3333333333333</ele><time>2026-03-28T10:01:48.418Z</time></trkpt><trkpt lat="43.6327681" lon="11.3681432"><ele>709.6666666666666</ele><time>2026-03-28T10:01:49.418Z</time></trkpt><trkpt lat="43.6327064" lon="11.3680053"><ele>710.0</ele><time>2026-03-28T10:01:51.418Z</time></trkpt><trkpt lat="43.6326564" lon="11.3679351"><ele>710.0</ele><time>2026-03-28T10:01:52.418Z</time></trkpt><trkpt lat="43.6325937" lon="11.3678688"><ele>710.0</ele><time>2026-03-28T10:01:53.418Z</time></trkpt><trkpt lat="43.6325349" lon="11.3678149"><ele>710.0</ele><time>2026-03-28T10:01:54.418Z</time></trkpt><trkpt lat="43.6324532" lon="11.3676857"><ele>710.0</ele><time>2026-03-28T10:01:56.418Z</time></trkpt><trkpt lat="43.6324153" lon="11.3676087"><ele>710.0</ele><time>2026-03-28T10:01:57.418Z</time></trkpt><trkpt lat="43.6323851" lon="11.3675314"><ele>710.0</ele><time>2026-03-28T10:01:58.418Z</time></trkpt><trkpt lat="43.6323549" lon="11.3673789"><ele>710.0</ele><time>2026-03-28T10:02:00.418Z</time></trkpt><trkpt lat="43.6323218" lon="11.3673"><ele>710.0</ele><time>2026-03-28T10:02:01.418Z</time></trkpt><trkpt lat="43.6322409" lon="11.3672202"><ele>710.0</ele><time>2026-03-28T10:02:02.418Z</time></trkpt><trkpt lat="43.6321527" lon="11.3671614"><ele>710.0</ele><time>2026-03-28T10:02:03.418Z</time></trkpt><trkpt lat="43.6320654" lon="11.3671218"><ele>710.0</ele><time>2026-03-28T10:02:04.418Z</time></trkpt><trkpt lat="43.6319957" lon="11.3671117"><ele>710.0</ele><time>2026-03-28T10:02:05.418Z</time></trkpt><trkpt lat="43.6319271" lon="11.3670935"><ele>709.6666666666666</ele><time>2026-03-28T10:02:06.418Z</time></trkpt><trkpt lat="43.6318378" lon="11.3670758"><ele>709.3333333333333</ele><time>2026-03-28T10:02:08.418Z</time></trkpt><trkpt lat="43.6317784" lon="11.3670425"><ele>709.0</ele><time>2026-03-28T10:02:15.418Z</time></trkpt><trkpt lat="43.6316952" lon="11.3670759"><ele>708.6666666666666</ele><time>2026-03-28T10:02:35.418Z</time></trkpt><trkpt lat="43.6316385" lon="11.3671245"><ele>708.3333333333334</ele><time>2026-03-28T10:02:36.419Z</time></trkpt><trkpt lat="43.6315779" lon="11.3671515"><ele>708.0</ele><time>2026-03-28T10:02:37.418Z</time></trkpt><trkpt lat="43.631493" lon="11.3671824"><ele>707.8</ele><time>2026-03-28T10:02:38.418Z</time></trkpt><trkpt lat="43.6313899" lon="11.3672152"><ele>707.5999999999999</ele><time>2026-03-28T10:02:39.418Z</time></trkpt><trkpt lat="43.6312899" lon="11.3672431"><ele>707.4000000000001</ele><time>2026-03-28T10:02:40.418Z</time></trkpt><trkpt lat="43.6311934" lon="11.3672756"><ele>707.2</ele><time>2026-03-28T10:02:41.418Z</time></trkpt><trkpt lat="43.6311046" lon="11.3672818"><ele>707.0</ele><time>2026-03-28T10:02:42.418Z</time></trkpt><trkpt lat="43.631027" lon="11.3672561"><ele>707.8</ele><time>2026-03-28T10:02:43.418Z</time></trkpt><trkpt lat="43.6309498" lon="11.3671985"><ele>708.6</ele><time>2026-03-28T10:02:44.418Z</time></trkpt><trkpt lat="43.6308717" lon="11.367128"><ele>709.4</ele><time>2026-03-28T10:02:45.419Z</time></trkpt><trkpt lat="43.6307934" lon="11.3670436"><ele>710.1999999999999</ele><time>2026-03-28T10:02:46.418Z</time></trkpt><trkpt lat="43.6307187" lon="11.3669709"><ele>711.0</ele><time>2026-03-28T10:02:47.418Z</time></trkpt><trkpt lat="43.6306435" lon="11.3668976"><ele>711.0</ele><time>2026-03-28T10:02:48.418Z</time></trkpt><trkpt lat="43.6305753" lon="11.3668484"><ele>711.0</ele><time>2026-03-28T10:02:49.418Z</time></trkpt><trkpt lat="43.6304989" lon="11.3668105"><ele>711.0</ele><time>2026-03-28T10:02:50.418Z</time></trkpt><trkpt lat="43.6304161" lon="11.3668003"><ele>711.0</ele><time>2026-03-28T10:02:51.418Z</time></trkpt><trkpt lat="43.6303343" lon="11.3668136"><ele>711.0</ele><time>2026-03-28T10:02:52.418Z</time></trkpt><trkpt lat="43.6302589" lon="11.3668388"><ele>711.0</ele><time>2026-03-28T10:02:53.418Z</time></trkpt><trkpt lat="43.6301953" lon="11.3668539"><ele>712.6666666666666</ele><time>2026-03-28T10:02:54.418Z</time></trkpt><trkpt lat="43.6300982" lon="11.366834"><ele>714.3333333333334</ele><time>2026-03-28T10:02:56.418Z</time></trkpt><trkpt lat="43.6299854" lon="11.366798"><ele>716.0</ele><time>2026-03-28T10:02:58.418Z</time></trkpt><trkpt lat="43.6299171" lon="11.3667608"><ele>717.6666666666667</ele><time>2026-03-28T10:02:59.418Z</time></trkpt><trkpt lat="43.6298515" lon="11.366712"><ele>719.3333333333334</ele><time>2026-03-28T10:03:00.418Z</time></trkpt><trkpt lat="43.6297934" lon="11.3666475"><ele>721.0</ele><time>2026-03-28T10:03:01.418Z</time></trkpt><trkpt lat="43.6297383" lon="11.3665805"><ele>721.0</ele><time>2026-03-28T10:03:02.418Z</time></trkpt><trkpt lat="43.6296798" lon="11.3665055"><ele>721.0</ele><time>2026-03-28T10:03:03.418Z</time></trkpt><trkpt lat="43.6296244" lon="11.3664384"><ele>721.0</ele><time>2026-03-28T10:03:04.418Z</time></trkpt><trkpt lat="43.6295672" lon="11.3663778"><ele>721.0</ele><time>2026-03-28T10:03:05.419Z</time></trkpt><trkpt lat="43.6295064" lon="11.3663375"><ele>721.0</ele><time>2026-03-28T10:03:06.418Z</time></trkpt><trkpt lat="43.6293865" lon="11.3662681"><ele>721.0</ele><time>2026-03-28T10:03:08.418Z</time></trkpt><trkpt lat="43.6293257" lon="11.3662238"><ele>720.5714285714286</ele><time>2026-03-28T10:03:09.418Z</time></trkpt><trkpt lat="43.6292735" lon="11.3661693"><ele>720.1428571428571</ele><time>2026-03-28T10:03:10.418Z</time></trkpt><trkpt lat="43.6292222" lon="11.3661067"><ele>719.7142857142858</ele><time>2026-03-28T10:03:11.418Z</time></trkpt><trkpt lat="43.6291742" lon="11.3660395"><ele>719.2857142857142</ele><time>2026-03-28T10:03:12.418Z</time></trkpt><trkpt lat="43.6291244" lon="11.3659723"><ele>718.8571428571429</ele><time>2026-03-28T10:03:13.418Z</time></trkpt><trkpt lat="43.6290697" lon="11.3659034"><ele>718.4285714285714</ele><time>2026-03-28T10:03:14.418Z</time></trkpt><trkpt lat="43.6290063" lon="11.3658306"><ele>718.0</ele><time>2026-03-28T10:03:15.418Z</time></trkpt><trkpt lat="43.6289438" lon="11.3657569"><ele>718.0</ele><time>2026-03-28T10:03:16.418Z</time></trkpt><trkpt lat="43.628878" lon="11.3656783"><ele>718.0</ele><time>2026-03-28T10:03:17.418Z</time></trkpt><trkpt lat="43.6288062" lon="11.3656027"><ele>718.0</ele><time>2026-03-28T10:03:18.418Z</time></trkpt><trkpt lat="43.628747" lon="11.3655354"><ele>718.0</ele><time>2026-03-28T10:03:19.418Z</time></trkpt><trkpt lat="43.6286862" lon="11.3654803"><ele>718.0</ele><time>2026-03-28T10:03:20.418Z</time></trkpt><trkpt lat="43.6286305" lon="11.3654214"><ele>718.0</ele><time>2026-03-28T10:03:21.418Z</time></trkpt><trkpt lat="43.6285721" lon="11.3653701"><ele>714.5999999999999</ele><time>2026-03-28T10:03:22.418Z</time></trkpt><trkpt lat="43.6284696" lon="11.3652779"><ele>711.1999999999999</ele><time>2026-03-28T10:03:24.418Z</time></trkpt><trkpt lat="43.6283917" lon="11.3651812"><ele>707.8</ele><time>2026-03-28T10:03:26.418Z</time></trkpt><trkpt lat="43.6282966" lon="11.3651312"><ele>704.4</ele><time>2026-03-28T10:03:28.418Z</time></trkpt><trkpt lat="43.6282104" lon="11.3651357"><ele>701.0</ele><time>2026-03-28T10:03:30.418Z</time></trkpt><trkpt lat="43.6281236" lon="11.3651299"><ele>701.0</ele><time>2026-03-28T10:03:32.418Z</time></trkpt><trkpt lat="43.6280678" lon="11.3650503"><ele>701.0</ele><time>2026-03-28T10:03:34.418Z</time></trkpt><trkpt lat="43.6280816" lon="11.3649322"><ele>701.0</ele><time>2026-03-28T10:03:36.418Z</time></trkpt><trkpt lat="43.6281249" lon="11.3647662"><ele>701.0</ele><time>2026-03-28T10:03:38.418Z</time></trkpt><trkpt lat="43.6281428" lon="11.3646815"><ele>701.0</ele><time>2026-03-28T10:03:39.418Z</time></trkpt><trkpt lat="43.628161" lon="11.364596"><ele>701.0</ele><time>2026-03-28T10:03:40.418Z</time></trkpt><trkpt lat="43.6281677" lon="11.3645018"><ele>699.8333333333333</ele><time>2026-03-28T10:03:41.418Z</time></trkpt><trkpt lat="43.628164" lon="11.3644067"><ele>698.6666666666666</ele><time>2026-03-28T10:03:42.418Z</time></trkpt><trkpt lat="43.6281367" lon="11.364311"><ele>697.5</ele><time>2026-03-28T10:03:43.418Z</time></trkpt><trkpt lat="43.6280953" lon="11.3642114"><ele>696.3333333333334</ele><time>2026-03-28T10:03:44.418Z</time></trkpt><trkpt lat="43.6280512" lon="11.3641161"><ele>695.1666666666667</ele><time>2026-03-28T10:03:45.418Z</time></trkpt><trkpt lat="43.6279984" lon="11.3640408"><ele>694.0</ele><time>2026-03-28T10:03:46.418Z</time></trkpt><trkpt lat="43.6279517" lon="11.3639764"><ele>694.0</ele><time>2026-03-28T10:03:47.418Z</time></trkpt><trkpt lat="43.6279052" lon="11.3639156"><ele>694.0</ele><time>2026-03-28T10:03:48.418Z</time></trkpt><trkpt lat="43.6277922" lon="11.3638566"><ele>694.0</ele><time>2026-03-28T10:03:50.418Z</time></trkpt><trkpt lat="43.6277208" lon="11.3638469"><ele>694.0</ele><time>2026-03-28T10:03:51.418Z</time></trkpt><trkpt lat="43.6276426" lon="11.3638575"><ele>694.0</ele><time>2026-03-28T10:03:52.418Z</time></trkpt><trkpt lat="43.6275621" lon="11.3638603"><ele>694.0</ele><time>2026-03-28T10:03:53.418Z</time></trkpt><trkpt lat="43.6274833" lon="11.3638578"><ele>691.0</ele><time>2026-03-28T10:03:54.418Z</time></trkpt><trkpt lat="43.6273985" lon="11.3638385"><ele>688.0</ele><time>2026-03-28T10:03:55.418Z</time></trkpt><trkpt lat="43.6273247" lon="11.3638252"><ele>685.0</ele><time>2026-03-28T10:03:56.418Z</time></trkpt><trkpt lat="43.627247" lon="11.3638209"><ele>682.0</ele><time>2026-03-28T10:03:57.418Z</time></trkpt><trkpt lat="43.6271818" lon="11.3637915"><ele>679.0</ele><time>2026-03-28T10:03:58.418Z</time></trkpt><trkpt lat="43.6271202" lon="11.3637575"><ele>676.0</ele><time>2026-03-28T10:03:59.418Z</time></trkpt><trkpt lat="43.6270636" lon="11.3637128"><ele>673.0</ele><time>2026-03-28T10:04:00.418Z</time></trkpt><trkpt lat="43.6269756" lon="11.3636126"><ele>668.8333333333334</ele><time>2026-03-28T10:04:02.418Z</time></trkpt><trkpt lat="43.6269049" lon="11.3634666"><ele>664.6666666666667</ele><time>2026-03-28T10:04:04.418Z</time></trkpt><trkpt lat="43.6268736" lon="11.3633862"><ele>660.5</ele><time>2026-03-28T10:04:05.418Z</time></trkpt><trkpt lat="43.626845" lon="11.3632995"><ele>656.3333333333334</ele><time>2026-03-28T10:04:06.418Z</time></trkpt><trkpt lat="43.6268176" lon="11.3632104"><ele>652.1666666666666</ele><time>2026-03-28T10:04:07.418Z</time></trkpt><trkpt lat="43.6267904" lon="11.3631256"><ele>648.0</ele><time>2026-03-28T10:04:08.418Z</time></trkpt><trkpt lat="43.6267613" lon="11.3630466"><ele>647.2</ele><time>2026-03-28T10:04:09.418Z</time></trkpt><trkpt lat="43.6267364" lon="11.3628802"><ele>646.4</ele><time>2026-03-28T10:04:11.418Z</time></trkpt><trkpt lat="43.6267538" lon="11.3626946"><ele>645.6</ele><time>2026-03-28T10:04:13.418Z</time></trkpt><trkpt lat="43.6267627" lon="11.3626068"><ele>644.8000000000001</ele><time>2026-03-28T10:04:14.418Z</time></trkpt><trkpt lat="43.6267589" lon="11.3625069"><ele>644.0</ele><time>2026-03-28T10:04:15.418Z</time></trkpt><trkpt lat="43.6267239" lon="11.362331"><ele>644.0</ele><time>2026-03-28T10:04:17.418Z</time></trkpt><trkpt lat="43.6266859" lon="11.3622496"><ele>644.0</ele><time>2026-03-28T10:04:18.418Z</time></trkpt><trkpt lat="43.6266531" lon="11.3621684"><ele>644.0</ele><time>2026-03-28T10:04:19.418Z</time></trkpt><trkpt lat="43.6266322" lon="11.3620181"><ele>644.0</ele><time>2026-03-28T10:04:21.418Z</time></trkpt><trkpt lat="43.6266766" lon="11.3618733"><ele>644.0</ele><time>2026-03-28T10:04:23.418Z</time></trkpt><trkpt lat="43.6267323" lon="11.3617287"><ele>642.6666666666666</ele><time>2026-03-28T10:04:25.418Z</time></trkpt><trkpt lat="43.6267701" lon="11.361597"><ele>641.3333333333333</ele><time>2026-03-28T10:04:27.418Z</time></trkpt><trkpt lat="43.6267694" lon="11.3614865"><ele>640.0</ele><time>2026-03-28T10:04:29.418Z</time></trkpt><trkpt lat="43.6267234" lon="11.3614118"><ele>638.6666666666666</ele><time>2026-03-28T10:04:31.418Z</time></trkpt><trkpt lat="43.626604" lon="11.36139"><ele>637.3333333333334</ele><time>2026-03-28T10:04:33.418Z</time></trkpt><trkpt lat="43.6265319" lon="11.3614039"><ele>636.0</ele><time>2026-03-28T10:04:34.418Z</time></trkpt><trkpt lat="43.6264243" lon="11.3614517"><ele>636.0</ele><time>2026-03-28T10:04:36.418Z</time></trkpt><trkpt lat="43.6263471" lon="11.3615594"><ele>636.0</ele><time>2026-03-28T10:04:38.418Z</time></trkpt><trkpt lat="43.6263093" lon="11.3616434"><ele>636.0</ele><time>2026-03-28T10:04:39.418Z</time></trkpt><trkpt lat="43.6262858" lon="11.361734"><ele>636.0</ele><time>2026-03-28T10:04:40.418Z</time></trkpt><trkpt lat="43.6262691" lon="11.3618384"><ele>636.0</ele><time>2026-03-28T10:04:41.418Z</time></trkpt><trkpt lat="43.6262658" lon="11.3619524"><ele>636.0</ele><time>2026-03-28T10:04:42.418Z</time></trkpt><trkpt lat="43.6262667" lon="11.3620648"><ele>636.0</ele><time>2026-03-28T10:04:43.418Z</time></trkpt><trkpt lat="43.6262645" lon="11.3621691"><ele>636.0</ele><time>2026-03-28T10:04:44.418Z</time></trkpt><trkpt lat="43.6262643" lon="11.3622719"><ele>636.0</ele><time>2026-03-28T10:04:45.418Z</time></trkpt><trkpt lat="43.6262479" lon="11.3624261"><ele>636.0</ele><time>2026-03-28T10:04:47.418Z</time></trkpt><trkpt lat="43.6261781" lon="11.3625114"><ele>636.0</ele><time>2026-03-28T10:04:49.418Z</time></trkpt><trkpt lat="43.6260894" lon="11.3624664"><ele>632.0</ele><time>2026-03-28T10:04:51.418Z</time></trkpt><trkpt lat="43.626058" lon="11.3623121"><ele>628.0</ele><time>2026-03-28T10:04:53.418Z</time></trkpt><trkpt lat="43.6260787" lon="11.3622227"><ele>624.0</ele><time>2026-03-28T10:04:54.418Z</time></trkpt><trkpt lat="43.6260932" lon="11.362133"><ele>620.0</ele><time>2026-03-28T10:04:55.418Z</time></trkpt><trkpt lat="43.6260927" lon="11.3620367"><ele>616.0</ele><time>2026-03-28T10:04:56.418Z</time></trkpt><trkpt lat="43.6260774" lon="11.361936"><ele>612.0</ele><time>2026-03-28T10:04:57.418Z</time></trkpt><trkpt lat="43.6260484" lon="11.3618338"><ele>611.6</ele><time>2026-03-28T10:04:58.418Z</time></trkpt><trkpt lat="43.6260045" lon="11.3617263"><ele>611.2</ele><time>2026-03-28T10:04:59.418Z</time></trkpt><trkpt lat="43.6259524" lon="11.3616278"><ele>610.8</ele><time>2026-03-28T10:05:00.418Z</time></trkpt><trkpt lat="43.6258887" lon="11.3615356"><ele>610.4</ele><time>2026-03-28T10:05:01.418Z</time></trkpt><trkpt lat="43.6258127" lon="11.3614413"><ele>610.0</ele><time>2026-03-28T10:05:02.418Z</time></trkpt><trkpt lat="43.6257337" lon="11.361353"><ele>608.6</ele><time>2026-03-28T10:05:03.418Z</time></trkpt><trkpt lat="43.6256516" lon="11.3612667"><ele>607.2</ele><time>2026-03-28T10:05:04.418Z</time></trkpt><trkpt lat="43.6255817" lon="11.3611827"><ele>605.8</ele><time>2026-03-28T10:05:05.418Z</time></trkpt><trkpt lat="43.6254994" lon="11.3610996"><ele>604.4</ele><time>2026-03-28T10:05:06.418Z</time></trkpt><trkpt lat="43.6254153" lon="11.3610264"><ele>603.0</ele><time>2026-03-28T10:05:07.418Z</time></trkpt><trkpt lat="43.6253359" lon="11.3609463"><ele>599.4</ele><time>2026-03-28T10:05:08.418Z</time></trkpt><trkpt lat="43.6252588" lon="11.3608604"><ele>595.8</ele><time>2026-03-28T10:05:09.418Z</time></trkpt><trkpt lat="43.6251826" lon="11.3607803"><ele>592.2</ele><time>2026-03-28T10:05:10.418Z</time></trkpt><trkpt lat="43.6251082" lon="11.360708"><ele>588.6</ele><time>2026-03-28T10:05:11.418Z</time></trkpt><trkpt lat="43.625026" lon="11.3606381"><ele>585.0</ele><time>2026-03-28T10:05:12.418Z</time></trkpt><trkpt lat="43.6249417" lon="11.3605735"><ele>584.6666666666666</ele><time>2026-03-28T10:05:13.418Z</time></trkpt><trkpt lat="43.6248677" lon="11.3605054"><ele>584.3333333333334</ele><time>2026-03-28T10:05:14.418Z</time></trkpt><trkpt lat="43.6248006" lon="11.3604481"><ele>584.0</ele><time>2026-03-28T10:05:15.418Z</time></trkpt><trkpt lat="43.6247392" lon="11.3603978"><ele>583.6666666666667</ele><time>2026-03-28T10:05:16.418Z</time></trkpt><trkpt lat="43.6246667" lon="11.3603507"><ele>583.3333333333334</ele><time>2026-03-28T10:05:17.418Z</time></trkpt><trkpt lat="43.624588" lon="11.3603098"><ele>583.0</ele><time>2026-03-28T10:05:18.418Z</time></trkpt><trkpt lat="43.6245062" lon="11.360268"><ele>581.0</ele><time>2026-03-28T10:05:19.418Z</time></trkpt><trkpt lat="43.6244158" lon="11.3602305"><ele>579.0</ele><time>2026-03-28T10:05:20.418Z</time></trkpt><trkpt lat="43.6243275" lon="11.3601974"><ele>577.0</ele><time>2026-03-28T10:05:21.418Z</time></trkpt><trkpt lat="43.6242545" lon="11.3601651"><ele>575.0</ele><time>2026-03-28T10:05:22.418Z</time></trkpt><trkpt lat="43.6241467" lon="11.3601242"><ele>573.0</ele><time>2026-03-28T10:05:24.418Z</time></trkpt><trkpt lat="43.6240711" lon="11.3600069"><ele>573.0</ele><time>2026-03-28T10:05:26.418Z</time></trkpt><trkpt lat="43.6240482" lon="11.3599217"><ele>573.0</ele><time>2026-03-28T10:05:27.418Z</time></trkpt><trkpt lat="43.6240438" lon="11.3597379"><ele>573.0</ele><time>2026-03-28T10:05:29.418Z</time></trkpt><trkpt lat="43.624048" lon="11.3595818"><ele>573.0</ele><time>2026-03-28T10:05:31.418Z</time></trkpt><trkpt lat="43.6239962" lon="11.3594667"><ele>573.0</ele><time>2026-03-28T10:05:33.418Z</time></trkpt><trkpt lat="43.6238863" lon="11.3594661"><ele>571.5714285714286</ele><time>2026-03-28T10:05:35.418Z</time></trkpt><trkpt lat="43.623826" lon="11.3594993"><ele>570.1428571428572</ele><time>2026-03-28T10:05:36.418Z</time></trkpt><trkpt lat="43.6237582" lon="11.3595398"><ele>568.7142857142858</ele><time>2026-03-28T10:05:37.418Z</time></trkpt><trkpt lat="43.6236934" lon="11.3595894"><ele>567.2857142857143</ele><time>2026-03-28T10:05:38.418Z</time></trkpt><trkpt lat="43.6236278" lon="11.3596416"><ele>565.8571428571429</ele><time>2026-03-28T10:05:39.418Z</time></trkpt><trkpt lat="43.6235569" lon="11.3596913"><ele>564.4285714285714</ele><time>2026-03-28T10:05:40.418Z</time></trkpt><trkpt lat="43.6234879" lon="11.3597432"><ele>563.0</ele><time>2026-03-28T10:05:41.418Z</time></trkpt><trkpt lat="43.6234123" lon="11.3597908"><ele>561.6666666666666</ele><time>2026-03-28T10:05:42.418Z</time></trkpt><trkpt lat="43.6233322" lon="11.3598293"><ele>560.3333333333333</ele><time>2026-03-28T10:05:43.419Z</time></trkpt><trkpt lat="43.6232479" lon="11.3598598"><ele>559.0</ele><time>2026-03-28T10:05:44.418Z</time></trkpt><trkpt lat="43.6231648" lon="11.3598776"><ele>557.6666666666666</ele><time>2026-03-28T10:05:45.418Z</time></trkpt><trkpt lat="43.6230831" lon="11.3598826"><ele>556.3333333333334</ele><time>2026-03-28T10:05:46.418Z</time></trkpt><trkpt lat="43.6230044" lon="11.3598835"><ele>555.0</ele><time>2026-03-28T10:05:47.418Z</time></trkpt><trkpt lat="43.6229262" lon="11.3598843"><ele>555.0</ele><time>2026-03-28T10:05:48.418Z</time></trkpt><trkpt lat="43.6228522" lon="11.3598939"><ele>555.0</ele><time>2026-03-28T10:05:49.418Z</time></trkpt><trkpt lat="43.6227787" lon="11.3599297"><ele>555.0</ele><time>2026-03-28T10:05:50.418Z</time></trkpt><trkpt lat="43.6227077" lon="11.3599841"><ele>555.0</ele><time>2026-03-28T10:05:51.418Z</time></trkpt><trkpt lat="43.6226361" lon="11.3600571"><ele>555.0</ele><time>2026-03-28T10:05:52.418Z</time></trkpt><trkpt lat="43.6225587" lon="11.360139"><ele>555.0</ele><time>2026-03-28T10:05:53.418Z</time></trkpt><trkpt lat="43.6224771" lon="11.3602169"><ele>552.4</ele><time>2026-03-28T10:05:54.418Z</time></trkpt><trkpt lat="43.6223939" lon="11.3603022"><ele>549.8</ele><time>2026-03-28T10:05:55.418Z</time></trkpt><trkpt lat="43.6223124" lon="11.3603873"><ele>547.2</ele><time>2026-03-28T10:05:56.418Z</time></trkpt><trkpt lat="43.6222314" lon="11.3604721"><ele>544.6</ele><time>2026-03-28T10:05:57.418Z</time></trkpt><trkpt lat="43.6221438" lon="11.3605644"><ele>542.0</ele><time>2026-03-28T10:05:58.418Z</time></trkpt><trkpt lat="43.6220576" lon="11.3606518"><ele>539.8000000000001</ele><time>2026-03-28T10:05:59.418Z</time></trkpt><trkpt lat="43.6219617" lon="11.3607246"><ele>537.6</ele><time>2026-03-28T10:06:00.418Z</time></trkpt><trkpt lat="43.6218741" lon="11.3608049"><ele>535.4000000000001</ele><time>2026-03-28T10:06:01.418Z</time></trkpt><trkpt lat="43.6217872" lon="11.3608894"><ele>533.2</ele><time>2026-03-28T10:06:02.418Z</time></trkpt><trkpt lat="43.6217018" lon="11.3609683"><ele>531.0</ele><time>2026-03-28T10:06:03.418Z</time></trkpt><trkpt lat="43.6216224" lon="11.3610171"><ele>531.0</ele><time>2026-03-28T10:06:04.418Z</time></trkpt><trkpt lat="43.6215438" lon="11.3610406"><ele>531.0</ele><time>2026-03-28T10:06:05.418Z</time></trkpt><trkpt lat="43.6214626" lon="11.3610362"><ele>531.0</ele><time>2026-03-28T10:06:06.418Z</time></trkpt><trkpt lat="43.6213748" lon="11.3610316"><ele>531.0</ele><time>2026-03-28T10:06:07.418Z</time></trkpt><trkpt lat="43.6212897" lon="11.3610071"><ele>531.0</ele><time>2026-03-28T10:06:08.418Z</time></trkpt><trkpt lat="43.6212071" lon="11.3609839"><ele>531.0</ele><time>2026-03-28T10:06:09.418Z</time></trkpt><trkpt lat="43.6211344" lon="11.3609561"><ele>530.5</ele><time>2026-03-28T10:06:10.418Z</time></trkpt><trkpt lat="43.6210654" lon="11.3609252"><ele>530.0</ele><time>2026-03-28T10:06:11.418Z</time></trkpt><trkpt lat="43.6209966" lon="11.3608935"><ele>529.5</ele><time>2026-03-28T10:06:12.418Z</time></trkpt><trkpt lat="43.6209248" lon="11.3608642"><ele>529.0</ele><time>2026-03-28T10:06:13.418Z</time></trkpt><trkpt lat="43.6208468" lon="11.3608557"><ele>528.5</ele><time>2026-03-28T10:06:14.418Z</time></trkpt><trkpt lat="43.6207481" lon="11.3608482"><ele>528.0</ele><time>2026-03-28T10:06:15.418Z</time></trkpt><trkpt lat="43.6206266" lon="11.3608404"><ele>528.0</ele><time>2026-03-28T10:06:16.418Z</time></trkpt><trkpt lat="43.6205039" lon="11.3608361"><ele>528.0</ele><time>2026-03-28T10:06:17.419Z</time></trkpt><trkpt lat="43.620391" lon="11.3608225"><ele>528.0</ele><time>2026-03-28T10:06:18.418Z</time></trkpt><trkpt lat="43.6202908" lon="11.3608176"><ele>528.0</ele><time>2026-03-28T10:06:19.418Z</time></trkpt><trkpt lat="43.620192" lon="11.3608018"><ele>528.0</ele><time>2026-03-28T10:06:20.418Z</time></trkpt><trkpt lat="43.6200939" lon="11.3607779"><ele>528.1999999999999</ele><time>2026-03-28T10:06:21.418Z</time></trkpt><trkpt lat="43.6199906" lon="11.3607533"><ele>528.4</ele><time>2026-03-28T10:06:22.418Z</time></trkpt><trkpt lat="43.6198938" lon="11.360714"><ele>528.5999999999999</ele><time>2026-03-28T10:06:23.418Z</time></trkpt><trkpt lat="43.6198002" lon="11.3606619"><ele>528.8</ele><time>2026-03-28T10:06:24.418Z</time></trkpt><trkpt lat="43.619713" lon="11.3605901"><ele>529.0</ele><time>2026-03-28T10:06:25.418Z</time></trkpt><trkpt lat="43.6196243" lon="11.360506"><ele>524.2</ele><time>2026-03-28T10:06:26.418Z</time></trkpt><trkpt lat="43.6195285" lon="11.3604504"><ele>519.4</ele><time>2026-03-28T10:06:27.418Z</time></trkpt><trkpt lat="43.6194386" lon="11.360398"><ele>514.6</ele><time>2026-03-28T10:06:28.418Z</time></trkpt><trkpt lat="43.6193376" lon="11.3603571"><ele>509.8</ele><time>2026-03-28T10:06:29.418Z</time></trkpt><trkpt lat="43.6192362" lon="11.3603147"><ele>505.0</ele><time>2026-03-28T10:06:30.418Z</time></trkpt><trkpt lat="43.6191253" lon="11.3602721"><ele>505.0</ele><time>2026-03-28T10:06:31.418Z</time></trkpt><trkpt lat="43.6190134" lon="11.3602194"><ele>505.0</ele><time>2026-03-28T10:06:32.419Z</time></trkpt><trkpt lat="43.6189068" lon="11.3601473"><ele>505.0</ele><time>2026-03-28T10:06:33.418Z</time></trkpt><trkpt lat="43.6188124" lon="11.3600763"><ele>505.0</ele><time>2026-03-28T10:06:34.418Z</time></trkpt><trkpt lat="43.6187138" lon="11.3600131"><ele>505.4</ele><time>2026-03-28T10:06:35.418Z</time></trkpt><trkpt lat="43.6186185" lon="11.3599368"><ele>505.8</ele><time>2026-03-28T10:06:36.419Z</time></trkpt><trkpt lat="43.6185327" lon="11.3598622"><ele>506.20000000000005</ele><time>2026-03-28T10:06:37.418Z</time></trkpt><trkpt lat="43.6184536" lon="11.3597784"><ele>506.6</ele><time>2026-03-28T10:06:38.418Z</time></trkpt><trkpt lat="43.618371" lon="11.3596838"><ele>507.0</ele><time>2026-03-28T10:06:39.418Z</time></trkpt><trkpt lat="43.6182938" lon="11.3595925"><ele>503.0</ele><time>2026-03-28T10:06:40.418Z</time></trkpt><trkpt lat="43.6182193" lon="11.3595013"><ele>499.00000000000006</ele><time>2026-03-28T10:06:41.418Z</time></trkpt><trkpt lat="43.6181524" lon="11.3594195"><ele>495.00000000000006</ele><time>2026-03-28T10:06:42.418Z</time></trkpt><trkpt lat="43.6180961" lon="11.3593584"><ele>491.0</ele><time>2026-03-28T10:06:43.418Z</time></trkpt><trkpt lat="43.618006" lon="11.3592658"><ele>487.0</ele><time>2026-03-28T10:06:45.418Z</time></trkpt><trkpt lat="43.6179553" lon="11.3591834"><ele>487.0</ele><time>2026-03-28T10:06:47.418Z</time></trkpt><trkpt lat="43.6178724" lon="11.3591551"><ele>487.00000000000006</ele><time>2026-03-28T10:09:09.418Z</time></trkpt><trkpt lat="43.6177774" lon="11.3592413"><ele>487.00000000000006</ele><time>2026-03-28T10:09:11.418Z</time></trkpt><trkpt lat="43.617704" lon="11.359275"><ele>487.0</ele><time>2026-03-28T10:09:12.418Z</time></trkpt><trkpt lat="43.6176128" lon="11.3592912"><ele>487.0</ele><time>2026-03-28T10:09:13.418Z</time></trkpt><trkpt lat="43.617514" lon="11.3592549"><ele>487.75</ele><time>2026-03-28T10:09:14.418Z</time></trkpt><trkpt lat="43.6174277" lon="11.35914"><ele>488.5</ele><time>2026-03-28T10:09:15.418Z</time></trkpt><trkpt lat="43.6173554" lon="11.3589969"><ele>489.25</ele><time>2026-03-28T10:09:16.418Z</time></trkpt><trkpt lat="43.6172801" lon="11.3588525"><ele>490.0</ele><time>2026-03-28T10:09:17.418Z</time></trkpt><trkpt lat="43.6172072" lon="11.3587261"><ele>490.2</ele><time>2026-03-28T10:09:18.418Z</time></trkpt><trkpt lat="43.6171355" lon="11.3586055"><ele>490.4</ele><time>2026-03-28T10:09:19.418Z</time></trkpt><trkpt lat="43.6170642" lon="11.3584873"><ele>490.6</ele><time>2026-03-28T10:09:20.418Z</time></trkpt><trkpt lat="43.616995" lon="11.3583751"><ele>490.8</ele><time>2026-03-28T10:09:21.418Z</time></trkpt><trkpt lat="43.6169286" lon="11.3582669"><ele>491.0</ele><time>2026-03-28T10:09:22.418Z</time></trkpt><trkpt lat="43.6168641" lon="11.3581571"><ele>492.0</ele><time>2026-03-28T10:09:23.418Z</time></trkpt><trkpt lat="43.6168021" lon="11.3580505"><ele>493.0</ele><time>2026-03-28T10:09:24.418Z</time></trkpt><trkpt lat="43.616739" lon="11.3579561"><ele>494.0</ele><time>2026-03-28T10:09:25.418Z</time></trkpt><trkpt lat="43.6166814" lon="11.3578711"><ele>495.0</ele><time>2026-03-28T10:09:26.418Z</time></trkpt><trkpt lat="43.616611" lon="11.3578154"><ele>496.0</ele><time>2026-03-28T10:09:27.418Z</time></trkpt><trkpt lat="43.6165194" lon="11.357787"><ele>496.0</ele><time>2026-03-28T10:09:28.418Z</time></trkpt><trkpt lat="43.616409" lon="11.3578035"><ele>496.0</ele><time>2026-03-28T10:09:29.418Z</time></trkpt><trkpt lat="43.6162842" lon="11.3578914"><ele>496.0</ele><time>2026-03-28T10:09:30.418Z</time></trkpt><trkpt lat="43.6161622" lon="11.3579939"><ele>496.0</ele><time>2026-03-28T10:09:31.418Z</time></trkpt><trkpt lat="43.6160396" lon="11.3580233"><ele>491.6</ele><time>2026-03-28T10:09:32.418Z</time></trkpt><trkpt lat="43.6159468" lon="11.358043"><ele>487.20000000000005</ele><time>2026-03-28T10:09:33.418Z</time></trkpt><trkpt lat="43.615841" lon="11.358093"><ele>482.79999999999995</ele><time>2026-03-28T10:09:34.418Z</time></trkpt><trkpt lat="43.6157308" lon="11.3581405"><ele>478.4</ele><time>2026-03-28T10:09:35.419Z</time></trkpt><trkpt lat="43.6156287" lon="11.3581632"><ele>474.0</ele><time>2026-03-28T10:09:36.418Z</time></trkpt><trkpt lat="43.6155132" lon="11.3581629"><ele>474.0</ele><time>2026-03-28T10:09:37.418Z</time></trkpt><trkpt lat="43.6153906" lon="11.3581462"><ele>474.0</ele><time>2026-03-28T10:09:38.418Z</time></trkpt><trkpt lat="43.6152697" lon="11.3581667"><ele>474.0</ele><time>2026-03-28T10:09:39.418Z</time></trkpt><trkpt lat="43.6151552" lon="11.3582285"><ele>474.0</ele><time>2026-03-28T10:09:40.418Z</time></trkpt><trkpt lat="43.6150528" lon="11.3582949"><ele>474.5</ele><time>2026-03-28T10:09:41.418Z</time></trkpt><trkpt lat="43.6149575" lon="11.3583499"><ele>475.0</ele><time>2026-03-28T10:09:42.418Z</time></trkpt><trkpt lat="43.6148303" lon="11.358362"><ele>475.5</ele><time>2026-03-28T10:09:43.418Z</time></trkpt><trkpt lat="43.6146998" lon="11.3583555"><ele>476.0</ele><time>2026-03-28T10:09:44.418Z</time></trkpt><trkpt lat="43.6145791" lon="11.3583378"><ele>475.25</ele><time>2026-03-28T10:09:45.418Z</time></trkpt><trkpt lat="43.6144628" lon="11.3583283"><ele>474.5</ele><time>2026-03-28T10:09:46.418Z</time></trkpt><trkpt lat="43.614349" lon="11.3583255"><ele>473.75</ele><time>2026-03-28T10:09:47.418Z</time></trkpt><trkpt lat="43.6142339" lon="11.3583242"><ele>473.0</ele><time>2026-03-28T10:09:48.418Z</time></trkpt><trkpt lat="43.6141152" lon="11.3583173"><ele>473.0</ele><time>2026-03-28T10:09:49.418Z</time></trkpt><trkpt lat="43.6139985" lon="11.3583113"><ele>472.99999999999994</ele><time>2026-03-28T10:09:50.418Z</time></trkpt><trkpt lat="43.6138898" lon="11.3583016"><ele>472.99999999999994</ele><time>2026-03-28T10:09:51.418Z</time></trkpt><trkpt lat="43.6137869" lon="11.3583045"><ele>473.0</ele><time>2026-03-28T10:09:52.418Z</time></trkpt><trkpt lat="43.6136778" lon="11.3583117"><ele>473.0</ele><time>2026-03-28T10:09:53.418Z</time></trkpt><trkpt lat="43.6135758" lon="11.358366"><ele>475.0</ele><time>2026-03-28T10:09:54.418Z</time></trkpt><trkpt lat="43.613499" lon="11.3584909"><ele>477.0</ele><time>2026-03-28T10:09:55.418Z</time></trkpt><trkpt lat="43.6134191" lon="11.3586156"><ele>479.0</ele><time>2026-03-28T10:09:56.418Z</time></trkpt><trkpt lat="43.613337" lon="11.358745"><ele>481.0</ele><time>2026-03-28T10:09:57.418Z</time></trkpt><trkpt lat="43.613245" lon="11.3588562"><ele>475.5</ele><time>2026-03-28T10:09:58.418Z</time></trkpt><trkpt lat="43.6131509" lon="11.3589688"><ele>470.0</ele><time>2026-03-28T10:09:59.418Z</time></trkpt><trkpt lat="43.6130491" lon="11.359074"><ele>464.5</ele><time>2026-03-28T10:10:00.418Z</time></trkpt><trkpt lat="43.6129542" lon="11.359175"><ele>459.0</ele><time>2026-03-28T10:10:01.418Z</time></trkpt><trkpt lat="43.6128583" lon="11.3592759"><ele>463.25</ele><time>2026-03-28T10:10:02.418Z</time></trkpt><trkpt lat="43.6127569" lon="11.3593744"><ele>467.5</ele><time>2026-03-28T10:10:03.418Z</time></trkpt><trkpt lat="43.6126408" lon="11.3594654"><ele>471.75</ele><time>2026-03-28T10:10:04.418Z</time></trkpt><trkpt lat="43.612512" lon="11.3595326"><ele>476.0</ele><time>2026-03-28T10:10:05.418Z</time></trkpt><trkpt lat="43.6123875" lon="11.3595939"><ele>476.0</ele><time>2026-03-28T10:10:06.418Z</time></trkpt><trkpt lat="43.6122767" lon="11.3596666"><ele>476.0</ele><time>2026-03-28T10:10:07.418Z</time></trkpt><trkpt lat="43.6121675" lon="11.3597558"><ele>476.0</ele><time>2026-03-28T10:10:08.418Z</time></trkpt><trkpt lat="43.6120576" lon="11.3598462"><ele>476.0</ele><time>2026-03-28T10:10:09.418Z</time></trkpt><trkpt lat="43.6119431" lon="11.3599348"><ele>472.5</ele><time>2026-03-28T10:10:10.418Z</time></trkpt><trkpt lat="43.6118236" lon="11.3600076"><ele>469.0</ele><time>2026-03-28T10:10:11.418Z</time></trkpt><trkpt lat="43.6117106" lon="11.3600837"><ele>465.5</ele><time>2026-03-28T10:10:12.418Z</time></trkpt><trkpt lat="43.6116036" lon="11.3601587"><ele>462.0</ele><time>2026-03-28T10:10:13.418Z</time></trkpt><trkpt lat="43.6114919" lon="11.3602284"><ele>462.0</ele><time>2026-03-28T10:10:14.418Z</time></trkpt><trkpt lat="43.6113789" lon="11.3603183"><ele>462.0</ele><time>2026-03-28T10:10:15.418Z</time></trkpt><trkpt lat="43.6112613" lon="11.3604116"><ele>462.0</ele><time>2026-03-28T10:10:16.418Z</time></trkpt><trkpt lat="43.6111531" lon="11.3605263"><ele>462.0</ele><time>2026-03-28T10:10:17.418Z</time></trkpt><trkpt lat="43.6110775" lon="11.3606729"><ele>460.5</ele><time>2026-03-28T10:10:18.418Z</time></trkpt><trkpt lat="43.6110229" lon="11.3608266"><ele>459.0</ele><time>2026-03-28T10:10:19.418Z</time></trkpt><trkpt lat="43.6109573" lon="11.3609676"><ele>457.5</ele><time>2026-03-28T10:10:20.418Z</time></trkpt><trkpt lat="43.610877" lon="11.3610885"><ele>456.0</ele><time>2026-03-28T10:10:21.418Z</time></trkpt><trkpt lat="43.6107769" lon="11.3611785"><ele>456.0</ele><time>2026-03-28T10:10:22.418Z</time></trkpt><trkpt lat="43.6106537" lon="11.3612045"><ele>456.0</ele><time>2026-03-28T10:10:23.418Z</time></trkpt><trkpt lat="43.610535" lon="11.3612105"><ele>456.0</ele><time>2026-03-28T10:10:24.418Z</time></trkpt><trkpt lat="43.6104222" lon="11.3612203"><ele>456.0</ele><time>2026-03-28T10:10:25.418Z</time></trkpt><trkpt lat="43.6103233" lon="11.361261"><ele>455.6</ele><time>2026-03-28T10:10:26.418Z</time></trkpt><trkpt lat="43.6102546" lon="11.3613506"><ele>455.20000000000005</ele><time>2026-03-28T10:10:27.418Z</time></trkpt><trkpt lat="43.6102141" lon="11.3614532"><ele>454.79999999999995</ele><time>2026-03-28T10:10:28.418Z</time></trkpt><trkpt lat="43.6101823" lon="11.36157"><ele>454.4</ele><time>2026-03-28T10:10:29.418Z</time></trkpt><trkpt lat="43.6101502" lon="11.3617112"><ele>454.0</ele><time>2026-03-28T10:10:30.418Z</time></trkpt><trkpt lat="43.610108" lon="11.3618603"><ele>454.0</ele><time>2026-03-28T10:10:31.418Z</time></trkpt><trkpt lat="43.6100414" lon="11.3620286"><ele>454.0</ele><time>2026-03-28T10:10:32.418Z</time></trkpt><trkpt lat="43.609961" lon="11.3621712"><ele>454.0</ele><time>2026-03-28T10:10:33.418Z</time></trkpt><trkpt lat="43.6098875" lon="11.36232"><ele>454.0</ele><time>2026-03-28T10:10:34.418Z</time></trkpt><trkpt lat="43.6098112" lon="11.3624667"><ele>451.25</ele><time>2026-03-28T10:10:35.418Z</time></trkpt><trkpt lat="43.6097366" lon="11.3626146"><ele>448.5</ele><time>2026-03-28T10:10:36.418Z</time></trkpt><trkpt lat="43.609669" lon="11.3627748"><ele>445.75</ele><time>2026-03-28T10:10:37.418Z</time></trkpt><trkpt lat="43.6096083" lon="11.3629246"><ele>443.0</ele><time>2026-03-28T10:10:38.418Z</time></trkpt><trkpt lat="43.6095586" lon="11.3630777"><ele>444.0</ele><time>2026-03-28T10:10:39.418Z</time></trkpt><trkpt lat="43.6095275" lon="11.3632277"><ele>444.99999999999994</ele><time>2026-03-28T10:10:40.418Z</time></trkpt><trkpt lat="43.6095093" lon="11.3633714"><ele>445.99999999999994</ele><time>2026-03-28T10:10:41.418Z</time></trkpt><trkpt lat="43.6095001" lon="11.3635158"><ele>447.0</ele><time>2026-03-28T10:10:42.419Z</time></trkpt><trkpt lat="43.6094843" lon="11.3636486"><ele>448.0</ele><time>2026-03-28T10:10:43.418Z</time></trkpt><trkpt lat="43.609444" lon="11.3637745"><ele>446.0</ele><time>2026-03-28T10:10:44.418Z</time></trkpt><trkpt lat="43.6093705" lon="11.3639055"><ele>444.0</ele><time>2026-03-28T10:10:45.418Z</time></trkpt><trkpt lat="43.6092769" lon="11.3640148"><ele>442.0</ele><time>2026-03-28T10:10:46.418Z</time></trkpt><trkpt lat="43.6091717" lon="11.364078"><ele>440.0</ele><time>2026-03-28T10:10:47.418Z</time></trkpt><trkpt lat="43.6090582" lon="11.3641055"><ele>440.0</ele><time>2026-03-28T10:10:48.418Z</time></trkpt><trkpt lat="43.6089252" lon="11.3640949"><ele>440.0</ele><time>2026-03-28T10:10:49.418Z</time></trkpt><trkpt lat="43.6088116" lon="11.3640384"><ele>440.0</ele><time>2026-03-28T10:10:50.418Z</time></trkpt><trkpt lat="43.6087127" lon="11.3639593"><ele>440.0</ele><time>2026-03-28T10:10:51.418Z</time></trkpt><trkpt lat="43.6086191" lon="11.3638916"><ele>439.8</ele><time>2026-03-28T10:10:52.418Z</time></trkpt><trkpt lat="43.6085208" lon="11.3638615"><ele>439.6</ele><time>2026-03-28T10:10:53.418Z</time></trkpt><trkpt lat="43.6084146" lon="11.3638842"><ele>439.4</ele><time>2026-03-28T10:10:54.418Z</time></trkpt><trkpt lat="43.608313" lon="11.363952"><ele>439.2</ele><time>2026-03-28T10:10:55.418Z</time></trkpt><trkpt lat="43.6082175" lon="11.3640552"><ele>439.0</ele><time>2026-03-28T10:10:56.418Z</time></trkpt><trkpt lat="43.6081292" lon="11.3641481"><ele>439.0</ele><time>2026-03-28T10:10:57.418Z</time></trkpt><trkpt lat="43.6080191" lon="11.3642405"><ele>439.0</ele><time>2026-03-28T10:10:58.418Z</time></trkpt><trkpt lat="43.6079015" lon="11.3643116"><ele>439.0</ele><time>2026-03-28T10:10:59.418Z</time></trkpt><trkpt lat="43.6077882" lon="11.3643863"><ele>439.0</ele><time>2026-03-28T10:11:00.418Z</time></trkpt><trkpt lat="43.6076838" lon="11.3644717"><ele>440.75</ele><time>2026-03-28T10:11:01.418Z</time></trkpt><trkpt lat="43.6075921" lon="11.3645744"><ele>442.5</ele><time>2026-03-28T10:11:02.418Z</time></trkpt><trkpt lat="43.6074995" lon="11.3646638"><ele>444.25</ele><time>2026-03-28T10:11:03.418Z</time></trkpt><trkpt lat="43.6074021" lon="11.3647361"><ele>446.0</ele><time>2026-03-28T10:11:04.418Z</time></trkpt><trkpt lat="43.6072981" lon="11.3647959"><ele>443.6</ele><time>2026-03-28T10:11:05.418Z</time></trkpt><trkpt lat="43.6071835" lon="11.3648265"><ele>441.20000000000005</ele><time>2026-03-28T10:11:06.418Z</time></trkpt><trkpt lat="43.6070714" lon="11.3648234"><ele>438.79999999999995</ele><time>2026-03-28T10:11:07.419Z</time></trkpt><trkpt lat="43.6069731" lon="11.3647794"><ele>436.4</ele><time>2026-03-28T10:11:08.418Z</time></trkpt><trkpt lat="43.6069052" lon="11.3647629"><ele>434.0</ele><time>2026-03-28T10:11:09.418Z</time></trkpt><trkpt lat="43.606841" lon="11.3648161"><ele>434.0</ele><time>2026-03-28T10:11:10.418Z</time></trkpt><trkpt lat="43.6068054" lon="11.3649193"><ele>434.0</ele><time>2026-03-28T10:11:11.418Z</time></trkpt><trkpt lat="43.6068078" lon="11.3650356"><ele>434.0</ele><time>2026-03-28T10:11:12.418Z</time></trkpt><trkpt lat="43.6068328" lon="11.3651613"><ele>434.0</ele><time>2026-03-28T10:11:13.418Z</time></trkpt><trkpt lat="43.6068485" lon="11.3652989"><ele>434.0</ele><time>2026-03-28T10:11:14.418Z</time></trkpt><trkpt lat="43.6068484" lon="11.3654378"><ele>431.0</ele><time>2026-03-28T10:11:15.418Z</time></trkpt><trkpt lat="43.6068298" lon="11.3655894"><ele>428.0</ele><time>2026-03-28T10:11:16.418Z</time></trkpt><trkpt lat="43.6067989" lon="11.3657258"><ele>425.0</ele><time>2026-03-28T10:11:17.418Z</time></trkpt><trkpt lat="43.6067373" lon="11.365863"><ele>422.0</ele><time>2026-03-28T10:11:18.418Z</time></trkpt><trkpt lat="43.6066531" lon="11.3659802"><ele>422.0</ele><time>2026-03-28T10:11:19.418Z</time></trkpt><trkpt lat="43.6065604" lon="11.3660814"><ele>422.0</ele><time>2026-03-28T10:11:20.418Z</time></trkpt><trkpt lat="43.6064656" lon="11.3661964"><ele>422.0</ele><time>2026-03-28T10:11:21.418Z</time></trkpt><trkpt lat="43.6063681" lon="11.3663054"><ele>422.0</ele><time>2026-03-28T10:11:22.418Z</time></trkpt><trkpt lat="43.6062646" lon="11.3663904"><ele>421.0</ele><time>2026-03-28T10:11:23.418Z</time></trkpt><trkpt lat="43.6061603" lon="11.3664463"><ele>420.0</ele><time>2026-03-28T10:11:24.418Z</time></trkpt><trkpt lat="43.6060554" lon="11.3664746"><ele>419.0</ele><time>2026-03-28T10:11:25.418Z</time></trkpt><trkpt lat="43.6059516" lon="11.3664617"><ele>418.0</ele><time>2026-03-28T10:11:26.418Z</time></trkpt><trkpt lat="43.6058521" lon="11.3664111"><ele>417.0</ele><time>2026-03-28T10:11:27.418Z</time></trkpt><trkpt lat="43.6057625" lon="11.3663664"><ele>417.0</ele><time>2026-03-28T10:11:28.418Z</time></trkpt><trkpt lat="43.6056859" lon="11.3663413"><ele>417.0</ele><time>2026-03-28T10:11:29.418Z</time></trkpt><trkpt lat="43.6056194" lon="11.3663588"><ele>417.0</ele><time>2026-03-28T10:11:30.418Z</time></trkpt><trkpt lat="43.605563" lon="11.3664059"><ele>417.0</ele><time>2026-03-28T10:11:31.418Z</time></trkpt><trkpt lat="43.6055157" lon="11.3665685"><ele>417.0</ele><time>2026-03-28T10:11:33.418Z</time></trkpt><trkpt lat="43.6055279" lon="11.3666831"><ele>417.0</ele><time>2026-03-28T10:11:34.418Z</time></trkpt><trkpt lat="43.6055693" lon="11.3668054"><ele>417.0</ele><time>2026-03-28T10:11:35.418Z</time></trkpt><trkpt lat="43.6056148" lon="11.3669332"><ele>417.0</ele><time>2026-03-28T10:11:36.418Z</time></trkpt><trkpt lat="43.6056513" lon="11.3670747"><ele>417.0</ele><time>2026-03-28T10:11:37.418Z</time></trkpt><trkpt lat="43.6056681" lon="11.36722"><ele>417.0</ele><time>2026-03-28T10:11:38.418Z</time></trkpt><trkpt lat="43.6056616" lon="11.3673583"><ele>417.0</ele><time>2026-03-28T10:11:39.418Z</time></trkpt><trkpt lat="43.6056375" lon="11.367504"><ele>414.6</ele><time>2026-03-28T10:11:40.418Z</time></trkpt><trkpt lat="43.6055957" lon="11.3676368"><ele>412.20000000000005</ele><time>2026-03-28T10:11:41.418Z</time></trkpt><trkpt lat="43.6055346" lon="11.3677591"><ele>409.8</ele><time>2026-03-28T10:11:42.418Z</time></trkpt><trkpt lat="43.6054656" lon="11.3678766"><ele>407.4</ele><time>2026-03-28T10:11:43.418Z</time></trkpt><trkpt lat="43.6053843" lon="11.3679844"><ele>405.0</ele><time>2026-03-28T10:11:44.418Z</time></trkpt><trkpt lat="43.6052796" lon="11.3680732"><ele>404.75</ele><time>2026-03-28T10:11:45.418Z</time></trkpt><trkpt lat="43.6051617" lon="11.3681307"><ele>404.5</ele><time>2026-03-28T10:11:46.418Z</time></trkpt><trkpt lat="43.605028" lon="11.3681633"><ele>404.25</ele><time>2026-03-28T10:11:47.418Z</time></trkpt><trkpt lat="43.6048927" lon="11.3681748"><ele>404.0</ele><time>2026-03-28T10:11:48.418Z</time></trkpt><trkpt lat="43.6047582" lon="11.3681705"><ele>404.0</ele><time>2026-03-28T10:11:49.418Z</time></trkpt><trkpt lat="43.6046349" lon="11.3681807"><ele>404.0</ele><time>2026-03-28T10:11:50.418Z</time></trkpt><trkpt lat="43.6045277" lon="11.3682284"><ele>404.0</ele><time>2026-03-28T10:11:51.418Z</time></trkpt><trkpt lat="43.6044186" lon="11.3682827"><ele>404.0</ele><time>2026-03-28T10:11:52.418Z</time></trkpt><trkpt lat="43.6043116" lon="11.3683325"><ele>405.6</ele><time>2026-03-28T10:11:53.418Z</time></trkpt><trkpt lat="43.6042166" lon="11.3683948"><ele>407.2</ele><time>2026-03-28T10:11:54.418Z</time></trkpt><trkpt lat="43.6041471" lon="11.3684945"><ele>408.8</ele><time>2026-03-28T10:11:55.418Z</time></trkpt><trkpt lat="43.6041209" lon="11.3686131"><ele>410.40000000000003</ele><time>2026-03-28T10:11:56.418Z</time></trkpt><trkpt lat="43.604128" lon="11.3687475"><ele>412.0</ele><time>2026-03-28T10:11:57.418Z</time></trkpt><trkpt lat="43.6041675" lon="11.3688773"><ele>412.0</ele><time>2026-03-28T10:11:58.418Z</time></trkpt><trkpt lat="43.6042209" lon="11.3689809"><ele>412.0</ele><time>2026-03-28T10:11:59.418Z</time></trkpt><trkpt lat="43.6042727" lon="11.3690933"><ele>412.0</ele><time>2026-03-28T10:12:00.418Z</time></trkpt><trkpt lat="43.6043063" lon="11.3692111"><ele>412.0</ele><time>2026-03-28T10:12:01.418Z</time></trkpt><trkpt lat="43.6043183" lon="11.369342"><ele>412.0</ele><time>2026-03-28T10:12:02.418Z</time></trkpt><trkpt lat="43.6043019" lon="11.3694748"><ele>412.0</ele><time>2026-03-28T10:12:03.418Z</time></trkpt><trkpt lat="43.6042843" lon="11.3695974"><ele>412.0</ele><time>2026-03-28T10:12:04.418Z</time></trkpt><trkpt lat="43.6042751" lon="11.3697264"><ele>412.0</ele><time>2026-03-28T10:12:05.418Z</time></trkpt><trkpt lat="43.6042881" lon="11.369863"><ele>412.0</ele><time>2026-03-28T10:12:06.418Z</time></trkpt><trkpt lat="43.6043232" lon="11.3699906"><ele>412.0</ele><time>2026-03-28T10:12:07.418Z</time></trkpt><trkpt lat="43.6043821" lon="11.3701129"><ele>413.6</ele><time>2026-03-28T10:12:08.418Z</time></trkpt><trkpt lat="43.6044416" lon="11.370233"><ele>415.20000000000005</ele><time>2026-03-28T10:12:09.418Z</time></trkpt><trkpt lat="43.6044974" lon="11.3703649"><ele>416.8</ele><time>2026-03-28T10:12:10.418Z</time></trkpt><trkpt lat="43.604531" lon="11.3705015"><ele>418.4</ele><time>2026-03-28T10:12:11.418Z</time></trkpt><trkpt lat="43.6045439" lon="11.3706548"><ele>420.0</ele><time>2026-03-28T10:12:12.418Z</time></trkpt><trkpt lat="43.6045497" lon="11.3708116"><ele>420.6</ele><time>2026-03-28T10:12:13.418Z</time></trkpt><trkpt lat="43.6045591" lon="11.3709674"><ele>421.2</ele><time>2026-03-28T10:12:14.418Z</time></trkpt><trkpt lat="43.6045524" lon="11.3711088"><ele>421.79999999999995</ele><time>2026-03-28T10:12:15.418Z</time></trkpt><trkpt lat="43.6045191" lon="11.3712348"><ele>422.4</ele><time>2026-03-28T10:12:16.418Z</time></trkpt><trkpt lat="43.6044646" lon="11.3713408"><ele>423.0</ele><time>2026-03-28T10:12:17.418Z</time></trkpt><trkpt lat="43.6043989" lon="11.3714292"><ele>420.79999999999995</ele><time>2026-03-28T10:12:18.418Z</time></trkpt><trkpt lat="43.6043226" lon="11.3715083"><ele>418.6</ele><time>2026-03-28T10:12:19.418Z</time></trkpt><trkpt lat="43.6042293" lon="11.3715575"><ele>416.4</ele><time>2026-03-28T10:12:20.418Z</time></trkpt><trkpt lat="43.6041346" lon="11.3715917"><ele>414.20000000000005</ele><time>2026-03-28T10:12:21.418Z</time></trkpt><trkpt lat="43.604035" lon="11.3716139"><ele>412.0</ele><time>2026-03-28T10:12:22.418Z</time></trkpt><trkpt lat="43.6039411" lon="11.3716651"><ele>412.0</ele><time>2026-03-28T10:12:23.418Z</time></trkpt><trkpt lat="43.6038641" lon="11.3717632"><ele>412.0</ele><time>2026-03-28T10:12:24.418Z</time></trkpt><trkpt lat="43.603851" lon="11.3719056"><ele>412.0</ele><time>2026-03-28T10:12:25.418Z</time></trkpt><trkpt lat="43.6038678" lon="11.3720545"><ele>412.0</ele><time>2026-03-28T10:12:26.418Z</time></trkpt><trkpt lat="43.6038468" lon="11.3721891"><ele>412.0</ele><time>2026-03-28T10:12:27.418Z</time></trkpt><trkpt lat="43.603784" lon="11.3723061"><ele>410.40000000000003</ele><time>2026-03-28T10:12:28.418Z</time></trkpt><trkpt lat="43.6037003" lon="11.3723926"><ele>408.8</ele><time>2026-03-28T10:12:29.418Z</time></trkpt><trkpt lat="43.6036107" lon="11.3724547"><ele>407.2</ele><time>2026-03-28T10:12:30.418Z</time></trkpt><trkpt lat="43.6035207" lon="11.3725203"><ele>405.6</ele><time>2026-03-28T10:12:31.418Z</time></trkpt><trkpt lat="43.6034343" lon="11.3725852"><ele>404.0</ele><time>2026-03-28T10:12:32.418Z</time></trkpt><trkpt lat="43.6033521" lon="11.3726516"><ele>406.49999999999994</ele><time>2026-03-28T10:12:33.418Z</time></trkpt><trkpt lat="43.6032713" lon="11.3727132"><ele>409.0</ele><time>2026-03-28T10:12:34.418Z</time></trkpt><trkpt lat="43.6031999" lon="11.3727758"><ele>411.5</ele><time>2026-03-28T10:12:35.418Z</time></trkpt><trkpt lat="43.6031394" lon="11.3728294"><ele>414.0</ele><time>2026-03-28T10:12:36.418Z</time></trkpt><trkpt lat="43.6030546" lon="11.3729116"><ele>416.49999999999994</ele><time>2026-03-28T10:12:38.418Z</time></trkpt><trkpt lat="43.6029902" lon="11.3729656"><ele>419.0</ele><time>2026-03-28T10:12:40.418Z</time></trkpt><trkpt lat="43.6029705" lon="11.3730846"><ele>419.0</ele><time>2026-03-28T10:12:43.418Z</time></trkpt><trkpt lat="43.6030053" lon="11.3731575"><ele>419.0</ele><time>2026-03-28T10:12:44.418Z</time></trkpt><trkpt lat="43.6030611" lon="11.3733125"><ele>419.0</ele><time>2026-03-28T10:12:46.418Z</time></trkpt><trkpt lat="43.6030755" lon="11.3734756"><ele>419.0</ele><time>2026-03-28T10:12:48.418Z</time></trkpt><trkpt lat="43.603065" lon="11.3735684"><ele>419.0</ele><time>2026-03-28T10:12:49.418Z</time></trkpt><trkpt lat="43.6030444" lon="11.3736688"><ele>419.0</ele><time>2026-03-28T10:12:50.418Z</time></trkpt><trkpt lat="43.6030015" lon="11.373797"><ele>419.0</ele><time>2026-03-28T10:12:51.418Z</time></trkpt><trkpt lat="43.6029584" lon="11.3739259"><ele>419.0</ele><time>2026-03-28T10:12:52.418Z</time></trkpt><trkpt lat="43.6029182" lon="11.3740723"><ele>419.0</ele><time>2026-03-28T10:12:53.418Z</time></trkpt><trkpt lat="43.6028727" lon="11.3742207"><ele>419.0</ele><time>2026-03-28T10:12:54.418Z</time></trkpt><trkpt lat="43.6028277" lon="11.374377"><ele>418.5</ele><time>2026-03-28T10:12:55.418Z</time></trkpt><trkpt lat="43.6027801" lon="11.3745475"><ele>418.0</ele><time>2026-03-28T10:12:56.418Z</time></trkpt><trkpt lat="43.6027327" lon="11.37473"><ele>417.5</ele><time>2026-03-28T10:12:57.418Z</time></trkpt><trkpt lat="43.6026792" lon="11.3749347"><ele>417.0</ele><time>2026-03-28T10:12:58.418Z</time></trkpt><trkpt lat="43.602627" lon="11.3751345"><ele>416.75</ele><time>2026-03-28T10:12:59.418Z</time></trkpt><trkpt lat="43.6025743" lon="11.3753313"><ele>416.5</ele><time>2026-03-28T10:13:00.418Z</time></trkpt><trkpt lat="43.6025222" lon="11.3755179"><ele>416.25</ele><time>2026-03-28T10:13:01.418Z</time></trkpt><trkpt lat="43.602468" lon="11.3757132"><ele>416.0</ele><time>2026-03-28T10:13:02.418Z</time></trkpt><trkpt lat="43.6024112" lon="11.3759171"><ele>415.3333333333333</ele><time>2026-03-28T10:13:03.418Z</time></trkpt><trkpt lat="43.6023605" lon="11.3761157"><ele>414.66666666666663</ele><time>2026-03-28T10:13:04.418Z</time></trkpt><trkpt lat="43.6023051" lon="11.3763349"><ele>414.0</ele><time>2026-03-28T10:13:05.418Z</time></trkpt><trkpt lat="43.6022402" lon="11.3765363"><ele>412.0</ele><time>2026-03-28T10:13:06.418Z</time></trkpt><trkpt lat="43.6021825" lon="11.3767501"><ele>410.0</ele><time>2026-03-28T10:13:07.418Z</time></trkpt><trkpt lat="43.6021267" lon="11.3769673"><ele>408.0</ele><time>2026-03-28T10:13:08.418Z</time></trkpt><trkpt lat="43.6020678" lon="11.3771868"><ele>407.0</ele><time>2026-03-28T10:13:09.418Z</time></trkpt><trkpt lat="43.6020068" lon="11.3774087"><ele>406.0</ele><time>2026-03-28T10:13:10.418Z</time></trkpt><trkpt lat="43.6019421" lon="11.3776369"><ele>405.0</ele><time>2026-03-28T10:13:11.418Z</time></trkpt><trkpt lat="43.6018797" lon="11.3778641"><ele>403.33333333333337</ele><time>2026-03-28T10:13:12.418Z</time></trkpt><trkpt lat="43.6018201" lon="11.3780818"><ele>401.6666666666667</ele><time>2026-03-28T10:13:13.418Z</time></trkpt><trkpt lat="43.6017667" lon="11.3782945"><ele>400.0</ele><time>2026-03-28T10:13:14.418Z</time></trkpt><trkpt lat="43.6017249" lon="11.3785035"><ele>400.0</ele><time>2026-03-28T10:13:15.418Z</time></trkpt><trkpt lat="43.6016938" lon="11.3787078"><ele>400.0</ele><time>2026-03-28T10:13:16.418Z</time></trkpt><trkpt lat="43.6016872" lon="11.3789244"><ele>400.0</ele><time>2026-03-28T10:13:17.418Z</time></trkpt><trkpt lat="43.6016903" lon="11.3791464"><ele>399.6666666666667</ele><time>2026-03-28T10:13:18.418Z</time></trkpt><trkpt lat="43.6016953" lon="11.3793621"><ele>399.33333333333337</ele><time>2026-03-28T10:13:19.418Z</time></trkpt><trkpt lat="43.6016923" lon="11.379574"><ele>399.0</ele><time>2026-03-28T10:13:20.418Z</time></trkpt><trkpt lat="43.6016553" lon="11.3797867"><ele>399.0</ele><time>2026-03-28T10:13:21.418Z</time></trkpt><trkpt lat="43.6015837" lon="11.379978"><ele>399.0</ele><time>2026-03-28T10:13:22.418Z</time></trkpt><trkpt lat="43.6014913" lon="11.3801712"><ele>399.0</ele><time>2026-03-28T10:13:23.418Z</time></trkpt><trkpt lat="43.6013971" lon="11.3803606"><ele>400.33333333333337</ele><time>2026-03-28T10:13:24.419Z</time></trkpt><trkpt lat="43.6013038" lon="11.3805535"><ele>401.6666666666667</ele><time>2026-03-28T10:13:25.418Z</time></trkpt><trkpt lat="43.6012037" lon="11.3807548"><ele>403.0</ele><time>2026-03-28T10:13:26.418Z</time></trkpt><trkpt lat="43.6011027" lon="11.3809631"><ele>397.0</ele><time>2026-03-28T10:13:27.418Z</time></trkpt><trkpt lat="43.6009898" lon="11.3811682"><ele>391.0</ele><time>2026-03-28T10:13:28.418Z</time></trkpt><trkpt lat="43.6008679" lon="11.3813731"><ele>385.0</ele><time>2026-03-28T10:13:29.418Z</time></trkpt><trkpt lat="43.6007386" lon="11.3815598"><ele>384.6666666666667</ele><time>2026-03-28T10:13:30.418Z</time></trkpt><trkpt lat="43.6006082" lon="11.3817396"><ele>384.33333333333337</ele><time>2026-03-28T10:13:31.418Z</time></trkpt><trkpt lat="43.6004764" lon="11.3819105"><ele>384.0</ele><time>2026-03-28T10:13:32.418Z</time></trkpt><trkpt lat="43.6003462" lon="11.3820783"><ele>379.6666666666667</ele><time>2026-03-28T10:13:33.418Z</time></trkpt><trkpt lat="43.6002299" lon="11.3822469"><ele>375.33333333333337</ele><time>2026-03-28T10:13:34.418Z</time></trkpt><trkpt lat="43.6001332" lon="11.3824166"><ele>371.0</ele><time>2026-03-28T10:13:35.418Z</time></trkpt><trkpt lat="43.6000561" lon="11.3826145"><ele>371.0</ele><time>2026-03-28T10:13:36.418Z</time></trkpt><trkpt lat="43.5999798" lon="11.3828154"><ele>371.0</ele><time>2026-03-28T10:13:37.418Z</time></trkpt><trkpt lat="43.5998929" lon="11.3830112"><ele>371.0</ele><time>2026-03-28T10:13:38.418Z</time></trkpt><trkpt lat="43.5997786" lon="11.3831777"><ele>369.6666666666667</ele><time>2026-03-28T10:13:39.418Z</time></trkpt><trkpt lat="43.5996408" lon="11.3833188"><ele>368.3333333333333</ele><time>2026-03-28T10:13:40.418Z</time></trkpt><trkpt lat="43.5995027" lon="11.3834359"><ele>367.0</ele><time>2026-03-28T10:13:41.418Z</time></trkpt><trkpt lat="43.5993799" lon="11.3835335"><ele>367.0</ele><time>2026-03-28T10:13:42.418Z</time></trkpt><trkpt lat="43.5992537" lon="11.3836256"><ele>367.0</ele><time>2026-03-28T10:13:43.418Z</time></trkpt><trkpt lat="43.5991293" lon="11.3837211"><ele>367.0</ele><time>2026-03-28T10:13:44.419Z</time></trkpt><trkpt lat="43.5990033" lon="11.3838194"><ele>367.0</ele><time>2026-03-28T10:13:45.419Z</time></trkpt><trkpt lat="43.5988817" lon="11.3839147"><ele>367.0</ele><time>2026-03-28T10:13:46.419Z</time></trkpt><trkpt lat="43.5987656" lon="11.3840139"><ele>367.0</ele><time>2026-03-28T10:13:47.419Z</time></trkpt><trkpt lat="43.5986559" lon="11.3841024"><ele>367.0</ele><time>2026-03-28T10:13:48.419Z</time></trkpt><trkpt lat="43.5985582" lon="11.3841771"><ele>367.0</ele><time>2026-03-28T10:13:49.419Z</time></trkpt><trkpt lat="43.5984677" lon="11.3842326"><ele>367.0</ele><time>2026-03-28T10:13:50.419Z</time></trkpt><trkpt lat="43.5983769" lon="11.3842679"><ele>367.0</ele><time>2026-03-28T10:13:51.419Z</time></trkpt><trkpt lat="43.5982779" lon="11.3843061"><ele>367.0</ele><time>2026-03-28T10:13:52.419Z</time></trkpt><trkpt lat="43.5981803" lon="11.3843521"><ele>367.0</ele><time>2026-03-28T10:13:53.419Z</time></trkpt><trkpt lat="43.598099" lon="11.3844202"><ele>367.0</ele><time>2026-03-28T10:13:54.419Z</time></trkpt><trkpt lat="43.598034" lon="11.384514"><ele>367.0</ele><time>2026-03-28T10:13:55.419Z</time></trkpt><trkpt lat="43.5979674" lon="11.3846228"><ele>367.0</ele><time>2026-03-28T10:13:56.419Z</time></trkpt><trkpt lat="43.5979007" lon="11.3847366"><ele>367.0</ele><time>2026-03-28T10:13:57.419Z</time></trkpt><trkpt lat="43.5978098" lon="11.3848347"><ele>367.0</ele><time>2026-03-28T10:13:58.419Z</time></trkpt><trkpt lat="43.5976927" lon="11.3849032"><ele>365.25</ele><time>2026-03-28T10:13:59.419Z</time></trkpt><trkpt lat="43.5975698" lon="11.3849343"><ele>363.5</ele><time>2026-03-28T10:14:00.419Z</time></trkpt><trkpt lat="43.5974469" lon="11.3849291"><ele>361.75</ele><time>2026-03-28T10:14:01.419Z</time></trkpt><trkpt lat="43.5973276" lon="11.3849253"><ele>360.0</ele><time>2026-03-28T10:14:02.419Z</time></trkpt><trkpt lat="43.5972158" lon="11.3849226"><ele>360.0</ele><time>2026-03-28T10:14:03.419Z</time></trkpt><trkpt lat="43.5970932" lon="11.3849261"><ele>360.0</ele><time>2026-03-28T10:14:04.419Z</time></trkpt><trkpt lat="43.5969772" lon="11.3849373"><ele>360.0</ele><time>2026-03-28T10:14:05.419Z</time></trkpt><trkpt lat="43.5968641" lon="11.3849626"><ele>360.0</ele><time>2026-03-28T10:14:06.419Z</time></trkpt><trkpt lat="43.5967595" lon="11.3850326"><ele>358.5</ele><time>2026-03-28T10:14:07.419Z</time></trkpt><trkpt lat="43.5966727" lon="11.3851454"><ele>357.0</ele><time>2026-03-28T10:14:08.419Z</time></trkpt><trkpt lat="43.5965866" lon="11.3852686"><ele>355.5</ele><time>2026-03-28T10:14:09.419Z</time></trkpt><trkpt lat="43.5965048" lon="11.3853959"><ele>354.0</ele><time>2026-03-28T10:14:10.419Z</time></trkpt><trkpt lat="43.5964104" lon="11.3855282"><ele>354.0</ele><time>2026-03-28T10:14:11.419Z</time></trkpt><trkpt lat="43.596314" lon="11.3856541"><ele>354.0</ele><time>2026-03-28T10:14:12.419Z</time></trkpt><trkpt lat="43.5962287" lon="11.3857882"><ele>354.0</ele><time>2026-03-28T10:14:13.419Z</time></trkpt><trkpt lat="43.5961546" lon="11.3859279"><ele>354.0</ele><time>2026-03-28T10:14:14.419Z</time></trkpt><trkpt lat="43.59609" lon="11.3860753"><ele>351.0</ele><time>2026-03-28T10:14:15.419Z</time></trkpt><trkpt lat="43.5960366" lon="11.3862332"><ele>348.0</ele><time>2026-03-28T10:14:16.419Z</time></trkpt><trkpt lat="43.5959945" lon="11.3863914"><ele>345.0</ele><time>2026-03-28T10:14:17.419Z</time></trkpt><trkpt lat="43.5959501" lon="11.386542"><ele>342.0</ele><time>2026-03-28T10:14:18.419Z</time></trkpt><trkpt lat="43.5959047" lon="11.3866927"><ele>341.8</ele><time>2026-03-28T10:14:19.419Z</time></trkpt><trkpt lat="43.5958648" lon="11.3868419"><ele>341.6</ele><time>2026-03-28T10:14:20.419Z</time></trkpt><trkpt lat="43.5958247" lon="11.3869823"><ele>341.40000000000003</ele><time>2026-03-28T10:14:21.419Z</time></trkpt><trkpt lat="43.5957869" lon="11.3871252"><ele>341.20000000000005</ele><time>2026-03-28T10:14:22.419Z</time></trkpt><trkpt lat="43.5957493" lon="11.3872608"><ele>341.0</ele><time>2026-03-28T10:14:23.42Z</time></trkpt><trkpt lat="43.5957125" lon="11.3873942"><ele>341.0</ele><time>2026-03-28T10:14:24.419Z</time></trkpt><trkpt lat="43.5956779" lon="11.3875403"><ele>341.0</ele><time>2026-03-28T10:14:25.419Z</time></trkpt><trkpt lat="43.5956376" lon="11.3876964"><ele>341.0</ele><time>2026-03-28T10:14:26.419Z</time></trkpt><trkpt lat="43.5955937" lon="11.3878576"><ele>341.0</ele><time>2026-03-28T10:14:27.419Z</time></trkpt><trkpt lat="43.5955525" lon="11.3880159"><ele>340.75</ele><time>2026-03-28T10:14:28.419Z</time></trkpt><trkpt lat="43.5955273" lon="11.3881777"><ele>340.5</ele><time>2026-03-28T10:14:29.419Z</time></trkpt><trkpt lat="43.5955261" lon="11.3883454"><ele>340.25</ele><time>2026-03-28T10:14:30.419Z</time></trkpt><trkpt lat="43.5955395" lon="11.388511"><ele>340.0</ele><time>2026-03-28T10:14:31.419Z</time></trkpt><trkpt lat="43.5955703" lon="11.3886857"><ele>340.25</ele><time>2026-03-28T10:14:32.419Z</time></trkpt><trkpt lat="43.595607" lon="11.3888627"><ele>340.5</ele><time>2026-03-28T10:14:33.419Z</time></trkpt><trkpt lat="43.5956483" lon="11.3890652"><ele>340.75</ele><time>2026-03-28T10:14:34.42Z</time></trkpt><trkpt lat="43.5956969" lon="11.3892721"><ele>341.0</ele><time>2026-03-28T10:14:35.419Z</time></trkpt><trkpt lat="43.5957443" lon="11.3894856"><ele>340.33333333333337</ele><time>2026-03-28T10:14:36.419Z</time></trkpt><trkpt lat="43.5958034" lon="11.389694"><ele>339.6666666666667</ele><time>2026-03-28T10:14:37.419Z</time></trkpt><trkpt lat="43.5958612" lon="11.3899069"><ele>339.0</ele><time>2026-03-28T10:14:38.419Z</time></trkpt><trkpt lat="43.5959241" lon="11.3901057"><ele>339.0</ele><time>2026-03-28T10:14:39.419Z</time></trkpt><trkpt lat="43.5959806" lon="11.3902902"><ele>339.0</ele><time>2026-03-28T10:14:40.419Z</time></trkpt><trkpt lat="43.5960331" lon="11.39046"><ele>339.0</ele><time>2026-03-28T10:14:41.419Z</time></trkpt><trkpt lat="43.5960737" lon="11.3906012"><ele>339.0</ele><time>2026-03-28T10:14:42.419Z</time></trkpt><trkpt lat="43.5961066" lon="11.3907012"><ele>338.3333333333333</ele><time>2026-03-28T10:14:43.419Z</time></trkpt><trkpt lat="43.5961212" lon="11.3907957"><ele>337.6666666666667</ele><time>2026-03-28T10:14:44.419Z</time></trkpt><trkpt lat="43.5961274" lon="11.390936"><ele>337.0</ele><time>2026-03-28T10:14:46.419Z</time></trkpt><trkpt lat="43.5961564" lon="11.3910196"><ele>336.33333333333337</ele><time>2026-03-28T10:16:31.419Z</time></trkpt><trkpt lat="43.596225" lon="11.3911309"><ele>335.6666666666667</ele><time>2026-03-28T10:16:34.419Z</time></trkpt><trkpt lat="43.5962655" lon="11.3912101"><ele>335.0</ele><time>2026-03-28T10:16:35.419Z</time></trkpt><trkpt lat="43.5963113" lon="11.3913058"><ele>337.0</ele><time>2026-03-28T10:16:36.419Z</time></trkpt><trkpt lat="43.5963568" lon="11.3914201"><ele>339.0</ele><time>2026-03-28T10:16:37.419Z</time></trkpt><trkpt lat="43.5964165" lon="11.3915677"><ele>341.0</ele><time>2026-03-28T10:16:38.419Z</time></trkpt><trkpt lat="43.5964775" lon="11.3917309"><ele>343.0</ele><time>2026-03-28T10:16:39.419Z</time></trkpt><trkpt lat="43.5965423" lon="11.3918997"><ele>343.0</ele><time>2026-03-28T10:16:40.419Z</time></trkpt><trkpt lat="43.5966159" lon="11.3920914"><ele>343.0</ele><time>2026-03-28T10:16:41.419Z</time></trkpt><trkpt lat="43.5966928" lon="11.3922931"><ele>343.0</ele><time>2026-03-28T10:16:42.419Z</time></trkpt><trkpt lat="43.5967732" lon="11.3925024"><ele>339.66666666666663</ele><time>2026-03-28T10:16:43.419Z</time></trkpt><trkpt lat="43.5968531" lon="11.3927153"><ele>336.3333333333333</ele><time>2026-03-28T10:16:44.419Z</time></trkpt><trkpt lat="43.5969439" lon="11.3929254"><ele>333.0</ele><time>2026-03-28T10:16:45.419Z</time></trkpt><trkpt lat="43.597033" lon="11.3931237"><ele>332.6666666666667</ele><time>2026-03-28T10:16:46.419Z</time></trkpt><trkpt lat="43.5971474" lon="11.3932943"><ele>332.33333333333337</ele><time>2026-03-28T10:16:47.419Z</time></trkpt><trkpt lat="43.5972777" lon="11.3934372"><ele>332.0</ele><time>2026-03-28T10:16:48.419Z</time></trkpt><trkpt lat="43.5974141" lon="11.3935817"><ele>332.0</ele><time>2026-03-28T10:16:49.419Z</time></trkpt><trkpt lat="43.5975623" lon="11.3936832"><ele>332.0</ele><time>2026-03-28T10:16:50.419Z</time></trkpt><trkpt lat="43.5977112" lon="11.3937885"><ele>332.0</ele><time>2026-03-28T10:16:51.419Z</time></trkpt><trkpt lat="43.5978307" lon="11.393928"><ele>330.6666666666667</ele><time>2026-03-28T10:16:52.419Z</time></trkpt><trkpt lat="43.5978947" lon="11.3941408"><ele>329.3333333333333</ele><time>2026-03-28T10:16:53.419Z</time></trkpt><trkpt lat="43.597921" lon="11.3943675"><ele>328.0</ele><time>2026-03-28T10:16:54.419Z</time></trkpt><trkpt lat="43.5979384" lon="11.3945959"><ele>328.0</ele><time>2026-03-28T10:16:55.419Z</time></trkpt><trkpt lat="43.5979617" lon="11.3948208"><ele>328.0</ele><time>2026-03-28T10:16:56.419Z</time></trkpt><trkpt lat="43.59799" lon="11.3950492"><ele>328.0</ele><time>2026-03-28T10:16:57.419Z</time></trkpt><trkpt lat="43.598039" lon="11.3952733"><ele>326.3333333333333</ele><time>2026-03-28T10:16:58.419Z</time></trkpt><trkpt lat="43.5981156" lon="11.3955039"><ele>324.6666666666667</ele><time>2026-03-28T10:16:59.419Z</time></trkpt><trkpt lat="43.5982144" lon="11.395716"><ele>323.0</ele><time>2026-03-28T10:17:00.419Z</time></trkpt><trkpt lat="43.5983163" lon="11.3959051"><ele>323.0</ele><time>2026-03-28T10:17:01.419Z</time></trkpt><trkpt lat="43.59842" lon="11.3960781"><ele>323.0</ele><time>2026-03-28T10:17:02.419Z</time></trkpt><trkpt lat="43.598519" lon="11.396246"><ele>323.0</ele><time>2026-03-28T10:17:03.419Z</time></trkpt><trkpt lat="43.5986119" lon="11.396406"><ele>324.0</ele><time>2026-03-28T10:17:04.419Z</time></trkpt><trkpt lat="43.5987055" lon="11.3965601"><ele>325.0</ele><time>2026-03-28T10:17:05.419Z</time></trkpt><trkpt lat="43.5988015" lon="11.3967197"><ele>326.0</ele><time>2026-03-28T10:17:06.419Z</time></trkpt><trkpt lat="43.598908" lon="11.3968794"><ele>326.0</ele><time>2026-03-28T10:17:07.419Z</time></trkpt><trkpt lat="43.5990303" lon="11.3970167"><ele>326.0</ele><time>2026-03-28T10:17:08.419Z</time></trkpt><trkpt lat="43.5991715" lon="11.3971367"><ele>326.0</ele><time>2026-03-28T10:17:09.419Z</time></trkpt><trkpt lat="43.5993241" lon="11.3972482"><ele>325.0</ele><time>2026-03-28T10:17:10.419Z</time></trkpt><trkpt lat="43.5994706" lon="11.3973657"><ele>324.0</ele><time>2026-03-28T10:17:11.419Z</time></trkpt><trkpt lat="43.5996113" lon="11.3974869"><ele>323.0</ele><time>2026-03-28T10:17:12.419Z</time></trkpt><trkpt lat="43.5997524" lon="11.3976286"><ele>322.6666666666667</ele><time>2026-03-28T10:17:13.419Z</time></trkpt><trkpt lat="43.5999001" lon="11.3977884"><ele>322.3333333333333</ele><time>2026-03-28T10:17:14.419Z</time></trkpt><trkpt lat="43.6000363" lon="11.3979418"><ele>322.0</ele><time>2026-03-28T10:17:15.419Z</time></trkpt><trkpt lat="43.6001712" lon="11.3981103"><ele>322.0</ele><time>2026-03-28T10:17:16.419Z</time></trkpt><trkpt lat="43.6003085" lon="11.398292"><ele>322.0</ele><time>2026-03-28T10:17:17.419Z</time></trkpt><trkpt lat="43.6004386" lon="11.3984855"><ele>322.0</ele><time>2026-03-28T10:17:18.42Z</time></trkpt><trkpt lat="43.6005302" lon="11.3986583"><ele>322.25</ele><time>2026-03-28T10:17:19.419Z</time></trkpt><trkpt lat="43.600617" lon="11.3988324"><ele>322.5</ele><time>2026-03-28T10:17:20.419Z</time></trkpt><trkpt lat="43.6006902" lon="11.398997"><ele>322.75</ele><time>2026-03-28T10:17:21.419Z</time></trkpt><trkpt lat="43.6007617" lon="11.3991685"><ele>323.0</ele><time>2026-03-28T10:17:22.419Z</time></trkpt><trkpt lat="43.6008255" lon="11.3993576"><ele>323.0</ele><time>2026-03-28T10:17:23.419Z</time></trkpt><trkpt lat="43.6008594" lon="11.3995489"><ele>323.0</ele><time>2026-03-28T10:17:24.419Z</time></trkpt><trkpt lat="43.6008653" lon="11.3997535"><ele>323.0</ele><time>2026-03-28T10:17:25.419Z</time></trkpt><trkpt lat="43.6008404" lon="11.3999971"><ele>321.6666666666667</ele><time>2026-03-28T10:17:26.419Z</time></trkpt><trkpt lat="43.600818" lon="11.4002682"><ele>320.3333333333333</ele><time>2026-03-28T10:17:27.419Z</time></trkpt><trkpt lat="43.6007778" lon="11.40054"><ele>319.0</ele><time>2026-03-28T10:17:28.419Z</time></trkpt><trkpt lat="43.6007255" lon="11.4008261"><ele>318.66666666666663</ele><time>2026-03-28T10:17:29.419Z</time></trkpt><trkpt lat="43.6006777" lon="11.4011237"><ele>318.3333333333333</ele><time>2026-03-28T10:17:30.419Z</time></trkpt><trkpt lat="43.6006325" lon="11.4014124"><ele>318.0</ele><time>2026-03-28T10:17:31.419Z</time></trkpt><trkpt lat="43.6005892" lon="11.4016899"><ele>319.0</ele><time>2026-03-28T10:17:32.419Z</time></trkpt><trkpt lat="43.6005513" lon="11.4019561"><ele>320.0</ele><time>2026-03-28T10:17:33.419Z</time></trkpt><trkpt lat="43.6005054" lon="11.402202"><ele>321.0</ele><time>2026-03-28T10:17:34.419Z</time></trkpt><trkpt lat="43.6004444" lon="11.4024311"><ele>321.3333333333333</ele><time>2026-03-28T10:17:35.419Z</time></trkpt><trkpt lat="43.6003516" lon="11.4026324"><ele>321.66666666666663</ele><time>2026-03-28T10:17:36.419Z</time></trkpt><trkpt lat="43.6002096" lon="11.4028059"><ele>322.0</ele><time>2026-03-28T10:17:37.419Z</time></trkpt><trkpt lat="43.6000322" lon="11.4029577"><ele>323.3333333333333</ele><time>2026-03-28T10:17:38.419Z</time></trkpt><trkpt lat="43.5998483" lon="11.4031019"><ele>324.6666666666667</ele><time>2026-03-28T10:17:39.419Z</time></trkpt><trkpt lat="43.5996825" lon="11.40325"><ele>326.0</ele><time>2026-03-28T10:17:40.419Z</time></trkpt><trkpt lat="43.5995236" lon="11.4033894"><ele>323.0</ele><time>2026-03-28T10:17:41.419Z</time></trkpt><trkpt lat="43.5993761" lon="11.4035077"><ele>320.0</ele><time>2026-03-28T10:17:42.419Z</time></trkpt><trkpt lat="43.5992533" lon="11.4036001"><ele>317.0</ele><time>2026-03-28T10:17:43.419Z</time></trkpt><trkpt lat="43.5991612" lon="11.4036844"><ele>314.0</ele><time>2026-03-28T10:17:44.419Z</time></trkpt><trkpt lat="43.5990935" lon="11.4037947"><ele>313.0</ele><time>2026-03-28T10:17:45.419Z</time></trkpt><trkpt lat="43.5990737" lon="11.4039444"><ele>312.0</ele><time>2026-03-28T10:17:46.419Z</time></trkpt><trkpt lat="43.5991131" lon="11.4041257"><ele>311.0</ele><time>2026-03-28T10:17:47.419Z</time></trkpt><trkpt lat="43.5992086" lon="11.4042841"><ele>310.0</ele><time>2026-03-28T10:17:48.419Z</time></trkpt><trkpt lat="43.5993028" lon="11.4044629"><ele>310.0</ele><time>2026-03-28T10:17:49.419Z</time></trkpt><trkpt lat="43.5994054" lon="11.404659"><ele>310.0</ele><time>2026-03-28T10:17:50.419Z</time></trkpt><trkpt lat="43.599521" lon="11.404864"><ele>310.0</ele><time>2026-03-28T10:17:51.419Z</time></trkpt><trkpt lat="43.5996382" lon="11.4050771"><ele>310.0</ele><time>2026-03-28T10:17:52.419Z</time></trkpt><trkpt lat="43.5997579" lon="11.4052834"><ele>310.0</ele><time>2026-03-28T10:17:53.419Z</time></trkpt><trkpt lat="43.5998907" lon="11.4054891"><ele>310.0</ele><time>2026-03-28T10:17:54.419Z</time></trkpt><trkpt lat="43.6000529" lon="11.4056618"><ele>310.0</ele><time>2026-03-28T10:17:55.419Z</time></trkpt><trkpt lat="43.6002288" lon="11.4058015"><ele>310.0</ele><time>2026-03-28T10:17:56.419Z</time></trkpt><trkpt lat="43.6003968" lon="11.4059394"><ele>310.0</ele><time>2026-03-28T10:17:57.419Z</time></trkpt><trkpt lat="43.6005426" lon="11.4061034"><ele>311.0</ele><time>2026-03-28T10:17:58.419Z</time></trkpt><trkpt lat="43.6006621" lon="11.4063237"><ele>312.0</ele><time>2026-03-28T10:17:59.419Z</time></trkpt><trkpt lat="43.6007701" lon="11.4065806"><ele>313.0</ele><time>2026-03-28T10:18:00.419Z</time></trkpt><trkpt lat="43.6008591" lon="11.4068564"><ele>313.0</ele><time>2026-03-28T10:18:01.419Z</time></trkpt><trkpt lat="43.6009304" lon="11.407112"><ele>313.0</ele><time>2026-03-28T10:18:02.419Z</time></trkpt><trkpt lat="43.6009869" lon="11.4073531"><ele>313.0</ele><time>2026-03-28T10:18:03.419Z</time></trkpt><trkpt lat="43.6010142" lon="11.4075589"><ele>312.75</ele><time>2026-03-28T10:18:04.419Z</time></trkpt><trkpt lat="43.6010135" lon="11.4077617"><ele>312.5</ele><time>2026-03-28T10:18:05.419Z</time></trkpt><trkpt lat="43.6009552" lon="11.4079464"><ele>312.25</ele><time>2026-03-28T10:18:06.419Z</time></trkpt><trkpt lat="43.6008473" lon="11.4080857"><ele>312.0</ele><time>2026-03-28T10:18:07.419Z</time></trkpt><trkpt lat="43.6006981" lon="11.408154"><ele>312.0</ele><time>2026-03-28T10:18:08.419Z</time></trkpt><trkpt lat="43.6005537" lon="11.4081984"><ele>312.0</ele><time>2026-03-28T10:18:09.419Z</time></trkpt><trkpt lat="43.6004422" lon="11.4082744"><ele>312.0</ele><time>2026-03-28T10:18:10.419Z</time></trkpt><trkpt lat="43.6003784" lon="11.4084038"><ele>312.0</ele><time>2026-03-28T10:18:11.419Z</time></trkpt><trkpt lat="43.6003339" lon="11.4085525"><ele>312.0</ele><time>2026-03-28T10:18:12.419Z</time></trkpt><trkpt lat="43.6003396" lon="11.4087294"><ele>312.0</ele><time>2026-03-28T10:18:13.419Z</time></trkpt><trkpt lat="43.600369" lon="11.4089275"><ele>312.0</ele><time>2026-03-28T10:18:14.419Z</time></trkpt><trkpt lat="43.6004237" lon="11.4091267"><ele>312.0</ele><time>2026-03-28T10:18:15.419Z</time></trkpt><trkpt lat="43.600519" lon="11.4093444"><ele>311.3333333333333</ele><time>2026-03-28T10:18:16.419Z</time></trkpt><trkpt lat="43.6006142" lon="11.4095648"><ele>310.66666666666663</ele><time>2026-03-28T10:18:17.419Z</time></trkpt><trkpt lat="43.6007128" lon="11.4097944"><ele>310.0</ele><time>2026-03-28T10:18:18.419Z</time></trkpt><trkpt lat="43.6007912" lon="11.4100434"><ele>310.0</ele><time>2026-03-28T10:18:19.419Z</time></trkpt><trkpt lat="43.6008092" lon="11.4103151"><ele>310.0</ele><time>2026-03-28T10:18:20.419Z</time></trkpt><trkpt lat="43.6007676" lon="11.4105871"><ele>310.0</ele><time>2026-03-28T10:18:21.419Z</time></trkpt><trkpt lat="43.6007218" lon="11.4108133"><ele>309.0</ele><time>2026-03-28T10:18:22.419Z</time></trkpt><trkpt lat="43.6006437" lon="11.4110116"><ele>308.0</ele><time>2026-03-28T10:18:23.419Z</time></trkpt><trkpt lat="43.6005608" lon="11.4111666"><ele>307.0</ele><time>2026-03-28T10:18:24.419Z</time></trkpt><trkpt lat="43.600503" lon="11.4113075"><ele>306.0</ele><time>2026-03-28T10:18:25.419Z</time></trkpt><trkpt lat="43.6004676" lon="11.4114441"><ele>304.6666666666667</ele><time>2026-03-28T10:18:26.419Z</time></trkpt><trkpt lat="43.6004495" lon="11.4115591"><ele>303.3333333333333</ele><time>2026-03-28T10:18:27.419Z</time></trkpt><trkpt lat="43.600465" lon="11.4116732"><ele>302.0</ele><time>2026-03-28T10:18:28.419Z</time></trkpt><trkpt lat="43.6004909" lon="11.4117978"><ele>300.66666666666663</ele><time>2026-03-28T10:18:29.419Z</time></trkpt><trkpt lat="43.6005172" lon="11.4119053"><ele>299.3333333333333</ele><time>2026-03-28T10:18:30.419Z</time></trkpt><trkpt lat="43.6005518" lon="11.4120131"><ele>298.0</ele><time>2026-03-28T10:18:31.419Z</time></trkpt><trkpt lat="43.600606" lon="11.4120985"><ele>298.0</ele><time>2026-03-28T10:18:32.419Z</time></trkpt><trkpt lat="43.6006682" lon="11.4121335"><ele>298.0</ele><time>2026-03-28T10:18:33.419Z</time></trkpt><trkpt lat="43.6007419" lon="11.4121318"><ele>298.0</ele><time>2026-03-28T10:18:34.419Z</time></trkpt><trkpt lat="43.6008259" lon="11.4120959"><ele>298.0</ele><time>2026-03-28T10:18:35.419Z</time></trkpt><trkpt lat="43.6009096" lon="11.4120458"><ele>298.0</ele><time>2026-03-28T10:18:36.419Z</time></trkpt><trkpt lat="43.6009911" lon="11.4119874"><ele>298.0</ele><time>2026-03-28T10:18:37.419Z</time></trkpt><trkpt lat="43.6010686" lon="11.4119457"><ele>298.0</ele><time>2026-03-28T10:18:38.419Z</time></trkpt><trkpt lat="43.6011416" lon="11.411906"><ele>298.0</ele><time>2026-03-28T10:18:39.419Z</time></trkpt><trkpt lat="43.6012091" lon="11.4118779"><ele>298.0</ele><time>2026-03-28T10:18:40.419Z</time></trkpt><trkpt lat="43.6012842" lon="11.4118608"><ele>298.0</ele><time>2026-03-28T10:18:41.419Z</time></trkpt><trkpt lat="43.601354" lon="11.4119132"><ele>298.0</ele><time>2026-03-28T10:18:42.419Z</time></trkpt><trkpt lat="43.6013875" lon="11.4120115"><ele>298.0</ele><time>2026-03-28T10:18:43.419Z</time></trkpt><trkpt lat="43.6014021" lon="11.4121467"><ele>297.8333333333333</ele><time>2026-03-28T10:18:44.419Z</time></trkpt><trkpt lat="43.6013981" lon="11.4122718"><ele>297.66666666666663</ele><time>2026-03-28T10:18:45.42Z</time></trkpt><trkpt lat="43.6013826" lon="11.4123897"><ele>297.5</ele><time>2026-03-28T10:18:46.419Z</time></trkpt><trkpt lat="43.6013706" lon="11.412505"><ele>297.3333333333333</ele><time>2026-03-28T10:18:47.419Z</time></trkpt><trkpt lat="43.6013726" lon="11.4126214"><ele>297.1666666666667</ele><time>2026-03-28T10:18:48.419Z</time></trkpt><trkpt lat="43.6013944" lon="11.4127265"><ele>297.0</ele><time>2026-03-28T10:18:49.419Z</time></trkpt><trkpt lat="43.6014295" lon="11.4128295"><ele>297.0</ele><time>2026-03-28T10:18:50.419Z</time></trkpt><trkpt lat="43.6015299" lon="11.4128737"><ele>297.0</ele><time>2026-03-28T10:18:52.419Z</time></trkpt><trkpt lat="43.6016111" lon="11.4128482"><ele>297.0</ele><time>2026-03-28T10:18:53.419Z</time></trkpt><trkpt lat="43.6016951" lon="11.4128483"><ele>297.0</ele><time>2026-03-28T10:18:54.419Z</time></trkpt><trkpt lat="43.6017811" lon="11.4128812"><ele>297.0</ele><time>2026-03-28T10:18:55.419Z</time></trkpt><trkpt lat="43.6018628" lon="11.4129679"><ele>296.6</ele><time>2026-03-28T10:18:56.419Z</time></trkpt><trkpt lat="43.6019219" lon="11.4130838"><ele>296.2</ele><time>2026-03-28T10:18:57.419Z</time></trkpt><trkpt lat="43.6019512" lon="11.4132102"><ele>295.8</ele><time>2026-03-28T10:18:58.419Z</time></trkpt><trkpt lat="43.6019584" lon="11.4133356"><ele>295.4</ele><time>2026-03-28T10:18:59.419Z</time></trkpt><trkpt lat="43.6019512" lon="11.4134676"><ele>295.0</ele><time>2026-03-28T10:19:00.419Z</time></trkpt><trkpt lat="43.6019343" lon="11.4135988"><ele>295.0</ele><time>2026-03-28T10:19:01.419Z</time></trkpt><trkpt lat="43.6019258" lon="11.4137201"><ele>295.0</ele><time>2026-03-28T10:19:02.419Z</time></trkpt><trkpt lat="43.6019235" lon="11.4138396"><ele>295.0</ele><time>2026-03-28T10:19:03.419Z</time></trkpt><trkpt lat="43.601926" lon="11.4139673"><ele>295.0</ele><time>2026-03-28T10:19:04.419Z</time></trkpt><trkpt lat="43.6019324" lon="11.4141"><ele>295.0</ele><time>2026-03-28T10:19:05.419Z</time></trkpt><trkpt lat="43.6019449" lon="11.4142372"><ele>295.8</ele><time>2026-03-28T10:19:06.419Z</time></trkpt><trkpt lat="43.6019618" lon="11.4143767"><ele>296.6</ele><time>2026-03-28T10:19:07.419Z</time></trkpt><trkpt lat="43.6019774" lon="11.4145281"><ele>297.4</ele><time>2026-03-28T10:19:08.419Z</time></trkpt><trkpt lat="43.6019919" lon="11.4146724"><ele>298.2</ele><time>2026-03-28T10:19:09.419Z</time></trkpt><trkpt lat="43.6019926" lon="11.4148348"><ele>299.0</ele><time>2026-03-28T10:19:10.419Z</time></trkpt><trkpt lat="43.601985" lon="11.4149942"><ele>300.5</ele><time>2026-03-28T10:19:11.419Z</time></trkpt><trkpt lat="43.6019707" lon="11.415154"><ele>302.0</ele><time>2026-03-28T10:19:12.419Z</time></trkpt><trkpt lat="43.6019615" lon="11.415317"><ele>303.5</ele><time>2026-03-28T10:19:13.419Z</time></trkpt><trkpt lat="43.6019439" lon="11.415484"><ele>305.0</ele><time>2026-03-28T10:19:14.419Z</time></trkpt><trkpt lat="43.6019245" lon="11.4156544"><ele>305.25</ele><time>2026-03-28T10:19:15.419Z</time></trkpt><trkpt lat="43.6019047" lon="11.4158349"><ele>305.5</ele><time>2026-03-28T10:19:16.419Z</time></trkpt><trkpt lat="43.6018857" lon="11.4160283"><ele>305.75</ele><time>2026-03-28T10:19:17.419Z</time></trkpt><trkpt lat="43.6018638" lon="11.4162271"><ele>306.0</ele><time>2026-03-28T10:19:18.419Z</time></trkpt><trkpt lat="43.6018471" lon="11.4164121"><ele>306.0</ele><time>2026-03-28T10:19:19.419Z</time></trkpt><trkpt lat="43.6018304" lon="11.4165664"><ele>306.0</ele><time>2026-03-28T10:19:20.419Z</time></trkpt><trkpt lat="43.6018195" lon="11.4167073"><ele>306.0</ele><time>2026-03-28T10:19:21.419Z</time></trkpt><trkpt lat="43.6018083" lon="11.4168446"><ele>306.0</ele><time>2026-03-28T10:19:22.419Z</time></trkpt><trkpt lat="43.6018042" lon="11.4169674"><ele>306.0</ele><time>2026-03-28T10:19:23.419Z</time></trkpt><trkpt lat="43.6018173" lon="11.4170877"><ele>305.6666666666667</ele><time>2026-03-28T10:19:24.419Z</time></trkpt><trkpt lat="43.6018574" lon="11.4171998"><ele>305.3333333333333</ele><time>2026-03-28T10:19:25.419Z</time></trkpt><trkpt lat="43.6019138" lon="11.4172916"><ele>305.0</ele><time>2026-03-28T10:19:26.419Z</time></trkpt><trkpt lat="43.6019739" lon="11.4173566"><ele>304.66666666666663</ele><time>2026-03-28T10:19:27.419Z</time></trkpt><trkpt lat="43.6020245" lon="11.4174161"><ele>304.3333333333333</ele><time>2026-03-28T10:19:28.419Z</time></trkpt><trkpt lat="43.602058" lon="11.417561"><ele>304.0</ele><time>2026-03-28T10:19:30.419Z</time></trkpt><trkpt lat="43.6020352" lon="11.4176464"><ele>304.0</ele><time>2026-03-28T10:19:31.419Z</time></trkpt><trkpt lat="43.6020024" lon="11.4177639"><ele>304.0</ele><time>2026-03-28T10:19:32.419Z</time></trkpt><trkpt lat="43.6019609" lon="11.4179073"><ele>304.0</ele><time>2026-03-28T10:19:33.419Z</time></trkpt><trkpt lat="43.6019079" lon="11.4180515"><ele>304.0</ele><time>2026-03-28T10:19:34.419Z</time></trkpt><trkpt lat="43.6018275" lon="11.4181986"><ele>304.25</ele><time>2026-03-28T10:19:35.419Z</time></trkpt><trkpt lat="43.6017401" lon="11.4183352"><ele>304.5</ele><time>2026-03-28T10:19:36.419Z</time></trkpt><trkpt lat="43.6016515" lon="11.4184644"><ele>304.75</ele><time>2026-03-28T10:19:37.419Z</time></trkpt><trkpt lat="43.6015649" lon="11.418584"><ele>305.0</ele><time>2026-03-28T10:19:38.419Z</time></trkpt><trkpt lat="43.6014896" lon="11.4187051"><ele>305.4</ele><time>2026-03-28T10:19:39.419Z</time></trkpt><trkpt lat="43.6014185" lon="11.4188371"><ele>305.8</ele><time>2026-03-28T10:19:40.419Z</time></trkpt><trkpt lat="43.6013567" lon="11.4189822"><ele>306.2</ele><time>2026-03-28T10:19:41.419Z</time></trkpt><trkpt lat="43.6013078" lon="11.4191193"><ele>306.6</ele><time>2026-03-28T10:19:42.419Z</time></trkpt><trkpt lat="43.6012707" lon="11.4192439"><ele>307.0</ele><time>2026-03-28T10:19:43.419Z</time></trkpt><trkpt lat="43.6012405" lon="11.4193564"><ele>307.0</ele><time>2026-03-28T10:19:44.419Z</time></trkpt><trkpt lat="43.6012189" lon="11.4194501"><ele>307.0</ele><time>2026-03-28T10:19:45.419Z</time></trkpt><trkpt lat="43.601193" lon="11.4195302"><ele>307.0</ele><time>2026-03-28T10:19:46.419Z</time></trkpt><trkpt lat="43.6011373" lon="11.4195918"><ele>307.0</ele><time>2026-03-28T10:19:47.419Z</time></trkpt><trkpt lat="43.6010546" lon="11.4196047"><ele>307.0</ele><time>2026-03-28T10:19:48.419Z</time></trkpt><trkpt lat="43.6009643" lon="11.4195881"><ele>307.0</ele><time>2026-03-28T10:19:49.419Z</time></trkpt><trkpt lat="43.6008633" lon="11.4195584"><ele>305.8</ele><time>2026-03-28T10:19:50.419Z</time></trkpt><trkpt lat="43.6007704" lon="11.4195299"><ele>304.6</ele><time>2026-03-28T10:19:51.419Z</time></trkpt><trkpt lat="43.6006758" lon="11.4195004"><ele>303.40000000000003</ele><time>2026-03-28T10:19:52.419Z</time></trkpt><trkpt lat="43.6005979" lon="11.4194825"><ele>302.2</ele><time>2026-03-28T10:19:53.419Z</time></trkpt><trkpt lat="43.6004879" lon="11.4195347"><ele>301.0</ele><time>2026-03-28T10:19:55.419Z</time></trkpt><trkpt lat="43.6004527" lon="11.4196477"><ele>301.0</ele><time>2026-03-28T10:19:56.419Z</time></trkpt><trkpt lat="43.600417" lon="11.4198192"><ele>301.0</ele><time>2026-03-28T10:19:57.419Z</time></trkpt><trkpt lat="43.6003791" lon="11.4200049"><ele>301.0</ele><time>2026-03-28T10:19:58.419Z</time></trkpt><trkpt lat="43.6003335" lon="11.4201904"><ele>301.0</ele><time>2026-03-28T10:19:59.419Z</time></trkpt><trkpt lat="43.6002882" lon="11.4203718"><ele>298.75</ele><time>2026-03-28T10:20:00.419Z</time></trkpt><trkpt lat="43.6002395" lon="11.4205563"><ele>296.5</ele><time>2026-03-28T10:20:01.419Z</time></trkpt><trkpt lat="43.6001992" lon="11.4207416"><ele>294.25</ele><time>2026-03-28T10:20:02.419Z</time></trkpt><trkpt lat="43.6001615" lon="11.4209218"><ele>292.0</ele><time>2026-03-28T10:20:03.419Z</time></trkpt><trkpt lat="43.6001208" lon="11.421097"><ele>292.0</ele><time>2026-03-28T10:20:04.419Z</time></trkpt><trkpt lat="43.600076" lon="11.4212736"><ele>292.0</ele><time>2026-03-28T10:20:05.419Z</time></trkpt><trkpt lat="43.6000332" lon="11.4214543"><ele>292.0</ele><time>2026-03-28T10:20:06.419Z</time></trkpt><trkpt lat="43.5999865" lon="11.4216353"><ele>292.0</ele><time>2026-03-28T10:20:07.419Z</time></trkpt><trkpt lat="43.5999321" lon="11.4218273"><ele>291.66666666666663</ele><time>2026-03-28T10:20:08.419Z</time></trkpt><trkpt lat="43.5998789" lon="11.4220263"><ele>291.3333333333333</ele><time>2026-03-28T10:20:09.419Z</time></trkpt><trkpt lat="43.5998296" lon="11.4222245"><ele>291.0</ele><time>2026-03-28T10:20:10.419Z</time></trkpt><trkpt lat="43.5997791" lon="11.4224199"><ele>290.3333333333333</ele><time>2026-03-28T10:20:11.419Z</time></trkpt><trkpt lat="43.5997272" lon="11.4226227"><ele>289.66666666666663</ele><time>2026-03-28T10:20:12.419Z</time></trkpt><trkpt lat="43.599676" lon="11.4228281"><ele>289.0</ele><time>2026-03-28T10:20:13.419Z</time></trkpt><trkpt lat="43.5996242" lon="11.423027"><ele>288.75</ele><time>2026-03-28T10:20:14.419Z</time></trkpt><trkpt lat="43.5995751" lon="11.4232269"><ele>288.5</ele><time>2026-03-28T10:20:15.419Z</time></trkpt><trkpt lat="43.5995323" lon="11.4234105"><ele>288.25</ele><time>2026-03-28T10:20:16.419Z</time></trkpt><trkpt lat="43.5994943" lon="11.4235792"><ele>288.0</ele><time>2026-03-28T10:20:17.419Z</time></trkpt><trkpt lat="43.5994524" lon="11.4237317"><ele>287.75</ele><time>2026-03-28T10:20:18.419Z</time></trkpt><trkpt lat="43.5994157" lon="11.4238874"><ele>287.5</ele><time>2026-03-28T10:20:19.419Z</time></trkpt><trkpt lat="43.5993983" lon="11.424049"><ele>287.25</ele><time>2026-03-28T10:20:20.419Z</time></trkpt><trkpt lat="43.5993898" lon="11.4242231"><ele>287.0</ele><time>2026-03-28T10:20:21.419Z</time></trkpt><trkpt lat="43.5994003" lon="11.4244104"><ele>287.0</ele><time>2026-03-28T10:20:22.419Z</time></trkpt><trkpt lat="43.5994212" lon="11.4246136"><ele>287.0</ele><time>2026-03-28T10:20:23.419Z</time></trkpt><trkpt lat="43.5994461" lon="11.424815"><ele>287.0</ele><time>2026-03-28T10:20:24.419Z</time></trkpt><trkpt lat="43.599464" lon="11.4250166"><ele>287.0</ele><time>2026-03-28T10:20:25.419Z</time></trkpt><trkpt lat="43.5994788" lon="11.4252049"><ele>285.5</ele><time>2026-03-28T10:20:26.419Z</time></trkpt><trkpt lat="43.5994861" lon="11.4253834"><ele>284.0</ele><time>2026-03-28T10:20:27.419Z</time></trkpt><trkpt lat="43.5994807" lon="11.4255427"><ele>282.5</ele><time>2026-03-28T10:20:28.419Z</time></trkpt><trkpt lat="43.5994645" lon="11.4257114"><ele>281.0</ele><time>2026-03-28T10:20:29.419Z</time></trkpt><trkpt lat="43.5994458" lon="11.4258855"><ele>280.75</ele><time>2026-03-28T10:20:30.419Z</time></trkpt><trkpt lat="43.5994155" lon="11.4260692"><ele>280.5</ele><time>2026-03-28T10:20:31.419Z</time></trkpt><trkpt lat="43.5993816" lon="11.4262594"><ele>280.25</ele><time>2026-03-28T10:20:32.419Z</time></trkpt><trkpt lat="43.5993442" lon="11.4264495"><ele>280.0</ele><time>2026-03-28T10:20:33.419Z</time></trkpt><trkpt lat="43.5993117" lon="11.4266396"><ele>281.0</ele><time>2026-03-28T10:20:34.419Z</time></trkpt><trkpt lat="43.599286" lon="11.4268225"><ele>282.0</ele><time>2026-03-28T10:20:35.419Z</time></trkpt><trkpt lat="43.59927" lon="11.427021"><ele>283.0</ele><time>2026-03-28T10:20:36.419Z</time></trkpt><trkpt lat="43.5992594" lon="11.4272218"><ele>284.0</ele><time>2026-03-28T10:20:37.419Z</time></trkpt><trkpt lat="43.599257" lon="11.427429"><ele>284.6666666666667</ele><time>2026-03-28T10:20:38.419Z</time></trkpt><trkpt lat="43.5992645" lon="11.4276477"><ele>285.3333333333333</ele><time>2026-03-28T10:20:39.419Z</time></trkpt><trkpt lat="43.5992787" lon="11.4278649"><ele>286.0</ele><time>2026-03-28T10:20:40.419Z</time></trkpt><trkpt lat="43.5992868" lon="11.428085"><ele>286.66666666666663</ele><time>2026-03-28T10:20:41.419Z</time></trkpt><trkpt lat="43.5992948" lon="11.4283002"><ele>287.3333333333333</ele><time>2026-03-28T10:20:42.419Z</time></trkpt><trkpt lat="43.5992999" lon="11.4285049"><ele>288.0</ele><time>2026-03-28T10:20:43.419Z</time></trkpt><trkpt lat="43.5993048" lon="11.4287063"><ele>288.3333333333333</ele><time>2026-03-28T10:20:44.419Z</time></trkpt><trkpt lat="43.5992949" lon="11.4289121"><ele>288.66666666666663</ele><time>2026-03-28T10:20:45.419Z</time></trkpt><trkpt lat="43.599271" lon="11.4291239"><ele>289.0</ele><time>2026-03-28T10:20:46.419Z</time></trkpt><trkpt lat="43.5992251" lon="11.4293314"><ele>289.0</ele><time>2026-03-28T10:20:47.419Z</time></trkpt><trkpt lat="43.5991684" lon="11.4295311"><ele>289.0</ele><time>2026-03-28T10:20:48.419Z</time></trkpt><trkpt lat="43.599109" lon="11.4297285"><ele>289.0</ele><time>2026-03-28T10:20:49.419Z</time></trkpt><trkpt lat="43.5990543" lon="11.4299243"><ele>289.0</ele><time>2026-03-28T10:20:50.419Z</time></trkpt><trkpt lat="43.5990018" lon="11.4301087"><ele>289.0</ele><time>2026-03-28T10:20:51.419Z</time></trkpt><trkpt lat="43.5989506" lon="11.4302801"><ele>289.0</ele><time>2026-03-28T10:20:52.419Z</time></trkpt><trkpt lat="43.598899" lon="11.4304527"><ele>289.0</ele><time>2026-03-28T10:20:53.419Z</time></trkpt><trkpt lat="43.5988464" lon="11.4306341"><ele>289.0</ele><time>2026-03-28T10:20:54.419Z</time></trkpt><trkpt lat="43.5987957" lon="11.4308263"><ele>289.0</ele><time>2026-03-28T10:20:55.419Z</time></trkpt><trkpt lat="43.5987463" lon="11.4310176"><ele>289.0</ele><time>2026-03-28T10:20:56.42Z</time></trkpt><trkpt lat="43.5987066" lon="11.4311989"><ele>289.0</ele><time>2026-03-28T10:20:57.419Z</time></trkpt><trkpt lat="43.598671" lon="11.4313888"><ele>286.0</ele><time>2026-03-28T10:20:58.419Z</time></trkpt><trkpt lat="43.5986401" lon="11.431584"><ele>283.0</ele><time>2026-03-28T10:20:59.419Z</time></trkpt><trkpt lat="43.5986053" lon="11.4317927"><ele>280.0</ele><time>2026-03-28T10:21:00.419Z</time></trkpt><trkpt lat="43.5985688" lon="11.4320102"><ele>280.0</ele><time>2026-03-28T10:21:01.419Z</time></trkpt><trkpt lat="43.5985354" lon="11.4322305"><ele>280.0</ele><time>2026-03-28T10:21:02.419Z</time></trkpt><trkpt lat="43.5984987" lon="11.4324513"><ele>280.0</ele><time>2026-03-28T10:21:03.419Z</time></trkpt><trkpt lat="43.5984607" lon="11.4326634"><ele>280.0</ele><time>2026-03-28T10:21:04.419Z</time></trkpt><trkpt lat="43.598421" lon="11.4328628"><ele>280.0</ele><time>2026-03-28T10:21:05.419Z</time></trkpt><trkpt lat="43.5983851" lon="11.433052"><ele>280.0</ele><time>2026-03-28T10:21:06.419Z</time></trkpt><trkpt lat="43.5983462" lon="11.4332333"><ele>280.0</ele><time>2026-03-28T10:21:07.419Z</time></trkpt><trkpt lat="43.5983028" lon="11.4334192"><ele>279.66666666666663</ele><time>2026-03-28T10:21:08.419Z</time></trkpt><trkpt lat="43.5982582" lon="11.4336172"><ele>279.3333333333333</ele><time>2026-03-28T10:21:09.419Z</time></trkpt><trkpt lat="43.5982141" lon="11.4338255"><ele>279.0</ele><time>2026-03-28T10:21:10.419Z</time></trkpt><trkpt lat="43.5981738" lon="11.4340363"><ele>279.75</ele><time>2026-03-28T10:21:11.419Z</time></trkpt><trkpt lat="43.5981364" lon="11.4342344"><ele>280.5</ele><time>2026-03-28T10:21:12.419Z</time></trkpt><trkpt lat="43.5981018" lon="11.4344149"><ele>281.25</ele><time>2026-03-28T10:21:13.419Z</time></trkpt><trkpt lat="43.5980743" lon="11.434599"><ele>282.0</ele><time>2026-03-28T10:21:14.419Z</time></trkpt><trkpt lat="43.5980356" lon="11.4347822"><ele>282.0</ele><time>2026-03-28T10:21:15.419Z</time></trkpt><trkpt lat="43.5980031" lon="11.4349593"><ele>282.0</ele><time>2026-03-28T10:21:16.419Z</time></trkpt><trkpt lat="43.5979776" lon="11.4351493"><ele>282.0</ele><time>2026-03-28T10:21:17.419Z</time></trkpt><trkpt lat="43.5979461" lon="11.4353473"><ele>282.0</ele><time>2026-03-28T10:21:18.419Z</time></trkpt><trkpt lat="43.5979122" lon="11.4355483"><ele>282.0</ele><time>2026-03-28T10:21:19.419Z</time></trkpt><trkpt lat="43.5978768" lon="11.4357587"><ele>282.0</ele><time>2026-03-28T10:21:20.419Z</time></trkpt><trkpt lat="43.59785" lon="11.4359698"><ele>282.0</ele><time>2026-03-28T10:21:21.419Z</time></trkpt><trkpt lat="43.5978334" lon="11.4361774"><ele>281.0</ele><time>2026-03-28T10:21:22.419Z</time></trkpt><trkpt lat="43.5978209" lon="11.4363966"><ele>280.0</ele><time>2026-03-28T10:21:23.419Z</time></trkpt><trkpt lat="43.5978169" lon="11.4365856"><ele>279.0</ele><time>2026-03-28T10:21:24.419Z</time></trkpt><trkpt lat="43.5978169" lon="11.4367599"><ele>278.0</ele><time>2026-03-28T10:21:25.419Z</time></trkpt><trkpt lat="43.5978211" lon="11.4369238"><ele>278.0</ele><time>2026-03-28T10:21:26.419Z</time></trkpt><trkpt lat="43.5978276" lon="11.4370697"><ele>278.0</ele><time>2026-03-28T10:21:27.419Z</time></trkpt><trkpt lat="43.5978324" lon="11.437236"><ele>278.0</ele><time>2026-03-28T10:21:28.419Z</time></trkpt><trkpt lat="43.5978308" lon="11.4374177"><ele>278.0</ele><time>2026-03-28T10:21:29.419Z</time></trkpt><trkpt lat="43.5978241" lon="11.4375934"><ele>278.25</ele><time>2026-03-28T10:21:30.42Z</time></trkpt><trkpt lat="43.5978078" lon="11.4377611"><ele>278.5</ele><time>2026-03-28T10:21:31.419Z</time></trkpt><trkpt lat="43.5977893" lon="11.4379364"><ele>278.75</ele><time>2026-03-28T10:21:32.419Z</time></trkpt><trkpt lat="43.5977659" lon="11.4381269"><ele>279.0</ele><time>2026-03-28T10:21:33.419Z</time></trkpt><trkpt lat="43.597732" lon="11.4383381"><ele>279.0</ele><time>2026-03-28T10:21:34.419Z</time></trkpt><trkpt lat="43.5976973" lon="11.4385561"><ele>279.0</ele><time>2026-03-28T10:21:35.419Z</time></trkpt><trkpt lat="43.5976676" lon="11.4387685"><ele>279.0</ele><time>2026-03-28T10:21:36.419Z</time></trkpt><trkpt lat="43.5976363" lon="11.4389674"><ele>278.5</ele><time>2026-03-28T10:21:37.419Z</time></trkpt><trkpt lat="43.5975985" lon="11.4391625"><ele>278.0</ele><time>2026-03-28T10:21:38.419Z</time></trkpt><trkpt lat="43.5975678" lon="11.4393515"><ele>277.5</ele><time>2026-03-28T10:21:39.419Z</time></trkpt><trkpt lat="43.5975361" lon="11.4395385"><ele>277.0</ele><time>2026-03-28T10:21:40.419Z</time></trkpt><trkpt lat="43.5975082" lon="11.4397212"><ele>276.25</ele><time>2026-03-28T10:21:41.419Z</time></trkpt><trkpt lat="43.597481" lon="11.4398973"><ele>275.5</ele><time>2026-03-28T10:21:42.419Z</time></trkpt><trkpt lat="43.5974489" lon="11.4400829"><ele>274.75</ele><time>2026-03-28T10:21:43.42Z</time></trkpt><trkpt lat="43.5974173" lon="11.4402639"><ele>274.0</ele><time>2026-03-28T10:21:44.419Z</time></trkpt><trkpt lat="43.5973908" lon="11.440433"><ele>274.0</ele><time>2026-03-28T10:21:45.419Z</time></trkpt><trkpt lat="43.5973673" lon="11.4405873"><ele>274.0</ele><time>2026-03-28T10:21:46.419Z</time></trkpt><trkpt lat="43.5973492" lon="11.4407277"><ele>274.0</ele><time>2026-03-28T10:21:47.419Z</time></trkpt><trkpt lat="43.5973295" lon="11.4408735"><ele>274.0</ele><time>2026-03-28T10:21:48.419Z</time></trkpt><trkpt lat="43.5973109" lon="11.441023"><ele>274.0</ele><time>2026-03-28T10:21:49.419Z</time></trkpt><trkpt lat="43.5972892" lon="11.4411669"><ele>274.0</ele><time>2026-03-28T10:21:50.419Z</time></trkpt><trkpt lat="43.5972669" lon="11.4413002"><ele>274.0</ele><time>2026-03-28T10:21:51.419Z</time></trkpt><trkpt lat="43.5972516" lon="11.4414326"><ele>274.0</ele><time>2026-03-28T10:21:52.419Z</time></trkpt><trkpt lat="43.5972494" lon="11.4415852"><ele>274.0</ele><time>2026-03-28T10:21:53.419Z</time></trkpt><trkpt lat="43.5972603" lon="11.441761"><ele>274.0</ele><time>2026-03-28T10:21:54.419Z</time></trkpt><trkpt lat="43.5972865" lon="11.4419514"><ele>273.25</ele><time>2026-03-28T10:21:55.419Z</time></trkpt><trkpt lat="43.597309" lon="11.4421535"><ele>272.5</ele><time>2026-03-28T10:21:56.419Z</time></trkpt><trkpt lat="43.5973352" lon="11.4423438"><ele>271.75</ele><time>2026-03-28T10:21:57.419Z</time></trkpt><trkpt lat="43.5973608" lon="11.4425272"><ele>271.0</ele><time>2026-03-28T10:21:58.419Z</time></trkpt><trkpt lat="43.5973908" lon="11.4426804"><ele>271.0</ele><time>2026-03-28T10:21:59.42Z</time></trkpt><trkpt lat="43.5974075" lon="11.4427987"><ele>271.0</ele><time>2026-03-28T10:22:00.419Z</time></trkpt><trkpt lat="43.597421" lon="11.4428983"><ele>271.0</ele><time>2026-03-28T10:22:01.419Z</time></trkpt><trkpt lat="43.5975143" lon="11.4430199"><ele>271.0</ele><time>2026-03-28T10:22:03.419Z</time></trkpt><trkpt lat="43.5976009" lon="11.4430584"><ele>271.0</ele><time>2026-03-28T10:22:04.419Z</time></trkpt><trkpt lat="43.5976919" lon="11.4431052"><ele>271.2</ele><time>2026-03-28T10:22:05.419Z</time></trkpt><trkpt lat="43.5977779" lon="11.4431554"><ele>271.40000000000003</ele><time>2026-03-28T10:22:06.419Z</time></trkpt><trkpt lat="43.59786" lon="11.4432093"><ele>271.6</ele><time>2026-03-28T10:22:07.419Z</time></trkpt><trkpt lat="43.5979513" lon="11.4432534"><ele>271.8</ele><time>2026-03-28T10:22:08.419Z</time></trkpt><trkpt lat="43.5980468" lon="11.4432969"><ele>272.0</ele><time>2026-03-28T10:22:09.419Z</time></trkpt><trkpt lat="43.5981576" lon="11.4433448"><ele>272.0</ele><time>2026-03-28T10:22:10.419Z</time></trkpt><trkpt lat="43.5982768" lon="11.4433931"><ele>272.0</ele><time>2026-03-28T10:22:11.419Z</time></trkpt><trkpt lat="43.5983976" lon="11.4434156"><ele>272.0</ele><time>2026-03-28T10:22:12.419Z</time></trkpt><trkpt lat="43.5985207" lon="11.4434062"><ele>272.0</ele><time>2026-03-28T10:22:13.419Z</time></trkpt><trkpt lat="43.5986558" lon="11.4433563"><ele>272.0</ele><time>2026-03-28T10:22:14.419Z</time></trkpt><trkpt lat="43.5987929" lon="11.443295"><ele>272.0</ele><time>2026-03-28T10:22:15.419Z</time></trkpt><trkpt lat="43.598928" lon="11.4432409"><ele>272.0</ele><time>2026-03-28T10:22:16.419Z</time></trkpt><trkpt lat="43.5990786" lon="11.4432062"><ele>272.0</ele><time>2026-03-28T10:22:17.419Z</time></trkpt><trkpt lat="43.5992355" lon="11.4432004"><ele>272.0</ele><time>2026-03-28T10:22:18.419Z</time></trkpt><trkpt lat="43.5994076" lon="11.4432189"><ele>272.0</ele><time>2026-03-28T10:22:19.419Z</time></trkpt><trkpt lat="43.5995829" lon="11.4432394"><ele>272.0</ele><time>2026-03-28T10:22:20.419Z</time></trkpt><trkpt lat="43.5997653" lon="11.4432729"><ele>271.33333333333337</ele><time>2026-03-28T10:22:21.419Z</time></trkpt><trkpt lat="43.5999512" lon="11.4433211"><ele>270.6666666666667</ele><time>2026-03-28T10:22:22.419Z</time></trkpt><trkpt lat="43.6001364" lon="11.4433725"><ele>270.0</ele><time>2026-03-28T10:22:23.419Z</time></trkpt><trkpt lat="43.6003237" lon="11.4434315"><ele>270.3333333333333</ele><time>2026-03-28T10:22:24.419Z</time></trkpt><trkpt lat="43.6005092" lon="11.4434941"><ele>270.66666666666663</ele><time>2026-03-28T10:22:25.419Z</time></trkpt><trkpt lat="43.6006916" lon="11.4435461"><ele>271.0</ele><time>2026-03-28T10:22:26.419Z</time></trkpt><trkpt lat="43.6008557" lon="11.4435939"><ele>271.0</ele><time>2026-03-28T10:22:27.419Z</time></trkpt><trkpt lat="43.6010128" lon="11.4436468"><ele>271.0</ele><time>2026-03-28T10:22:28.419Z</time></trkpt><trkpt lat="43.6011724" lon="11.4436954"><ele>271.0</ele><time>2026-03-28T10:22:29.419Z</time></trkpt><trkpt lat="43.601335" lon="11.4437469"><ele>270.3333333333333</ele><time>2026-03-28T10:22:30.419Z</time></trkpt><trkpt lat="43.6014981" lon="11.4437919"><ele>269.6666666666667</ele><time>2026-03-28T10:22:31.419Z</time></trkpt><trkpt lat="43.6016552" lon="11.4438318"><ele>269.0</ele><time>2026-03-28T10:22:32.419Z</time></trkpt><trkpt lat="43.6017973" lon="11.4438698"><ele>269.0</ele><time>2026-03-28T10:22:33.419Z</time></trkpt><trkpt lat="43.6019398" lon="11.4439222"><ele>269.0</ele><time>2026-03-28T10:22:34.419Z</time></trkpt><trkpt lat="43.6020751" lon="11.4439643"><ele>269.0</ele><time>2026-03-28T10:22:35.419Z</time></trkpt><trkpt lat="43.6022035" lon="11.4440086"><ele>269.0</ele><time>2026-03-28T10:22:36.419Z</time></trkpt><trkpt lat="43.6023212" lon="11.4440671"><ele>268.75</ele><time>2026-03-28T10:22:37.419Z</time></trkpt><trkpt lat="43.6024282" lon="11.4441619"><ele>268.5</ele><time>2026-03-28T10:22:38.419Z</time></trkpt><trkpt lat="43.6025307" lon="11.4443029"><ele>268.25</ele><time>2026-03-28T10:22:39.419Z</time></trkpt><trkpt lat="43.6026111" lon="11.4444552"><ele>268.0</ele><time>2026-03-28T10:22:40.419Z</time></trkpt><trkpt lat="43.6026752" lon="11.4446069"><ele>267.5</ele><time>2026-03-28T10:22:41.419Z</time></trkpt><trkpt lat="43.6027573" lon="11.4447399"><ele>267.0</ele><time>2026-03-28T10:22:42.419Z</time></trkpt><trkpt lat="43.6028622" lon="11.4448518"><ele>266.5</ele><time>2026-03-28T10:22:43.419Z</time></trkpt><trkpt lat="43.6029782" lon="11.4449383"><ele>266.0</ele><time>2026-03-28T10:22:44.419Z</time></trkpt><trkpt lat="43.6030953" lon="11.4450084"><ele>265.25</ele><time>2026-03-28T10:22:45.419Z</time></trkpt><trkpt lat="43.6032168" lon="11.4450766"><ele>264.5</ele><time>2026-03-28T10:22:46.419Z</time></trkpt><trkpt lat="43.6033181" lon="11.4451592"><ele>263.75</ele><time>2026-03-28T10:22:47.419Z</time></trkpt><trkpt lat="43.6033987" lon="11.4452705"><ele>263.0</ele><time>2026-03-28T10:22:48.419Z</time></trkpt><trkpt lat="43.6034953" lon="11.4454127"><ele>261.25</ele><time>2026-03-28T10:22:49.419Z</time></trkpt><trkpt lat="43.6035711" lon="11.4455832"><ele>259.5</ele><time>2026-03-28T10:22:50.419Z</time></trkpt><trkpt lat="43.6036329" lon="11.4457635"><ele>257.75</ele><time>2026-03-28T10:22:51.419Z</time></trkpt><trkpt lat="43.6036845" lon="11.4459503"><ele>256.0</ele><time>2026-03-28T10:22:52.419Z</time></trkpt><trkpt lat="43.6037281" lon="11.4461515"><ele>256.2</ele><time>2026-03-28T10:22:53.419Z</time></trkpt><trkpt lat="43.6037452" lon="11.446333"><ele>256.40000000000003</ele><time>2026-03-28T10:22:54.419Z</time></trkpt><trkpt lat="43.6037487" lon="11.4464734"><ele>256.6</ele><time>2026-03-28T10:22:55.419Z</time></trkpt><trkpt lat="43.6037429" lon="11.4465962"><ele>256.8</ele><time>2026-03-28T10:22:56.419Z</time></trkpt><trkpt lat="43.603719" lon="11.4467279"><ele>257.0</ele><time>2026-03-28T10:22:57.419Z</time></trkpt><trkpt lat="43.6036483" lon="11.4468305"><ele>256.2</ele><time>2026-03-28T10:22:58.419Z</time></trkpt><trkpt lat="43.60355" lon="11.4468941"><ele>255.39999999999998</ele><time>2026-03-28T10:22:59.419Z</time></trkpt><trkpt lat="43.6034368" lon="11.4469034"><ele>254.60000000000002</ele><time>2026-03-28T10:23:00.419Z</time></trkpt><trkpt lat="43.6033356" lon="11.4469269"><ele>253.8</ele><time>2026-03-28T10:23:01.419Z</time></trkpt><trkpt lat="43.6032502" lon="11.4470045"><ele>253.0</ele><time>2026-03-28T10:23:02.419Z</time></trkpt><trkpt lat="43.6031905" lon="11.447128"><ele>250.5</ele><time>2026-03-28T10:23:03.419Z</time></trkpt><trkpt lat="43.6031867" lon="11.4472719"><ele>248.0</ele><time>2026-03-28T10:23:04.419Z</time></trkpt><trkpt lat="43.6032253" lon="11.447436"><ele>245.5</ele><time>2026-03-28T10:23:05.419Z</time></trkpt><trkpt lat="43.6033166" lon="11.4476099"><ele>243.0</ele><time>2026-03-28T10:23:06.419Z</time></trkpt><trkpt lat="43.6034065" lon="11.4477894"><ele>243.25</ele><time>2026-03-28T10:23:07.419Z</time></trkpt><trkpt lat="43.6035038" lon="11.4479655"><ele>243.5</ele><time>2026-03-28T10:23:08.419Z</time></trkpt><trkpt lat="43.6035849" lon="11.4481218"><ele>243.75</ele><time>2026-03-28T10:23:09.419Z</time></trkpt><trkpt lat="43.6036619" lon="11.4482687"><ele>244.0</ele><time>2026-03-28T10:23:10.419Z</time></trkpt><trkpt lat="43.6037375" lon="11.4484014"><ele>240.75</ele><time>2026-03-28T10:23:11.419Z</time></trkpt><trkpt lat="43.6038169" lon="11.4485271"><ele>237.5</ele><time>2026-03-28T10:23:12.419Z</time></trkpt><trkpt lat="43.6039025" lon="11.4486456"><ele>234.25</ele><time>2026-03-28T10:23:13.419Z</time></trkpt><trkpt lat="43.6040297" lon="11.4487042"><ele>231.0</ele><time>2026-03-28T10:23:14.419Z</time></trkpt><trkpt lat="43.6042452" lon="11.4487118"><ele>231.0</ele><time>2026-03-28T10:23:15.419Z</time></trkpt><trkpt lat="43.6044479" lon="11.4487289"><ele>231.0</ele><time>2026-03-28T10:23:16.419Z</time></trkpt><trkpt lat="43.6046318" lon="11.44875"><ele>231.0</ele><time>2026-03-28T10:23:17.419Z</time></trkpt><trkpt lat="43.6048056" lon="11.4487772"><ele>232.0</ele><time>2026-03-28T10:23:18.419Z</time></trkpt><trkpt lat="43.604982" lon="11.4488117"><ele>233.0</ele><time>2026-03-28T10:23:19.419Z</time></trkpt><trkpt lat="43.6051548" lon="11.4488738"><ele>234.0</ele><time>2026-03-28T10:23:20.419Z</time></trkpt><trkpt lat="43.6053064" lon="11.4489406"><ele>230.0</ele><time>2026-03-28T10:23:21.419Z</time></trkpt><trkpt lat="43.6054348" lon="11.4490065"><ele>226.0</ele><time>2026-03-28T10:23:22.419Z</time></trkpt><trkpt lat="43.6055466" lon="11.4491018"><ele>222.0</ele><time>2026-03-28T10:23:23.419Z</time></trkpt><trkpt lat="43.6056384" lon="11.4492572"><ele>218.0</ele><time>2026-03-28T10:23:24.419Z</time></trkpt><trkpt lat="43.6056973" lon="11.4494553"><ele>218.75</ele><time>2026-03-28T10:23:25.419Z</time></trkpt><trkpt lat="43.6057259" lon="11.4496527"><ele>219.5</ele><time>2026-03-28T10:23:26.419Z</time></trkpt><trkpt lat="43.6057337" lon="11.4498649"><ele>220.25</ele><time>2026-03-28T10:23:27.419Z</time></trkpt><trkpt lat="43.6057499" lon="11.4500426"><ele>221.0</ele><time>2026-03-28T10:23:28.419Z</time></trkpt><trkpt lat="43.6057741" lon="11.4502072"><ele>221.0</ele><time>2026-03-28T10:23:29.419Z</time></trkpt><trkpt lat="43.6057995" lon="11.4503565"><ele>221.0</ele><time>2026-03-28T10:23:30.419Z</time></trkpt><trkpt lat="43.6058028" lon="11.4505074"><ele>221.0</ele><time>2026-03-28T10:23:31.419Z</time></trkpt><trkpt lat="43.6057655" lon="11.4506582"><ele>221.0</ele><time>2026-03-28T10:23:32.419Z</time></trkpt><trkpt lat="43.6057016" lon="11.4508145"><ele>220.0</ele><time>2026-03-28T10:23:33.419Z</time></trkpt><trkpt lat="43.6055987" lon="11.4509542"><ele>219.0</ele><time>2026-03-28T10:23:34.419Z</time></trkpt><trkpt lat="43.6054739" lon="11.4510844"><ele>218.0</ele><time>2026-03-28T10:23:35.419Z</time></trkpt><trkpt lat="43.605326" lon="11.4512004"><ele>217.75</ele><time>2026-03-28T10:23:36.419Z</time></trkpt><trkpt lat="43.6051858" lon="11.4512844"><ele>217.5</ele><time>2026-03-28T10:23:37.419Z</time></trkpt><trkpt lat="43.6050513" lon="11.451368"><ele>217.25</ele><time>2026-03-28T10:23:38.419Z</time></trkpt><trkpt lat="43.6049255" lon="11.4514556"><ele>217.0</ele><time>2026-03-28T10:23:39.419Z</time></trkpt><trkpt lat="43.6048059" lon="11.4515372"><ele>214.8</ele><time>2026-03-28T10:23:40.419Z</time></trkpt><trkpt lat="43.6046935" lon="11.4515939"><ele>212.6</ele><time>2026-03-28T10:23:41.419Z</time></trkpt><trkpt lat="43.6045907" lon="11.45159"><ele>210.4</ele><time>2026-03-28T10:23:42.419Z</time></trkpt><trkpt lat="43.6045067" lon="11.4515516"><ele>208.20000000000002</ele><time>2026-03-28T10:23:43.419Z</time></trkpt><trkpt lat="43.6044296" lon="11.4515885"><ele>206.0</ele><time>2026-03-28T10:23:45.419Z</time></trkpt><trkpt lat="43.604421" lon="11.4516749"><ele>206.0</ele><time>2026-03-28T10:23:46.419Z</time></trkpt><trkpt lat="43.6044749" lon="11.4517734"><ele>206.0</ele><time>2026-03-28T10:23:47.419Z</time></trkpt><trkpt lat="43.6045748" lon="11.4518565"><ele>206.0</ele><time>2026-03-28T10:23:48.419Z</time></trkpt><trkpt lat="43.6046856" lon="11.4518981"><ele>206.0</ele><time>2026-03-28T10:23:49.419Z</time></trkpt><trkpt lat="43.6048107" lon="11.4519164"><ele>206.0</ele><time>2026-03-28T10:23:50.419Z</time></trkpt><trkpt lat="43.6049489" lon="11.4519446"><ele>205.25</ele><time>2026-03-28T10:23:51.419Z</time></trkpt><trkpt lat="43.6050707" lon="11.4520117"><ele>204.5</ele><time>2026-03-28T10:23:52.419Z</time></trkpt><trkpt lat="43.605174" lon="11.4521098"><ele>203.75</ele><time>2026-03-28T10:23:53.419Z</time></trkpt><trkpt lat="43.6052668" lon="11.4522481"><ele>203.0</ele><time>2026-03-28T10:23:54.419Z</time></trkpt><trkpt lat="43.6053596" lon="11.4524049"><ele>201.33333333333334</ele><time>2026-03-28T10:23:55.419Z</time></trkpt><trkpt lat="43.6054558" lon="11.4525853"><ele>199.66666666666669</ele><time>2026-03-28T10:23:56.419Z</time></trkpt><trkpt lat="43.6055508" lon="11.4527636"><ele>198.0</ele><time>2026-03-28T10:23:57.419Z</time></trkpt><trkpt lat="43.605633" lon="11.4529483"><ele>196.0</ele><time>2026-03-28T10:23:58.419Z</time></trkpt><trkpt lat="43.6056961" lon="11.4531286"><ele>194.0</ele><time>2026-03-28T10:23:59.419Z</time></trkpt><trkpt lat="43.6057481" lon="11.453308"><ele>192.0</ele><time>2026-03-28T10:24:00.419Z</time></trkpt><trkpt lat="43.6058064" lon="11.4534818"><ele>190.0</ele><time>2026-03-28T10:24:01.419Z</time></trkpt><trkpt lat="43.6058906" lon="11.4536332"><ele>190.0</ele><time>2026-03-28T10:24:02.419Z</time></trkpt><trkpt lat="43.6059838" lon="11.4537834"><ele>190.0</ele><time>2026-03-28T10:24:03.419Z</time></trkpt><trkpt lat="43.6060704" lon="11.4539305"><ele>190.0</ele><time>2026-03-28T10:24:04.419Z</time></trkpt><trkpt lat="43.6061566" lon="11.4540796"><ele>190.0</ele><time>2026-03-28T10:24:05.419Z</time></trkpt><trkpt lat="43.6062394" lon="11.454235"><ele>188.25</ele><time>2026-03-28T10:24:06.419Z</time></trkpt><trkpt lat="43.6063127" lon="11.4543881"><ele>186.5</ele><time>2026-03-28T10:24:07.419Z</time></trkpt><trkpt lat="43.6063835" lon="11.4545273"><ele>184.75</ele><time>2026-03-28T10:24:08.419Z</time></trkpt><trkpt lat="43.6064555" lon="11.4546461"><ele>183.0</ele><time>2026-03-28T10:24:09.419Z</time></trkpt><trkpt lat="43.6065311" lon="11.4547441"><ele>180.0</ele><time>2026-03-28T10:24:10.419Z</time></trkpt><trkpt lat="43.6066289" lon="11.454814"><ele>177.0</ele><time>2026-03-28T10:24:11.419Z</time></trkpt><trkpt lat="43.6067464" lon="11.454838"><ele>174.0</ele><time>2026-03-28T10:24:12.419Z</time></trkpt><trkpt lat="43.6068791" lon="11.4548286"><ele>171.0</ele><time>2026-03-28T10:24:13.419Z</time></trkpt><trkpt lat="43.607003" lon="11.4548148"><ele>171.0</ele><time>2026-03-28T10:24:14.419Z</time></trkpt><trkpt lat="43.6071126" lon="11.4548268"><ele>171.0</ele><time>2026-03-28T10:24:15.419Z</time></trkpt><trkpt lat="43.6072152" lon="11.4548861"><ele>171.0</ele><time>2026-03-28T10:24:16.419Z</time></trkpt><trkpt lat="43.6073182" lon="11.454976"><ele>171.0</ele><time>2026-03-28T10:24:17.419Z</time></trkpt><trkpt lat="43.6074275" lon="11.4550824"><ele>171.0</ele><time>2026-03-28T10:24:18.419Z</time></trkpt><trkpt lat="43.6075347" lon="11.4552227"><ele>171.0</ele><time>2026-03-28T10:24:19.419Z</time></trkpt><trkpt lat="43.6076272" lon="11.4553669"><ele>171.0</ele><time>2026-03-28T10:24:20.419Z</time></trkpt><trkpt lat="43.6077118" lon="11.4555084"><ele>171.0</ele><time>2026-03-28T10:24:21.419Z</time></trkpt><trkpt lat="43.6077903" lon="11.4556591"><ele>167.75</ele><time>2026-03-28T10:24:22.419Z</time></trkpt><trkpt lat="43.6078736" lon="11.4557917"><ele>164.5</ele><time>2026-03-28T10:24:23.419Z</time></trkpt><trkpt lat="43.6079639" lon="11.4558912"><ele>161.25</ele><time>2026-03-28T10:24:24.419Z</time></trkpt><trkpt lat="43.6080723" lon="11.4559185"><ele>158.0</ele><time>2026-03-28T10:24:25.419Z</time></trkpt><trkpt lat="43.6081829" lon="11.4558942"><ele>158.0</ele><time>2026-03-28T10:24:26.419Z</time></trkpt><trkpt lat="43.6082877" lon="11.4558256"><ele>158.0</ele><time>2026-03-28T10:24:27.419Z</time></trkpt><trkpt lat="43.6083674" lon="11.4557319"><ele>158.0</ele><time>2026-03-28T10:24:28.419Z</time></trkpt><trkpt lat="43.6084429" lon="11.4556445"><ele>158.0</ele><time>2026-03-28T10:24:29.419Z</time></trkpt><trkpt lat="43.6085164" lon="11.4555738"><ele>158.0</ele><time>2026-03-28T10:24:30.419Z</time></trkpt><trkpt lat="43.6085786" lon="11.4555299"><ele>158.0</ele><time>2026-03-28T10:24:31.419Z</time></trkpt><trkpt lat="43.6086527" lon="11.455504"><ele>158.0</ele><time>2026-03-28T10:24:32.419Z</time></trkpt><trkpt lat="43.6087225" lon="11.4555044"><ele>158.0</ele><time>2026-03-28T10:24:33.419Z</time></trkpt><trkpt lat="43.6087998" lon="11.4555562"><ele>158.0</ele><time>2026-03-28T10:24:34.42Z</time></trkpt><trkpt lat="43.6088558" lon="11.4556552"><ele>158.0</ele><time>2026-03-28T10:24:35.419Z</time></trkpt><trkpt lat="43.6088854" lon="11.4557836"><ele>158.0</ele><time>2026-03-28T10:24:36.419Z</time></trkpt><trkpt lat="43.6089045" lon="11.4559305"><ele>157.8</ele><time>2026-03-28T10:24:37.419Z</time></trkpt><trkpt lat="43.6089141" lon="11.4560736"><ele>157.60000000000002</ele><time>2026-03-28T10:24:38.419Z</time></trkpt><trkpt lat="43.6089293" lon="11.4562107"><ele>157.39999999999998</ele><time>2026-03-28T10:24:39.419Z</time></trkpt><trkpt lat="43.608947" lon="11.4563364"><ele>157.2</ele><time>2026-03-28T10:24:40.419Z</time></trkpt><trkpt lat="43.6089642" lon="11.4564499"><ele>157.0</ele><time>2026-03-28T10:24:41.419Z</time></trkpt><trkpt lat="43.6089857" lon="11.4565566"><ele>157.0</ele><time>2026-03-28T10:24:42.419Z</time></trkpt><trkpt lat="43.6090131" lon="11.4566633"><ele>157.0</ele><time>2026-03-28T10:24:43.419Z</time></trkpt><trkpt lat="43.6090533" lon="11.4567713"><ele>157.0</ele><time>2026-03-28T10:24:44.419Z</time></trkpt><trkpt lat="43.6091006" lon="11.4568762"><ele>157.0</ele><time>2026-03-28T10:24:45.419Z</time></trkpt><trkpt lat="43.60916" lon="11.4569756"><ele>157.0</ele><time>2026-03-28T10:24:46.419Z</time></trkpt><trkpt lat="43.6092322" lon="11.4570642"><ele>157.0</ele><time>2026-03-28T10:24:47.419Z</time></trkpt><trkpt lat="43.6093204" lon="11.4571517"><ele>156.5</ele><time>2026-03-28T10:24:48.419Z</time></trkpt><trkpt lat="43.6094208" lon="11.4572329"><ele>156.0</ele><time>2026-03-28T10:24:49.419Z</time></trkpt><trkpt lat="43.6095306" lon="11.4573154"><ele>155.5</ele><time>2026-03-28T10:24:50.419Z</time></trkpt><trkpt lat="43.6096467" lon="11.4574061"><ele>155.0</ele><time>2026-03-28T10:24:51.419Z</time></trkpt><trkpt lat="43.6097599" lon="11.4574985"><ele>154.0</ele><time>2026-03-28T10:24:52.419Z</time></trkpt><trkpt lat="43.6098644" lon="11.4575886"><ele>153.0</ele><time>2026-03-28T10:24:53.419Z</time></trkpt><trkpt lat="43.6099659" lon="11.457677"><ele>152.0</ele><time>2026-03-28T10:24:54.419Z</time></trkpt><trkpt lat="43.6100699" lon="11.4577596"><ele>151.0</ele><time>2026-03-28T10:24:55.419Z</time></trkpt><trkpt lat="43.6101806" lon="11.4578476"><ele>151.0</ele><time>2026-03-28T10:24:56.419Z</time></trkpt><trkpt lat="43.6102939" lon="11.4579419"><ele>151.0</ele><time>2026-03-28T10:24:57.419Z</time></trkpt><trkpt lat="43.6104037" lon="11.4580348"><ele>151.0</ele><time>2026-03-28T10:24:58.419Z</time></trkpt><trkpt lat="43.6105173" lon="11.458118"><ele>151.0</ele><time>2026-03-28T10:24:59.419Z</time></trkpt><trkpt lat="43.6106364" lon="11.458196"><ele>150.0</ele><time>2026-03-28T10:25:00.419Z</time></trkpt><trkpt lat="43.6107568" lon="11.4582594"><ele>149.0</ele><time>2026-03-28T10:25:01.419Z</time></trkpt><trkpt lat="43.6108704" lon="11.4583054"><ele>148.0</ele><time>2026-03-28T10:25:02.419Z</time></trkpt><trkpt lat="43.6109829" lon="11.4583357"><ele>147.0</ele><time>2026-03-28T10:25:03.419Z</time></trkpt><trkpt lat="43.6110908" lon="11.458353"><ele>146.79999999999998</ele><time>2026-03-28T10:25:04.419Z</time></trkpt><trkpt lat="43.6111957" lon="11.4583578"><ele>146.6</ele><time>2026-03-28T10:25:05.419Z</time></trkpt><trkpt lat="43.6112908" lon="11.4583558"><ele>146.39999999999998</ele><time>2026-03-28T10:25:06.419Z</time></trkpt><trkpt lat="43.6113804" lon="11.4583546"><ele>146.2</ele><time>2026-03-28T10:25:07.419Z</time></trkpt><trkpt lat="43.611468" lon="11.4583572"><ele>146.0</ele><time>2026-03-28T10:25:08.419Z</time></trkpt><trkpt lat="43.6115577" lon="11.4583501"><ele>146.0</ele><time>2026-03-28T10:25:09.419Z</time></trkpt><trkpt lat="43.6116562" lon="11.4583419"><ele>146.0</ele><time>2026-03-28T10:25:10.419Z</time></trkpt><trkpt lat="43.6117582" lon="11.4583327"><ele>146.0</ele><time>2026-03-28T10:25:11.419Z</time></trkpt><trkpt lat="43.6118562" lon="11.4583217"><ele>146.0</ele><time>2026-03-28T10:25:12.419Z</time></trkpt><trkpt lat="43.6119454" lon="11.4583081"><ele>146.0</ele><time>2026-03-28T10:25:13.419Z</time></trkpt><trkpt lat="43.6120336" lon="11.4582979"><ele>146.2</ele><time>2026-03-28T10:25:14.419Z</time></trkpt><trkpt lat="43.6121249" lon="11.4582835"><ele>146.39999999999998</ele><time>2026-03-28T10:25:15.419Z</time></trkpt><trkpt lat="43.61222" lon="11.4582716"><ele>146.6</ele><time>2026-03-28T10:25:16.419Z</time></trkpt><trkpt lat="43.6123208" lon="11.4582543"><ele>146.79999999999998</ele><time>2026-03-28T10:25:17.419Z</time></trkpt><trkpt lat="43.6124242" lon="11.4582421"><ele>147.0</ele><time>2026-03-28T10:25:18.419Z</time></trkpt><trkpt lat="43.6125177" lon="11.4582342"><ele>147.0</ele><time>2026-03-28T10:25:19.419Z</time></trkpt><trkpt lat="43.6126085" lon="11.4582275"><ele>147.0</ele><time>2026-03-28T10:25:20.419Z</time></trkpt><trkpt lat="43.6126953" lon="11.4582232"><ele>147.0</ele><time>2026-03-28T10:25:21.419Z</time></trkpt><trkpt lat="43.6127872" lon="11.4582167"><ele>147.0</ele><time>2026-03-28T10:25:22.419Z</time></trkpt><trkpt lat="43.6128907" lon="11.4582025"><ele>147.0</ele><time>2026-03-28T10:25:23.419Z</time></trkpt><trkpt lat="43.6129866" lon="11.4581997"><ele>146.0</ele><time>2026-03-28T10:25:24.419Z</time></trkpt><trkpt lat="43.6130937" lon="11.4581819"><ele>145.0</ele><time>2026-03-28T10:25:25.419Z</time></trkpt><trkpt lat="43.6132181" lon="11.4581485"><ele>144.0</ele><time>2026-03-28T10:25:26.419Z</time></trkpt><trkpt lat="43.613338" lon="11.4580967"><ele>143.0</ele><time>2026-03-28T10:25:27.419Z</time></trkpt><trkpt lat="43.6134533" lon="11.4580437"><ele>143.0</ele><time>2026-03-28T10:25:28.419Z</time></trkpt><trkpt lat="43.6135612" lon="11.4579874"><ele>143.0</ele><time>2026-03-28T10:25:29.419Z</time></trkpt><trkpt lat="43.6136626" lon="11.4579394"><ele>143.0</ele><time>2026-03-28T10:25:30.419Z</time></trkpt><trkpt lat="43.6137541" lon="11.4578888"><ele>143.0</ele><time>2026-03-28T10:25:31.419Z</time></trkpt><trkpt lat="43.6138427" lon="11.4578421"><ele>143.0</ele><time>2026-03-28T10:25:32.419Z</time></trkpt><trkpt lat="43.613928" lon="11.4577964"><ele>141.8</ele><time>2026-03-28T10:25:33.419Z</time></trkpt><trkpt lat="43.6140169" lon="11.4577528"><ele>140.60000000000002</ele><time>2026-03-28T10:25:34.419Z</time></trkpt><trkpt lat="43.6141126" lon="11.4577072"><ele>139.39999999999998</ele><time>2026-03-28T10:25:35.419Z</time></trkpt><trkpt lat="43.6142101" lon="11.4576533"><ele>138.2</ele><time>2026-03-28T10:25:36.419Z</time></trkpt><trkpt lat="43.6143023" lon="11.4576134"><ele>137.0</ele><time>2026-03-28T10:25:37.419Z</time></trkpt><trkpt lat="43.6143815" lon="11.457577"><ele>137.0</ele><time>2026-03-28T10:25:38.419Z</time></trkpt><trkpt lat="43.61445" lon="11.4575419"><ele>137.0</ele><time>2026-03-28T10:25:39.419Z</time></trkpt><trkpt lat="43.6145595" lon="11.4574937"><ele>137.0</ele><time>2026-03-28T10:25:41.419Z</time></trkpt><trkpt lat="43.6146568" lon="11.4576191"><ele>137.0</ele><time>2026-03-28T10:25:43.419Z</time></trkpt><trkpt lat="43.6147033" lon="11.4577574"><ele>137.0</ele><time>2026-03-28T10:25:44.419Z</time></trkpt><trkpt lat="43.6147583" lon="11.4578945"><ele>136.33333333333331</ele><time>2026-03-28T10:25:45.419Z</time></trkpt><trkpt lat="43.6148477" lon="11.4580275"><ele>135.66666666666666</ele><time>2026-03-28T10:25:46.419Z</time></trkpt><trkpt lat="43.6149711" lon="11.4581629"><ele>135.0</ele><time>2026-03-28T10:25:47.419Z</time></trkpt><trkpt lat="43.6151015" lon="11.4583087"><ele>135.0</ele><time>2026-03-28T10:25:48.419Z</time></trkpt><trkpt lat="43.6152305" lon="11.4584728"><ele>135.0</ele><time>2026-03-28T10:25:49.419Z</time></trkpt><trkpt lat="43.6153627" lon="11.458649"><ele>135.0</ele><time>2026-03-28T10:25:50.419Z</time></trkpt><trkpt lat="43.6155082" lon="11.4588048"><ele>134.66666666666666</ele><time>2026-03-28T10:25:51.419Z</time></trkpt><trkpt lat="43.6156735" lon="11.4589374"><ele>134.33333333333331</ele><time>2026-03-28T10:25:52.419Z</time></trkpt><trkpt lat="43.6158506" lon="11.4590392"><ele>134.0</ele><time>2026-03-28T10:25:53.419Z</time></trkpt><trkpt lat="43.616049" lon="11.4591096"><ele>133.66666666666666</ele><time>2026-03-28T10:25:54.419Z</time></trkpt><trkpt lat="43.6162629" lon="11.4591456"><ele>133.33333333333334</ele><time>2026-03-28T10:25:55.419Z</time></trkpt><trkpt lat="43.6164835" lon="11.459168"><ele>133.0</ele><time>2026-03-28T10:25:56.419Z</time></trkpt><trkpt lat="43.6167017" lon="11.459204"><ele>133.0</ele><time>2026-03-28T10:25:57.419Z</time></trkpt><trkpt lat="43.6169133" lon="11.4592623"><ele>133.0</ele><time>2026-03-28T10:25:58.419Z</time></trkpt><trkpt lat="43.6171075" lon="11.4593363"><ele>133.0</ele><time>2026-03-28T10:25:59.419Z</time></trkpt><trkpt lat="43.6172923" lon="11.4594185"><ele>132.66666666666669</ele><time>2026-03-28T10:26:00.419Z</time></trkpt><trkpt lat="43.6174793" lon="11.4594967"><ele>132.33333333333334</ele><time>2026-03-28T10:26:01.419Z</time></trkpt><trkpt lat="43.6176666" lon="11.4595522"><ele>132.0</ele><time>2026-03-28T10:26:02.419Z</time></trkpt><trkpt lat="43.6178696" lon="11.4595595"><ele>131.5</ele><time>2026-03-28T10:26:03.419Z</time></trkpt><trkpt lat="43.6180949" lon="11.4595284"><ele>131.0</ele><time>2026-03-28T10:26:04.419Z</time></trkpt><trkpt lat="43.618325" lon="11.4594833"><ele>131.0</ele><time>2026-03-28T10:26:05.419Z</time></trkpt><trkpt lat="43.6185492" lon="11.4594584"><ele>131.0</ele><time>2026-03-28T10:26:06.419Z</time></trkpt><trkpt lat="43.6187711" lon="11.4594409"><ele>131.0</ele><time>2026-03-28T10:26:07.419Z</time></trkpt><trkpt lat="43.6189807" lon="11.459439"><ele>131.0</ele><time>2026-03-28T10:26:08.419Z</time></trkpt><trkpt lat="43.6191729" lon="11.4594529"><ele>131.0</ele><time>2026-03-28T10:26:09.419Z</time></trkpt><trkpt lat="43.6193702" lon="11.4594997"><ele>131.0</ele><time>2026-03-28T10:26:10.419Z</time></trkpt><trkpt lat="43.6195745" lon="11.4595679"><ele>130.66666666666666</ele><time>2026-03-28T10:26:11.419Z</time></trkpt><trkpt lat="43.6197811" lon="11.4596453"><ele>130.33333333333334</ele><time>2026-03-28T10:26:12.419Z</time></trkpt><trkpt lat="43.6199939" lon="11.4597503"><ele>130.0</ele><time>2026-03-28T10:26:13.419Z</time></trkpt><trkpt lat="43.6202142" lon="11.459855"><ele>129.0</ele><time>2026-03-28T10:26:14.419Z</time></trkpt><trkpt lat="43.6204352" lon="11.4599677"><ele>128.0</ele><time>2026-03-28T10:26:15.419Z</time></trkpt><trkpt lat="43.6206585" lon="11.4600858"><ele>128.0</ele><time>2026-03-28T10:26:16.419Z</time></trkpt><trkpt lat="43.6208799" lon="11.4601967"><ele>128.0</ele><time>2026-03-28T10:26:17.419Z</time></trkpt><trkpt lat="43.6210982" lon="11.4603076"><ele>128.0</ele><time>2026-03-28T10:26:18.419Z</time></trkpt><trkpt lat="43.6213167" lon="11.4604148"><ele>128.0</ele><time>2026-03-28T10:26:19.419Z</time></trkpt><trkpt lat="43.6215289" lon="11.46052"><ele>128.0</ele><time>2026-03-28T10:26:20.419Z</time></trkpt><trkpt lat="43.6217199" lon="11.4606159"><ele>128.0</ele><time>2026-03-28T10:26:21.419Z</time></trkpt><trkpt lat="43.6218764" lon="11.4606983"><ele>128.0</ele><time>2026-03-28T10:26:22.419Z</time></trkpt><trkpt lat="43.622009" lon="11.4607563"><ele>128.0</ele><time>2026-03-28T10:26:23.419Z</time></trkpt><trkpt lat="43.6221112" lon="11.4607845"><ele>128.0</ele><time>2026-03-28T10:26:24.419Z</time></trkpt><trkpt lat="43.6221933" lon="11.4608127"><ele>128.0</ele><time>2026-03-28T10:26:25.419Z</time></trkpt><trkpt lat="43.6222582" lon="11.4608406"><ele>128.0</ele><time>2026-03-28T10:26:26.419Z</time></trkpt><trkpt lat="43.6223377" lon="11.4609018"><ele>128.0</ele><time>2026-03-28T10:26:27.419Z</time></trkpt><trkpt lat="43.6224176" lon="11.4610243"><ele>128.0</ele><time>2026-03-28T10:26:28.419Z</time></trkpt><trkpt lat="43.6224755" lon="11.4611861"><ele>128.0</ele><time>2026-03-28T10:26:29.419Z</time></trkpt><trkpt lat="43.6225407" lon="11.461368"><ele>128.0</ele><time>2026-03-28T10:26:30.419Z</time></trkpt><trkpt lat="43.6226158" lon="11.4615657"><ele>128.0</ele><time>2026-03-28T10:26:31.419Z</time></trkpt><trkpt lat="43.6226997" lon="11.4617683"><ele>127.66666666666666</ele><time>2026-03-28T10:26:32.419Z</time></trkpt><trkpt lat="43.6227811" lon="11.461977"><ele>127.33333333333334</ele><time>2026-03-28T10:26:33.419Z</time></trkpt><trkpt lat="43.6228624" lon="11.462185"><ele>127.0</ele><time>2026-03-28T10:26:34.419Z</time></trkpt><trkpt lat="43.6229483" lon="11.4623809"><ele>127.0</ele><time>2026-03-28T10:26:35.419Z</time></trkpt><trkpt lat="43.6230307" lon="11.4625598"><ele>127.0</ele><time>2026-03-28T10:26:36.419Z</time></trkpt><trkpt lat="43.6231084" lon="11.4627247"><ele>127.0</ele><time>2026-03-28T10:26:37.419Z</time></trkpt><trkpt lat="43.6231862" lon="11.4628724"><ele>127.0</ele><time>2026-03-28T10:26:38.419Z</time></trkpt><trkpt lat="43.623261" lon="11.4630004"><ele>126.8</ele><time>2026-03-28T10:26:39.419Z</time></trkpt><trkpt lat="43.6233298" lon="11.4631225"><ele>126.6</ele><time>2026-03-28T10:26:40.419Z</time></trkpt><trkpt lat="43.6233932" lon="11.4632334"><ele>126.39999999999999</ele><time>2026-03-28T10:26:41.419Z</time></trkpt><trkpt lat="43.623451" lon="11.4633301"><ele>126.19999999999999</ele><time>2026-03-28T10:26:42.419Z</time></trkpt><trkpt lat="43.6234488" lon="11.4634865"><ele>126.0</ele><time>2026-03-28T10:26:44.419Z</time></trkpt><trkpt lat="43.6233167" lon="11.4635564"><ele>126.0</ele><time>2026-03-28T10:26:46.419Z</time></trkpt><trkpt lat="43.6232049" lon="11.4635789"><ele>126.0</ele><time>2026-03-28T10:26:47.419Z</time></trkpt><trkpt lat="43.6230779" lon="11.4636025"><ele>126.0</ele><time>2026-03-28T10:26:48.419Z</time></trkpt><trkpt lat="43.6229515" lon="11.4636204"><ele>126.0</ele><time>2026-03-28T10:26:49.419Z</time></trkpt><trkpt lat="43.6228197" lon="11.4636463"><ele>126.0</ele><time>2026-03-28T10:26:50.419Z</time></trkpt><trkpt lat="43.6226942" lon="11.463663"><ele>126.0</ele><time>2026-03-28T10:26:51.42Z</time></trkpt><trkpt lat="43.6225703" lon="11.4637166"><ele>126.0</ele><time>2026-03-28T10:26:52.419Z</time></trkpt><trkpt lat="43.6224434" lon="11.4638161"><ele>126.0</ele><time>2026-03-28T10:26:53.419Z</time></trkpt><trkpt lat="43.6223215" lon="11.4639721"><ele>126.0</ele><time>2026-03-28T10:26:54.419Z</time></trkpt><trkpt lat="43.6221864" lon="11.464127"><ele>126.0</ele><time>2026-03-28T10:26:55.419Z</time></trkpt><trkpt lat="43.6220329" lon="11.4642612"><ele>126.0</ele><time>2026-03-28T10:26:56.419Z</time></trkpt><trkpt lat="43.6218583" lon="11.4643891"><ele>126.33333333333334</ele><time>2026-03-28T10:26:57.419Z</time></trkpt><trkpt lat="43.6216854" lon="11.4645256"><ele>126.66666666666667</ele><time>2026-03-28T10:26:58.419Z</time></trkpt><trkpt lat="43.6215137" lon="11.4646543"><ele>127.0</ele><time>2026-03-28T10:26:59.419Z</time></trkpt><trkpt lat="43.6213463" lon="11.464789"><ele>127.0</ele><time>2026-03-28T10:27:00.419Z</time></trkpt><trkpt lat="43.6211918" lon="11.4649091"><ele>127.0</ele><time>2026-03-28T10:27:01.419Z</time></trkpt><trkpt lat="43.6210434" lon="11.4650216"><ele>127.0</ele><time>2026-03-28T10:27:02.419Z</time></trkpt><trkpt lat="43.6208919" lon="11.4651406"><ele>127.33333333333334</ele><time>2026-03-28T10:27:03.419Z</time></trkpt><trkpt lat="43.6207445" lon="11.46525"><ele>127.66666666666666</ele><time>2026-03-28T10:27:04.419Z</time></trkpt><trkpt lat="43.6206073" lon="11.4653515"><ele>128.0</ele><time>2026-03-28T10:27:05.42Z</time></trkpt><trkpt lat="43.6204794" lon="11.4654525"><ele>128.0</ele><time>2026-03-28T10:27:06.419Z</time></trkpt><trkpt lat="43.6203587" lon="11.465538"><ele>128.0</ele><time>2026-03-28T10:27:07.419Z</time></trkpt><trkpt lat="43.620251" lon="11.4656209"><ele>128.0</ele><time>2026-03-28T10:27:08.419Z</time></trkpt><trkpt lat="43.6201501" lon="11.465699"><ele>128.0</ele><time>2026-03-28T10:27:09.419Z</time></trkpt><trkpt lat="43.6200551" lon="11.4657675"><ele>130.0</ele><time>2026-03-28T10:27:10.419Z</time></trkpt><trkpt lat="43.6199626" lon="11.4658307"><ele>132.0</ele><time>2026-03-28T10:27:11.419Z</time></trkpt><trkpt lat="43.6198711" lon="11.4659017"><ele>134.0</ele><time>2026-03-28T10:27:12.419Z</time></trkpt><trkpt lat="43.6197808" lon="11.4659789"><ele>136.0</ele><time>2026-03-28T10:27:13.419Z</time></trkpt><trkpt lat="43.6196978" lon="11.4660709"><ele>138.0</ele><time>2026-03-28T10:27:14.419Z</time></trkpt><trkpt lat="43.619632" lon="11.466187"><ele>137.0</ele><time>2026-03-28T10:27:15.419Z</time></trkpt><trkpt lat="43.6195718" lon="11.4663277"><ele>136.0</ele><time>2026-03-28T10:27:16.419Z</time></trkpt><trkpt lat="43.6195098" lon="11.4664719"><ele>135.0</ele><time>2026-03-28T10:27:17.419Z</time></trkpt><trkpt lat="43.6194526" lon="11.4665953"><ele>134.0</ele><time>2026-03-28T10:27:18.419Z</time></trkpt><trkpt lat="43.6194009" lon="11.4667205"><ele>134.4</ele><time>2026-03-28T10:27:19.419Z</time></trkpt><trkpt lat="43.6193451" lon="11.4668333"><ele>134.8</ele><time>2026-03-28T10:27:20.419Z</time></trkpt><trkpt lat="43.6192914" lon="11.4669429"><ele>135.2</ele><time>2026-03-28T10:27:21.419Z</time></trkpt><trkpt lat="43.6192415" lon="11.4670533"><ele>135.6</ele><time>2026-03-28T10:27:22.419Z</time></trkpt><trkpt lat="43.6191941" lon="11.4671675"><ele>136.0</ele><time>2026-03-28T10:27:23.419Z</time></trkpt><trkpt lat="43.6191591" lon="11.4672811"><ele>136.0</ele><time>2026-03-28T10:27:24.419Z</time></trkpt><trkpt lat="43.6191267" lon="11.4674064"><ele>136.0</ele><time>2026-03-28T10:27:25.419Z</time></trkpt><trkpt lat="43.6191071" lon="11.4675406"><ele>136.0</ele><time>2026-03-28T10:27:26.419Z</time></trkpt><trkpt lat="43.619093" lon="11.4676706"><ele>136.0</ele><time>2026-03-28T10:27:27.419Z</time></trkpt><trkpt lat="43.6190908" lon="11.4678048"><ele>136.0</ele><time>2026-03-28T10:27:28.419Z</time></trkpt><trkpt lat="43.619095" lon="11.4679419"><ele>135.4</ele><time>2026-03-28T10:27:29.419Z</time></trkpt><trkpt lat="43.6191105" lon="11.4680819"><ele>134.8</ele><time>2026-03-28T10:27:30.419Z</time></trkpt><trkpt lat="43.6191464" lon="11.4682327"><ele>134.20000000000002</ele><time>2026-03-28T10:27:31.419Z</time></trkpt><trkpt lat="43.6191861" lon="11.4683809"><ele>133.6</ele><time>2026-03-28T10:27:32.419Z</time></trkpt><trkpt lat="43.6192266" lon="11.4685129"><ele>133.0</ele><time>2026-03-28T10:27:33.419Z</time></trkpt><trkpt lat="43.619264" lon="11.4686346"><ele>133.0</ele><time>2026-03-28T10:27:34.419Z</time></trkpt><trkpt lat="43.6192959" lon="11.4687346"><ele>133.0</ele><time>2026-03-28T10:27:35.419Z</time></trkpt><trkpt lat="43.6192995" lon="11.4688937"><ele>133.0</ele><time>2026-03-28T10:27:37.419Z</time></trkpt><trkpt lat="43.6192473" lon="11.4689572"><ele>133.0</ele><time>2026-03-28T10:27:38.419Z</time></trkpt><trkpt lat="43.6191615" lon="11.469023"><ele>133.0</ele><time>2026-03-28T10:27:39.419Z</time></trkpt><trkpt lat="43.619068" lon="11.4691083"><ele>133.25</ele><time>2026-03-28T10:27:40.419Z</time></trkpt><trkpt lat="43.6189673" lon="11.4692094"><ele>133.5</ele><time>2026-03-28T10:27:41.419Z</time></trkpt><trkpt lat="43.6188416" lon="11.4693216"><ele>133.75</ele><time>2026-03-28T10:27:42.419Z</time></trkpt><trkpt lat="43.6187112" lon="11.4694302"><ele>134.0</ele><time>2026-03-28T10:27:43.419Z</time></trkpt><trkpt lat="43.6185766" lon="11.4695499"><ele>135.0</ele><time>2026-03-28T10:27:44.419Z</time></trkpt><trkpt lat="43.6184345" lon="11.469677"><ele>136.0</ele><time>2026-03-28T10:27:45.419Z</time></trkpt><trkpt lat="43.6182865" lon="11.4698147"><ele>137.0</ele><time>2026-03-28T10:27:46.419Z</time></trkpt><trkpt lat="43.6181415" lon="11.4699566"><ele>137.0</ele><time>2026-03-28T10:27:47.419Z</time></trkpt><trkpt lat="43.6179878" lon="11.4701096"><ele>137.0</ele><time>2026-03-28T10:27:48.419Z</time></trkpt><trkpt lat="43.6178337" lon="11.4702579"><ele>137.0</ele><time>2026-03-28T10:27:49.419Z</time></trkpt><trkpt lat="43.6176795" lon="11.4704034"><ele>136.66666666666666</ele><time>2026-03-28T10:27:50.419Z</time></trkpt><trkpt lat="43.6175273" lon="11.4705474"><ele>136.33333333333334</ele><time>2026-03-28T10:27:51.419Z</time></trkpt><trkpt lat="43.6173872" lon="11.4706839"><ele>136.0</ele><time>2026-03-28T10:27:52.419Z</time></trkpt><trkpt lat="43.6172571" lon="11.4708132"><ele>136.0</ele><time>2026-03-28T10:27:53.419Z</time></trkpt><trkpt lat="43.6171305" lon="11.4709331"><ele>136.0</ele><time>2026-03-28T10:27:54.419Z</time></trkpt><trkpt lat="43.6170119" lon="11.4710379"><ele>136.0</ele><time>2026-03-28T10:27:55.419Z</time></trkpt><trkpt lat="43.6169047" lon="11.471125"><ele>136.0</ele><time>2026-03-28T10:27:56.419Z</time></trkpt><trkpt lat="43.6168171" lon="11.4712147"><ele>136.0</ele><time>2026-03-28T10:27:57.419Z</time></trkpt><trkpt lat="43.6167258" lon="11.4712952"><ele>136.0</ele><time>2026-03-28T10:27:58.419Z</time></trkpt><trkpt lat="43.6165971" lon="11.4713884"><ele>136.0</ele><time>2026-03-28T10:27:59.419Z</time></trkpt><trkpt lat="43.6164542" lon="11.4714907"><ele>136.0</ele><time>2026-03-28T10:28:00.419Z</time></trkpt><trkpt lat="43.6163117" lon="11.4715939"><ele>136.0</ele><time>2026-03-28T10:28:01.419Z</time></trkpt><trkpt lat="43.6161564" lon="11.4716892"><ele>136.0</ele><time>2026-03-28T10:28:02.419Z</time></trkpt><trkpt lat="43.6160114" lon="11.4717697"><ele>136.0</ele><time>2026-03-28T10:28:03.419Z</time></trkpt><trkpt lat="43.6158692" lon="11.4718377"><ele>136.5</ele><time>2026-03-28T10:28:04.419Z</time></trkpt><trkpt lat="43.6157385" lon="11.4719123"><ele>137.0</ele><time>2026-03-28T10:28:05.419Z</time></trkpt><trkpt lat="43.6156298" lon="11.4720382"><ele>137.5</ele><time>2026-03-28T10:28:06.419Z</time></trkpt><trkpt lat="43.6155282" lon="11.4721955"><ele>138.0</ele><time>2026-03-28T10:28:07.419Z</time></trkpt><trkpt lat="43.6154491" lon="11.4724015"><ele>138.0</ele><time>2026-03-28T10:28:08.419Z</time></trkpt><trkpt lat="43.6153992" lon="11.4726169"><ele>138.0</ele><time>2026-03-28T10:28:09.419Z</time></trkpt><trkpt lat="43.6153647" lon="11.4728289"><ele>138.0</ele><time>2026-03-28T10:28:10.419Z</time></trkpt><trkpt lat="43.6153311" lon="11.4730293"><ele>138.5</ele><time>2026-03-28T10:28:11.419Z</time></trkpt><trkpt lat="43.6152996" lon="11.473205"><ele>139.0</ele><time>2026-03-28T10:28:12.419Z</time></trkpt><trkpt lat="43.6152767" lon="11.4733767"><ele>139.5</ele><time>2026-03-28T10:28:13.419Z</time></trkpt><trkpt lat="43.6152449" lon="11.4735327"><ele>140.0</ele><time>2026-03-28T10:28:14.419Z</time></trkpt><trkpt lat="43.6152384" lon="11.4736861"><ele>139.0</ele><time>2026-03-28T10:28:15.419Z</time></trkpt><trkpt lat="43.6152743" lon="11.4738411"><ele>138.0</ele><time>2026-03-28T10:28:16.419Z</time></trkpt><trkpt lat="43.615347" lon="11.4740044"><ele>137.0</ele><time>2026-03-28T10:28:17.419Z</time></trkpt><trkpt lat="43.6154508" lon="11.4741625"><ele>136.0</ele><time>2026-03-28T10:28:18.419Z</time></trkpt><trkpt lat="43.6155428" lon="11.4743008"><ele>135.0</ele><time>2026-03-28T10:28:19.419Z</time></trkpt><trkpt lat="43.6156257" lon="11.4744272"><ele>134.0</ele><time>2026-03-28T10:28:20.419Z</time></trkpt><trkpt lat="43.6157064" lon="11.474535"><ele>133.0</ele><time>2026-03-28T10:28:21.419Z</time></trkpt><trkpt lat="43.6157602" lon="11.4746165"><ele>132.0</ele><time>2026-03-28T10:28:22.419Z</time></trkpt><trkpt lat="43.6158084" lon="11.4746828"><ele>131.0</ele><time>2026-03-28T10:28:23.419Z</time></trkpt><trkpt lat="43.6158659" lon="11.474795"><ele>130.4</ele><time>2026-03-28T10:28:25.419Z</time></trkpt><trkpt lat="43.6158611" lon="11.4749446"><ele>129.8</ele><time>2026-03-28T10:28:28.419Z</time></trkpt><trkpt lat="43.615789" lon="11.4750614"><ele>129.20000000000002</ele><time>2026-03-28T10:28:29.419Z</time></trkpt><trkpt lat="43.615727" lon="11.4751891"><ele>128.6</ele><time>2026-03-28T10:28:30.419Z</time></trkpt><trkpt lat="43.6156682" lon="11.4753123"><ele>128.0</ele><time>2026-03-28T10:28:31.419Z</time></trkpt><trkpt lat="43.6156263" lon="11.4754436"><ele>127.2</ele><time>2026-03-28T10:28:32.419Z</time></trkpt><trkpt lat="43.615575" lon="11.4755615"><ele>126.4</ele><time>2026-03-28T10:28:33.419Z</time></trkpt><trkpt lat="43.615528" lon="11.4756758"><ele>125.60000000000001</ele><time>2026-03-28T10:28:34.419Z</time></trkpt><trkpt lat="43.6154824" lon="11.4757786"><ele>124.80000000000001</ele><time>2026-03-28T10:28:35.419Z</time></trkpt><trkpt lat="43.6154396" lon="11.4758849"><ele>124.0</ele><time>2026-03-28T10:28:36.419Z</time></trkpt><trkpt lat="43.6154026" lon="11.4759917"><ele>124.0</ele><time>2026-03-28T10:28:37.419Z</time></trkpt><trkpt lat="43.6153576" lon="11.4761266"><ele>124.0</ele><time>2026-03-28T10:28:38.419Z</time></trkpt><trkpt lat="43.615301" lon="11.4762892"><ele>124.0</ele><time>2026-03-28T10:28:39.419Z</time></trkpt><trkpt lat="43.6152187" lon="11.4764737"><ele>124.0</ele><time>2026-03-28T10:28:40.419Z</time></trkpt><trkpt lat="43.6151308" lon="11.4766607"><ele>124.0</ele><time>2026-03-28T10:28:41.419Z</time></trkpt><trkpt lat="43.6150496" lon="11.4768542"><ele>124.0</ele><time>2026-03-28T10:28:42.419Z</time></trkpt><trkpt lat="43.6149731" lon="11.4770292"><ele>124.0</ele><time>2026-03-28T10:28:43.419Z</time></trkpt><trkpt lat="43.6148994" lon="11.4771908"><ele>124.0</ele><time>2026-03-28T10:28:44.419Z</time></trkpt><trkpt lat="43.6148234" lon="11.4773284"><ele>124.0</ele><time>2026-03-28T10:28:45.419Z</time></trkpt><trkpt lat="43.6147133" lon="11.4774406"><ele>124.0</ele><time>2026-03-28T10:28:46.419Z</time></trkpt><trkpt lat="43.6145945" lon="11.4774949"><ele>124.0</ele><time>2026-03-28T10:28:47.419Z</time></trkpt><trkpt lat="43.6145044" lon="11.4775282"><ele>124.0</ele><time>2026-03-28T10:28:48.419Z</time></trkpt><trkpt lat="43.6144466" lon="11.4775926"><ele>124.0</ele><time>2026-03-28T10:28:49.419Z</time></trkpt><trkpt lat="43.6144248" lon="11.4777029"><ele>124.2</ele><time>2026-03-28T10:28:50.419Z</time></trkpt><trkpt lat="43.6144489" lon="11.4778394"><ele>124.4</ele><time>2026-03-28T10:28:51.419Z</time></trkpt><trkpt lat="43.6144993" lon="11.4779559"><ele>124.6</ele><time>2026-03-28T10:28:52.419Z</time></trkpt><trkpt lat="43.614504" lon="11.4780887"><ele>124.8</ele><time>2026-03-28T10:28:53.419Z</time></trkpt><trkpt lat="43.6144634" lon="11.4782445"><ele>125.0</ele><time>2026-03-28T10:28:54.419Z</time></trkpt><trkpt lat="43.6143809" lon="11.4784253"><ele>125.0</ele><time>2026-03-28T10:28:55.419Z</time></trkpt><trkpt lat="43.614292" lon="11.478618"><ele>125.0</ele><time>2026-03-28T10:28:56.419Z</time></trkpt><trkpt lat="43.614203" lon="11.478831"><ele>125.0</ele><time>2026-03-28T10:28:57.419Z</time></trkpt><trkpt lat="43.6141237" lon="11.4790441"><ele>125.0</ele><time>2026-03-28T10:28:58.419Z</time></trkpt><trkpt lat="43.6140381" lon="11.4792484"><ele>125.0</ele><time>2026-03-28T10:28:59.419Z</time></trkpt><trkpt lat="43.6139562" lon="11.4794289"><ele>125.0</ele><time>2026-03-28T10:29:00.419Z</time></trkpt><trkpt lat="43.6138808" lon="11.4795937"><ele>125.0</ele><time>2026-03-28T10:29:01.419Z</time></trkpt><trkpt lat="43.6138137" lon="11.4797589"><ele>125.0</ele><time>2026-03-28T10:29:02.419Z</time></trkpt><trkpt lat="43.6137442" lon="11.479906"><ele>125.0</ele><time>2026-03-28T10:29:03.42Z</time></trkpt><trkpt lat="43.613667" lon="11.4800413"><ele>125.0</ele><time>2026-03-28T10:29:04.419Z</time></trkpt><trkpt lat="43.6135601" lon="11.4802021"><ele>125.0</ele><time>2026-03-28T10:29:05.419Z</time></trkpt><trkpt lat="43.6134384" lon="11.4803671"><ele>125.0</ele><time>2026-03-28T10:29:06.419Z</time></trkpt><trkpt lat="43.6133002" lon="11.4805212"><ele>125.0</ele><time>2026-03-28T10:29:07.419Z</time></trkpt><trkpt lat="43.6131469" lon="11.4806817"><ele>125.0</ele><time>2026-03-28T10:29:08.419Z</time></trkpt><trkpt lat="43.6129834" lon="11.4808459"><ele>125.0</ele><time>2026-03-28T10:29:09.419Z</time></trkpt><trkpt lat="43.6128131" lon="11.4810204"><ele>125.0</ele><time>2026-03-28T10:29:10.419Z</time></trkpt><trkpt lat="43.6126415" lon="11.4812014"><ele>124.33333333333333</ele><time>2026-03-28T10:29:11.419Z</time></trkpt><trkpt lat="43.6124675" lon="11.4813878"><ele>123.66666666666666</ele><time>2026-03-28T10:29:12.419Z</time></trkpt><trkpt lat="43.6122874" lon="11.4815684"><ele>123.0</ele><time>2026-03-28T10:29:13.419Z</time></trkpt><trkpt lat="43.6121047" lon="11.4817445"><ele>123.66666666666666</ele><time>2026-03-28T10:29:14.419Z</time></trkpt><trkpt lat="43.6119228" lon="11.4819221"><ele>124.33333333333333</ele><time>2026-03-28T10:29:15.419Z</time></trkpt><trkpt lat="43.6117376" lon="11.4821014"><ele>125.0</ele><time>2026-03-28T10:29:16.419Z</time></trkpt><trkpt lat="43.6115492" lon="11.4822928"><ele>125.0</ele><time>2026-03-28T10:29:17.419Z</time></trkpt><trkpt lat="43.6113617" lon="11.4824868"><ele>125.0</ele><time>2026-03-28T10:29:18.419Z</time></trkpt><trkpt lat="43.6111689" lon="11.4826792"><ele>124.0</ele><time>2026-03-28T10:29:19.419Z</time></trkpt><trkpt lat="43.6109647" lon="11.4828768"><ele>123.0</ele><time>2026-03-28T10:29:20.419Z</time></trkpt><trkpt lat="43.6107606" lon="11.4830768"><ele>125.0</ele><time>2026-03-28T10:29:21.419Z</time></trkpt><trkpt lat="43.6105586" lon="11.4832747"><ele>127.0</ele><time>2026-03-28T10:29:22.419Z</time></trkpt><trkpt lat="43.6103574" lon="11.4834748"><ele>127.0</ele><time>2026-03-28T10:29:23.419Z</time></trkpt><trkpt lat="43.6101517" lon="11.483679"><ele>127.0</ele><time>2026-03-28T10:29:24.419Z</time></trkpt><trkpt lat="43.6099372" lon="11.4838926"><ele>126.5</ele><time>2026-03-28T10:29:25.419Z</time></trkpt><trkpt lat="43.6097143" lon="11.4841114"><ele>126.0</ele><time>2026-03-28T10:29:26.419Z</time></trkpt><trkpt lat="43.6094823" lon="11.4843422"><ele>126.0</ele><time>2026-03-28T10:29:27.419Z</time></trkpt><trkpt lat="43.6092432" lon="11.48458"><ele>126.0</ele><time>2026-03-28T10:29:28.419Z</time></trkpt><trkpt lat="43.609012" lon="11.4848147"><ele>126.0</ele><time>2026-03-28T10:29:29.419Z</time></trkpt><trkpt lat="43.6087831" lon="11.4850527"><ele>126.0</ele><time>2026-03-28T10:29:30.419Z</time></trkpt><trkpt lat="43.6085631" lon="11.4852871"><ele>126.0</ele><time>2026-03-28T10:29:31.419Z</time></trkpt><trkpt lat="43.6083441" lon="11.4854972"><ele>126.0</ele><time>2026-03-28T10:29:32.419Z</time></trkpt><trkpt lat="43.6081499" lon="11.4856834"><ele>126.0</ele><time>2026-03-28T10:29:33.419Z</time></trkpt><trkpt lat="43.6079641" lon="11.48586"><ele>126.0</ele><time>2026-03-28T10:29:34.419Z</time></trkpt><trkpt lat="43.6077828" lon="11.4860414"><ele>126.0</ele><time>2026-03-28T10:29:35.419Z</time></trkpt><trkpt lat="43.6076103" lon="11.4862089"><ele>127.66666666666666</ele><time>2026-03-28T10:29:36.419Z</time></trkpt><trkpt lat="43.6074491" lon="11.4863514"><ele>129.33333333333331</ele><time>2026-03-28T10:29:37.419Z</time></trkpt><trkpt lat="43.6073086" lon="11.4864828"><ele>131.0</ele><time>2026-03-28T10:29:38.419Z</time></trkpt><trkpt lat="43.607197" lon="11.4865824"><ele>131.0</ele><time>2026-03-28T10:29:39.419Z</time></trkpt><trkpt lat="43.6070981" lon="11.4866623"><ele>131.0</ele><time>2026-03-28T10:29:40.419Z</time></trkpt><trkpt lat="43.6070018" lon="11.4867458"><ele>131.0</ele><time>2026-03-28T10:29:41.419Z</time></trkpt><trkpt lat="43.6068912" lon="11.4868095"><ele>131.0</ele><time>2026-03-28T10:29:42.419Z</time></trkpt><trkpt lat="43.6067803" lon="11.4868641"><ele>131.0</ele><time>2026-03-28T10:29:43.419Z</time></trkpt><trkpt lat="43.6066785" lon="11.4869142"><ele>131.0</ele><time>2026-03-28T10:29:44.419Z</time></trkpt><trkpt lat="43.6065809" lon="11.4869618"><ele>131.0</ele><time>2026-03-28T10:29:45.419Z</time></trkpt><trkpt lat="43.6064797" lon="11.4870147"><ele>131.0</ele><time>2026-03-28T10:29:46.419Z</time></trkpt><trkpt lat="43.6063804" lon="11.4870639"><ele>131.0</ele><time>2026-03-28T10:29:47.419Z</time></trkpt><trkpt lat="43.6062885" lon="11.4871119"><ele>131.0</ele><time>2026-03-28T10:29:48.419Z</time></trkpt><trkpt lat="43.6062001" lon="11.487154"><ele>131.0</ele><time>2026-03-28T10:29:49.419Z</time></trkpt><trkpt lat="43.6061033" lon="11.4872019"><ele>131.0</ele><time>2026-03-28T10:29:50.419Z</time></trkpt><trkpt lat="43.6059977" lon="11.4872579"><ele>131.0</ele><time>2026-03-28T10:29:51.419Z</time></trkpt><trkpt lat="43.6058785" lon="11.4873182"><ele>131.0</ele><time>2026-03-28T10:29:52.419Z</time></trkpt><trkpt lat="43.6057593" lon="11.4873779"><ele>132.25</ele><time>2026-03-28T10:29:53.419Z</time></trkpt><trkpt lat="43.6056396" lon="11.4874404"><ele>133.5</ele><time>2026-03-28T10:29:54.419Z</time></trkpt><trkpt lat="43.6055126" lon="11.4875246"><ele>134.75</ele><time>2026-03-28T10:29:55.419Z</time></trkpt><trkpt lat="43.6053755" lon="11.487613"><ele>136.0</ele><time>2026-03-28T10:29:56.419Z</time></trkpt><trkpt lat="43.6052325" lon="11.4877061"><ele>136.0</ele><time>2026-03-28T10:29:57.419Z</time></trkpt><trkpt lat="43.6050929" lon="11.4878285"><ele>136.0</ele><time>2026-03-28T10:29:58.419Z</time></trkpt><trkpt lat="43.6049607" lon="11.4879619"><ele>136.0</ele><time>2026-03-28T10:29:59.419Z</time></trkpt><trkpt lat="43.6048377" lon="11.4880742"><ele>135.5</ele><time>2026-03-28T10:30:00.419Z</time></trkpt><trkpt lat="43.6047226" lon="11.4881703"><ele>135.0</ele><time>2026-03-28T10:30:01.419Z</time></trkpt><trkpt lat="43.6046198" lon="11.4882584"><ele>134.5</ele><time>2026-03-28T10:30:02.419Z</time></trkpt><trkpt lat="43.6045206" lon="11.4883475"><ele>134.0</ele><time>2026-03-28T10:30:03.419Z</time></trkpt><trkpt lat="43.604425" lon="11.4884416"><ele>134.0</ele><time>2026-03-28T10:30:04.419Z</time></trkpt><trkpt lat="43.6043222" lon="11.4885387"><ele>134.0</ele><time>2026-03-28T10:30:05.419Z</time></trkpt><trkpt lat="43.6041954" lon="11.4886626"><ele>134.0</ele><time>2026-03-28T10:30:06.419Z</time></trkpt><trkpt lat="43.6040519" lon="11.488808"><ele>135.33333333333331</ele><time>2026-03-28T10:30:07.419Z</time></trkpt><trkpt lat="43.6038803" lon="11.4889513"><ele>136.66666666666666</ele><time>2026-03-28T10:30:08.419Z</time></trkpt><trkpt lat="43.6037057" lon="11.4891002"><ele>138.0</ele><time>2026-03-28T10:30:09.419Z</time></trkpt><trkpt lat="43.6035179" lon="11.4892272"><ele>138.0</ele><time>2026-03-28T10:30:10.419Z</time></trkpt><trkpt lat="43.6033098" lon="11.4892984"><ele>138.0</ele><time>2026-03-28T10:30:11.419Z</time></trkpt><trkpt lat="43.6030905" lon="11.4893219"><ele>138.0</ele><time>2026-03-28T10:30:12.419Z</time></trkpt><trkpt lat="43.6028672" lon="11.4893253"><ele>137.66666666666666</ele><time>2026-03-28T10:30:13.419Z</time></trkpt><trkpt lat="43.6026489" lon="11.4893219"><ele>137.33333333333331</ele><time>2026-03-28T10:30:14.419Z</time></trkpt><trkpt lat="43.6024455" lon="11.4893109"><ele>137.0</ele><time>2026-03-28T10:30:15.419Z</time></trkpt><trkpt lat="43.6022577" lon="11.4892947"><ele>137.0</ele><time>2026-03-28T10:30:16.419Z</time></trkpt><trkpt lat="43.6020747" lon="11.4892804"><ele>137.0</ele><time>2026-03-28T10:30:17.42Z</time></trkpt><trkpt lat="43.6018968" lon="11.4892696"><ele>137.0</ele><time>2026-03-28T10:30:18.419Z</time></trkpt><trkpt lat="43.6017304" lon="11.4892898"><ele>136.33333333333331</ele><time>2026-03-28T10:30:19.419Z</time></trkpt><trkpt lat="43.6015541" lon="11.4893525"><ele>135.66666666666666</ele><time>2026-03-28T10:30:20.419Z</time></trkpt><trkpt lat="43.6013915" lon="11.4894807"><ele>135.0</ele><time>2026-03-28T10:30:21.419Z</time></trkpt><trkpt lat="43.6012434" lon="11.4896603"><ele>132.66666666666666</ele><time>2026-03-28T10:30:22.419Z</time></trkpt><trkpt lat="43.6010919" lon="11.4898606"><ele>130.33333333333331</ele><time>2026-03-28T10:30:23.419Z</time></trkpt><trkpt lat="43.6009412" lon="11.4900653"><ele>128.0</ele><time>2026-03-28T10:30:24.419Z</time></trkpt><trkpt lat="43.6007929" lon="11.4902833"><ele>128.33333333333331</ele><time>2026-03-28T10:30:25.419Z</time></trkpt><trkpt lat="43.6006423" lon="11.490503"><ele>128.66666666666666</ele><time>2026-03-28T10:30:26.419Z</time></trkpt><trkpt lat="43.6004887" lon="11.4907192"><ele>129.0</ele><time>2026-03-28T10:30:27.419Z</time></trkpt><trkpt lat="43.60033" lon="11.4909314"><ele>129.0</ele><time>2026-03-28T10:30:28.419Z</time></trkpt><trkpt lat="43.6001707" lon="11.4911293"><ele>129.0</ele><time>2026-03-28T10:30:29.419Z</time></trkpt><trkpt lat="43.6000016" lon="11.4913074"><ele>129.0</ele><time>2026-03-28T10:30:30.419Z</time></trkpt><trkpt lat="43.5998229" lon="11.4914599"><ele>129.0</ele><time>2026-03-28T10:30:31.419Z</time></trkpt><trkpt lat="43.5996449" lon="11.4915913"><ele>129.0</ele><time>2026-03-28T10:30:32.419Z</time></trkpt><trkpt lat="43.5994746" lon="11.4917317"><ele>129.0</ele><time>2026-03-28T10:30:33.419Z</time></trkpt><trkpt lat="43.5993165" lon="11.491853"><ele>129.0</ele><time>2026-03-28T10:30:34.419Z</time></trkpt><trkpt lat="43.5991654" lon="11.4919848"><ele>129.0</ele><time>2026-03-28T10:30:35.419Z</time></trkpt><trkpt lat="43.5990272" lon="11.4921101"><ele>129.0</ele><time>2026-03-28T10:30:36.419Z</time></trkpt><trkpt lat="43.5988923" lon="11.4922367"><ele>129.0</ele><time>2026-03-28T10:30:37.419Z</time></trkpt><trkpt lat="43.5987507" lon="11.4923673"><ele>129.0</ele><time>2026-03-28T10:30:38.419Z</time></trkpt><trkpt lat="43.5986031" lon="11.4925126"><ele>129.0</ele><time>2026-03-28T10:30:39.419Z</time></trkpt><trkpt lat="43.5984559" lon="11.4926697"><ele>129.0</ele><time>2026-03-28T10:30:40.419Z</time></trkpt><trkpt lat="43.5983155" lon="11.4928273"><ele>129.0</ele><time>2026-03-28T10:30:41.419Z</time></trkpt><trkpt lat="43.5981849" lon="11.4929765"><ele>129.0</ele><time>2026-03-28T10:30:42.419Z</time></trkpt><trkpt lat="43.5980617" lon="11.4931153"><ele>128.66666666666666</ele><time>2026-03-28T10:30:43.419Z</time></trkpt><trkpt lat="43.597943" lon="11.4932457"><ele>128.33333333333331</ele><time>2026-03-28T10:30:44.419Z</time></trkpt><trkpt lat="43.597814" lon="11.4933764"><ele>128.0</ele><time>2026-03-28T10:30:45.419Z</time></trkpt><trkpt lat="43.5976759" lon="11.4935158"><ele>128.0</ele><time>2026-03-28T10:30:46.419Z</time></trkpt><trkpt lat="43.5975293" lon="11.49365"><ele>128.0</ele><time>2026-03-28T10:30:47.419Z</time></trkpt><trkpt lat="43.5973865" lon="11.4937879"><ele>128.0</ele><time>2026-03-28T10:30:48.419Z</time></trkpt><trkpt lat="43.5972587" lon="11.4939182"><ele>128.0</ele><time>2026-03-28T10:30:49.419Z</time></trkpt><trkpt lat="43.5971336" lon="11.4940489"><ele>128.0</ele><time>2026-03-28T10:30:50.419Z</time></trkpt><trkpt lat="43.5970179" lon="11.4941867"><ele>128.0</ele><time>2026-03-28T10:30:51.419Z</time></trkpt><trkpt lat="43.5969284" lon="11.4943435"><ele>128.5</ele><time>2026-03-28T10:30:52.419Z</time></trkpt><trkpt lat="43.5968596" lon="11.4945132"><ele>129.0</ele><time>2026-03-28T10:30:53.419Z</time></trkpt><trkpt lat="43.5967939" lon="11.4946835"><ele>129.5</ele><time>2026-03-28T10:30:54.419Z</time></trkpt><trkpt lat="43.5967241" lon="11.4948434"><ele>130.0</ele><time>2026-03-28T10:30:55.419Z</time></trkpt><trkpt lat="43.5966547" lon="11.4950138"><ele>130.0</ele><time>2026-03-28T10:30:56.419Z</time></trkpt><trkpt lat="43.5965842" lon="11.4951851"><ele>130.0</ele><time>2026-03-28T10:30:57.419Z</time></trkpt><trkpt lat="43.596514" lon="11.4953644"><ele>130.0</ele><time>2026-03-28T10:30:58.419Z</time></trkpt><trkpt lat="43.5964305" lon="11.4955448"><ele>130.0</ele><time>2026-03-28T10:30:59.419Z</time></trkpt><trkpt lat="43.5963501" lon="11.4957177"><ele>129.66666666666669</ele><time>2026-03-28T10:31:00.419Z</time></trkpt><trkpt lat="43.5962683" lon="11.4958894"><ele>129.33333333333334</ele><time>2026-03-28T10:31:01.419Z</time></trkpt><trkpt lat="43.5961759" lon="11.4960811"><ele>129.0</ele><time>2026-03-28T10:31:02.419Z</time></trkpt><trkpt lat="43.5960769" lon="11.4962795"><ele>130.0</ele><time>2026-03-28T10:31:03.419Z</time></trkpt><trkpt lat="43.5959569" lon="11.4964797"><ele>131.0</ele><time>2026-03-28T10:31:04.419Z</time></trkpt><trkpt lat="43.5958101" lon="11.4966646"><ele>132.0</ele><time>2026-03-28T10:31:05.419Z</time></trkpt><trkpt lat="43.595647" lon="11.4968312"><ele>132.0</ele><time>2026-03-28T10:31:06.419Z</time></trkpt><trkpt lat="43.5954822" lon="11.4969854"><ele>132.0</ele><time>2026-03-28T10:31:07.419Z</time></trkpt><trkpt lat="43.5953275" lon="11.4971439"><ele>132.0</ele><time>2026-03-28T10:31:08.419Z</time></trkpt><trkpt lat="43.5951918" lon="11.4973252"><ele>132.0</ele><time>2026-03-28T10:31:09.419Z</time></trkpt><trkpt lat="43.5950736" lon="11.4975245"><ele>132.0</ele><time>2026-03-28T10:31:10.419Z</time></trkpt><trkpt lat="43.5949746" lon="11.4977428"><ele>132.0</ele><time>2026-03-28T10:31:11.419Z</time></trkpt><trkpt lat="43.594885" lon="11.4979816"><ele>131.33333333333334</ele><time>2026-03-28T10:31:12.419Z</time></trkpt><trkpt lat="43.5947865" lon="11.4982391"><ele>130.66666666666669</ele><time>2026-03-28T10:31:13.419Z</time></trkpt><trkpt lat="43.5946601" lon="11.4985075"><ele>130.0</ele><time>2026-03-28T10:31:14.419Z</time></trkpt><trkpt lat="43.5945358" lon="11.4988056"><ele>130.0</ele><time>2026-03-28T10:31:15.419Z</time></trkpt><trkpt lat="43.5944002" lon="11.4990963"><ele>130.0</ele><time>2026-03-28T10:31:16.419Z</time></trkpt><trkpt lat="43.5942614" lon="11.4993851"><ele>129.0</ele><time>2026-03-28T10:31:17.419Z</time></trkpt><trkpt lat="43.5941292" lon="11.4996664"><ele>128.0</ele><time>2026-03-28T10:31:18.419Z</time></trkpt><trkpt lat="43.5939906" lon="11.4999338"><ele>128.0</ele><time>2026-03-28T10:31:19.419Z</time></trkpt><trkpt lat="43.593825" lon="11.5001876"><ele>128.0</ele><time>2026-03-28T10:31:20.419Z</time></trkpt><trkpt lat="43.5936338" lon="11.5004166"><ele>128.0</ele><time>2026-03-28T10:31:21.419Z</time></trkpt><trkpt lat="43.5934286" lon="11.5006206"><ele>128.0</ele><time>2026-03-28T10:31:22.419Z</time></trkpt><trkpt lat="43.5932179" lon="11.5008278"><ele>128.0</ele><time>2026-03-28T10:31:23.419Z</time></trkpt><trkpt lat="43.5930077" lon="11.5010292"><ele>128.0</ele><time>2026-03-28T10:31:24.419Z</time></trkpt><trkpt lat="43.5927991" lon="11.5012165"><ele>129.5</ele><time>2026-03-28T10:31:25.419Z</time></trkpt><trkpt lat="43.592587" lon="11.5014218"><ele>131.0</ele><time>2026-03-28T10:31:26.419Z</time></trkpt><trkpt lat="43.5923743" lon="11.5016165"><ele>131.0</ele><time>2026-03-28T10:31:27.419Z</time></trkpt><trkpt lat="43.5921776" lon="11.5017974"><ele>131.0</ele><time>2026-03-28T10:31:28.419Z</time></trkpt><trkpt lat="43.5919754" lon="11.5019622"><ele>132.0</ele><time>2026-03-28T10:31:29.419Z</time></trkpt><trkpt lat="43.591763" lon="11.5020546"><ele>133.0</ele><time>2026-03-28T10:31:30.419Z</time></trkpt><trkpt lat="43.5915222" lon="11.5021105"><ele>130.0</ele><time>2026-03-28T10:31:31.419Z</time></trkpt><trkpt lat="43.5912585" lon="11.5021182"><ele>127.0</ele><time>2026-03-28T10:31:32.419Z</time></trkpt><trkpt lat="43.5909849" lon="11.5021189"><ele>127.0</ele><time>2026-03-28T10:31:33.419Z</time></trkpt><trkpt lat="43.5907204" lon="11.5021106"><ele>127.0</ele><time>2026-03-28T10:31:34.419Z</time></trkpt><trkpt lat="43.5904501" lon="11.5021059"><ele>127.5</ele><time>2026-03-28T10:31:35.419Z</time></trkpt><trkpt lat="43.5901778" lon="11.5021114"><ele>128.0</ele><time>2026-03-28T10:31:36.419Z</time></trkpt><trkpt lat="43.5899049" lon="11.502116"><ele>128.0</ele><time>2026-03-28T10:31:37.419Z</time></trkpt><trkpt lat="43.5896266" lon="11.5021402"><ele>128.0</ele><time>2026-03-28T10:31:38.419Z</time></trkpt><trkpt lat="43.5893604" lon="11.5021535"><ele>128.5</ele><time>2026-03-28T10:31:39.419Z</time></trkpt><trkpt lat="43.5891229" lon="11.5021582"><ele>129.0</ele><time>2026-03-28T10:31:40.419Z</time></trkpt><trkpt lat="43.5888928" lon="11.5021623"><ele>130.0</ele><time>2026-03-28T10:31:41.419Z</time></trkpt><trkpt lat="43.5886737" lon="11.502197"><ele>131.0</ele><time>2026-03-28T10:31:42.419Z</time></trkpt><trkpt lat="43.5884551" lon="11.5022965"><ele>131.0</ele><time>2026-03-28T10:31:43.419Z</time></trkpt><trkpt lat="43.5882464" lon="11.502462"><ele>131.0</ele><time>2026-03-28T10:31:44.419Z</time></trkpt><trkpt lat="43.5880368" lon="11.5026454"><ele>130.5</ele><time>2026-03-28T10:31:45.419Z</time></trkpt><trkpt lat="43.58784" lon="11.5028532"><ele>130.0</ele><time>2026-03-28T10:31:46.419Z</time></trkpt><trkpt lat="43.5876352" lon="11.5030704"><ele>130.0</ele><time>2026-03-28T10:31:47.419Z</time></trkpt><trkpt lat="43.5874319" lon="11.5032894"><ele>130.0</ele><time>2026-03-28T10:31:48.419Z</time></trkpt><trkpt lat="43.5872286" lon="11.5035032"><ele>130.0</ele><time>2026-03-28T10:31:49.419Z</time></trkpt><trkpt lat="43.5870358" lon="11.5037008"><ele>130.0</ele><time>2026-03-28T10:31:50.419Z</time></trkpt><trkpt lat="43.5868563" lon="11.5038859"><ele>129.5</ele><time>2026-03-28T10:31:51.419Z</time></trkpt><trkpt lat="43.5866543" lon="11.504044"><ele>129.0</ele><time>2026-03-28T10:31:52.419Z</time></trkpt><trkpt lat="43.5864249" lon="11.5041476"><ele>129.0</ele><time>2026-03-28T10:31:53.419Z</time></trkpt><trkpt lat="43.5861965" lon="11.5042328"><ele>129.0</ele><time>2026-03-28T10:31:54.419Z</time></trkpt><trkpt lat="43.5859785" lon="11.5043192"><ele>129.33333333333334</ele><time>2026-03-28T10:31:55.419Z</time></trkpt><trkpt lat="43.5857825" lon="11.5044239"><ele>129.66666666666669</ele><time>2026-03-28T10:31:56.419Z</time></trkpt><trkpt lat="43.5856268" lon="11.5045558"><ele>130.0</ele><time>2026-03-28T10:31:57.419Z</time></trkpt><trkpt lat="43.5854628" lon="11.5046894"><ele>130.0</ele><time>2026-03-28T10:31:58.419Z</time></trkpt><trkpt lat="43.5853179" lon="11.5048223"><ele>130.0</ele><time>2026-03-28T10:31:59.419Z</time></trkpt><trkpt lat="43.585187" lon="11.504949"><ele>130.0</ele><time>2026-03-28T10:32:00.419Z</time></trkpt><trkpt lat="43.5850638" lon="11.5050862"><ele>130.0</ele><time>2026-03-28T10:32:01.419Z</time></trkpt><trkpt lat="43.5849438" lon="11.5052393"><ele>130.0</ele><time>2026-03-28T10:32:02.419Z</time></trkpt><trkpt lat="43.584839" lon="11.5054265"><ele>130.0</ele><time>2026-03-28T10:32:03.419Z</time></trkpt><trkpt lat="43.5847258" lon="11.5056494"><ele>129.0</ele><time>2026-03-28T10:32:04.419Z</time></trkpt><trkpt lat="43.5845914" lon="11.5059014"><ele>128.0</ele><time>2026-03-28T10:32:05.419Z</time></trkpt><trkpt lat="43.5844407" lon="11.5061723"><ele>130.0</ele><time>2026-03-28T10:32:06.419Z</time></trkpt><trkpt lat="43.5842937" lon="11.5064517"><ele>132.0</ele><time>2026-03-28T10:32:07.419Z</time></trkpt><trkpt lat="43.5841517" lon="11.5067434"><ele>132.0</ele><time>2026-03-28T10:32:08.419Z</time></trkpt><trkpt lat="43.5840041" lon="11.5070346"><ele>132.0</ele><time>2026-03-28T10:32:09.419Z</time></trkpt><trkpt lat="43.5838691" lon="11.5073134"><ele>130.0</ele><time>2026-03-28T10:32:10.419Z</time></trkpt><trkpt lat="43.5837431" lon="11.5075813"><ele>128.0</ele><time>2026-03-28T10:32:11.419Z</time></trkpt><trkpt lat="43.5836233" lon="11.5078667"><ele>129.0</ele><time>2026-03-28T10:32:12.419Z</time></trkpt><trkpt lat="43.5835196" lon="11.508154"><ele>130.0</ele><time>2026-03-28T10:32:13.419Z</time></trkpt><trkpt lat="43.5834233" lon="11.5084545"><ele>130.0</ele><time>2026-03-28T10:32:14.419Z</time></trkpt><trkpt lat="43.583347" lon="11.5087602"><ele>130.0</ele><time>2026-03-28T10:32:15.419Z</time></trkpt><trkpt lat="43.5832869" lon="11.5090639"><ele>130.0</ele><time>2026-03-28T10:32:16.419Z</time></trkpt><trkpt lat="43.5832424" lon="11.509352"><ele>130.0</ele><time>2026-03-28T10:32:17.419Z</time></trkpt><trkpt lat="43.5832162" lon="11.5096144"><ele>130.0</ele><time>2026-03-28T10:32:18.419Z</time></trkpt><trkpt lat="43.5831917" lon="11.5098671"><ele>130.33333333333334</ele><time>2026-03-28T10:32:19.419Z</time></trkpt><trkpt lat="43.5831795" lon="11.510123"><ele>130.66666666666666</ele><time>2026-03-28T10:32:20.419Z</time></trkpt><trkpt lat="43.5831678" lon="11.5103638"><ele>131.0</ele><time>2026-03-28T10:32:21.419Z</time></trkpt><trkpt lat="43.5831525" lon="11.5105977"><ele>130.33333333333331</ele><time>2026-03-28T10:32:22.419Z</time></trkpt><trkpt lat="43.5831381" lon="11.5108266"><ele>129.66666666666666</ele><time>2026-03-28T10:32:23.419Z</time></trkpt><trkpt lat="43.5831187" lon="11.5110549"><ele>129.0</ele><time>2026-03-28T10:32:24.419Z</time></trkpt><trkpt lat="43.5830948" lon="11.5112983"><ele>128.66666666666666</ele><time>2026-03-28T10:32:25.419Z</time></trkpt><trkpt lat="43.5830758" lon="11.5115491"><ele>128.33333333333331</ele><time>2026-03-28T10:32:26.419Z</time></trkpt><trkpt lat="43.5830609" lon="11.5118154"><ele>128.0</ele><time>2026-03-28T10:32:27.419Z</time></trkpt><trkpt lat="43.5830517" lon="11.5121183"><ele>128.0</ele><time>2026-03-28T10:32:28.419Z</time></trkpt><trkpt lat="43.5830278" lon="11.5124273"><ele>128.0</ele><time>2026-03-28T10:32:29.419Z</time></trkpt><trkpt lat="43.5829996" lon="11.5127513"><ele>127.5</ele><time>2026-03-28T10:32:30.419Z</time></trkpt><trkpt lat="43.5829695" lon="11.5130857"><ele>127.0</ele><time>2026-03-28T10:32:31.419Z</time></trkpt><trkpt lat="43.5829436" lon="11.5134344"><ele>127.5</ele><time>2026-03-28T10:32:32.419Z</time></trkpt><trkpt lat="43.5829137" lon="11.5137932"><ele>128.0</ele><time>2026-03-28T10:32:33.419Z</time></trkpt><trkpt lat="43.5828878" lon="11.514157"><ele>128.0</ele><time>2026-03-28T10:32:34.419Z</time></trkpt><trkpt lat="43.5828603" lon="11.5145247"><ele>128.0</ele><time>2026-03-28T10:32:35.419Z</time></trkpt><trkpt lat="43.5828302" lon="11.5148942"><ele>128.0</ele><time>2026-03-28T10:32:36.419Z</time></trkpt><trkpt lat="43.5828041" lon="11.5152653"><ele>128.0</ele><time>2026-03-28T10:32:37.419Z</time></trkpt><trkpt lat="43.5827775" lon="11.5156316"><ele>128.0</ele><time>2026-03-28T10:32:38.419Z</time></trkpt><trkpt lat="43.5827483" lon="11.5159903"><ele>128.0</ele><time>2026-03-28T10:32:39.419Z</time></trkpt><trkpt lat="43.5827191" lon="11.5163458"><ele>128.0</ele><time>2026-03-28T10:32:40.419Z</time></trkpt><trkpt lat="43.5826871" lon="11.5166873"><ele>128.0</ele><time>2026-03-28T10:32:41.419Z</time></trkpt><trkpt lat="43.5826463" lon="11.5170123"><ele>128.33333333333331</ele><time>2026-03-28T10:32:42.419Z</time></trkpt><trkpt lat="43.5825941" lon="11.5173107"><ele>128.66666666666666</ele><time>2026-03-28T10:32:43.419Z</time></trkpt><trkpt lat="43.582526" lon="11.5175767"><ele>129.0</ele><time>2026-03-28T10:32:44.419Z</time></trkpt><trkpt lat="43.58245" lon="11.5178274"><ele>129.0</ele><time>2026-03-28T10:32:45.419Z</time></trkpt><trkpt lat="43.5823662" lon="11.5180517"><ele>129.0</ele><time>2026-03-28T10:32:46.419Z</time></trkpt><trkpt lat="43.582273" lon="11.5182725"><ele>129.0</ele><time>2026-03-28T10:32:47.419Z</time></trkpt><trkpt lat="43.5821786" lon="11.5184755"><ele>129.0</ele><time>2026-03-28T10:32:48.419Z</time></trkpt><trkpt lat="43.5820885" lon="11.5186632"><ele>129.0</ele><time>2026-03-28T10:32:49.419Z</time></trkpt><trkpt lat="43.5819891" lon="11.518838"><ele>129.0</ele><time>2026-03-28T10:32:50.419Z</time></trkpt><trkpt lat="43.581887" lon="11.519"><ele>128.66666666666666</ele><time>2026-03-28T10:32:51.419Z</time></trkpt><trkpt lat="43.581775" lon="11.5191727"><ele>128.33333333333331</ele><time>2026-03-28T10:32:52.419Z</time></trkpt><trkpt lat="43.5816418" lon="11.5193661"><ele>128.0</ele><time>2026-03-28T10:32:53.419Z</time></trkpt><trkpt lat="43.5814866" lon="11.5195612"><ele>128.33333333333331</ele><time>2026-03-28T10:32:54.419Z</time></trkpt><trkpt lat="43.5813145" lon="11.51974"><ele>128.66666666666666</ele><time>2026-03-28T10:32:55.419Z</time></trkpt><trkpt lat="43.5811438" lon="11.5199228"><ele>129.0</ele><time>2026-03-28T10:32:56.419Z</time></trkpt><trkpt lat="43.5809767" lon="11.5201005"><ele>129.33333333333334</ele><time>2026-03-28T10:32:57.419Z</time></trkpt><trkpt lat="43.5808173" lon="11.5202737"><ele>129.66666666666669</ele><time>2026-03-28T10:32:58.419Z</time></trkpt><trkpt lat="43.5806596" lon="11.5204419"><ele>130.0</ele><time>2026-03-28T10:32:59.419Z</time></trkpt><trkpt lat="43.5805055" lon="11.5206076"><ele>130.0</ele><time>2026-03-28T10:33:00.419Z</time></trkpt><trkpt lat="43.580357" lon="11.520777"><ele>130.0</ele><time>2026-03-28T10:33:01.419Z</time></trkpt><trkpt lat="43.5802069" lon="11.5209453"><ele>130.0</ele><time>2026-03-28T10:33:02.419Z</time></trkpt><trkpt lat="43.5800361" lon="11.5211311"><ele>130.0</ele><time>2026-03-28T10:33:03.419Z</time></trkpt><trkpt lat="43.5798471" lon="11.5213343"><ele>130.0</ele><time>2026-03-28T10:33:04.419Z</time></trkpt><trkpt lat="43.5796607" lon="11.5215377"><ele>129.5</ele><time>2026-03-28T10:33:05.419Z</time></trkpt><trkpt lat="43.5794777" lon="11.5217394"><ele>129.0</ele><time>2026-03-28T10:33:06.419Z</time></trkpt><trkpt lat="43.5793033" lon="11.5219318"><ele>129.0</ele><time>2026-03-28T10:33:07.419Z</time></trkpt><trkpt lat="43.5791383" lon="11.5221162"><ele>129.0</ele><time>2026-03-28T10:33:08.419Z</time></trkpt><trkpt lat="43.5789815" lon="11.5222897"><ele>129.0</ele><time>2026-03-28T10:33:09.419Z</time></trkpt><trkpt lat="43.5788329" lon="11.5224549"><ele>129.0</ele><time>2026-03-28T10:33:10.419Z</time></trkpt><trkpt lat="43.5786943" lon="11.5226"><ele>129.0</ele><time>2026-03-28T10:33:11.419Z</time></trkpt><trkpt lat="43.5785754" lon="11.5227352"><ele>129.0</ele><time>2026-03-28T10:33:12.419Z</time></trkpt><trkpt lat="43.5784657" lon="11.522851"><ele>129.4</ele><time>2026-03-28T10:33:13.419Z</time></trkpt><trkpt lat="43.5783786" lon="11.522947"><ele>129.8</ele><time>2026-03-28T10:33:14.419Z</time></trkpt><trkpt lat="43.5782961" lon="11.5230213"><ele>130.2</ele><time>2026-03-28T10:33:15.419Z</time></trkpt><trkpt lat="43.578214" lon="11.5230771"><ele>130.6</ele><time>2026-03-28T10:33:16.419Z</time></trkpt><trkpt lat="43.5781256" lon="11.5231057"><ele>131.0</ele><time>2026-03-28T10:33:17.419Z</time></trkpt><trkpt lat="43.5780353" lon="11.5230969"><ele>131.0</ele><time>2026-03-28T10:33:18.419Z</time></trkpt><trkpt lat="43.5779499" lon="11.5230501"><ele>131.0</ele><time>2026-03-28T10:33:19.419Z</time></trkpt><trkpt lat="43.5778549" lon="11.5230171"><ele>131.0</ele><time>2026-03-28T10:33:20.419Z</time></trkpt><trkpt lat="43.5777456" lon="11.5230524"><ele>131.0</ele><time>2026-03-28T10:33:21.419Z</time></trkpt><trkpt lat="43.5776531" lon="11.5231603"><ele>131.0</ele><time>2026-03-28T10:33:22.419Z</time></trkpt><trkpt lat="43.5776093" lon="11.5233162"><ele>130.75</ele><time>2026-03-28T10:33:23.419Z</time></trkpt><trkpt lat="43.5776005" lon="11.5235049"><ele>130.5</ele><time>2026-03-28T10:33:24.419Z</time></trkpt><trkpt lat="43.5775966" lon="11.5236712"><ele>130.25</ele><time>2026-03-28T10:33:25.419Z</time></trkpt><trkpt lat="43.5775333" lon="11.5238181"><ele>130.0</ele><time>2026-03-28T10:33:26.419Z</time></trkpt><trkpt lat="43.5774266" lon="11.5239664"><ele>130.0</ele><time>2026-03-28T10:33:27.419Z</time></trkpt><trkpt lat="43.5772925" lon="11.5241241"><ele>130.0</ele><time>2026-03-28T10:33:28.419Z</time></trkpt><trkpt lat="43.5771554" lon="11.5242751"><ele>130.0</ele><time>2026-03-28T10:33:29.419Z</time></trkpt><trkpt lat="43.5770184" lon="11.5244222"><ele>131.0</ele><time>2026-03-28T10:33:30.419Z</time></trkpt><trkpt lat="43.5768782" lon="11.5245723"><ele>132.0</ele><time>2026-03-28T10:33:31.419Z</time></trkpt><trkpt lat="43.5767466" lon="11.5247243"><ele>133.0</ele><time>2026-03-28T10:33:32.419Z</time></trkpt><trkpt lat="43.576622" lon="11.5248574"><ele>133.0</ele><time>2026-03-28T10:33:33.419Z</time></trkpt><trkpt lat="43.5765084" lon="11.5249822"><ele>133.0</ele><time>2026-03-28T10:33:34.419Z</time></trkpt><trkpt lat="43.5763985" lon="11.5251025"><ele>133.0</ele><time>2026-03-28T10:33:35.419Z</time></trkpt><trkpt lat="43.5762957" lon="11.5252161"><ele>133.0</ele><time>2026-03-28T10:33:36.419Z</time></trkpt><trkpt lat="43.5761913" lon="11.5253238"><ele>133.0</ele><time>2026-03-28T10:33:37.419Z</time></trkpt><trkpt lat="43.5760775" lon="11.5254478"><ele>133.0</ele><time>2026-03-28T10:33:38.419Z</time></trkpt><trkpt lat="43.5759494" lon="11.5255894"><ele>133.0</ele><time>2026-03-28T10:33:39.419Z</time></trkpt><trkpt lat="43.5758079" lon="11.5257374"><ele>133.0</ele><time>2026-03-28T10:33:40.419Z</time></trkpt><trkpt lat="43.5756519" lon="11.5259021"><ele>133.0</ele><time>2026-03-28T10:33:41.419Z</time></trkpt><trkpt lat="43.5754863" lon="11.52608"><ele>133.0</ele><time>2026-03-28T10:33:42.419Z</time></trkpt><trkpt lat="43.5753148" lon="11.5262733"><ele>132.5</ele><time>2026-03-28T10:33:43.419Z</time></trkpt><trkpt lat="43.5751395" lon="11.5264676"><ele>132.0</ele><time>2026-03-28T10:33:44.419Z</time></trkpt><trkpt lat="43.5749596" lon="11.5266633"><ele>132.0</ele><time>2026-03-28T10:33:45.419Z</time></trkpt><trkpt lat="43.5747771" lon="11.5268628"><ele>132.0</ele><time>2026-03-28T10:33:46.42Z</time></trkpt><trkpt lat="43.574593" lon="11.5270677"><ele>132.0</ele><time>2026-03-28T10:33:47.42Z</time></trkpt><trkpt lat="43.5744048" lon="11.5272724"><ele>132.0</ele><time>2026-03-28T10:33:48.42Z</time></trkpt><trkpt lat="43.5742142" lon="11.5274793"><ele>132.0</ele><time>2026-03-28T10:33:49.42Z</time></trkpt><trkpt lat="43.5740233" lon="11.5276906"><ele>132.0</ele><time>2026-03-28T10:33:50.42Z</time></trkpt><trkpt lat="43.5738298" lon="11.5279008"><ele>131.5</ele><time>2026-03-28T10:33:51.42Z</time></trkpt><trkpt lat="43.5736334" lon="11.5281157"><ele>131.0</ele><time>2026-03-28T10:33:52.42Z</time></trkpt><trkpt lat="43.573439" lon="11.5283279"><ele>131.0</ele><time>2026-03-28T10:33:53.42Z</time></trkpt><trkpt lat="43.5732397" lon="11.528551"><ele>131.0</ele><time>2026-03-28T10:33:54.42Z</time></trkpt><trkpt lat="43.5730398" lon="11.5287712"><ele>132.5</ele><time>2026-03-28T10:33:55.42Z</time></trkpt><trkpt lat="43.5728506" lon="11.5289791"><ele>134.0</ele><time>2026-03-28T10:33:56.42Z</time></trkpt><trkpt lat="43.5726704" lon="11.5291718"><ele>134.0</ele><time>2026-03-28T10:33:57.42Z</time></trkpt><trkpt lat="43.5725023" lon="11.5293527"><ele>134.0</ele><time>2026-03-28T10:33:58.42Z</time></trkpt><trkpt lat="43.572335" lon="11.5295355"><ele>134.0</ele><time>2026-03-28T10:33:59.42Z</time></trkpt><trkpt lat="43.5721772" lon="11.529705"><ele>134.0</ele><time>2026-03-28T10:34:00.42Z</time></trkpt><trkpt lat="43.5720211" lon="11.529871"><ele>134.0</ele><time>2026-03-28T10:34:01.42Z</time></trkpt><trkpt lat="43.5718762" lon="11.5300325"><ele>134.0</ele><time>2026-03-28T10:34:02.42Z</time></trkpt><trkpt lat="43.571743" lon="11.5301833"><ele>134.0</ele><time>2026-03-28T10:34:03.42Z</time></trkpt><trkpt lat="43.5716268" lon="11.5303055"><ele>134.0</ele><time>2026-03-28T10:34:04.42Z</time></trkpt><trkpt lat="43.571528" lon="11.5304015"><ele>134.0</ele><time>2026-03-28T10:34:05.42Z</time></trkpt><trkpt lat="43.5714629" lon="11.5304725"><ele>134.0</ele><time>2026-03-28T10:34:06.42Z</time></trkpt><trkpt lat="43.5714046" lon="11.530512"><ele>134.0</ele><time>2026-03-28T10:34:07.42Z</time></trkpt><trkpt lat="43.5712808" lon="11.5305405"><ele>134.16666666666666</ele><time>2026-03-28T10:34:09.42Z</time></trkpt><trkpt lat="43.5712049" lon="11.5305688"><ele>134.33333333333331</ele><time>2026-03-28T10:34:10.42Z</time></trkpt><trkpt lat="43.5711544" lon="11.5306305"><ele>134.5</ele><time>2026-03-28T10:34:11.42Z</time></trkpt><trkpt lat="43.5711536" lon="11.5307284"><ele>134.66666666666666</ele><time>2026-03-28T10:34:12.42Z</time></trkpt><trkpt lat="43.5712115" lon="11.5308307"><ele>134.83333333333334</ele><time>2026-03-28T10:34:13.42Z</time></trkpt><trkpt lat="43.5712926" lon="11.530904"><ele>135.0</ele><time>2026-03-28T10:34:14.42Z</time></trkpt><trkpt lat="43.571395" lon="11.5310001"><ele>133.5</ele><time>2026-03-28T10:34:15.42Z</time></trkpt><trkpt lat="43.5714847" lon="11.5311388"><ele>132.0</ele><time>2026-03-28T10:34:16.42Z</time></trkpt><trkpt lat="43.5715756" lon="11.53131"><ele>130.5</ele><time>2026-03-28T10:34:17.42Z</time></trkpt><trkpt lat="43.5716691" lon="11.5314899"><ele>129.0</ele><time>2026-03-28T10:34:18.42Z</time></trkpt><trkpt lat="43.5717543" lon="11.5316564"><ele>129.0</ele><time>2026-03-28T10:34:19.42Z</time></trkpt><trkpt lat="43.5718362" lon="11.531816"><ele>129.0</ele><time>2026-03-28T10:34:20.42Z</time></trkpt><trkpt lat="43.5719139" lon="11.5319627"><ele>129.0</ele><time>2026-03-28T10:34:21.42Z</time></trkpt><trkpt lat="43.5719852" lon="11.5321039"><ele>129.0</ele><time>2026-03-28T10:34:22.42Z</time></trkpt><trkpt lat="43.5720506" lon="11.5322323"><ele>129.8</ele><time>2026-03-28T10:34:23.42Z</time></trkpt><trkpt lat="43.5721118" lon="11.5323512"><ele>130.60000000000002</ele><time>2026-03-28T10:34:24.42Z</time></trkpt><trkpt lat="43.5721651" lon="11.5324578"><ele>131.4</ele><time>2026-03-28T10:34:25.42Z</time></trkpt><trkpt lat="43.5722142" lon="11.5325677"><ele>132.20000000000002</ele><time>2026-03-28T10:34:26.42Z</time></trkpt><trkpt lat="43.5722465" lon="11.5326867"><ele>133.0</ele><time>2026-03-28T10:34:27.42Z</time></trkpt><trkpt lat="43.5722681" lon="11.532818"><ele>132.6</ele><time>2026-03-28T10:34:28.42Z</time></trkpt><trkpt lat="43.5722992" lon="11.5329434"><ele>132.20000000000002</ele><time>2026-03-28T10:34:29.42Z</time></trkpt><trkpt lat="43.5723541" lon="11.5330488"><ele>131.8</ele><time>2026-03-28T10:34:30.42Z</time></trkpt><trkpt lat="43.5724344" lon="11.5330913"><ele>131.4</ele><time>2026-03-28T10:34:31.42Z</time></trkpt><trkpt lat="43.5725267" lon="11.5330865"><ele>131.0</ele><time>2026-03-28T10:34:32.42Z</time></trkpt><trkpt lat="43.5726219" lon="11.5330097"><ele>131.0</ele><time>2026-03-28T10:34:33.42Z</time></trkpt><trkpt lat="43.5727149" lon="11.5328969"><ele>131.0</ele><time>2026-03-28T10:34:34.42Z</time></trkpt><trkpt lat="43.5728365" lon="11.5328302"><ele>131.0</ele><time>2026-03-28T10:34:35.42Z</time></trkpt><trkpt lat="43.5729853" lon="11.5328385"><ele>131.0</ele><time>2026-03-28T10:34:36.42Z</time></trkpt><trkpt lat="43.5731567" lon="11.5328961"><ele>130.66666666666666</ele><time>2026-03-28T10:34:37.42Z</time></trkpt><trkpt lat="43.5733355" lon="11.5329888"><ele>130.33333333333334</ele><time>2026-03-28T10:34:38.42Z</time></trkpt><trkpt lat="43.5735212" lon="11.5331111"><ele>130.0</ele><time>2026-03-28T10:34:39.42Z</time></trkpt><trkpt lat="43.5737081" lon="11.5332528"><ele>131.0</ele><time>2026-03-28T10:34:40.42Z</time></trkpt><trkpt lat="43.5738831" lon="11.5334126"><ele>132.0</ele><time>2026-03-28T10:34:41.42Z</time></trkpt><trkpt lat="43.5740529" lon="11.5335655"><ele>133.0</ele><time>2026-03-28T10:34:42.42Z</time></trkpt><trkpt lat="43.5742163" lon="11.5337058"><ele>133.0</ele><time>2026-03-28T10:34:43.42Z</time></trkpt><trkpt lat="43.5743625" lon="11.533839"><ele>133.0</ele><time>2026-03-28T10:34:44.42Z</time></trkpt><trkpt lat="43.574507" lon="11.5339635"><ele>133.0</ele><time>2026-03-28T10:34:45.42Z</time></trkpt><trkpt lat="43.5746494" lon="11.5340859"><ele>133.0</ele><time>2026-03-28T10:34:46.42Z</time></trkpt><trkpt lat="43.5747891" lon="11.5342121"><ele>133.0</ele><time>2026-03-28T10:34:47.42Z</time></trkpt><trkpt lat="43.5749251" lon="11.5343371"><ele>133.0</ele><time>2026-03-28T10:34:48.42Z</time></trkpt><trkpt lat="43.5750581" lon="11.5344576"><ele>133.0</ele><time>2026-03-28T10:34:49.42Z</time></trkpt><trkpt lat="43.575186" lon="11.5345692"><ele>133.0</ele><time>2026-03-28T10:34:50.42Z</time></trkpt><trkpt lat="43.5753071" lon="11.5346773"><ele>133.0</ele><time>2026-03-28T10:34:51.42Z</time></trkpt><trkpt lat="43.5754159" lon="11.5347821"><ele>133.0</ele><time>2026-03-28T10:34:52.42Z</time></trkpt><trkpt lat="43.5755248" lon="11.5348755"><ele>133.0</ele><time>2026-03-28T10:34:53.42Z</time></trkpt><trkpt lat="43.5756303" lon="11.5349714"><ele>133.0</ele><time>2026-03-28T10:34:54.42Z</time></trkpt><trkpt lat="43.5757431" lon="11.5350694"><ele>133.0</ele><time>2026-03-28T10:34:55.42Z</time></trkpt><trkpt lat="43.5758549" lon="11.5351673"><ele>133.0</ele><time>2026-03-28T10:34:56.42Z</time></trkpt><trkpt lat="43.5759655" lon="11.5352541"><ele>133.0</ele><time>2026-03-28T10:34:57.42Z</time></trkpt><trkpt lat="43.5760682" lon="11.535321"><ele>133.0</ele><time>2026-03-28T10:34:58.42Z</time></trkpt><trkpt lat="43.5761555" lon="11.5354031"><ele>133.0</ele><time>2026-03-28T10:34:59.42Z</time></trkpt><trkpt lat="43.5762192" lon="11.535474"><ele>133.0</ele><time>2026-03-28T10:35:00.42Z</time></trkpt><trkpt lat="43.5762866" lon="11.5355383"><ele>133.0</ele><time>2026-03-28T10:35:01.42Z</time></trkpt><trkpt lat="43.576348" lon="11.5356438"><ele>133.33333333333334</ele><time>2026-03-28T10:35:02.42Z</time></trkpt><trkpt lat="43.5763624" lon="11.535752"><ele>133.66666666666669</ele><time>2026-03-28T10:35:03.42Z</time></trkpt><trkpt lat="43.57636" lon="11.5358706"><ele>134.0</ele><time>2026-03-28T10:35:04.42Z</time></trkpt><trkpt lat="43.5763768" lon="11.5359853"><ele>134.33333333333334</ele><time>2026-03-28T10:35:05.42Z</time></trkpt><trkpt lat="43.5764388" lon="11.5360863"><ele>134.66666666666666</ele><time>2026-03-28T10:35:06.42Z</time></trkpt><trkpt lat="43.5765312" lon="11.5361291"><ele>135.0</ele><time>2026-03-28T10:35:07.42Z</time></trkpt><trkpt lat="43.5766451" lon="11.5361174"><ele>135.0</ele><time>2026-03-28T10:35:08.42Z</time></trkpt><trkpt lat="43.5767478" lon="11.5361044"><ele>135.0</ele><time>2026-03-28T10:35:09.42Z</time></trkpt><trkpt lat="43.5768451" lon="11.5360977"><ele>135.0</ele><time>2026-03-28T10:35:10.42Z</time></trkpt><trkpt lat="43.5769388" lon="11.53612"><ele>135.0</ele><time>2026-03-28T10:35:11.42Z</time></trkpt><trkpt lat="43.5770121" lon="11.5361854"><ele>135.0</ele><time>2026-03-28T10:35:12.42Z</time></trkpt><trkpt lat="43.5770828" lon="11.5362423"><ele>135.83333333333334</ele><time>2026-03-28T10:35:13.42Z</time></trkpt><trkpt lat="43.5771465" lon="11.5363028"><ele>136.66666666666666</ele><time>2026-03-28T10:35:14.42Z</time></trkpt><trkpt lat="43.5772114" lon="11.5363512"><ele>137.5</ele><time>2026-03-28T10:35:15.42Z</time></trkpt><trkpt lat="43.5772637" lon="11.5364016"><ele>138.33333333333331</ele><time>2026-03-28T10:35:16.42Z</time></trkpt><trkpt lat="43.5773207" lon="11.5364677"><ele>139.16666666666666</ele><time>2026-03-28T10:35:17.42Z</time></trkpt><trkpt lat="43.5773903" lon="11.536531"><ele>140.0</ele><time>2026-03-28T10:35:18.42Z</time></trkpt><trkpt lat="43.5774696" lon="11.5365964"><ele>140.0</ele><time>2026-03-28T10:35:19.42Z</time></trkpt><trkpt lat="43.5775494" lon="11.5366674"><ele>140.0</ele><time>2026-03-28T10:35:20.42Z</time></trkpt><trkpt lat="43.577644" lon="11.5367654"><ele>140.0</ele><time>2026-03-28T10:35:21.42Z</time></trkpt><trkpt lat="43.5777529" lon="11.5368445"><ele>140.0</ele><time>2026-03-28T10:35:22.42Z</time></trkpt><trkpt lat="43.5778674" lon="11.5369061"><ele>139.0</ele><time>2026-03-28T10:35:23.42Z</time></trkpt><trkpt lat="43.5779891" lon="11.5369619"><ele>138.0</ele><time>2026-03-28T10:35:24.42Z</time></trkpt><trkpt lat="43.5781074" lon="11.5370196"><ele>137.0</ele><time>2026-03-28T10:35:25.42Z</time></trkpt><trkpt lat="43.578225" lon="11.5370749"><ele>136.0</ele><time>2026-03-28T10:35:26.42Z</time></trkpt><trkpt lat="43.578334" lon="11.5371257"><ele>136.0</ele><time>2026-03-28T10:35:27.42Z</time></trkpt><trkpt lat="43.5784395" lon="11.5371714"><ele>136.0</ele><time>2026-03-28T10:35:28.42Z</time></trkpt><trkpt lat="43.5785348" lon="11.5372113"><ele>136.0</ele><time>2026-03-28T10:35:29.42Z</time></trkpt><trkpt lat="43.5786219" lon="11.5372467"><ele>136.0</ele><time>2026-03-28T10:35:30.42Z</time></trkpt><trkpt lat="43.5786899" lon="11.5373031"><ele>136.0</ele><time>2026-03-28T10:35:31.42Z</time></trkpt><trkpt lat="43.5787231" lon="11.5373978"><ele>135.75</ele><time>2026-03-28T10:35:32.42Z</time></trkpt><trkpt lat="43.5787256" lon="11.5375385"><ele>135.5</ele><time>2026-03-28T10:35:33.42Z</time></trkpt><trkpt lat="43.578699" lon="11.5377241"><ele>135.25</ele><time>2026-03-28T10:35:34.42Z</time></trkpt><trkpt lat="43.5786718" lon="11.537941"><ele>135.0</ele><time>2026-03-28T10:35:35.42Z</time></trkpt><trkpt lat="43.5786468" lon="11.5381783"><ele>135.0</ele><time>2026-03-28T10:35:36.42Z</time></trkpt><trkpt lat="43.5786189" lon="11.5384298"><ele>135.0</ele><time>2026-03-28T10:35:37.42Z</time></trkpt><trkpt lat="43.5785928" lon="11.5386918"><ele>135.0</ele><time>2026-03-28T10:35:38.42Z</time></trkpt><trkpt lat="43.5785704" lon="11.5389569"><ele>134.66666666666666</ele><time>2026-03-28T10:35:39.42Z</time></trkpt><trkpt lat="43.5785567" lon="11.5392208"><ele>134.33333333333331</ele><time>2026-03-28T10:35:40.42Z</time></trkpt><trkpt lat="43.5785662" lon="11.5394828"><ele>134.0</ele><time>2026-03-28T10:35:41.42Z</time></trkpt><trkpt lat="43.5786167" lon="11.5397432"><ele>134.0</ele><time>2026-03-28T10:35:42.42Z</time></trkpt><trkpt lat="43.5786819" lon="11.5399997"><ele>134.0</ele><time>2026-03-28T10:35:43.42Z</time></trkpt><trkpt lat="43.5787511" lon="11.5402268"><ele>134.0</ele><time>2026-03-28T10:35:44.42Z</time></trkpt><trkpt lat="43.5788139" lon="11.5404325"><ele>133.75</ele><time>2026-03-28T10:35:45.42Z</time></trkpt><trkpt lat="43.5788762" lon="11.5406163"><ele>133.5</ele><time>2026-03-28T10:35:46.42Z</time></trkpt><trkpt lat="43.5789488" lon="11.5407753"><ele>133.25</ele><time>2026-03-28T10:35:47.42Z</time></trkpt><trkpt lat="43.579045" lon="11.5409057"><ele>133.0</ele><time>2026-03-28T10:35:48.421Z</time></trkpt><trkpt lat="43.5791784" lon="11.5410008"><ele>133.0</ele><time>2026-03-28T10:35:49.42Z</time></trkpt><trkpt lat="43.5793428" lon="11.5410327"><ele>133.0</ele><time>2026-03-28T10:35:50.42Z</time></trkpt><trkpt lat="43.5795104" lon="11.5410312"><ele>133.0</ele><time>2026-03-28T10:35:51.42Z</time></trkpt><trkpt lat="43.5796639" lon="11.5410312"><ele>133.5</ele><time>2026-03-28T10:35:52.42Z</time></trkpt><trkpt lat="43.5797969" lon="11.5410314"><ele>134.0</ele><time>2026-03-28T10:35:53.42Z</time></trkpt><trkpt lat="43.5799262" lon="11.5410346"><ele>134.5</ele><time>2026-03-28T10:35:54.42Z</time></trkpt><trkpt lat="43.5800467" lon="11.5410387"><ele>135.0</ele><time>2026-03-28T10:35:55.42Z</time></trkpt><trkpt lat="43.5801574" lon="11.5410679"><ele>135.0</ele><time>2026-03-28T10:35:56.42Z</time></trkpt><trkpt lat="43.5802629" lon="11.5411257"><ele>135.0</ele><time>2026-03-28T10:35:57.42Z</time></trkpt><trkpt lat="43.5803553" lon="11.5412322"><ele>135.0</ele><time>2026-03-28T10:35:58.42Z</time></trkpt><trkpt lat="43.5804441" lon="11.5413907"><ele>135.0</ele><time>2026-03-28T10:35:59.42Z</time></trkpt><trkpt lat="43.5805308" lon="11.5415929"><ele>136.0</ele><time>2026-03-28T10:36:00.42Z</time></trkpt><trkpt lat="43.5806189" lon="11.5418131"><ele>137.0</ele><time>2026-03-28T10:36:01.42Z</time></trkpt><trkpt lat="43.5807262" lon="11.5420596"><ele>138.0</ele><time>2026-03-28T10:36:02.42Z</time></trkpt><trkpt lat="43.5808201" lon="11.5423423"><ele>138.0</ele><time>2026-03-28T10:36:03.42Z</time></trkpt><trkpt lat="43.5809002" lon="11.5426579"><ele>138.0</ele><time>2026-03-28T10:36:04.42Z</time></trkpt><trkpt lat="43.5809657" lon="11.5429921"><ele>137.5</ele><time>2026-03-28T10:36:05.42Z</time></trkpt><trkpt lat="43.5810149" lon="11.5433318"><ele>137.0</ele><time>2026-03-28T10:36:06.42Z</time></trkpt><trkpt lat="43.5810623" lon="11.5436882"><ele>136.5</ele><time>2026-03-28T10:36:07.42Z</time></trkpt><trkpt lat="43.5811073" lon="11.5440491"><ele>136.0</ele><time>2026-03-28T10:36:08.42Z</time></trkpt><trkpt lat="43.581156" lon="11.544418"><ele>139.5</ele><time>2026-03-28T10:36:09.42Z</time></trkpt><trkpt lat="43.5812038" lon="11.5447911"><ele>143.0</ele><time>2026-03-28T10:36:10.42Z</time></trkpt><trkpt lat="43.5812515" lon="11.5451701"><ele>143.5</ele><time>2026-03-28T10:36:11.42Z</time></trkpt><trkpt lat="43.5813064" lon="11.5455503"><ele>144.0</ele><time>2026-03-28T10:36:12.42Z</time></trkpt><trkpt lat="43.5813888" lon="11.5459201"><ele>142.5</ele><time>2026-03-28T10:36:13.42Z</time></trkpt><trkpt lat="43.5814951" lon="11.5462745"><ele>141.0</ele><time>2026-03-28T10:36:14.42Z</time></trkpt><trkpt lat="43.5816181" lon="11.5466233"><ele>141.0</ele><time>2026-03-28T10:36:15.42Z</time></trkpt><trkpt lat="43.5817346" lon="11.5469687"><ele>141.0</ele><time>2026-03-28T10:36:16.42Z</time></trkpt><trkpt lat="43.5818238" lon="11.5473261"><ele>139.5</ele><time>2026-03-28T10:36:17.42Z</time></trkpt><trkpt lat="43.5818806" lon="11.5476998"><ele>138.0</ele><time>2026-03-28T10:36:18.42Z</time></trkpt><trkpt lat="43.5819155" lon="11.5480825"><ele>138.0</ele><time>2026-03-28T10:36:19.42Z</time></trkpt><trkpt lat="43.5819616" lon="11.5484553"><ele>138.0</ele><time>2026-03-28T10:36:20.42Z</time></trkpt><trkpt lat="43.5820398" lon="11.5488149"><ele>138.5</ele><time>2026-03-28T10:36:21.42Z</time></trkpt><trkpt lat="43.5821459" lon="11.5491702"><ele>139.0</ele><time>2026-03-28T10:36:22.42Z</time></trkpt><trkpt lat="43.5822801" lon="11.5495126"><ele>139.0</ele><time>2026-03-28T10:36:23.42Z</time></trkpt><trkpt lat="43.5824221" lon="11.5498548"><ele>139.0</ele><time>2026-03-28T10:36:24.42Z</time></trkpt><trkpt lat="43.5825669" lon="11.5502002"><ele>139.0</ele><time>2026-03-28T10:36:25.42Z</time></trkpt><trkpt lat="43.5826977" lon="11.5505528"><ele>139.0</ele><time>2026-03-28T10:36:26.42Z</time></trkpt><trkpt lat="43.5827977" lon="11.5509115"><ele>140.0</ele><time>2026-03-28T10:36:27.42Z</time></trkpt><trkpt lat="43.5828581" lon="11.5512609"><ele>141.0</ele><time>2026-03-28T10:36:28.42Z</time></trkpt><trkpt lat="43.5829054" lon="11.5515692"><ele>141.0</ele><time>2026-03-28T10:36:29.42Z</time></trkpt><trkpt lat="43.5829544" lon="11.5518361"><ele>141.0</ele><time>2026-03-28T10:36:30.42Z</time></trkpt><trkpt lat="43.5830353" lon="11.5520995"><ele>141.0</ele><time>2026-03-28T10:36:31.42Z</time></trkpt><trkpt lat="43.5831566" lon="11.5523309"><ele>140.66666666666666</ele><time>2026-03-28T10:36:32.42Z</time></trkpt><trkpt lat="43.5833126" lon="11.5525207"><ele>140.33333333333331</ele><time>2026-03-28T10:36:33.42Z</time></trkpt><trkpt lat="43.5835055" lon="11.5526626"><ele>140.0</ele><time>2026-03-28T10:36:34.42Z</time></trkpt><trkpt lat="43.5837149" lon="11.552782"><ele>140.5</ele><time>2026-03-28T10:36:35.42Z</time></trkpt><trkpt lat="43.5839279" lon="11.5528904"><ele>141.0</ele><time>2026-03-28T10:36:36.42Z</time></trkpt><trkpt lat="43.5841436" lon="11.5529926"><ele>141.0</ele><time>2026-03-28T10:36:37.42Z</time></trkpt><trkpt lat="43.5843506" lon="11.553092"><ele>141.0</ele><time>2026-03-28T10:36:38.42Z</time></trkpt><trkpt lat="43.5845431" lon="11.5531814"><ele>141.0</ele><time>2026-03-28T10:36:39.42Z</time></trkpt><trkpt lat="43.5847197" lon="11.5532613"><ele>141.5</ele><time>2026-03-28T10:36:40.42Z</time></trkpt><trkpt lat="43.5848747" lon="11.5533505"><ele>142.0</ele><time>2026-03-28T10:36:41.42Z</time></trkpt><trkpt lat="43.5850054" lon="11.5534346"><ele>142.5</ele><time>2026-03-28T10:36:42.42Z</time></trkpt><trkpt lat="43.58512" lon="11.5535219"><ele>143.0</ele><time>2026-03-28T10:36:43.42Z</time></trkpt><trkpt lat="43.5852199" lon="11.5536178"><ele>142.75</ele><time>2026-03-28T10:36:44.42Z</time></trkpt><trkpt lat="43.585307" lon="11.5537539"><ele>142.5</ele><time>2026-03-28T10:36:45.42Z</time></trkpt><trkpt lat="43.5853603" lon="11.5539126"><ele>142.25</ele><time>2026-03-28T10:36:46.42Z</time></trkpt><trkpt lat="43.5853743" lon="11.5541035"><ele>142.0</ele><time>2026-03-28T10:36:47.42Z</time></trkpt><trkpt lat="43.5853294" lon="11.5543335"><ele>141.66666666666669</ele><time>2026-03-28T10:36:48.42Z</time></trkpt><trkpt lat="43.5852479" lon="11.5545658"><ele>141.33333333333334</ele><time>2026-03-28T10:36:49.42Z</time></trkpt><trkpt lat="43.5851445" lon="11.5548105"><ele>141.0</ele><time>2026-03-28T10:36:50.42Z</time></trkpt><trkpt lat="43.5850224" lon="11.555043"><ele>141.0</ele><time>2026-03-28T10:36:51.42Z</time></trkpt><trkpt lat="43.5848963" lon="11.5552795"><ele>141.0</ele><time>2026-03-28T10:36:52.42Z</time></trkpt><trkpt lat="43.5847685" lon="11.5555074"><ele>141.0</ele><time>2026-03-28T10:36:53.42Z</time></trkpt><trkpt lat="43.5846324" lon="11.5557495"><ele>142.33333333333334</ele><time>2026-03-28T10:36:54.42Z</time></trkpt><trkpt lat="43.5844855" lon="11.5559767"><ele>143.66666666666669</ele><time>2026-03-28T10:36:55.42Z</time></trkpt><trkpt lat="43.5843484" lon="11.5561862"><ele>145.0</ele><time>2026-03-28T10:36:56.42Z</time></trkpt><trkpt lat="43.5842214" lon="11.5563954"><ele>145.0</ele><time>2026-03-28T10:36:57.42Z</time></trkpt><trkpt lat="43.5841023" lon="11.556607"><ele>145.0</ele><time>2026-03-28T10:36:58.42Z</time></trkpt><trkpt lat="43.5839955" lon="11.5568295"><ele>145.0</ele><time>2026-03-28T10:36:59.42Z</time></trkpt><trkpt lat="43.5839026" lon="11.5570748"><ele>145.33333333333334</ele><time>2026-03-28T10:37:00.42Z</time></trkpt><trkpt lat="43.5838349" lon="11.5573263"><ele>145.66666666666666</ele><time>2026-03-28T10:37:01.42Z</time></trkpt><trkpt lat="43.5837903" lon="11.5575924"><ele>146.0</ele><time>2026-03-28T10:37:02.42Z</time></trkpt><trkpt lat="43.5837983" lon="11.5578718"><ele>146.33333333333331</ele><time>2026-03-28T10:37:03.42Z</time></trkpt><trkpt lat="43.5838607" lon="11.5581535"><ele>146.66666666666666</ele><time>2026-03-28T10:37:04.42Z</time></trkpt><trkpt lat="43.5839504" lon="11.5584275"><ele>147.0</ele><time>2026-03-28T10:37:05.42Z</time></trkpt><trkpt lat="43.584056" lon="11.5587072"><ele>145.5</ele><time>2026-03-28T10:37:06.42Z</time></trkpt><trkpt lat="43.5841816" lon="11.5589826"><ele>144.0</ele><time>2026-03-28T10:37:07.42Z</time></trkpt><trkpt lat="43.584314" lon="11.5592482"><ele>144.0</ele><time>2026-03-28T10:37:08.42Z</time></trkpt><trkpt lat="43.584458" lon="11.5595237"><ele>144.0</ele><time>2026-03-28T10:37:09.42Z</time></trkpt><trkpt lat="43.5846145" lon="11.5597973"><ele>144.0</ele><time>2026-03-28T10:37:10.42Z</time></trkpt><trkpt lat="43.5847783" lon="11.560064"><ele>144.0</ele><time>2026-03-28T10:37:11.42Z</time></trkpt><trkpt lat="43.5849513" lon="11.5603243"><ele>143.5</ele><time>2026-03-28T10:37:12.42Z</time></trkpt><trkpt lat="43.585123" lon="11.5605865"><ele>143.0</ele><time>2026-03-28T10:37:13.42Z</time></trkpt><trkpt lat="43.5852963" lon="11.5608563"><ele>145.0</ele><time>2026-03-28T10:37:14.42Z</time></trkpt><trkpt lat="43.5854721" lon="11.5611336"><ele>147.0</ele><time>2026-03-28T10:37:15.42Z</time></trkpt><trkpt lat="43.5856438" lon="11.5614318"><ele>147.0</ele><time>2026-03-28T10:37:16.42Z</time></trkpt><trkpt lat="43.5858097" lon="11.5617382"><ele>147.0</ele><time>2026-03-28T10:37:17.42Z</time></trkpt><trkpt lat="43.5859752" lon="11.5620465"><ele>147.0</ele><time>2026-03-28T10:37:18.421Z</time></trkpt><trkpt lat="43.5861424" lon="11.5623596"><ele>147.0</ele><time>2026-03-28T10:37:19.42Z</time></trkpt><trkpt lat="43.586316" lon="11.5626737"><ele>147.0</ele><time>2026-03-28T10:37:20.42Z</time></trkpt><trkpt lat="43.5864882" lon="11.5629964"><ele>147.0</ele><time>2026-03-28T10:37:21.42Z</time></trkpt><trkpt lat="43.586641" lon="11.5633245"><ele>147.0</ele><time>2026-03-28T10:37:22.42Z</time></trkpt><trkpt lat="43.5867858" lon="11.5636626"><ele>147.0</ele><time>2026-03-28T10:37:23.42Z</time></trkpt><trkpt lat="43.5869237" lon="11.5640056"><ele>147.0</ele><time>2026-03-28T10:37:24.42Z</time></trkpt><trkpt lat="43.5870591" lon="11.5643545"><ele>147.0</ele><time>2026-03-28T10:37:25.42Z</time></trkpt><trkpt lat="43.5871875" lon="11.5647171"><ele>147.0</ele><time>2026-03-28T10:37:26.42Z</time></trkpt><trkpt lat="43.5872915" lon="11.5650916"><ele>147.0</ele><time>2026-03-28T10:37:27.42Z</time></trkpt><trkpt lat="43.5873812" lon="11.5654714"><ele>147.5</ele><time>2026-03-28T10:37:28.42Z</time></trkpt><trkpt lat="43.5874679" lon="11.5658381"><ele>148.0</ele><time>2026-03-28T10:37:29.42Z</time></trkpt><trkpt lat="43.5875457" lon="11.5661953"><ele>149.0</ele><time>2026-03-28T10:37:30.42Z</time></trkpt><trkpt lat="43.5876283" lon="11.5665406"><ele>150.0</ele><time>2026-03-28T10:37:31.42Z</time></trkpt><trkpt lat="43.5877201" lon="11.5668794"><ele>150.0</ele><time>2026-03-28T10:37:32.42Z</time></trkpt><trkpt lat="43.5878266" lon="11.5672026"><ele>150.0</ele><time>2026-03-28T10:37:33.42Z</time></trkpt><trkpt lat="43.5879557" lon="11.5675029"><ele>150.0</ele><time>2026-03-28T10:37:34.42Z</time></trkpt><trkpt lat="43.588103" lon="11.5677978"><ele>150.0</ele><time>2026-03-28T10:37:35.42Z</time></trkpt><trkpt lat="43.5882591" lon="11.5680927"><ele>151.0</ele><time>2026-03-28T10:37:36.42Z</time></trkpt><trkpt lat="43.5884142" lon="11.5683911"><ele>152.0</ele><time>2026-03-28T10:37:37.42Z</time></trkpt><trkpt lat="43.5885571" lon="11.5686864"><ele>151.5</ele><time>2026-03-28T10:37:38.42Z</time></trkpt><trkpt lat="43.5886835" lon="11.5689729"><ele>151.0</ele><time>2026-03-28T10:37:39.42Z</time></trkpt><trkpt lat="43.5887958" lon="11.5692414"><ele>151.0</ele><time>2026-03-28T10:37:40.42Z</time></trkpt><trkpt lat="43.5889071" lon="11.5694891"><ele>151.0</ele><time>2026-03-28T10:37:41.42Z</time></trkpt><trkpt lat="43.5890241" lon="11.5696947"><ele>151.0</ele><time>2026-03-28T10:37:42.42Z</time></trkpt><trkpt lat="43.5891468" lon="11.5698619"><ele>151.33333333333334</ele><time>2026-03-28T10:37:43.42Z</time></trkpt><trkpt lat="43.5892436" lon="11.5700245"><ele>151.66666666666666</ele><time>2026-03-28T10:37:44.42Z</time></trkpt><trkpt lat="43.5892815" lon="11.5702486"><ele>152.0</ele><time>2026-03-28T10:37:45.42Z</time></trkpt><trkpt lat="43.5892762" lon="11.5704943"><ele>152.66666666666666</ele><time>2026-03-28T10:37:46.42Z</time></trkpt><trkpt lat="43.5892182" lon="11.5707604"><ele>153.33333333333334</ele><time>2026-03-28T10:37:47.42Z</time></trkpt><trkpt lat="43.5891377" lon="11.571027"><ele>154.0</ele><time>2026-03-28T10:37:48.42Z</time></trkpt><trkpt lat="43.5890265" lon="11.5712862"><ele>154.5</ele><time>2026-03-28T10:37:49.42Z</time></trkpt><trkpt lat="43.5888977" lon="11.5715656"><ele>155.0</ele><time>2026-03-28T10:37:50.42Z</time></trkpt><trkpt lat="43.5887679" lon="11.571858"><ele>154.5</ele><time>2026-03-28T10:37:51.42Z</time></trkpt><trkpt lat="43.5886268" lon="11.572177"><ele>154.0</ele><time>2026-03-28T10:37:52.42Z</time></trkpt><trkpt lat="43.5884911" lon="11.5724957"><ele>154.0</ele><time>2026-03-28T10:37:53.42Z</time></trkpt><trkpt lat="43.5883415" lon="11.5728193"><ele>154.0</ele><time>2026-03-28T10:37:54.42Z</time></trkpt><trkpt lat="43.5881855" lon="11.5731478"><ele>154.0</ele><time>2026-03-28T10:37:55.42Z</time></trkpt><trkpt lat="43.5880219" lon="11.5734917"><ele>154.0</ele><time>2026-03-28T10:37:56.42Z</time></trkpt><trkpt lat="43.5878626" lon="11.5738311"><ele>155.0</ele><time>2026-03-28T10:37:57.42Z</time></trkpt><trkpt lat="43.587703" lon="11.5741765"><ele>156.0</ele><time>2026-03-28T10:37:58.42Z</time></trkpt><trkpt lat="43.5875491" lon="11.5745114"><ele>157.0</ele><time>2026-03-28T10:37:59.419Z</time></trkpt><trkpt lat="43.5873941" lon="11.5748482"><ele>158.0</ele><time>2026-03-28T10:38:00.419Z</time></trkpt><trkpt lat="43.5872272" lon="11.5751745"><ele>157.5</ele><time>2026-03-28T10:38:01.419Z</time></trkpt><trkpt lat="43.5870396" lon="11.5754802"><ele>157.0</ele><time>2026-03-28T10:38:02.419Z</time></trkpt><trkpt lat="43.586837" lon="11.5757742"><ele>157.0</ele><time>2026-03-28T10:38:03.419Z</time></trkpt><trkpt lat="43.5866254" lon="11.5760442"><ele>157.0</ele><time>2026-03-28T10:38:04.419Z</time></trkpt><trkpt lat="43.5864144" lon="11.5762527"><ele>157.0</ele><time>2026-03-28T10:38:05.419Z</time></trkpt><trkpt lat="43.5862117" lon="11.5764487"><ele>157.0</ele><time>2026-03-28T10:38:06.419Z</time></trkpt><trkpt lat="43.5860164" lon="11.5766292"><ele>157.0</ele><time>2026-03-28T10:38:07.419Z</time></trkpt><trkpt lat="43.5858281" lon="11.5767863"><ele>157.0</ele><time>2026-03-28T10:38:08.419Z</time></trkpt><trkpt lat="43.5856332" lon="11.5769266"><ele>157.0</ele><time>2026-03-28T10:38:09.419Z</time></trkpt><trkpt lat="43.5854472" lon="11.5770568"><ele>157.33333333333334</ele><time>2026-03-28T10:38:10.419Z</time></trkpt><trkpt lat="43.5852695" lon="11.5771762"><ele>157.66666666666666</ele><time>2026-03-28T10:38:11.419Z</time></trkpt><trkpt lat="43.5850849" lon="11.5772992"><ele>158.0</ele><time>2026-03-28T10:38:12.419Z</time></trkpt><trkpt lat="43.5849005" lon="11.5774169"><ele>158.0</ele><time>2026-03-28T10:38:13.419Z</time></trkpt><trkpt lat="43.5847126" lon="11.5775335"><ele>158.0</ele><time>2026-03-28T10:38:14.419Z</time></trkpt><trkpt lat="43.5845217" lon="11.5776514"><ele>158.0</ele><time>2026-03-28T10:38:15.419Z</time></trkpt><trkpt lat="43.5843252" lon="11.5777774"><ele>158.5</ele><time>2026-03-28T10:38:16.419Z</time></trkpt><trkpt lat="43.5841309" lon="11.5779382"><ele>159.0</ele><time>2026-03-28T10:38:17.419Z</time></trkpt><trkpt lat="43.5839375" lon="11.5781254"><ele>159.0</ele><time>2026-03-28T10:38:18.419Z</time></trkpt><trkpt lat="43.5837352" lon="11.5783315"><ele>159.0</ele><time>2026-03-28T10:38:19.419Z</time></trkpt><trkpt lat="43.5835128" lon="11.5785301"><ele>160.5</ele><time>2026-03-28T10:38:20.419Z</time></trkpt><trkpt lat="43.5832927" lon="11.5787345"><ele>162.0</ele><time>2026-03-28T10:38:21.419Z</time></trkpt><trkpt lat="43.5830716" lon="11.5789358"><ele>162.0</ele><time>2026-03-28T10:38:22.419Z</time></trkpt><trkpt lat="43.5828576" lon="11.5791459"><ele>162.0</ele><time>2026-03-28T10:38:23.419Z</time></trkpt><trkpt lat="43.582662" lon="11.5793375"><ele>162.0</ele><time>2026-03-28T10:38:24.419Z</time></trkpt><trkpt lat="43.5824764" lon="11.5795277"><ele>162.0</ele><time>2026-03-28T10:38:25.419Z</time></trkpt><trkpt lat="43.5822954" lon="11.5797194"><ele>162.0</ele><time>2026-03-28T10:38:26.419Z</time></trkpt><trkpt lat="43.5821221" lon="11.579934"><ele>162.0</ele><time>2026-03-28T10:38:27.419Z</time></trkpt><trkpt lat="43.5819654" lon="11.5801928"><ele>162.5</ele><time>2026-03-28T10:38:28.419Z</time></trkpt><trkpt lat="43.5818215" lon="11.5805062"><ele>163.0</ele><time>2026-03-28T10:38:29.419Z</time></trkpt><trkpt lat="43.5816993" lon="11.5808175"><ele>163.0</ele><time>2026-03-28T10:38:30.419Z</time></trkpt><trkpt lat="43.5815898" lon="11.5811311"><ele>163.0</ele><time>2026-03-28T10:38:31.419Z</time></trkpt><trkpt lat="43.5814818" lon="11.5813985"><ele>163.5</ele><time>2026-03-28T10:38:32.419Z</time></trkpt><trkpt lat="43.5813993" lon="11.5816135"><ele>164.0</ele><time>2026-03-28T10:38:33.419Z</time></trkpt><trkpt lat="43.5813341" lon="11.5817873"><ele>164.5</ele><time>2026-03-28T10:38:34.419Z</time></trkpt><trkpt lat="43.5812632" lon="11.5819397"><ele>165.0</ele><time>2026-03-28T10:38:35.419Z</time></trkpt><trkpt lat="43.5811435" lon="11.5820436"><ele>168.0</ele><time>2026-03-28T10:38:36.419Z</time></trkpt><trkpt lat="43.5809721" lon="11.582088"><ele>171.0</ele><time>2026-03-28T10:38:37.419Z</time></trkpt><trkpt lat="43.5807785" lon="11.5821354"><ele>174.0</ele><time>2026-03-28T10:38:38.419Z</time></trkpt><trkpt lat="43.5805617" lon="11.5822127"><ele>170.5</ele><time>2026-03-28T10:38:39.419Z</time></trkpt><trkpt lat="43.5803227" lon="11.5822951"><ele>167.0</ele><time>2026-03-28T10:38:40.419Z</time></trkpt><trkpt lat="43.580069" lon="11.5823787"><ele>167.0</ele><time>2026-03-28T10:38:41.419Z</time></trkpt><trkpt lat="43.5797973" lon="11.5824606"><ele>167.0</ele><time>2026-03-28T10:38:42.419Z</time></trkpt><trkpt lat="43.5795143" lon="11.582556"><ele>166.5</ele><time>2026-03-28T10:38:43.419Z</time></trkpt><trkpt lat="43.5792268" lon="11.5826441"><ele>166.0</ele><time>2026-03-28T10:38:44.419Z</time></trkpt><trkpt lat="43.5789537" lon="11.5827201"><ele>166.0</ele><time>2026-03-28T10:38:45.42Z</time></trkpt><trkpt lat="43.5786992" lon="11.582793"><ele>166.0</ele><time>2026-03-28T10:38:46.42Z</time></trkpt><trkpt lat="43.5784643" lon="11.5828678"><ele>167.0</ele><time>2026-03-28T10:38:47.42Z</time></trkpt><trkpt lat="43.5782423" lon="11.5829476"><ele>168.0</ele><time>2026-03-28T10:38:48.42Z</time></trkpt><trkpt lat="43.5780222" lon="11.5830478"><ele>167.5</ele><time>2026-03-28T10:38:49.42Z</time></trkpt><trkpt lat="43.5778076" lon="11.583197"><ele>167.0</ele><time>2026-03-28T10:38:50.42Z</time></trkpt><trkpt lat="43.5776157" lon="11.5834141"><ele>167.5</ele><time>2026-03-28T10:38:51.42Z</time></trkpt><trkpt lat="43.5774213" lon="11.5836935"><ele>168.0</ele><time>2026-03-28T10:38:52.42Z</time></trkpt><trkpt lat="43.5772084" lon="11.5839692"><ele>168.5</ele><time>2026-03-28T10:38:53.42Z</time></trkpt><trkpt lat="43.5769793" lon="11.5842065"><ele>169.0</ele><time>2026-03-28T10:38:54.42Z</time></trkpt><trkpt lat="43.5767384" lon="11.5844077"><ele>175.0</ele><time>2026-03-28T10:38:55.42Z</time></trkpt><trkpt lat="43.5765271" lon="11.5845857"><ele>181.0</ele><time>2026-03-28T10:38:56.42Z</time></trkpt><trkpt lat="43.5763408" lon="11.5847751"><ele>177.0</ele><time>2026-03-28T10:38:57.42Z</time></trkpt><trkpt lat="43.5761716" lon="11.5850198"><ele>173.0</ele><time>2026-03-28T10:38:58.42Z</time></trkpt><trkpt lat="43.5760061" lon="11.5852894"><ele>177.5</ele><time>2026-03-28T10:38:59.42Z</time></trkpt><trkpt lat="43.5758351" lon="11.5855797"><ele>182.0</ele><time>2026-03-28T10:39:00.42Z</time></trkpt><trkpt lat="43.5756571" lon="11.5858548"><ele>182.0</ele><time>2026-03-28T10:39:01.42Z</time></trkpt><trkpt lat="43.5754855" lon="11.5861279"><ele>182.0</ele><time>2026-03-28T10:39:02.42Z</time></trkpt><trkpt lat="43.5753215" lon="11.586386"><ele>179.0</ele><time>2026-03-28T10:39:03.42Z</time></trkpt><trkpt lat="43.575166" lon="11.5866288"><ele>176.0</ele><time>2026-03-28T10:39:04.42Z</time></trkpt><trkpt lat="43.5750059" lon="11.5868724"><ele>175.5</ele><time>2026-03-28T10:39:05.42Z</time></trkpt><trkpt lat="43.5748514" lon="11.5871091"><ele>175.0</ele><time>2026-03-28T10:39:06.42Z</time></trkpt><trkpt lat="43.5746958" lon="11.58734"><ele>175.0</ele><time>2026-03-28T10:39:07.42Z</time></trkpt><trkpt lat="43.5745408" lon="11.5875558"><ele>175.0</ele><time>2026-03-28T10:39:08.42Z</time></trkpt><trkpt lat="43.5743873" lon="11.5877424"><ele>175.0</ele><time>2026-03-28T10:39:09.42Z</time></trkpt><trkpt lat="43.5742173" lon="11.5879044"><ele>175.66666666666669</ele><time>2026-03-28T10:39:10.42Z</time></trkpt><trkpt lat="43.5740393" lon="11.5880474"><ele>176.33333333333334</ele><time>2026-03-28T10:39:11.42Z</time></trkpt><trkpt lat="43.5738536" lon="11.5882003"><ele>177.0</ele><time>2026-03-28T10:39:12.42Z</time></trkpt><trkpt lat="43.5736639" lon="11.5883618"><ele>177.0</ele><time>2026-03-28T10:39:13.42Z</time></trkpt><trkpt lat="43.5734722" lon="11.5885272"><ele>177.0</ele><time>2026-03-28T10:39:14.42Z</time></trkpt><trkpt lat="43.5732881" lon="11.5886897"><ele>177.0</ele><time>2026-03-28T10:39:15.42Z</time></trkpt><trkpt lat="43.5731253" lon="11.5888474"><ele>176.66666666666666</ele><time>2026-03-28T10:39:16.42Z</time></trkpt><trkpt lat="43.5729869" lon="11.5890216"><ele>176.33333333333331</ele><time>2026-03-28T10:39:17.42Z</time></trkpt><trkpt lat="43.5728535" lon="11.5892304"><ele>176.0</ele><time>2026-03-28T10:39:18.42Z</time></trkpt><trkpt lat="43.5727203" lon="11.5894606"><ele>177.0</ele><time>2026-03-28T10:39:19.42Z</time></trkpt><trkpt lat="43.5725961" lon="11.5897191"><ele>178.0</ele><time>2026-03-28T10:39:20.42Z</time></trkpt><trkpt lat="43.5724767" lon="11.5899854"><ele>178.0</ele><time>2026-03-28T10:39:21.42Z</time></trkpt><trkpt lat="43.5723655" lon="11.5902733"><ele>178.0</ele><time>2026-03-28T10:39:22.42Z</time></trkpt><trkpt lat="43.5722591" lon="11.5905589"><ele>180.0</ele><time>2026-03-28T10:39:23.42Z</time></trkpt><trkpt lat="43.5721594" lon="11.590855"><ele>182.0</ele><time>2026-03-28T10:39:24.42Z</time></trkpt><trkpt lat="43.5720751" lon="11.591172"><ele>182.0</ele><time>2026-03-28T10:39:25.42Z</time></trkpt><trkpt lat="43.5720016" lon="11.5914987"><ele>182.0</ele><time>2026-03-28T10:39:26.42Z</time></trkpt><trkpt lat="43.5719324" lon="11.5918175"><ele>183.0</ele><time>2026-03-28T10:39:27.42Z</time></trkpt><trkpt lat="43.5718617" lon="11.5921215"><ele>184.0</ele><time>2026-03-28T10:39:28.42Z</time></trkpt><trkpt lat="43.5717969" lon="11.5924277"><ele>184.0</ele><time>2026-03-28T10:39:29.42Z</time></trkpt><trkpt lat="43.5717385" lon="11.5927275"><ele>184.0</ele><time>2026-03-28T10:39:30.42Z</time></trkpt><trkpt lat="43.5716915" lon="11.5930339"><ele>184.0</ele><time>2026-03-28T10:39:31.42Z</time></trkpt><trkpt lat="43.5716367" lon="11.5933539"><ele>184.0</ele><time>2026-03-28T10:39:32.42Z</time></trkpt><trkpt lat="43.5715617" lon="11.5936823"><ele>185.5</ele><time>2026-03-28T10:39:33.42Z</time></trkpt><trkpt lat="43.5714357" lon="11.5940208"><ele>187.0</ele><time>2026-03-28T10:39:34.42Z</time></trkpt><trkpt lat="43.5713082" lon="11.5943457"><ele>187.5</ele><time>2026-03-28T10:39:35.42Z</time></trkpt><trkpt lat="43.5711841" lon="11.5946608"><ele>188.0</ele><time>2026-03-28T10:39:36.42Z</time></trkpt><trkpt lat="43.5710676" lon="11.5949793"><ele>188.0</ele><time>2026-03-28T10:39:37.42Z</time></trkpt><trkpt lat="43.5709501" lon="11.5952898"><ele>188.0</ele><time>2026-03-28T10:39:38.42Z</time></trkpt><trkpt lat="43.5708361" lon="11.5955823"><ele>188.0</ele><time>2026-03-28T10:39:39.42Z</time></trkpt><trkpt lat="43.5707295" lon="11.5958595"><ele>188.0</ele><time>2026-03-28T10:39:40.42Z</time></trkpt><trkpt lat="43.5706276" lon="11.5961242"><ele>188.0</ele><time>2026-03-28T10:39:41.42Z</time></trkpt><trkpt lat="43.5705453" lon="11.596393"><ele>189.0</ele><time>2026-03-28T10:39:42.42Z</time></trkpt><trkpt lat="43.5704873" lon="11.5966952"><ele>190.0</ele><time>2026-03-28T10:39:43.42Z</time></trkpt><trkpt lat="43.5704573" lon="11.5970278"><ele>193.0</ele><time>2026-03-28T10:39:44.42Z</time></trkpt><trkpt lat="43.5704336" lon="11.5973854"><ele>196.0</ele><time>2026-03-28T10:39:45.42Z</time></trkpt><trkpt lat="43.5704139" lon="11.597733"><ele>197.0</ele><time>2026-03-28T10:39:46.42Z</time></trkpt><trkpt lat="43.5703936" lon="11.5980906"><ele>198.0</ele><time>2026-03-28T10:39:47.42Z</time></trkpt><trkpt lat="43.5703681" lon="11.598449"><ele>196.0</ele><time>2026-03-28T10:39:48.42Z</time></trkpt><trkpt lat="43.5703461" lon="11.5988121"><ele>194.0</ele><time>2026-03-28T10:39:49.42Z</time></trkpt><trkpt lat="43.5703206" lon="11.599178"><ele>195.5</ele><time>2026-03-28T10:39:50.42Z</time></trkpt><trkpt lat="43.5703011" lon="11.5995446"><ele>197.0</ele><time>2026-03-28T10:39:51.42Z</time></trkpt><trkpt lat="43.5702792" lon="11.5998919"><ele>197.0</ele><time>2026-03-28T10:39:52.42Z</time></trkpt><trkpt lat="43.5702551" lon="11.6002118"><ele>197.0</ele><time>2026-03-28T10:39:53.42Z</time></trkpt><trkpt lat="43.5702366" lon="11.6005241"><ele>198.5</ele><time>2026-03-28T10:39:54.42Z</time></trkpt><trkpt lat="43.5702113" lon="11.6008381"><ele>200.0</ele><time>2026-03-28T10:39:55.42Z</time></trkpt><trkpt lat="43.5702021" lon="11.6011717"><ele>200.0</ele><time>2026-03-28T10:39:56.42Z</time></trkpt><trkpt lat="43.5702168" lon="11.6015124"><ele>200.0</ele><time>2026-03-28T10:39:57.42Z</time></trkpt><trkpt lat="43.5702593" lon="11.6018644"><ele>202.5</ele><time>2026-03-28T10:39:58.42Z</time></trkpt><trkpt lat="43.5702997" lon="11.6022345"><ele>205.0</ele><time>2026-03-28T10:39:59.42Z</time></trkpt><trkpt lat="43.5703326" lon="11.6026185"><ele>205.5</ele><time>2026-03-28T10:40:00.42Z</time></trkpt><trkpt lat="43.5703739" lon="11.6029999"><ele>206.0</ele><time>2026-03-28T10:40:01.42Z</time></trkpt><trkpt lat="43.5704113" lon="11.6033636"><ele>204.33333333333334</ele><time>2026-03-28T10:40:02.42Z</time></trkpt><trkpt lat="43.5704425" lon="11.6036874"><ele>202.66666666666669</ele><time>2026-03-28T10:40:03.42Z</time></trkpt><trkpt lat="43.5704682" lon="11.6039789"><ele>201.0</ele><time>2026-03-28T10:40:04.42Z</time></trkpt><trkpt lat="43.5704818" lon="11.6042333"><ele>201.0</ele><time>2026-03-28T10:40:05.42Z</time></trkpt><trkpt lat="43.5704855" lon="11.6044759"><ele>201.0</ele><time>2026-03-28T10:40:06.42Z</time></trkpt><trkpt lat="43.5704543" lon="11.604724"><ele>201.0</ele><time>2026-03-28T10:40:07.42Z</time></trkpt><trkpt lat="43.5703808" lon="11.6049855"><ele>206.33333333333331</ele><time>2026-03-28T10:40:08.42Z</time></trkpt><trkpt lat="43.5702754" lon="11.6052432"><ele>211.66666666666666</ele><time>2026-03-28T10:40:09.42Z</time></trkpt><trkpt lat="43.570163" lon="11.6055131"><ele>217.0</ele><time>2026-03-28T10:40:10.42Z</time></trkpt><trkpt lat="43.5700571" lon="11.6057894"><ele>217.0</ele><time>2026-03-28T10:40:11.42Z</time></trkpt><trkpt lat="43.5699426" lon="11.6060828"><ele>217.0</ele><time>2026-03-28T10:40:12.42Z</time></trkpt><trkpt lat="43.5698394" lon="11.6063678"><ele>217.66666666666666</ele><time>2026-03-28T10:40:13.42Z</time></trkpt><trkpt lat="43.5697382" lon="11.6066263"><ele>218.33333333333331</ele><time>2026-03-28T10:40:14.42Z</time></trkpt><trkpt lat="43.5696474" lon="11.6068574"><ele>219.0</ele><time>2026-03-28T10:40:15.42Z</time></trkpt><trkpt lat="43.5695612" lon="11.6070665"><ele>220.0</ele><time>2026-03-28T10:40:16.42Z</time></trkpt><trkpt lat="43.5694763" lon="11.6072597"><ele>221.0</ele><time>2026-03-28T10:40:17.42Z</time></trkpt><trkpt lat="43.5693862" lon="11.607433"><ele>222.0</ele><time>2026-03-28T10:40:18.42Z</time></trkpt><trkpt lat="43.5692742" lon="11.6075553"><ele>222.0</ele><time>2026-03-28T10:40:19.42Z</time></trkpt><trkpt lat="43.5691416" lon="11.6075829"><ele>222.0</ele><time>2026-03-28T10:40:20.42Z</time></trkpt><trkpt lat="43.5689882" lon="11.6075638"><ele>222.0</ele><time>2026-03-28T10:40:21.42Z</time></trkpt><trkpt lat="43.5688252" lon="11.6075613"><ele>221.5</ele><time>2026-03-28T10:40:22.42Z</time></trkpt><trkpt lat="43.5686836" lon="11.6076052"><ele>221.0</ele><time>2026-03-28T10:40:23.42Z</time></trkpt><trkpt lat="43.568555" lon="11.6076998"><ele>220.5</ele><time>2026-03-28T10:40:24.42Z</time></trkpt><trkpt lat="43.5684633" lon="11.607804"><ele>220.0</ele><time>2026-03-28T10:40:25.42Z</time></trkpt><trkpt lat="43.5683926" lon="11.6079268"><ele>219.25</ele><time>2026-03-28T10:40:26.42Z</time></trkpt><trkpt lat="43.5682751" lon="11.608026"><ele>218.5</ele><time>2026-03-28T10:40:27.42Z</time></trkpt><trkpt lat="43.5681497" lon="11.6080842"><ele>217.75</ele><time>2026-03-28T10:40:28.42Z</time></trkpt><trkpt lat="43.568027" lon="11.6081161"><ele>217.0</ele><time>2026-03-28T10:40:29.42Z</time></trkpt><trkpt lat="43.5678995" lon="11.6081095"><ele>212.75</ele><time>2026-03-28T10:40:30.42Z</time></trkpt><trkpt lat="43.5677798" lon="11.6080734"><ele>208.5</ele><time>2026-03-28T10:40:31.42Z</time></trkpt><trkpt lat="43.5676708" lon="11.6080293"><ele>204.25</ele><time>2026-03-28T10:40:32.42Z</time></trkpt><trkpt lat="43.5675745" lon="11.6079348"><ele>200.0</ele><time>2026-03-28T10:40:33.42Z</time></trkpt><trkpt lat="43.567498" lon="11.6078277"><ele>200.0</ele><time>2026-03-28T10:40:34.42Z</time></trkpt><trkpt lat="43.567415" lon="11.6077734"><ele>200.0</ele><time>2026-03-28T10:40:35.42Z</time></trkpt><trkpt lat="43.5673019" lon="11.6077444"><ele>200.0</ele><time>2026-03-28T10:40:36.42Z</time></trkpt><trkpt lat="43.5671984" lon="11.6077599"><ele>200.0</ele><time>2026-03-28T10:40:37.42Z</time></trkpt><trkpt lat="43.5671099" lon="11.607826"><ele>200.0</ele><time>2026-03-28T10:40:38.42Z</time></trkpt><trkpt lat="43.5670561" lon="11.6079327"><ele>200.0</ele><time>2026-03-28T10:40:39.42Z</time></trkpt><trkpt lat="43.5670456" lon="11.6080752"><ele>200.0</ele><time>2026-03-28T10:40:40.42Z</time></trkpt><trkpt lat="43.5670969" lon="11.6082135"><ele>200.0</ele><time>2026-03-28T10:40:41.42Z</time></trkpt><trkpt lat="43.5671898" lon="11.608311"><ele>200.0</ele><time>2026-03-28T10:40:42.42Z</time></trkpt><trkpt lat="43.5673115" lon="11.6083568"><ele>200.0</ele><time>2026-03-28T10:40:43.42Z</time></trkpt><trkpt lat="43.5674351" lon="11.6084169"><ele>200.0</ele><time>2026-03-28T10:40:44.42Z</time></trkpt><trkpt lat="43.5675313" lon="11.6085659"><ele>200.0</ele><time>2026-03-28T10:40:45.42Z</time></trkpt><trkpt lat="43.5676242" lon="11.6087425"><ele>200.0</ele><time>2026-03-28T10:40:46.42Z</time></trkpt><trkpt lat="43.5677112" lon="11.6089371"><ele>199.66666666666669</ele><time>2026-03-28T10:40:47.42Z</time></trkpt><trkpt lat="43.5677968" lon="11.6091497"><ele>199.33333333333331</ele><time>2026-03-28T10:40:48.42Z</time></trkpt><trkpt lat="43.5678922" lon="11.609363"><ele>199.0</ele><time>2026-03-28T10:40:49.42Z</time></trkpt><trkpt lat="43.5679806" lon="11.6095725"><ele>201.66666666666666</ele><time>2026-03-28T10:40:50.42Z</time></trkpt><trkpt lat="43.568067" lon="11.609787"><ele>204.33333333333331</ele><time>2026-03-28T10:40:51.42Z</time></trkpt><trkpt lat="43.5681442" lon="11.6100153"><ele>207.0</ele><time>2026-03-28T10:40:52.42Z</time></trkpt><trkpt lat="43.5682141" lon="11.6102399"><ele>206.0</ele><time>2026-03-28T10:40:53.42Z</time></trkpt><trkpt lat="43.5682816" lon="11.610473"><ele>205.0</ele><time>2026-03-28T10:40:54.42Z</time></trkpt><trkpt lat="43.5683391" lon="11.6107134"><ele>204.0</ele><time>2026-03-28T10:40:55.42Z</time></trkpt><trkpt lat="43.5683952" lon="11.610939"><ele>204.0</ele><time>2026-03-28T10:40:56.42Z</time></trkpt><trkpt lat="43.5684488" lon="11.6111438"><ele>204.0</ele><time>2026-03-28T10:40:57.42Z</time></trkpt><trkpt lat="43.5685136" lon="11.6113275"><ele>204.0</ele><time>2026-03-28T10:40:58.42Z</time></trkpt><trkpt lat="43.568584" lon="11.6115037"><ele>203.75</ele><time>2026-03-28T10:40:59.42Z</time></trkpt><trkpt lat="43.5686603" lon="11.6116676"><ele>203.5</ele><time>2026-03-28T10:41:00.42Z</time></trkpt><trkpt lat="43.5687369" lon="11.6118236"><ele>203.25</ele><time>2026-03-28T10:41:01.42Z</time></trkpt><trkpt lat="43.5688232" lon="11.6119692"><ele>203.0</ele><time>2026-03-28T10:41:02.42Z</time></trkpt><trkpt lat="43.5689165" lon="11.6121088"><ele>204.5</ele><time>2026-03-28T10:41:03.42Z</time></trkpt><trkpt lat="43.5690098" lon="11.6122409"><ele>206.0</ele><time>2026-03-28T10:41:04.42Z</time></trkpt><trkpt lat="43.5690987" lon="11.6123653"><ele>207.5</ele><time>2026-03-28T10:41:05.42Z</time></trkpt><trkpt lat="43.569181" lon="11.6124803"><ele>209.0</ele><time>2026-03-28T10:41:06.42Z</time></trkpt><trkpt lat="43.5692571" lon="11.612597"><ele>209.0</ele><time>2026-03-28T10:41:07.42Z</time></trkpt><trkpt lat="43.5693249" lon="11.6127097"><ele>209.0</ele><time>2026-03-28T10:41:08.42Z</time></trkpt><trkpt lat="43.569388" lon="11.6128221"><ele>209.0</ele><time>2026-03-28T10:41:09.42Z</time></trkpt><trkpt lat="43.5694428" lon="11.6129348"><ele>209.0</ele><time>2026-03-28T10:41:10.42Z</time></trkpt><trkpt lat="43.5694927" lon="11.6130417"><ele>209.0</ele><time>2026-03-28T10:41:11.42Z</time></trkpt><trkpt lat="43.5695328" lon="11.6131542"><ele>208.50000000000003</ele><time>2026-03-28T10:41:12.42Z</time></trkpt><trkpt lat="43.569559" lon="11.6132747"><ele>208.0</ele><time>2026-03-28T10:41:13.42Z</time></trkpt><trkpt lat="43.5695554" lon="11.6133904"><ele>207.5</ele><time>2026-03-28T10:41:14.42Z</time></trkpt><trkpt lat="43.5695315" lon="11.6134956"><ele>207.0</ele><time>2026-03-28T10:41:15.42Z</time></trkpt><trkpt lat="43.5694885" lon="11.6135952"><ele>206.50000000000003</ele><time>2026-03-28T10:41:16.42Z</time></trkpt><trkpt lat="43.5694464" lon="11.6136841"><ele>206.0</ele><time>2026-03-28T10:41:17.42Z</time></trkpt><trkpt lat="43.5694341" lon="11.6137746"><ele>205.66666666666669</ele><time>2026-03-28T10:41:18.42Z</time></trkpt><trkpt lat="43.5694653" lon="11.6138783"><ele>205.33333333333334</ele><time>2026-03-28T10:41:19.42Z</time></trkpt><trkpt lat="43.5695177" lon="11.6139551"><ele>205.0</ele><time>2026-03-28T10:41:20.42Z</time></trkpt><trkpt lat="43.5695708" lon="11.6140263"><ele>204.66666666666669</ele><time>2026-03-28T10:41:21.42Z</time></trkpt><trkpt lat="43.569632" lon="11.6140864"><ele>204.33333333333334</ele><time>2026-03-28T10:41:22.42Z</time></trkpt><trkpt lat="43.5696952" lon="11.6141752"><ele>204.0</ele><time>2026-03-28T10:41:23.42Z</time></trkpt><trkpt lat="43.569748" lon="11.6143015"><ele>205.39999999999998</ele><time>2026-03-28T10:41:24.42Z</time></trkpt><trkpt lat="43.5697858" lon="11.6144248"><ele>206.8</ele><time>2026-03-28T10:41:25.42Z</time></trkpt><trkpt lat="43.5698183" lon="11.6145393"><ele>208.2</ele><time>2026-03-28T10:41:26.42Z</time></trkpt><trkpt lat="43.5698563" lon="11.6146556"><ele>209.60000000000002</ele><time>2026-03-28T10:41:27.42Z</time></trkpt><trkpt lat="43.569903" lon="11.6147813"><ele>211.0</ele><time>2026-03-28T10:41:28.42Z</time></trkpt><trkpt lat="43.5699516" lon="11.6149114"><ele>212.5</ele><time>2026-03-28T10:41:29.42Z</time></trkpt><trkpt lat="43.5700023" lon="11.6150497"><ele>214.0</ele><time>2026-03-28T10:41:30.42Z</time></trkpt><trkpt lat="43.570043" lon="11.6151942"><ele>215.5</ele><time>2026-03-28T10:41:31.42Z</time></trkpt><trkpt lat="43.5700838" lon="11.6153392"><ele>217.0</ele><time>2026-03-28T10:41:32.42Z</time></trkpt><trkpt lat="43.5701417" lon="11.6154966"><ele>217.0</ele><time>2026-03-28T10:41:33.42Z</time></trkpt><trkpt lat="43.5701984" lon="11.6156561"><ele>217.0</ele><time>2026-03-28T10:41:34.42Z</time></trkpt><trkpt lat="43.5702594" lon="11.6158102"><ele>217.0</ele><time>2026-03-28T10:41:35.42Z</time></trkpt><trkpt lat="43.5703173" lon="11.6159675"><ele>217.0</ele><time>2026-03-28T10:41:36.42Z</time></trkpt><trkpt lat="43.5703797" lon="11.6161255"><ele>221.0</ele><time>2026-03-28T10:41:37.42Z</time></trkpt><trkpt lat="43.5704473" lon="11.6162672"><ele>225.0</ele><time>2026-03-28T10:41:38.42Z</time></trkpt><trkpt lat="43.5705143" lon="11.6164096"><ele>229.0</ele><time>2026-03-28T10:41:39.42Z</time></trkpt><trkpt lat="43.5705792" lon="11.616551"><ele>233.0</ele><time>2026-03-28T10:41:40.421Z</time></trkpt><trkpt lat="43.5706457" lon="11.6166953"><ele>233.0</ele><time>2026-03-28T10:41:41.42Z</time></trkpt><trkpt lat="43.570717" lon="11.6168356"><ele>233.0</ele><time>2026-03-28T10:41:42.42Z</time></trkpt><trkpt lat="43.5707904" lon="11.6169713"><ele>233.0</ele><time>2026-03-28T10:41:43.42Z</time></trkpt><trkpt lat="43.5708623" lon="11.6171077"><ele>233.0</ele><time>2026-03-28T10:41:44.42Z</time></trkpt><trkpt lat="43.5709308" lon="11.6172458"><ele>231.0</ele><time>2026-03-28T10:41:45.42Z</time></trkpt><trkpt lat="43.5709977" lon="11.6173813"><ele>229.0</ele><time>2026-03-28T10:41:46.42Z</time></trkpt><trkpt lat="43.5710673" lon="11.6175165"><ele>227.0</ele><time>2026-03-28T10:41:47.42Z</time></trkpt><trkpt lat="43.5711402" lon="11.6176542"><ele>225.0</ele><time>2026-03-28T10:41:48.42Z</time></trkpt><trkpt lat="43.5712044" lon="11.6177877"><ele>230.0</ele><time>2026-03-28T10:41:49.42Z</time></trkpt><trkpt lat="43.5712691" lon="11.6179186"><ele>235.0</ele><time>2026-03-28T10:41:50.42Z</time></trkpt><trkpt lat="43.5713348" lon="11.6180466"><ele>240.0</ele><time>2026-03-28T10:41:51.42Z</time></trkpt><trkpt lat="43.5714025" lon="11.6181726"><ele>245.0</ele><time>2026-03-28T10:41:52.42Z</time></trkpt><trkpt lat="43.5714694" lon="11.6182905"><ele>245.0</ele><time>2026-03-28T10:41:53.42Z</time></trkpt><trkpt lat="43.5715357" lon="11.6184167"><ele>245.0</ele><time>2026-03-28T10:41:54.42Z</time></trkpt><trkpt lat="43.5715994" lon="11.6185498"><ele>245.0</ele><time>2026-03-28T10:41:55.42Z</time></trkpt><trkpt lat="43.5716555" lon="11.6186905"><ele>245.0</ele><time>2026-03-28T10:41:56.42Z</time></trkpt><trkpt lat="43.5717039" lon="11.6188519"><ele>243.0</ele><time>2026-03-28T10:41:57.42Z</time></trkpt><trkpt lat="43.5717526" lon="11.6190136"><ele>241.0</ele><time>2026-03-28T10:41:58.42Z</time></trkpt><trkpt lat="43.57181" lon="11.6191826"><ele>239.0</ele><time>2026-03-28T10:41:59.42Z</time></trkpt><trkpt lat="43.5718899" lon="11.6193585"><ele>237.0</ele><time>2026-03-28T10:42:00.42Z</time></trkpt><trkpt lat="43.5719812" lon="11.6195221"><ele>243.0</ele><time>2026-03-28T10:42:01.42Z</time></trkpt><trkpt lat="43.5720847" lon="11.6196785"><ele>249.0</ele><time>2026-03-28T10:42:02.42Z</time></trkpt><trkpt lat="43.5721787" lon="11.6198558"><ele>255.0</ele><time>2026-03-28T10:42:03.42Z</time></trkpt><trkpt lat="43.5722648" lon="11.620035"><ele>255.0</ele><time>2026-03-28T10:42:04.42Z</time></trkpt><trkpt lat="43.5723383" lon="11.6201947"><ele>255.0</ele><time>2026-03-28T10:42:05.42Z</time></trkpt><trkpt lat="43.5724042" lon="11.6203458"><ele>255.0</ele><time>2026-03-28T10:42:06.42Z</time></trkpt><trkpt lat="43.5724588" lon="11.6204811"><ele>255.0</ele><time>2026-03-28T10:42:07.42Z</time></trkpt><trkpt lat="43.5725183" lon="11.6206017"><ele>254.0</ele><time>2026-03-28T10:42:08.42Z</time></trkpt><trkpt lat="43.5725899" lon="11.6207053"><ele>253.0</ele><time>2026-03-28T10:42:09.42Z</time></trkpt><trkpt lat="43.5726731" lon="11.6207782"><ele>252.0</ele><time>2026-03-28T10:42:10.42Z</time></trkpt><trkpt lat="43.572766" lon="11.620812"><ele>251.0</ele><time>2026-03-28T10:42:11.42Z</time></trkpt><trkpt lat="43.5728801" lon="11.6207946"><ele>250.0</ele><time>2026-03-28T10:42:12.42Z</time></trkpt><trkpt lat="43.5729885" lon="11.6207118"><ele>250.0</ele><time>2026-03-28T10:42:13.42Z</time></trkpt><trkpt lat="43.573084" lon="11.6206183"><ele>250.0</ele><time>2026-03-28T10:42:14.42Z</time></trkpt><trkpt lat="43.5731846" lon="11.620525"><ele>250.0</ele><time>2026-03-28T10:42:15.42Z</time></trkpt><trkpt lat="43.5732719" lon="11.6204649"><ele>250.0</ele><time>2026-03-28T10:42:16.42Z</time></trkpt><trkpt lat="43.5733516" lon="11.6203889"><ele>250.0</ele><time>2026-03-28T10:42:17.42Z</time></trkpt><trkpt lat="43.5734329" lon="11.6203354"><ele>253.0</ele><time>2026-03-28T10:42:18.42Z</time></trkpt><trkpt lat="43.573529" lon="11.6203014"><ele>256.0</ele><time>2026-03-28T10:42:19.42Z</time></trkpt><trkpt lat="43.573631" lon="11.6202753"><ele>259.0</ele><time>2026-03-28T10:42:20.42Z</time></trkpt><trkpt lat="43.5737294" lon="11.6202559"><ele>262.0</ele><time>2026-03-28T10:42:21.42Z</time></trkpt><trkpt lat="43.5738396" lon="11.6202679"><ele>265.0</ele><time>2026-03-28T10:42:22.42Z</time></trkpt><trkpt lat="43.5739555" lon="11.6203034"><ele>265.6</ele><time>2026-03-28T10:42:23.42Z</time></trkpt><trkpt lat="43.5740628" lon="11.6203626"><ele>266.2</ele><time>2026-03-28T10:42:24.42Z</time></trkpt><trkpt lat="43.5741636" lon="11.6204183"><ele>266.8</ele><time>2026-03-28T10:42:25.42Z</time></trkpt><trkpt lat="43.574262" lon="11.6204746"><ele>267.4</ele><time>2026-03-28T10:42:26.42Z</time></trkpt><trkpt lat="43.5743624" lon="11.6205313"><ele>268.0</ele><time>2026-03-28T10:42:27.42Z</time></trkpt><trkpt lat="43.5744585" lon="11.6205796"><ele>268.66666666666663</ele><time>2026-03-28T10:42:28.42Z</time></trkpt><trkpt lat="43.5745528" lon="11.6206125"><ele>269.3333333333333</ele><time>2026-03-28T10:42:29.42Z</time></trkpt><trkpt lat="43.574638" lon="11.6206224"><ele>270.0</ele><time>2026-03-28T10:42:30.421Z</time></trkpt><trkpt lat="43.5747235" lon="11.6206041"><ele>270.6666666666667</ele><time>2026-03-28T10:42:31.42Z</time></trkpt><trkpt lat="43.5748111" lon="11.6205777"><ele>271.33333333333337</ele><time>2026-03-28T10:42:32.42Z</time></trkpt><trkpt lat="43.574888" lon="11.6205194"><ele>272.0</ele><time>2026-03-28T10:42:33.42Z</time></trkpt><trkpt lat="43.5749617" lon="11.6204323"><ele>272.0</ele><time>2026-03-28T10:42:34.42Z</time></trkpt><trkpt lat="43.5750186" lon="11.6203395"><ele>272.0</ele><time>2026-03-28T10:42:35.42Z</time></trkpt><trkpt lat="43.5750641" lon="11.6202375"><ele>272.0</ele><time>2026-03-28T10:42:36.42Z</time></trkpt><trkpt lat="43.5751089" lon="11.6201294"><ele>272.0</ele><time>2026-03-28T10:42:37.42Z</time></trkpt><trkpt lat="43.57516" lon="11.6200205"><ele>272.0</ele><time>2026-03-28T10:42:38.42Z</time></trkpt><trkpt lat="43.5752152" lon="11.619905"><ele>271.8</ele><time>2026-03-28T10:42:39.42Z</time></trkpt><trkpt lat="43.575268" lon="11.619795"><ele>271.6</ele><time>2026-03-28T10:42:40.42Z</time></trkpt><trkpt lat="43.575323" lon="11.6196929"><ele>271.40000000000003</ele><time>2026-03-28T10:42:41.42Z</time></trkpt><trkpt lat="43.5753906" lon="11.6195988"><ele>271.2</ele><time>2026-03-28T10:42:42.42Z</time></trkpt><trkpt lat="43.575471" lon="11.6195186"><ele>271.0</ele><time>2026-03-28T10:42:43.42Z</time></trkpt><trkpt lat="43.5755651" lon="11.6194563"><ele>270.6</ele><time>2026-03-28T10:42:44.42Z</time></trkpt><trkpt lat="43.5756708" lon="11.6194198"><ele>270.20000000000005</ele><time>2026-03-28T10:42:45.42Z</time></trkpt><trkpt lat="43.5757745" lon="11.6194055"><ele>269.79999999999995</ele><time>2026-03-28T10:42:46.42Z</time></trkpt><trkpt lat="43.5758586" lon="11.619405"><ele>269.4</ele><time>2026-03-28T10:42:47.42Z</time></trkpt><trkpt lat="43.5759836" lon="11.6194375"><ele>269.0</ele><time>2026-03-28T10:42:49.42Z</time></trkpt><trkpt lat="43.5760684" lon="11.6194623"><ele>269.33333333333337</ele><time>2026-03-28T10:42:50.42Z</time></trkpt><trkpt lat="43.5761527" lon="11.6194954"><ele>269.6666666666667</ele><time>2026-03-28T10:42:51.42Z</time></trkpt><trkpt lat="43.576229" lon="11.6195408"><ele>270.0</ele><time>2026-03-28T10:42:52.42Z</time></trkpt><trkpt lat="43.5763076" lon="11.619588"><ele>270.3333333333333</ele><time>2026-03-28T10:42:53.42Z</time></trkpt><trkpt lat="43.5763892" lon="11.6196401"><ele>270.66666666666663</ele><time>2026-03-28T10:42:54.42Z</time></trkpt><trkpt lat="43.5764703" lon="11.6196883"><ele>271.0</ele><time>2026-03-28T10:42:55.42Z</time></trkpt><trkpt lat="43.5765584" lon="11.6197402"><ele>271.75</ele><time>2026-03-28T10:42:56.42Z</time></trkpt><trkpt lat="43.5766555" lon="11.6197946"><ele>272.5</ele><time>2026-03-28T10:42:57.42Z</time></trkpt><trkpt lat="43.5767688" lon="11.6198504"><ele>273.25</ele><time>2026-03-28T10:42:58.42Z</time></trkpt><trkpt lat="43.5768955" lon="11.619929"><ele>274.0</ele><time>2026-03-28T10:42:59.42Z</time></trkpt><trkpt lat="43.5770278" lon="11.6200234"><ele>274.3333333333333</ele><time>2026-03-28T10:43:00.42Z</time></trkpt><trkpt lat="43.5771777" lon="11.6201259"><ele>274.6666666666667</ele><time>2026-03-28T10:43:01.42Z</time></trkpt><trkpt lat="43.5773373" lon="11.6202321"><ele>275.0</ele><time>2026-03-28T10:43:02.42Z</time></trkpt><trkpt lat="43.5775049" lon="11.6203415"><ele>275.6666666666667</ele><time>2026-03-28T10:43:03.42Z</time></trkpt><trkpt lat="43.5776717" lon="11.6204478"><ele>276.3333333333333</ele><time>2026-03-28T10:43:04.42Z</time></trkpt><trkpt lat="43.5778454" lon="11.6205613"><ele>277.0</ele><time>2026-03-28T10:43:05.42Z</time></trkpt><trkpt lat="43.5780229" lon="11.6206801"><ele>277.66666666666663</ele><time>2026-03-28T10:43:06.42Z</time></trkpt><trkpt lat="43.5781995" lon="11.6207985"><ele>278.3333333333333</ele><time>2026-03-28T10:43:07.42Z</time></trkpt><trkpt lat="43.5783733" lon="11.6209143"><ele>279.0</ele><time>2026-03-28T10:43:08.42Z</time></trkpt><trkpt lat="43.5785479" lon="11.6210275"><ele>280.3333333333333</ele><time>2026-03-28T10:43:09.42Z</time></trkpt><trkpt lat="43.5787277" lon="11.621141"><ele>281.66666666666663</ele><time>2026-03-28T10:43:10.42Z</time></trkpt><trkpt lat="43.5789082" lon="11.6212513"><ele>283.0</ele><time>2026-03-28T10:43:11.42Z</time></trkpt><trkpt lat="43.5790845" lon="11.6213641"><ele>283.0</ele><time>2026-03-28T10:43:12.42Z</time></trkpt><trkpt lat="43.5792612" lon="11.6214751"><ele>283.0</ele><time>2026-03-28T10:43:13.42Z</time></trkpt><trkpt lat="43.5794379" lon="11.6215935"><ele>283.0</ele><time>2026-03-28T10:43:14.42Z</time></trkpt><trkpt lat="43.5796127" lon="11.6217137"><ele>283.66666666666663</ele><time>2026-03-28T10:43:15.42Z</time></trkpt><trkpt lat="43.5797861" lon="11.621827"><ele>284.3333333333333</ele><time>2026-03-28T10:43:16.42Z</time></trkpt><trkpt lat="43.5799541" lon="11.621936"><ele>285.0</ele><time>2026-03-28T10:43:17.42Z</time></trkpt><trkpt lat="43.5801116" lon="11.622037"><ele>285.0</ele><time>2026-03-28T10:43:18.42Z</time></trkpt><trkpt lat="43.5802544" lon="11.6221346"><ele>285.0</ele><time>2026-03-28T10:43:19.42Z</time></trkpt><trkpt lat="43.5803843" lon="11.6222226"><ele>285.0</ele><time>2026-03-28T10:43:20.42Z</time></trkpt><trkpt lat="43.5805098" lon="11.6223025"><ele>285.0</ele><time>2026-03-28T10:43:21.42Z</time></trkpt><trkpt lat="43.5806333" lon="11.6223817"><ele>286.0</ele><time>2026-03-28T10:43:22.42Z</time></trkpt><trkpt lat="43.5807591" lon="11.6224595"><ele>287.0</ele><time>2026-03-28T10:43:23.42Z</time></trkpt><trkpt lat="43.580876" lon="11.6225362"><ele>288.0</ele><time>2026-03-28T10:43:24.42Z</time></trkpt><trkpt lat="43.5809839" lon="11.6226061"><ele>289.0</ele><time>2026-03-28T10:43:25.42Z</time></trkpt><trkpt lat="43.581085" lon="11.6226707"><ele>290.0</ele><time>2026-03-28T10:43:26.42Z</time></trkpt><trkpt lat="43.5811997" lon="11.6227355"><ele>291.0</ele><time>2026-03-28T10:43:27.42Z</time></trkpt><trkpt lat="43.5813254" lon="11.6228064"><ele>292.0</ele><time>2026-03-28T10:43:28.42Z</time></trkpt><trkpt lat="43.5814636" lon="11.622899"><ele>293.0</ele><time>2026-03-28T10:43:29.42Z</time></trkpt><trkpt lat="43.5816248" lon="11.6230009"><ele>293.33333333333337</ele><time>2026-03-28T10:43:30.42Z</time></trkpt><trkpt lat="43.5817977" lon="11.6231161"><ele>293.6666666666667</ele><time>2026-03-28T10:43:31.42Z</time></trkpt><trkpt lat="43.5819685" lon="11.6232363"><ele>294.0</ele><time>2026-03-28T10:43:32.42Z</time></trkpt><trkpt lat="43.5821265" lon="11.6233456"><ele>294.6666666666667</ele><time>2026-03-28T10:43:33.42Z</time></trkpt><trkpt lat="43.582278" lon="11.6234466"><ele>295.33333333333337</ele><time>2026-03-28T10:43:34.42Z</time></trkpt><trkpt lat="43.582426" lon="11.6235436"><ele>296.0</ele><time>2026-03-28T10:43:35.42Z</time></trkpt><trkpt lat="43.5825664" lon="11.6236388"><ele>297.0</ele><time>2026-03-28T10:43:36.42Z</time></trkpt><trkpt lat="43.5827172" lon="11.6237382"><ele>298.0</ele><time>2026-03-28T10:43:37.42Z</time></trkpt><trkpt lat="43.582869" lon="11.6238372"><ele>299.0</ele><time>2026-03-28T10:43:38.42Z</time></trkpt><trkpt lat="43.583021" lon="11.6239379"><ele>299.0</ele><time>2026-03-28T10:43:39.42Z</time></trkpt><trkpt lat="43.583165" lon="11.6240304"><ele>299.0</ele><time>2026-03-28T10:43:40.42Z</time></trkpt><trkpt lat="43.5832871" lon="11.6241078"><ele>299.0</ele><time>2026-03-28T10:43:41.42Z</time></trkpt><trkpt lat="43.5833809" lon="11.6241682"><ele>299.0</ele><time>2026-03-28T10:43:42.42Z</time></trkpt><trkpt lat="43.5834468" lon="11.6242526"><ele>299.0</ele><time>2026-03-28T10:43:43.42Z</time></trkpt><trkpt lat="43.5835051" lon="11.6243477"><ele>299.0</ele><time>2026-03-28T10:43:44.421Z</time></trkpt><trkpt lat="43.5835812" lon="11.6243986"><ele>299.0</ele><time>2026-03-28T10:43:45.42Z</time></trkpt><trkpt lat="43.5836742" lon="11.6244178"><ele>299.0</ele><time>2026-03-28T10:43:46.42Z</time></trkpt><trkpt lat="43.5837965" lon="11.624456"><ele>299.0</ele><time>2026-03-28T10:43:47.42Z</time></trkpt><trkpt lat="43.5839482" lon="11.6245324"><ele>300.0</ele><time>2026-03-28T10:43:48.42Z</time></trkpt><trkpt lat="43.5841015" lon="11.6246323"><ele>301.0</ele><time>2026-03-28T10:43:49.42Z</time></trkpt><trkpt lat="43.5842605" lon="11.6247266"><ele>302.0</ele><time>2026-03-28T10:43:50.42Z</time></trkpt><trkpt lat="43.5844278" lon="11.6248316"><ele>303.0</ele><time>2026-03-28T10:43:51.42Z</time></trkpt><trkpt lat="43.5845963" lon="11.6249407"><ele>304.0</ele><time>2026-03-28T10:43:52.42Z</time></trkpt><trkpt lat="43.5847649" lon="11.6250615"><ele>305.0</ele><time>2026-03-28T10:43:53.42Z</time></trkpt><trkpt lat="43.5849349" lon="11.6251754"><ele>305.0</ele><time>2026-03-28T10:43:54.42Z</time></trkpt><trkpt lat="43.5851086" lon="11.6252944"><ele>305.0</ele><time>2026-03-28T10:43:55.42Z</time></trkpt><trkpt lat="43.5852842" lon="11.6254084"><ele>305.0</ele><time>2026-03-28T10:43:56.42Z</time></trkpt><trkpt lat="43.5854557" lon="11.6255296"><ele>306.33333333333337</ele><time>2026-03-28T10:43:57.42Z</time></trkpt><trkpt lat="43.5856317" lon="11.6256458"><ele>307.6666666666667</ele><time>2026-03-28T10:43:58.42Z</time></trkpt><trkpt lat="43.5858084" lon="11.625762"><ele>309.0</ele><time>2026-03-28T10:43:59.42Z</time></trkpt><trkpt lat="43.5859834" lon="11.6258787"><ele>309.0</ele><time>2026-03-28T10:44:00.42Z</time></trkpt><trkpt lat="43.5861562" lon="11.6259891"><ele>309.0</ele><time>2026-03-28T10:44:01.42Z</time></trkpt><trkpt lat="43.5863308" lon="11.6261061"><ele>309.0</ele><time>2026-03-28T10:44:02.42Z</time></trkpt><trkpt lat="43.5865046" lon="11.626223"><ele>310.0</ele><time>2026-03-28T10:44:03.42Z</time></trkpt><trkpt lat="43.5866735" lon="11.626339"><ele>311.0</ele><time>2026-03-28T10:44:04.42Z</time></trkpt><trkpt lat="43.5868418" lon="11.6264523"><ele>312.0</ele><time>2026-03-28T10:44:05.42Z</time></trkpt><trkpt lat="43.5870037" lon="11.6265579"><ele>313.0</ele><time>2026-03-28T10:44:06.42Z</time></trkpt><trkpt lat="43.587153" lon="11.6266513"><ele>314.0</ele><time>2026-03-28T10:44:07.42Z</time></trkpt><trkpt lat="43.5872934" lon="11.6267363"><ele>315.0</ele><time>2026-03-28T10:44:08.42Z</time></trkpt><trkpt lat="43.5874207" lon="11.6268207"><ele>315.0</ele><time>2026-03-28T10:44:09.42Z</time></trkpt><trkpt lat="43.5875439" lon="11.6268945"><ele>315.0</ele><time>2026-03-28T10:44:10.42Z</time></trkpt><trkpt lat="43.5876529" lon="11.6269639"><ele>315.0</ele><time>2026-03-28T10:44:11.42Z</time></trkpt><trkpt lat="43.5877514" lon="11.6270315"><ele>315.0</ele><time>2026-03-28T10:44:12.42Z</time></trkpt><trkpt lat="43.587846" lon="11.6270837"><ele>316.2</ele><time>2026-03-28T10:44:13.42Z</time></trkpt><trkpt lat="43.587931" lon="11.6271488"><ele>317.4</ele><time>2026-03-28T10:44:14.42Z</time></trkpt><trkpt lat="43.5880124" lon="11.627225"><ele>318.6</ele><time>2026-03-28T10:44:15.42Z</time></trkpt><trkpt lat="43.5880812" lon="11.6273256"><ele>319.8</ele><time>2026-03-28T10:44:16.42Z</time></trkpt><trkpt lat="43.5881282" lon="11.6274334"><ele>321.0</ele><time>2026-03-28T10:44:17.42Z</time></trkpt><trkpt lat="43.5881446" lon="11.6275668"><ele>321.0</ele><time>2026-03-28T10:44:18.42Z</time></trkpt><trkpt lat="43.5881314" lon="11.6277018"><ele>321.0</ele><time>2026-03-28T10:44:19.42Z</time></trkpt><trkpt lat="43.5880955" lon="11.6278204"><ele>321.0</ele><time>2026-03-28T10:44:20.42Z</time></trkpt><trkpt lat="43.588061" lon="11.6279353"><ele>321.0</ele><time>2026-03-28T10:44:21.42Z</time></trkpt><trkpt lat="43.5880309" lon="11.6280494"><ele>321.0</ele><time>2026-03-28T10:44:22.42Z</time></trkpt><trkpt lat="43.5880042" lon="11.6281547"><ele>321.0</ele><time>2026-03-28T10:44:23.42Z</time></trkpt><trkpt lat="43.5879752" lon="11.628259"><ele>321.0</ele><time>2026-03-28T10:44:24.42Z</time></trkpt><trkpt lat="43.5879458" lon="11.6283745"><ele>321.0</ele><time>2026-03-28T10:44:25.42Z</time></trkpt><trkpt lat="43.5879197" lon="11.6284939"><ele>321.0</ele><time>2026-03-28T10:44:26.42Z</time></trkpt><trkpt lat="43.5879151" lon="11.6286148"><ele>321.0</ele><time>2026-03-28T10:44:27.42Z</time></trkpt><trkpt lat="43.5879211" lon="11.628734"><ele>321.0</ele><time>2026-03-28T10:44:28.42Z</time></trkpt><trkpt lat="43.5879467" lon="11.6288633"><ele>318.8</ele><time>2026-03-28T10:44:29.42Z</time></trkpt><trkpt lat="43.5880068" lon="11.6289877"><ele>316.6</ele><time>2026-03-28T10:44:30.42Z</time></trkpt><trkpt lat="43.5880907" lon="11.6290867"><ele>314.4</ele><time>2026-03-28T10:44:31.42Z</time></trkpt><trkpt lat="43.588187" lon="11.6291644"><ele>312.2</ele><time>2026-03-28T10:44:32.42Z</time></trkpt><trkpt lat="43.5882898" lon="11.629212"><ele>310.0</ele><time>2026-03-28T10:44:33.42Z</time></trkpt><trkpt lat="43.5883983" lon="11.6292488"><ele>310.0</ele><time>2026-03-28T10:44:34.42Z</time></trkpt><trkpt lat="43.5885124" lon="11.6292961"><ele>310.0</ele><time>2026-03-28T10:44:35.42Z</time></trkpt><trkpt lat="43.5886401" lon="11.6293417"><ele>310.0</ele><time>2026-03-28T10:44:36.42Z</time></trkpt><trkpt lat="43.5887881" lon="11.6294002"><ele>310.0</ele><time>2026-03-28T10:44:37.42Z</time></trkpt><trkpt lat="43.5889607" lon="11.629486"><ele>308.0</ele><time>2026-03-28T10:44:38.42Z</time></trkpt><trkpt lat="43.5891415" lon="11.629581"><ele>306.0</ele><time>2026-03-28T10:44:39.42Z</time></trkpt><trkpt lat="43.5893306" lon="11.6296734"><ele>304.0</ele><time>2026-03-28T10:44:40.42Z</time></trkpt><trkpt lat="43.5895249" lon="11.6297554"><ele>304.0</ele><time>2026-03-28T10:44:41.42Z</time></trkpt><trkpt lat="43.5897086" lon="11.6298241"><ele>304.0</ele><time>2026-03-28T10:44:42.42Z</time></trkpt><trkpt lat="43.5898799" lon="11.6299128"><ele>304.0</ele><time>2026-03-28T10:44:43.42Z</time></trkpt><trkpt lat="43.5900342" lon="11.6300329"><ele>304.0</ele><time>2026-03-28T10:44:44.42Z</time></trkpt><trkpt lat="43.5901707" lon="11.6301958"><ele>304.0</ele><time>2026-03-28T10:44:45.42Z</time></trkpt><trkpt lat="43.5902703" lon="11.6303973"><ele>304.0</ele><time>2026-03-28T10:44:46.42Z</time></trkpt><trkpt lat="43.5903253" lon="11.6306303"><ele>304.3333333333333</ele><time>2026-03-28T10:44:47.42Z</time></trkpt><trkpt lat="43.5903482" lon="11.6309054"><ele>304.6666666666667</ele><time>2026-03-28T10:44:48.42Z</time></trkpt><trkpt lat="43.5903416" lon="11.6311599"><ele>305.0</ele><time>2026-03-28T10:44:49.42Z</time></trkpt><trkpt lat="43.5903272" lon="11.6313776"><ele>306.0</ele><time>2026-03-28T10:44:50.42Z</time></trkpt><trkpt lat="43.5903149" lon="11.6315799"><ele>307.0</ele><time>2026-03-28T10:44:51.42Z</time></trkpt><trkpt lat="43.5902916" lon="11.6317622"><ele>308.0</ele><time>2026-03-28T10:44:52.42Z</time></trkpt><trkpt lat="43.5902565" lon="11.6319233"><ele>309.0</ele><time>2026-03-28T10:44:53.42Z</time></trkpt><trkpt lat="43.5902061" lon="11.6320637"><ele>309.0</ele><time>2026-03-28T10:44:54.42Z</time></trkpt><trkpt lat="43.5901503" lon="11.6321607"><ele>309.0</ele><time>2026-03-28T10:44:55.42Z</time></trkpt><trkpt lat="43.5901046" lon="11.6322465"><ele>309.0</ele><time>2026-03-28T10:44:56.42Z</time></trkpt><trkpt lat="43.5901255" lon="11.6323987"><ele>309.0</ele><time>2026-03-28T10:44:58.42Z</time></trkpt><trkpt lat="43.5901859" lon="11.6324445"><ele>309.0</ele><time>2026-03-28T10:44:59.42Z</time></trkpt><trkpt lat="43.5902819" lon="11.6324706"><ele>309.0</ele><time>2026-03-28T10:45:00.42Z</time></trkpt><trkpt lat="43.5904116" lon="11.6324935"><ele>309.25</ele><time>2026-03-28T10:45:01.42Z</time></trkpt><trkpt lat="43.5905534" lon="11.6325484"><ele>309.5</ele><time>2026-03-28T10:45:02.42Z</time></trkpt><trkpt lat="43.5906873" lon="11.6326262"><ele>309.75</ele><time>2026-03-28T10:45:03.42Z</time></trkpt><trkpt lat="43.5907973" lon="11.6327064"><ele>310.0</ele><time>2026-03-28T10:45:04.42Z</time></trkpt><trkpt lat="43.5909004" lon="11.6327778"><ele>312.3333333333333</ele><time>2026-03-28T10:45:05.42Z</time></trkpt><trkpt lat="43.5909903" lon="11.6328595"><ele>314.66666666666663</ele><time>2026-03-28T10:45:06.42Z</time></trkpt><trkpt lat="43.5910775" lon="11.6329074"><ele>317.0</ele><time>2026-03-28T10:45:07.42Z</time></trkpt><trkpt lat="43.591148" lon="11.6329544"><ele>319.3333333333333</ele><time>2026-03-28T10:45:08.42Z</time></trkpt><trkpt lat="43.59122" lon="11.633009"><ele>321.6666666666667</ele><time>2026-03-28T10:45:09.42Z</time></trkpt><trkpt lat="43.5912879" lon="11.6330468"><ele>324.0</ele><time>2026-03-28T10:45:10.42Z</time></trkpt><trkpt lat="43.5913502" lon="11.6330759"><ele>324.4</ele><time>2026-03-28T10:45:11.42Z</time></trkpt><trkpt lat="43.5914762" lon="11.6331072"><ele>324.79999999999995</ele><time>2026-03-28T10:45:13.42Z</time></trkpt><trkpt lat="43.5915708" lon="11.6330842"><ele>325.20000000000005</ele><time>2026-03-28T10:45:14.42Z</time></trkpt><trkpt lat="43.5916754" lon="11.6330464"><ele>325.6</ele><time>2026-03-28T10:45:15.42Z</time></trkpt><trkpt lat="43.5917737" lon="11.6329982"><ele>326.0</ele><time>2026-03-28T10:45:16.42Z</time></trkpt><trkpt lat="43.5918447" lon="11.6329697"><ele>326.0</ele><time>2026-03-28T10:45:17.42Z</time></trkpt><trkpt lat="43.5919647" lon="11.6329605"><ele>326.0</ele><time>2026-03-28T10:45:19.42Z</time></trkpt><trkpt lat="43.5920393" lon="11.6329961"><ele>326.0</ele><time>2026-03-28T10:45:20.42Z</time></trkpt><trkpt lat="43.5921217" lon="11.6330552"><ele>326.0</ele><time>2026-03-28T10:45:21.42Z</time></trkpt><trkpt lat="43.5921981" lon="11.6331194"><ele>326.0</ele><time>2026-03-28T10:45:22.42Z</time></trkpt><trkpt lat="43.5922869" lon="11.6331878"><ele>326.1666666666667</ele><time>2026-03-28T10:45:23.42Z</time></trkpt><trkpt lat="43.5923752" lon="11.6332201"><ele>326.33333333333337</ele><time>2026-03-28T10:45:24.42Z</time></trkpt><trkpt lat="43.5924595" lon="11.6332007"><ele>326.5</ele><time>2026-03-28T10:45:25.42Z</time></trkpt><trkpt lat="43.5925331" lon="11.6331569"><ele>326.6666666666667</ele><time>2026-03-28T10:45:26.42Z</time></trkpt><trkpt lat="43.5926034" lon="11.6331505"><ele>326.8333333333333</ele><time>2026-03-28T10:45:27.42Z</time></trkpt><trkpt lat="43.5926718" lon="11.6331929"><ele>327.0</ele><time>2026-03-28T10:45:28.42Z</time></trkpt><trkpt lat="43.5927482" lon="11.6333173"><ele>327.0</ele><time>2026-03-28T10:45:29.42Z</time></trkpt><trkpt lat="43.5928328" lon="11.6334506"><ele>327.0</ele><time>2026-03-28T10:45:30.42Z</time></trkpt><trkpt lat="43.5929384" lon="11.6335817"><ele>327.0</ele><time>2026-03-28T10:45:31.42Z</time></trkpt><trkpt lat="43.5930436" lon="11.6336957"><ele>327.0</ele><time>2026-03-28T10:45:32.42Z</time></trkpt><trkpt lat="43.5931468" lon="11.6337959"><ele>330.25</ele><time>2026-03-28T10:45:33.42Z</time></trkpt><trkpt lat="43.593253" lon="11.6339013"><ele>333.5</ele><time>2026-03-28T10:45:34.42Z</time></trkpt><trkpt lat="43.593356" lon="11.6339985"><ele>336.75</ele><time>2026-03-28T10:45:35.42Z</time></trkpt><trkpt lat="43.5934591" lon="11.6340955"><ele>340.0</ele><time>2026-03-28T10:45:36.42Z</time></trkpt><trkpt lat="43.5935589" lon="11.6341941"><ele>340.0</ele><time>2026-03-28T10:45:37.42Z</time></trkpt><trkpt lat="43.5936497" lon="11.6342909"><ele>340.0</ele><time>2026-03-28T10:45:38.42Z</time></trkpt><trkpt lat="43.5937204" lon="11.6343768"><ele>340.0</ele><time>2026-03-28T10:45:39.42Z</time></trkpt><trkpt lat="43.5937617" lon="11.6344611"><ele>340.0</ele><time>2026-03-28T10:45:40.42Z</time></trkpt><trkpt lat="43.5937911" lon="11.6345429"><ele>340.0</ele><time>2026-03-28T10:45:41.42Z</time></trkpt><trkpt lat="43.5938532" lon="11.6345749"><ele>340.0</ele><time>2026-03-28T10:45:42.42Z</time></trkpt><trkpt lat="43.593928" lon="11.6345549"><ele>341.0</ele><time>2026-03-28T10:45:43.42Z</time></trkpt><trkpt lat="43.5939993" lon="11.6344673"><ele>342.0</ele><time>2026-03-28T10:45:44.42Z</time></trkpt><trkpt lat="43.5940745" lon="11.6343566"><ele>343.0</ele><time>2026-03-28T10:45:45.42Z</time></trkpt><trkpt lat="43.5941943" lon="11.6342689"><ele>344.0</ele><time>2026-03-28T10:45:46.42Z</time></trkpt><trkpt lat="43.5943406" lon="11.6342163"><ele>344.0</ele><time>2026-03-28T10:45:47.42Z</time></trkpt><trkpt lat="43.5945023" lon="11.6341879"><ele>344.0</ele><time>2026-03-28T10:45:48.42Z</time></trkpt><trkpt lat="43.5946778" lon="11.6341513"><ele>344.0</ele><time>2026-03-28T10:45:49.42Z</time></trkpt><trkpt lat="43.594855" lon="11.6341224"><ele>346.6666666666667</ele><time>2026-03-28T10:45:50.42Z</time></trkpt><trkpt lat="43.5950292" lon="11.6340843"><ele>349.3333333333333</ele><time>2026-03-28T10:45:51.42Z</time></trkpt><trkpt lat="43.5951986" lon="11.6340513"><ele>352.0</ele><time>2026-03-28T10:45:52.42Z</time></trkpt><trkpt lat="43.5953547" lon="11.6340265"><ele>353.0</ele><time>2026-03-28T10:45:53.42Z</time></trkpt><trkpt lat="43.5954951" lon="11.6340078"><ele>354.0</ele><time>2026-03-28T10:45:54.42Z</time></trkpt><trkpt lat="43.595636" lon="11.6339891"><ele>355.0</ele><time>2026-03-28T10:45:55.42Z</time></trkpt><trkpt lat="43.595779" lon="11.633966"><ele>356.0</ele><time>2026-03-28T10:45:56.42Z</time></trkpt><trkpt lat="43.5959313" lon="11.6339377"><ele>356.0</ele><time>2026-03-28T10:45:57.42Z</time></trkpt><trkpt lat="43.5960927" lon="11.6339149"><ele>356.0</ele><time>2026-03-28T10:45:58.42Z</time></trkpt><trkpt lat="43.5962547" lon="11.6338884"><ele>356.0</ele><time>2026-03-28T10:45:59.42Z</time></trkpt><trkpt lat="43.5964064" lon="11.6338684"><ele>357.25</ele><time>2026-03-28T10:46:00.42Z</time></trkpt><trkpt lat="43.5965452" lon="11.6338493"><ele>358.5</ele><time>2026-03-28T10:46:01.42Z</time></trkpt><trkpt lat="43.5966755" lon="11.6338056"><ele>359.75</ele><time>2026-03-28T10:46:02.42Z</time></trkpt><trkpt lat="43.5968048" lon="11.6337457"><ele>361.0</ele><time>2026-03-28T10:46:03.42Z</time></trkpt><trkpt lat="43.5969342" lon="11.6337128"><ele>362.5</ele><time>2026-03-28T10:46:04.42Z</time></trkpt><trkpt lat="43.5970598" lon="11.6337132"><ele>364.0</ele><time>2026-03-28T10:46:05.42Z</time></trkpt><trkpt lat="43.5971928" lon="11.6337773"><ele>365.5</ele><time>2026-03-28T10:46:06.42Z</time></trkpt><trkpt lat="43.5973313" lon="11.6338913"><ele>367.0</ele><time>2026-03-28T10:46:07.42Z</time></trkpt><trkpt lat="43.5974744" lon="11.6340126"><ele>367.0</ele><time>2026-03-28T10:46:08.42Z</time></trkpt><trkpt lat="43.5976021" lon="11.6341143"><ele>367.0</ele><time>2026-03-28T10:46:09.42Z</time></trkpt><trkpt lat="43.5977436" lon="11.6341818"><ele>367.0</ele><time>2026-03-28T10:46:10.42Z</time></trkpt><trkpt lat="43.5979061" lon="11.6342178"><ele>369.0</ele><time>2026-03-28T10:46:11.42Z</time></trkpt><trkpt lat="43.5980791" lon="11.6342105"><ele>371.0</ele><time>2026-03-28T10:46:12.42Z</time></trkpt><trkpt lat="43.5982493" lon="11.6341901"><ele>373.0</ele><time>2026-03-28T10:46:13.42Z</time></trkpt><trkpt lat="43.5984159" lon="11.6341531"><ele>373.0</ele><time>2026-03-28T10:46:14.42Z</time></trkpt><trkpt lat="43.598577" lon="11.6341329"><ele>373.0</ele><time>2026-03-28T10:46:15.42Z</time></trkpt><trkpt lat="43.5987358" lon="11.6341497"><ele>373.0</ele><time>2026-03-28T10:46:16.42Z</time></trkpt><trkpt lat="43.5988894" lon="11.6341801"><ele>374.5</ele><time>2026-03-28T10:46:17.42Z</time></trkpt><trkpt lat="43.5990354" lon="11.6342171"><ele>376.0</ele><time>2026-03-28T10:46:18.42Z</time></trkpt><trkpt lat="43.5991728" lon="11.6342513"><ele>377.5</ele><time>2026-03-28T10:46:19.42Z</time></trkpt><trkpt lat="43.5993017" lon="11.6342702"><ele>379.0</ele><time>2026-03-28T10:46:20.42Z</time></trkpt><trkpt lat="43.5994268" lon="11.6342468"><ele>378.25</ele><time>2026-03-28T10:46:21.42Z</time></trkpt><trkpt lat="43.5995418" lon="11.6341584"><ele>377.5</ele><time>2026-03-28T10:46:22.42Z</time></trkpt><trkpt lat="43.5996315" lon="11.6340256"><ele>376.75</ele><time>2026-03-28T10:46:23.42Z</time></trkpt><trkpt lat="43.5997178" lon="11.6339224"><ele>376.0</ele><time>2026-03-28T10:46:24.42Z</time></trkpt><trkpt lat="43.5998025" lon="11.6338705"><ele>376.0</ele><time>2026-03-28T10:46:25.42Z</time></trkpt><trkpt lat="43.5998831" lon="11.633877"><ele>376.0</ele><time>2026-03-28T10:46:26.42Z</time></trkpt><trkpt lat="43.5999547" lon="11.6339215"><ele>376.0</ele><time>2026-03-28T10:46:27.42Z</time></trkpt><trkpt lat="43.6000415" lon="11.6339864"><ele>376.0</ele><time>2026-03-28T10:46:28.42Z</time></trkpt><trkpt lat="43.600142" lon="11.6340692"><ele>376.0</ele><time>2026-03-28T10:46:29.42Z</time></trkpt><trkpt lat="43.6002615" lon="11.6341573"><ele>374.3333333333333</ele><time>2026-03-28T10:46:30.42Z</time></trkpt><trkpt lat="43.6004111" lon="11.6342351"><ele>372.6666666666667</ele><time>2026-03-28T10:46:31.42Z</time></trkpt><trkpt lat="43.6005834" lon="11.6343279"><ele>371.0</ele><time>2026-03-28T10:46:32.42Z</time></trkpt><trkpt lat="43.6007632" lon="11.6344142"><ele>376.6666666666667</ele><time>2026-03-28T10:46:33.42Z</time></trkpt><trkpt lat="43.60095" lon="11.6344771"><ele>382.33333333333337</ele><time>2026-03-28T10:46:34.42Z</time></trkpt><trkpt lat="43.6011332" lon="11.6345294"><ele>388.0</ele><time>2026-03-28T10:46:35.42Z</time></trkpt><trkpt lat="43.6013152" lon="11.6345541"><ele>389.0</ele><time>2026-03-28T10:46:36.42Z</time></trkpt><trkpt lat="43.601486" lon="11.6345456"><ele>390.0</ele><time>2026-03-28T10:46:37.42Z</time></trkpt><trkpt lat="43.6016488" lon="11.634545"><ele>391.0</ele><time>2026-03-28T10:46:38.42Z</time></trkpt><trkpt lat="43.6017922" lon="11.634605"><ele>391.0</ele><time>2026-03-28T10:46:39.42Z</time></trkpt><trkpt lat="43.6019392" lon="11.6347182"><ele>391.0</ele><time>2026-03-28T10:46:40.42Z</time></trkpt><trkpt lat="43.6021042" lon="11.6348318"><ele>391.0</ele><time>2026-03-28T10:46:41.42Z</time></trkpt><trkpt lat="43.6022802" lon="11.6349112"><ele>391.0</ele><time>2026-03-28T10:46:42.42Z</time></trkpt><trkpt lat="43.6024678" lon="11.6349699"><ele>391.0</ele><time>2026-03-28T10:46:43.42Z</time></trkpt><trkpt lat="43.6026572" lon="11.6350152"><ele>391.0</ele><time>2026-03-28T10:46:44.42Z</time></trkpt><trkpt lat="43.6028349" lon="11.6350239"><ele>390.6666666666667</ele><time>2026-03-28T10:46:45.42Z</time></trkpt><trkpt lat="43.6030069" lon="11.6350146"><ele>390.33333333333337</ele><time>2026-03-28T10:46:46.42Z</time></trkpt><trkpt lat="43.6031706" lon="11.6350381"><ele>390.0</ele><time>2026-03-28T10:46:47.42Z</time></trkpt><trkpt lat="43.6033274" lon="11.635128"><ele>390.0</ele><time>2026-03-28T10:46:48.42Z</time></trkpt><trkpt lat="43.6034774" lon="11.6352583"><ele>390.0</ele><time>2026-03-28T10:46:49.42Z</time></trkpt><trkpt lat="43.6036328" lon="11.6353976"><ele>390.0</ele><time>2026-03-28T10:46:50.42Z</time></trkpt><trkpt lat="43.6037912" lon="11.6355454"><ele>392.33333333333337</ele><time>2026-03-28T10:46:51.42Z</time></trkpt><trkpt lat="43.6039559" lon="11.635686"><ele>394.6666666666667</ele><time>2026-03-28T10:46:52.42Z</time></trkpt><trkpt lat="43.604127" lon="11.6357986"><ele>397.0</ele><time>2026-03-28T10:46:53.42Z</time></trkpt><trkpt lat="43.604298" lon="11.6358918"><ele>397.0</ele><time>2026-03-28T10:46:54.42Z</time></trkpt><trkpt lat="43.6044596" lon="11.6359648"><ele>397.0</ele><time>2026-03-28T10:46:55.42Z</time></trkpt><trkpt lat="43.6046116" lon="11.6360446"><ele>397.0</ele><time>2026-03-28T10:46:56.42Z</time></trkpt><trkpt lat="43.6047538" lon="11.6361518"><ele>400.0</ele><time>2026-03-28T10:46:57.42Z</time></trkpt><trkpt lat="43.6048687" lon="11.6362943"><ele>403.0</ele><time>2026-03-28T10:46:58.42Z</time></trkpt><trkpt lat="43.6049755" lon="11.6364587"><ele>406.0</ele><time>2026-03-28T10:46:59.42Z</time></trkpt><trkpt lat="43.6050616" lon="11.6366135"><ele>406.0</ele><time>2026-03-28T10:47:00.42Z</time></trkpt><trkpt lat="43.6051353" lon="11.636758"><ele>406.0</ele><time>2026-03-28T10:47:01.421Z</time></trkpt><trkpt lat="43.6052198" lon="11.6368771"><ele>406.0</ele><time>2026-03-28T10:47:02.42Z</time></trkpt><trkpt lat="43.6053185" lon="11.6369902"><ele>406.0</ele><time>2026-03-28T10:47:03.42Z</time></trkpt><trkpt lat="43.6054093" lon="11.6371268"><ele>413.6666666666667</ele><time>2026-03-28T10:47:04.42Z</time></trkpt><trkpt lat="43.6055517" lon="11.6371903"><ele>421.33333333333337</ele><time>2026-03-28T10:47:05.42Z</time></trkpt><trkpt lat="43.6057197" lon="11.6371609"><ele>429.0</ele><time>2026-03-28T10:47:06.42Z</time></trkpt><trkpt lat="43.6059098" lon="11.6370862"><ele>429.0</ele><time>2026-03-28T10:47:07.42Z</time></trkpt><trkpt lat="43.6060971" lon="11.6370513"><ele>429.0</ele><time>2026-03-28T10:47:08.42Z</time></trkpt><trkpt lat="43.6062883" lon="11.6370374"><ele>429.0</ele><time>2026-03-28T10:47:09.42Z</time></trkpt><trkpt lat="43.6064844" lon="11.637051"><ele>427.33333333333337</ele><time>2026-03-28T10:47:10.42Z</time></trkpt><trkpt lat="43.6066583" lon="11.6371045"><ele>425.6666666666667</ele><time>2026-03-28T10:47:11.42Z</time></trkpt><trkpt lat="43.6068254" lon="11.6371992"><ele>424.0</ele><time>2026-03-28T10:47:12.42Z</time></trkpt><trkpt lat="43.6069971" lon="11.6372883"><ele>423.33333333333337</ele><time>2026-03-28T10:47:13.42Z</time></trkpt><trkpt lat="43.6071845" lon="11.6373284"><ele>422.66666666666663</ele><time>2026-03-28T10:47:14.42Z</time></trkpt><trkpt lat="43.6073755" lon="11.6373541"><ele>422.0</ele><time>2026-03-28T10:47:15.42Z</time></trkpt><trkpt lat="43.6075653" lon="11.6373749"><ele>422.0</ele><time>2026-03-28T10:47:16.42Z</time></trkpt><trkpt lat="43.6077702" lon="11.6372892"><ele>422.0</ele><time>2026-03-28T10:47:17.42Z</time></trkpt><trkpt lat="43.6079632" lon="11.6372417"><ele>422.0</ele><time>2026-03-28T10:47:18.42Z</time></trkpt><trkpt lat="43.6081405" lon="11.6372167"><ele>422.0</ele><time>2026-03-28T10:47:19.42Z</time></trkpt><trkpt lat="43.6082986" lon="11.6372207"><ele>422.0</ele><time>2026-03-28T10:47:20.42Z</time></trkpt><trkpt lat="43.6084473" lon="11.6372798"><ele>422.0</ele><time>2026-03-28T10:47:21.42Z</time></trkpt><trkpt lat="43.6085962" lon="11.6373636"><ele>422.0</ele><time>2026-03-28T10:47:22.42Z</time></trkpt><trkpt lat="43.6087479" lon="11.63747"><ele>422.0</ele><time>2026-03-28T10:47:23.42Z</time></trkpt><trkpt lat="43.6089079" lon="11.6375883"><ele>422.0</ele><time>2026-03-28T10:47:24.42Z</time></trkpt><trkpt lat="43.6090779" lon="11.637694"><ele>422.0</ele><time>2026-03-28T10:47:25.42Z</time></trkpt><trkpt lat="43.6092461" lon="11.6378009"><ele>422.0</ele><time>2026-03-28T10:47:26.42Z</time></trkpt><trkpt lat="43.6094202" lon="11.6379234"><ele>422.0</ele><time>2026-03-28T10:47:27.42Z</time></trkpt><trkpt lat="43.6095964" lon="11.6380381"><ele>427.3333333333333</ele><time>2026-03-28T10:47:28.42Z</time></trkpt><trkpt lat="43.6097749" lon="11.6381621"><ele>432.66666666666663</ele><time>2026-03-28T10:47:29.42Z</time></trkpt><trkpt lat="43.6099446" lon="11.6383228"><ele>438.0</ele><time>2026-03-28T10:47:30.42Z</time></trkpt><trkpt lat="43.6100964" lon="11.6385207"><ele>440.0</ele><time>2026-03-28T10:47:31.42Z</time></trkpt><trkpt lat="43.6102395" lon="11.6387345"><ele>442.0</ele><time>2026-03-28T10:47:32.42Z</time></trkpt><trkpt lat="43.6103771" lon="11.6389466"><ele>444.0</ele><time>2026-03-28T10:47:33.42Z</time></trkpt><trkpt lat="43.6105029" lon="11.6391726"><ele>444.0</ele><time>2026-03-28T10:47:34.42Z</time></trkpt><trkpt lat="43.6106176" lon="11.639421"><ele>444.0</ele><time>2026-03-28T10:47:35.42Z</time></trkpt><trkpt lat="43.6107137" lon="11.6396318"><ele>444.0</ele><time>2026-03-28T10:47:36.42Z</time></trkpt><trkpt lat="43.6108115" lon="11.6398242"><ele>447.33333333333337</ele><time>2026-03-28T10:47:37.42Z</time></trkpt><trkpt lat="43.6109268" lon="11.6399623"><ele>450.6666666666667</ele><time>2026-03-28T10:47:38.42Z</time></trkpt><trkpt lat="43.6110881" lon="11.640055"><ele>454.0</ele><time>2026-03-28T10:47:39.42Z</time></trkpt><trkpt lat="43.6112662" lon="11.6401601"><ele>454.0</ele><time>2026-03-28T10:47:40.42Z</time></trkpt><trkpt lat="43.6114341" lon="11.6402779"><ele>454.0</ele><time>2026-03-28T10:47:41.42Z</time></trkpt><trkpt lat="43.6115852" lon="11.6404317"><ele>454.0</ele><time>2026-03-28T10:47:42.42Z</time></trkpt><trkpt lat="43.6117345" lon="11.640613"><ele>457.6666666666667</ele><time>2026-03-28T10:47:43.42Z</time></trkpt><trkpt lat="43.6118754" lon="11.6407965"><ele>461.33333333333337</ele><time>2026-03-28T10:47:44.42Z</time></trkpt><trkpt lat="43.6119983" lon="11.6409553"><ele>465.0</ele><time>2026-03-28T10:47:45.42Z</time></trkpt><trkpt lat="43.6121088" lon="11.6411335"><ele>467.33333333333337</ele><time>2026-03-28T10:47:46.42Z</time></trkpt><trkpt lat="43.6121792" lon="11.6413595"><ele>469.6666666666667</ele><time>2026-03-28T10:47:47.42Z</time></trkpt><trkpt lat="43.6122308" lon="11.6416093"><ele>472.0</ele><time>2026-03-28T10:47:48.42Z</time></trkpt><trkpt lat="43.6122671" lon="11.6418754"><ele>474.0</ele><time>2026-03-28T10:47:49.42Z</time></trkpt><trkpt lat="43.6123054" lon="11.6421378"><ele>476.0</ele><time>2026-03-28T10:47:50.42Z</time></trkpt><trkpt lat="43.6123477" lon="11.6424048"><ele>478.0</ele><time>2026-03-28T10:47:51.42Z</time></trkpt><trkpt lat="43.6123891" lon="11.6426701"><ele>479.0</ele><time>2026-03-28T10:47:52.42Z</time></trkpt><trkpt lat="43.6123972" lon="11.6429312"><ele>480.0</ele><time>2026-03-28T10:47:53.42Z</time></trkpt><trkpt lat="43.612372" lon="11.6431895"><ele>481.0</ele><time>2026-03-28T10:47:54.42Z</time></trkpt><trkpt lat="43.612323" lon="11.6434368"><ele>482.6666666666667</ele><time>2026-03-28T10:47:55.42Z</time></trkpt><trkpt lat="43.6122699" lon="11.6436798"><ele>484.33333333333337</ele><time>2026-03-28T10:47:56.42Z</time></trkpt><trkpt lat="43.6122078" lon="11.6439216"><ele>486.0</ele><time>2026-03-28T10:47:57.42Z</time></trkpt><trkpt lat="43.6121306" lon="11.6441587"><ele>486.0</ele><time>2026-03-28T10:47:58.42Z</time></trkpt><trkpt lat="43.6120193" lon="11.6443687"><ele>486.0</ele><time>2026-03-28T10:47:59.42Z</time></trkpt><trkpt lat="43.6118898" lon="11.6445706"><ele>486.0</ele><time>2026-03-28T10:48:00.42Z</time></trkpt><trkpt lat="43.6117817" lon="11.6447747"><ele>490.33333333333337</ele><time>2026-03-28T10:48:01.42Z</time></trkpt><trkpt lat="43.6116943" lon="11.6450005"><ele>494.6666666666667</ele><time>2026-03-28T10:48:02.42Z</time></trkpt><trkpt lat="43.6116208" lon="11.6452305"><ele>499.0</ele><time>2026-03-28T10:48:03.42Z</time></trkpt><trkpt lat="43.6115251" lon="11.6454469"><ele>499.6666666666667</ele><time>2026-03-28T10:48:04.42Z</time></trkpt><trkpt lat="43.6114098" lon="11.6456216"><ele>500.33333333333337</ele><time>2026-03-28T10:48:05.42Z</time></trkpt><trkpt lat="43.611272" lon="11.645742"><ele>501.0</ele><time>2026-03-28T10:48:06.42Z</time></trkpt><trkpt lat="43.6111325" lon="11.6457844"><ele>502.66666666666663</ele><time>2026-03-28T10:48:07.42Z</time></trkpt><trkpt lat="43.610987" lon="11.6457832"><ele>504.3333333333333</ele><time>2026-03-28T10:48:08.42Z</time></trkpt><trkpt lat="43.6108314" lon="11.6457681"><ele>506.0</ele><time>2026-03-28T10:48:09.42Z</time></trkpt><trkpt lat="43.6106638" lon="11.6457887"><ele>506.0</ele><time>2026-03-28T10:48:10.42Z</time></trkpt><trkpt lat="43.6104918" lon="11.6458416"><ele>506.0</ele><time>2026-03-28T10:48:11.42Z</time></trkpt><trkpt lat="43.6103421" lon="11.6458728"><ele>506.0</ele><time>2026-03-28T10:48:12.42Z</time></trkpt><trkpt lat="43.6101999" lon="11.6458988"><ele>507.0</ele><time>2026-03-28T10:48:13.42Z</time></trkpt><trkpt lat="43.6100722" lon="11.6459297"><ele>508.0</ele><time>2026-03-28T10:48:14.42Z</time></trkpt><trkpt lat="43.6099701" lon="11.645979"><ele>509.0</ele><time>2026-03-28T10:48:15.42Z</time></trkpt><trkpt lat="43.60987" lon="11.6460452"><ele>510.0</ele><time>2026-03-28T10:48:16.42Z</time></trkpt><trkpt lat="43.6097978" lon="11.6461292"><ele>511.0</ele><time>2026-03-28T10:48:17.42Z</time></trkpt><trkpt lat="43.6097449" lon="11.6462683"><ele>511.0</ele><time>2026-03-28T10:48:18.42Z</time></trkpt><trkpt lat="43.6097308" lon="11.6464879"><ele>511.0</ele><time>2026-03-28T10:48:19.42Z</time></trkpt><trkpt lat="43.6097438" lon="11.6467288"><ele>511.0</ele><time>2026-03-28T10:48:20.42Z</time></trkpt><trkpt lat="43.6097737" lon="11.6469568"><ele>512.6666666666667</ele><time>2026-03-28T10:48:21.42Z</time></trkpt><trkpt lat="43.6097995" lon="11.6472017"><ele>514.3333333333334</ele><time>2026-03-28T10:48:22.42Z</time></trkpt><trkpt lat="43.6098376" lon="11.6474571"><ele>516.0</ele><time>2026-03-28T10:48:23.42Z</time></trkpt><trkpt lat="43.6098708" lon="11.6477093"><ele>516.6666666666666</ele><time>2026-03-28T10:48:24.42Z</time></trkpt><trkpt lat="43.6098818" lon="11.6479583"><ele>517.3333333333333</ele><time>2026-03-28T10:48:25.42Z</time></trkpt><trkpt lat="43.609887" lon="11.6482051"><ele>518.0</ele><time>2026-03-28T10:48:26.42Z</time></trkpt><trkpt lat="43.6099139" lon="11.6484577"><ele>520.3333333333333</ele><time>2026-03-28T10:48:27.42Z</time></trkpt><trkpt lat="43.6099655" lon="11.6487079"><ele>522.6666666666666</ele><time>2026-03-28T10:48:28.42Z</time></trkpt><trkpt lat="43.6100425" lon="11.648955"><ele>525.0</ele><time>2026-03-28T10:48:29.42Z</time></trkpt><trkpt lat="43.6101295" lon="11.6492039"><ele>525.0</ele><time>2026-03-28T10:48:30.42Z</time></trkpt><trkpt lat="43.6102381" lon="11.6494403"><ele>525.0</ele><time>2026-03-28T10:48:31.42Z</time></trkpt><trkpt lat="43.6103496" lon="11.6496674"><ele>525.0</ele><time>2026-03-28T10:48:32.42Z</time></trkpt><trkpt lat="43.6104501" lon="11.6498739"><ele>528.0</ele><time>2026-03-28T10:48:33.42Z</time></trkpt><trkpt lat="43.6105585" lon="11.650058"><ele>531.0</ele><time>2026-03-28T10:48:34.42Z</time></trkpt><trkpt lat="43.6106998" lon="11.6502013"><ele>534.0</ele><time>2026-03-28T10:48:35.42Z</time></trkpt><trkpt lat="43.6108642" lon="11.6503279"><ele>535.0</ele><time>2026-03-28T10:48:36.42Z</time></trkpt><trkpt lat="43.611043" lon="11.650444"><ele>536.0</ele><time>2026-03-28T10:48:37.42Z</time></trkpt><trkpt lat="43.6112075" lon="11.6505909"><ele>537.0</ele><time>2026-03-28T10:48:38.42Z</time></trkpt><trkpt lat="43.6113574" lon="11.6507828"><ele>540.0</ele><time>2026-03-28T10:48:39.42Z</time></trkpt><trkpt lat="43.6114986" lon="11.650984"><ele>543.0</ele><time>2026-03-28T10:48:40.42Z</time></trkpt><trkpt lat="43.6116401" lon="11.6511758"><ele>546.0</ele><time>2026-03-28T10:48:41.42Z</time></trkpt><trkpt lat="43.6117913" lon="11.6513553"><ele>549.6666666666666</ele><time>2026-03-28T10:48:42.42Z</time></trkpt><trkpt lat="43.611944" lon="11.6515174"><ele>553.3333333333333</ele><time>2026-03-28T10:48:43.42Z</time></trkpt><trkpt lat="43.6120787" lon="11.6516752"><ele>557.0</ele><time>2026-03-28T10:48:44.42Z</time></trkpt><trkpt lat="43.6122028" lon="11.6518305"><ele>560.0</ele><time>2026-03-28T10:48:45.42Z</time></trkpt><trkpt lat="43.6123237" lon="11.6519877"><ele>563.0</ele><time>2026-03-28T10:48:46.42Z</time></trkpt><trkpt lat="43.612438" lon="11.6521613"><ele>566.0</ele><time>2026-03-28T10:48:47.42Z</time></trkpt><trkpt lat="43.6125523" lon="11.6523436"><ele>566.0</ele><time>2026-03-28T10:48:48.42Z</time></trkpt><trkpt lat="43.6126736" lon="11.6525196"><ele>566.0</ele><time>2026-03-28T10:48:49.42Z</time></trkpt><trkpt lat="43.612805" lon="11.6526875"><ele>566.0</ele><time>2026-03-28T10:48:50.42Z</time></trkpt><trkpt lat="43.6129354" lon="11.652844"><ele>565.0</ele><time>2026-03-28T10:48:51.42Z</time></trkpt><trkpt lat="43.6130517" lon="11.6529803"><ele>564.0</ele><time>2026-03-28T10:48:52.42Z</time></trkpt><trkpt lat="43.6131452" lon="11.6531275"><ele>563.0</ele><time>2026-03-28T10:48:53.42Z</time></trkpt><trkpt lat="43.6132115" lon="11.6532987"><ele>562.0</ele><time>2026-03-28T10:48:54.42Z</time></trkpt><trkpt lat="43.6132318" lon="11.653496"><ele>565.75</ele><time>2026-03-28T10:48:55.42Z</time></trkpt><trkpt lat="43.6132331" lon="11.6536944"><ele>569.5</ele><time>2026-03-28T10:48:56.42Z</time></trkpt><trkpt lat="43.6132685" lon="11.6538621"><ele>573.25</ele><time>2026-03-28T10:48:57.42Z</time></trkpt><trkpt lat="43.6133566" lon="11.6540204"><ele>577.0</ele><time>2026-03-28T10:48:58.42Z</time></trkpt><trkpt lat="43.6134593" lon="11.6541648"><ele>577.0</ele><time>2026-03-28T10:48:59.42Z</time></trkpt><trkpt lat="43.6135608" lon="11.6543196"><ele>577.0</ele><time>2026-03-28T10:49:00.42Z</time></trkpt><trkpt lat="43.613651" lon="11.6544815"><ele>577.0</ele><time>2026-03-28T10:49:01.42Z</time></trkpt><trkpt lat="43.6137115" lon="11.6546551"><ele>577.0</ele><time>2026-03-28T10:49:02.42Z</time></trkpt><trkpt lat="43.6137863" lon="11.6548102"><ele>579.0</ele><time>2026-03-28T10:49:03.42Z</time></trkpt><trkpt lat="43.6138813" lon="11.6549421"><ele>581.0</ele><time>2026-03-28T10:49:04.42Z</time></trkpt><trkpt lat="43.6139894" lon="11.6550648"><ele>583.0</ele><time>2026-03-28T10:49:05.42Z</time></trkpt><trkpt lat="43.6140907" lon="11.6551881"><ele>585.0</ele><time>2026-03-28T10:49:06.42Z</time></trkpt><trkpt lat="43.6141658" lon="11.6553369"><ele>590.0</ele><time>2026-03-28T10:49:07.42Z</time></trkpt><trkpt lat="43.6142232" lon="11.6555111"><ele>595.0</ele><time>2026-03-28T10:49:08.42Z</time></trkpt><trkpt lat="43.6142881" lon="11.6556646"><ele>600.0</ele><time>2026-03-28T10:49:09.42Z</time></trkpt><trkpt lat="43.6143595" lon="11.6557781"><ele>605.0</ele><time>2026-03-28T10:49:10.42Z</time></trkpt><trkpt lat="43.614418" lon="11.6558349"><ele>610.0</ele><time>2026-03-28T10:49:11.42Z</time></trkpt><trkpt lat="43.6144892" lon="11.655844"><ele>610.2</ele><time>2026-03-28T10:49:12.42Z</time></trkpt><trkpt lat="43.614575" lon="11.6557855"><ele>610.4</ele><time>2026-03-28T10:49:13.42Z</time></trkpt><trkpt lat="43.6146268" lon="11.6556556"><ele>610.6</ele><time>2026-03-28T10:49:14.42Z</time></trkpt><trkpt lat="43.6146191" lon="11.6554915"><ele>610.8</ele><time>2026-03-28T10:49:15.42Z</time></trkpt><trkpt lat="43.6146034" lon="11.6553612"><ele>611.0</ele><time>2026-03-28T10:49:16.42Z</time></trkpt><trkpt lat="43.6145687" lon="11.6552047"><ele>611.3333333333333</ele><time>2026-03-28T10:49:17.42Z</time></trkpt><trkpt lat="43.614516" lon="11.6549621"><ele>611.6666666666666</ele><time>2026-03-28T10:49:18.42Z</time></trkpt><trkpt lat="43.6144922" lon="11.6547031"><ele>612.0</ele><time>2026-03-28T10:49:19.42Z</time></trkpt><trkpt lat="43.6144255" lon="11.6544632"><ele>604.25</ele><time>2026-03-28T10:49:20.42Z</time></trkpt><trkpt lat="43.6143522" lon="11.6542589"><ele>596.5</ele><time>2026-03-28T10:49:21.42Z</time></trkpt><trkpt lat="43.6142917" lon="11.6540825"><ele>588.75</ele><time>2026-03-28T10:49:22.42Z</time></trkpt><trkpt lat="43.6142573" lon="11.6539077"><ele>581.0</ele><time>2026-03-28T10:49:23.42Z</time></trkpt><trkpt lat="43.6142745" lon="11.6537232"><ele>582.0</ele><time>2026-03-28T10:49:24.42Z</time></trkpt><trkpt lat="43.6143375" lon="11.6535591"><ele>583.0</ele><time>2026-03-28T10:49:25.42Z</time></trkpt><trkpt lat="43.6144233" lon="11.6533914"><ele>584.0</ele><time>2026-03-28T10:49:26.42Z</time></trkpt><trkpt lat="43.6144854" lon="11.6532041"><ele>585.0</ele><time>2026-03-28T10:49:27.42Z</time></trkpt><trkpt lat="43.6145443" lon="11.6530162"><ele>595.5</ele><time>2026-03-28T10:49:28.42Z</time></trkpt><trkpt lat="43.6146093" lon="11.6528192"><ele>606.0</ele><time>2026-03-28T10:49:29.42Z</time></trkpt><trkpt lat="43.6146633" lon="11.6526343"><ele>616.5</ele><time>2026-03-28T10:49:30.42Z</time></trkpt><trkpt lat="43.614692" lon="11.6524641"><ele>627.0</ele><time>2026-03-28T10:49:31.42Z</time></trkpt><trkpt lat="43.6147045" lon="11.6523086"><ele>627.0</ele><time>2026-03-28T10:49:32.42Z</time></trkpt><trkpt lat="43.6147118" lon="11.6521985"><ele>627.0</ele><time>2026-03-28T10:49:33.42Z</time></trkpt><trkpt lat="43.6147933" lon="11.6522076"><ele>627.0</ele><time>2026-03-28T10:49:35.42Z</time></trkpt><trkpt lat="43.6148159" lon="11.652307"><ele>627.0</ele><time>2026-03-28T10:49:36.42Z</time></trkpt><trkpt lat="43.6148074" lon="11.6524493"><ele>627.0</ele><time>2026-03-28T10:49:37.42Z</time></trkpt><trkpt lat="43.614788" lon="11.6525962"><ele>627.0</ele><time>2026-03-28T10:49:38.42Z</time></trkpt><trkpt lat="43.6147878" lon="11.6527102"><ele>627.0</ele><time>2026-03-28T10:49:39.42Z</time></trkpt><trkpt lat="43.6148505" lon="11.6528074"><ele>627.0</ele><time>2026-03-28T10:49:41.42Z</time></trkpt><trkpt lat="43.6149015" lon="11.6527442"><ele>627.0</ele><time>2026-03-28T10:49:42.42Z</time></trkpt><trkpt lat="43.6149105" lon="11.6526094"><ele>627.0</ele><time>2026-03-28T10:49:43.42Z</time></trkpt><trkpt lat="43.6149113" lon="11.6524619"><ele>627.0</ele><time>2026-03-28T10:49:44.42Z</time></trkpt><trkpt lat="43.6149253" lon="11.6523056"><ele>627.0</ele><time>2026-03-28T10:49:45.42Z</time></trkpt><trkpt lat="43.6149524" lon="11.6521231"><ele>627.0</ele><time>2026-03-28T10:49:46.42Z</time></trkpt><trkpt lat="43.6149797" lon="11.6519385"><ele>627.0</ele><time>2026-03-28T10:49:47.42Z</time></trkpt><trkpt lat="43.6150054" lon="11.6517465"><ele>627.0</ele><time>2026-03-28T10:49:48.42Z</time></trkpt><trkpt lat="43.6150254" lon="11.651563"><ele>626.6</ele><time>2026-03-28T10:49:49.42Z</time></trkpt><trkpt lat="43.6150419" lon="11.6514252"><ele>626.2</ele><time>2026-03-28T10:49:50.42Z</time></trkpt><trkpt lat="43.615044" lon="11.6513326"><ele>625.8</ele><time>2026-03-28T10:49:51.42Z</time></trkpt><trkpt lat="43.6149783" lon="11.6512503"><ele>625.4</ele><time>2026-03-28T10:49:52.42Z</time></trkpt><trkpt lat="43.6148715" lon="11.6512306"><ele>625.0</ele><time>2026-03-28T10:49:53.42Z</time></trkpt><trkpt lat="43.6147453" lon="11.6512426"><ele>625.0</ele><time>2026-03-28T10:49:54.42Z</time></trkpt><trkpt lat="43.614617" lon="11.6512258"><ele>625.0</ele><time>2026-03-28T10:49:55.42Z</time></trkpt><trkpt lat="43.6144859" lon="11.6511632"><ele>625.0</ele><time>2026-03-28T10:49:56.42Z</time></trkpt><trkpt lat="43.6143746" lon="11.6511086"><ele>625.0</ele><time>2026-03-28T10:49:57.42Z</time></trkpt><trkpt lat="43.6142951" lon="11.6510545"><ele>626.75</ele><time>2026-03-28T10:49:58.42Z</time></trkpt><trkpt lat="43.6142498" lon="11.6509454"><ele>628.5</ele><time>2026-03-28T10:49:59.42Z</time></trkpt><trkpt lat="43.6142126" lon="11.6508101"><ele>630.25</ele><time>2026-03-28T10:50:00.42Z</time></trkpt><trkpt lat="43.6141468" lon="11.6506748"><ele>632.0</ele><time>2026-03-28T10:50:01.42Z</time></trkpt><trkpt lat="43.6140417" lon="11.6505449"><ele>632.0</ele><time>2026-03-28T10:50:02.42Z</time></trkpt><trkpt lat="43.6139441" lon="11.6503902"><ele>632.0</ele><time>2026-03-28T10:50:03.42Z</time></trkpt><trkpt lat="43.6138625" lon="11.6502072"><ele>632.0</ele><time>2026-03-28T10:50:04.42Z</time></trkpt><trkpt lat="43.6137888" lon="11.6500012"><ele>629.6666666666666</ele><time>2026-03-28T10:50:05.42Z</time></trkpt><trkpt lat="43.6137082" lon="11.6498016"><ele>627.3333333333334</ele><time>2026-03-28T10:50:06.42Z</time></trkpt><trkpt lat="43.6136317" lon="11.649605"><ele>625.0</ele><time>2026-03-28T10:50:07.42Z</time></trkpt><trkpt lat="43.6135565" lon="11.6494165"><ele>629.25</ele><time>2026-03-28T10:50:08.42Z</time></trkpt><trkpt lat="43.6134941" lon="11.6492443"><ele>633.5</ele><time>2026-03-28T10:50:09.42Z</time></trkpt><trkpt lat="43.6134378" lon="11.6490943"><ele>637.75</ele><time>2026-03-28T10:50:10.42Z</time></trkpt><trkpt lat="43.6133968" lon="11.64896"><ele>642.0</ele><time>2026-03-28T10:50:11.42Z</time></trkpt><trkpt lat="43.6133874" lon="11.6488242"><ele>642.0</ele><time>2026-03-28T10:50:12.42Z</time></trkpt><trkpt lat="43.6133933" lon="11.6486915"><ele>642.0</ele><time>2026-03-28T10:50:13.42Z</time></trkpt><trkpt lat="43.6134162" lon="11.6485549"><ele>642.0</ele><time>2026-03-28T10:50:14.42Z</time></trkpt><trkpt lat="43.6134727" lon="11.6483955"><ele>642.0</ele><time>2026-03-28T10:50:15.42Z</time></trkpt><trkpt lat="43.613553" lon="11.6482292"><ele>641.0</ele><time>2026-03-28T10:50:16.42Z</time></trkpt><trkpt lat="43.6136489" lon="11.6480691"><ele>640.0</ele><time>2026-03-28T10:50:17.42Z</time></trkpt><trkpt lat="43.6137606" lon="11.6479004"><ele>639.0</ele><time>2026-03-28T10:50:18.42Z</time></trkpt><trkpt lat="43.6138899" lon="11.6477468"><ele>642.0</ele><time>2026-03-28T10:50:19.42Z</time></trkpt><trkpt lat="43.6140109" lon="11.6475932"><ele>645.0</ele><time>2026-03-28T10:50:20.42Z</time></trkpt><trkpt lat="43.6141503" lon="11.647466"><ele>648.0</ele><time>2026-03-28T10:50:21.42Z</time></trkpt><trkpt lat="43.6142941" lon="11.6473939"><ele>648.0</ele><time>2026-03-28T10:50:22.42Z</time></trkpt><trkpt lat="43.6144326" lon="11.6473595"><ele>648.0</ele><time>2026-03-28T10:50:23.42Z</time></trkpt><trkpt lat="43.6145722" lon="11.6473975"><ele>648.0</ele><time>2026-03-28T10:50:24.42Z</time></trkpt><trkpt lat="43.614701" lon="11.6474854"><ele>648.0</ele><time>2026-03-28T10:50:25.42Z</time></trkpt><trkpt lat="43.6148043" lon="11.647648"><ele>654.0</ele><time>2026-03-28T10:50:26.42Z</time></trkpt><trkpt lat="43.6148794" lon="11.6478603"><ele>660.0</ele><time>2026-03-28T10:50:27.42Z</time></trkpt><trkpt lat="43.614944" lon="11.6480897"><ele>666.0</ele><time>2026-03-28T10:50:28.42Z</time></trkpt><trkpt lat="43.6150025" lon="11.6483153"><ele>666.0</ele><time>2026-03-28T10:50:29.42Z</time></trkpt><trkpt lat="43.6150575" lon="11.6485212"><ele>666.0</ele><time>2026-03-28T10:50:30.42Z</time></trkpt><trkpt lat="43.6151138" lon="11.6487066"><ele>666.0</ele><time>2026-03-28T10:50:31.42Z</time></trkpt><trkpt lat="43.6151864" lon="11.6488588"><ele>666.0</ele><time>2026-03-28T10:50:32.42Z</time></trkpt><trkpt lat="43.615284" lon="11.6489754"><ele>668.75</ele><time>2026-03-28T10:50:33.42Z</time></trkpt><trkpt lat="43.6154085" lon="11.6489841"><ele>671.5</ele><time>2026-03-28T10:50:34.42Z</time></trkpt><trkpt lat="43.6155481" lon="11.6489324"><ele>674.25</ele><time>2026-03-28T10:50:35.42Z</time></trkpt><trkpt lat="43.6156741" lon="11.6488491"><ele>677.0</ele><time>2026-03-28T10:50:36.42Z</time></trkpt><trkpt lat="43.6157608" lon="11.6486777"><ele>677.6666666666666</ele><time>2026-03-28T10:50:37.42Z</time></trkpt><trkpt lat="43.6157796" lon="11.6484566"><ele>678.3333333333334</ele><time>2026-03-28T10:50:38.42Z</time></trkpt><trkpt lat="43.6157908" lon="11.6482143"><ele>679.0</ele><time>2026-03-28T10:50:39.42Z</time></trkpt><trkpt lat="43.6158144" lon="11.6479737"><ele>679.3333333333334</ele><time>2026-03-28T10:50:40.42Z</time></trkpt><trkpt lat="43.6158634" lon="11.6477139"><ele>679.6666666666666</ele><time>2026-03-28T10:50:41.42Z</time></trkpt><trkpt lat="43.6159161" lon="11.6474648"><ele>680.0</ele><time>2026-03-28T10:50:42.42Z</time></trkpt><trkpt lat="43.6159457" lon="11.647204"><ele>681.6666666666666</ele><time>2026-03-28T10:50:43.42Z</time></trkpt><trkpt lat="43.615927" lon="11.6469255"><ele>683.3333333333334</ele><time>2026-03-28T10:50:44.42Z</time></trkpt><trkpt lat="43.6158685" lon="11.6466823"><ele>685.0</ele><time>2026-03-28T10:50:45.42Z</time></trkpt><trkpt lat="43.6158143" lon="11.6464735"><ele>685.0</ele><time>2026-03-28T10:50:46.42Z</time></trkpt><trkpt lat="43.6157758" lon="11.6462921"><ele>685.0</ele><time>2026-03-28T10:50:47.42Z</time></trkpt><trkpt lat="43.6157796" lon="11.6460863"><ele>685.0</ele><time>2026-03-28T10:50:48.42Z</time></trkpt><trkpt lat="43.6158335" lon="11.6458815"><ele>685.0</ele><time>2026-03-28T10:50:49.42Z</time></trkpt><trkpt lat="43.6159281" lon="11.6456551"><ele>686.0</ele><time>2026-03-28T10:50:50.42Z</time></trkpt><trkpt lat="43.6160325" lon="11.6454427"><ele>687.0</ele><time>2026-03-28T10:50:51.42Z</time></trkpt><trkpt lat="43.6161275" lon="11.6452298"><ele>688.0</ele><time>2026-03-28T10:50:52.42Z</time></trkpt><trkpt lat="43.6162153" lon="11.6450253"><ele>691.25</ele><time>2026-03-28T10:50:53.42Z</time></trkpt><trkpt lat="43.6163026" lon="11.6448472"><ele>694.5</ele><time>2026-03-28T10:50:54.42Z</time></trkpt><trkpt lat="43.6163874" lon="11.6447347"><ele>697.75</ele><time>2026-03-28T10:50:55.42Z</time></trkpt><trkpt lat="43.6165282" lon="11.6447052"><ele>701.0</ele><time>2026-03-28T10:50:56.42Z</time></trkpt><trkpt lat="43.6166829" lon="11.6447447"><ele>701.0</ele><time>2026-03-28T10:50:57.42Z</time></trkpt><trkpt lat="43.6168183" lon="11.6448443"><ele>701.0</ele><time>2026-03-28T10:50:58.421Z</time></trkpt><trkpt lat="43.6169226" lon="11.6449993"><ele>701.0</ele><time>2026-03-28T10:50:59.42Z</time></trkpt><trkpt lat="43.6170118" lon="11.6452148"><ele>702.6666666666666</ele><time>2026-03-28T10:51:00.42Z</time></trkpt><trkpt lat="43.617084" lon="11.6454435"><ele>704.3333333333334</ele><time>2026-03-28T10:51:01.42Z</time></trkpt><trkpt lat="43.6171696" lon="11.6456642"><ele>706.0</ele><time>2026-03-28T10:51:02.42Z</time></trkpt><trkpt lat="43.6172542" lon="11.6458944"><ele>706.0</ele><time>2026-03-28T10:51:03.42Z</time></trkpt><trkpt lat="43.6173428" lon="11.646126"><ele>706.0</ele><time>2026-03-28T10:51:04.42Z</time></trkpt><trkpt lat="43.6174223" lon="11.6463502"><ele>706.0</ele><time>2026-03-28T10:51:05.42Z</time></trkpt><trkpt lat="43.6174953" lon="11.6465407"><ele>708.25</ele><time>2026-03-28T10:51:06.42Z</time></trkpt><trkpt lat="43.617558" lon="11.6467116"><ele>710.5</ele><time>2026-03-28T10:51:07.42Z</time></trkpt><trkpt lat="43.6175964" lon="11.6468621"><ele>712.75</ele><time>2026-03-28T10:51:08.42Z</time></trkpt><trkpt lat="43.6175868" lon="11.6470069"><ele>715.0</ele><time>2026-03-28T10:51:09.42Z</time></trkpt><trkpt lat="43.6175329" lon="11.6471584"><ele>717.5</ele><time>2026-03-28T10:51:10.42Z</time></trkpt><trkpt lat="43.6174774" lon="11.6473179"><ele>720.0</ele><time>2026-03-28T10:51:11.42Z</time></trkpt><trkpt lat="43.6174377" lon="11.6475032"><ele>722.5</ele><time>2026-03-28T10:51:12.42Z</time></trkpt><trkpt lat="43.6174061" lon="11.6476986"><ele>725.0</ele><time>2026-03-28T10:51:13.42Z</time></trkpt><trkpt lat="43.6173762" lon="11.6478952"><ele>727.5</ele><time>2026-03-28T10:51:14.42Z</time></trkpt><trkpt lat="43.6173466" lon="11.6480877"><ele>730.0</ele><time>2026-03-28T10:51:15.42Z</time></trkpt><trkpt lat="43.6173217" lon="11.6482617"><ele>732.5</ele><time>2026-03-28T10:51:16.42Z</time></trkpt><trkpt lat="43.617311" lon="11.648415"><ele>735.0</ele><time>2026-03-28T10:51:17.42Z</time></trkpt><trkpt lat="43.6173174" lon="11.6485214"><ele>735.0</ele><time>2026-03-28T10:51:18.42Z</time></trkpt><trkpt lat="43.6173606" lon="11.6485982"><ele>735.0</ele><time>2026-03-28T10:51:19.42Z</time></trkpt><trkpt lat="43.6174247" lon="11.6485756"><ele>735.0</ele><time>2026-03-28T10:51:20.42Z</time></trkpt><trkpt lat="43.6174856" lon="11.6484789"><ele>735.0</ele><time>2026-03-28T10:51:21.42Z</time></trkpt><trkpt lat="43.6175301" lon="11.64837"><ele>735.0</ele><time>2026-03-28T10:51:22.42Z</time></trkpt><trkpt lat="43.6175554" lon="11.6482302"><ele>735.0</ele><time>2026-03-28T10:51:23.42Z</time></trkpt><trkpt lat="43.6176027" lon="11.6480711"><ele>735.0</ele><time>2026-03-28T10:51:24.42Z</time></trkpt><trkpt lat="43.6176868" lon="11.6479502"><ele>735.0</ele><time>2026-03-28T10:51:25.42Z</time></trkpt><trkpt lat="43.6177828" lon="11.6478565"><ele>735.0</ele><time>2026-03-28T10:51:26.42Z</time></trkpt><trkpt lat="43.6178789" lon="11.6477657"><ele>735.0</ele><time>2026-03-28T10:51:27.42Z</time></trkpt><trkpt lat="43.6179679" lon="11.6476965"><ele>735.75</ele><time>2026-03-28T10:51:28.42Z</time></trkpt><trkpt lat="43.618057" lon="11.6476584"><ele>736.5</ele><time>2026-03-28T10:51:29.42Z</time></trkpt><trkpt lat="43.618167" lon="11.6476768"><ele>737.25</ele><time>2026-03-28T10:51:30.42Z</time></trkpt><trkpt lat="43.6182972" lon="11.6477272"><ele>738.0</ele><time>2026-03-28T10:51:31.42Z</time></trkpt><trkpt lat="43.6184303" lon="11.6477335"><ele>738.0</ele><time>2026-03-28T10:51:32.42Z</time></trkpt><trkpt lat="43.6185813" lon="11.6477134"><ele>738.0</ele><time>2026-03-28T10:51:33.42Z</time></trkpt><trkpt lat="43.6187444" lon="11.6476656"><ele>738.0</ele><time>2026-03-28T10:51:34.42Z</time></trkpt><trkpt lat="43.6189066" lon="11.6476136"><ele>743.6666666666666</ele><time>2026-03-28T10:51:35.42Z</time></trkpt><trkpt lat="43.6190682" lon="11.6475444"><ele>749.3333333333333</ele><time>2026-03-28T10:51:36.42Z</time></trkpt><trkpt lat="43.6192332" lon="11.6474627"><ele>755.0</ele><time>2026-03-28T10:51:37.42Z</time></trkpt><trkpt lat="43.6193935" lon="11.647365"><ele>764.3333333333333</ele><time>2026-03-28T10:51:38.42Z</time></trkpt><trkpt lat="43.6195567" lon="11.6472556"><ele>773.6666666666666</ele><time>2026-03-28T10:51:39.42Z</time></trkpt><trkpt lat="43.6197232" lon="11.6471404"><ele>783.0</ele><time>2026-03-28T10:51:40.42Z</time></trkpt><trkpt lat="43.6198781" lon="11.6470012"><ele>772.0</ele><time>2026-03-28T10:51:41.42Z</time></trkpt><trkpt lat="43.6200211" lon="11.6468308"><ele>761.0</ele><time>2026-03-28T10:51:42.42Z</time></trkpt><trkpt lat="43.6201581" lon="11.6466599"><ele>750.0</ele><time>2026-03-28T10:51:43.42Z</time></trkpt><trkpt lat="43.6202902" lon="11.6465097"><ele>755.6666666666666</ele><time>2026-03-28T10:51:44.42Z</time></trkpt><trkpt lat="43.6204236" lon="11.6463831"><ele>761.3333333333333</ele><time>2026-03-28T10:51:45.42Z</time></trkpt><trkpt lat="43.6205676" lon="11.6463"><ele>767.0</ele><time>2026-03-28T10:51:46.42Z</time></trkpt><trkpt lat="43.6206978" lon="11.6462371"><ele>767.0</ele><time>2026-03-28T10:51:47.42Z</time></trkpt><trkpt lat="43.6208216" lon="11.6461929"><ele>767.0</ele><time>2026-03-28T10:51:48.42Z</time></trkpt><trkpt lat="43.6209134" lon="11.6462032"><ele>767.0</ele><time>2026-03-28T10:51:49.42Z</time></trkpt><trkpt lat="43.620996" lon="11.6462434"><ele>767.0</ele><time>2026-03-28T10:51:50.42Z</time></trkpt><trkpt lat="43.6210458" lon="11.6463467"><ele>767.0</ele><time>2026-03-28T10:51:51.42Z</time></trkpt><trkpt lat="43.6210815" lon="11.6464894"><ele>767.0</ele><time>2026-03-28T10:51:52.42Z</time></trkpt><trkpt lat="43.621104" lon="11.6466225"><ele>767.0</ele><time>2026-03-28T10:51:53.42Z</time></trkpt><trkpt lat="43.6210765" lon="11.6467155"><ele>767.0</ele><time>2026-03-28T10:51:54.42Z</time></trkpt><trkpt lat="43.621004" lon="11.6467294"><ele>767.0</ele><time>2026-03-28T10:51:55.42Z</time></trkpt><trkpt lat="43.620952" lon="11.6466659"><ele>767.0</ele><time>2026-03-28T10:51:56.42Z</time></trkpt><trkpt lat="43.6209193" lon="11.6465673"><ele>767.0</ele><time>2026-03-28T10:51:57.42Z</time></trkpt><trkpt lat="43.6208769" lon="11.6464726"><ele>767.0</ele><time>2026-03-28T10:51:58.42Z</time></trkpt><trkpt lat="43.6207959" lon="11.6464324"><ele>767.0</ele><time>2026-03-28T10:51:59.42Z</time></trkpt><trkpt lat="43.6206774" lon="11.6464845"><ele>767.0</ele><time>2026-03-28T10:52:00.42Z</time></trkpt><trkpt lat="43.6205704" lon="11.6465822"><ele>767.0</ele><time>2026-03-28T10:52:01.42Z</time></trkpt><trkpt lat="43.6204726" lon="11.646713"><ele>767.0</ele><time>2026-03-28T10:52:02.42Z</time></trkpt><trkpt lat="43.620377" lon="11.6468465"><ele>767.0</ele><time>2026-03-28T10:52:03.42Z</time></trkpt><trkpt lat="43.6202838" lon="11.6469839"><ele>767.0</ele><time>2026-03-28T10:52:04.42Z</time></trkpt><trkpt lat="43.6201904" lon="11.6471212"><ele>767.0</ele><time>2026-03-28T10:52:05.42Z</time></trkpt><trkpt lat="43.6201084" lon="11.6472616"><ele>771.0</ele><time>2026-03-28T10:52:06.42Z</time></trkpt><trkpt lat="43.6200189" lon="11.6474013"><ele>775.0</ele><time>2026-03-28T10:52:07.42Z</time></trkpt><trkpt lat="43.6199209" lon="11.6475314"><ele>779.0</ele><time>2026-03-28T10:52:08.42Z</time></trkpt><trkpt lat="43.6198281" lon="11.6476562"><ele>783.0</ele><time>2026-03-28T10:52:09.42Z</time></trkpt><trkpt lat="43.619736" lon="11.6477699"><ele>785.25</ele><time>2026-03-28T10:52:10.42Z</time></trkpt><trkpt lat="43.619641" lon="11.6478799"><ele>787.5</ele><time>2026-03-28T10:52:11.42Z</time></trkpt><trkpt lat="43.6195424" lon="11.647978"><ele>789.75</ele><time>2026-03-28T10:52:12.42Z</time></trkpt><trkpt lat="43.6194321" lon="11.6480737"><ele>792.0</ele><time>2026-03-28T10:52:13.42Z</time></trkpt><trkpt lat="43.6193233" lon="11.6481707"><ele>792.0</ele><time>2026-03-28T10:52:14.42Z</time></trkpt><trkpt lat="43.6192143" lon="11.6482658"><ele>792.0</ele><time>2026-03-28T10:52:15.42Z</time></trkpt><trkpt lat="43.6191089" lon="11.6483551"><ele>792.0</ele><time>2026-03-28T10:52:16.42Z</time></trkpt><trkpt lat="43.6190114" lon="11.648441"><ele>792.0</ele><time>2026-03-28T10:52:17.42Z</time></trkpt><trkpt lat="43.6189202" lon="11.6485214"><ele>792.0</ele><time>2026-03-28T10:52:18.42Z</time></trkpt><trkpt lat="43.6188512" lon="11.6485998"><ele>792.0</ele><time>2026-03-28T10:52:19.42Z</time></trkpt><trkpt lat="43.6187767" lon="11.6486918"><ele>792.0</ele><time>2026-03-28T10:52:20.42Z</time></trkpt><trkpt lat="43.6187138" lon="11.6488145"><ele>792.0</ele><time>2026-03-28T10:52:21.42Z</time></trkpt><trkpt lat="43.6186636" lon="11.6489639"><ele>792.0</ele><time>2026-03-28T10:52:22.42Z</time></trkpt><trkpt lat="43.6186246" lon="11.6491237"><ele>791.0</ele><time>2026-03-28T10:52:23.42Z</time></trkpt><trkpt lat="43.6185862" lon="11.6492792"><ele>790.0</ele><time>2026-03-28T10:52:24.42Z</time></trkpt><trkpt lat="43.6185598" lon="11.6494525"><ele>789.0</ele><time>2026-03-28T10:52:25.42Z</time></trkpt><trkpt lat="43.6185692" lon="11.6496512"><ele>788.0</ele><time>2026-03-28T10:52:26.42Z</time></trkpt><trkpt lat="43.6185893" lon="11.6498592"><ele>788.0</ele><time>2026-03-28T10:52:27.42Z</time></trkpt><trkpt lat="43.6185914" lon="11.6500625"><ele>788.0</ele><time>2026-03-28T10:52:28.42Z</time></trkpt><trkpt lat="43.618574" lon="11.6502448"><ele>788.0</ele><time>2026-03-28T10:52:29.42Z</time></trkpt><trkpt lat="43.6185389" lon="11.6504087"><ele>788.0</ele><time>2026-03-28T10:52:30.42Z</time></trkpt><trkpt lat="43.6185032" lon="11.6505404"><ele>788.8333333333334</ele><time>2026-03-28T10:52:31.42Z</time></trkpt><trkpt lat="43.618482" lon="11.6506464"><ele>789.6666666666667</ele><time>2026-03-28T10:52:32.42Z</time></trkpt><trkpt lat="43.6185198" lon="11.6507722"><ele>790.5</ele><time>2026-03-28T10:52:34.42Z</time></trkpt><trkpt lat="43.618591" lon="11.6507939"><ele>791.3333333333333</ele><time>2026-03-28T10:52:35.42Z</time></trkpt><trkpt lat="43.6186517" lon="11.6507503"><ele>792.1666666666666</ele><time>2026-03-28T10:52:36.42Z</time></trkpt><trkpt lat="43.6186881" lon="11.6506287"><ele>793.0</ele><time>2026-03-28T10:52:37.42Z</time></trkpt><trkpt lat="43.618699" lon="11.6504727"><ele>803.5</ele><time>2026-03-28T10:52:38.42Z</time></trkpt><trkpt lat="43.6187197" lon="11.6502799"><ele>814.0</ele><time>2026-03-28T10:52:39.42Z</time></trkpt><trkpt lat="43.6187482" lon="11.6500814"><ele>824.5</ele><time>2026-03-28T10:52:40.42Z</time></trkpt><trkpt lat="43.6187892" lon="11.6498889"><ele>835.0</ele><time>2026-03-28T10:52:41.42Z</time></trkpt><trkpt lat="43.6188385" lon="11.6496933"><ele>835.0</ele><time>2026-03-28T10:52:42.42Z</time></trkpt><trkpt lat="43.6188971" lon="11.6495077"><ele>835.0</ele><time>2026-03-28T10:52:43.42Z</time></trkpt><trkpt lat="43.6189801" lon="11.6493379"><ele>835.0</ele><time>2026-03-28T10:52:44.42Z</time></trkpt><trkpt lat="43.6190703" lon="11.6491891"><ele>835.0</ele><time>2026-03-28T10:52:45.42Z</time></trkpt><trkpt lat="43.6191615" lon="11.6490559"><ele>832.4</ele><time>2026-03-28T10:52:46.42Z</time></trkpt><trkpt lat="43.6192518" lon="11.6489595"><ele>829.8</ele><time>2026-03-28T10:52:47.42Z</time></trkpt><trkpt lat="43.6193501" lon="11.6489109"><ele>827.2</ele><time>2026-03-28T10:52:48.42Z</time></trkpt><trkpt lat="43.6194547" lon="11.6488718"><ele>824.6</ele><time>2026-03-28T10:52:49.42Z</time></trkpt><trkpt lat="43.6195609" lon="11.6488468"><ele>822.0</ele><time>2026-03-28T10:52:50.42Z</time></trkpt><trkpt lat="43.6196521" lon="11.6488409"><ele>822.0</ele><time>2026-03-28T10:52:51.42Z</time></trkpt><trkpt lat="43.6197254" lon="11.6488801"><ele>822.0</ele><time>2026-03-28T10:52:52.42Z</time></trkpt><trkpt lat="43.6197889" lon="11.6489846"><ele>822.0</ele><time>2026-03-28T10:52:53.42Z</time></trkpt><trkpt lat="43.6198165" lon="11.6491236"><ele>822.0</ele><time>2026-03-28T10:52:54.42Z</time></trkpt><trkpt lat="43.6198298" lon="11.6492343"><ele>822.0</ele><time>2026-03-28T10:52:55.42Z</time></trkpt><trkpt lat="43.6198422" lon="11.6493435"><ele>822.0</ele><time>2026-03-28T10:52:56.42Z</time></trkpt><trkpt lat="43.6198351" lon="11.6494585"><ele>822.0</ele><time>2026-03-28T10:52:57.42Z</time></trkpt><trkpt lat="43.6198212" lon="11.6495766"><ele>822.0</ele><time>2026-03-28T10:52:58.42Z</time></trkpt><trkpt lat="43.6198137" lon="11.6497168"><ele>822.0</ele><time>2026-03-28T10:52:59.42Z</time></trkpt><trkpt lat="43.6197967" lon="11.6498694"><ele>822.0</ele><time>2026-03-28T10:53:00.42Z</time></trkpt><trkpt lat="43.6197632" lon="11.6500321"><ele>822.0</ele><time>2026-03-28T10:53:01.42Z</time></trkpt><trkpt lat="43.6197264" lon="11.6501914"><ele>821.5</ele><time>2026-03-28T10:53:02.42Z</time></trkpt><trkpt lat="43.6196865" lon="11.6503494"><ele>821.0</ele><time>2026-03-28T10:53:03.42Z</time></trkpt><trkpt lat="43.6196365" lon="11.6505145"><ele>820.5</ele><time>2026-03-28T10:53:04.42Z</time></trkpt><trkpt lat="43.6195822" lon="11.6506752"><ele>820.0</ele><time>2026-03-28T10:53:05.42Z</time></trkpt><trkpt lat="43.6195312" lon="11.650831"><ele>820.0</ele><time>2026-03-28T10:53:06.42Z</time></trkpt><trkpt lat="43.6194867" lon="11.6509763"><ele>820.0</ele><time>2026-03-28T10:53:07.42Z</time></trkpt><trkpt lat="43.6194505" lon="11.6511208"><ele>820.0</ele><time>2026-03-28T10:53:08.42Z</time></trkpt><trkpt lat="43.6194353" lon="11.6512826"><ele>820.0</ele><time>2026-03-28T10:53:09.42Z</time></trkpt><trkpt lat="43.6194382" lon="11.6514638"><ele>826.75</ele><time>2026-03-28T10:53:10.42Z</time></trkpt><trkpt lat="43.6194353" lon="11.6516512"><ele>833.5</ele><time>2026-03-28T10:53:11.42Z</time></trkpt><trkpt lat="43.6194359" lon="11.651828"><ele>840.25</ele><time>2026-03-28T10:53:12.42Z</time></trkpt><trkpt lat="43.6194407" lon="11.6519917"><ele>847.0</ele><time>2026-03-28T10:53:13.42Z</time></trkpt><trkpt lat="43.6194361" lon="11.6521392"><ele>849.4000000000001</ele><time>2026-03-28T10:53:14.42Z</time></trkpt><trkpt lat="43.6194185" lon="11.6522776"><ele>851.8000000000001</ele><time>2026-03-28T10:53:15.42Z</time></trkpt><trkpt lat="43.6193899" lon="11.6524146"><ele>854.2</ele><time>2026-03-28T10:53:16.42Z</time></trkpt><trkpt lat="43.6193691" lon="11.6525549"><ele>856.6</ele><time>2026-03-28T10:53:17.42Z</time></trkpt><trkpt lat="43.6193562" lon="11.6526984"><ele>859.0</ele><time>2026-03-28T10:53:18.42Z</time></trkpt><trkpt lat="43.6193778" lon="11.652829"><ele>855.5</ele><time>2026-03-28T10:53:19.42Z</time></trkpt><trkpt lat="43.6194208" lon="11.6529749"><ele>852.0</ele><time>2026-03-28T10:53:20.42Z</time></trkpt><trkpt lat="43.6194683" lon="11.6531415"><ele>848.5</ele><time>2026-03-28T10:53:21.42Z</time></trkpt><trkpt lat="43.6195083" lon="11.6533047"><ele>845.0</ele><time>2026-03-28T10:53:22.42Z</time></trkpt><trkpt lat="43.6195716" lon="11.6534734"><ele>851.0</ele><time>2026-03-28T10:53:23.42Z</time></trkpt><trkpt lat="43.6196497" lon="11.65363"><ele>857.0</ele><time>2026-03-28T10:53:24.42Z</time></trkpt><trkpt lat="43.6197313" lon="11.6537539"><ele>863.0</ele><time>2026-03-28T10:53:25.42Z</time></trkpt><trkpt lat="43.6198024" lon="11.6538942"><ele>869.0</ele><time>2026-03-28T10:53:26.42Z</time></trkpt><trkpt lat="43.6198675" lon="11.6540542"><ele>869.0</ele><time>2026-03-28T10:53:27.42Z</time></trkpt><trkpt lat="43.6199181" lon="11.6542363"><ele>869.0</ele><time>2026-03-28T10:53:28.42Z</time></trkpt><trkpt lat="43.6199652" lon="11.6544276"><ele>869.0</ele><time>2026-03-28T10:53:29.42Z</time></trkpt><trkpt lat="43.6200092" lon="11.6546159"><ele>869.0</ele><time>2026-03-28T10:53:30.42Z</time></trkpt><trkpt lat="43.6200566" lon="11.6548122"><ele>872.0</ele><time>2026-03-28T10:53:31.42Z</time></trkpt><trkpt lat="43.6201007" lon="11.6550243"><ele>875.0</ele><time>2026-03-28T10:53:32.42Z</time></trkpt><trkpt lat="43.6201359" lon="11.6552581"><ele>878.0</ele><time>2026-03-28T10:53:33.42Z</time></trkpt><trkpt lat="43.6201715" lon="11.65548"><ele>878.0</ele><time>2026-03-28T10:53:34.42Z</time></trkpt><trkpt lat="43.6202139" lon="11.655709"><ele>878.0</ele><time>2026-03-28T10:53:35.42Z</time></trkpt><trkpt lat="43.6202441" lon="11.6559419"><ele>878.0</ele><time>2026-03-28T10:53:36.42Z</time></trkpt><trkpt lat="43.6202662" lon="11.6561812"><ele>877.0</ele><time>2026-03-28T10:53:37.42Z</time></trkpt><trkpt lat="43.620293" lon="11.6564029"><ele>876.0</ele><time>2026-03-28T10:53:38.42Z</time></trkpt><trkpt lat="43.6203161" lon="11.6566148"><ele>875.0</ele><time>2026-03-28T10:53:39.42Z</time></trkpt><trkpt lat="43.6203382" lon="11.656809"><ele>873.0000000000001</ele><time>2026-03-28T10:53:40.42Z</time></trkpt><trkpt lat="43.6203485" lon="11.6569769"><ele>871.0</ele><time>2026-03-28T10:53:41.421Z</time></trkpt><trkpt lat="43.6203573" lon="11.6571208"><ele>869.0</ele><time>2026-03-28T10:53:42.42Z</time></trkpt><trkpt lat="43.6203637" lon="11.6572271"><ele>867.0</ele><time>2026-03-28T10:53:43.42Z</time></trkpt><trkpt lat="43.6203754" lon="11.6573317"><ele>865.0000000000001</ele><time>2026-03-28T10:53:44.42Z</time></trkpt><trkpt lat="43.6203865" lon="11.6574213"><ele>863.0</ele><time>2026-03-28T10:53:45.42Z</time></trkpt><trkpt lat="43.6204286" lon="11.6575408"><ele>863.0</ele><time>2026-03-28T10:53:47.42Z</time></trkpt><trkpt lat="43.6204295" lon="11.657632"><ele>863.0</ele><time>2026-03-28T10:53:50.42Z</time></trkpt><trkpt lat="43.6203922" lon="11.6577324"><ele>863.0</ele><time>2026-03-28T10:54:52.42Z</time></trkpt><trkpt lat="43.6203622" lon="11.6578865"><ele>863.0</ele><time>2026-03-28T10:54:54.42Z</time></trkpt><trkpt lat="43.6203229" lon="11.6580096"><ele>863.0</ele><time>2026-03-28T10:54:55.42Z</time></trkpt><trkpt lat="43.6202856" lon="11.6581465"><ele>866.0</ele><time>2026-03-28T10:54:56.42Z</time></trkpt><trkpt lat="43.6202426" lon="11.658288"><ele>869.0</ele><time>2026-03-28T10:54:57.42Z</time></trkpt><trkpt lat="43.620179" lon="11.6584423"><ele>872.0</ele><time>2026-03-28T10:54:58.42Z</time></trkpt><trkpt lat="43.620095" lon="11.6585952"><ele>875.0</ele><time>2026-03-28T10:54:59.42Z</time></trkpt><trkpt lat="43.6199966" lon="11.6587207"><ele>880.5</ele><time>2026-03-28T10:55:00.42Z</time></trkpt><trkpt lat="43.6199014" lon="11.6588361"><ele>886.0</ele><time>2026-03-28T10:55:01.42Z</time></trkpt><trkpt lat="43.6198095" lon="11.6589412"><ele>891.5</ele><time>2026-03-28T10:55:02.42Z</time></trkpt><trkpt lat="43.6197378" lon="11.6590598"><ele>897.0</ele><time>2026-03-28T10:55:03.42Z</time></trkpt><trkpt lat="43.6196842" lon="11.6592026"><ele>897.0</ele><time>2026-03-28T10:55:04.42Z</time></trkpt><trkpt lat="43.6196576" lon="11.6593913"><ele>897.0</ele><time>2026-03-28T10:55:05.42Z</time></trkpt><trkpt lat="43.6196423" lon="11.6595998"><ele>897.0</ele><time>2026-03-28T10:55:06.42Z</time></trkpt><trkpt lat="43.6196293" lon="11.6598136"><ele>897.0</ele><time>2026-03-28T10:55:07.42Z</time></trkpt><trkpt lat="43.6196023" lon="11.6600274"><ele>893.0</ele><time>2026-03-28T10:55:08.42Z</time></trkpt><trkpt lat="43.6195543" lon="11.6602321"><ele>889.0</ele><time>2026-03-28T10:55:09.42Z</time></trkpt><trkpt lat="43.6195044" lon="11.6604431"><ele>885.0</ele><time>2026-03-28T10:55:10.42Z</time></trkpt><trkpt lat="43.6194456" lon="11.6606418"><ele>885.0</ele><time>2026-03-28T10:55:11.42Z</time></trkpt><trkpt lat="43.6193983" lon="11.6608414"><ele>885.0</ele><time>2026-03-28T10:55:12.42Z</time></trkpt><trkpt lat="43.6193702" lon="11.6610538"><ele>885.0</ele><time>2026-03-28T10:55:13.42Z</time></trkpt><trkpt lat="43.6193692" lon="11.6612815"><ele>886.6666666666667</ele><time>2026-03-28T10:55:14.42Z</time></trkpt><trkpt lat="43.6193852" lon="11.6615168"><ele>888.3333333333334</ele><time>2026-03-28T10:55:15.42Z</time></trkpt><trkpt lat="43.6194245" lon="11.6617547"><ele>890.0</ele><time>2026-03-28T10:55:16.42Z</time></trkpt><trkpt lat="43.6194874" lon="11.6619954"><ele>906.6666666666667</ele><time>2026-03-28T10:55:17.42Z</time></trkpt><trkpt lat="43.6195568" lon="11.662232"><ele>923.3333333333333</ele><time>2026-03-28T10:55:18.42Z</time></trkpt><trkpt lat="43.6196181" lon="11.6624839"><ele>940.0</ele><time>2026-03-28T10:55:19.42Z</time></trkpt><trkpt lat="43.6196773" lon="11.6627468"><ele>937.3333333333333</ele><time>2026-03-28T10:55:20.42Z</time></trkpt><trkpt lat="43.6197347" lon="11.6630051"><ele>934.6666666666667</ele><time>2026-03-28T10:55:21.42Z</time></trkpt><trkpt lat="43.6197808" lon="11.6632554"><ele>932.0</ele><time>2026-03-28T10:55:22.42Z</time></trkpt><trkpt lat="43.61981" lon="11.6634926"><ele>934.25</ele><time>2026-03-28T10:55:23.42Z</time></trkpt><trkpt lat="43.619808" lon="11.6637032"><ele>936.5</ele><time>2026-03-28T10:55:24.421Z</time></trkpt><trkpt lat="43.6197793" lon="11.663893"><ele>938.75</ele><time>2026-03-28T10:55:25.42Z</time></trkpt><trkpt lat="43.6197233" lon="11.6640575"><ele>941.0</ele><time>2026-03-28T10:55:26.42Z</time></trkpt><trkpt lat="43.6196408" lon="11.6642029"><ele>941.0</ele><time>2026-03-28T10:55:27.42Z</time></trkpt><trkpt lat="43.6195375" lon="11.6643303"><ele>941.0</ele><time>2026-03-28T10:55:28.42Z</time></trkpt><trkpt lat="43.619436" lon="11.6644332"><ele>941.0</ele><time>2026-03-28T10:55:29.42Z</time></trkpt><trkpt lat="43.6193611" lon="11.6645282"><ele>941.0</ele><time>2026-03-28T10:55:30.42Z</time></trkpt><trkpt lat="43.6193102" lon="11.6646624"><ele>935.25</ele><time>2026-03-28T10:55:31.42Z</time></trkpt><trkpt lat="43.6193006" lon="11.6648173"><ele>929.5</ele><time>2026-03-28T10:55:32.42Z</time></trkpt><trkpt lat="43.6193322" lon="11.6649918"><ele>923.75</ele><time>2026-03-28T10:55:33.42Z</time></trkpt><trkpt lat="43.61939" lon="11.6651789"><ele>918.0</ele><time>2026-03-28T10:55:34.42Z</time></trkpt><trkpt lat="43.6194649" lon="11.6653645"><ele>931.3333333333333</ele><time>2026-03-28T10:55:35.42Z</time></trkpt><trkpt lat="43.6195482" lon="11.6655583"><ele>944.6666666666666</ele><time>2026-03-28T10:55:36.42Z</time></trkpt><trkpt lat="43.6196267" lon="11.6657768"><ele>958.0</ele><time>2026-03-28T10:55:37.42Z</time></trkpt><trkpt lat="43.6196978" lon="11.6659992"><ele>953.0</ele><time>2026-03-28T10:55:38.42Z</time></trkpt><trkpt lat="43.6197701" lon="11.6662089"><ele>948.0</ele><time>2026-03-28T10:55:39.42Z</time></trkpt><trkpt lat="43.6198452" lon="11.6663966"><ele>943.0</ele><time>2026-03-28T10:55:40.42Z</time></trkpt><trkpt lat="43.619925" lon="11.6665687"><ele>943.0</ele><time>2026-03-28T10:55:41.42Z</time></trkpt><trkpt lat="43.6200336" lon="11.6667273"><ele>943.0</ele><time>2026-03-28T10:55:42.42Z</time></trkpt><trkpt lat="43.620171" lon="11.6668714"><ele>943.0</ele><time>2026-03-28T10:55:43.42Z</time></trkpt><trkpt lat="43.620314" lon="11.6670058"><ele>951.0</ele><time>2026-03-28T10:55:44.42Z</time></trkpt><trkpt lat="43.6204452" lon="11.6671755"><ele>959.0</ele><time>2026-03-28T10:55:45.42Z</time></trkpt><trkpt lat="43.6205482" lon="11.6673901"><ele>967.0</ele><time>2026-03-28T10:55:46.42Z</time></trkpt><trkpt lat="43.6206605" lon="11.6676121"><ele>962.0</ele><time>2026-03-28T10:55:47.42Z</time></trkpt><trkpt lat="43.6207616" lon="11.6678093"><ele>957.0</ele><time>2026-03-28T10:55:48.42Z</time></trkpt><trkpt lat="43.6208531" lon="11.6679856"><ele>952.0</ele><time>2026-03-28T10:55:49.42Z</time></trkpt><trkpt lat="43.6209314" lon="11.6681482"><ele>952.0</ele><time>2026-03-28T10:55:50.42Z</time></trkpt><trkpt lat="43.620984" lon="11.6683043"><ele>952.0</ele><time>2026-03-28T10:55:51.42Z</time></trkpt><trkpt lat="43.6209871" lon="11.6684582"><ele>952.0</ele><time>2026-03-28T10:55:52.42Z</time></trkpt><trkpt lat="43.6209359" lon="11.6686165"><ele>952.0</ele><time>2026-03-28T10:55:53.42Z</time></trkpt><trkpt lat="43.6208542" lon="11.6687515"><ele>957.5</ele><time>2026-03-28T10:55:54.42Z</time></trkpt><trkpt lat="43.6207607" lon="11.6688916"><ele>963.0</ele><time>2026-03-28T10:55:55.42Z</time></trkpt><trkpt lat="43.6206769" lon="11.6690657"><ele>968.5</ele><time>2026-03-28T10:55:56.42Z</time></trkpt><trkpt lat="43.6206175" lon="11.6692496"><ele>974.0</ele><time>2026-03-28T10:55:57.42Z</time></trkpt><trkpt lat="43.6205901" lon="11.6694637"><ele>981.6666666666667</ele><time>2026-03-28T10:55:58.42Z</time></trkpt><trkpt lat="43.6205675" lon="11.6697039"><ele>989.3333333333333</ele><time>2026-03-28T10:55:59.42Z</time></trkpt><trkpt lat="43.6205208" lon="11.6699529"><ele>997.0</ele><time>2026-03-28T10:56:00.42Z</time></trkpt><trkpt lat="43.6204437" lon="11.6701828"><ele>991.75</ele><time>2026-03-28T10:56:01.42Z</time></trkpt><trkpt lat="43.6203808" lon="11.6703868"><ele>986.5</ele><time>2026-03-28T10:56:02.42Z</time></trkpt><trkpt lat="43.6203193" lon="11.6705722"><ele>981.25</ele><time>2026-03-28T10:56:03.42Z</time></trkpt><trkpt lat="43.6202256" lon="11.670714"><ele>976.0</ele><time>2026-03-28T10:56:04.42Z</time></trkpt><trkpt lat="43.6201242" lon="11.6708173"><ele>976.0</ele><time>2026-03-28T10:56:05.42Z</time></trkpt><trkpt lat="43.6200126" lon="11.6708872"><ele>976.0</ele><time>2026-03-28T10:56:06.42Z</time></trkpt><trkpt lat="43.619905" lon="11.6709613"><ele>976.0</ele><time>2026-03-28T10:56:07.42Z</time></trkpt><trkpt lat="43.6198274" lon="11.6710766"><ele>976.0</ele><time>2026-03-28T10:56:08.42Z</time></trkpt><trkpt lat="43.6197888" lon="11.671225"><ele>978.0</ele><time>2026-03-28T10:56:09.42Z</time></trkpt><trkpt lat="43.6198072" lon="11.6714"><ele>980.0</ele><time>2026-03-28T10:56:10.42Z</time></trkpt><trkpt lat="43.619831" lon="11.6715727"><ele>982.0</ele><time>2026-03-28T10:56:11.42Z</time></trkpt><trkpt lat="43.6198585" lon="11.6717241"><ele>984.0</ele><time>2026-03-28T10:56:12.42Z</time></trkpt><trkpt lat="43.619927" lon="11.6719007"><ele>979.6666666666667</ele><time>2026-03-28T10:56:13.42Z</time></trkpt><trkpt lat="43.6200476" lon="11.6720583"><ele>975.3333333333334</ele><time>2026-03-28T10:56:14.42Z</time></trkpt><trkpt lat="43.6201737" lon="11.6722257"><ele>971.0</ele><time>2026-03-28T10:56:15.42Z</time></trkpt><trkpt lat="43.6203181" lon="11.6724048"><ele>977.3333333333334</ele><time>2026-03-28T10:56:16.42Z</time></trkpt><trkpt lat="43.620444" lon="11.6726054"><ele>983.6666666666667</ele><time>2026-03-28T10:56:17.42Z</time></trkpt><trkpt lat="43.6205965" lon="11.6727979"><ele>990.0</ele><time>2026-03-28T10:56:18.42Z</time></trkpt><trkpt lat="43.6207598" lon="11.6729648"><ele>990.0</ele><time>2026-03-28T10:56:19.42Z</time></trkpt><trkpt lat="43.6209302" lon="11.673126"><ele>990.0</ele><time>2026-03-28T10:56:20.42Z</time></trkpt><trkpt lat="43.6210937" lon="11.6733078"><ele>990.0</ele><time>2026-03-28T10:56:21.42Z</time></trkpt><trkpt lat="43.6212477" lon="11.6735018"><ele>998.0</ele><time>2026-03-28T10:56:22.42Z</time></trkpt><trkpt lat="43.6213885" lon="11.6737176"><ele>1006.0</ele><time>2026-03-28T10:56:23.42Z</time></trkpt><trkpt lat="43.6215231" lon="11.6739337"><ele>1014.0</ele><time>2026-03-28T10:56:24.42Z</time></trkpt><trkpt lat="43.6216525" lon="11.6741456"><ele>1014.0</ele><time>2026-03-28T10:56:25.42Z</time></trkpt><trkpt lat="43.6217808" lon="11.6743574"><ele>1014.0</ele><time>2026-03-28T10:56:26.42Z</time></trkpt><trkpt lat="43.6218979" lon="11.6745679"><ele>1014.0</ele><time>2026-03-28T10:56:27.42Z</time></trkpt><trkpt lat="43.6220255" lon="11.6747727"><ele>1014.3333333333333</ele><time>2026-03-28T10:56:28.42Z</time></trkpt><trkpt lat="43.6221684" lon="11.6749739"><ele>1014.6666666666666</ele><time>2026-03-28T10:56:29.42Z</time></trkpt><trkpt lat="43.622318" lon="11.6751632"><ele>1015.0</ele><time>2026-03-28T10:56:30.42Z</time></trkpt><trkpt lat="43.6224806" lon="11.6753358"><ele>1015.0</ele><time>2026-03-28T10:56:31.42Z</time></trkpt><trkpt lat="43.622645" lon="11.675505"><ele>1015.0</ele><time>2026-03-28T10:56:32.42Z</time></trkpt><trkpt lat="43.6228127" lon="11.6756747"><ele>1015.0</ele><time>2026-03-28T10:56:33.42Z</time></trkpt><trkpt lat="43.6229801" lon="11.6758371"><ele>1015.0</ele><time>2026-03-28T10:56:34.42Z</time></trkpt><trkpt lat="43.6231371" lon="11.6759856"><ele>1015.0</ele><time>2026-03-28T10:56:35.42Z</time></trkpt><trkpt lat="43.6232683" lon="11.6761298"><ele>1015.0</ele><time>2026-03-28T10:56:36.42Z</time></trkpt><trkpt lat="43.6233988" lon="11.676243"><ele>1015.0</ele><time>2026-03-28T10:56:37.42Z</time></trkpt><trkpt lat="43.6235381" lon="11.6763168"><ele>1015.0</ele><time>2026-03-28T10:56:38.42Z</time></trkpt><trkpt lat="43.6236788" lon="11.6763886"><ele>1015.0</ele><time>2026-03-28T10:56:39.42Z</time></trkpt><trkpt lat="43.6238028" lon="11.6764543"><ele>1015.0</ele><time>2026-03-28T10:56:40.42Z</time></trkpt><trkpt lat="43.6238824" lon="11.676526"><ele>1019.4</ele><time>2026-03-28T10:56:41.42Z</time></trkpt><trkpt lat="43.6239276" lon="11.6766343"><ele>1023.8</ele><time>2026-03-28T10:56:42.42Z</time></trkpt><trkpt lat="43.6239339" lon="11.6767652"><ele>1028.2</ele><time>2026-03-28T10:56:43.42Z</time></trkpt><trkpt lat="43.6239064" lon="11.6769203"><ele>1032.6</ele><time>2026-03-28T10:56:44.42Z</time></trkpt><trkpt lat="43.6239037" lon="11.6770807"><ele>1037.0</ele><time>2026-03-28T10:56:45.42Z</time></trkpt><trkpt lat="43.6239208" lon="11.6772513"><ele>1037.0</ele><time>2026-03-28T10:56:46.42Z</time></trkpt><trkpt lat="43.6239944" lon="11.6774263"><ele>1037.0</ele><time>2026-03-28T10:56:47.42Z</time></trkpt><trkpt lat="43.6241183" lon="11.6775658"><ele>1037.0</ele><time>2026-03-28T10:56:48.42Z</time></trkpt><trkpt lat="43.624258" lon="11.6777062"><ele>1032.75</ele><time>2026-03-28T10:56:49.42Z</time></trkpt><trkpt lat="43.6243789" lon="11.6778316"><ele>1028.5</ele><time>2026-03-28T10:56:50.42Z</time></trkpt><trkpt lat="43.6244708" lon="11.677954"><ele>1024.25</ele><time>2026-03-28T10:56:51.42Z</time></trkpt><trkpt lat="43.6245247" lon="11.6780758"><ele>1020.0</ele><time>2026-03-28T10:56:52.42Z</time></trkpt><trkpt lat="43.6245461" lon="11.6782326"><ele>1033.75</ele><time>2026-03-28T10:56:53.421Z</time></trkpt><trkpt lat="43.6245492" lon="11.6784066"><ele>1047.5</ele><time>2026-03-28T10:56:54.42Z</time></trkpt><trkpt lat="43.6245654" lon="11.6785945"><ele>1061.25</ele><time>2026-03-28T10:56:55.42Z</time></trkpt><trkpt lat="43.6246128" lon="11.6787917"><ele>1075.0</ele><time>2026-03-28T10:56:56.42Z</time></trkpt><trkpt lat="43.6246586" lon="11.6789939"><ele>1075.0</ele><time>2026-03-28T10:56:57.42Z</time></trkpt><trkpt lat="43.6247129" lon="11.6792032"><ele>1075.0</ele><time>2026-03-28T10:56:58.42Z</time></trkpt><trkpt lat="43.624766" lon="11.6794148"><ele>1075.0</ele><time>2026-03-28T10:56:59.42Z</time></trkpt><trkpt lat="43.6248426" lon="11.6796275"><ele>1070.3333333333333</ele><time>2026-03-28T10:57:00.42Z</time></trkpt><trkpt lat="43.6249356" lon="11.6798557"><ele>1065.6666666666667</ele><time>2026-03-28T10:57:01.42Z</time></trkpt><trkpt lat="43.6250407" lon="11.6800848"><ele>1061.0</ele><time>2026-03-28T10:57:02.42Z</time></trkpt><trkpt lat="43.6251807" lon="11.6802883"><ele>1059.6666666666667</ele><time>2026-03-28T10:57:03.42Z</time></trkpt><trkpt lat="43.6253085" lon="11.6804431"><ele>1058.3333333333333</ele><time>2026-03-28T10:57:04.42Z</time></trkpt><trkpt lat="43.6254204" lon="11.6805947"><ele>1057.0</ele><time>2026-03-28T10:57:05.42Z</time></trkpt><trkpt lat="43.6255006" lon="11.6807304"><ele>1063.5</ele><time>2026-03-28T10:57:06.42Z</time></trkpt><trkpt lat="43.6255579" lon="11.6808256"><ele>1070.0</ele><time>2026-03-28T10:57:07.42Z</time></trkpt><trkpt lat="43.6255797" lon="11.6809266"><ele>1076.5</ele><time>2026-03-28T10:57:08.42Z</time></trkpt><trkpt lat="43.6255854" lon="11.6810162"><ele>1083.0</ele><time>2026-03-28T10:57:09.42Z</time></trkpt><trkpt lat="43.625603" lon="11.6811086"><ele>1089.5</ele><time>2026-03-28T10:57:10.42Z</time></trkpt><trkpt lat="43.6255953" lon="11.6812022"><ele>1096.0</ele><time>2026-03-28T10:57:11.42Z</time></trkpt><trkpt lat="43.6255465" lon="11.6812959"><ele>1096.0</ele><time>2026-03-28T10:57:12.42Z</time></trkpt><trkpt lat="43.6254851" lon="11.6813608"><ele>1096.0</ele><time>2026-03-28T10:57:13.42Z</time></trkpt><trkpt lat="43.6254045" lon="11.6813819"><ele>1096.0</ele><time>2026-03-28T10:57:14.42Z</time></trkpt><trkpt lat="43.6253169" lon="11.6813731"><ele>1096.0</ele><time>2026-03-28T10:57:15.42Z</time></trkpt><trkpt lat="43.6252279" lon="11.6813288"><ele>1096.0</ele><time>2026-03-28T10:57:16.42Z</time></trkpt><trkpt lat="43.6251117" lon="11.6812907"><ele>1095.75</ele><time>2026-03-28T10:57:17.42Z</time></trkpt><trkpt lat="43.6249863" lon="11.6812524"><ele>1095.5</ele><time>2026-03-28T10:57:18.42Z</time></trkpt><trkpt lat="43.6248548" lon="11.681216"><ele>1095.25</ele><time>2026-03-28T10:57:19.42Z</time></trkpt><trkpt lat="43.6247102" lon="11.6811761"><ele>1095.0</ele><time>2026-03-28T10:57:20.42Z</time></trkpt><trkpt lat="43.6245796" lon="11.6811183"><ele>1089.5</ele><time>2026-03-28T10:57:21.42Z</time></trkpt><trkpt lat="43.624458" lon="11.6810447"><ele>1084.0</ele><time>2026-03-28T10:57:22.42Z</time></trkpt><trkpt lat="43.6243522" lon="11.680977"><ele>1078.5</ele><time>2026-03-28T10:57:23.42Z</time></trkpt><trkpt lat="43.6242364" lon="11.680935"><ele>1073.0</ele><time>2026-03-28T10:57:24.42Z</time></trkpt><trkpt lat="43.624105" lon="11.6809389"><ele>1073.0</ele><time>2026-03-28T10:57:25.42Z</time></trkpt><trkpt lat="43.6239679" lon="11.6809713"><ele>1073.0</ele><time>2026-03-28T10:57:26.42Z</time></trkpt><trkpt lat="43.6238387" lon="11.6810193"><ele>1073.0</ele><time>2026-03-28T10:57:27.42Z</time></trkpt><trkpt lat="43.6237298" lon="11.6810707"><ele>1073.0</ele><time>2026-03-28T10:57:28.42Z</time></trkpt><trkpt lat="43.6236314" lon="11.6811108"><ele>1075.0</ele><time>2026-03-28T10:57:29.42Z</time></trkpt><trkpt lat="43.6235444" lon="11.6810953"><ele>1077.0</ele><time>2026-03-28T10:57:30.42Z</time></trkpt><trkpt lat="43.6234571" lon="11.6810435"><ele>1079.0</ele><time>2026-03-28T10:57:31.42Z</time></trkpt><trkpt lat="43.6233687" lon="11.6809873"><ele>1081.0</ele><time>2026-03-28T10:57:32.42Z</time></trkpt><trkpt lat="43.6232667" lon="11.6809446"><ele>1083.0</ele><time>2026-03-28T10:57:33.42Z</time></trkpt><trkpt lat="43.6231701" lon="11.6809315"><ele>1083.0</ele><time>2026-03-28T10:57:34.42Z</time></trkpt><trkpt lat="43.6230927" lon="11.6809623"><ele>1083.0</ele><time>2026-03-28T10:57:35.42Z</time></trkpt><trkpt lat="43.6230346" lon="11.6810395"><ele>1083.0</ele><time>2026-03-28T10:57:36.42Z</time></trkpt><trkpt lat="43.6230241" lon="11.6811494"><ele>1083.0</ele><time>2026-03-28T10:57:37.42Z</time></trkpt><trkpt lat="43.6230748" lon="11.6812988"><ele>1083.0</ele><time>2026-03-28T10:57:38.42Z</time></trkpt><trkpt lat="43.6231371" lon="11.6814592"><ele>1086.5</ele><time>2026-03-28T10:57:39.42Z</time></trkpt><trkpt lat="43.6231934" lon="11.6816193"><ele>1090.0</ele><time>2026-03-28T10:57:40.42Z</time></trkpt><trkpt lat="43.6232628" lon="11.6817869"><ele>1093.5</ele><time>2026-03-28T10:57:41.42Z</time></trkpt><trkpt lat="43.623322" lon="11.6819523"><ele>1097.0</ele><time>2026-03-28T10:57:42.42Z</time></trkpt><trkpt lat="43.6233675" lon="11.6821267"><ele>1099.25</ele><time>2026-03-28T10:57:43.42Z</time></trkpt><trkpt lat="43.6233628" lon="11.682321"><ele>1101.5</ele><time>2026-03-28T10:57:44.421Z</time></trkpt><trkpt lat="43.6233112" lon="11.6825124"><ele>1103.75</ele><time>2026-03-28T10:57:45.42Z</time></trkpt><trkpt lat="43.6232653" lon="11.6826777"><ele>1106.0</ele><time>2026-03-28T10:57:46.42Z</time></trkpt><trkpt lat="43.6232279" lon="11.6828594"><ele>1108.75</ele><time>2026-03-28T10:57:47.42Z</time></trkpt><trkpt lat="43.6232135" lon="11.6830545"><ele>1111.5</ele><time>2026-03-28T10:57:48.42Z</time></trkpt><trkpt lat="43.6232516" lon="11.6832488"><ele>1114.25</ele><time>2026-03-28T10:57:49.42Z</time></trkpt><trkpt lat="43.6232954" lon="11.6834249"><ele>1117.0</ele><time>2026-03-28T10:57:50.42Z</time></trkpt><trkpt lat="43.6233121" lon="11.6836093"><ele>1120.0</ele><time>2026-03-28T10:57:51.42Z</time></trkpt><trkpt lat="43.623284" lon="11.6838042"><ele>1123.0</ele><time>2026-03-28T10:57:52.42Z</time></trkpt><trkpt lat="43.623231" lon="11.6839933"><ele>1126.0</ele><time>2026-03-28T10:57:53.42Z</time></trkpt><trkpt lat="43.6231864" lon="11.6841905"><ele>1129.0</ele><time>2026-03-28T10:57:54.42Z</time></trkpt><trkpt lat="43.6231741" lon="11.6844055"><ele>1130.25</ele><time>2026-03-28T10:57:55.42Z</time></trkpt><trkpt lat="43.6231937" lon="11.6846148"><ele>1131.5</ele><time>2026-03-28T10:57:56.42Z</time></trkpt><trkpt lat="43.6232183" lon="11.6847834"><ele>1132.75</ele><time>2026-03-28T10:57:57.42Z</time></trkpt><trkpt lat="43.6232295" lon="11.6849382"><ele>1134.0</ele><time>2026-03-28T10:57:58.42Z</time></trkpt><trkpt lat="43.6232333" lon="11.6850703"><ele>1134.0</ele><time>2026-03-28T10:57:59.42Z</time></trkpt><trkpt lat="43.6231981" lon="11.6852062"><ele>1134.0</ele><time>2026-03-28T10:58:00.42Z</time></trkpt><trkpt lat="43.6231175" lon="11.6853084"><ele>1134.0</ele><time>2026-03-28T10:58:01.42Z</time></trkpt><trkpt lat="43.6230345" lon="11.6853788"><ele>1134.0</ele><time>2026-03-28T10:58:02.42Z</time></trkpt><trkpt lat="43.6229409" lon="11.6854251"><ele>1134.0</ele><time>2026-03-28T10:58:03.42Z</time></trkpt><trkpt lat="43.6228609" lon="11.685481"><ele>1135.2</ele><time>2026-03-28T10:58:04.42Z</time></trkpt><trkpt lat="43.6227883" lon="11.6855792"><ele>1136.4</ele><time>2026-03-28T10:58:06.42Z</time></trkpt><trkpt lat="43.6228393" lon="11.6856942"><ele>1137.6</ele><time>2026-03-28T10:58:08.42Z</time></trkpt><trkpt lat="43.6229212" lon="11.6857073"><ele>1138.8</ele><time>2026-03-28T10:58:09.42Z</time></trkpt><trkpt lat="43.6230096" lon="11.6856979"><ele>1140.0</ele><time>2026-03-28T10:58:10.42Z</time></trkpt><trkpt lat="43.6231181" lon="11.6856685"><ele>1141.2</ele><time>2026-03-28T10:58:11.42Z</time></trkpt><trkpt lat="43.6232303" lon="11.6856205"><ele>1142.4</ele><time>2026-03-28T10:58:12.42Z</time></trkpt><trkpt lat="43.6233115" lon="11.6855438"><ele>1143.6</ele><time>2026-03-28T10:58:13.42Z</time></trkpt><trkpt lat="43.6233725" lon="11.6854493"><ele>1144.8</ele><time>2026-03-28T10:58:14.42Z</time></trkpt><trkpt lat="43.6234239" lon="11.6853235"><ele>1146.0</ele><time>2026-03-28T10:58:15.42Z</time></trkpt><trkpt lat="43.6234582" lon="11.6851841"><ele>1143.0</ele><time>2026-03-28T10:58:16.42Z</time></trkpt><trkpt lat="43.6234739" lon="11.6850196"><ele>1140.0</ele><time>2026-03-28T10:58:17.42Z</time></trkpt><trkpt lat="43.623478" lon="11.6848343"><ele>1137.0</ele><time>2026-03-28T10:58:18.42Z</time></trkpt><trkpt lat="43.6234787" lon="11.6846648"><ele>1134.0</ele><time>2026-03-28T10:58:19.42Z</time></trkpt><trkpt lat="43.6234872" lon="11.6845096"><ele>1132.75</ele><time>2026-03-28T10:58:20.42Z</time></trkpt><trkpt lat="43.6235143" lon="11.6843631"><ele>1131.5</ele><time>2026-03-28T10:58:21.42Z</time></trkpt><trkpt lat="43.6235542" lon="11.684222"><ele>1130.25</ele><time>2026-03-28T10:58:22.42Z</time></trkpt><trkpt lat="43.6236117" lon="11.6840761"><ele>1129.0</ele><time>2026-03-28T10:58:23.42Z</time></trkpt><trkpt lat="43.6236826" lon="11.6839352"><ele>1138.75</ele><time>2026-03-28T10:58:24.42Z</time></trkpt><trkpt lat="43.6237373" lon="11.683784"><ele>1148.5</ele><time>2026-03-28T10:58:25.42Z</time></trkpt><trkpt lat="43.6237739" lon="11.683603"><ele>1158.25</ele><time>2026-03-28T10:58:26.42Z</time></trkpt><trkpt lat="43.6237767" lon="11.6834155"><ele>1168.0</ele><time>2026-03-28T10:58:27.42Z</time></trkpt><trkpt lat="43.6237721" lon="11.6832381"><ele>1168.0</ele><time>2026-03-28T10:58:28.42Z</time></trkpt><trkpt lat="43.6237712" lon="11.6830798"><ele>1168.0</ele><time>2026-03-28T10:58:29.42Z</time></trkpt><trkpt lat="43.6238048" lon="11.6829341"><ele>1168.0</ele><time>2026-03-28T10:58:30.42Z</time></trkpt><trkpt lat="43.6238771" lon="11.6828294"><ele>1168.0</ele><time>2026-03-28T10:58:31.42Z</time></trkpt><trkpt lat="43.6239706" lon="11.6827586"><ele>1168.0</ele><time>2026-03-28T10:58:32.42Z</time></trkpt><trkpt lat="43.6240853" lon="11.6827317"><ele>1163.5</ele><time>2026-03-28T10:58:33.42Z</time></trkpt><trkpt lat="43.6242106" lon="11.6826946"><ele>1159.0</ele><time>2026-03-28T10:58:34.42Z</time></trkpt><trkpt lat="43.6243439" lon="11.6826837"><ele>1154.5</ele><time>2026-03-28T10:58:35.42Z</time></trkpt><trkpt lat="43.6244996" lon="11.6826966"><ele>1150.0</ele><time>2026-03-28T10:58:36.42Z</time></trkpt><trkpt lat="43.6246479" lon="11.6827056"><ele>1149.0</ele><time>2026-03-28T10:58:37.42Z</time></trkpt><trkpt lat="43.6247916" lon="11.682725"><ele>1148.0</ele><time>2026-03-28T10:58:38.42Z</time></trkpt><trkpt lat="43.6249296" lon="11.6827755"><ele>1147.0</ele><time>2026-03-28T10:58:39.42Z</time></trkpt><trkpt lat="43.6250584" lon="11.6828634"><ele>1146.0</ele><time>2026-03-28T10:58:40.42Z</time></trkpt><trkpt lat="43.625183" lon="11.6829856"><ele>1150.0</ele><time>2026-03-28T10:58:41.42Z</time></trkpt><trkpt lat="43.6252916" lon="11.6830998"><ele>1154.0</ele><time>2026-03-28T10:58:42.42Z</time></trkpt><trkpt lat="43.6254046" lon="11.6832104"><ele>1158.0</ele><time>2026-03-28T10:58:43.42Z</time></trkpt><trkpt lat="43.6255082" lon="11.6833216"><ele>1162.0</ele><time>2026-03-28T10:58:44.42Z</time></trkpt><trkpt lat="43.625607" lon="11.6834306"><ele>1162.0</ele><time>2026-03-28T10:58:45.421Z</time></trkpt><trkpt lat="43.625708" lon="11.6835257"><ele>1162.0</ele><time>2026-03-28T10:58:46.42Z</time></trkpt><trkpt lat="43.6257914" lon="11.6836014"><ele>1162.0</ele><time>2026-03-28T10:58:47.42Z</time></trkpt><trkpt lat="43.6258812" lon="11.6836502"><ele>1162.0</ele><time>2026-03-28T10:58:48.42Z</time></trkpt><trkpt lat="43.6259859" lon="11.6836708"><ele>1162.0</ele><time>2026-03-28T10:58:49.42Z</time></trkpt><trkpt lat="43.6260839" lon="11.6836585"><ele>1173.0</ele><time>2026-03-28T10:58:50.42Z</time></trkpt><trkpt lat="43.6261834" lon="11.6836357"><ele>1184.0</ele><time>2026-03-28T10:58:51.42Z</time></trkpt><trkpt lat="43.6262888" lon="11.6836352"><ele>1195.0</ele><time>2026-03-28T10:58:52.42Z</time></trkpt><trkpt lat="43.626414" lon="11.6836648"><ele>1206.0</ele><time>2026-03-28T10:58:53.42Z</time></trkpt><trkpt lat="43.6265502" lon="11.6836981"><ele>1206.0</ele><time>2026-03-28T10:58:54.42Z</time></trkpt><trkpt lat="43.6266806" lon="11.6837345"><ele>1206.0</ele><time>2026-03-28T10:58:55.42Z</time></trkpt><trkpt lat="43.6268163" lon="11.683781"><ele>1206.0</ele><time>2026-03-28T10:58:56.42Z</time></trkpt><trkpt lat="43.6269409" lon="11.6838354"><ele>1206.0</ele><time>2026-03-28T10:58:57.42Z</time></trkpt><trkpt lat="43.6270619" lon="11.6838962"><ele>1206.2</ele><time>2026-03-28T10:58:58.421Z</time></trkpt><trkpt lat="43.6271695" lon="11.6839561"><ele>1206.3999999999999</ele><time>2026-03-28T10:58:59.42Z</time></trkpt><trkpt lat="43.6272768" lon="11.6839959"><ele>1206.6</ele><time>2026-03-28T10:59:00.42Z</time></trkpt><trkpt lat="43.6273795" lon="11.6840027"><ele>1206.8</ele><time>2026-03-28T10:59:01.42Z</time></trkpt><trkpt lat="43.6274765" lon="11.6839569"><ele>1207.0</ele><time>2026-03-28T10:59:02.42Z</time></trkpt><trkpt lat="43.6275582" lon="11.6838887"><ele>1207.0</ele><time>2026-03-28T10:59:03.42Z</time></trkpt><trkpt lat="43.6276328" lon="11.6837823"><ele>1207.0</ele><time>2026-03-28T10:59:04.42Z</time></trkpt><trkpt lat="43.6276921" lon="11.6836529"><ele>1207.0</ele><time>2026-03-28T10:59:05.42Z</time></trkpt><trkpt lat="43.6277597" lon="11.6835079"><ele>1207.0</ele><time>2026-03-28T10:59:06.42Z</time></trkpt><trkpt lat="43.6278372" lon="11.6833616"><ele>1208.25</ele><time>2026-03-28T10:59:07.42Z</time></trkpt><trkpt lat="43.6279395" lon="11.6832411"><ele>1209.5</ele><time>2026-03-28T10:59:08.42Z</time></trkpt><trkpt lat="43.6280619" lon="11.6831482"><ele>1210.75</ele><time>2026-03-28T10:59:09.42Z</time></trkpt><trkpt lat="43.6281933" lon="11.6830832"><ele>1212.0</ele><time>2026-03-28T10:59:10.42Z</time></trkpt><trkpt lat="43.6283244" lon="11.683031"><ele>1212.0</ele><time>2026-03-28T10:59:11.42Z</time></trkpt><trkpt lat="43.6284464" lon="11.6829704"><ele>1212.0</ele><time>2026-03-28T10:59:12.42Z</time></trkpt><trkpt lat="43.6285406" lon="11.6828805"><ele>1212.0</ele><time>2026-03-28T10:59:13.42Z</time></trkpt><trkpt lat="43.6286059" lon="11.6827682"><ele>1212.0</ele><time>2026-03-28T10:59:14.42Z</time></trkpt><trkpt lat="43.628622" lon="11.6826586"><ele>1212.0</ele><time>2026-03-28T10:59:15.42Z</time></trkpt><trkpt lat="43.6285846" lon="11.6825356"><ele>1209.75</ele><time>2026-03-28T10:59:16.42Z</time></trkpt><trkpt lat="43.6285415" lon="11.6823834"><ele>1207.5</ele><time>2026-03-28T10:59:17.421Z</time></trkpt><trkpt lat="43.6284933" lon="11.6822388"><ele>1205.25</ele><time>2026-03-28T10:59:18.421Z</time></trkpt><trkpt lat="43.6284445" lon="11.6820702"><ele>1203.0</ele><time>2026-03-28T10:59:19.421Z</time></trkpt><trkpt lat="43.6284018" lon="11.681908"><ele>1209.25</ele><time>2026-03-28T10:59:20.421Z</time></trkpt><trkpt lat="43.6283527" lon="11.6817283"><ele>1215.5</ele><time>2026-03-28T10:59:21.421Z</time></trkpt><trkpt lat="43.6283042" lon="11.6815513"><ele>1221.75</ele><time>2026-03-28T10:59:22.421Z</time></trkpt><trkpt lat="43.6282519" lon="11.6813795"><ele>1228.0</ele><time>2026-03-28T10:59:23.421Z</time></trkpt><trkpt lat="43.6281883" lon="11.681201"><ele>1223.25</ele><time>2026-03-28T10:59:24.421Z</time></trkpt><trkpt lat="43.6281149" lon="11.6810512"><ele>1218.5</ele><time>2026-03-28T10:59:25.421Z</time></trkpt><trkpt lat="43.6280283" lon="11.6809339"><ele>1213.75</ele><time>2026-03-28T10:59:26.421Z</time></trkpt><trkpt lat="43.6279203" lon="11.6808429"><ele>1209.0</ele><time>2026-03-28T10:59:27.421Z</time></trkpt><trkpt lat="43.6278063" lon="11.6807586"><ele>1209.0</ele><time>2026-03-28T10:59:28.421Z</time></trkpt><trkpt lat="43.6277017" lon="11.6806702"><ele>1209.0</ele><time>2026-03-28T10:59:29.421Z</time></trkpt><trkpt lat="43.6275939" lon="11.6805936"><ele>1209.0</ele><time>2026-03-28T10:59:30.421Z</time></trkpt><trkpt lat="43.6275031" lon="11.6804941"><ele>1209.0</ele><time>2026-03-28T10:59:31.421Z</time></trkpt><trkpt lat="43.6274333" lon="11.6803638"><ele>1213.0</ele><time>2026-03-28T10:59:32.421Z</time></trkpt><trkpt lat="43.6273823" lon="11.680215"><ele>1217.0</ele><time>2026-03-28T10:59:33.421Z</time></trkpt><trkpt lat="43.627344" lon="11.6800784"><ele>1221.0</ele><time>2026-03-28T10:59:34.421Z</time></trkpt><trkpt lat="43.6273188" lon="11.679936"><ele>1225.0</ele><time>2026-03-28T10:59:35.421Z</time></trkpt><trkpt lat="43.6272947" lon="11.6797794"><ele>1229.0</ele><time>2026-03-28T10:59:36.421Z</time></trkpt><trkpt lat="43.6272731" lon="11.6796083"><ele>1233.25</ele><time>2026-03-28T10:59:37.421Z</time></trkpt><trkpt lat="43.6272495" lon="11.6794211"><ele>1237.5</ele><time>2026-03-28T10:59:38.421Z</time></trkpt><trkpt lat="43.6272314" lon="11.6792193"><ele>1241.75</ele><time>2026-03-28T10:59:39.421Z</time></trkpt><trkpt lat="43.6272125" lon="11.6789949"><ele>1246.0</ele><time>2026-03-28T10:59:40.421Z</time></trkpt><trkpt lat="43.6271643" lon="11.6787915"><ele>1246.0</ele><time>2026-03-28T10:59:41.421Z</time></trkpt><trkpt lat="43.6270987" lon="11.6786181"><ele>1246.0</ele><time>2026-03-28T10:59:42.421Z</time></trkpt><trkpt lat="43.6270233" lon="11.6784634"><ele>1246.0</ele><time>2026-03-28T10:59:43.421Z</time></trkpt><trkpt lat="43.6269768" lon="11.6783273"><ele>1246.0</ele><time>2026-03-28T10:59:44.421Z</time></trkpt><trkpt lat="43.6269524" lon="11.6781976"><ele>1241.0</ele><time>2026-03-28T10:59:45.421Z</time></trkpt><trkpt lat="43.6269467" lon="11.6780596"><ele>1236.0</ele><time>2026-03-28T10:59:46.421Z</time></trkpt><trkpt lat="43.6269487" lon="11.6779211"><ele>1231.0</ele><time>2026-03-28T10:59:47.421Z</time></trkpt><trkpt lat="43.6269502" lon="11.6777887"><ele>1226.0</ele><time>2026-03-28T10:59:48.421Z</time></trkpt><trkpt lat="43.6269615" lon="11.6776116"><ele>1221.0</ele><time>2026-03-28T10:59:49.421Z</time></trkpt><trkpt lat="43.6269365" lon="11.6774261"><ele>1221.0</ele><time>2026-03-28T10:59:50.421Z</time></trkpt><trkpt lat="43.6268842" lon="11.6772273"><ele>1221.0</ele><time>2026-03-28T10:59:51.421Z</time></trkpt><trkpt lat="43.6268181" lon="11.6770594"><ele>1221.0</ele><time>2026-03-28T10:59:52.421Z</time></trkpt><trkpt lat="43.6267465" lon="11.6769037"><ele>1221.0</ele><time>2026-03-28T10:59:53.421Z</time></trkpt><trkpt lat="43.626676" lon="11.6767734"><ele>1223.8333333333333</ele><time>2026-03-28T10:59:54.421Z</time></trkpt><trkpt lat="43.6266224" lon="11.6766683"><ele>1226.6666666666667</ele><time>2026-03-28T10:59:55.421Z</time></trkpt><trkpt lat="43.6265857" lon="11.6765632"><ele>1229.5</ele><time>2026-03-28T10:59:56.421Z</time></trkpt><trkpt lat="43.6265644" lon="11.6764707"><ele>1232.3333333333335</ele><time>2026-03-28T10:59:57.421Z</time></trkpt><trkpt lat="43.6265593" lon="11.6763751"><ele>1235.1666666666667</ele><time>2026-03-28T10:59:58.421Z</time></trkpt><trkpt lat="43.6265652" lon="11.6762692"><ele>1238.0</ele><time>2026-03-28T10:59:59.421Z</time></trkpt><trkpt lat="43.6265872" lon="11.6761631"><ele>1237.3333333333335</ele><time>2026-03-28T11:00:00.421Z</time></trkpt><trkpt lat="43.6266338" lon="11.6760529"><ele>1236.6666666666667</ele><time>2026-03-28T11:00:01.421Z</time></trkpt><trkpt lat="43.6266847" lon="11.6759584"><ele>1236.0</ele><time>2026-03-28T11:00:02.421Z</time></trkpt><trkpt lat="43.6267561" lon="11.6759024"><ele>1235.3333333333333</ele><time>2026-03-28T11:00:03.421Z</time></trkpt><trkpt lat="43.6268351" lon="11.6758916"><ele>1234.6666666666665</ele><time>2026-03-28T11:00:04.421Z</time></trkpt><trkpt lat="43.6269066" lon="11.6759065"><ele>1234.0</ele><time>2026-03-28T11:00:05.421Z</time></trkpt><trkpt lat="43.6269886" lon="11.6759568"><ele>1236.5</ele><time>2026-03-28T11:00:06.421Z</time></trkpt><trkpt lat="43.6270678" lon="11.6760517"><ele>1239.0</ele><time>2026-03-28T11:00:07.421Z</time></trkpt><trkpt lat="43.6271433" lon="11.6761826"><ele>1241.5</ele><time>2026-03-28T11:00:08.421Z</time></trkpt><trkpt lat="43.6272342" lon="11.6763211"><ele>1244.0</ele><time>2026-03-28T11:00:09.421Z</time></trkpt><trkpt lat="43.6273263" lon="11.6764775"><ele>1244.0</ele><time>2026-03-28T11:00:10.421Z</time></trkpt><trkpt lat="43.6274178" lon="11.6766321"><ele>1244.0</ele><time>2026-03-28T11:00:11.421Z</time></trkpt><trkpt lat="43.6275216" lon="11.6767768"><ele>1244.0</ele><time>2026-03-28T11:00:12.421Z</time></trkpt><trkpt lat="43.6276292" lon="11.6769034"><ele>1244.0</ele><time>2026-03-28T11:00:13.421Z</time></trkpt><trkpt lat="43.6277281" lon="11.6770192"><ele>1242.75</ele><time>2026-03-28T11:00:14.421Z</time></trkpt><trkpt lat="43.6278185" lon="11.6771254"><ele>1241.5</ele><time>2026-03-28T11:00:15.421Z</time></trkpt><trkpt lat="43.6279209" lon="11.6772404"><ele>1240.25</ele><time>2026-03-28T11:00:16.421Z</time></trkpt><trkpt lat="43.6280253" lon="11.6773668"><ele>1239.0</ele><time>2026-03-28T11:00:17.421Z</time></trkpt><trkpt lat="43.6281319" lon="11.6775022"><ele>1239.0</ele><time>2026-03-28T11:00:18.421Z</time></trkpt><trkpt lat="43.6282307" lon="11.6776289"><ele>1239.0</ele><time>2026-03-28T11:00:19.421Z</time></trkpt><trkpt lat="43.6283205" lon="11.6777504"><ele>1239.0</ele><time>2026-03-28T11:00:20.421Z</time></trkpt><trkpt lat="43.6284044" lon="11.6778666"><ele>1239.0</ele><time>2026-03-28T11:00:21.421Z</time></trkpt><trkpt lat="43.6284794" lon="11.6779729"><ele>1244.0</ele><time>2026-03-28T11:00:22.421Z</time></trkpt><trkpt lat="43.6285621" lon="11.6780445"><ele>1249.0</ele><time>2026-03-28T11:00:23.421Z</time></trkpt><trkpt lat="43.6286618" lon="11.6781055"><ele>1254.0</ele><time>2026-03-28T11:00:24.421Z</time></trkpt><trkpt lat="43.6287758" lon="11.6781399"><ele>1259.0</ele><time>2026-03-28T11:00:25.421Z</time></trkpt><trkpt lat="43.6289161" lon="11.6781475"><ele>1259.0</ele><time>2026-03-28T11:00:26.421Z</time></trkpt><trkpt lat="43.6290785" lon="11.6781398"><ele>1259.0</ele><time>2026-03-28T11:00:27.421Z</time></trkpt><trkpt lat="43.6292424" lon="11.6781329"><ele>1259.0</ele><time>2026-03-28T11:00:28.421Z</time></trkpt><trkpt lat="43.629393" lon="11.6781227"><ele>1257.6000000000001</ele><time>2026-03-28T11:00:29.421Z</time></trkpt><trkpt lat="43.6295261" lon="11.6781014"><ele>1256.2</ele><time>2026-03-28T11:00:30.421Z</time></trkpt><trkpt lat="43.6296477" lon="11.6780848"><ele>1254.8000000000002</ele><time>2026-03-28T11:00:31.421Z</time></trkpt><trkpt lat="43.6297437" lon="11.6780792"><ele>1253.4</ele><time>2026-03-28T11:00:32.421Z</time></trkpt><trkpt lat="43.6298299" lon="11.6780811"><ele>1252.0</ele><time>2026-03-28T11:00:33.421Z</time></trkpt><trkpt lat="43.6299126" lon="11.6780977"><ele>1252.0</ele><time>2026-03-28T11:00:34.421Z</time></trkpt><trkpt lat="43.6299977" lon="11.6781362"><ele>1252.0</ele><time>2026-03-28T11:00:35.421Z</time></trkpt><trkpt lat="43.6300884" lon="11.6781976"><ele>1252.0</ele><time>2026-03-28T11:00:36.421Z</time></trkpt><trkpt lat="43.6301894" lon="11.6782568"><ele>1252.0</ele><time>2026-03-28T11:00:37.421Z</time></trkpt><trkpt lat="43.6302999" lon="11.6782945"><ele>1252.0</ele><time>2026-03-28T11:00:38.421Z</time></trkpt><trkpt lat="43.6304036" lon="11.6782769"><ele>1250.4</ele><time>2026-03-28T11:00:39.421Z</time></trkpt><trkpt lat="43.6305027" lon="11.6782238"><ele>1248.8000000000002</ele><time>2026-03-28T11:00:40.421Z</time></trkpt><trkpt lat="43.630602" lon="11.6781441"><ele>1247.2</ele><time>2026-03-28T11:00:41.421Z</time></trkpt><trkpt lat="43.6306938" lon="11.6780714"><ele>1245.6000000000001</ele><time>2026-03-28T11:00:42.421Z</time></trkpt><trkpt lat="43.630781" lon="11.6780143"><ele>1244.0</ele><time>2026-03-28T11:00:43.421Z</time></trkpt><trkpt lat="43.6308588" lon="11.6779975"><ele>1244.0</ele><time>2026-03-28T11:00:44.421Z</time></trkpt><trkpt lat="43.630949" lon="11.67803"><ele>1244.0</ele><time>2026-03-28T11:00:45.421Z</time></trkpt><trkpt lat="43.6310227" lon="11.6781016"><ele>1244.0</ele><time>2026-03-28T11:00:46.421Z</time></trkpt><trkpt lat="43.6310842" lon="11.6781951"><ele>1244.0</ele><time>2026-03-28T11:00:47.421Z</time></trkpt><trkpt lat="43.6311403" lon="11.6783113"><ele>1244.0</ele><time>2026-03-28T11:00:48.421Z</time></trkpt><trkpt lat="43.6311948" lon="11.6784276"><ele>1246.2</ele><time>2026-03-28T11:00:49.421Z</time></trkpt><trkpt lat="43.6312645" lon="11.678559"><ele>1248.4</ele><time>2026-03-28T11:00:50.421Z</time></trkpt><trkpt lat="43.6313277" lon="11.6786794"><ele>1250.6</ele><time>2026-03-28T11:00:51.421Z</time></trkpt><trkpt lat="43.6313948" lon="11.6787943"><ele>1252.8</ele><time>2026-03-28T11:00:52.422Z</time></trkpt><trkpt lat="43.6314668" lon="11.6788874"><ele>1255.0</ele><time>2026-03-28T11:00:53.421Z</time></trkpt><trkpt lat="43.6315562" lon="11.6789551"><ele>1255.0</ele><time>2026-03-28T11:00:54.421Z</time></trkpt><trkpt lat="43.6316562" lon="11.6790083"><ele>1255.0</ele><time>2026-03-28T11:00:55.421Z</time></trkpt><trkpt lat="43.6317633" lon="11.6790532"><ele>1255.0</ele><time>2026-03-28T11:00:56.421Z</time></trkpt><trkpt lat="43.6318594" lon="11.6790708"><ele>1255.0</ele><time>2026-03-28T11:00:57.421Z</time></trkpt><trkpt lat="43.6319538" lon="11.6790533"><ele>1255.0</ele><time>2026-03-28T11:00:58.421Z</time></trkpt><trkpt lat="43.6320302" lon="11.6790124"><ele>1254.0</ele><time>2026-03-28T11:00:59.421Z</time></trkpt><trkpt lat="43.6321006" lon="11.6789552"><ele>1253.0</ele><time>2026-03-28T11:01:00.421Z</time></trkpt><trkpt lat="43.6321449" lon="11.6788633"><ele>1252.0</ele><time>2026-03-28T11:01:01.421Z</time></trkpt><trkpt lat="43.6321592" lon="11.6787214"><ele>1251.0</ele><time>2026-03-28T11:01:02.421Z</time></trkpt><trkpt lat="43.6321533" lon="11.6785628"><ele>1250.0</ele><time>2026-03-28T11:01:03.421Z</time></trkpt><trkpt lat="43.6321864" lon="11.6783904"><ele>1250.0</ele><time>2026-03-28T11:01:04.421Z</time></trkpt><trkpt lat="43.6322558" lon="11.6782204"><ele>1250.0</ele><time>2026-03-28T11:01:05.421Z</time></trkpt><trkpt lat="43.6323225" lon="11.678064"><ele>1250.0</ele><time>2026-03-28T11:01:06.421Z</time></trkpt><trkpt lat="43.6323876" lon="11.6779174"><ele>1250.0</ele><time>2026-03-28T11:01:07.421Z</time></trkpt><trkpt lat="43.6324394" lon="11.6777694"><ele>1246.0</ele><time>2026-03-28T11:01:08.421Z</time></trkpt><trkpt lat="43.6324709" lon="11.6775859"><ele>1242.0</ele><time>2026-03-28T11:01:09.421Z</time></trkpt><trkpt lat="43.6324819" lon="11.6773615"><ele>1238.0</ele><time>2026-03-28T11:01:10.421Z</time></trkpt><trkpt lat="43.6325109" lon="11.6771342"><ele>1237.0</ele><time>2026-03-28T11:01:11.421Z</time></trkpt><trkpt lat="43.6325543" lon="11.6769267"><ele>1236.0</ele><time>2026-03-28T11:01:12.421Z</time></trkpt><trkpt lat="43.6325903" lon="11.6767286"><ele>1235.0</ele><time>2026-03-28T11:01:13.421Z</time></trkpt><trkpt lat="43.6325906" lon="11.6765364"><ele>1234.0</ele><time>2026-03-28T11:01:14.421Z</time></trkpt><trkpt lat="43.632562" lon="11.6763547"><ele>1234.0</ele><time>2026-03-28T11:01:15.421Z</time></trkpt><trkpt lat="43.6324968" lon="11.6761941"><ele>1234.0</ele><time>2026-03-28T11:01:16.421Z</time></trkpt><trkpt lat="43.6324164" lon="11.6760436"><ele>1234.0</ele><time>2026-03-28T11:01:17.421Z</time></trkpt><trkpt lat="43.6323431" lon="11.6759054"><ele>1234.0</ele><time>2026-03-28T11:01:18.421Z</time></trkpt><trkpt lat="43.6322895" lon="11.675765"><ele>1235.5</ele><time>2026-03-28T11:01:19.421Z</time></trkpt><trkpt lat="43.6322725" lon="11.6756069"><ele>1237.0</ele><time>2026-03-28T11:01:20.421Z</time></trkpt><trkpt lat="43.6322931" lon="11.6754256"><ele>1238.5</ele><time>2026-03-28T11:01:21.421Z</time></trkpt><trkpt lat="43.6323599" lon="11.6752613"><ele>1240.0</ele><time>2026-03-28T11:01:22.421Z</time></trkpt><trkpt lat="43.6324451" lon="11.6751036"><ele>1236.5</ele><time>2026-03-28T11:01:23.421Z</time></trkpt><trkpt lat="43.6325408" lon="11.6749506"><ele>1233.0</ele><time>2026-03-28T11:01:24.421Z</time></trkpt><trkpt lat="43.632654" lon="11.6747977"><ele>1229.5</ele><time>2026-03-28T11:01:25.421Z</time></trkpt><trkpt lat="43.6327564" lon="11.6746643"><ele>1226.0</ele><time>2026-03-28T11:01:26.421Z</time></trkpt><trkpt lat="43.6328486" lon="11.6745452"><ele>1225.8</ele><time>2026-03-28T11:01:27.421Z</time></trkpt><trkpt lat="43.6329364" lon="11.6744438"><ele>1225.6</ele><time>2026-03-28T11:01:28.421Z</time></trkpt><trkpt lat="43.6330291" lon="11.6743899"><ele>1225.4</ele><time>2026-03-28T11:01:29.421Z</time></trkpt><trkpt lat="43.6331103" lon="11.6743599"><ele>1225.2</ele><time>2026-03-28T11:01:30.421Z</time></trkpt><trkpt lat="43.6331945" lon="11.6743548"><ele>1225.0</ele><time>2026-03-28T11:01:31.421Z</time></trkpt><trkpt lat="43.6332796" lon="11.6743786"><ele>1225.0</ele><time>2026-03-28T11:01:32.421Z</time></trkpt><trkpt lat="43.6333814" lon="11.6743802"><ele>1225.0</ele><time>2026-03-28T11:01:33.421Z</time></trkpt><trkpt lat="43.6334924" lon="11.6743427"><ele>1225.0</ele><time>2026-03-28T11:01:34.421Z</time></trkpt><trkpt lat="43.6336068" lon="11.6742318"><ele>1225.0</ele><time>2026-03-28T11:01:35.421Z</time></trkpt><trkpt lat="43.6337062" lon="11.6741093"><ele>1225.2</ele><time>2026-03-28T11:01:36.421Z</time></trkpt><trkpt lat="43.6338059" lon="11.6739969"><ele>1225.4</ele><time>2026-03-28T11:01:37.421Z</time></trkpt><trkpt lat="43.6338978" lon="11.6739189"><ele>1225.6</ele><time>2026-03-28T11:01:38.421Z</time></trkpt><trkpt lat="43.6339803" lon="11.6739058"><ele>1225.8</ele><time>2026-03-28T11:01:39.421Z</time></trkpt><trkpt lat="43.6340799" lon="11.6739534"><ele>1226.0</ele><time>2026-03-28T11:01:40.421Z</time></trkpt><trkpt lat="43.6341784" lon="11.6740368"><ele>1226.0</ele><time>2026-03-28T11:01:41.421Z</time></trkpt><trkpt lat="43.6342642" lon="11.6741696"><ele>1226.0</ele><time>2026-03-28T11:01:42.421Z</time></trkpt><trkpt lat="43.6343228" lon="11.6743326"><ele>1226.0</ele><time>2026-03-28T11:01:43.421Z</time></trkpt><trkpt lat="43.6343695" lon="11.6745078"><ele>1226.0</ele><time>2026-03-28T11:01:44.421Z</time></trkpt><trkpt lat="43.634419" lon="11.6746858"><ele>1223.25</ele><time>2026-03-28T11:01:45.421Z</time></trkpt><trkpt lat="43.6344826" lon="11.6748529"><ele>1220.5</ele><time>2026-03-28T11:01:46.421Z</time></trkpt><trkpt lat="43.6345562" lon="11.6750011"><ele>1217.75</ele><time>2026-03-28T11:01:47.421Z</time></trkpt><trkpt lat="43.6346288" lon="11.6751212"><ele>1215.0</ele><time>2026-03-28T11:01:48.421Z</time></trkpt><trkpt lat="43.6347216" lon="11.6752109"><ele>1224.25</ele><time>2026-03-28T11:01:49.421Z</time></trkpt><trkpt lat="43.6348319" lon="11.6752891"><ele>1233.5</ele><time>2026-03-28T11:01:50.421Z</time></trkpt><trkpt lat="43.634951" lon="11.6753621"><ele>1242.75</ele><time>2026-03-28T11:01:51.421Z</time></trkpt><trkpt lat="43.6350739" lon="11.6754331"><ele>1252.0</ele><time>2026-03-28T11:01:52.421Z</time></trkpt><trkpt lat="43.6351908" lon="11.6755154"><ele>1244.0</ele><time>2026-03-28T11:01:53.421Z</time></trkpt><trkpt lat="43.6353124" lon="11.6756076"><ele>1236.0</ele><time>2026-03-28T11:01:54.421Z</time></trkpt><trkpt lat="43.6354345" lon="11.6757078"><ele>1228.0</ele><time>2026-03-28T11:01:55.421Z</time></trkpt><trkpt lat="43.635556" lon="11.6758174"><ele>1220.0</ele><time>2026-03-28T11:01:56.421Z</time></trkpt><trkpt lat="43.635673" lon="11.6759298"><ele>1220.0</ele><time>2026-03-28T11:01:57.421Z</time></trkpt><trkpt lat="43.6357843" lon="11.6760286"><ele>1220.0</ele><time>2026-03-28T11:01:58.421Z</time></trkpt><trkpt lat="43.6358971" lon="11.6761163"><ele>1220.0</ele><time>2026-03-28T11:01:59.421Z</time></trkpt><trkpt lat="43.6360089" lon="11.6761725"><ele>1220.0</ele><time>2026-03-28T11:02:00.421Z</time></trkpt><trkpt lat="43.6361216" lon="11.676193"><ele>1224.75</ele><time>2026-03-28T11:02:01.421Z</time></trkpt><trkpt lat="43.6362317" lon="11.6761698"><ele>1229.5</ele><time>2026-03-28T11:02:02.421Z</time></trkpt><trkpt lat="43.6363385" lon="11.6761097"><ele>1234.25</ele><time>2026-03-28T11:02:03.421Z</time></trkpt><trkpt lat="43.6364322" lon="11.6759268"><ele>1239.0</ele><time>2026-03-28T11:02:04.421Z</time></trkpt><trkpt lat="43.6365318" lon="11.6757553"><ele>1239.0</ele><time>2026-03-28T11:02:05.421Z</time></trkpt><trkpt lat="43.6366421" lon="11.6756134"><ele>1239.0</ele><time>2026-03-28T11:02:06.421Z</time></trkpt><trkpt lat="43.6367565" lon="11.6754817"><ele>1239.0</ele><time>2026-03-28T11:02:07.421Z</time></trkpt><trkpt lat="43.6368734" lon="11.6753683"><ele>1239.0</ele><time>2026-03-28T11:02:08.421Z</time></trkpt><trkpt lat="43.6370038" lon="11.6752761"><ele>1236.25</ele><time>2026-03-28T11:02:09.421Z</time></trkpt><trkpt lat="43.6371454" lon="11.6752154"><ele>1233.5</ele><time>2026-03-28T11:02:10.421Z</time></trkpt><trkpt lat="43.6372827" lon="11.6751774"><ele>1230.75</ele><time>2026-03-28T11:02:11.421Z</time></trkpt><trkpt lat="43.6374083" lon="11.6751356"><ele>1228.0</ele><time>2026-03-28T11:02:12.421Z</time></trkpt><trkpt lat="43.6375287" lon="11.6750623"><ele>1228.0</ele><time>2026-03-28T11:02:13.421Z</time></trkpt><trkpt lat="43.6376178" lon="11.6749337"><ele>1228.0</ele><time>2026-03-28T11:02:14.421Z</time></trkpt><trkpt lat="43.6376726" lon="11.6747592"><ele>1228.0</ele><time>2026-03-28T11:02:15.421Z</time></trkpt><trkpt lat="43.6377184" lon="11.6745447"><ele>1228.0</ele><time>2026-03-28T11:02:16.421Z</time></trkpt><trkpt lat="43.6377544" lon="11.6743231"><ele>1220.0</ele><time>2026-03-28T11:02:17.421Z</time></trkpt><trkpt lat="43.6377952" lon="11.674116"><ele>1212.0</ele><time>2026-03-28T11:02:18.421Z</time></trkpt><trkpt lat="43.637826" lon="11.6739049"><ele>1204.0</ele><time>2026-03-28T11:02:19.421Z</time></trkpt><trkpt lat="43.6378616" lon="11.6737111"><ele>1214.6666666666665</ele><time>2026-03-28T11:02:20.421Z</time></trkpt><trkpt lat="43.6379034" lon="11.6735266"><ele>1225.3333333333333</ele><time>2026-03-28T11:02:21.421Z</time></trkpt><trkpt lat="43.6379877" lon="11.6733341"><ele>1236.0</ele><time>2026-03-28T11:02:22.421Z</time></trkpt><trkpt lat="43.6381051" lon="11.6731894"><ele>1236.0</ele><time>2026-03-28T11:02:23.421Z</time></trkpt><trkpt lat="43.63822" lon="11.6730571"><ele>1236.0</ele><time>2026-03-28T11:02:24.421Z</time></trkpt><trkpt lat="43.6383336" lon="11.672959"><ele>1236.0</ele><time>2026-03-28T11:02:25.421Z</time></trkpt><trkpt lat="43.638468" lon="11.6729138"><ele>1236.0</ele><time>2026-03-28T11:02:26.421Z</time></trkpt><trkpt lat="43.6386085" lon="11.6729217"><ele>1237.75</ele><time>2026-03-28T11:02:27.421Z</time></trkpt><trkpt lat="43.6387524" lon="11.6729568"><ele>1239.5</ele><time>2026-03-28T11:02:28.421Z</time></trkpt><trkpt lat="43.6388731" lon="11.673006"><ele>1241.25</ele><time>2026-03-28T11:02:29.421Z</time></trkpt><trkpt lat="43.6389876" lon="11.6730483"><ele>1243.0</ele><time>2026-03-28T11:02:30.421Z</time></trkpt><trkpt lat="43.6391021" lon="11.6731082"><ele>1243.0</ele><time>2026-03-28T11:02:31.421Z</time></trkpt><trkpt lat="43.6392184" lon="11.6731845"><ele>1243.0</ele><time>2026-03-28T11:02:32.421Z</time></trkpt><trkpt lat="43.6393095" lon="11.6732844"><ele>1243.0</ele><time>2026-03-28T11:02:33.421Z</time></trkpt><trkpt lat="43.6394039" lon="11.6733417"><ele>1243.0</ele><time>2026-03-28T11:02:34.421Z</time></trkpt><trkpt lat="43.6394881" lon="11.6733538"><ele>1243.0</ele><time>2026-03-28T11:02:35.421Z</time></trkpt><trkpt lat="43.6395344" lon="11.6732818"><ele>1246.0</ele><time>2026-03-28T11:02:36.421Z</time></trkpt><trkpt lat="43.6395649" lon="11.6731899"><ele>1249.0</ele><time>2026-03-28T11:02:37.421Z</time></trkpt><trkpt lat="43.639588" lon="11.6730634"><ele>1252.0</ele><time>2026-03-28T11:02:38.421Z</time></trkpt><trkpt lat="43.6396113" lon="11.6729192"><ele>1255.0</ele><time>2026-03-28T11:02:39.421Z</time></trkpt><trkpt lat="43.6396141" lon="11.6727606"><ele>1258.0</ele><time>2026-03-28T11:02:40.421Z</time></trkpt><trkpt lat="43.6396063" lon="11.6725587"><ele>1259.6666666666665</ele><time>2026-03-28T11:02:41.421Z</time></trkpt><trkpt lat="43.6395838" lon="11.6723421"><ele>1261.3333333333333</ele><time>2026-03-28T11:02:42.421Z</time></trkpt><trkpt lat="43.6395418" lon="11.6721093"><ele>1263.0</ele><time>2026-03-28T11:02:43.421Z</time></trkpt><trkpt lat="43.6394788" lon="11.6718868"><ele>1250.3333333333333</ele><time>2026-03-28T11:02:44.421Z</time></trkpt><trkpt lat="43.6393965" lon="11.6716752"><ele>1237.6666666666665</ele><time>2026-03-28T11:02:45.421Z</time></trkpt><trkpt lat="43.6393241" lon="11.6714818"><ele>1225.0</ele><time>2026-03-28T11:02:46.421Z</time></trkpt><trkpt lat="43.639265" lon="11.6712981"><ele>1225.0</ele><time>2026-03-28T11:02:47.421Z</time></trkpt><trkpt lat="43.6392038" lon="11.6711269"><ele>1225.0</ele><time>2026-03-28T11:02:48.421Z</time></trkpt><trkpt lat="43.6391476" lon="11.6709505"><ele>1225.0</ele><time>2026-03-28T11:02:49.421Z</time></trkpt><trkpt lat="43.6391123" lon="11.6707785"><ele>1225.0</ele><time>2026-03-28T11:02:50.421Z</time></trkpt><trkpt lat="43.6390776" lon="11.6706145"><ele>1228.5</ele><time>2026-03-28T11:02:51.421Z</time></trkpt><trkpt lat="43.6390906" lon="11.6704478"><ele>1232.0</ele><time>2026-03-28T11:02:52.421Z</time></trkpt><trkpt lat="43.6391331" lon="11.6702476"><ele>1235.5</ele><time>2026-03-28T11:02:53.421Z</time></trkpt><trkpt lat="43.6391689" lon="11.6700559"><ele>1239.0</ele><time>2026-03-28T11:02:54.421Z</time></trkpt><trkpt lat="43.6391764" lon="11.6698572"><ele>1240.6666666666667</ele><time>2026-03-28T11:02:55.421Z</time></trkpt><trkpt lat="43.639129" lon="11.6696475"><ele>1242.3333333333335</ele><time>2026-03-28T11:02:56.421Z</time></trkpt><trkpt lat="43.6390456" lon="11.6694364"><ele>1244.0</ele><time>2026-03-28T11:02:57.421Z</time></trkpt><trkpt lat="43.6389664" lon="11.6692293"><ele>1247.6666666666667</ele><time>2026-03-28T11:02:58.421Z</time></trkpt><trkpt lat="43.6389103" lon="11.6689864"><ele>1251.3333333333333</ele><time>2026-03-28T11:02:59.421Z</time></trkpt><trkpt lat="43.6388556" lon="11.6687309"><ele>1255.0</ele><time>2026-03-28T11:03:00.421Z</time></trkpt><trkpt lat="43.6387951" lon="11.6684551"><ele>1261.5</ele><time>2026-03-28T11:03:01.421Z</time></trkpt><trkpt lat="43.6387454" lon="11.6681584"><ele>1268.0</ele><time>2026-03-28T11:03:02.421Z</time></trkpt><trkpt lat="43.6386975" lon="11.667838"><ele>1274.0</ele><time>2026-03-28T11:03:03.421Z</time></trkpt><trkpt lat="43.6386444" lon="11.6675121"><ele>1280.0</ele><time>2026-03-28T11:03:04.421Z</time></trkpt><trkpt lat="43.6386" lon="11.6672169"><ele>1268.6666666666667</ele><time>2026-03-28T11:03:05.421Z</time></trkpt><trkpt lat="43.6385537" lon="11.6669343"><ele>1257.3333333333333</ele><time>2026-03-28T11:03:06.421Z</time></trkpt><trkpt lat="43.6385204" lon="11.6666787"><ele>1246.0</ele><time>2026-03-28T11:03:07.421Z</time></trkpt><trkpt lat="43.6384769" lon="11.6664453"><ele>1246.0</ele><time>2026-03-28T11:03:08.421Z</time></trkpt><trkpt lat="43.6384231" lon="11.6662235"><ele>1246.0</ele><time>2026-03-28T11:03:09.421Z</time></trkpt><trkpt lat="43.6383447" lon="11.6659991"><ele>1246.0</ele><time>2026-03-28T11:03:10.421Z</time></trkpt><trkpt lat="43.6382595" lon="11.6657628"><ele>1249.0</ele><time>2026-03-28T11:03:11.421Z</time></trkpt><trkpt lat="43.6381755" lon="11.6655521"><ele>1252.0</ele><time>2026-03-28T11:03:12.421Z</time></trkpt><trkpt lat="43.6380963" lon="11.6653669"><ele>1255.0</ele><time>2026-03-28T11:03:13.421Z</time></trkpt><trkpt lat="43.6380226" lon="11.6651895"><ele>1257.0</ele><time>2026-03-28T11:03:14.421Z</time></trkpt><trkpt lat="43.6379505" lon="11.6650486"><ele>1259.0</ele><time>2026-03-28T11:03:15.421Z</time></trkpt><trkpt lat="43.6378822" lon="11.6649152"><ele>1261.0</ele><time>2026-03-28T11:03:16.421Z</time></trkpt><trkpt lat="43.6378333" lon="11.66479"><ele>1263.0</ele><time>2026-03-28T11:03:17.421Z</time></trkpt><trkpt lat="43.6378374" lon="11.6646776"><ele>1265.0</ele><time>2026-03-28T11:03:18.421Z</time></trkpt><trkpt lat="43.6378676" lon="11.6645566"><ele>1261.75</ele><time>2026-03-28T11:03:19.421Z</time></trkpt><trkpt lat="43.6379275" lon="11.6644132"><ele>1258.5</ele><time>2026-03-28T11:03:20.421Z</time></trkpt><trkpt lat="43.6380049" lon="11.6642805"><ele>1255.25</ele><time>2026-03-28T11:03:21.421Z</time></trkpt><trkpt lat="43.6381015" lon="11.6641355"><ele>1252.0</ele><time>2026-03-28T11:03:22.421Z</time></trkpt><trkpt lat="43.6382022" lon="11.664012"><ele>1252.0</ele><time>2026-03-28T11:03:23.421Z</time></trkpt><trkpt lat="43.638304" lon="11.6639332"><ele>1252.0</ele><time>2026-03-28T11:03:24.421Z</time></trkpt><trkpt lat="43.6384316" lon="11.6639369"><ele>1252.0</ele><time>2026-03-28T11:03:25.421Z</time></trkpt><trkpt lat="43.6385591" lon="11.6639804"><ele>1252.0</ele><time>2026-03-28T11:03:26.421Z</time></trkpt><trkpt lat="43.6386878" lon="11.6640192"><ele>1254.5</ele><time>2026-03-28T11:03:27.421Z</time></trkpt><trkpt lat="43.6388007" lon="11.6640456"><ele>1257.0</ele><time>2026-03-28T11:03:28.421Z</time></trkpt><trkpt lat="43.6389097" lon="11.6640547"><ele>1259.5</ele><time>2026-03-28T11:03:29.421Z</time></trkpt><trkpt lat="43.6390234" lon="11.6640361"><ele>1262.0</ele><time>2026-03-28T11:03:30.421Z</time></trkpt><trkpt lat="43.6391441" lon="11.6639862"><ele>1262.0</ele><time>2026-03-28T11:03:31.421Z</time></trkpt><trkpt lat="43.6392727" lon="11.6638861"><ele>1262.0</ele><time>2026-03-28T11:03:32.421Z</time></trkpt><trkpt lat="43.6393822" lon="11.6637597"><ele>1262.0</ele><time>2026-03-28T11:03:33.421Z</time></trkpt><trkpt lat="43.6394858" lon="11.6636323"><ele>1262.0</ele><time>2026-03-28T11:03:34.421Z</time></trkpt><trkpt lat="43.6395863" lon="11.6635323"><ele>1263.0</ele><time>2026-03-28T11:03:35.421Z</time></trkpt><trkpt lat="43.6396852" lon="11.6635292"><ele>1264.0</ele><time>2026-03-28T11:03:36.421Z</time></trkpt><trkpt lat="43.6398007" lon="11.6635847"><ele>1265.0</ele><time>2026-03-28T11:03:37.421Z</time></trkpt><trkpt lat="43.6399109" lon="11.6636765"><ele>1266.0</ele><time>2026-03-28T11:03:38.421Z</time></trkpt><trkpt lat="43.6400225" lon="11.6637794"><ele>1266.0</ele><time>2026-03-28T11:03:39.421Z</time></trkpt><trkpt lat="43.6401453" lon="11.6638783"><ele>1266.0</ele><time>2026-03-28T11:03:40.421Z</time></trkpt><trkpt lat="43.6402667" lon="11.6639721"><ele>1266.0</ele><time>2026-03-28T11:03:41.421Z</time></trkpt><trkpt lat="43.6403753" lon="11.6640683"><ele>1266.0</ele><time>2026-03-28T11:03:42.421Z</time></trkpt><trkpt lat="43.6404652" lon="11.6641653"><ele>1265.0</ele><time>2026-03-28T11:03:43.421Z</time></trkpt><trkpt lat="43.6405331" lon="11.6642637"><ele>1264.0</ele><time>2026-03-28T11:03:44.421Z</time></trkpt><trkpt lat="43.6405858" lon="11.664368"><ele>1263.0</ele><time>2026-03-28T11:03:45.421Z</time></trkpt><trkpt lat="43.6406346" lon="11.6644735"><ele>1262.0</ele><time>2026-03-28T11:03:46.421Z</time></trkpt><trkpt lat="43.6406864" lon="11.6646034"><ele>1261.0</ele><time>2026-03-28T11:03:47.421Z</time></trkpt><trkpt lat="43.6407441" lon="11.6647268"><ele>1261.0</ele><time>2026-03-28T11:03:48.421Z</time></trkpt><trkpt lat="43.6408114" lon="11.6648573"><ele>1261.0</ele><time>2026-03-28T11:03:49.421Z</time></trkpt><trkpt lat="43.6408912" lon="11.6649779"><ele>1261.0</ele><time>2026-03-28T11:03:50.421Z</time></trkpt><trkpt lat="43.6409804" lon="11.6650651"><ele>1261.0</ele><time>2026-03-28T11:03:51.421Z</time></trkpt><trkpt lat="43.6410931" lon="11.6651258"><ele>1260.5</ele><time>2026-03-28T11:03:52.421Z</time></trkpt><trkpt lat="43.6412118" lon="11.6651857"><ele>1260.0</ele><time>2026-03-28T11:03:53.421Z</time></trkpt><trkpt lat="43.6413406" lon="11.6652672"><ele>1259.5</ele><time>2026-03-28T11:03:54.421Z</time></trkpt><trkpt lat="43.6414627" lon="11.665371"><ele>1259.0</ele><time>2026-03-28T11:03:55.421Z</time></trkpt><trkpt lat="43.6415644" lon="11.6654979"><ele>1259.0</ele><time>2026-03-28T11:03:56.421Z</time></trkpt><trkpt lat="43.6416555" lon="11.6656427"><ele>1259.0</ele><time>2026-03-28T11:03:57.421Z</time></trkpt><trkpt lat="43.6417493" lon="11.6657948"><ele>1259.0</ele><time>2026-03-28T11:03:58.421Z</time></trkpt><trkpt lat="43.6418521" lon="11.6659209"><ele>1259.0</ele><time>2026-03-28T11:03:59.421Z</time></trkpt><trkpt lat="43.6419488" lon="11.6660374"><ele>1256.2</ele><time>2026-03-28T11:04:00.421Z</time></trkpt><trkpt lat="43.642046" lon="11.6661289"><ele>1253.4</ele><time>2026-03-28T11:04:01.421Z</time></trkpt><trkpt lat="43.6421197" lon="11.666204"><ele>1250.6</ele><time>2026-03-28T11:04:02.421Z</time></trkpt><trkpt lat="43.6421827" lon="11.6663059"><ele>1247.8</ele><time>2026-03-28T11:04:04.421Z</time></trkpt><trkpt lat="43.6422508" lon="11.6664647"><ele>1245.0</ele><time>2026-03-28T11:04:06.421Z</time></trkpt><trkpt lat="43.6422849" lon="11.6665884"><ele>1245.0</ele><time>2026-03-28T11:04:07.421Z</time></trkpt><trkpt lat="43.6423224" lon="11.6667098"><ele>1245.0</ele><time>2026-03-28T11:04:08.421Z</time></trkpt><trkpt lat="43.6423821" lon="11.6668517"><ele>1245.0</ele><time>2026-03-28T11:04:09.421Z</time></trkpt><trkpt lat="43.6424736" lon="11.6669797"><ele>1245.0</ele><time>2026-03-28T11:04:10.421Z</time></trkpt><trkpt lat="43.6425895" lon="11.6670848"><ele>1246.0</ele><time>2026-03-28T11:04:11.421Z</time></trkpt><trkpt lat="43.6427317" lon="11.6671938"><ele>1247.0</ele><time>2026-03-28T11:04:12.421Z</time></trkpt><trkpt lat="43.6428731" lon="11.6673086"><ele>1248.0</ele><time>2026-03-28T11:04:13.421Z</time></trkpt><trkpt lat="43.6430157" lon="11.6674092"><ele>1248.0</ele><time>2026-03-28T11:04:14.421Z</time></trkpt><trkpt lat="43.6431454" lon="11.6675006"><ele>1248.0</ele><time>2026-03-28T11:04:15.421Z</time></trkpt><trkpt lat="43.6432552" lon="11.6675747"><ele>1248.0</ele><time>2026-03-28T11:04:16.421Z</time></trkpt><trkpt lat="43.6433508" lon="11.6676429"><ele>1248.0</ele><time>2026-03-28T11:04:17.421Z</time></trkpt><trkpt lat="43.6434377" lon="11.6677072"><ele>1248.0</ele><time>2026-03-28T11:04:18.421Z</time></trkpt><trkpt lat="43.6435372" lon="11.6677344"><ele>1248.0</ele><time>2026-03-28T11:04:19.421Z</time></trkpt><trkpt lat="43.6436293" lon="11.6677059"><ele>1248.0</ele><time>2026-03-28T11:04:20.421Z</time></trkpt><trkpt lat="43.6437136" lon="11.6676307"><ele>1248.0</ele><time>2026-03-28T11:04:21.421Z</time></trkpt><trkpt lat="43.6437893" lon="11.6674835"><ele>1248.0</ele><time>2026-03-28T11:04:22.421Z</time></trkpt><trkpt lat="43.6438268" lon="11.667308"><ele>1254.0</ele><time>2026-03-28T11:04:23.421Z</time></trkpt><trkpt lat="43.6438393" lon="11.6671014"><ele>1260.0</ele><time>2026-03-28T11:04:24.421Z</time></trkpt><trkpt lat="43.6438601" lon="11.6668641"><ele>1266.0</ele><time>2026-03-28T11:04:25.421Z</time></trkpt><trkpt lat="43.6438856" lon="11.6666352"><ele>1266.0</ele><time>2026-03-28T11:04:26.421Z</time></trkpt><trkpt lat="43.6439183" lon="11.6664296"><ele>1266.0</ele><time>2026-03-28T11:04:27.422Z</time></trkpt><trkpt lat="43.6439503" lon="11.666226"><ele>1266.0</ele><time>2026-03-28T11:04:28.421Z</time></trkpt><trkpt lat="43.6439729" lon="11.6660377"><ele>1266.0</ele><time>2026-03-28T11:04:29.421Z</time></trkpt><trkpt lat="43.6439996" lon="11.6658583"><ele>1263.0</ele><time>2026-03-28T11:04:30.421Z</time></trkpt><trkpt lat="43.6440267" lon="11.6656952"><ele>1260.0</ele><time>2026-03-28T11:04:31.421Z</time></trkpt><trkpt lat="43.6440606" lon="11.6655942"><ele>1257.0</ele><time>2026-03-28T11:04:32.421Z</time></trkpt><trkpt lat="43.644116" lon="11.665536"><ele>1254.0</ele><time>2026-03-28T11:04:33.421Z</time></trkpt><trkpt lat="43.6441747" lon="11.6654867"><ele>1251.0</ele><time>2026-03-28T11:04:34.421Z</time></trkpt><trkpt lat="43.6442491" lon="11.6654531"><ele>1248.0</ele><time>2026-03-28T11:04:35.421Z</time></trkpt><trkpt lat="43.6443326" lon="11.6654258"><ele>1248.0</ele><time>2026-03-28T11:04:36.421Z</time></trkpt><trkpt lat="43.6444317" lon="11.6654018"><ele>1248.0</ele><time>2026-03-28T11:04:37.421Z</time></trkpt><trkpt lat="43.644541" lon="11.665375"><ele>1248.0</ele><time>2026-03-28T11:04:38.421Z</time></trkpt><trkpt lat="43.6446774" lon="11.6653401"><ele>1248.0</ele><time>2026-03-28T11:04:39.421Z</time></trkpt><trkpt lat="43.6448017" lon="11.6652532"><ele>1248.25</ele><time>2026-03-28T11:04:40.421Z</time></trkpt><trkpt lat="43.6449116" lon="11.6651447"><ele>1248.5</ele><time>2026-03-28T11:04:41.421Z</time></trkpt><trkpt lat="43.6449973" lon="11.6650227"><ele>1248.75</ele><time>2026-03-28T11:04:42.421Z</time></trkpt><trkpt lat="43.6450532" lon="11.6648693"><ele>1249.0</ele><time>2026-03-28T11:04:43.421Z</time></trkpt><trkpt lat="43.6450832" lon="11.6646878"><ele>1249.0</ele><time>2026-03-28T11:04:44.421Z</time></trkpt><trkpt lat="43.6450876" lon="11.6645174"><ele>1249.0</ele><time>2026-03-28T11:04:45.421Z</time></trkpt><trkpt lat="43.6450771" lon="11.6643544"><ele>1249.0</ele><time>2026-03-28T11:04:46.421Z</time></trkpt><trkpt lat="43.6450405" lon="11.6641711"><ele>1249.0</ele><time>2026-03-28T11:04:47.421Z</time></trkpt><trkpt lat="43.6449874" lon="11.6639874"><ele>1248.0</ele><time>2026-03-28T11:04:48.422Z</time></trkpt><trkpt lat="43.644925" lon="11.66381"><ele>1247.0</ele><time>2026-03-28T11:04:49.421Z</time></trkpt><trkpt lat="43.6448708" lon="11.6636289"><ele>1246.0</ele><time>2026-03-28T11:04:50.421Z</time></trkpt><trkpt lat="43.6448369" lon="11.6634093"><ele>1245.0</ele><time>2026-03-28T11:04:51.421Z</time></trkpt><trkpt lat="43.6448451" lon="11.6632007"><ele>1244.6</ele><time>2026-03-28T11:04:52.421Z</time></trkpt><trkpt lat="43.6448549" lon="11.6630375"><ele>1244.2</ele><time>2026-03-28T11:04:53.421Z</time></trkpt><trkpt lat="43.6448868" lon="11.6629054"><ele>1243.8</ele><time>2026-03-28T11:04:54.421Z</time></trkpt><trkpt lat="43.6449326" lon="11.6627853"><ele>1243.4</ele><time>2026-03-28T11:04:55.421Z</time></trkpt><trkpt lat="43.6450073" lon="11.6627055"><ele>1243.0</ele><time>2026-03-28T11:04:56.421Z</time></trkpt><trkpt lat="43.6451164" lon="11.6626542"><ele>1241.75</ele><time>2026-03-28T11:04:57.421Z</time></trkpt><trkpt lat="43.6452426" lon="11.6626428"><ele>1240.5</ele><time>2026-03-28T11:04:58.421Z</time></trkpt><trkpt lat="43.6453798" lon="11.6626403"><ele>1239.25</ele><time>2026-03-28T11:04:59.421Z</time></trkpt><trkpt lat="43.6455052" lon="11.6626605"><ele>1238.0</ele><time>2026-03-28T11:05:00.421Z</time></trkpt><trkpt lat="43.6456307" lon="11.6627024"><ele>1238.0</ele><time>2026-03-28T11:05:01.421Z</time></trkpt><trkpt lat="43.645739" lon="11.6627547"><ele>1238.0</ele><time>2026-03-28T11:05:02.421Z</time></trkpt><trkpt lat="43.6458292" lon="11.6628086"><ele>1238.0</ele><time>2026-03-28T11:05:03.421Z</time></trkpt><trkpt lat="43.6459097" lon="11.6628578"><ele>1238.0</ele><time>2026-03-28T11:05:04.421Z</time></trkpt><trkpt lat="43.6459749" lon="11.6628887"><ele>1238.0</ele><time>2026-03-28T11:05:05.421Z</time></trkpt><trkpt lat="43.6460449" lon="11.6629261"><ele>1238.0</ele><time>2026-03-28T11:05:06.421Z</time></trkpt><trkpt lat="43.6461111" lon="11.6629358"><ele>1240.6</ele><time>2026-03-28T11:05:07.421Z</time></trkpt><trkpt lat="43.6461854" lon="11.6629106"><ele>1243.1999999999998</ele><time>2026-03-28T11:05:08.421Z</time></trkpt><trkpt lat="43.6462573" lon="11.6628443"><ele>1245.8</ele><time>2026-03-28T11:05:09.421Z</time></trkpt><trkpt lat="43.6463091" lon="11.6627392"><ele>1248.3999999999999</ele><time>2026-03-28T11:05:10.421Z</time></trkpt><trkpt lat="43.6463783" lon="11.6626516"><ele>1251.0</ele><time>2026-03-28T11:05:11.421Z</time></trkpt><trkpt lat="43.6464647" lon="11.6625722"><ele>1251.0</ele><time>2026-03-28T11:05:12.421Z</time></trkpt><trkpt lat="43.6465469" lon="11.6625174"><ele>1251.0</ele><time>2026-03-28T11:05:13.421Z</time></trkpt><trkpt lat="43.6466307" lon="11.6625045"><ele>1251.0</ele><time>2026-03-28T11:05:14.421Z</time></trkpt><trkpt lat="43.6467295" lon="11.6624916"><ele>1251.0</ele><time>2026-03-28T11:05:15.421Z</time></trkpt><trkpt lat="43.6468518" lon="11.6624826"><ele>1251.0</ele><time>2026-03-28T11:05:16.421Z</time></trkpt><trkpt lat="43.6469784" lon="11.6624768"><ele>1254.5</ele><time>2026-03-28T11:05:17.421Z</time></trkpt><trkpt lat="43.6471033" lon="11.6624617"><ele>1258.0</ele><time>2026-03-28T11:05:18.421Z</time></trkpt><trkpt lat="43.6472451" lon="11.6624317"><ele>1261.5</ele><time>2026-03-28T11:05:19.421Z</time></trkpt><trkpt lat="43.6473895" lon="11.6623937"><ele>1265.0</ele><time>2026-03-28T11:05:20.421Z</time></trkpt><trkpt lat="43.6475257" lon="11.6623631"><ele>1265.0</ele><time>2026-03-28T11:05:21.421Z</time></trkpt><trkpt lat="43.6476437" lon="11.6623333"><ele>1265.0</ele><time>2026-03-28T11:05:22.421Z</time></trkpt><trkpt lat="43.6477458" lon="11.6623077"><ele>1265.0</ele><time>2026-03-28T11:05:23.421Z</time></trkpt><trkpt lat="43.6478262" lon="11.6622713"><ele>1265.0</ele><time>2026-03-28T11:05:24.421Z</time></trkpt><trkpt lat="43.6478741" lon="11.6622014"><ele>1265.0</ele><time>2026-03-28T11:05:25.421Z</time></trkpt><trkpt lat="43.6478991" lon="11.6620943"><ele>1260.75</ele><time>2026-03-28T11:05:26.421Z</time></trkpt><trkpt lat="43.6478929" lon="11.661956"><ele>1256.5</ele><time>2026-03-28T11:05:27.421Z</time></trkpt><trkpt lat="43.6478478" lon="11.6618013"><ele>1252.25</ele><time>2026-03-28T11:05:28.421Z</time></trkpt><trkpt lat="43.6478075" lon="11.6616295"><ele>1248.0</ele><time>2026-03-28T11:05:29.421Z</time></trkpt><trkpt lat="43.647773" lon="11.6614478"><ele>1248.0</ele><time>2026-03-28T11:05:30.421Z</time></trkpt><trkpt lat="43.6477336" lon="11.6612483"><ele>1248.0</ele><time>2026-03-28T11:05:31.421Z</time></trkpt><trkpt lat="43.6477029" lon="11.6610583"><ele>1248.0</ele><time>2026-03-28T11:05:32.421Z</time></trkpt><trkpt lat="43.6476918" lon="11.6608749"><ele>1248.0</ele><time>2026-03-28T11:05:33.421Z</time></trkpt><trkpt lat="43.6477151" lon="11.6606921"><ele>1248.0</ele><time>2026-03-28T11:05:34.421Z</time></trkpt><trkpt lat="43.6477872" lon="11.6605043"><ele>1248.0</ele><time>2026-03-28T11:05:35.421Z</time></trkpt><trkpt lat="43.647868" lon="11.6603113"><ele>1248.0</ele><time>2026-03-28T11:05:36.421Z</time></trkpt><trkpt lat="43.6479491" lon="11.6601124"><ele>1264.0</ele><time>2026-03-28T11:05:37.421Z</time></trkpt><trkpt lat="43.6480265" lon="11.6599056"><ele>1280.0</ele><time>2026-03-28T11:05:38.421Z</time></trkpt><trkpt lat="43.6480942" lon="11.6596939"><ele>1296.0</ele><time>2026-03-28T11:05:39.421Z</time></trkpt><trkpt lat="43.6481315" lon="11.6594758"><ele>1294.25</ele><time>2026-03-28T11:05:40.421Z</time></trkpt><trkpt lat="43.6481289" lon="11.6592475"><ele>1292.5</ele><time>2026-03-28T11:05:41.421Z</time></trkpt><trkpt lat="43.6481132" lon="11.6590848"><ele>1290.75</ele><time>2026-03-28T11:05:42.421Z</time></trkpt><trkpt lat="43.6480988" lon="11.6589562"><ele>1289.0</ele><time>2026-03-28T11:05:43.421Z</time></trkpt><trkpt lat="43.648086" lon="11.6588266"><ele>1289.0</ele><time>2026-03-28T11:05:44.421Z</time></trkpt><trkpt lat="43.6480531" lon="11.6586849"><ele>1289.0</ele><time>2026-03-28T11:05:45.421Z</time></trkpt><trkpt lat="43.6480278" lon="11.6585729"><ele>1289.0</ele><time>2026-03-28T11:05:46.421Z</time></trkpt><trkpt lat="43.6480024" lon="11.6584494"><ele>1289.0</ele><time>2026-03-28T11:05:47.421Z</time></trkpt><trkpt lat="43.6479886" lon="11.6583308"><ele>1289.0</ele><time>2026-03-28T11:05:48.421Z</time></trkpt><trkpt lat="43.6479804" lon="11.6582124"><ele>1289.3333333333335</ele><time>2026-03-28T11:05:49.421Z</time></trkpt><trkpt lat="43.6479889" lon="11.6580914"><ele>1289.6666666666667</ele><time>2026-03-28T11:05:50.421Z</time></trkpt><trkpt lat="43.648013" lon="11.6579642"><ele>1290.0</ele><time>2026-03-28T11:05:51.421Z</time></trkpt><trkpt lat="43.6480473" lon="11.6578491"><ele>1290.3333333333333</ele><time>2026-03-28T11:05:52.421Z</time></trkpt><trkpt lat="43.6481014" lon="11.6577492"><ele>1290.6666666666665</ele><time>2026-03-28T11:05:53.421Z</time></trkpt><trkpt lat="43.6481546" lon="11.6576705"><ele>1291.0</ele><time>2026-03-28T11:05:54.421Z</time></trkpt><trkpt lat="43.6482219" lon="11.6576083"><ele>1288.8333333333333</ele><time>2026-03-28T11:05:55.421Z</time></trkpt><trkpt lat="43.6482869" lon="11.6575441"><ele>1286.6666666666665</ele><time>2026-03-28T11:05:56.421Z</time></trkpt><trkpt lat="43.6483571" lon="11.6574836"><ele>1284.5</ele><time>2026-03-28T11:05:57.421Z</time></trkpt><trkpt lat="43.6484228" lon="11.6574288"><ele>1282.3333333333333</ele><time>2026-03-28T11:05:58.421Z</time></trkpt><trkpt lat="43.6485225" lon="11.6573628"><ele>1280.1666666666667</ele><time>2026-03-28T11:06:00.421Z</time></trkpt><trkpt lat="43.6485961" lon="11.6572817"><ele>1278.0</ele><time>2026-03-28T11:06:02.421Z</time></trkpt><trkpt lat="43.6486725" lon="11.6572327"><ele>1280.2857142857144</ele><time>2026-03-28T11:06:04.421Z</time></trkpt><trkpt lat="43.6487438" lon="11.6571614"><ele>1282.5714285714287</ele><time>2026-03-28T11:06:07.421Z</time></trkpt><trkpt lat="43.6488108" lon="11.6570924"><ele>1284.857142857143</ele><time>2026-03-28T11:06:11.421Z</time></trkpt><trkpt lat="43.6488736" lon="11.6570406"><ele>1287.1428571428573</ele><time>2026-03-28T11:06:15.421Z</time></trkpt><trkpt lat="43.6489278" lon="11.656987"><ele>1289.4285714285716</ele><time>2026-03-28T11:06:38.421Z</time></trkpt><trkpt lat="43.6489839" lon="11.6569337"><ele>1291.7142857142858</ele><time>2026-03-28T11:06:41.421Z</time></trkpt><trkpt lat="43.6490369" lon="11.6568817"><ele>1294.0</ele><time>2026-03-28T11:06:43.421Z</time></trkpt><trkpt lat="43.6491152" lon="11.6568186"><ele>1294.0</ele><time>2026-03-28T11:06:45.421Z</time></trkpt><trkpt lat="43.6491737" lon="11.6567598"><ele>1294.0</ele><time>2026-03-28T11:06:47.422Z</time></trkpt><trkpt lat="43.6492299" lon="11.6567008"><ele>1294.0</ele><time>2026-03-28T11:06:49.421Z</time></trkpt><trkpt lat="43.6492869" lon="11.6566463"><ele>1294.0</ele><time>2026-03-28T11:06:51.421Z</time></trkpt><trkpt lat="43.6493438" lon="11.6565628"><ele>1294.0</ele><time>2026-03-28T11:06:53.421Z</time></trkpt><trkpt lat="43.6493907" lon="11.6564579"><ele>1294.0</ele><time>2026-03-28T11:06:55.421Z</time></trkpt><trkpt lat="43.6494177" lon="11.6563746"><ele>1294.0</ele><time>2026-03-28T11:06:57.421Z</time></trkpt><trkpt lat="43.6494214" lon="11.6562827"><ele>1294.0</ele><time>2026-03-28T11:07:02.421Z</time></trkpt><trkpt lat="43.649464" lon="11.656168"><ele>1294.0</ele><time>2026-03-28T11:07:06.421Z</time></trkpt><trkpt lat="43.6495064" lon="11.6560686"><ele>1294.0</ele><time>2026-03-28T11:07:08.421Z</time></trkpt><trkpt lat="43.649548" lon="11.6559678"><ele>1294.0</ele><time>2026-03-28T11:07:10.421Z</time></trkpt><trkpt lat="43.6495837" lon="11.6558839"><ele>1294.0</ele><time>2026-03-28T11:07:12.421Z</time></trkpt><trkpt lat="43.6496087" lon="11.6557979"><ele>1298.1666666666665</ele><time>2026-03-28T11:07:14.421Z</time></trkpt><trkpt lat="43.6496434" lon="11.6556953"><ele>1302.3333333333333</ele><time>2026-03-28T11:07:16.422Z</time></trkpt><trkpt lat="43.6496683" lon="11.6556018"><ele>1306.5</ele><time>2026-03-28T11:07:18.422Z</time></trkpt><trkpt lat="43.6496949" lon="11.6554693"><ele>1310.6666666666667</ele><time>2026-03-28T11:07:21.422Z</time></trkpt><trkpt lat="43.6496885" lon="11.6553809"><ele>1314.8333333333335</ele><time>2026-03-28T11:07:23.422Z</time></trkpt><trkpt lat="43.6496849" lon="11.6552904"><ele>1319.0</ele><time>2026-03-28T11:07:33.422Z</time></trkpt><trkpt lat="43.6496224" lon="11.6552079"><ele>1318.9999999999998</ele><time>2026-03-28T11:07:36.422Z</time></trkpt><trkpt lat="43.6496174" lon="11.655113"><ele>1319.0</ele><time>2026-03-28T11:10:52.422Z</time></trkpt><trkpt lat="43.6495554" lon="11.6550518"><ele>1319.0</ele><time>2026-03-28T11:10:55.422Z</time></trkpt><trkpt lat="43.6494984" lon="11.6550002"><ele>1319.0</ele><time>2026-03-28T11:10:58.422Z</time></trkpt><trkpt lat="43.6494316" lon="11.6549188"><ele>1319.0</ele><time>2026-03-28T11:11:01.422Z</time></trkpt><trkpt lat="43.6493798" lon="11.654858"><ele>1318.9999999999998</ele><time>2026-03-28T11:11:04.422Z</time></trkpt><trkpt lat="43.6494289" lon="11.6549148"><ele>1319.0</ele><time>2026-03-28T11:11:45.422Z</time></trkpt><trkpt lat="43.6494836" lon="11.6549746"><ele>1318.9999999999998</ele><time>2026-03-28T11:11:50.422Z</time></trkpt><trkpt lat="43.6495345" lon="11.6550377"><ele>1319.0</ele><time>2026-03-28T11:11:54.422Z</time></trkpt><trkpt lat="43.6495705" lon="11.655114"><ele>1319.0</ele><time>2026-03-28T11:11:58.422Z</time></trkpt><trkpt lat="43.6496121" lon="11.6552019"><ele>1319.0</ele><time>2026-03-28T11:12:04.422Z</time></trkpt><trkpt lat="43.6496596" lon="11.6552854"><ele>1319.0</ele><time>2026-03-28T11:12:08.423Z</time></trkpt><trkpt lat="43.6496839" lon="11.6553823"><ele>1318.9999999999998</ele><time>2026-03-28T11:12:13.422Z</time></trkpt><trkpt lat="43.6496928" lon="11.6554829"><ele>1319.0</ele><time>2026-03-28T11:12:18.422Z</time></trkpt><trkpt lat="43.649679" lon="11.6555705"><ele>1319.4285714285713</ele><time>2026-03-28T11:12:21.422Z</time></trkpt><trkpt lat="43.6496501" lon="11.655666"><ele>1319.857142857143</ele><time>2026-03-28T11:12:24.422Z</time></trkpt><trkpt lat="43.6496214" lon="11.6557529"><ele>1320.2857142857142</ele><time>2026-03-28T11:12:28.422Z</time></trkpt><trkpt lat="43.6495943" lon="11.6558375"><ele>1320.7142857142858</ele><time>2026-03-28T11:12:31.422Z</time></trkpt><trkpt lat="43.6495615" lon="11.6559281"><ele>1321.142857142857</ele><time>2026-03-28T11:12:34.422Z</time></trkpt><trkpt lat="43.6495218" lon="11.6560258"><ele>1321.5714285714284</ele><time>2026-03-28T11:12:37.422Z</time></trkpt><trkpt lat="43.6494899" lon="11.6561268"><ele>1322.0</ele><time>2026-03-28T11:12:42.422Z</time></trkpt><trkpt lat="43.6494674" lon="11.6562119"><ele>1318.0</ele><time>2026-03-28T11:12:46.422Z</time></trkpt><trkpt lat="43.6494367" lon="11.6563081"><ele>1314.0</ele><time>2026-03-28T11:12:52.422Z</time></trkpt><trkpt lat="43.6494063" lon="11.6564046"><ele>1310.0</ele><time>2026-03-28T11:12:55.422Z</time></trkpt><trkpt lat="43.6493656" lon="11.6564877"><ele>1306.0</ele><time>2026-03-28T11:12:58.422Z</time></trkpt><trkpt lat="43.6493322" lon="11.6565808"><ele>1302.0</ele><time>2026-03-28T11:13:01.422Z</time></trkpt><trkpt lat="43.6492791" lon="11.6566688"><ele>1298.0</ele><time>2026-03-28T11:13:04.422Z</time></trkpt><trkpt lat="43.6492319" lon="11.6567295"><ele>1294.0</ele><time>2026-03-28T11:13:06.422Z</time></trkpt><trkpt lat="43.6491763" lon="11.6567822"><ele>1294.0</ele><time>2026-03-28T11:13:08.423Z</time></trkpt><trkpt lat="43.6491088" lon="11.6568538"><ele>1294.0</ele><time>2026-03-28T11:13:11.422Z</time></trkpt><trkpt lat="43.6490525" lon="11.656918"><ele>1294.0</ele><time>2026-03-28T11:13:14.422Z</time></trkpt><trkpt lat="43.6489774" lon="11.6569838"><ele>1294.0</ele><time>2026-03-28T11:13:18.422Z</time></trkpt><trkpt lat="43.6489155" lon="11.657031"><ele>1294.0</ele><time>2026-03-28T11:13:21.422Z</time></trkpt><trkpt lat="43.6488526" lon="11.6570851"><ele>1294.0</ele><time>2026-03-28T11:13:24.422Z</time></trkpt><trkpt lat="43.6487879" lon="11.6571512"><ele>1291.3333333333333</ele><time>2026-03-28T11:13:27.422Z</time></trkpt><trkpt lat="43.6487236" lon="11.6571953"><ele>1288.6666666666665</ele><time>2026-03-28T11:13:29.422Z</time></trkpt><trkpt lat="43.6486361" lon="11.6572562"><ele>1286.0</ele><time>2026-03-28T11:13:31.422Z</time></trkpt><trkpt lat="43.6485736" lon="11.6572915"><ele>1283.3333333333333</ele><time>2026-03-28T11:13:32.422Z</time></trkpt><trkpt lat="43.6485133" lon="11.6573435"><ele>1280.6666666666667</ele><time>2026-03-28T11:13:33.422Z</time></trkpt><trkpt lat="43.6484496" lon="11.6573924"><ele>1278.0</ele><time>2026-03-28T11:13:34.422Z</time></trkpt><trkpt lat="43.6483915" lon="11.6574511"><ele>1278.0000000000002</ele><time>2026-03-28T11:13:35.422Z</time></trkpt><trkpt lat="43.648326" lon="11.6575013"><ele>1278.0</ele><time>2026-03-28T11:13:36.422Z</time></trkpt><trkpt lat="43.6482605" lon="11.6575553"><ele>1278.0</ele><time>2026-03-28T11:13:37.422Z</time></trkpt><trkpt lat="43.6482058" lon="11.6576026"><ele>1278.0</ele><time>2026-03-28T11:13:38.422Z</time></trkpt><trkpt lat="43.6481563" lon="11.6576594"><ele>1278.0</ele><time>2026-03-28T11:13:39.422Z</time></trkpt><trkpt lat="43.6481054" lon="11.6577192"><ele>1278.0000000000002</ele><time>2026-03-28T11:13:40.422Z</time></trkpt><trkpt lat="43.6480554" lon="11.6578063"><ele>1278.0</ele><time>2026-03-28T11:13:41.422Z</time></trkpt><trkpt lat="43.648018" lon="11.6579186"><ele>1280.2</ele><time>2026-03-28T11:13:42.422Z</time></trkpt><trkpt lat="43.6479887" lon="11.6580528"><ele>1282.4</ele><time>2026-03-28T11:13:43.422Z</time></trkpt><trkpt lat="43.6479869" lon="11.6581968"><ele>1284.6000000000001</ele><time>2026-03-28T11:13:44.422Z</time></trkpt><trkpt lat="43.6479961" lon="11.6583484"><ele>1286.8</ele><time>2026-03-28T11:13:45.422Z</time></trkpt><trkpt lat="43.648023" lon="11.658519"><ele>1289.0</ele><time>2026-03-28T11:13:46.422Z</time></trkpt><trkpt lat="43.6480562" lon="11.6586879"><ele>1289.0</ele><time>2026-03-28T11:13:47.422Z</time></trkpt><trkpt lat="43.6480862" lon="11.6588471"><ele>1289.0</ele><time>2026-03-28T11:13:48.422Z</time></trkpt><trkpt lat="43.6481008" lon="11.6590037"><ele>1289.0</ele><time>2026-03-28T11:13:49.422Z</time></trkpt><trkpt lat="43.6481187" lon="11.6591529"><ele>1289.0</ele><time>2026-03-28T11:13:50.422Z</time></trkpt><trkpt lat="43.6481338" lon="11.6593013"><ele>1289.0</ele><time>2026-03-28T11:13:51.422Z</time></trkpt><trkpt lat="43.6481433" lon="11.6594461"><ele>1289.0</ele><time>2026-03-28T11:13:52.422Z</time></trkpt><trkpt lat="43.6481412" lon="11.6595856"><ele>1289.0</ele><time>2026-03-28T11:13:53.422Z</time></trkpt><trkpt lat="43.6481198" lon="11.6597331"><ele>1289.0</ele><time>2026-03-28T11:13:54.422Z</time></trkpt><trkpt lat="43.6480758" lon="11.6598855"><ele>1289.0</ele><time>2026-03-28T11:13:55.422Z</time></trkpt><trkpt lat="43.6480109" lon="11.6600362"><ele>1290.75</ele><time>2026-03-28T11:13:56.422Z</time></trkpt><trkpt lat="43.6479522" lon="11.6601766"><ele>1292.5</ele><time>2026-03-28T11:13:57.422Z</time></trkpt><trkpt lat="43.6478903" lon="11.6603182"><ele>1294.25</ele><time>2026-03-28T11:13:58.422Z</time></trkpt><trkpt lat="43.6478221" lon="11.6604498"><ele>1296.0</ele><time>2026-03-28T11:13:59.422Z</time></trkpt><trkpt lat="43.6477609" lon="11.6605798"><ele>1284.0</ele><time>2026-03-28T11:14:00.422Z</time></trkpt><trkpt lat="43.6477133" lon="11.6607075"><ele>1272.0</ele><time>2026-03-28T11:14:01.422Z</time></trkpt><trkpt lat="43.6476825" lon="11.6608393"><ele>1260.0</ele><time>2026-03-28T11:14:02.422Z</time></trkpt><trkpt lat="43.6476824" lon="11.6610012"><ele>1248.0</ele><time>2026-03-28T11:14:03.422Z</time></trkpt><trkpt lat="43.6477127" lon="11.6611749"><ele>1248.0</ele><time>2026-03-28T11:14:04.422Z</time></trkpt><trkpt lat="43.6477391" lon="11.6613335"><ele>1248.0</ele><time>2026-03-28T11:14:05.422Z</time></trkpt><trkpt lat="43.647776" lon="11.6614868"><ele>1248.0</ele><time>2026-03-28T11:14:06.422Z</time></trkpt><trkpt lat="43.6478089" lon="11.6616285"><ele>1248.0</ele><time>2026-03-28T11:14:07.422Z</time></trkpt><trkpt lat="43.6478493" lon="11.6617652"><ele>1248.0</ele><time>2026-03-28T11:14:08.422Z</time></trkpt><trkpt lat="43.6478833" lon="11.6618892"><ele>1250.8333333333333</ele><time>2026-03-28T11:14:09.422Z</time></trkpt><trkpt lat="43.6479224" lon="11.6620007"><ele>1253.6666666666667</ele><time>2026-03-28T11:14:10.422Z</time></trkpt><trkpt lat="43.6479223" lon="11.662101"><ele>1256.5</ele><time>2026-03-28T11:14:11.422Z</time></trkpt><trkpt lat="43.6478618" lon="11.6621647"><ele>1259.3333333333335</ele><time>2026-03-28T11:14:12.422Z</time></trkpt><trkpt lat="43.6477967" lon="11.6622344"><ele>1262.1666666666667</ele><time>2026-03-28T11:14:13.422Z</time></trkpt><trkpt lat="43.6477147" lon="11.6622792"><ele>1265.0</ele><time>2026-03-28T11:14:14.422Z</time></trkpt><trkpt lat="43.6476093" lon="11.6623142"><ele>1265.0</ele><time>2026-03-28T11:14:15.422Z</time></trkpt><trkpt lat="43.6474774" lon="11.6623448"><ele>1265.0</ele><time>2026-03-28T11:14:16.422Z</time></trkpt><trkpt lat="43.6473277" lon="11.6623916"><ele>1265.0</ele><time>2026-03-28T11:14:17.422Z</time></trkpt><trkpt lat="43.6471773" lon="11.6624382"><ele>1265.0</ele><time>2026-03-28T11:14:18.422Z</time></trkpt><trkpt lat="43.6470272" lon="11.662463"><ele>1261.5</ele><time>2026-03-28T11:14:19.422Z</time></trkpt><trkpt lat="43.646895" lon="11.6624791"><ele>1258.0</ele><time>2026-03-28T11:14:20.422Z</time></trkpt><trkpt lat="43.6467663" lon="11.6624822"><ele>1254.5</ele><time>2026-03-28T11:14:21.422Z</time></trkpt><trkpt lat="43.6466503" lon="11.66248"><ele>1251.0</ele><time>2026-03-28T11:14:22.422Z</time></trkpt><trkpt lat="43.6465482" lon="11.662493"><ele>1251.0</ele><time>2026-03-28T11:14:23.422Z</time></trkpt><trkpt lat="43.6464452" lon="11.6625558"><ele>1251.0</ele><time>2026-03-28T11:14:24.422Z</time></trkpt><trkpt lat="43.6463605" lon="11.6626606"><ele>1251.0</ele><time>2026-03-28T11:14:25.422Z</time></trkpt><trkpt lat="43.646287" lon="11.6627733"><ele>1251.0</ele><time>2026-03-28T11:14:26.422Z</time></trkpt><trkpt lat="43.6462135" lon="11.6628831"><ele>1251.0</ele><time>2026-03-28T11:14:27.422Z</time></trkpt><trkpt lat="43.6461356" lon="11.6629497"><ele>1248.3999999999999</ele><time>2026-03-28T11:14:28.422Z</time></trkpt><trkpt lat="43.646044" lon="11.6629407"><ele>1245.8</ele><time>2026-03-28T11:14:29.422Z</time></trkpt><trkpt lat="43.6459428" lon="11.6628959"><ele>1243.1999999999998</ele><time>2026-03-28T11:14:30.422Z</time></trkpt><trkpt lat="43.6458388" lon="11.6628416"><ele>1240.6</ele><time>2026-03-28T11:14:31.422Z</time></trkpt><trkpt lat="43.6457273" lon="11.6627639"><ele>1238.0</ele><time>2026-03-28T11:14:32.422Z</time></trkpt><trkpt lat="43.6456163" lon="11.6626905"><ele>1238.0</ele><time>2026-03-28T11:14:33.422Z</time></trkpt><trkpt lat="43.6454953" lon="11.6626245"><ele>1238.0</ele><time>2026-03-28T11:14:34.422Z</time></trkpt><trkpt lat="43.6453698" lon="11.6625946"><ele>1238.0</ele><time>2026-03-28T11:14:35.422Z</time></trkpt><trkpt lat="43.6452367" lon="11.6625833"><ele>1238.0</ele><time>2026-03-28T11:14:36.422Z</time></trkpt><trkpt lat="43.645112" lon="11.6625916"><ele>1239.0</ele><time>2026-03-28T11:14:37.422Z</time></trkpt><trkpt lat="43.6449965" lon="11.6626204"><ele>1240.0</ele><time>2026-03-28T11:14:38.422Z</time></trkpt><trkpt lat="43.6449144" lon="11.6626988"><ele>1241.0</ele><time>2026-03-28T11:14:39.422Z</time></trkpt><trkpt lat="43.6448724" lon="11.6628113"><ele>1242.0</ele><time>2026-03-28T11:14:40.422Z</time></trkpt><trkpt lat="43.6448562" lon="11.6629523"><ele>1243.0</ele><time>2026-03-28T11:14:41.422Z</time></trkpt><trkpt lat="43.6448485" lon="11.6631205"><ele>1243.0</ele><time>2026-03-28T11:14:42.422Z</time></trkpt><trkpt lat="43.6448484" lon="11.66329"><ele>1243.0</ele><time>2026-03-28T11:14:43.422Z</time></trkpt><trkpt lat="43.6448454" lon="11.6634563"><ele>1243.0</ele><time>2026-03-28T11:14:44.422Z</time></trkpt><trkpt lat="43.6448586" lon="11.6636158"><ele>1243.0</ele><time>2026-03-28T11:14:45.422Z</time></trkpt><trkpt lat="43.6448988" lon="11.6637788"><ele>1243.5</ele><time>2026-03-28T11:14:46.422Z</time></trkpt><trkpt lat="43.6449493" lon="11.6639396"><ele>1244.0</ele><time>2026-03-28T11:14:47.422Z</time></trkpt><trkpt lat="43.6450222" lon="11.6640985"><ele>1244.5</ele><time>2026-03-28T11:14:48.422Z</time></trkpt><trkpt lat="43.6450763" lon="11.6642441"><ele>1245.0</ele><time>2026-03-28T11:14:49.422Z</time></trkpt><trkpt lat="43.6451042" lon="11.6643898"><ele>1245.8</ele><time>2026-03-28T11:14:50.422Z</time></trkpt><trkpt lat="43.6451141" lon="11.6645309"><ele>1246.6</ele><time>2026-03-28T11:14:51.422Z</time></trkpt><trkpt lat="43.6451091" lon="11.6646759"><ele>1247.4</ele><time>2026-03-28T11:14:52.422Z</time></trkpt><trkpt lat="43.6450917" lon="11.664817"><ele>1248.2</ele><time>2026-03-28T11:14:53.422Z</time></trkpt><trkpt lat="43.6450547" lon="11.6649588"><ele>1249.0</ele><time>2026-03-28T11:14:54.422Z</time></trkpt><trkpt lat="43.644987" lon="11.6650815"><ele>1249.0</ele><time>2026-03-28T11:14:55.422Z</time></trkpt><trkpt lat="43.6449032" lon="11.6651904"><ele>1249.0</ele><time>2026-03-28T11:14:56.422Z</time></trkpt><trkpt lat="43.6448035" lon="11.6652932"><ele>1249.0</ele><time>2026-03-28T11:14:57.422Z</time></trkpt><trkpt lat="43.6446809" lon="11.6653717"><ele>1249.0</ele><time>2026-03-28T11:14:58.422Z</time></trkpt><trkpt lat="43.6445497" lon="11.6654177"><ele>1248.8</ele><time>2026-03-28T11:14:59.422Z</time></trkpt><trkpt lat="43.6444233" lon="11.6654529"><ele>1248.6000000000001</ele><time>2026-03-28T11:15:00.422Z</time></trkpt><trkpt lat="43.6443164" lon="11.6654847"><ele>1248.4</ele><time>2026-03-28T11:15:01.422Z</time></trkpt><trkpt lat="43.6442396" lon="11.665511"><ele>1248.2</ele><time>2026-03-28T11:15:02.422Z</time></trkpt><trkpt lat="43.6441379" lon="11.6655878"><ele>1248.0</ele><time>2026-03-28T11:15:04.422Z</time></trkpt><trkpt lat="43.6440799" lon="11.6656524"><ele>1248.0</ele><time>2026-03-28T11:15:05.422Z</time></trkpt><trkpt lat="43.6440285" lon="11.6657452"><ele>1248.0</ele><time>2026-03-28T11:15:06.422Z</time></trkpt><trkpt lat="43.6439836" lon="11.6658799"><ele>1248.0</ele><time>2026-03-28T11:15:07.422Z</time></trkpt><trkpt lat="43.6439493" lon="11.6660369"><ele>1248.0</ele><time>2026-03-28T11:15:08.422Z</time></trkpt><trkpt lat="43.643922" lon="11.6662051"><ele>1248.0</ele><time>2026-03-28T11:15:09.422Z</time></trkpt><trkpt lat="43.6438954" lon="11.6664021"><ele>1252.5</ele><time>2026-03-28T11:15:10.422Z</time></trkpt><trkpt lat="43.6438662" lon="11.6665984"><ele>1257.0</ele><time>2026-03-28T11:15:11.422Z</time></trkpt><trkpt lat="43.6438439" lon="11.666804"><ele>1261.5</ele><time>2026-03-28T11:15:12.422Z</time></trkpt><trkpt lat="43.6438186" lon="11.6669949"><ele>1266.0</ele><time>2026-03-28T11:15:13.422Z</time></trkpt><trkpt lat="43.6438036" lon="11.667168"><ele>1267.3999999999999</ele><time>2026-03-28T11:15:14.422Z</time></trkpt><trkpt lat="43.6437982" lon="11.6673347"><ele>1268.8</ele><time>2026-03-28T11:15:15.422Z</time></trkpt><trkpt lat="43.6437741" lon="11.6674758"><ele>1270.1999999999998</ele><time>2026-03-28T11:15:16.422Z</time></trkpt><trkpt lat="43.643738" lon="11.6675931"><ele>1271.6</ele><time>2026-03-28T11:15:17.422Z</time></trkpt><trkpt lat="43.6436791" lon="11.6676666"><ele>1273.0</ele><time>2026-03-28T11:15:18.422Z</time></trkpt><trkpt lat="43.6435999" lon="11.6677046"><ele>1268.0</ele><time>2026-03-28T11:15:19.422Z</time></trkpt><trkpt lat="43.6435304" lon="11.6677061"><ele>1263.0</ele><time>2026-03-28T11:15:20.422Z</time></trkpt><trkpt lat="43.643449" lon="11.6676835"><ele>1258.0</ele><time>2026-03-28T11:15:21.422Z</time></trkpt><trkpt lat="43.6433642" lon="11.6676321"><ele>1253.0</ele><time>2026-03-28T11:15:22.422Z</time></trkpt><trkpt lat="43.6432748" lon="11.6675716"><ele>1248.0</ele><time>2026-03-28T11:15:23.422Z</time></trkpt><trkpt lat="43.6431667" lon="11.6674901"><ele>1248.0</ele><time>2026-03-28T11:15:24.422Z</time></trkpt><trkpt lat="43.6430429" lon="11.6673983"><ele>1248.0</ele><time>2026-03-28T11:15:25.422Z</time></trkpt><trkpt lat="43.6429097" lon="11.6672943"><ele>1248.0</ele><time>2026-03-28T11:15:26.422Z</time></trkpt><trkpt lat="43.6427789" lon="11.6671863"><ele>1248.0</ele><time>2026-03-28T11:15:27.422Z</time></trkpt><trkpt lat="43.6426612" lon="11.6671031"><ele>1247.25</ele><time>2026-03-28T11:15:28.422Z</time></trkpt><trkpt lat="43.6425457" lon="11.6670304"><ele>1246.5</ele><time>2026-03-28T11:15:29.422Z</time></trkpt><trkpt lat="43.6424387" lon="11.6669505"><ele>1245.75</ele><time>2026-03-28T11:15:30.422Z</time></trkpt><trkpt lat="43.6423548" lon="11.6668453"><ele>1245.0</ele><time>2026-03-28T11:15:31.422Z</time></trkpt><trkpt lat="43.6422925" lon="11.6667124"><ele>1245.0</ele><time>2026-03-28T11:15:32.422Z</time></trkpt><trkpt lat="43.6422585" lon="11.6665476"><ele>1245.0</ele><time>2026-03-28T11:15:33.422Z</time></trkpt><trkpt lat="43.6422394" lon="11.6663927"><ele>1245.0</ele><time>2026-03-28T11:15:34.422Z</time></trkpt><trkpt lat="43.6422083" lon="11.6662787"><ele>1245.0</ele><time>2026-03-28T11:15:35.422Z</time></trkpt><trkpt lat="43.6421582" lon="11.6662058"><ele>1245.0</ele><time>2026-03-28T11:15:36.422Z</time></trkpt><trkpt lat="43.6420899" lon="11.6661306"><ele>1248.5</ele><time>2026-03-28T11:15:37.422Z</time></trkpt><trkpt lat="43.6419975" lon="11.6660376"><ele>1252.0</ele><time>2026-03-28T11:15:38.422Z</time></trkpt><trkpt lat="43.6418937" lon="11.6659391"><ele>1255.5</ele><time>2026-03-28T11:15:39.422Z</time></trkpt><trkpt lat="43.6418034" lon="11.6658223"><ele>1259.0</ele><time>2026-03-28T11:15:40.422Z</time></trkpt><trkpt lat="43.6417262" lon="11.6656794"><ele>1259.0</ele><time>2026-03-28T11:15:41.422Z</time></trkpt><trkpt lat="43.6416455" lon="11.6655372"><ele>1259.0</ele><time>2026-03-28T11:15:42.422Z</time></trkpt><trkpt lat="43.6415497" lon="11.665416"><ele>1259.0</ele><time>2026-03-28T11:15:43.422Z</time></trkpt><trkpt lat="43.6414292" lon="11.6652992"><ele>1259.0</ele><time>2026-03-28T11:15:44.422Z</time></trkpt><trkpt lat="43.6412751" lon="11.6652102"><ele>1259.6666666666667</ele><time>2026-03-28T11:15:45.422Z</time></trkpt><trkpt lat="43.641129" lon="11.6651355"><ele>1260.3333333333333</ele><time>2026-03-28T11:15:46.422Z</time></trkpt><trkpt lat="43.640996" lon="11.6650485"><ele>1261.0</ele><time>2026-03-28T11:15:47.422Z</time></trkpt><trkpt lat="43.6408697" lon="11.6649449"><ele>1261.0</ele><time>2026-03-28T11:15:48.422Z</time></trkpt><trkpt lat="43.6407551" lon="11.664795"><ele>1261.0</ele><time>2026-03-28T11:15:49.422Z</time></trkpt><trkpt lat="43.6406735" lon="11.6646334"><ele>1261.0</ele><time>2026-03-28T11:15:50.422Z</time></trkpt><trkpt lat="43.6406011" lon="11.6644683"><ele>1261.0</ele><time>2026-03-28T11:15:51.422Z</time></trkpt><trkpt lat="43.640537" lon="11.6642998"><ele>1262.6666666666665</ele><time>2026-03-28T11:15:52.422Z</time></trkpt><trkpt lat="43.6404448" lon="11.6641518"><ele>1264.3333333333333</ele><time>2026-03-28T11:15:53.422Z</time></trkpt><trkpt lat="43.6403164" lon="11.6640314"><ele>1266.0</ele><time>2026-03-28T11:15:54.422Z</time></trkpt><trkpt lat="43.640168" lon="11.6638903"><ele>1266.0</ele><time>2026-03-28T11:15:55.422Z</time></trkpt><trkpt lat="43.6400307" lon="11.6637747"><ele>1266.0</ele><time>2026-03-28T11:15:56.422Z</time></trkpt><trkpt lat="43.6399128" lon="11.6636679"><ele>1266.0</ele><time>2026-03-28T11:15:57.422Z</time></trkpt><trkpt lat="43.6398165" lon="11.6635728"><ele>1266.0</ele><time>2026-03-28T11:15:58.422Z</time></trkpt><trkpt lat="43.6397174" lon="11.6635024"><ele>1265.0</ele><time>2026-03-28T11:15:59.422Z</time></trkpt><trkpt lat="43.6396149" lon="11.6634963"><ele>1264.0</ele><time>2026-03-28T11:16:00.422Z</time></trkpt><trkpt lat="43.6395141" lon="11.6635717"><ele>1263.0</ele><time>2026-03-28T11:16:01.422Z</time></trkpt><trkpt lat="43.6394114" lon="11.6636985"><ele>1262.0</ele><time>2026-03-28T11:16:02.422Z</time></trkpt><trkpt lat="43.6393196" lon="11.6638198"><ele>1262.0</ele><time>2026-03-28T11:16:03.422Z</time></trkpt><trkpt lat="43.6392184" lon="11.6639376"><ele>1262.0</ele><time>2026-03-28T11:16:04.422Z</time></trkpt><trkpt lat="43.6390969" lon="11.6640102"><ele>1262.0</ele><time>2026-03-28T11:16:05.422Z</time></trkpt><trkpt lat="43.6389699" lon="11.6640358"><ele>1262.0</ele><time>2026-03-28T11:16:06.422Z</time></trkpt><trkpt lat="43.6388521" lon="11.6640293"><ele>1262.0</ele><time>2026-03-28T11:16:07.422Z</time></trkpt><trkpt lat="43.6387376" lon="11.6640059"><ele>1262.0</ele><time>2026-03-28T11:16:08.422Z</time></trkpt><trkpt lat="43.6386146" lon="11.6639846"><ele>1262.0</ele><time>2026-03-28T11:16:09.422Z</time></trkpt><trkpt lat="43.6385045" lon="11.6639564"><ele>1262.0</ele><time>2026-03-28T11:16:10.422Z</time></trkpt><trkpt lat="43.6384009" lon="11.6639281"><ele>1259.5</ele><time>2026-03-28T11:16:11.422Z</time></trkpt><trkpt lat="43.6382901" lon="11.6639447"><ele>1257.0</ele><time>2026-03-28T11:16:12.422Z</time></trkpt><trkpt lat="43.6381829" lon="11.6640637"><ele>1254.5</ele><time>2026-03-28T11:16:13.422Z</time></trkpt><trkpt lat="43.638089" lon="11.6642051"><ele>1252.0</ele><time>2026-03-28T11:16:14.422Z</time></trkpt><trkpt lat="43.6380078" lon="11.6643489"><ele>1254.6</ele><time>2026-03-28T11:16:15.422Z</time></trkpt><trkpt lat="43.6379318" lon="11.664486"><ele>1257.2</ele><time>2026-03-28T11:16:16.422Z</time></trkpt><trkpt lat="43.6378764" lon="11.6646074"><ele>1259.8</ele><time>2026-03-28T11:16:17.422Z</time></trkpt><trkpt lat="43.6378501" lon="11.6647398"><ele>1262.4</ele><time>2026-03-28T11:16:18.422Z</time></trkpt><trkpt lat="43.637856" lon="11.6648745"><ele>1265.0</ele><time>2026-03-28T11:16:19.422Z</time></trkpt><trkpt lat="43.6378833" lon="11.6650177"><ele>1265.0</ele><time>2026-03-28T11:16:20.422Z</time></trkpt><trkpt lat="43.6379422" lon="11.6651768"><ele>1265.0</ele><time>2026-03-28T11:16:21.422Z</time></trkpt><trkpt lat="43.6380233" lon="11.6653484"><ele>1265.0</ele><time>2026-03-28T11:16:22.422Z</time></trkpt><trkpt lat="43.6381148" lon="11.6655526"><ele>1261.6666666666667</ele><time>2026-03-28T11:16:23.422Z</time></trkpt><trkpt lat="43.6382188" lon="11.6657813"><ele>1258.3333333333333</ele><time>2026-03-28T11:16:24.422Z</time></trkpt><trkpt lat="43.6383228" lon="11.666012"><ele>1255.0</ele><time>2026-03-28T11:16:25.422Z</time></trkpt><trkpt lat="43.6384094" lon="11.6662428"><ele>1252.0</ele><time>2026-03-28T11:16:26.422Z</time></trkpt><trkpt lat="43.6384661" lon="11.6664867"><ele>1249.0</ele><time>2026-03-28T11:16:27.422Z</time></trkpt><trkpt lat="43.638531" lon="11.6667663"><ele>1246.0</ele><time>2026-03-28T11:16:28.422Z</time></trkpt><trkpt lat="43.6385915" lon="11.6670424"><ele>1263.0</ele><time>2026-03-28T11:16:29.422Z</time></trkpt><trkpt lat="43.6386466" lon="11.6673476"><ele>1280.0</ele><time>2026-03-28T11:16:30.422Z</time></trkpt><trkpt lat="43.6387031" lon="11.6676629"><ele>1276.0</ele><time>2026-03-28T11:16:31.422Z</time></trkpt><trkpt lat="43.6387536" lon="11.6679714"><ele>1272.0</ele><time>2026-03-28T11:16:32.422Z</time></trkpt><trkpt lat="43.6388045" lon="11.6682514"><ele>1268.0</ele><time>2026-03-28T11:16:33.422Z</time></trkpt><trkpt lat="43.6388487" lon="11.6685202"><ele>1263.6666666666667</ele><time>2026-03-28T11:16:34.422Z</time></trkpt><trkpt lat="43.6388917" lon="11.6687745"><ele>1259.3333333333333</ele><time>2026-03-28T11:16:35.422Z</time></trkpt><trkpt lat="43.6389354" lon="11.6690165"><ele>1255.0</ele><time>2026-03-28T11:16:36.422Z</time></trkpt><trkpt lat="43.6389838" lon="11.6692568"><ele>1251.3333333333333</ele><time>2026-03-28T11:16:37.422Z</time></trkpt><trkpt lat="43.6390555" lon="11.6694633"><ele>1247.6666666666667</ele><time>2026-03-28T11:16:38.422Z</time></trkpt><trkpt lat="43.639124" lon="11.6696594"><ele>1244.0</ele><time>2026-03-28T11:16:39.422Z</time></trkpt><trkpt lat="43.6391773" lon="11.6698384"><ele>1244.0</ele><time>2026-03-28T11:16:40.422Z</time></trkpt><trkpt lat="43.639179" lon="11.6700033"><ele>1244.0</ele><time>2026-03-28T11:16:41.422Z</time></trkpt><trkpt lat="43.6391557" lon="11.6701882"><ele>1244.0</ele><time>2026-03-28T11:16:42.422Z</time></trkpt><trkpt lat="43.6391149" lon="11.6703589"><ele>1244.0</ele><time>2026-03-28T11:16:43.422Z</time></trkpt><trkpt lat="43.6390842" lon="11.6705146"><ele>1242.75</ele><time>2026-03-28T11:16:44.422Z</time></trkpt><trkpt lat="43.6390913" lon="11.670686"><ele>1241.5</ele><time>2026-03-28T11:16:45.422Z</time></trkpt><trkpt lat="43.6391413" lon="11.6708838"><ele>1240.25</ele><time>2026-03-28T11:16:46.422Z</time></trkpt><trkpt lat="43.6392049" lon="11.6710909"><ele>1239.0</ele><time>2026-03-28T11:16:47.422Z</time></trkpt><trkpt lat="43.6392694" lon="11.6712967"><ele>1235.5</ele><time>2026-03-28T11:16:48.422Z</time></trkpt><trkpt lat="43.6393264" lon="11.6714841"><ele>1232.0</ele><time>2026-03-28T11:16:49.422Z</time></trkpt><trkpt lat="43.6393924" lon="11.6716581"><ele>1228.5</ele><time>2026-03-28T11:16:50.422Z</time></trkpt><trkpt lat="43.639456" lon="11.6718288"><ele>1225.0</ele><time>2026-03-28T11:16:51.422Z</time></trkpt><trkpt lat="43.6395204" lon="11.6720045"><ele>1234.5</ele><time>2026-03-28T11:16:52.422Z</time></trkpt><trkpt lat="43.6395648" lon="11.6721714"><ele>1244.0</ele><time>2026-03-28T11:16:53.423Z</time></trkpt><trkpt lat="43.6395921" lon="11.6723234"><ele>1253.5</ele><time>2026-03-28T11:16:54.423Z</time></trkpt><trkpt lat="43.639614" lon="11.672472"><ele>1263.0</ele><time>2026-03-28T11:16:55.423Z</time></trkpt><trkpt lat="43.6396208" lon="11.6726181"><ele>1263.0</ele><time>2026-03-28T11:16:56.423Z</time></trkpt><trkpt lat="43.639632" lon="11.6727689"><ele>1263.0</ele><time>2026-03-28T11:16:57.423Z</time></trkpt><trkpt lat="43.6396395" lon="11.6729077"><ele>1263.0</ele><time>2026-03-28T11:16:58.423Z</time></trkpt><trkpt lat="43.6396434" lon="11.6730357"><ele>1263.0</ele><time>2026-03-28T11:16:59.423Z</time></trkpt><trkpt lat="43.6396359" lon="11.6731425"><ele>1263.0</ele><time>2026-03-28T11:17:00.423Z</time></trkpt><trkpt lat="43.6395789" lon="11.6733035"><ele>1262.0</ele><time>2026-03-28T11:17:02.423Z</time></trkpt><trkpt lat="43.6395322" lon="11.6733722"><ele>1261.0</ele><time>2026-03-28T11:17:03.423Z</time></trkpt><trkpt lat="43.6394564" lon="11.6733911"><ele>1260.0</ele><time>2026-03-28T11:17:04.423Z</time></trkpt><trkpt lat="43.6393595" lon="11.6733442"><ele>1259.0</ele><time>2026-03-28T11:17:05.423Z</time></trkpt><trkpt lat="43.6392608" lon="11.6732327"><ele>1258.0</ele><time>2026-03-28T11:17:06.423Z</time></trkpt><trkpt lat="43.6391473" lon="11.6731346"><ele>1254.25</ele><time>2026-03-28T11:17:07.423Z</time></trkpt><trkpt lat="43.639022" lon="11.6730476"><ele>1250.5</ele><time>2026-03-28T11:17:08.423Z</time></trkpt><trkpt lat="43.6388902" lon="11.6730018"><ele>1246.75</ele><time>2026-03-28T11:17:09.423Z</time></trkpt><trkpt lat="43.6387548" lon="11.6729609"><ele>1243.0</ele><time>2026-03-28T11:17:10.423Z</time></trkpt><trkpt lat="43.6386237" lon="11.6729259"><ele>1241.25</ele><time>2026-03-28T11:17:11.423Z</time></trkpt><trkpt lat="43.6385045" lon="11.6729136"><ele>1239.5</ele><time>2026-03-28T11:17:12.423Z</time></trkpt><trkpt lat="43.6383896" lon="11.672948"><ele>1237.75</ele><time>2026-03-28T11:17:13.423Z</time></trkpt><trkpt lat="43.6382875" lon="11.6730172"><ele>1236.0</ele><time>2026-03-28T11:17:14.423Z</time></trkpt><trkpt lat="43.638189" lon="11.6731215"><ele>1236.0</ele><time>2026-03-28T11:17:15.423Z</time></trkpt><trkpt lat="43.6381001" lon="11.6732285"><ele>1236.0</ele><time>2026-03-28T11:17:16.423Z</time></trkpt><trkpt lat="43.6380106" lon="11.6733369"><ele>1236.0</ele><time>2026-03-28T11:17:17.423Z</time></trkpt><trkpt lat="43.6379355" lon="11.6734576"><ele>1236.0</ele><time>2026-03-28T11:17:18.423Z</time></trkpt><trkpt lat="43.6378728" lon="11.6735881"><ele>1242.25</ele><time>2026-03-28T11:17:19.423Z</time></trkpt><trkpt lat="43.6378328" lon="11.6737467"><ele>1248.5</ele><time>2026-03-28T11:17:20.423Z</time></trkpt><trkpt lat="43.6378015" lon="11.6739136"><ele>1254.75</ele><time>2026-03-28T11:17:21.423Z</time></trkpt><trkpt lat="43.6377702" lon="11.6740901"><ele>1261.0</ele><time>2026-03-28T11:17:22.423Z</time></trkpt><trkpt lat="43.637744" lon="11.6742681"><ele>1252.75</ele><time>2026-03-28T11:17:23.423Z</time></trkpt><trkpt lat="43.6377216" lon="11.674445"><ele>1244.5</ele><time>2026-03-28T11:17:24.423Z</time></trkpt><trkpt lat="43.6376946" lon="11.6746125"><ele>1236.25</ele><time>2026-03-28T11:17:25.423Z</time></trkpt><trkpt lat="43.6376616" lon="11.6747699"><ele>1228.0</ele><time>2026-03-28T11:17:26.424Z</time></trkpt><trkpt lat="43.6376158" lon="11.6749015"><ele>1228.0</ele><time>2026-03-28T11:17:27.423Z</time></trkpt><trkpt lat="43.6375502" lon="11.6750189"><ele>1228.0</ele><time>2026-03-28T11:17:28.423Z</time></trkpt><trkpt lat="43.6374658" lon="11.6751072"><ele>1228.0</ele><time>2026-03-28T11:17:29.423Z</time></trkpt><trkpt lat="43.6373613" lon="11.6751547"><ele>1228.0</ele><time>2026-03-28T11:17:30.423Z</time></trkpt><trkpt lat="43.6372469" lon="11.6751651"><ele>1228.0</ele><time>2026-03-28T11:17:31.423Z</time></trkpt><trkpt lat="43.6371318" lon="11.6751812"><ele>1228.0</ele><time>2026-03-28T11:17:32.423Z</time></trkpt><trkpt lat="43.6370018" lon="11.6752248"><ele>1228.0</ele><time>2026-03-28T11:17:33.423Z</time></trkpt><trkpt lat="43.6368577" lon="11.6753247"><ele>1228.0</ele><time>2026-03-28T11:17:34.423Z</time></trkpt><trkpt lat="43.6367203" lon="11.6754433"><ele>1231.6666666666665</ele><time>2026-03-28T11:17:35.423Z</time></trkpt><trkpt lat="43.6366031" lon="11.6756073"><ele>1235.3333333333333</ele><time>2026-03-28T11:17:36.423Z</time></trkpt><trkpt lat="43.6364977" lon="11.6757673"><ele>1239.0</ele><time>2026-03-28T11:17:37.423Z</time></trkpt><trkpt lat="43.6364033" lon="11.6759261"><ele>1239.0</ele><time>2026-03-28T11:17:38.423Z</time></trkpt><trkpt lat="43.6363061" lon="11.6760559"><ele>1239.0</ele><time>2026-03-28T11:17:39.423Z</time></trkpt><trkpt lat="43.636206" lon="11.6761435"><ele>1239.0</ele><time>2026-03-28T11:17:40.423Z</time></trkpt><trkpt lat="43.6361057" lon="11.6761897"><ele>1239.0</ele><time>2026-03-28T11:17:41.423Z</time></trkpt><trkpt lat="43.6359939" lon="11.6761644"><ele>1232.6666666666667</ele><time>2026-03-28T11:17:42.423Z</time></trkpt><trkpt lat="43.6358604" lon="11.6760956"><ele>1226.3333333333335</ele><time>2026-03-28T11:17:43.423Z</time></trkpt><trkpt lat="43.6357163" lon="11.6759883"><ele>1220.0</ele><time>2026-03-28T11:17:44.424Z</time></trkpt><trkpt lat="43.6355771" lon="11.6758547"><ele>1220.0</ele><time>2026-03-28T11:17:45.423Z</time></trkpt><trkpt lat="43.6354425" lon="11.6757356"><ele>1220.0</ele><time>2026-03-28T11:17:46.423Z</time></trkpt><trkpt lat="43.6353128" lon="11.6756389"><ele>1220.0</ele><time>2026-03-28T11:17:47.423Z</time></trkpt><trkpt lat="43.6351825" lon="11.6755397"><ele>1218.75</ele><time>2026-03-28T11:17:48.423Z</time></trkpt><trkpt lat="43.6350503" lon="11.6754496"><ele>1217.5</ele><time>2026-03-28T11:17:49.423Z</time></trkpt><trkpt lat="43.63492" lon="11.6753603"><ele>1216.25</ele><time>2026-03-28T11:17:50.423Z</time></trkpt><trkpt lat="43.6347959" lon="11.6752719"><ele>1215.0</ele><time>2026-03-28T11:17:51.423Z</time></trkpt><trkpt lat="43.6346891" lon="11.6751827"><ele>1215.0</ele><time>2026-03-28T11:17:52.423Z</time></trkpt><trkpt lat="43.634594" lon="11.6750738"><ele>1215.0</ele><time>2026-03-28T11:17:53.423Z</time></trkpt><trkpt lat="43.6345006" lon="11.6749643"><ele>1215.0</ele><time>2026-03-28T11:17:54.423Z</time></trkpt><trkpt lat="43.6344208" lon="11.6748343"><ele>1215.0</ele><time>2026-03-28T11:17:55.423Z</time></trkpt><trkpt lat="43.6343659" lon="11.6746622"><ele>1217.75</ele><time>2026-03-28T11:17:56.423Z</time></trkpt><trkpt lat="43.6343127" lon="11.6744762"><ele>1220.5</ele><time>2026-03-28T11:17:57.423Z</time></trkpt><trkpt lat="43.6342589" lon="11.6743147"><ele>1223.25</ele><time>2026-03-28T11:17:58.423Z</time></trkpt><trkpt lat="43.634208" lon="11.6741719"><ele>1226.0</ele><time>2026-03-28T11:17:59.423Z</time></trkpt><trkpt lat="43.6341391" lon="11.6740466"><ele>1226.0</ele><time>2026-03-28T11:18:00.423Z</time></trkpt><trkpt lat="43.6340644" lon="11.6739425"><ele>1226.0</ele><time>2026-03-28T11:18:01.423Z</time></trkpt><trkpt lat="43.6339647" lon="11.6738975"><ele>1226.0</ele><time>2026-03-28T11:18:02.423Z</time></trkpt><trkpt lat="43.6338668" lon="11.6739597"><ele>1226.0</ele><time>2026-03-28T11:18:03.423Z</time></trkpt><trkpt lat="43.6337955" lon="11.6740567"><ele>1226.0</ele><time>2026-03-28T11:18:04.423Z</time></trkpt><trkpt lat="43.6337193" lon="11.6741533"><ele>1225.8</ele><time>2026-03-28T11:18:05.423Z</time></trkpt><trkpt lat="43.6336337" lon="11.6742561"><ele>1225.6</ele><time>2026-03-28T11:18:06.423Z</time></trkpt><trkpt lat="43.6335269" lon="11.6743491"><ele>1225.4</ele><time>2026-03-28T11:18:07.423Z</time></trkpt><trkpt lat="43.6334262" lon="11.6744174"><ele>1225.2</ele><time>2026-03-28T11:18:08.423Z</time></trkpt><trkpt lat="43.6333286" lon="11.6744171"><ele>1225.0</ele><time>2026-03-28T11:18:09.423Z</time></trkpt><trkpt lat="43.6332395" lon="11.6743874"><ele>1225.0</ele><time>2026-03-28T11:18:10.423Z</time></trkpt><trkpt lat="43.6331441" lon="11.6743783"><ele>1225.0</ele><time>2026-03-28T11:18:11.423Z</time></trkpt><trkpt lat="43.6330586" lon="11.6744006"><ele>1225.0</ele><time>2026-03-28T11:18:12.423Z</time></trkpt><trkpt lat="43.6329605" lon="11.6744574"><ele>1225.0</ele><time>2026-03-28T11:18:13.423Z</time></trkpt><trkpt lat="43.6328621" lon="11.6745719"><ele>1225.0</ele><time>2026-03-28T11:18:14.423Z</time></trkpt><trkpt lat="43.6327604" lon="11.6747104"><ele>1225.25</ele><time>2026-03-28T11:18:15.423Z</time></trkpt><trkpt lat="43.6326602" lon="11.674862"><ele>1225.5</ele><time>2026-03-28T11:18:16.423Z</time></trkpt><trkpt lat="43.6325743" lon="11.6750005"><ele>1225.75</ele><time>2026-03-28T11:18:17.423Z</time></trkpt><trkpt lat="43.6324837" lon="11.6751214"><ele>1226.0</ele><time>2026-03-28T11:18:18.423Z</time></trkpt><trkpt lat="43.6323994" lon="11.6752366"><ele>1229.5</ele><time>2026-03-28T11:18:19.423Z</time></trkpt><trkpt lat="43.6323318" lon="11.6753753"><ele>1233.0</ele><time>2026-03-28T11:18:20.423Z</time></trkpt><trkpt lat="43.6322841" lon="11.6755309"><ele>1236.5</ele><time>2026-03-28T11:18:21.423Z</time></trkpt><trkpt lat="43.6322749" lon="11.675691"><ele>1240.0</ele><time>2026-03-28T11:18:22.423Z</time></trkpt><trkpt lat="43.6323159" lon="11.6758636"><ele>1240.0</ele><time>2026-03-28T11:18:23.423Z</time></trkpt><trkpt lat="43.6324084" lon="11.6760388"><ele>1240.0</ele><time>2026-03-28T11:18:24.423Z</time></trkpt><trkpt lat="43.6324993" lon="11.6762046"><ele>1240.0</ele><time>2026-03-28T11:18:25.423Z</time></trkpt><trkpt lat="43.6325829" lon="11.676369"><ele>1239.5</ele><time>2026-03-28T11:18:26.423Z</time></trkpt><trkpt lat="43.6326277" lon="11.676552"><ele>1239.0</ele><time>2026-03-28T11:18:27.423Z</time></trkpt><trkpt lat="43.6326464" lon="11.6767551"><ele>1238.5</ele><time>2026-03-28T11:18:28.423Z</time></trkpt><trkpt lat="43.632645" lon="11.6769581"><ele>1238.0</ele><time>2026-03-28T11:18:29.423Z</time></trkpt><trkpt lat="43.6325951" lon="11.6771585"><ele>1238.0</ele><time>2026-03-28T11:18:30.423Z</time></trkpt><trkpt lat="43.6325395" lon="11.6773445"><ele>1238.0</ele><time>2026-03-28T11:18:31.423Z</time></trkpt><trkpt lat="43.6325248" lon="11.6775179"><ele>1238.0</ele><time>2026-03-28T11:18:32.423Z</time></trkpt><trkpt lat="43.6325144" lon="11.6776962"><ele>1238.0</ele><time>2026-03-28T11:18:33.423Z</time></trkpt><trkpt lat="43.6324816" lon="11.677869"><ele>1241.0</ele><time>2026-03-28T11:18:34.423Z</time></trkpt><trkpt lat="43.632415" lon="11.6780384"><ele>1244.0</ele><time>2026-03-28T11:18:35.423Z</time></trkpt><trkpt lat="43.632334" lon="11.6782091"><ele>1247.0</ele><time>2026-03-28T11:18:36.423Z</time></trkpt><trkpt lat="43.6322567" lon="11.6783615"><ele>1250.0</ele><time>2026-03-28T11:18:37.423Z</time></trkpt><trkpt lat="43.6322151" lon="11.6785014"><ele>1253.0</ele><time>2026-03-28T11:18:38.423Z</time></trkpt><trkpt lat="43.6321946" lon="11.6786478"><ele>1256.0</ele><time>2026-03-28T11:18:39.423Z</time></trkpt><trkpt lat="43.6321834" lon="11.6787911"><ele>1259.0</ele><time>2026-03-28T11:18:40.423Z</time></trkpt><trkpt lat="43.6321535" lon="11.6789151"><ele>1262.0</ele><time>2026-03-28T11:18:41.423Z</time></trkpt><trkpt lat="43.6320676" lon="11.6789828"><ele>1265.0</ele><time>2026-03-28T11:18:42.423Z</time></trkpt><trkpt lat="43.6319827" lon="11.6790146"><ele>1263.0</ele><time>2026-03-28T11:18:43.423Z</time></trkpt><trkpt lat="43.6318939" lon="11.6790318"><ele>1261.0</ele><time>2026-03-28T11:18:44.423Z</time></trkpt><trkpt lat="43.6317908" lon="11.6790304"><ele>1259.0</ele><time>2026-03-28T11:18:45.423Z</time></trkpt><trkpt lat="43.6316844" lon="11.6790158"><ele>1257.0</ele><time>2026-03-28T11:18:46.423Z</time></trkpt><trkpt lat="43.6315816" lon="11.6789778"><ele>1255.0</ele><time>2026-03-28T11:18:47.423Z</time></trkpt><trkpt lat="43.6314891" lon="11.6789128"><ele>1255.0</ele><time>2026-03-28T11:18:48.423Z</time></trkpt><trkpt lat="43.6314124" lon="11.6788216"><ele>1255.0</ele><time>2026-03-28T11:18:49.423Z</time></trkpt><trkpt lat="43.6313394" lon="11.6787049"><ele>1255.0</ele><time>2026-03-28T11:18:50.423Z</time></trkpt><trkpt lat="43.6312726" lon="11.6785722"><ele>1255.0</ele><time>2026-03-28T11:18:51.423Z</time></trkpt><trkpt lat="43.6312127" lon="11.6784546"><ele>1255.0</ele><time>2026-03-28T11:18:52.423Z</time></trkpt><trkpt lat="43.6311611" lon="11.6783443"><ele>1253.1666666666665</ele><time>2026-03-28T11:18:53.423Z</time></trkpt><trkpt lat="43.6311071" lon="11.6782604"><ele>1251.3333333333333</ele><time>2026-03-28T11:18:54.423Z</time></trkpt><trkpt lat="43.6310291" lon="11.6781966"><ele>1249.5</ele><time>2026-03-28T11:18:55.423Z</time></trkpt><trkpt lat="43.6309504" lon="11.6781368"><ele>1247.6666666666667</ele><time>2026-03-28T11:18:56.423Z</time></trkpt><trkpt lat="43.6308627" lon="11.678106"><ele>1245.8333333333335</ele><time>2026-03-28T11:18:57.423Z</time></trkpt><trkpt lat="43.630767" lon="11.6781121"><ele>1244.0</ele><time>2026-03-28T11:18:58.423Z</time></trkpt><trkpt lat="43.630674" lon="11.6781413"><ele>1244.0</ele><time>2026-03-28T11:18:59.423Z</time></trkpt><trkpt lat="43.6305802" lon="11.678217"><ele>1244.0</ele><time>2026-03-28T11:19:00.423Z</time></trkpt><trkpt lat="43.6304957" lon="11.6782896"><ele>1244.0</ele><time>2026-03-28T11:19:01.423Z</time></trkpt><trkpt lat="43.6304076" lon="11.6783333"><ele>1244.0</ele><time>2026-03-28T11:19:02.423Z</time></trkpt><trkpt lat="43.6303048" lon="11.6783293"><ele>1244.0</ele><time>2026-03-28T11:19:03.423Z</time></trkpt><trkpt lat="43.6301897" lon="11.6782949"><ele>1246.0</ele><time>2026-03-28T11:19:04.423Z</time></trkpt><trkpt lat="43.6300768" lon="11.6782184"><ele>1248.0</ele><time>2026-03-28T11:19:05.423Z</time></trkpt><trkpt lat="43.6299685" lon="11.6781236"><ele>1250.0</ele><time>2026-03-28T11:19:06.423Z</time></trkpt><trkpt lat="43.6298767" lon="11.6780682"><ele>1252.0</ele><time>2026-03-28T11:19:07.423Z</time></trkpt><trkpt lat="43.6297728" lon="11.6780535"><ele>1252.0</ele><time>2026-03-28T11:19:08.423Z</time></trkpt><trkpt lat="43.6296654" lon="11.6780691"><ele>1252.0</ele><time>2026-03-28T11:19:09.423Z</time></trkpt><trkpt lat="43.6295726" lon="11.6780827"><ele>1252.0</ele><time>2026-03-28T11:19:10.423Z</time></trkpt><trkpt lat="43.629488" lon="11.678103"><ele>1252.0</ele><time>2026-03-28T11:19:11.423Z</time></trkpt><trkpt lat="43.6294108" lon="11.678108"><ele>1252.0</ele><time>2026-03-28T11:19:12.423Z</time></trkpt><trkpt lat="43.6293378" lon="11.67812"><ele>1252.0</ele><time>2026-03-28T11:19:13.423Z</time></trkpt><trkpt lat="43.6292527" lon="11.67812"><ele>1253.75</ele><time>2026-03-28T11:19:14.423Z</time></trkpt><trkpt lat="43.6291477" lon="11.6781249"><ele>1255.5</ele><time>2026-03-28T11:19:15.423Z</time></trkpt><trkpt lat="43.6290159" lon="11.678123"><ele>1257.25</ele><time>2026-03-28T11:19:16.423Z</time></trkpt><trkpt lat="43.6288739" lon="11.6781195"><ele>1259.0</ele><time>2026-03-28T11:19:17.423Z</time></trkpt><trkpt lat="43.6287465" lon="11.6781101"><ele>1262.5</ele><time>2026-03-28T11:19:18.423Z</time></trkpt><trkpt lat="43.6286388" lon="11.6780783"><ele>1266.0</ele><time>2026-03-28T11:19:19.423Z</time></trkpt><trkpt lat="43.6285371" lon="11.6779912"><ele>1269.5</ele><time>2026-03-28T11:19:20.423Z</time></trkpt><trkpt lat="43.6284363" lon="11.6778739"><ele>1273.0</ele><time>2026-03-28T11:19:21.423Z</time></trkpt><trkpt lat="43.6283288" lon="11.6777501"><ele>1261.6666666666665</ele><time>2026-03-28T11:19:22.423Z</time></trkpt><trkpt lat="43.628217" lon="11.6776219"><ele>1250.3333333333333</ele><time>2026-03-28T11:19:23.423Z</time></trkpt><trkpt lat="43.6280923" lon="11.6774901"><ele>1239.0</ele><time>2026-03-28T11:19:24.423Z</time></trkpt><trkpt lat="43.6279651" lon="11.6773541"><ele>1239.0</ele><time>2026-03-28T11:19:25.423Z</time></trkpt><trkpt lat="43.6278488" lon="11.677228"><ele>1239.0</ele><time>2026-03-28T11:19:26.423Z</time></trkpt><trkpt lat="43.6277392" lon="11.6770981"><ele>1239.0</ele><time>2026-03-28T11:19:27.423Z</time></trkpt><trkpt lat="43.6276356" lon="11.6769648"><ele>1239.0</ele><time>2026-03-28T11:19:28.423Z</time></trkpt><trkpt lat="43.6275311" lon="11.6768218"><ele>1240.6666666666667</ele><time>2026-03-28T11:19:29.423Z</time></trkpt><trkpt lat="43.6274252" lon="11.6766497"><ele>1242.3333333333335</ele><time>2026-03-28T11:19:30.423Z</time></trkpt><trkpt lat="43.6273239" lon="11.6764805"><ele>1244.0</ele><time>2026-03-28T11:19:31.423Z</time></trkpt><trkpt lat="43.6272266" lon="11.6763242"><ele>1244.0</ele><time>2026-03-28T11:19:32.423Z</time></trkpt><trkpt lat="43.6271376" lon="11.6761773"><ele>1244.0</ele><time>2026-03-28T11:19:33.423Z</time></trkpt><trkpt lat="43.627059" lon="11.6760479"><ele>1244.0</ele><time>2026-03-28T11:19:34.423Z</time></trkpt><trkpt lat="43.6269794" lon="11.6759562"><ele>1244.0</ele><time>2026-03-28T11:19:35.423Z</time></trkpt><trkpt lat="43.626904" lon="11.6759064"><ele>1244.0</ele><time>2026-03-28T11:19:36.423Z</time></trkpt><trkpt lat="43.6268364" lon="11.6758899"><ele>1243.0</ele><time>2026-03-28T11:19:37.423Z</time></trkpt><trkpt lat="43.6267594" lon="11.6759205"><ele>1242.0</ele><time>2026-03-28T11:19:38.423Z</time></trkpt><trkpt lat="43.6267022" lon="11.6759909"><ele>1241.0</ele><time>2026-03-28T11:19:39.423Z</time></trkpt><trkpt lat="43.626647" lon="11.6760967"><ele>1240.0</ele><time>2026-03-28T11:19:40.423Z</time></trkpt><trkpt lat="43.626596" lon="11.6762114"><ele>1239.0</ele><time>2026-03-28T11:19:41.423Z</time></trkpt><trkpt lat="43.6265582" lon="11.6763136"><ele>1238.0</ele><time>2026-03-28T11:19:42.423Z</time></trkpt><trkpt lat="43.6265396" lon="11.6764085"><ele>1238.0</ele><time>2026-03-28T11:19:43.423Z</time></trkpt><trkpt lat="43.6265636" lon="11.6765188"><ele>1238.0</ele><time>2026-03-28T11:19:44.423Z</time></trkpt><trkpt lat="43.6265915" lon="11.6766426"><ele>1238.0</ele><time>2026-03-28T11:19:45.423Z</time></trkpt><trkpt lat="43.6266629" lon="11.6768164"><ele>1238.0</ele><time>2026-03-28T11:19:46.423Z</time></trkpt><trkpt lat="43.626735" lon="11.676973"><ele>1233.75</ele><time>2026-03-28T11:19:47.423Z</time></trkpt><trkpt lat="43.626806" lon="11.6771087"><ele>1229.5</ele><time>2026-03-28T11:19:48.423Z</time></trkpt><trkpt lat="43.6268661" lon="11.677259"><ele>1225.25</ele><time>2026-03-28T11:19:49.423Z</time></trkpt><trkpt lat="43.6269199" lon="11.6774365"><ele>1221.0</ele><time>2026-03-28T11:19:50.423Z</time></trkpt><trkpt lat="43.6269429" lon="11.6776343"><ele>1218.5</ele><time>2026-03-28T11:19:51.423Z</time></trkpt><trkpt lat="43.6269335" lon="11.6778183"><ele>1216.0</ele><time>2026-03-28T11:19:52.423Z</time></trkpt><trkpt lat="43.6269202" lon="11.6779955"><ele>1213.5</ele><time>2026-03-28T11:19:53.423Z</time></trkpt><trkpt lat="43.6269198" lon="11.6781585"><ele>1211.0</ele><time>2026-03-28T11:19:54.423Z</time></trkpt><trkpt lat="43.6269544" lon="11.6783055"><ele>1219.75</ele><time>2026-03-28T11:19:55.423Z</time></trkpt><trkpt lat="43.6270205" lon="11.6784701"><ele>1228.5</ele><time>2026-03-28T11:19:56.423Z</time></trkpt><trkpt lat="43.6271014" lon="11.6786245"><ele>1237.25</ele><time>2026-03-28T11:19:57.423Z</time></trkpt><trkpt lat="43.6271821" lon="11.6787911"><ele>1246.0</ele><time>2026-03-28T11:19:58.423Z</time></trkpt><trkpt lat="43.6272291" lon="11.6789747"><ele>1246.0</ele><time>2026-03-28T11:19:59.423Z</time></trkpt><trkpt lat="43.6272663" lon="11.6791799"><ele>1246.0</ele><time>2026-03-28T11:20:00.423Z</time></trkpt><trkpt lat="43.6273028" lon="11.6793689"><ele>1246.0</ele><time>2026-03-28T11:20:01.423Z</time></trkpt><trkpt lat="43.6273295" lon="11.6795738"><ele>1246.0</ele><time>2026-03-28T11:20:02.423Z</time></trkpt><trkpt lat="43.6273551" lon="11.6797851"><ele>1241.75</ele><time>2026-03-28T11:20:03.423Z</time></trkpt><trkpt lat="43.6273836" lon="11.6799797"><ele>1237.5</ele><time>2026-03-28T11:20:04.423Z</time></trkpt><trkpt lat="43.6274187" lon="11.6801619"><ele>1233.25</ele><time>2026-03-28T11:20:05.423Z</time></trkpt><trkpt lat="43.6274646" lon="11.6803268"><ele>1229.0</ele><time>2026-03-28T11:20:06.423Z</time></trkpt><trkpt lat="43.6275216" lon="11.6804835"><ele>1224.0</ele><time>2026-03-28T11:20:07.423Z</time></trkpt><trkpt lat="43.627617" lon="11.6806056"><ele>1219.0</ele><time>2026-03-28T11:20:08.423Z</time></trkpt><trkpt lat="43.6277252" lon="11.6807046"><ele>1214.0</ele><time>2026-03-28T11:20:09.423Z</time></trkpt><trkpt lat="43.6278355" lon="11.6807918"><ele>1209.0</ele><time>2026-03-28T11:20:10.423Z</time></trkpt><trkpt lat="43.6279383" lon="11.6808763"><ele>1213.75</ele><time>2026-03-28T11:20:11.423Z</time></trkpt><trkpt lat="43.6280398" lon="11.680955"><ele>1218.5</ele><time>2026-03-28T11:20:12.423Z</time></trkpt><trkpt lat="43.6281395" lon="11.6810597"><ele>1223.25</ele><time>2026-03-28T11:20:13.423Z</time></trkpt><trkpt lat="43.6282181" lon="11.6812123"><ele>1228.0</ele><time>2026-03-28T11:20:14.423Z</time></trkpt><trkpt lat="43.6282849" lon="11.6814"><ele>1228.0</ele><time>2026-03-28T11:20:15.423Z</time></trkpt><trkpt lat="43.6283501" lon="11.6816122"><ele>1228.0</ele><time>2026-03-28T11:20:16.423Z</time></trkpt><trkpt lat="43.6284137" lon="11.6818214"><ele>1228.0</ele><time>2026-03-28T11:20:17.423Z</time></trkpt><trkpt lat="43.6284694" lon="11.6820194"><ele>1221.75</ele><time>2026-03-28T11:20:18.423Z</time></trkpt><trkpt lat="43.628521" lon="11.6821906"><ele>1215.5</ele><time>2026-03-28T11:20:19.423Z</time></trkpt><trkpt lat="43.6285631" lon="11.6823517"><ele>1209.25</ele><time>2026-03-28T11:20:20.423Z</time></trkpt><trkpt lat="43.6286029" lon="11.6825067"><ele>1203.0</ele><time>2026-03-28T11:20:21.423Z</time></trkpt><trkpt lat="43.6286337" lon="11.6826318"><ele>1205.25</ele><time>2026-03-28T11:20:22.423Z</time></trkpt><trkpt lat="43.6286182" lon="11.682766"><ele>1207.5</ele><time>2026-03-28T11:20:23.423Z</time></trkpt><trkpt lat="43.6285626" lon="11.6828979"><ele>1209.75</ele><time>2026-03-28T11:20:24.423Z</time></trkpt><trkpt lat="43.6284686" lon="11.6830025"><ele>1212.0</ele><time>2026-03-28T11:20:25.423Z</time></trkpt><trkpt lat="43.6283353" lon="11.6830773"><ele>1212.0</ele><time>2026-03-28T11:20:26.423Z</time></trkpt><trkpt lat="43.6281869" lon="11.6831101"><ele>1212.0</ele><time>2026-03-28T11:20:27.423Z</time></trkpt><trkpt lat="43.628056" lon="11.6831507"><ele>1212.0</ele><time>2026-03-28T11:20:28.423Z</time></trkpt><trkpt lat="43.6279352" lon="11.6832379"><ele>1212.0</ele><time>2026-03-28T11:20:29.423Z</time></trkpt><trkpt lat="43.6278221" lon="11.6833596"><ele>1210.75</ele><time>2026-03-28T11:20:30.423Z</time></trkpt><trkpt lat="43.6277414" lon="11.6835097"><ele>1209.5</ele><time>2026-03-28T11:20:31.423Z</time></trkpt><trkpt lat="43.6276721" lon="11.683662"><ele>1208.25</ele><time>2026-03-28T11:20:32.423Z</time></trkpt><trkpt lat="43.627605" lon="11.6838031"><ele>1207.0</ele><time>2026-03-28T11:20:33.423Z</time></trkpt><trkpt lat="43.6275315" lon="11.6839028"><ele>1207.0</ele><time>2026-03-28T11:20:34.423Z</time></trkpt><trkpt lat="43.6274466" lon="11.6839642"><ele>1207.0</ele><time>2026-03-28T11:20:35.423Z</time></trkpt><trkpt lat="43.6273466" lon="11.6840054"><ele>1207.0</ele><time>2026-03-28T11:20:36.423Z</time></trkpt><trkpt lat="43.6272511" lon="11.6839828"><ele>1207.0</ele><time>2026-03-28T11:20:37.423Z</time></trkpt><trkpt lat="43.6271535" lon="11.6839369"><ele>1207.0</ele><time>2026-03-28T11:20:38.423Z</time></trkpt><trkpt lat="43.6270415" lon="11.6838707"><ele>1206.75</ele><time>2026-03-28T11:20:39.423Z</time></trkpt><trkpt lat="43.6269218" lon="11.6838009"><ele>1206.5</ele><time>2026-03-28T11:20:40.423Z</time></trkpt><trkpt lat="43.6267925" lon="11.6837492"><ele>1206.25</ele><time>2026-03-28T11:20:41.423Z</time></trkpt><trkpt lat="43.6266543" lon="11.6836938"><ele>1206.0</ele><time>2026-03-28T11:20:42.423Z</time></trkpt><trkpt lat="43.6265167" lon="11.683645"><ele>1206.0</ele><time>2026-03-28T11:20:43.423Z</time></trkpt><trkpt lat="43.6263795" lon="11.6836096"><ele>1206.0</ele><time>2026-03-28T11:20:44.423Z</time></trkpt><trkpt lat="43.6262554" lon="11.6835922"><ele>1206.0</ele><time>2026-03-28T11:20:45.423Z</time></trkpt><trkpt lat="43.6261323" lon="11.6836078"><ele>1206.0</ele><time>2026-03-28T11:20:46.423Z</time></trkpt><trkpt lat="43.6260189" lon="11.6836295"><ele>1207.0</ele><time>2026-03-28T11:20:47.423Z</time></trkpt><trkpt lat="43.6259227" lon="11.6836485"><ele>1208.0</ele><time>2026-03-28T11:20:48.423Z</time></trkpt><trkpt lat="43.6258273" lon="11.6836446"><ele>1209.0</ele><time>2026-03-28T11:20:49.423Z</time></trkpt><trkpt lat="43.625724" lon="11.6835798"><ele>1210.0</ele><time>2026-03-28T11:20:50.423Z</time></trkpt><trkpt lat="43.6256085" lon="11.6834599"><ele>1204.0</ele><time>2026-03-28T11:20:51.423Z</time></trkpt><trkpt lat="43.6255028" lon="11.6833384"><ele>1198.0</ele><time>2026-03-28T11:20:52.423Z</time></trkpt><trkpt lat="43.6253958" lon="11.6832306"><ele>1192.0</ele><time>2026-03-28T11:20:53.423Z</time></trkpt><trkpt lat="43.6252845" lon="11.6831483"><ele>1186.0</ele><time>2026-03-28T11:20:54.423Z</time></trkpt><trkpt lat="43.6251751" lon="11.6830494"><ele>1186.0</ele><time>2026-03-28T11:20:55.423Z</time></trkpt><trkpt lat="43.6250717" lon="11.6829492"><ele>1186.0</ele><time>2026-03-28T11:20:56.423Z</time></trkpt><trkpt lat="43.6249619" lon="11.6828525"><ele>1186.0</ele><time>2026-03-28T11:20:57.423Z</time></trkpt><trkpt lat="43.6248443" lon="11.6827632"><ele>1186.0</ele><time>2026-03-28T11:20:58.423Z</time></trkpt><trkpt lat="43.6246864" lon="11.6827175"><ele>1174.0</ele><time>2026-03-28T11:20:59.423Z</time></trkpt><trkpt lat="43.6245063" lon="11.6827001"><ele>1162.0</ele><time>2026-03-28T11:21:00.423Z</time></trkpt><trkpt lat="43.6243439" lon="11.6826945"><ele>1150.0</ele><time>2026-03-28T11:21:01.423Z</time></trkpt><trkpt lat="43.6242051" lon="11.6826898"><ele>1150.0</ele><time>2026-03-28T11:21:02.423Z</time></trkpt><trkpt lat="43.6240854" lon="11.682682"><ele>1150.0</ele><time>2026-03-28T11:21:03.423Z</time></trkpt><trkpt lat="43.623973" lon="11.6826947"><ele>1150.0</ele><time>2026-03-28T11:21:04.423Z</time></trkpt><trkpt lat="43.6238676" lon="11.6827392"><ele>1150.0</ele><time>2026-03-28T11:21:05.423Z</time></trkpt><trkpt lat="43.6237964" lon="11.6828304"><ele>1150.0</ele><time>2026-03-28T11:21:06.423Z</time></trkpt><trkpt lat="43.6237485" lon="11.6829599"><ele>1154.5</ele><time>2026-03-28T11:21:07.423Z</time></trkpt><trkpt lat="43.6237396" lon="11.6831135"><ele>1159.0</ele><time>2026-03-28T11:21:08.423Z</time></trkpt><trkpt lat="43.6237547" lon="11.6832883"><ele>1163.5</ele><time>2026-03-28T11:21:09.423Z</time></trkpt><trkpt lat="43.6237675" lon="11.6834788"><ele>1168.0</ele><time>2026-03-28T11:21:10.423Z</time></trkpt><trkpt lat="43.6237579" lon="11.6836579"><ele>1171.25</ele><time>2026-03-28T11:21:11.424Z</time></trkpt><trkpt lat="43.6237246" lon="11.6838356"><ele>1174.5</ele><time>2026-03-28T11:21:12.423Z</time></trkpt><trkpt lat="43.6236613" lon="11.6840079"><ele>1177.75</ele><time>2026-03-28T11:21:13.423Z</time></trkpt><trkpt lat="43.6235855" lon="11.6841464"><ele>1181.0</ele><time>2026-03-28T11:21:14.423Z</time></trkpt><trkpt lat="43.6235288" lon="11.6842805"><ele>1169.25</ele><time>2026-03-28T11:21:15.423Z</time></trkpt><trkpt lat="43.6234885" lon="11.6844245"><ele>1157.5</ele><time>2026-03-28T11:21:16.423Z</time></trkpt><trkpt lat="43.6234682" lon="11.6845738"><ele>1145.75</ele><time>2026-03-28T11:21:17.423Z</time></trkpt><trkpt lat="43.6234567" lon="11.6847428"><ele>1134.0</ele><time>2026-03-28T11:21:18.423Z</time></trkpt><trkpt lat="43.6234602" lon="11.6849081"><ele>1134.0</ele><time>2026-03-28T11:21:19.423Z</time></trkpt><trkpt lat="43.6234651" lon="11.6850694"><ele>1134.0</ele><time>2026-03-28T11:21:20.423Z</time></trkpt><trkpt lat="43.6234668" lon="11.6852333"><ele>1134.0</ele><time>2026-03-28T11:21:21.423Z</time></trkpt><trkpt lat="43.6234381" lon="11.6853666"><ele>1134.0</ele><time>2026-03-28T11:21:22.423Z</time></trkpt><trkpt lat="43.6233871" lon="11.6854682"><ele>1134.0</ele><time>2026-03-28T11:21:23.423Z</time></trkpt><trkpt lat="43.623325" lon="11.6855512"><ele>1136.4</ele><time>2026-03-28T11:21:24.423Z</time></trkpt><trkpt lat="43.6232459" lon="11.6856083"><ele>1138.8000000000002</ele><time>2026-03-28T11:21:25.423Z</time></trkpt><trkpt lat="43.6231419" lon="11.6856613"><ele>1141.1999999999998</ele><time>2026-03-28T11:21:26.423Z</time></trkpt><trkpt lat="43.6230329" lon="11.6857099"><ele>1143.6</ele><time>2026-03-28T11:21:27.423Z</time></trkpt><trkpt lat="43.6229445" lon="11.6857323"><ele>1146.0</ele><time>2026-03-28T11:21:28.423Z</time></trkpt><trkpt lat="43.6228792" lon="11.6857294"><ele>1146.0</ele><time>2026-03-28T11:21:29.423Z</time></trkpt><trkpt lat="43.6228222" lon="11.6856103"><ele>1146.0</ele><time>2026-03-28T11:21:31.423Z</time></trkpt><trkpt lat="43.6228539" lon="11.6855175"><ele>1146.0</ele><time>2026-03-28T11:21:32.423Z</time></trkpt><trkpt lat="43.6229054" lon="11.6854322"><ele>1146.0</ele><time>2026-03-28T11:21:33.423Z</time></trkpt><trkpt lat="43.6229931" lon="11.6853716"><ele>1146.0</ele><time>2026-03-28T11:21:34.423Z</time></trkpt><trkpt lat="43.6230863" lon="11.6853085"><ele>1143.0</ele><time>2026-03-28T11:21:35.423Z</time></trkpt><trkpt lat="43.6231557" lon="11.6852044"><ele>1140.0</ele><time>2026-03-28T11:21:36.423Z</time></trkpt><trkpt lat="43.6231961" lon="11.68507"><ele>1137.0</ele><time>2026-03-28T11:21:37.423Z</time></trkpt><trkpt lat="43.6232074" lon="11.6849013"><ele>1134.0</ele><time>2026-03-28T11:21:38.423Z</time></trkpt><trkpt lat="43.6231916" lon="11.6847105"><ele>1134.0</ele><time>2026-03-28T11:21:39.423Z</time></trkpt><trkpt lat="43.6231792" lon="11.6845225"><ele>1134.0</ele><time>2026-03-28T11:21:40.423Z</time></trkpt><trkpt lat="43.6231751" lon="11.6843439"><ele>1134.0</ele><time>2026-03-28T11:21:41.423Z</time></trkpt><trkpt lat="43.6231743" lon="11.684153"><ele>1134.0</ele><time>2026-03-28T11:21:42.423Z</time></trkpt><trkpt lat="43.6232067" lon="11.6839776"><ele>1132.75</ele><time>2026-03-28T11:21:43.423Z</time></trkpt><trkpt lat="43.6232584" lon="11.6838141"><ele>1131.5</ele><time>2026-03-28T11:21:44.423Z</time></trkpt><trkpt lat="43.6232922" lon="11.6836477"><ele>1130.25</ele><time>2026-03-28T11:21:45.423Z</time></trkpt><trkpt lat="43.6232873" lon="11.6834547"><ele>1129.0</ele><time>2026-03-28T11:21:46.423Z</time></trkpt><trkpt lat="43.623262" lon="11.6832713"><ele>1126.0</ele><time>2026-03-28T11:21:47.423Z</time></trkpt><trkpt lat="43.623232" lon="11.6831233"><ele>1123.0</ele><time>2026-03-28T11:21:48.423Z</time></trkpt><trkpt lat="43.623209" lon="11.6829371"><ele>1120.0</ele><time>2026-03-28T11:21:49.423Z</time></trkpt><trkpt lat="43.6232178" lon="11.6827396"><ele>1117.0</ele><time>2026-03-28T11:21:50.423Z</time></trkpt><trkpt lat="43.623267" lon="11.6825539"><ele>1114.25</ele><time>2026-03-28T11:21:51.423Z</time></trkpt><trkpt lat="43.6233202" lon="11.6823967"><ele>1111.5</ele><time>2026-03-28T11:21:52.423Z</time></trkpt><trkpt lat="43.6233492" lon="11.6822148"><ele>1108.75</ele><time>2026-03-28T11:21:53.423Z</time></trkpt><trkpt lat="43.6233227" lon="11.682042"><ele>1106.0</ele><time>2026-03-28T11:21:54.423Z</time></trkpt><trkpt lat="43.6232732" lon="11.6818582"><ele>1103.75</ele><time>2026-03-28T11:21:55.423Z</time></trkpt><trkpt lat="43.6232237" lon="11.6816844"><ele>1101.5</ele><time>2026-03-28T11:21:56.423Z</time></trkpt><trkpt lat="43.6231702" lon="11.6815175"><ele>1099.25</ele><time>2026-03-28T11:21:57.423Z</time></trkpt><trkpt lat="43.623113" lon="11.6813817"><ele>1097.0</ele><time>2026-03-28T11:21:58.423Z</time></trkpt><trkpt lat="43.6230737" lon="11.6812493"><ele>1097.0</ele><time>2026-03-28T11:21:59.423Z</time></trkpt><trkpt lat="43.6230612" lon="11.6811298"><ele>1097.0</ele><time>2026-03-28T11:22:00.423Z</time></trkpt><trkpt lat="43.623095" lon="11.6810219"><ele>1097.0</ele><time>2026-03-28T11:22:01.423Z</time></trkpt><trkpt lat="43.6231834" lon="11.6809393"><ele>1097.0</ele><time>2026-03-28T11:22:02.423Z</time></trkpt><trkpt lat="43.6232866" lon="11.6809201"><ele>1097.0</ele><time>2026-03-28T11:22:03.423Z</time></trkpt><trkpt lat="43.6233803" lon="11.6809431"><ele>1097.0</ele><time>2026-03-28T11:22:04.423Z</time></trkpt><trkpt lat="43.6234674" lon="11.6809911"><ele>1097.0</ele><time>2026-03-28T11:22:05.423Z</time></trkpt><trkpt lat="43.6235442" lon="11.6810688"><ele>1097.0</ele><time>2026-03-28T11:22:06.423Z</time></trkpt><trkpt lat="43.6236299" lon="11.6811166"><ele>1097.0</ele><time>2026-03-28T11:22:07.423Z</time></trkpt><trkpt lat="43.6237399" lon="11.6810734"><ele>1097.0</ele><time>2026-03-28T11:22:08.423Z</time></trkpt><trkpt lat="43.6238666" lon="11.6809944"><ele>1091.0</ele><time>2026-03-28T11:22:09.423Z</time></trkpt><trkpt lat="43.6239907" lon="11.6809381"><ele>1085.0</ele><time>2026-03-28T11:22:10.423Z</time></trkpt><trkpt lat="43.624112" lon="11.6809039"><ele>1079.0</ele><time>2026-03-28T11:22:11.423Z</time></trkpt><trkpt lat="43.6242332" lon="11.6809025"><ele>1073.0</ele><time>2026-03-28T11:22:12.423Z</time></trkpt><trkpt lat="43.6243696" lon="11.6809558"><ele>1067.6666666666667</ele><time>2026-03-28T11:22:13.423Z</time></trkpt><trkpt lat="43.624519" lon="11.681041"><ele>1062.3333333333333</ele><time>2026-03-28T11:22:14.423Z</time></trkpt><trkpt lat="43.6246959" lon="11.6811299"><ele>1057.0</ele><time>2026-03-28T11:22:15.423Z</time></trkpt><trkpt lat="43.6248707" lon="11.6812038"><ele>1066.5</ele><time>2026-03-28T11:22:16.423Z</time></trkpt><trkpt lat="43.6250254" lon="11.6812481"><ele>1076.0</ele><time>2026-03-28T11:22:17.423Z</time></trkpt><trkpt lat="43.6251569" lon="11.6812911"><ele>1085.5</ele><time>2026-03-28T11:22:18.423Z</time></trkpt><trkpt lat="43.6252657" lon="11.6813386"><ele>1095.0</ele><time>2026-03-28T11:22:19.423Z</time></trkpt><trkpt lat="43.6253615" lon="11.6813657"><ele>1095.2</ele><time>2026-03-28T11:22:20.423Z</time></trkpt><trkpt lat="43.6254589" lon="11.6813466"><ele>1095.4</ele><time>2026-03-28T11:22:21.423Z</time></trkpt><trkpt lat="43.6255329" lon="11.6812685"><ele>1095.6</ele><time>2026-03-28T11:22:22.423Z</time></trkpt><trkpt lat="43.6255776" lon="11.6811503"><ele>1095.8</ele><time>2026-03-28T11:22:23.423Z</time></trkpt><trkpt lat="43.6255828" lon="11.6810048"><ele>1096.0</ele><time>2026-03-28T11:22:24.423Z</time></trkpt><trkpt lat="43.6255503" lon="11.6808596"><ele>1096.75</ele><time>2026-03-28T11:22:25.423Z</time></trkpt><trkpt lat="43.6254962" lon="11.6807126"><ele>1097.5</ele><time>2026-03-28T11:22:26.423Z</time></trkpt><trkpt lat="43.6254178" lon="11.6805764"><ele>1098.25</ele><time>2026-03-28T11:22:27.423Z</time></trkpt><trkpt lat="43.6253126" lon="11.6804401"><ele>1099.0</ele><time>2026-03-28T11:22:28.423Z</time></trkpt><trkpt lat="43.6252035" lon="11.6802879"><ele>1086.3333333333333</ele><time>2026-03-28T11:22:29.423Z</time></trkpt><trkpt lat="43.6250813" lon="11.6801285"><ele>1073.6666666666667</ele><time>2026-03-28T11:22:30.423Z</time></trkpt><trkpt lat="43.624983" lon="11.6799491"><ele>1061.0</ele><time>2026-03-28T11:22:31.423Z</time></trkpt><trkpt lat="43.6248884" lon="11.6797533"><ele>1061.0</ele><time>2026-03-28T11:22:32.423Z</time></trkpt><trkpt lat="43.624799" lon="11.6795622"><ele>1061.0</ele><time>2026-03-28T11:22:33.423Z</time></trkpt><trkpt lat="43.624713" lon="11.6793712"><ele>1061.0</ele><time>2026-03-28T11:22:34.423Z</time></trkpt><trkpt lat="43.6246468" lon="11.6791599"><ele>1065.6666666666667</ele><time>2026-03-28T11:22:35.423Z</time></trkpt><trkpt lat="43.6245924" lon="11.6789402"><ele>1070.3333333333333</ele><time>2026-03-28T11:22:36.423Z</time></trkpt><trkpt lat="43.624555" lon="11.6787299"><ele>1075.0</ele><time>2026-03-28T11:22:37.423Z</time></trkpt><trkpt lat="43.6245324" lon="11.6785337"><ele>1078.0</ele><time>2026-03-28T11:22:38.423Z</time></trkpt><trkpt lat="43.6245191" lon="11.6783558"><ele>1081.0</ele><time>2026-03-28T11:22:39.423Z</time></trkpt><trkpt lat="43.6245223" lon="11.6781926"><ele>1084.0</ele><time>2026-03-28T11:22:40.423Z</time></trkpt><trkpt lat="43.624497" lon="11.6780173"><ele>1087.0</ele><time>2026-03-28T11:22:41.423Z</time></trkpt><trkpt lat="43.6244006" lon="11.6778461"><ele>1074.5</ele><time>2026-03-28T11:22:42.423Z</time></trkpt><trkpt lat="43.6242749" lon="11.6777203"><ele>1062.0</ele><time>2026-03-28T11:22:43.423Z</time></trkpt><trkpt lat="43.624166" lon="11.6775899"><ele>1049.5</ele><time>2026-03-28T11:22:44.423Z</time></trkpt><trkpt lat="43.6240612" lon="11.6774637"><ele>1037.0</ele><time>2026-03-28T11:22:45.423Z</time></trkpt><trkpt lat="43.6239642" lon="11.6773413"><ele>1037.0</ele><time>2026-03-28T11:22:46.423Z</time></trkpt><trkpt lat="43.6239144" lon="11.6771966"><ele>1037.0</ele><time>2026-03-28T11:22:47.423Z</time></trkpt><trkpt lat="43.6238909" lon="11.6770397"><ele>1037.0</ele><time>2026-03-28T11:22:48.423Z</time></trkpt><trkpt lat="43.6238904" lon="11.6768742"><ele>1037.0</ele><time>2026-03-28T11:22:49.423Z</time></trkpt><trkpt lat="43.6239076" lon="11.6767225"><ele>1031.5</ele><time>2026-03-28T11:22:50.423Z</time></trkpt><trkpt lat="43.6239021" lon="11.6765862"><ele>1026.0</ele><time>2026-03-28T11:22:51.423Z</time></trkpt><trkpt lat="43.6238425" lon="11.6764589"><ele>1020.5</ele><time>2026-03-28T11:22:52.423Z</time></trkpt><trkpt lat="43.6237292" lon="11.6763919"><ele>1015.0</ele><time>2026-03-28T11:22:53.423Z</time></trkpt><trkpt lat="43.6235913" lon="11.6763439"><ele>1015.0</ele><time>2026-03-28T11:22:54.423Z</time></trkpt><trkpt lat="43.6234594" lon="11.6762673"><ele>1015.0</ele><time>2026-03-28T11:22:55.423Z</time></trkpt><trkpt lat="43.6233164" lon="11.6761643"><ele>1015.0</ele><time>2026-03-28T11:22:56.423Z</time></trkpt><trkpt lat="43.6231816" lon="11.6760186"><ele>1015.0</ele><time>2026-03-28T11:22:57.423Z</time></trkpt><trkpt lat="43.6230317" lon="11.6758529"><ele>1015.0</ele><time>2026-03-28T11:22:58.424Z</time></trkpt><trkpt lat="43.6228814" lon="11.6757027"><ele>1015.0</ele><time>2026-03-28T11:22:59.423Z</time></trkpt><trkpt lat="43.6227246" lon="11.675558"><ele>1015.0</ele><time>2026-03-28T11:23:00.423Z</time></trkpt><trkpt lat="43.6225822" lon="11.6754227"><ele>1015.0</ele><time>2026-03-28T11:23:01.423Z</time></trkpt><trkpt lat="43.6224427" lon="11.6752764"><ele>1015.0</ele><time>2026-03-28T11:23:02.423Z</time></trkpt><trkpt lat="43.6223048" lon="11.6751399"><ele>1021.3333333333333</ele><time>2026-03-28T11:23:03.423Z</time></trkpt><trkpt lat="43.6221803" lon="11.6749899"><ele>1027.6666666666667</ele><time>2026-03-28T11:23:04.423Z</time></trkpt><trkpt lat="43.6220532" lon="11.6748136"><ele>1034.0</ele><time>2026-03-28T11:23:05.423Z</time></trkpt><trkpt lat="43.6219167" lon="11.6746113"><ele>1027.3333333333335</ele><time>2026-03-28T11:23:06.423Z</time></trkpt><trkpt lat="43.6217867" lon="11.6744078"><ele>1020.6666666666667</ele><time>2026-03-28T11:23:07.423Z</time></trkpt><trkpt lat="43.6216578" lon="11.6741936"><ele>1014.0</ele><time>2026-03-28T11:23:08.423Z</time></trkpt><trkpt lat="43.6215359" lon="11.6739806"><ele>1014.0</ele><time>2026-03-28T11:23:09.423Z</time></trkpt><trkpt lat="43.6214246" lon="11.6737611"><ele>1014.0</ele><time>2026-03-28T11:23:10.423Z</time></trkpt><trkpt lat="43.6213149" lon="11.6735613"><ele>1014.0</ele><time>2026-03-28T11:23:11.423Z</time></trkpt><trkpt lat="43.6211934" lon="11.6733808"><ele>1006.0</ele><time>2026-03-28T11:23:12.423Z</time></trkpt><trkpt lat="43.6210572" lon="11.6732043"><ele>998.0</ele><time>2026-03-28T11:23:13.423Z</time></trkpt><trkpt lat="43.6209138" lon="11.6730365"><ele>990.0</ele><time>2026-03-28T11:23:14.423Z</time></trkpt><trkpt lat="43.6207704" lon="11.6728896"><ele>997.3333333333333</ele><time>2026-03-28T11:23:15.423Z</time></trkpt><trkpt lat="43.6206268" lon="11.6727433"><ele>1004.6666666666666</ele><time>2026-03-28T11:23:16.424Z</time></trkpt><trkpt lat="43.620484" lon="11.6725819"><ele>1012.0</ele><time>2026-03-28T11:23:17.423Z</time></trkpt><trkpt lat="43.6203577" lon="11.6723988"><ele>1005.0</ele><time>2026-03-28T11:23:18.423Z</time></trkpt><trkpt lat="43.6202509" lon="11.6722318"><ele>998.0</ele><time>2026-03-28T11:23:19.423Z</time></trkpt><trkpt lat="43.6201508" lon="11.6720785"><ele>991.0</ele><time>2026-03-28T11:23:20.423Z</time></trkpt><trkpt lat="43.6200531" lon="11.6719543"><ele>984.0</ele><time>2026-03-28T11:23:21.423Z</time></trkpt><trkpt lat="43.619961" lon="11.6718549"><ele>984.0</ele><time>2026-03-28T11:23:22.423Z</time></trkpt><trkpt lat="43.6198903" lon="11.6717308"><ele>984.0</ele><time>2026-03-28T11:23:23.423Z</time></trkpt><trkpt lat="43.6198434" lon="11.6715743"><ele>984.0</ele><time>2026-03-28T11:23:24.423Z</time></trkpt><trkpt lat="43.6198202" lon="11.6713871"><ele>984.0</ele><time>2026-03-28T11:23:25.423Z</time></trkpt><trkpt lat="43.6198065" lon="11.6712256"><ele>982.4000000000001</ele><time>2026-03-28T11:23:26.423Z</time></trkpt><trkpt lat="43.6198256" lon="11.6710788"><ele>980.8000000000001</ele><time>2026-03-28T11:23:27.423Z</time></trkpt><trkpt lat="43.6198823" lon="11.670948"><ele>979.1999999999999</ele><time>2026-03-28T11:23:28.423Z</time></trkpt><trkpt lat="43.6199729" lon="11.67086"><ele>977.5999999999999</ele><time>2026-03-28T11:23:29.423Z</time></trkpt><trkpt lat="43.6200838" lon="11.6707964"><ele>976.0</ele><time>2026-03-28T11:23:30.423Z</time></trkpt><trkpt lat="43.6201845" lon="11.670728"><ele>976.0</ele><time>2026-03-28T11:23:31.423Z</time></trkpt><trkpt lat="43.6202806" lon="11.6706219"><ele>976.0</ele><time>2026-03-28T11:23:32.423Z</time></trkpt><trkpt lat="43.6203604" lon="11.6704442"><ele>976.0</ele><time>2026-03-28T11:23:33.423Z</time></trkpt><trkpt lat="43.6204221" lon="11.6702345"><ele>976.0</ele><time>2026-03-28T11:23:34.423Z</time></trkpt><trkpt lat="43.6204851" lon="11.6700099"><ele>975.3333333333333</ele><time>2026-03-28T11:23:35.424Z</time></trkpt><trkpt lat="43.6205393" lon="11.6698043"><ele>974.6666666666667</ele><time>2026-03-28T11:23:36.423Z</time></trkpt><trkpt lat="43.6205684" lon="11.6695919"><ele>974.0</ele><time>2026-03-28T11:23:37.423Z</time></trkpt><trkpt lat="43.6205859" lon="11.6693794"><ele>974.0</ele><time>2026-03-28T11:23:38.423Z</time></trkpt><trkpt lat="43.6206209" lon="11.6691681"><ele>974.0</ele><time>2026-03-28T11:23:39.423Z</time></trkpt><trkpt lat="43.6206973" lon="11.668971"><ele>974.0</ele><time>2026-03-28T11:23:40.423Z</time></trkpt><trkpt lat="43.6207983" lon="11.6688108"><ele>974.0</ele><time>2026-03-28T11:23:41.423Z</time></trkpt><trkpt lat="43.620887" lon="11.6686645"><ele>974.0</ele><time>2026-03-28T11:23:42.423Z</time></trkpt><trkpt lat="43.6209587" lon="11.6685316"><ele>974.0</ele><time>2026-03-28T11:23:43.423Z</time></trkpt><trkpt lat="43.6209723" lon="11.6683715"><ele>974.0</ele><time>2026-03-28T11:23:44.423Z</time></trkpt><trkpt lat="43.6209305" lon="11.6681767"><ele>971.6666666666667</ele><time>2026-03-28T11:23:45.423Z</time></trkpt><trkpt lat="43.620843" lon="11.6679592"><ele>969.3333333333333</ele><time>2026-03-28T11:23:46.423Z</time></trkpt><trkpt lat="43.6207414" lon="11.6677556"><ele>967.0</ele><time>2026-03-28T11:23:47.423Z</time></trkpt><trkpt lat="43.6206339" lon="11.6675777"><ele>967.0</ele><time>2026-03-28T11:23:48.423Z</time></trkpt><trkpt lat="43.6205401" lon="11.6673863"><ele>967.0</ele><time>2026-03-28T11:23:49.423Z</time></trkpt><trkpt lat="43.6204464" lon="11.6672036"><ele>967.0</ele><time>2026-03-28T11:23:50.423Z</time></trkpt><trkpt lat="43.6203457" lon="11.6670349"><ele>961.0</ele><time>2026-03-28T11:23:51.423Z</time></trkpt><trkpt lat="43.6202397" lon="11.6669052"><ele>955.0</ele><time>2026-03-28T11:23:52.423Z</time></trkpt><trkpt lat="43.6201146" lon="11.6667714"><ele>949.0</ele><time>2026-03-28T11:23:53.423Z</time></trkpt><trkpt lat="43.6199958" lon="11.6666537"><ele>943.0</ele><time>2026-03-28T11:23:54.423Z</time></trkpt><trkpt lat="43.6198916" lon="11.6665227"><ele>943.0</ele><time>2026-03-28T11:23:55.423Z</time></trkpt><trkpt lat="43.6197995" lon="11.6663464"><ele>943.0</ele><time>2026-03-28T11:23:56.423Z</time></trkpt><trkpt lat="43.6197168" lon="11.6661353"><ele>943.0</ele><time>2026-03-28T11:23:57.423Z</time></trkpt><trkpt lat="43.6196495" lon="11.6659192"><ele>948.0</ele><time>2026-03-28T11:23:58.423Z</time></trkpt><trkpt lat="43.6195892" lon="11.6657074"><ele>953.0</ele><time>2026-03-28T11:23:59.423Z</time></trkpt><trkpt lat="43.6195208" lon="11.6655059"><ele>958.0</ele><time>2026-03-28T11:24:00.423Z</time></trkpt><trkpt lat="43.6194469" lon="11.6653371"><ele>948.0</ele><time>2026-03-28T11:24:01.423Z</time></trkpt><trkpt lat="43.6193814" lon="11.665176"><ele>938.0</ele><time>2026-03-28T11:24:02.423Z</time></trkpt><trkpt lat="43.6193265" lon="11.6650132"><ele>928.0</ele><time>2026-03-28T11:24:03.423Z</time></trkpt><trkpt lat="43.6192985" lon="11.6648435"><ele>918.0</ele><time>2026-03-28T11:24:04.423Z</time></trkpt><trkpt lat="43.6193076" lon="11.6646857"><ele>918.0</ele><time>2026-03-28T11:24:05.423Z</time></trkpt><trkpt lat="43.6193601" lon="11.6645486"><ele>918.0</ele><time>2026-03-28T11:24:06.423Z</time></trkpt><trkpt lat="43.6194503" lon="11.6644165"><ele>918.0</ele><time>2026-03-28T11:24:07.423Z</time></trkpt><trkpt lat="43.6195534" lon="11.6642955"><ele>918.0</ele><time>2026-03-28T11:24:08.423Z</time></trkpt><trkpt lat="43.6196556" lon="11.6641801"><ele>921.5</ele><time>2026-03-28T11:24:09.423Z</time></trkpt><trkpt lat="43.6197369" lon="11.6640491"><ele>925.0</ele><time>2026-03-28T11:24:10.423Z</time></trkpt><trkpt lat="43.6197949" lon="11.6638944"><ele>928.5</ele><time>2026-03-28T11:24:11.423Z</time></trkpt><trkpt lat="43.619828" lon="11.6637026"><ele>932.0</ele><time>2026-03-28T11:24:12.423Z</time></trkpt><trkpt lat="43.61984" lon="11.6635168"><ele>932.0</ele><time>2026-03-28T11:24:13.423Z</time></trkpt><trkpt lat="43.6198121" lon="11.663306"><ele>932.0</ele><time>2026-03-28T11:24:14.423Z</time></trkpt><trkpt lat="43.6197723" lon="11.6630757"><ele>932.0</ele><time>2026-03-28T11:24:15.423Z</time></trkpt><trkpt lat="43.6197158" lon="11.6628294"><ele>934.6666666666667</ele><time>2026-03-28T11:24:16.423Z</time></trkpt><trkpt lat="43.6196582" lon="11.6625954"><ele>937.3333333333333</ele><time>2026-03-28T11:24:17.423Z</time></trkpt><trkpt lat="43.6195905" lon="11.6623621"><ele>940.0</ele><time>2026-03-28T11:24:18.423Z</time></trkpt><trkpt lat="43.6195283" lon="11.6621343"><ele>923.3333333333333</ele><time>2026-03-28T11:24:19.423Z</time></trkpt><trkpt lat="43.6194718" lon="11.6619107"><ele>906.6666666666667</ele><time>2026-03-28T11:24:20.424Z</time></trkpt><trkpt lat="43.6194167" lon="11.6616994"><ele>890.0</ele><time>2026-03-28T11:24:21.423Z</time></trkpt><trkpt lat="43.6193717" lon="11.6614819"><ele>890.0</ele><time>2026-03-28T11:24:22.423Z</time></trkpt><trkpt lat="43.6193402" lon="11.661265"><ele>890.0</ele><time>2026-03-28T11:24:23.423Z</time></trkpt><trkpt lat="43.6193361" lon="11.6610489"><ele>890.0</ele><time>2026-03-28T11:24:24.423Z</time></trkpt><trkpt lat="43.6193662" lon="11.660821"><ele>888.3333333333334</ele><time>2026-03-28T11:24:25.423Z</time></trkpt><trkpt lat="43.6194213" lon="11.6606041"><ele>886.6666666666667</ele><time>2026-03-28T11:24:26.423Z</time></trkpt><trkpt lat="43.619489" lon="11.6603831"><ele>885.0</ele><time>2026-03-28T11:24:27.423Z</time></trkpt><trkpt lat="43.6195477" lon="11.6601688"><ele>897.0</ele><time>2026-03-28T11:24:28.423Z</time></trkpt><trkpt lat="43.6195977" lon="11.6599442"><ele>909.0</ele><time>2026-03-28T11:24:29.423Z</time></trkpt><trkpt lat="43.6196158" lon="11.659727"><ele>921.0</ele><time>2026-03-28T11:24:30.423Z</time></trkpt><trkpt lat="43.6196304" lon="11.6595357"><ele>915.0</ele><time>2026-03-28T11:24:31.423Z</time></trkpt><trkpt lat="43.6196345" lon="11.6593583"><ele>909.0</ele><time>2026-03-28T11:24:32.423Z</time></trkpt><trkpt lat="43.6196523" lon="11.6592071"><ele>903.0</ele><time>2026-03-28T11:24:33.423Z</time></trkpt><trkpt lat="43.6196921" lon="11.6590606"><ele>897.0</ele><time>2026-03-28T11:24:34.423Z</time></trkpt><trkpt lat="43.6197609" lon="11.6589254"><ele>897.0</ele><time>2026-03-28T11:24:35.423Z</time></trkpt><trkpt lat="43.6198637" lon="11.6587972"><ele>897.0</ele><time>2026-03-28T11:24:36.423Z</time></trkpt><trkpt lat="43.6199739" lon="11.6586636"><ele>897.0</ele><time>2026-03-28T11:24:37.423Z</time></trkpt><trkpt lat="43.6200888" lon="11.6585214"><ele>897.0</ele><time>2026-03-28T11:24:38.423Z</time></trkpt><trkpt lat="43.6201769" lon="11.6583684"><ele>895.5</ele><time>2026-03-28T11:24:39.423Z</time></trkpt><trkpt lat="43.6202524" lon="11.6582025"><ele>894.0</ele><time>2026-03-28T11:24:40.423Z</time></trkpt><trkpt lat="43.6203107" lon="11.658037"><ele>892.5</ele><time>2026-03-28T11:24:41.423Z</time></trkpt><trkpt lat="43.6203593" lon="11.6578625"><ele>891.0</ele><time>2026-03-28T11:24:42.423Z</time></trkpt><trkpt lat="43.620398" lon="11.6577004"><ele>884.0</ele><time>2026-03-28T11:24:43.423Z</time></trkpt><trkpt lat="43.6204025" lon="11.6575072"><ele>877.0</ele><time>2026-03-28T11:24:44.423Z</time></trkpt><trkpt lat="43.6203869" lon="11.6573056"><ele>870.0</ele><time>2026-03-28T11:24:45.423Z</time></trkpt><trkpt lat="43.6203616" lon="11.6571072"><ele>863.0</ele><time>2026-03-28T11:24:46.423Z</time></trkpt><trkpt lat="43.620341" lon="11.6568931"><ele>860.3333333333334</ele><time>2026-03-28T11:24:47.423Z</time></trkpt><trkpt lat="43.6203191" lon="11.6566723"><ele>857.6666666666667</ele><time>2026-03-28T11:24:48.424Z</time></trkpt><trkpt lat="43.620302" lon="11.6564561"><ele>855.0</ele><time>2026-03-28T11:24:49.424Z</time></trkpt><trkpt lat="43.6202877" lon="11.6562352"><ele>862.6666666666667</ele><time>2026-03-28T11:24:50.424Z</time></trkpt><trkpt lat="43.6202721" lon="11.656015"><ele>870.3333333333334</ele><time>2026-03-28T11:24:51.424Z</time></trkpt><trkpt lat="43.6202494" lon="11.6558058"><ele>878.0</ele><time>2026-03-28T11:24:52.424Z</time></trkpt><trkpt lat="43.6202169" lon="11.6556163"><ele>878.0</ele><time>2026-03-28T11:24:53.424Z</time></trkpt><trkpt lat="43.6201872" lon="11.6554392"><ele>878.0</ele><time>2026-03-28T11:24:54.424Z</time></trkpt><trkpt lat="43.6201616" lon="11.6552817"><ele>878.0</ele><time>2026-03-28T11:24:55.424Z</time></trkpt><trkpt lat="43.6201451" lon="11.655156"><ele>878.0</ele><time>2026-03-28T11:24:56.424Z</time></trkpt><trkpt lat="43.6201234" lon="11.6550031"><ele>878.5000000000001</ele><time>2026-03-28T11:24:58.424Z</time></trkpt><trkpt lat="43.620104" lon="11.6548878"><ele>879.0</ele><time>2026-03-28T11:25:00.424Z</time></trkpt><trkpt lat="43.6200855" lon="11.6547825"><ele>879.5</ele><time>2026-03-28T11:25:03.424Z</time></trkpt><trkpt lat="43.6200662" lon="11.6546769"><ele>880.0</ele><time>2026-03-28T11:25:07.424Z</time></trkpt><trkpt lat="43.6200408" lon="11.6545685"><ele>880.5000000000001</ele><time>2026-03-28T11:25:11.424Z</time></trkpt><trkpt lat="43.6200055" lon="11.6544456"><ele>881.0</ele><time>2026-03-28T11:25:14.424Z</time></trkpt><trkpt lat="43.6199685" lon="11.6543166"><ele>878.5999999999999</ele><time>2026-03-28T11:25:16.424Z</time></trkpt><trkpt lat="43.6199359" lon="11.6541654"><ele>876.1999999999999</ele><time>2026-03-28T11:25:18.424Z</time></trkpt><trkpt lat="43.6199158" lon="11.654081"><ele>873.8000000000001</ele><time>2026-03-28T11:25:19.424Z</time></trkpt><trkpt lat="43.6198669" lon="11.6539261"><ele>871.4000000000001</ele><time>2026-03-28T11:25:21.424Z</time></trkpt><trkpt lat="43.6198341" lon="11.6538482"><ele>869.0</ele><time>2026-03-28T11:25:22.424Z</time></trkpt><trkpt lat="43.6197567" lon="11.6537269"><ele>864.2</ele><time>2026-03-28T11:25:24.424Z</time></trkpt><trkpt lat="43.6196915" lon="11.6536213"><ele>859.4000000000001</ele><time>2026-03-28T11:25:26.424Z</time></trkpt><trkpt lat="43.619642" lon="11.6535018"><ele>854.6</ele><time>2026-03-28T11:25:28.424Z</time></trkpt><trkpt lat="43.6195787" lon="11.6533631"><ele>849.8</ele><time>2026-03-28T11:25:30.424Z</time></trkpt><trkpt lat="43.6195457" lon="11.653265"><ele>845.0</ele><time>2026-03-28T11:25:31.424Z</time></trkpt><trkpt lat="43.6195073" lon="11.6531369"><ele>847.8</ele><time>2026-03-28T11:25:32.424Z</time></trkpt><trkpt lat="43.619466" lon="11.6530081"><ele>850.6</ele><time>2026-03-28T11:25:33.424Z</time></trkpt><trkpt lat="43.6194289" lon="11.6528836"><ele>853.4000000000001</ele><time>2026-03-28T11:25:34.424Z</time></trkpt><trkpt lat="43.6193916" lon="11.6527717"><ele>856.2</ele><time>2026-03-28T11:25:35.424Z</time></trkpt><trkpt lat="43.619366" lon="11.6526515"><ele>859.0</ele><time>2026-03-28T11:25:36.424Z</time></trkpt><trkpt lat="43.6193447" lon="11.6525299"><ele>859.0</ele><time>2026-03-28T11:25:37.424Z</time></trkpt><trkpt lat="43.6193367" lon="11.6524022"><ele>859.0</ele><time>2026-03-28T11:25:38.424Z</time></trkpt><trkpt lat="43.619377" lon="11.6522689"><ele>859.0</ele><time>2026-03-28T11:25:39.424Z</time></trkpt><trkpt lat="43.619408" lon="11.6520709"><ele>859.0</ele><time>2026-03-28T11:25:40.424Z</time></trkpt><trkpt lat="43.6194208" lon="11.651876"><ele>856.0</ele><time>2026-03-28T11:25:41.424Z</time></trkpt><trkpt lat="43.61942" lon="11.6516873"><ele>853.0</ele><time>2026-03-28T11:25:42.424Z</time></trkpt><trkpt lat="43.619426" lon="11.6515028"><ele>850.0</ele><time>2026-03-28T11:25:43.424Z</time></trkpt><trkpt lat="43.6194397" lon="11.6513404"><ele>847.0</ele><time>2026-03-28T11:25:44.424Z</time></trkpt><trkpt lat="43.6194531" lon="11.6511836"><ele>845.8</ele><time>2026-03-28T11:25:45.424Z</time></trkpt><trkpt lat="43.619479" lon="11.6510474"><ele>844.6</ele><time>2026-03-28T11:25:46.424Z</time></trkpt><trkpt lat="43.6195168" lon="11.6509318"><ele>843.4</ele><time>2026-03-28T11:25:47.424Z</time></trkpt><trkpt lat="43.6195592" lon="11.6508208"><ele>842.1999999999999</ele><time>2026-03-28T11:25:48.424Z</time></trkpt><trkpt lat="43.619611" lon="11.6506919"><ele>841.0</ele><time>2026-03-28T11:25:49.424Z</time></trkpt><trkpt lat="43.6196551" lon="11.6505518"><ele>836.25</ele><time>2026-03-28T11:25:50.424Z</time></trkpt><trkpt lat="43.6196976" lon="11.6504047"><ele>831.5</ele><time>2026-03-28T11:25:51.424Z</time></trkpt><trkpt lat="43.6197433" lon="11.6502468"><ele>826.75</ele><time>2026-03-28T11:25:52.424Z</time></trkpt><trkpt lat="43.6197804" lon="11.6500796"><ele>822.0</ele><time>2026-03-28T11:25:53.424Z</time></trkpt><trkpt lat="43.6198116" lon="11.6499097"><ele>822.0</ele><time>2026-03-28T11:25:54.424Z</time></trkpt><trkpt lat="43.619835" lon="11.6497492"><ele>822.0</ele><time>2026-03-28T11:25:55.424Z</time></trkpt><trkpt lat="43.6198528" lon="11.6495832"><ele>822.0</ele><time>2026-03-28T11:25:56.424Z</time></trkpt><trkpt lat="43.6198595" lon="11.6494231"><ele>822.0</ele><time>2026-03-28T11:25:57.424Z</time></trkpt><trkpt lat="43.6198532" lon="11.6492621"><ele>822.0</ele><time>2026-03-28T11:25:58.424Z</time></trkpt><trkpt lat="43.619844" lon="11.6491147"><ele>822.0</ele><time>2026-03-28T11:25:59.424Z</time></trkpt><trkpt lat="43.6198168" lon="11.6489918"><ele>822.0</ele><time>2026-03-28T11:26:00.424Z</time></trkpt><trkpt lat="43.6197737" lon="11.648905"><ele>822.0</ele><time>2026-03-28T11:26:01.424Z</time></trkpt><trkpt lat="43.6197045" lon="11.648815"><ele>822.0</ele><time>2026-03-28T11:26:02.424Z</time></trkpt><trkpt lat="43.6196357" lon="11.6487962"><ele>822.0</ele><time>2026-03-28T11:26:03.424Z</time></trkpt><trkpt lat="43.6195729" lon="11.6488283"><ele>821.8</ele><time>2026-03-28T11:26:04.424Z</time></trkpt><trkpt lat="43.6194763" lon="11.6488539"><ele>821.6</ele><time>2026-03-28T11:26:05.424Z</time></trkpt><trkpt lat="43.6193765" lon="11.6488739"><ele>821.4</ele><time>2026-03-28T11:26:06.424Z</time></trkpt><trkpt lat="43.6192803" lon="11.6489085"><ele>821.1999999999999</ele><time>2026-03-28T11:26:07.424Z</time></trkpt><trkpt lat="43.6191889" lon="11.6489907"><ele>821.0</ele><time>2026-03-28T11:26:08.424Z</time></trkpt><trkpt lat="43.6190986" lon="11.6491248"><ele>821.0</ele><time>2026-03-28T11:26:09.424Z</time></trkpt><trkpt lat="43.6190167" lon="11.6492505"><ele>821.0</ele><time>2026-03-28T11:26:10.424Z</time></trkpt><trkpt lat="43.6189447" lon="11.6493848"><ele>821.0</ele><time>2026-03-28T11:26:11.424Z</time></trkpt><trkpt lat="43.6188854" lon="11.6495278"><ele>821.0</ele><time>2026-03-28T11:26:12.424Z</time></trkpt><trkpt lat="43.6188357" lon="11.6496852"><ele>823.8</ele><time>2026-03-28T11:26:13.424Z</time></trkpt><trkpt lat="43.6187956" lon="11.6498531"><ele>826.5999999999999</ele><time>2026-03-28T11:26:14.424Z</time></trkpt><trkpt lat="43.6187731" lon="11.6500136"><ele>829.4</ele><time>2026-03-28T11:26:15.424Z</time></trkpt><trkpt lat="43.6187456" lon="11.6501579"><ele>832.2</ele><time>2026-03-28T11:26:16.424Z</time></trkpt><trkpt lat="43.618722" lon="11.6502828"><ele>835.0</ele><time>2026-03-28T11:26:17.424Z</time></trkpt><trkpt lat="43.6187011" lon="11.6504109"><ele>835.9999999999999</ele><time>2026-03-28T11:26:18.424Z</time></trkpt><trkpt lat="43.6186871" lon="11.6505211"><ele>837.0</ele><time>2026-03-28T11:26:19.424Z</time></trkpt><trkpt lat="43.618673" lon="11.6506069"><ele>838.0</ele><time>2026-03-28T11:26:20.424Z</time></trkpt><trkpt lat="43.6186532" lon="11.6507209"><ele>839.0</ele><time>2026-03-28T11:26:22.424Z</time></trkpt><trkpt lat="43.6185885" lon="11.6507994"><ele>839.9999999999999</ele><time>2026-03-28T11:26:24.424Z</time></trkpt><trkpt lat="43.6184914" lon="11.6507641"><ele>841.0</ele><time>2026-03-28T11:26:26.424Z</time></trkpt><trkpt lat="43.6184787" lon="11.6506377"><ele>831.4</ele><time>2026-03-28T11:26:28.424Z</time></trkpt><trkpt lat="43.618522" lon="11.6504768"><ele>821.8</ele><time>2026-03-28T11:26:30.424Z</time></trkpt><trkpt lat="43.6185462" lon="11.6503894"><ele>812.1999999999999</ele><time>2026-03-28T11:26:31.424Z</time></trkpt><trkpt lat="43.6185717" lon="11.6502854"><ele>802.5999999999999</ele><time>2026-03-28T11:26:32.424Z</time></trkpt><trkpt lat="43.6185932" lon="11.6501495"><ele>793.0</ele><time>2026-03-28T11:26:33.424Z</time></trkpt><trkpt lat="43.6186063" lon="11.6499916"><ele>791.75</ele><time>2026-03-28T11:26:34.424Z</time></trkpt><trkpt lat="43.6186046" lon="11.6498247"><ele>790.5</ele><time>2026-03-28T11:26:35.424Z</time></trkpt><trkpt lat="43.6186026" lon="11.6496582"><ele>789.25</ele><time>2026-03-28T11:26:36.424Z</time></trkpt><trkpt lat="43.6186082" lon="11.6495017"><ele>788.0</ele><time>2026-03-28T11:26:37.424Z</time></trkpt><trkpt lat="43.6186235" lon="11.6493469"><ele>786.0</ele><time>2026-03-28T11:26:38.424Z</time></trkpt><trkpt lat="43.6186492" lon="11.649191"><ele>784.0</ele><time>2026-03-28T11:26:39.424Z</time></trkpt><trkpt lat="43.6186881" lon="11.6490424"><ele>782.0</ele><time>2026-03-28T11:26:40.424Z</time></trkpt><trkpt lat="43.6187259" lon="11.6488918"><ele>780.0</ele><time>2026-03-28T11:26:41.424Z</time></trkpt><trkpt lat="43.6187758" lon="11.6487576"><ele>783.0</ele><time>2026-03-28T11:26:42.424Z</time></trkpt><trkpt lat="43.6188297" lon="11.6486345"><ele>786.0</ele><time>2026-03-28T11:26:43.424Z</time></trkpt><trkpt lat="43.6189086" lon="11.6485349"><ele>789.0</ele><time>2026-03-28T11:26:44.424Z</time></trkpt><trkpt lat="43.6190076" lon="11.6484299"><ele>792.0</ele><time>2026-03-28T11:26:45.424Z</time></trkpt><trkpt lat="43.6191256" lon="11.648316"><ele>792.0</ele><time>2026-03-28T11:26:46.424Z</time></trkpt><trkpt lat="43.6192575" lon="11.6482009"><ele>792.0</ele><time>2026-03-28T11:26:47.424Z</time></trkpt><trkpt lat="43.6194079" lon="11.6480749"><ele>792.0</ele><time>2026-03-28T11:26:48.424Z</time></trkpt><trkpt lat="43.619563" lon="11.6479338"><ele>789.0</ele><time>2026-03-28T11:26:49.424Z</time></trkpt><trkpt lat="43.6197119" lon="11.6477618"><ele>786.0</ele><time>2026-03-28T11:26:50.424Z</time></trkpt><trkpt lat="43.6198633" lon="11.647571"><ele>783.0</ele><time>2026-03-28T11:26:51.424Z</time></trkpt><trkpt lat="43.6200049" lon="11.6473807"><ele>783.0</ele><time>2026-03-28T11:26:52.424Z</time></trkpt><trkpt lat="43.6201365" lon="11.6471865"><ele>783.0</ele><time>2026-03-28T11:26:53.424Z</time></trkpt><trkpt lat="43.6202636" lon="11.6469911"><ele>783.0</ele><time>2026-03-28T11:26:54.424Z</time></trkpt><trkpt lat="43.6203897" lon="11.6468169"><ele>779.0</ele><time>2026-03-28T11:26:55.424Z</time></trkpt><trkpt lat="43.6204987" lon="11.6466607"><ele>775.0</ele><time>2026-03-28T11:26:56.424Z</time></trkpt><trkpt lat="43.6206072" lon="11.646543"><ele>771.0</ele><time>2026-03-28T11:26:57.424Z</time></trkpt><trkpt lat="43.6207022" lon="11.6464692"><ele>767.0</ele><time>2026-03-28T11:26:58.424Z</time></trkpt><trkpt lat="43.620794" lon="11.6464583"><ele>767.0</ele><time>2026-03-28T11:26:59.424Z</time></trkpt><trkpt lat="43.6208807" lon="11.6465146"><ele>767.0</ele><time>2026-03-28T11:27:00.424Z</time></trkpt><trkpt lat="43.620953" lon="11.6465928"><ele>767.0</ele><time>2026-03-28T11:27:01.424Z</time></trkpt><trkpt lat="43.6209884" lon="11.6466845"><ele>767.0</ele><time>2026-03-28T11:27:02.424Z</time></trkpt><trkpt lat="43.6210204" lon="11.6467753"><ele>767.0</ele><time>2026-03-28T11:27:03.424Z</time></trkpt><trkpt lat="43.6211097" lon="11.6466998"><ele>767.0</ele><time>2026-03-28T11:27:05.424Z</time></trkpt><trkpt lat="43.6211165" lon="11.6465497"><ele>767.0</ele><time>2026-03-28T11:27:06.424Z</time></trkpt><trkpt lat="43.6210982" lon="11.6463749"><ele>767.0</ele><time>2026-03-28T11:27:07.424Z</time></trkpt><trkpt lat="43.6210504" lon="11.6462503"><ele>767.0</ele><time>2026-03-28T11:27:08.424Z</time></trkpt><trkpt lat="43.6209735" lon="11.6461767"><ele>767.0</ele><time>2026-03-28T11:27:09.424Z</time></trkpt><trkpt lat="43.6208641" lon="11.646158"><ele>767.0</ele><time>2026-03-28T11:27:10.424Z</time></trkpt><trkpt lat="43.6207422" lon="11.6461731"><ele>767.0</ele><time>2026-03-28T11:27:11.424Z</time></trkpt><trkpt lat="43.6206091" lon="11.6462313"><ele>767.0</ele><time>2026-03-28T11:27:12.424Z</time></trkpt><trkpt lat="43.6204771" lon="11.6462986"><ele>767.0</ele><time>2026-03-28T11:27:13.424Z</time></trkpt><trkpt lat="43.6203502" lon="11.6464015"><ele>767.0</ele><time>2026-03-28T11:27:14.424Z</time></trkpt><trkpt lat="43.6202288" lon="11.6465386"><ele>772.3333333333333</ele><time>2026-03-28T11:27:15.424Z</time></trkpt><trkpt lat="43.6201048" lon="11.6466951"><ele>777.6666666666666</ele><time>2026-03-28T11:27:16.424Z</time></trkpt><trkpt lat="43.6199803" lon="11.6468599"><ele>783.0</ele><time>2026-03-28T11:27:17.424Z</time></trkpt><trkpt lat="43.6198408" lon="11.6470119"><ele>783.0</ele><time>2026-03-28T11:27:18.424Z</time></trkpt><trkpt lat="43.6196739" lon="11.6471486"><ele>783.0</ele><time>2026-03-28T11:27:19.424Z</time></trkpt><trkpt lat="43.6194926" lon="11.6472725"><ele>783.0</ele><time>2026-03-28T11:27:20.424Z</time></trkpt><trkpt lat="43.6193179" lon="11.6473807"><ele>773.6666666666666</ele><time>2026-03-28T11:27:21.424Z</time></trkpt><trkpt lat="43.6191474" lon="11.6474802"><ele>764.3333333333333</ele><time>2026-03-28T11:27:22.424Z</time></trkpt><trkpt lat="43.6189855" lon="11.6475464"><ele>755.0</ele><time>2026-03-28T11:27:23.424Z</time></trkpt><trkpt lat="43.6188224" lon="11.6476081"><ele>755.0</ele><time>2026-03-28T11:27:24.424Z</time></trkpt><trkpt lat="43.6186632" lon="11.6476632"><ele>755.0</ele><time>2026-03-28T11:27:25.424Z</time></trkpt><trkpt lat="43.6185044" lon="11.6476994"><ele>755.0</ele><time>2026-03-28T11:27:26.424Z</time></trkpt><trkpt lat="43.6183499" lon="11.6477191"><ele>750.75</ele><time>2026-03-28T11:27:27.424Z</time></trkpt><trkpt lat="43.6182008" lon="11.6477008"><ele>746.5</ele><time>2026-03-28T11:27:28.424Z</time></trkpt><trkpt lat="43.6180922" lon="11.6476629"><ele>742.25</ele><time>2026-03-28T11:27:29.424Z</time></trkpt><trkpt lat="43.617997" lon="11.6476545"><ele>738.0</ele><time>2026-03-28T11:27:30.424Z</time></trkpt><trkpt lat="43.6179086" lon="11.6476967"><ele>737.25</ele><time>2026-03-28T11:27:31.424Z</time></trkpt><trkpt lat="43.6178132" lon="11.6477879"><ele>736.5</ele><time>2026-03-28T11:27:32.424Z</time></trkpt><trkpt lat="43.6177166" lon="11.6478832"><ele>735.75</ele><time>2026-03-28T11:27:33.424Z</time></trkpt><trkpt lat="43.6176248" lon="11.6479901"><ele>735.0</ele><time>2026-03-28T11:27:34.424Z</time></trkpt><trkpt lat="43.6175608" lon="11.6481281"><ele>735.0</ele><time>2026-03-28T11:27:35.424Z</time></trkpt><trkpt lat="43.617528" lon="11.648275"><ele>735.0</ele><time>2026-03-28T11:27:36.424Z</time></trkpt><trkpt lat="43.6175128" lon="11.6484118"><ele>735.0</ele><time>2026-03-28T11:27:37.424Z</time></trkpt><trkpt lat="43.617497" lon="11.6485072"><ele>735.0</ele><time>2026-03-28T11:27:38.424Z</time></trkpt><trkpt lat="43.6173907" lon="11.648557"><ele>735.0</ele><time>2026-03-28T11:27:40.424Z</time></trkpt><trkpt lat="43.6173426" lon="11.6484738"><ele>735.0</ele><time>2026-03-28T11:27:41.424Z</time></trkpt><trkpt lat="43.6173426" lon="11.648306"><ele>735.0</ele><time>2026-03-28T11:27:42.424Z</time></trkpt><trkpt lat="43.6173668" lon="11.6481254"><ele>735.0</ele><time>2026-03-28T11:27:43.424Z</time></trkpt><trkpt lat="43.6173913" lon="11.6479283"><ele>735.0</ele><time>2026-03-28T11:27:44.424Z</time></trkpt><trkpt lat="43.6174205" lon="11.6477251"><ele>732.5</ele><time>2026-03-28T11:27:45.424Z</time></trkpt><trkpt lat="43.6174607" lon="11.6475256"><ele>730.0</ele><time>2026-03-28T11:27:46.424Z</time></trkpt><trkpt lat="43.6175001" lon="11.6473409"><ele>727.5</ele><time>2026-03-28T11:27:47.424Z</time></trkpt><trkpt lat="43.617542" lon="11.6471777"><ele>725.0</ele><time>2026-03-28T11:27:48.424Z</time></trkpt><trkpt lat="43.6175846" lon="11.6470446"><ele>722.5</ele><time>2026-03-28T11:27:49.425Z</time></trkpt><trkpt lat="43.6176146" lon="11.6469122"><ele>720.0</ele><time>2026-03-28T11:27:50.424Z</time></trkpt><trkpt lat="43.6175999" lon="11.6467876"><ele>717.5</ele><time>2026-03-28T11:27:51.424Z</time></trkpt><trkpt lat="43.6175513" lon="11.6466411"><ele>715.0</ele><time>2026-03-28T11:27:52.424Z</time></trkpt><trkpt lat="43.6174797" lon="11.6464641"><ele>715.0</ele><time>2026-03-28T11:27:53.424Z</time></trkpt><trkpt lat="43.6173988" lon="11.6462662"><ele>715.0</ele><time>2026-03-28T11:27:54.424Z</time></trkpt><trkpt lat="43.617322" lon="11.6460535"><ele>715.0</ele><time>2026-03-28T11:27:55.424Z</time></trkpt><trkpt lat="43.617238" lon="11.6458293"><ele>712.0</ele><time>2026-03-28T11:27:56.424Z</time></trkpt><trkpt lat="43.6171645" lon="11.6456091"><ele>709.0</ele><time>2026-03-28T11:27:57.424Z</time></trkpt><trkpt lat="43.617088" lon="11.6453982"><ele>706.0</ele><time>2026-03-28T11:27:58.424Z</time></trkpt><trkpt lat="43.6170127" lon="11.6451955"><ele>704.75</ele><time>2026-03-28T11:27:59.424Z</time></trkpt><trkpt lat="43.6169415" lon="11.6450212"><ele>703.5</ele><time>2026-03-28T11:28:00.424Z</time></trkpt><trkpt lat="43.6168573" lon="11.6448799"><ele>702.25</ele><time>2026-03-28T11:28:01.424Z</time></trkpt><trkpt lat="43.6167552" lon="11.6447743"><ele>701.0</ele><time>2026-03-28T11:28:02.424Z</time></trkpt><trkpt lat="43.6166442" lon="11.6447033"><ele>701.0</ele><time>2026-03-28T11:28:03.424Z</time></trkpt><trkpt lat="43.6165246" lon="11.6446945"><ele>701.0</ele><time>2026-03-28T11:28:04.424Z</time></trkpt><trkpt lat="43.6163941" lon="11.6447636"><ele>701.0</ele><time>2026-03-28T11:28:05.424Z</time></trkpt><trkpt lat="43.6162764" lon="11.6448863"><ele>701.0</ele><time>2026-03-28T11:28:06.424Z</time></trkpt><trkpt lat="43.6161926" lon="11.6450435"><ele>696.6666666666666</ele><time>2026-03-28T11:28:07.424Z</time></trkpt><trkpt lat="43.6161174" lon="11.6452229"><ele>692.3333333333334</ele><time>2026-03-28T11:28:08.424Z</time></trkpt><trkpt lat="43.6160337" lon="11.6454089"><ele>688.0</ele><time>2026-03-28T11:28:09.424Z</time></trkpt><trkpt lat="43.6159246" lon="11.6455948"><ele>688.0</ele><time>2026-03-28T11:28:10.424Z</time></trkpt><trkpt lat="43.6158326" lon="11.645781"><ele>688.0</ele><time>2026-03-28T11:28:11.425Z</time></trkpt><trkpt lat="43.6157595" lon="11.6459571"><ele>688.0</ele><time>2026-03-28T11:28:12.424Z</time></trkpt><trkpt lat="43.6157142" lon="11.6461707"><ele>687.0</ele><time>2026-03-28T11:28:13.424Z</time></trkpt><trkpt lat="43.6157061" lon="11.6463834"><ele>686.0</ele><time>2026-03-28T11:28:14.424Z</time></trkpt><trkpt lat="43.6157649" lon="11.6465972"><ele>685.0</ele><time>2026-03-28T11:28:15.424Z</time></trkpt><trkpt lat="43.6158301" lon="11.6468098"><ele>683.3333333333334</ele><time>2026-03-28T11:28:16.424Z</time></trkpt><trkpt lat="43.6158877" lon="11.6470316"><ele>681.6666666666666</ele><time>2026-03-28T11:28:17.424Z</time></trkpt><trkpt lat="43.6159053" lon="11.6472882"><ele>680.0</ele><time>2026-03-28T11:28:18.424Z</time></trkpt><trkpt lat="43.6158833" lon="11.6475713"><ele>679.6666666666666</ele><time>2026-03-28T11:28:19.424Z</time></trkpt><trkpt lat="43.6158416" lon="11.6478233"><ele>679.3333333333334</ele><time>2026-03-28T11:28:20.424Z</time></trkpt><trkpt lat="43.6158049" lon="11.6480573"><ele>679.0</ele><time>2026-03-28T11:28:21.425Z</time></trkpt><trkpt lat="43.6157942" lon="11.6482626"><ele>679.0</ele><time>2026-03-28T11:28:22.424Z</time></trkpt><trkpt lat="43.6157799" lon="11.6484409"><ele>679.0</ele><time>2026-03-28T11:28:23.424Z</time></trkpt><trkpt lat="43.6157612" lon="11.6486055"><ele>679.0</ele><time>2026-03-28T11:28:24.424Z</time></trkpt><trkpt lat="43.615701" lon="11.6487622"><ele>679.0</ele><time>2026-03-28T11:28:25.424Z</time></trkpt><trkpt lat="43.6155874" lon="11.6488734"><ele>678.5</ele><time>2026-03-28T11:28:26.424Z</time></trkpt><trkpt lat="43.6154513" lon="11.6489256"><ele>678.0</ele><time>2026-03-28T11:28:27.424Z</time></trkpt><trkpt lat="43.6153043" lon="11.6488983"><ele>677.5</ele><time>2026-03-28T11:28:28.424Z</time></trkpt><trkpt lat="43.6151909" lon="11.6487836"><ele>677.0</ele><time>2026-03-28T11:28:29.424Z</time></trkpt><trkpt lat="43.6150985" lon="11.6486155"><ele>673.3333333333333</ele><time>2026-03-28T11:28:30.424Z</time></trkpt><trkpt lat="43.6150329" lon="11.648411"><ele>669.6666666666666</ele><time>2026-03-28T11:28:31.424Z</time></trkpt><trkpt lat="43.6149718" lon="11.6482028"><ele>666.0</ele><time>2026-03-28T11:28:32.424Z</time></trkpt><trkpt lat="43.6149227" lon="11.647987"><ele>666.0</ele><time>2026-03-28T11:28:33.424Z</time></trkpt><trkpt lat="43.6148745" lon="11.6477886"><ele>666.0</ele><time>2026-03-28T11:28:34.424Z</time></trkpt><trkpt lat="43.6148157" lon="11.6476104"><ele>666.0</ele><time>2026-03-28T11:28:35.424Z</time></trkpt><trkpt lat="43.614734" lon="11.6474667"><ele>666.0</ele><time>2026-03-28T11:28:36.424Z</time></trkpt><trkpt lat="43.6146287" lon="11.647367"><ele>660.0</ele><time>2026-03-28T11:28:37.424Z</time></trkpt><trkpt lat="43.6144779" lon="11.6473613"><ele>654.0</ele><time>2026-03-28T11:28:38.424Z</time></trkpt><trkpt lat="43.6143176" lon="11.6474388"><ele>648.0</ele><time>2026-03-28T11:28:39.424Z</time></trkpt><trkpt lat="43.6141585" lon="11.6475418"><ele>648.0</ele><time>2026-03-28T11:28:40.424Z</time></trkpt><trkpt lat="43.6140067" lon="11.6476389"><ele>648.0</ele><time>2026-03-28T11:28:41.424Z</time></trkpt><trkpt lat="43.6138664" lon="11.6477586"><ele>648.0</ele><time>2026-03-28T11:28:42.424Z</time></trkpt><trkpt lat="43.613739" lon="11.647919"><ele>645.0</ele><time>2026-03-28T11:28:43.424Z</time></trkpt><trkpt lat="43.6136324" lon="11.6481192"><ele>642.0</ele><time>2026-03-28T11:28:44.424Z</time></trkpt><trkpt lat="43.6135354" lon="11.6483072"><ele>639.0</ele><time>2026-03-28T11:28:45.424Z</time></trkpt><trkpt lat="43.613441" lon="11.6484888"><ele>639.75</ele><time>2026-03-28T11:28:46.424Z</time></trkpt><trkpt lat="43.6133791" lon="11.6486829"><ele>640.5</ele><time>2026-03-28T11:28:47.425Z</time></trkpt><trkpt lat="43.6133402" lon="11.6488866"><ele>641.25</ele><time>2026-03-28T11:28:48.424Z</time></trkpt><trkpt lat="43.613354" lon="11.6490192"><ele>642.0</ele><time>2026-03-28T11:28:49.424Z</time></trkpt><trkpt lat="43.6134122" lon="11.6491523"><ele>642.0</ele><time>2026-03-28T11:28:50.424Z</time></trkpt><trkpt lat="43.6134569" lon="11.6492816"><ele>642.0</ele><time>2026-03-28T11:28:51.424Z</time></trkpt><trkpt lat="43.6135204" lon="11.6494121"><ele>642.0</ele><time>2026-03-28T11:28:52.424Z</time></trkpt><trkpt lat="43.613582" lon="11.6495598"><ele>642.0</ele><time>2026-03-28T11:28:53.424Z</time></trkpt><trkpt lat="43.6136421" lon="11.6497063"><ele>644.25</ele><time>2026-03-28T11:28:54.424Z</time></trkpt><trkpt lat="43.6136971" lon="11.6498522"><ele>646.5</ele><time>2026-03-28T11:28:55.424Z</time></trkpt><trkpt lat="43.6137591" lon="11.649999"><ele>648.75</ele><time>2026-03-28T11:28:56.424Z</time></trkpt><trkpt lat="43.6138134" lon="11.6501428"><ele>651.0</ele><time>2026-03-28T11:28:57.424Z</time></trkpt><trkpt lat="43.6138698" lon="11.650287"><ele>646.25</ele><time>2026-03-28T11:28:58.424Z</time></trkpt><trkpt lat="43.6139347" lon="11.6504244"><ele>641.5</ele><time>2026-03-28T11:28:59.424Z</time></trkpt><trkpt lat="43.6140089" lon="11.6505425"><ele>636.75</ele><time>2026-03-28T11:29:00.424Z</time></trkpt><trkpt lat="43.614098" lon="11.6506472"><ele>632.0</ele><time>2026-03-28T11:29:01.424Z</time></trkpt><trkpt lat="43.6141754" lon="11.6507595"><ele>632.0</ele><time>2026-03-28T11:29:02.424Z</time></trkpt><trkpt lat="43.614232" lon="11.6508917"><ele>632.0</ele><time>2026-03-28T11:29:03.424Z</time></trkpt><trkpt lat="43.6142724" lon="11.6510211"><ele>632.0</ele><time>2026-03-28T11:29:04.424Z</time></trkpt><trkpt lat="43.6143121" lon="11.6511182"><ele>632.0</ele><time>2026-03-28T11:29:05.424Z</time></trkpt><trkpt lat="43.614384" lon="11.6511757"><ele>632.0</ele><time>2026-03-28T11:29:06.424Z</time></trkpt><trkpt lat="43.6144811" lon="11.6512154"><ele>630.6</ele><time>2026-03-28T11:29:07.424Z</time></trkpt><trkpt lat="43.6145916" lon="11.6512497"><ele>629.2</ele><time>2026-03-28T11:29:08.424Z</time></trkpt><trkpt lat="43.6147048" lon="11.6512865"><ele>627.8</ele><time>2026-03-28T11:29:09.424Z</time></trkpt><trkpt lat="43.6147904" lon="11.6512959"><ele>626.4</ele><time>2026-03-28T11:29:10.424Z</time></trkpt><trkpt lat="43.6148633" lon="11.6512653"><ele>625.0</ele><time>2026-03-28T11:29:11.424Z</time></trkpt><trkpt lat="43.6149412" lon="11.6512717"><ele>625.0</ele><time>2026-03-28T11:29:12.424Z</time></trkpt><trkpt lat="43.6150094" lon="11.6513164"><ele>625.0</ele><time>2026-03-28T11:29:13.424Z</time></trkpt><trkpt lat="43.6150414" lon="11.6514233"><ele>625.0</ele><time>2026-03-28T11:29:14.424Z</time></trkpt><trkpt lat="43.6150226" lon="11.6515671"><ele>625.0</ele><time>2026-03-28T11:29:15.424Z</time></trkpt><trkpt lat="43.6150029" lon="11.6517418"><ele>625.0</ele><time>2026-03-28T11:29:16.424Z</time></trkpt><trkpt lat="43.6149751" lon="11.6519174"><ele>625.5</ele><time>2026-03-28T11:29:17.424Z</time></trkpt><trkpt lat="43.6149447" lon="11.652092"><ele>626.0</ele><time>2026-03-28T11:29:18.424Z</time></trkpt><trkpt lat="43.6149296" lon="11.6522531"><ele>626.5</ele><time>2026-03-28T11:29:19.424Z</time></trkpt><trkpt lat="43.6149109" lon="11.6524123"><ele>627.0</ele><time>2026-03-28T11:29:20.424Z</time></trkpt><trkpt lat="43.6149035" lon="11.6525528"><ele>627.0</ele><time>2026-03-28T11:29:21.424Z</time></trkpt><trkpt lat="43.6148925" lon="11.6526678"><ele>627.0</ele><time>2026-03-28T11:29:22.424Z</time></trkpt><trkpt lat="43.6148333" lon="11.6527412"><ele>627.0</ele><time>2026-03-28T11:29:24.424Z</time></trkpt><trkpt lat="43.6147571" lon="11.6525972"><ele>627.0</ele><time>2026-03-28T11:29:26.424Z</time></trkpt><trkpt lat="43.6147618" lon="11.6524442"><ele>627.0</ele><time>2026-03-28T11:29:27.424Z</time></trkpt><trkpt lat="43.6147778" lon="11.652316"><ele>627.0</ele><time>2026-03-28T11:29:28.424Z</time></trkpt><trkpt lat="43.6147767" lon="11.6522287"><ele>627.0</ele><time>2026-03-28T11:29:29.424Z</time></trkpt><trkpt lat="43.614734" lon="11.6521396"><ele>627.0</ele><time>2026-03-28T11:29:31.424Z</time></trkpt><trkpt lat="43.6146727" lon="11.6522039"><ele>627.0</ele><time>2026-03-28T11:29:32.424Z</time></trkpt><trkpt lat="43.6146555" lon="11.6523262"><ele>627.0</ele><time>2026-03-28T11:29:33.424Z</time></trkpt><trkpt lat="43.6146651" lon="11.6524925"><ele>627.0</ele><time>2026-03-28T11:29:34.424Z</time></trkpt><trkpt lat="43.6146439" lon="11.6526592"><ele>628.5</ele><time>2026-03-28T11:29:35.424Z</time></trkpt><trkpt lat="43.61459" lon="11.6528261"><ele>630.0</ele><time>2026-03-28T11:29:36.424Z</time></trkpt><trkpt lat="43.6145362" lon="11.6529986"><ele>631.5</ele><time>2026-03-28T11:29:37.424Z</time></trkpt><trkpt lat="43.6144779" lon="11.6531729"><ele>633.0</ele><time>2026-03-28T11:29:38.424Z</time></trkpt><trkpt lat="43.6144279" lon="11.653331"><ele>621.0</ele><time>2026-03-28T11:29:39.424Z</time></trkpt><trkpt lat="43.6143688" lon="11.6534862"><ele>609.0</ele><time>2026-03-28T11:29:40.424Z</time></trkpt><trkpt lat="43.6143094" lon="11.653622"><ele>597.0</ele><time>2026-03-28T11:29:41.424Z</time></trkpt><trkpt lat="43.614263" lon="11.653757"><ele>585.0</ele><time>2026-03-28T11:29:42.424Z</time></trkpt><trkpt lat="43.6142316" lon="11.6538973"><ele>585.0</ele><time>2026-03-28T11:29:43.424Z</time></trkpt><trkpt lat="43.6142567" lon="11.6540615"><ele>585.0</ele><time>2026-03-28T11:29:44.424Z</time></trkpt><trkpt lat="43.6143264" lon="11.6542314"><ele>585.0</ele><time>2026-03-28T11:29:45.424Z</time></trkpt><trkpt lat="43.6144012" lon="11.6544252"><ele>585.0</ele><time>2026-03-28T11:29:46.424Z</time></trkpt><trkpt lat="43.6144441" lon="11.6546184"><ele>585.0</ele><time>2026-03-28T11:29:47.424Z</time></trkpt><trkpt lat="43.6144719" lon="11.6548046"><ele>585.0</ele><time>2026-03-28T11:29:48.424Z</time></trkpt><trkpt lat="43.6144898" lon="11.6549919"><ele>585.0</ele><time>2026-03-28T11:29:49.424Z</time></trkpt><trkpt lat="43.6145145" lon="11.6551804"><ele>585.0</ele><time>2026-03-28T11:29:50.424Z</time></trkpt><trkpt lat="43.6145576" lon="11.6553341"><ele>590.0</ele><time>2026-03-28T11:29:51.424Z</time></trkpt><trkpt lat="43.6145971" lon="11.6554803"><ele>595.0</ele><time>2026-03-28T11:29:52.424Z</time></trkpt><trkpt lat="43.6146213" lon="11.6556064"><ele>600.0</ele><time>2026-03-28T11:29:53.424Z</time></trkpt><trkpt lat="43.614628" lon="11.6557098"><ele>605.0</ele><time>2026-03-28T11:29:54.424Z</time></trkpt><trkpt lat="43.6146036" lon="11.6558073"><ele>610.0</ele><time>2026-03-28T11:29:55.424Z</time></trkpt><trkpt lat="43.6144431" lon="11.6557827"><ele>610.0</ele><time>2026-03-28T11:29:57.424Z</time></trkpt><trkpt lat="43.6143583" lon="11.6556845"><ele>610.0</ele><time>2026-03-28T11:29:58.424Z</time></trkpt><trkpt lat="43.6142765" lon="11.6555382"><ele>610.0</ele><time>2026-03-28T11:29:59.424Z</time></trkpt><trkpt lat="43.6142144" lon="11.6553969"><ele>610.0</ele><time>2026-03-28T11:30:00.424Z</time></trkpt><trkpt lat="43.6141694" lon="11.6552632"><ele>603.75</ele><time>2026-03-28T11:30:01.424Z</time></trkpt><trkpt lat="43.6141087" lon="11.655134"><ele>597.5</ele><time>2026-03-28T11:30:02.424Z</time></trkpt><trkpt lat="43.6140131" lon="11.6550231"><ele>591.25</ele><time>2026-03-28T11:30:03.424Z</time></trkpt><trkpt lat="43.6138888" lon="11.6549066"><ele>585.0</ele><time>2026-03-28T11:30:04.424Z</time></trkpt><trkpt lat="43.6137594" lon="11.6547349"><ele>585.0</ele><time>2026-03-28T11:30:05.424Z</time></trkpt><trkpt lat="43.6136657" lon="11.654532"><ele>585.0</ele><time>2026-03-28T11:30:06.424Z</time></trkpt><trkpt lat="43.613586" lon="11.6543446"><ele>585.0</ele><time>2026-03-28T11:30:07.424Z</time></trkpt><trkpt lat="43.6134765" lon="11.6541839"><ele>582.3333333333334</ele><time>2026-03-28T11:30:08.424Z</time></trkpt><trkpt lat="43.6133592" lon="11.654031"><ele>579.6666666666667</ele><time>2026-03-28T11:30:09.424Z</time></trkpt><trkpt lat="43.6132612" lon="11.6538655"><ele>577.0</ele><time>2026-03-28T11:30:10.424Z</time></trkpt><trkpt lat="43.6132092" lon="11.6536673"><ele>572.0</ele><time>2026-03-28T11:30:11.424Z</time></trkpt><trkpt lat="43.6132038" lon="11.6534513"><ele>567.0</ele><time>2026-03-28T11:30:12.424Z</time></trkpt><trkpt lat="43.613171" lon="11.6532519"><ele>562.0</ele><time>2026-03-28T11:30:13.424Z</time></trkpt><trkpt lat="43.6131054" lon="11.6530716"><ele>562.0</ele><time>2026-03-28T11:30:14.424Z</time></trkpt><trkpt lat="43.6130006" lon="11.652908"><ele>562.0</ele><time>2026-03-28T11:30:15.424Z</time></trkpt><trkpt lat="43.6128682" lon="11.6527609"><ele>562.0</ele><time>2026-03-28T11:30:16.424Z</time></trkpt><trkpt lat="43.612743" lon="11.6526022"><ele>563.3333333333334</ele><time>2026-03-28T11:30:17.424Z</time></trkpt><trkpt lat="43.6126247" lon="11.6524355"><ele>564.6666666666666</ele><time>2026-03-28T11:30:18.424Z</time></trkpt><trkpt lat="43.6125129" lon="11.6522627"><ele>566.0</ele><time>2026-03-28T11:30:19.424Z</time></trkpt><trkpt lat="43.6123989" lon="11.6520849"><ele>564.0</ele><time>2026-03-28T11:30:20.424Z</time></trkpt><trkpt lat="43.6122817" lon="11.6519082"><ele>562.0</ele><time>2026-03-28T11:30:21.424Z</time></trkpt><trkpt lat="43.6121561" lon="11.6517412"><ele>560.0</ele><time>2026-03-28T11:30:22.424Z</time></trkpt><trkpt lat="43.6120171" lon="11.6515782"><ele>559.0</ele><time>2026-03-28T11:30:23.424Z</time></trkpt><trkpt lat="43.6118728" lon="11.6514202"><ele>558.0</ele><time>2026-03-28T11:30:24.424Z</time></trkpt><trkpt lat="43.6117338" lon="11.6512601"><ele>557.0</ele><time>2026-03-28T11:30:25.424Z</time></trkpt><trkpt lat="43.6116048" lon="11.6510995"><ele>553.3333333333333</ele><time>2026-03-28T11:30:26.424Z</time></trkpt><trkpt lat="43.6114884" lon="11.6509431"><ele>549.6666666666666</ele><time>2026-03-28T11:30:27.424Z</time></trkpt><trkpt lat="43.6113774" lon="11.650784"><ele>546.0</ele><time>2026-03-28T11:30:28.424Z</time></trkpt><trkpt lat="43.6112694" lon="11.6506318"><ele>543.0</ele><time>2026-03-28T11:30:29.424Z</time></trkpt><trkpt lat="43.6111458" lon="11.6505043"><ele>540.0</ele><time>2026-03-28T11:30:30.424Z</time></trkpt><trkpt lat="43.6110226" lon="11.6503845"><ele>537.0</ele><time>2026-03-28T11:30:31.424Z</time></trkpt><trkpt lat="43.6108884" lon="11.6502679"><ele>536.0</ele><time>2026-03-28T11:30:32.424Z</time></trkpt><trkpt lat="43.610755" lon="11.6501548"><ele>535.0</ele><time>2026-03-28T11:30:33.425Z</time></trkpt><trkpt lat="43.6106287" lon="11.65003"><ele>534.0</ele><time>2026-03-28T11:30:34.424Z</time></trkpt><trkpt lat="43.6104999" lon="11.6498605"><ele>534.0</ele><time>2026-03-28T11:30:35.424Z</time></trkpt><trkpt lat="43.6103962" lon="11.6496698"><ele>534.0</ele><time>2026-03-28T11:30:36.424Z</time></trkpt><trkpt lat="43.6103091" lon="11.6494574"><ele>534.0</ele><time>2026-03-28T11:30:37.424Z</time></trkpt><trkpt lat="43.6102162" lon="11.6492415"><ele>531.0</ele><time>2026-03-28T11:30:38.424Z</time></trkpt><trkpt lat="43.6101219" lon="11.6490244"><ele>528.0</ele><time>2026-03-28T11:30:39.424Z</time></trkpt><trkpt lat="43.6100445" lon="11.6487934"><ele>525.0</ele><time>2026-03-28T11:30:40.424Z</time></trkpt><trkpt lat="43.6099768" lon="11.6485584"><ele>522.6666666666666</ele><time>2026-03-28T11:30:41.424Z</time></trkpt><trkpt lat="43.6099282" lon="11.6483188"><ele>520.3333333333333</ele><time>2026-03-28T11:30:42.424Z</time></trkpt><trkpt lat="43.6099024" lon="11.6480637"><ele>518.0</ele><time>2026-03-28T11:30:43.424Z</time></trkpt><trkpt lat="43.6098885" lon="11.6478003"><ele>517.3333333333333</ele><time>2026-03-28T11:30:44.424Z</time></trkpt><trkpt lat="43.6098675" lon="11.6475334"><ele>516.6666666666666</ele><time>2026-03-28T11:30:45.425Z</time></trkpt><trkpt lat="43.6098301" lon="11.6472794"><ele>516.0</ele><time>2026-03-28T11:30:46.424Z</time></trkpt><trkpt lat="43.6097893" lon="11.6470435"><ele>514.75</ele><time>2026-03-28T11:30:47.424Z</time></trkpt><trkpt lat="43.6097689" lon="11.6468073"><ele>513.5</ele><time>2026-03-28T11:30:48.424Z</time></trkpt><trkpt lat="43.609761" lon="11.6466009"><ele>512.25</ele><time>2026-03-28T11:30:49.424Z</time></trkpt><trkpt lat="43.6097608" lon="11.6464257"><ele>511.0</ele><time>2026-03-28T11:30:50.424Z</time></trkpt><trkpt lat="43.6097672" lon="11.6462683"><ele>511.0</ele><time>2026-03-28T11:30:51.424Z</time></trkpt><trkpt lat="43.6098065" lon="11.6461354"><ele>511.0</ele><time>2026-03-28T11:30:52.424Z</time></trkpt><trkpt lat="43.6098899" lon="11.6460353"><ele>511.0</ele><time>2026-03-28T11:30:53.424Z</time></trkpt><trkpt lat="43.6100004" lon="11.6459617"><ele>511.0</ele><time>2026-03-28T11:30:54.424Z</time></trkpt><trkpt lat="43.6101749" lon="11.6459113"><ele>509.33333333333337</ele><time>2026-03-28T11:30:55.424Z</time></trkpt><trkpt lat="43.6103921" lon="11.6458684"><ele>507.66666666666663</ele><time>2026-03-28T11:30:56.424Z</time></trkpt><trkpt lat="43.6105788" lon="11.6458388"><ele>506.0</ele><time>2026-03-28T11:30:57.424Z</time></trkpt><trkpt lat="43.6107674" lon="11.6458033"><ele>506.0</ele><time>2026-03-28T11:30:58.424Z</time></trkpt><trkpt lat="43.6109322" lon="11.6457977"><ele>506.0</ele><time>2026-03-28T11:30:59.424Z</time></trkpt><trkpt lat="43.6110722" lon="11.6458153"><ele>506.0</ele><time>2026-03-28T11:31:00.424Z</time></trkpt><trkpt lat="43.6112076" lon="11.645774"><ele>506.0</ele><time>2026-03-28T11:31:01.424Z</time></trkpt><trkpt lat="43.6113399" lon="11.6456643"><ele>504.75</ele><time>2026-03-28T11:31:02.424Z</time></trkpt><trkpt lat="43.611459" lon="11.6455371"><ele>503.5</ele><time>2026-03-28T11:31:03.424Z</time></trkpt><trkpt lat="43.611561" lon="11.6453978"><ele>502.25</ele><time>2026-03-28T11:31:04.424Z</time></trkpt><trkpt lat="43.6116298" lon="11.6452164"><ele>501.0</ele><time>2026-03-28T11:31:05.424Z</time></trkpt><trkpt lat="43.6116908" lon="11.6450129"><ele>500.33333333333337</ele><time>2026-03-28T11:31:06.424Z</time></trkpt><trkpt lat="43.6117737" lon="11.6448124"><ele>499.6666666666667</ele><time>2026-03-28T11:31:07.424Z</time></trkpt><trkpt lat="43.6118748" lon="11.644627"><ele>499.0</ele><time>2026-03-28T11:31:08.424Z</time></trkpt><trkpt lat="43.6119904" lon="11.6444598"><ele>494.6666666666667</ele><time>2026-03-28T11:31:09.424Z</time></trkpt><trkpt lat="43.6120956" lon="11.6443035"><ele>490.33333333333337</ele><time>2026-03-28T11:31:10.424Z</time></trkpt><trkpt lat="43.6121883" lon="11.6441147"><ele>486.0</ele><time>2026-03-28T11:31:11.424Z</time></trkpt><trkpt lat="43.6122563" lon="11.6439044"><ele>486.0</ele><time>2026-03-28T11:31:12.424Z</time></trkpt><trkpt lat="43.6123182" lon="11.6436727"><ele>486.0</ele><time>2026-03-28T11:31:13.424Z</time></trkpt><trkpt lat="43.6123664" lon="11.6434291"><ele>486.0</ele><time>2026-03-28T11:31:14.424Z</time></trkpt><trkpt lat="43.6124094" lon="11.6431964"><ele>484.33333333333337</ele><time>2026-03-28T11:31:15.424Z</time></trkpt><trkpt lat="43.6124294" lon="11.6429602"><ele>482.6666666666667</ele><time>2026-03-28T11:31:16.424Z</time></trkpt><trkpt lat="43.6124367" lon="11.6427214"><ele>481.0</ele><time>2026-03-28T11:31:17.424Z</time></trkpt><trkpt lat="43.6124129" lon="11.6424641"><ele>480.0</ele><time>2026-03-28T11:31:18.424Z</time></trkpt><trkpt lat="43.6123639" lon="11.642194"><ele>479.0</ele><time>2026-03-28T11:31:19.424Z</time></trkpt><trkpt lat="43.6123152" lon="11.6419338"><ele>478.0</ele><time>2026-03-28T11:31:20.424Z</time></trkpt><trkpt lat="43.6122768" lon="11.6416937"><ele>476.6666666666667</ele><time>2026-03-28T11:31:21.424Z</time></trkpt><trkpt lat="43.6122387" lon="11.6414718"><ele>475.33333333333337</ele><time>2026-03-28T11:31:22.424Z</time></trkpt><trkpt lat="43.6121888" lon="11.6412652"><ele>474.0</ele><time>2026-03-28T11:31:23.425Z</time></trkpt><trkpt lat="43.612125" lon="11.6410735"><ele>474.0</ele><time>2026-03-28T11:31:24.424Z</time></trkpt><trkpt lat="43.6120361" lon="11.6409212"><ele>474.0</ele><time>2026-03-28T11:31:25.424Z</time></trkpt><trkpt lat="43.6119176" lon="11.6407953"><ele>474.0</ele><time>2026-03-28T11:31:26.424Z</time></trkpt><trkpt lat="43.6118055" lon="11.6406497"><ele>474.0</ele><time>2026-03-28T11:31:27.424Z</time></trkpt><trkpt lat="43.6117012" lon="11.6405045"><ele>471.75</ele><time>2026-03-28T11:31:28.424Z</time></trkpt><trkpt lat="43.6115825" lon="11.6403757"><ele>469.5</ele><time>2026-03-28T11:31:29.424Z</time></trkpt><trkpt lat="43.6114597" lon="11.6402597"><ele>467.25</ele><time>2026-03-28T11:31:30.424Z</time></trkpt><trkpt lat="43.6113283" lon="11.6401638"><ele>465.0</ele><time>2026-03-28T11:31:31.424Z</time></trkpt><trkpt lat="43.6111993" lon="11.6400868"><ele>463.25</ele><time>2026-03-28T11:31:32.424Z</time></trkpt><trkpt lat="43.6110817" lon="11.6400171"><ele>461.5</ele><time>2026-03-28T11:31:33.424Z</time></trkpt><trkpt lat="43.6109742" lon="11.6399533"><ele>459.75</ele><time>2026-03-28T11:31:34.424Z</time></trkpt><trkpt lat="43.6108829" lon="11.6398894"><ele>458.0</ele><time>2026-03-28T11:31:35.424Z</time></trkpt><trkpt lat="43.6108087" lon="11.6397869"><ele>458.0</ele><time>2026-03-28T11:31:36.424Z</time></trkpt><trkpt lat="43.6107486" lon="11.6396705"><ele>458.0</ele><time>2026-03-28T11:31:37.424Z</time></trkpt><trkpt lat="43.6106869" lon="11.6395458"><ele>458.0</ele><time>2026-03-28T11:31:38.424Z</time></trkpt><trkpt lat="43.6106231" lon="11.6394069"><ele>458.0</ele><time>2026-03-28T11:31:39.424Z</time></trkpt><trkpt lat="43.6105519" lon="11.6392545"><ele>458.0</ele><time>2026-03-28T11:31:40.424Z</time></trkpt><trkpt lat="43.6104676" lon="11.6391076"><ele>458.0</ele><time>2026-03-28T11:31:41.424Z</time></trkpt><trkpt lat="43.610379" lon="11.6389584"><ele>458.0</ele><time>2026-03-28T11:31:42.424Z</time></trkpt><trkpt lat="43.61029" lon="11.6388062"><ele>458.0</ele><time>2026-03-28T11:31:43.424Z</time></trkpt><trkpt lat="43.6101987" lon="11.6386752"><ele>453.0</ele><time>2026-03-28T11:31:44.424Z</time></trkpt><trkpt lat="43.6101079" lon="11.6385471"><ele>448.0</ele><time>2026-03-28T11:31:45.424Z</time></trkpt><trkpt lat="43.6100128" lon="11.6384263"><ele>443.0</ele><time>2026-03-28T11:31:46.424Z</time></trkpt><trkpt lat="43.6099538" lon="11.6383257"><ele>438.0</ele><time>2026-03-28T11:31:47.424Z</time></trkpt><trkpt lat="43.6098954" lon="11.6382018"><ele>438.0</ele><time>2026-03-28T11:31:49.424Z</time></trkpt><trkpt lat="43.60984" lon="11.6381263"><ele>438.0</ele><time>2026-03-28T11:31:52.424Z</time></trkpt><trkpt lat="43.6096505" lon="11.6380647"><ele>438.0</ele><time>2026-03-28T11:32:34.424Z</time></trkpt><trkpt lat="43.6094983" lon="11.6379536"><ele>438.0</ele><time>2026-03-28T11:32:35.424Z</time></trkpt><trkpt lat="43.6093357" lon="11.6378481"><ele>432.66666666666663</ele><time>2026-03-28T11:32:36.424Z</time></trkpt><trkpt lat="43.6091566" lon="11.6377044"><ele>427.3333333333333</ele><time>2026-03-28T11:32:37.424Z</time></trkpt><trkpt lat="43.6089673" lon="11.6375725"><ele>422.0</ele><time>2026-03-28T11:32:38.424Z</time></trkpt><trkpt lat="43.6087965" lon="11.6374521"><ele>422.0</ele><time>2026-03-28T11:32:39.424Z</time></trkpt><trkpt lat="43.6086588" lon="11.6373495"><ele>422.0</ele><time>2026-03-28T11:32:40.424Z</time></trkpt><trkpt lat="43.6085381" lon="11.6372615"><ele>422.0</ele><time>2026-03-28T11:32:41.424Z</time></trkpt><trkpt lat="43.6084152" lon="11.6371811"><ele>422.0</ele><time>2026-03-28T11:32:42.424Z</time></trkpt><trkpt lat="43.6082732" lon="11.6371455"><ele>422.0</ele><time>2026-03-28T11:32:43.425Z</time></trkpt><trkpt lat="43.6081095" lon="11.6371405"><ele>422.0</ele><time>2026-03-28T11:32:44.424Z</time></trkpt><trkpt lat="43.6079247" lon="11.6371569"><ele>422.0</ele><time>2026-03-28T11:32:45.424Z</time></trkpt><trkpt lat="43.6077426" lon="11.6372041"><ele>422.0</ele><time>2026-03-28T11:32:46.424Z</time></trkpt><trkpt lat="43.6075723" lon="11.6372624"><ele>422.0</ele><time>2026-03-28T11:32:47.424Z</time></trkpt><trkpt lat="43.6074029" lon="11.6372926"><ele>422.0</ele><time>2026-03-28T11:32:48.424Z</time></trkpt><trkpt lat="43.6072371" lon="11.6372906"><ele>422.0</ele><time>2026-03-28T11:32:49.424Z</time></trkpt><trkpt lat="43.6070743" lon="11.6372703"><ele>422.0</ele><time>2026-03-28T11:32:50.424Z</time></trkpt><trkpt lat="43.6069245" lon="11.6372182"><ele>422.0</ele><time>2026-03-28T11:32:51.424Z</time></trkpt><trkpt lat="43.6067891" lon="11.637133"><ele>422.66666666666663</ele><time>2026-03-28T11:32:52.424Z</time></trkpt><trkpt lat="43.6066494" lon="11.6370604"><ele>423.33333333333337</ele><time>2026-03-28T11:32:53.424Z</time></trkpt><trkpt lat="43.6064861" lon="11.637004"><ele>424.0</ele><time>2026-03-28T11:32:54.424Z</time></trkpt><trkpt lat="43.6063082" lon="11.6369765"><ele>425.6666666666667</ele><time>2026-03-28T11:32:55.424Z</time></trkpt><trkpt lat="43.6061281" lon="11.636979"><ele>427.33333333333337</ele><time>2026-03-28T11:32:56.424Z</time></trkpt><trkpt lat="43.6059596" lon="11.6370061"><ele>429.0</ele><time>2026-03-28T11:32:57.424Z</time></trkpt><trkpt lat="43.6057973" lon="11.6370278"><ele>429.0</ele><time>2026-03-28T11:32:58.424Z</time></trkpt><trkpt lat="43.6056425" lon="11.6370356"><ele>429.0</ele><time>2026-03-28T11:32:59.424Z</time></trkpt><trkpt lat="43.6054907" lon="11.6370016"><ele>429.0</ele><time>2026-03-28T11:33:00.424Z</time></trkpt><trkpt lat="43.6053516" lon="11.6369135"><ele>421.33333333333337</ele><time>2026-03-28T11:33:01.424Z</time></trkpt><trkpt lat="43.6052195" lon="11.6368132"><ele>413.6666666666667</ele><time>2026-03-28T11:33:02.424Z</time></trkpt><trkpt lat="43.6051138" lon="11.6366413"><ele>406.0</ele><time>2026-03-28T11:33:03.424Z</time></trkpt><trkpt lat="43.6049965" lon="11.6364148"><ele>406.0</ele><time>2026-03-28T11:33:04.424Z</time></trkpt><trkpt lat="43.6048808" lon="11.6362397"><ele>406.0</ele><time>2026-03-28T11:33:05.424Z</time></trkpt><trkpt lat="43.6047602" lon="11.6361185"><ele>406.0</ele><time>2026-03-28T11:33:06.424Z</time></trkpt><trkpt lat="43.6046271" lon="11.6360256"><ele>403.0</ele><time>2026-03-28T11:33:07.424Z</time></trkpt><trkpt lat="43.6044638" lon="11.6359397"><ele>400.0</ele><time>2026-03-28T11:33:08.424Z</time></trkpt><trkpt lat="43.6042889" lon="11.6358608"><ele>397.0</ele><time>2026-03-28T11:33:09.424Z</time></trkpt><trkpt lat="43.6041157" lon="11.6357729"><ele>397.0</ele><time>2026-03-28T11:33:10.424Z</time></trkpt><trkpt lat="43.6039458" lon="11.6356611"><ele>397.0</ele><time>2026-03-28T11:33:11.424Z</time></trkpt><trkpt lat="43.6037849" lon="11.6355283"><ele>397.0</ele><time>2026-03-28T11:33:12.424Z</time></trkpt><trkpt lat="43.6036417" lon="11.6353764"><ele>394.6666666666667</ele><time>2026-03-28T11:33:13.424Z</time></trkpt><trkpt lat="43.6035088" lon="11.6352236"><ele>392.33333333333337</ele><time>2026-03-28T11:33:14.424Z</time></trkpt><trkpt lat="43.6033754" lon="11.6350998"><ele>390.0</ele><time>2026-03-28T11:33:15.425Z</time></trkpt><trkpt lat="43.6032422" lon="11.6349989"><ele>390.0</ele><time>2026-03-28T11:33:16.424Z</time></trkpt><trkpt lat="43.6030805" lon="11.6349421"><ele>390.0</ele><time>2026-03-28T11:33:17.424Z</time></trkpt><trkpt lat="43.6028983" lon="11.634946"><ele>390.0</ele><time>2026-03-28T11:33:18.424Z</time></trkpt><trkpt lat="43.602724" lon="11.6349706"><ele>390.33333333333337</ele><time>2026-03-28T11:33:19.424Z</time></trkpt><trkpt lat="43.6025658" lon="11.6349677"><ele>390.6666666666667</ele><time>2026-03-28T11:33:20.424Z</time></trkpt><trkpt lat="43.6024116" lon="11.6349349"><ele>391.0</ele><time>2026-03-28T11:33:21.424Z</time></trkpt><trkpt lat="43.602251" lon="11.6348763"><ele>391.0</ele><time>2026-03-28T11:33:22.424Z</time></trkpt><trkpt lat="43.6020903" lon="11.6347923"><ele>391.0</ele><time>2026-03-28T11:33:23.424Z</time></trkpt><trkpt lat="43.6019415" lon="11.6346907"><ele>391.0</ele><time>2026-03-28T11:33:24.424Z</time></trkpt><trkpt lat="43.601803" lon="11.6345874"><ele>391.0</ele><time>2026-03-28T11:33:25.424Z</time></trkpt><trkpt lat="43.6016765" lon="11.6345188"><ele>391.0</ele><time>2026-03-28T11:33:26.424Z</time></trkpt><trkpt lat="43.6015296" lon="11.634508"><ele>391.0</ele><time>2026-03-28T11:33:27.424Z</time></trkpt><trkpt lat="43.6013611" lon="11.6345317"><ele>391.0</ele><time>2026-03-28T11:33:28.424Z</time></trkpt><trkpt lat="43.6011693" lon="11.6345108"><ele>391.0</ele><time>2026-03-28T11:33:29.424Z</time></trkpt><trkpt lat="43.6009694" lon="11.6344462"><ele>391.0</ele><time>2026-03-28T11:33:30.424Z</time></trkpt><trkpt lat="43.6007784" lon="11.6343844"><ele>386.0</ele><time>2026-03-28T11:33:31.424Z</time></trkpt><trkpt lat="43.6005945" lon="11.6343101"><ele>381.0</ele><time>2026-03-28T11:33:32.424Z</time></trkpt><trkpt lat="43.6004351" lon="11.6342204"><ele>376.0</ele><time>2026-03-28T11:33:33.424Z</time></trkpt><trkpt lat="43.6002928" lon="11.634126"><ele>376.0</ele><time>2026-03-28T11:33:34.424Z</time></trkpt><trkpt lat="43.6001664" lon="11.6340289"><ele>376.0</ele><time>2026-03-28T11:33:35.424Z</time></trkpt><trkpt lat="43.600046" lon="11.6339263"><ele>376.0</ele><time>2026-03-28T11:33:36.424Z</time></trkpt><trkpt lat="43.5999285" lon="11.633845"><ele>376.0</ele><time>2026-03-28T11:33:37.424Z</time></trkpt><trkpt lat="43.5998143" lon="11.6338449"><ele>376.0</ele><time>2026-03-28T11:33:38.424Z</time></trkpt><trkpt lat="43.5997031" lon="11.6339117"><ele>376.0</ele><time>2026-03-28T11:33:39.424Z</time></trkpt><trkpt lat="43.5996064" lon="11.6340196"><ele>376.0</ele><time>2026-03-28T11:33:40.424Z</time></trkpt><trkpt lat="43.5995224" lon="11.6341215"><ele>376.0</ele><time>2026-03-28T11:33:41.424Z</time></trkpt><trkpt lat="43.5994349" lon="11.6342014"><ele>376.75</ele><time>2026-03-28T11:33:42.424Z</time></trkpt><trkpt lat="43.5993146" lon="11.6342175"><ele>377.5</ele><time>2026-03-28T11:33:43.424Z</time></trkpt><trkpt lat="43.5991655" lon="11.6341979"><ele>378.25</ele><time>2026-03-28T11:33:44.424Z</time></trkpt><trkpt lat="43.5990094" lon="11.6341714"><ele>379.0</ele><time>2026-03-28T11:33:45.424Z</time></trkpt><trkpt lat="43.5988468" lon="11.634143"><ele>379.0</ele><time>2026-03-28T11:33:46.424Z</time></trkpt><trkpt lat="43.5986913" lon="11.6341212"><ele>379.0</ele><time>2026-03-28T11:33:47.424Z</time></trkpt><trkpt lat="43.5985418" lon="11.6341026"><ele>379.0</ele><time>2026-03-28T11:33:48.424Z</time></trkpt><trkpt lat="43.5983999" lon="11.6341122"><ele>379.0</ele><time>2026-03-28T11:33:49.424Z</time></trkpt><trkpt lat="43.5982585" lon="11.6341482"><ele>377.5</ele><time>2026-03-28T11:33:50.424Z</time></trkpt><trkpt lat="43.5981237" lon="11.6341735"><ele>376.0</ele><time>2026-03-28T11:33:51.424Z</time></trkpt><trkpt lat="43.5979944" lon="11.6341872"><ele>374.5</ele><time>2026-03-28T11:33:52.424Z</time></trkpt><trkpt lat="43.5978608" lon="11.6341896"><ele>373.0</ele><time>2026-03-28T11:33:53.424Z</time></trkpt><trkpt lat="43.5977243" lon="11.6341757"><ele>371.0</ele><time>2026-03-28T11:33:54.424Z</time></trkpt><trkpt lat="43.5975809" lon="11.6341042"><ele>369.0</ele><time>2026-03-28T11:33:55.424Z</time></trkpt><trkpt lat="43.5974498" lon="11.6339715"><ele>367.0</ele><time>2026-03-28T11:33:56.424Z</time></trkpt><trkpt lat="43.5973221" lon="11.633853"><ele>367.0</ele><time>2026-03-28T11:33:57.424Z</time></trkpt><trkpt lat="43.5971966" lon="11.6337426"><ele>367.0</ele><time>2026-03-28T11:33:58.424Z</time></trkpt><trkpt lat="43.5970794" lon="11.633644"><ele>367.0</ele><time>2026-03-28T11:33:59.424Z</time></trkpt><trkpt lat="43.5969614" lon="11.6335506"><ele>367.0</ele><time>2026-03-28T11:34:00.424Z</time></trkpt><trkpt lat="43.5968623" lon="11.6334727"><ele>365.8</ele><time>2026-03-28T11:34:01.424Z</time></trkpt><trkpt lat="43.5967728" lon="11.6334131"><ele>364.6</ele><time>2026-03-28T11:34:02.424Z</time></trkpt><trkpt lat="43.5966781" lon="11.6334046"><ele>363.40000000000003</ele><time>2026-03-28T11:34:03.424Z</time></trkpt><trkpt lat="43.5966054" lon="11.6334785"><ele>362.20000000000005</ele><time>2026-03-28T11:34:04.424Z</time></trkpt><trkpt lat="43.5965611" lon="11.6335982"><ele>361.0</ele><time>2026-03-28T11:34:05.424Z</time></trkpt><trkpt lat="43.5965335" lon="11.6337203"><ele>361.0</ele><time>2026-03-28T11:34:06.424Z</time></trkpt><trkpt lat="43.5964735" lon="11.6338141"><ele>361.0</ele><time>2026-03-28T11:34:07.424Z</time></trkpt><trkpt lat="43.5963478" lon="11.6338633"><ele>361.0</ele><time>2026-03-28T11:34:08.424Z</time></trkpt><trkpt lat="43.5962126" lon="11.6338716"><ele>361.0</ele><time>2026-03-28T11:34:09.424Z</time></trkpt><trkpt lat="43.5960639" lon="11.6338815"><ele>359.3333333333333</ele><time>2026-03-28T11:34:10.424Z</time></trkpt><trkpt lat="43.5959067" lon="11.6339032"><ele>357.6666666666667</ele><time>2026-03-28T11:34:11.424Z</time></trkpt><trkpt lat="43.5957428" lon="11.6339235"><ele>356.0</ele><time>2026-03-28T11:34:12.424Z</time></trkpt><trkpt lat="43.5955664" lon="11.6339485"><ele>356.0</ele><time>2026-03-28T11:34:13.424Z</time></trkpt><trkpt lat="43.5953878" lon="11.6339815"><ele>356.0</ele><time>2026-03-28T11:34:14.424Z</time></trkpt><trkpt lat="43.5951959" lon="11.6340176"><ele>356.0</ele><time>2026-03-28T11:34:15.424Z</time></trkpt><trkpt lat="43.5950131" lon="11.634051"><ele>354.6666666666667</ele><time>2026-03-28T11:34:16.424Z</time></trkpt><trkpt lat="43.594838" lon="11.6340811"><ele>353.3333333333333</ele><time>2026-03-28T11:34:17.424Z</time></trkpt><trkpt lat="43.5946669" lon="11.6341084"><ele>352.0</ele><time>2026-03-28T11:34:18.424Z</time></trkpt><trkpt lat="43.5945088" lon="11.6341475"><ele>350.0</ele><time>2026-03-28T11:34:19.424Z</time></trkpt><trkpt lat="43.5943574" lon="11.6341916"><ele>348.0</ele><time>2026-03-28T11:34:20.424Z</time></trkpt><trkpt lat="43.5942318" lon="11.6342358"><ele>346.0</ele><time>2026-03-28T11:34:21.424Z</time></trkpt><trkpt lat="43.5941336" lon="11.6342793"><ele>344.0</ele><time>2026-03-28T11:34:22.424Z</time></trkpt><trkpt lat="43.594046" lon="11.6343341"><ele>344.0</ele><time>2026-03-28T11:34:23.425Z</time></trkpt><trkpt lat="43.5939525" lon="11.6343723"><ele>344.0</ele><time>2026-03-28T11:34:24.424Z</time></trkpt><trkpt lat="43.5938535" lon="11.6343721"><ele>344.0</ele><time>2026-03-28T11:34:25.424Z</time></trkpt><trkpt lat="43.5937354" lon="11.6343239"><ele>344.0</ele><time>2026-03-28T11:34:26.424Z</time></trkpt><trkpt lat="43.5936276" lon="11.634242"><ele>344.0</ele><time>2026-03-28T11:34:27.424Z</time></trkpt><trkpt lat="43.5935357" lon="11.6341487"><ele>343.0</ele><time>2026-03-28T11:34:28.424Z</time></trkpt><trkpt lat="43.5934375" lon="11.6340475"><ele>342.0</ele><time>2026-03-28T11:34:29.424Z</time></trkpt><trkpt lat="43.5933358" lon="11.633951"><ele>341.0</ele><time>2026-03-28T11:34:30.424Z</time></trkpt><trkpt lat="43.593233" lon="11.6338542"><ele>340.0</ele><time>2026-03-28T11:34:31.424Z</time></trkpt><trkpt lat="43.5931159" lon="11.6337519"><ele>338.5</ele><time>2026-03-28T11:34:32.424Z</time></trkpt><trkpt lat="43.5929883" lon="11.6336269"><ele>337.0</ele><time>2026-03-28T11:34:33.424Z</time></trkpt><trkpt lat="43.5928813" lon="11.6334842"><ele>335.5</ele><time>2026-03-28T11:34:34.424Z</time></trkpt><trkpt lat="43.5927958" lon="11.6333473"><ele>334.0</ele><time>2026-03-28T11:34:35.425Z</time></trkpt><trkpt lat="43.5927359" lon="11.6332354"><ele>332.6</ele><time>2026-03-28T11:34:36.424Z</time></trkpt><trkpt lat="43.5926961" lon="11.6331611"><ele>331.2</ele><time>2026-03-28T11:34:37.424Z</time></trkpt><trkpt lat="43.5925828" lon="11.63313"><ele>329.8</ele><time>2026-03-28T11:34:39.424Z</time></trkpt><trkpt lat="43.5924913" lon="11.6331691"><ele>328.40000000000003</ele><time>2026-03-28T11:34:40.424Z</time></trkpt><trkpt lat="43.5923975" lon="11.6331909"><ele>327.0</ele><time>2026-03-28T11:34:41.424Z</time></trkpt><trkpt lat="43.5923097" lon="11.6331639"><ele>327.0</ele><time>2026-03-28T11:34:42.424Z</time></trkpt><trkpt lat="43.5922236" lon="11.6330915"><ele>327.0</ele><time>2026-03-28T11:34:43.424Z</time></trkpt><trkpt lat="43.5921354" lon="11.6330259"><ele>327.0</ele><time>2026-03-28T11:34:44.424Z</time></trkpt><trkpt lat="43.5920413" lon="11.6329833"><ele>327.0</ele><time>2026-03-28T11:34:45.424Z</time></trkpt><trkpt lat="43.5919272" lon="11.6329671"><ele>327.0</ele><time>2026-03-28T11:34:46.424Z</time></trkpt><trkpt lat="43.5918063" lon="11.6329933"><ele>326.75</ele><time>2026-03-28T11:34:47.424Z</time></trkpt><trkpt lat="43.5916785" lon="11.6330547"><ele>326.5</ele><time>2026-03-28T11:34:48.424Z</time></trkpt><trkpt lat="43.5915617" lon="11.6331028"><ele>326.25</ele><time>2026-03-28T11:34:49.424Z</time></trkpt><trkpt lat="43.5914487" lon="11.6331258"><ele>326.0</ele><time>2026-03-28T11:34:50.424Z</time></trkpt><trkpt lat="43.5913214" lon="11.6330875"><ele>326.0</ele><time>2026-03-28T11:34:51.424Z</time></trkpt><trkpt lat="43.5911886" lon="11.6330058"><ele>326.0</ele><time>2026-03-28T11:34:52.424Z</time></trkpt><trkpt lat="43.5910507" lon="11.6329116"><ele>326.0</ele><time>2026-03-28T11:34:53.424Z</time></trkpt><trkpt lat="43.5909132" lon="11.63281"><ele>322.0</ele><time>2026-03-28T11:34:54.424Z</time></trkpt><trkpt lat="43.5907705" lon="11.6327041"><ele>318.0</ele><time>2026-03-28T11:34:55.424Z</time></trkpt><trkpt lat="43.5906404" lon="11.6326095"><ele>314.0</ele><time>2026-03-28T11:34:56.424Z</time></trkpt><trkpt lat="43.5905184" lon="11.6325442"><ele>310.0</ele><time>2026-03-28T11:34:57.424Z</time></trkpt><trkpt lat="43.5904047" lon="11.6325045"><ele>309.8333333333333</ele><time>2026-03-28T11:34:58.424Z</time></trkpt><trkpt lat="43.5903053" lon="11.6324703"><ele>309.66666666666663</ele><time>2026-03-28T11:34:59.424Z</time></trkpt><trkpt lat="43.590231" lon="11.6324238"><ele>309.5</ele><time>2026-03-28T11:35:00.424Z</time></trkpt><trkpt lat="43.590184" lon="11.6323591"><ele>309.3333333333333</ele><time>2026-03-28T11:35:01.424Z</time></trkpt><trkpt lat="43.5901712" lon="11.6322636"><ele>309.1666666666667</ele><time>2026-03-28T11:35:02.424Z</time></trkpt><trkpt lat="43.5902007" lon="11.6321435"><ele>309.0</ele><time>2026-03-28T11:35:03.424Z</time></trkpt><trkpt lat="43.590264" lon="11.6319924"><ele>306.0</ele><time>2026-03-28T11:35:04.424Z</time></trkpt><trkpt lat="43.5903199" lon="11.6318021"><ele>303.0</ele><time>2026-03-28T11:35:05.424Z</time></trkpt><trkpt lat="43.5903433" lon="11.6316014"><ele>300.0</ele><time>2026-03-28T11:35:06.424Z</time></trkpt><trkpt lat="43.5903585" lon="11.6313971"><ele>297.0</ele><time>2026-03-28T11:35:07.424Z</time></trkpt><trkpt lat="43.590375" lon="11.6312021"><ele>295.25</ele><time>2026-03-28T11:35:08.424Z</time></trkpt><trkpt lat="43.5903918" lon="11.6310071"><ele>293.5</ele><time>2026-03-28T11:35:09.424Z</time></trkpt><trkpt lat="43.590392" lon="11.6307958"><ele>291.75</ele><time>2026-03-28T11:35:10.424Z</time></trkpt><trkpt lat="43.5903671" lon="11.6305946"><ele>290.0</ele><time>2026-03-28T11:35:11.424Z</time></trkpt><trkpt lat="43.5903079" lon="11.6303903"><ele>294.6666666666667</ele><time>2026-03-28T11:35:12.424Z</time></trkpt><trkpt lat="43.5901915" lon="11.6301908"><ele>299.3333333333333</ele><time>2026-03-28T11:35:13.424Z</time></trkpt><trkpt lat="43.5900266" lon="11.6300243"><ele>304.0</ele><time>2026-03-28T11:35:14.424Z</time></trkpt><trkpt lat="43.5898407" lon="11.6298867"><ele>304.0</ele><time>2026-03-28T11:35:15.424Z</time></trkpt><trkpt lat="43.5896435" lon="11.6297935"><ele>304.0</ele><time>2026-03-28T11:35:16.424Z</time></trkpt><trkpt lat="43.5894368" lon="11.6297171"><ele>304.0</ele><time>2026-03-28T11:35:17.424Z</time></trkpt><trkpt lat="43.5892283" lon="11.6296341"><ele>302.0</ele><time>2026-03-28T11:35:18.424Z</time></trkpt><trkpt lat="43.5890206" lon="11.6295348"><ele>300.0</ele><time>2026-03-28T11:35:19.424Z</time></trkpt><trkpt lat="43.5888198" lon="11.6294312"><ele>298.0</ele><time>2026-03-28T11:35:20.424Z</time></trkpt><trkpt lat="43.5886281" lon="11.6293257"><ele>302.0</ele><time>2026-03-28T11:35:21.424Z</time></trkpt><trkpt lat="43.5884471" lon="11.6292416"><ele>306.0</ele><time>2026-03-28T11:35:22.424Z</time></trkpt><trkpt lat="43.5882881" lon="11.6291742"><ele>310.0</ele><time>2026-03-28T11:35:23.424Z</time></trkpt><trkpt lat="43.5881486" lon="11.6290915"><ele>310.0</ele><time>2026-03-28T11:35:24.424Z</time></trkpt><trkpt lat="43.5880347" lon="11.6289434"><ele>310.0</ele><time>2026-03-28T11:35:25.424Z</time></trkpt><trkpt lat="43.5879735" lon="11.6287604"><ele>310.0</ele><time>2026-03-28T11:35:26.424Z</time></trkpt><trkpt lat="43.5879561" lon="11.6285576"><ele>313.66666666666663</ele><time>2026-03-28T11:35:27.424Z</time></trkpt><trkpt lat="43.5879693" lon="11.6283511"><ele>317.3333333333333</ele><time>2026-03-28T11:35:28.424Z</time></trkpt><trkpt lat="43.5880151" lon="11.6281406"><ele>321.0</ele><time>2026-03-28T11:35:29.424Z</time></trkpt><trkpt lat="43.5880646" lon="11.6279586"><ele>321.0</ele><time>2026-03-28T11:35:30.424Z</time></trkpt><trkpt lat="43.5881081" lon="11.6277903"><ele>321.0</ele><time>2026-03-28T11:35:31.424Z</time></trkpt><trkpt lat="43.5881403" lon="11.6276434"><ele>321.0</ele><time>2026-03-28T11:35:32.424Z</time></trkpt><trkpt lat="43.5881656" lon="11.62751"><ele>321.0</ele><time>2026-03-28T11:35:33.424Z</time></trkpt><trkpt lat="43.5881765" lon="11.6274137"><ele>321.0</ele><time>2026-03-28T11:35:34.424Z</time></trkpt><trkpt lat="43.588183" lon="11.6273106"><ele>321.0</ele><time>2026-03-28T11:35:35.424Z</time></trkpt><trkpt lat="43.5882062" lon="11.6271742"><ele>321.0</ele><time>2026-03-28T11:35:36.424Z</time></trkpt><trkpt lat="43.5882249" lon="11.627053"><ele>321.0</ele><time>2026-03-28T11:35:37.424Z</time></trkpt><trkpt lat="43.5882271" lon="11.6269375"><ele>321.0</ele><time>2026-03-28T11:35:38.424Z</time></trkpt><trkpt lat="43.5882052" lon="11.6268277"><ele>321.0</ele><time>2026-03-28T11:35:39.424Z</time></trkpt><trkpt lat="43.5881442" lon="11.6267451"><ele>321.0</ele><time>2026-03-28T11:35:40.424Z</time></trkpt><trkpt lat="43.5880581" lon="11.6267154"><ele>320.8</ele><time>2026-03-28T11:35:41.424Z</time></trkpt><trkpt lat="43.5879727" lon="11.6267456"><ele>320.6</ele><time>2026-03-28T11:35:42.424Z</time></trkpt><trkpt lat="43.5878809" lon="11.6268326"><ele>320.4</ele><time>2026-03-28T11:35:43.424Z</time></trkpt><trkpt lat="43.587774" lon="11.6268984"><ele>320.2</ele><time>2026-03-28T11:35:44.424Z</time></trkpt><trkpt lat="43.587657" lon="11.626912"><ele>320.0</ele><time>2026-03-28T11:35:45.424Z</time></trkpt><trkpt lat="43.5875456" lon="11.6268644"><ele>318.33333333333337</ele><time>2026-03-28T11:35:46.424Z</time></trkpt><trkpt lat="43.5874047" lon="11.6267642"><ele>316.6666666666667</ele><time>2026-03-28T11:35:47.424Z</time></trkpt><trkpt lat="43.5872598" lon="11.6266727"><ele>315.0</ele><time>2026-03-28T11:35:48.424Z</time></trkpt><trkpt lat="43.5870948" lon="11.6265654"><ele>314.0</ele><time>2026-03-28T11:35:49.424Z</time></trkpt><trkpt lat="43.5869362" lon="11.6264656"><ele>313.0</ele><time>2026-03-28T11:35:50.424Z</time></trkpt><trkpt lat="43.5867953" lon="11.6263703"><ele>312.0</ele><time>2026-03-28T11:35:51.424Z</time></trkpt><trkpt lat="43.5866745" lon="11.6262935"><ele>312.0</ele><time>2026-03-28T11:35:52.424Z</time></trkpt><trkpt lat="43.5865875" lon="11.6262389"><ele>312.0</ele><time>2026-03-28T11:35:53.424Z</time></trkpt><trkpt lat="43.5865211" lon="11.626188"><ele>312.0</ele><time>2026-03-28T11:35:54.424Z</time></trkpt><trkpt lat="43.5864482" lon="11.6261272"><ele>312.0</ele><time>2026-03-28T11:35:56.425Z</time></trkpt><trkpt lat="43.5863828" lon="11.626092"><ele>312.0</ele><time>2026-03-28T11:35:57.424Z</time></trkpt><trkpt lat="43.5862961" lon="11.6260439"><ele>312.0</ele><time>2026-03-28T11:35:58.424Z</time></trkpt><trkpt lat="43.586199" lon="11.6259791"><ele>311.25</ele><time>2026-03-28T11:35:59.424Z</time></trkpt><trkpt lat="43.5860782" lon="11.6259098"><ele>310.5</ele><time>2026-03-28T11:36:00.424Z</time></trkpt><trkpt lat="43.5859441" lon="11.62582"><ele>309.75</ele><time>2026-03-28T11:36:01.424Z</time></trkpt><trkpt lat="43.5857955" lon="11.6257219"><ele>309.0</ele><time>2026-03-28T11:36:02.424Z</time></trkpt><trkpt lat="43.5856387" lon="11.6256186"><ele>309.0</ele><time>2026-03-28T11:36:03.424Z</time></trkpt><trkpt lat="43.5854822" lon="11.6255137"><ele>309.0</ele><time>2026-03-28T11:36:04.424Z</time></trkpt><trkpt lat="43.5853238" lon="11.6254065"><ele>309.0</ele><time>2026-03-28T11:36:05.424Z</time></trkpt><trkpt lat="43.585172" lon="11.6253096"><ele>307.6666666666667</ele><time>2026-03-28T11:36:06.424Z</time></trkpt><trkpt lat="43.5850264" lon="11.6252181"><ele>306.33333333333337</ele><time>2026-03-28T11:36:07.424Z</time></trkpt><trkpt lat="43.5848765" lon="11.6251218"><ele>305.0</ele><time>2026-03-28T11:36:08.424Z</time></trkpt><trkpt lat="43.5847277" lon="11.6250248"><ele>305.0</ele><time>2026-03-28T11:36:09.424Z</time></trkpt><trkpt lat="43.5845741" lon="11.6249262"><ele>305.0</ele><time>2026-03-28T11:36:10.424Z</time></trkpt><trkpt lat="43.5844257" lon="11.6248285"><ele>305.0</ele><time>2026-03-28T11:36:11.424Z</time></trkpt><trkpt lat="43.5842814" lon="11.6247337"><ele>304.25</ele><time>2026-03-28T11:36:12.424Z</time></trkpt><trkpt lat="43.5841471" lon="11.6246464"><ele>303.5</ele><time>2026-03-28T11:36:13.424Z</time></trkpt><trkpt lat="43.5840327" lon="11.624571"><ele>302.75</ele><time>2026-03-28T11:36:14.425Z</time></trkpt><trkpt lat="43.5839342" lon="11.6245105"><ele>302.0</ele><time>2026-03-28T11:36:15.424Z</time></trkpt><trkpt lat="43.5838423" lon="11.624455"><ele>301.8</ele><time>2026-03-28T11:36:16.424Z</time></trkpt><trkpt lat="43.5837585" lon="11.6244032"><ele>301.6</ele><time>2026-03-28T11:36:17.424Z</time></trkpt><trkpt lat="43.5836833" lon="11.6243268"><ele>301.40000000000003</ele><time>2026-03-28T11:36:18.424Z</time></trkpt><trkpt lat="43.5836056" lon="11.6242524"><ele>301.2</ele><time>2026-03-28T11:36:19.424Z</time></trkpt><trkpt lat="43.5835088" lon="11.6241787"><ele>301.0</ele><time>2026-03-28T11:36:20.424Z</time></trkpt><trkpt lat="43.5833846" lon="11.6241099"><ele>300.3333333333333</ele><time>2026-03-28T11:36:21.424Z</time></trkpt><trkpt lat="43.58323" lon="11.6240273"><ele>299.6666666666667</ele><time>2026-03-28T11:36:22.424Z</time></trkpt><trkpt lat="43.583064" lon="11.6239239"><ele>299.0</ele><time>2026-03-28T11:36:23.425Z</time></trkpt><trkpt lat="43.5828825" lon="11.623813"><ele>299.0</ele><time>2026-03-28T11:36:24.425Z</time></trkpt><trkpt lat="43.5826978" lon="11.6236994"><ele>299.0</ele><time>2026-03-28T11:36:25.425Z</time></trkpt><trkpt lat="43.5825067" lon="11.6235712"><ele>299.0</ele><time>2026-03-28T11:36:26.425Z</time></trkpt><trkpt lat="43.5823062" lon="11.623444"><ele>298.0</ele><time>2026-03-28T11:36:27.425Z</time></trkpt><trkpt lat="43.5821026" lon="11.6233107"><ele>297.0</ele><time>2026-03-28T11:36:28.425Z</time></trkpt><trkpt lat="43.5819054" lon="11.6231819"><ele>296.0</ele><time>2026-03-28T11:36:29.425Z</time></trkpt><trkpt lat="43.5817073" lon="11.623058"><ele>295.33333333333337</ele><time>2026-03-28T11:36:30.425Z</time></trkpt><trkpt lat="43.5815173" lon="11.6229345"><ele>294.6666666666667</ele><time>2026-03-28T11:36:31.425Z</time></trkpt><trkpt lat="43.5813382" lon="11.6228133"><ele>294.0</ele><time>2026-03-28T11:36:32.425Z</time></trkpt><trkpt lat="43.5811621" lon="11.6226981"><ele>292.3333333333333</ele><time>2026-03-28T11:36:33.425Z</time></trkpt><trkpt lat="43.5809857" lon="11.6225841"><ele>290.66666666666663</ele><time>2026-03-28T11:36:34.425Z</time></trkpt><trkpt lat="43.5808072" lon="11.6224701"><ele>289.0</ele><time>2026-03-28T11:36:35.425Z</time></trkpt><trkpt lat="43.5806317" lon="11.6223578"><ele>289.0</ele><time>2026-03-28T11:36:36.425Z</time></trkpt><trkpt lat="43.5804525" lon="11.6222404"><ele>289.0</ele><time>2026-03-28T11:36:37.425Z</time></trkpt><trkpt lat="43.5802736" lon="11.6221151"><ele>289.0</ele><time>2026-03-28T11:36:38.425Z</time></trkpt><trkpt lat="43.5800902" lon="11.6219925"><ele>288.0</ele><time>2026-03-28T11:36:39.425Z</time></trkpt><trkpt lat="43.5799004" lon="11.6218714"><ele>287.0</ele><time>2026-03-28T11:36:40.425Z</time></trkpt><trkpt lat="43.5797086" lon="11.6217479"><ele>286.0</ele><time>2026-03-28T11:36:41.425Z</time></trkpt><trkpt lat="43.5795094" lon="11.6216212"><ele>285.0</ele><time>2026-03-28T11:36:42.425Z</time></trkpt><trkpt lat="43.5793148" lon="11.6214947"><ele>284.0</ele><time>2026-03-28T11:36:43.425Z</time></trkpt><trkpt lat="43.5791254" lon="11.6213697"><ele>283.0</ele><time>2026-03-28T11:36:44.425Z</time></trkpt><trkpt lat="43.5789422" lon="11.621245"><ele>283.0</ele><time>2026-03-28T11:36:45.425Z</time></trkpt><trkpt lat="43.5787666" lon="11.6211274"><ele>283.0</ele><time>2026-03-28T11:36:46.425Z</time></trkpt><trkpt lat="43.578584" lon="11.621009"><ele>283.0</ele><time>2026-03-28T11:36:47.425Z</time></trkpt><trkpt lat="43.578395" lon="11.6208907"><ele>281.0</ele><time>2026-03-28T11:36:48.425Z</time></trkpt><trkpt lat="43.5781934" lon="11.6207695"><ele>279.0</ele><time>2026-03-28T11:36:49.425Z</time></trkpt><trkpt lat="43.5779812" lon="11.6206463"><ele>278.0</ele><time>2026-03-28T11:36:50.425Z</time></trkpt><trkpt lat="43.5777661" lon="11.6205129"><ele>277.0</ele><time>2026-03-28T11:36:51.425Z</time></trkpt><trkpt lat="43.5775596" lon="11.6203713"><ele>276.3333333333333</ele><time>2026-03-28T11:36:52.425Z</time></trkpt><trkpt lat="43.5773648" lon="11.6202318"><ele>275.6666666666667</ele><time>2026-03-28T11:36:53.425Z</time></trkpt><trkpt lat="43.5771662" lon="11.6201032"><ele>275.0</ele><time>2026-03-28T11:36:54.425Z</time></trkpt><trkpt lat="43.5769722" lon="11.6199857"><ele>274.6666666666667</ele><time>2026-03-28T11:36:55.425Z</time></trkpt><trkpt lat="43.5767895" lon="11.6198707"><ele>274.3333333333333</ele><time>2026-03-28T11:36:56.425Z</time></trkpt><trkpt lat="43.5766113" lon="11.6197629"><ele>274.0</ele><time>2026-03-28T11:36:57.425Z</time></trkpt><trkpt lat="43.5764428" lon="11.619661"><ele>274.0</ele><time>2026-03-28T11:36:58.425Z</time></trkpt><trkpt lat="43.5762828" lon="11.6195647"><ele>274.0</ele><time>2026-03-28T11:36:59.425Z</time></trkpt><trkpt lat="43.5761282" lon="11.6194813"><ele>274.0</ele><time>2026-03-28T11:37:00.425Z</time></trkpt><trkpt lat="43.5759756" lon="11.6194123"><ele>273.25</ele><time>2026-03-28T11:37:01.425Z</time></trkpt><trkpt lat="43.5758269" lon="11.6193876"><ele>272.5</ele><time>2026-03-28T11:37:02.425Z</time></trkpt><trkpt lat="43.5756822" lon="11.6194005"><ele>271.75</ele><time>2026-03-28T11:37:03.426Z</time></trkpt><trkpt lat="43.5755524" lon="11.61946"><ele>271.0</ele><time>2026-03-28T11:37:04.425Z</time></trkpt><trkpt lat="43.5754405" lon="11.6195435"><ele>271.0</ele><time>2026-03-28T11:37:05.425Z</time></trkpt><trkpt lat="43.5753395" lon="11.619659"><ele>271.0</ele><time>2026-03-28T11:37:06.425Z</time></trkpt><trkpt lat="43.5752416" lon="11.6197888"><ele>271.0</ele><time>2026-03-28T11:37:07.425Z</time></trkpt><trkpt lat="43.5751867" lon="11.6199343"><ele>271.0</ele><time>2026-03-28T11:37:08.425Z</time></trkpt><trkpt lat="43.5751233" lon="11.6200777"><ele>271.0</ele><time>2026-03-28T11:37:09.425Z</time></trkpt><trkpt lat="43.5750597" lon="11.6202167"><ele>271.0</ele><time>2026-03-28T11:37:10.425Z</time></trkpt><trkpt lat="43.574998" lon="11.6203427"><ele>271.0</ele><time>2026-03-28T11:37:11.425Z</time></trkpt><trkpt lat="43.5749332" lon="11.6204443"><ele>271.0</ele><time>2026-03-28T11:37:12.425Z</time></trkpt><trkpt lat="43.5748577" lon="11.6205261"><ele>271.0</ele><time>2026-03-28T11:37:13.425Z</time></trkpt><trkpt lat="43.5747641" lon="11.6205826"><ele>271.25</ele><time>2026-03-28T11:37:14.425Z</time></trkpt><trkpt lat="43.5746693" lon="11.6206154"><ele>271.5</ele><time>2026-03-28T11:37:15.425Z</time></trkpt><trkpt lat="43.5745693" lon="11.6206121"><ele>271.75</ele><time>2026-03-28T11:37:16.425Z</time></trkpt><trkpt lat="43.5744335" lon="11.6205478"><ele>272.0</ele><time>2026-03-28T11:37:17.425Z</time></trkpt><trkpt lat="43.5742977" lon="11.6204572"><ele>271.25</ele><time>2026-03-28T11:37:18.425Z</time></trkpt><trkpt lat="43.5741614" lon="11.6203808"><ele>270.5</ele><time>2026-03-28T11:37:19.425Z</time></trkpt><trkpt lat="43.5740288" lon="11.6203059"><ele>269.75</ele><time>2026-03-28T11:37:20.425Z</time></trkpt><trkpt lat="43.5738892" lon="11.6202542"><ele>269.0</ele><time>2026-03-28T11:37:21.425Z</time></trkpt><trkpt lat="43.5737356" lon="11.6202406"><ele>267.6666666666667</ele><time>2026-03-28T11:37:22.425Z</time></trkpt><trkpt lat="43.5735727" lon="11.6202776"><ele>266.3333333333333</ele><time>2026-03-28T11:37:23.425Z</time></trkpt><trkpt lat="43.5734224" lon="11.620353"><ele>265.0</ele><time>2026-03-28T11:37:24.425Z</time></trkpt><trkpt lat="43.5732851" lon="11.6204571"><ele>261.25</ele><time>2026-03-28T11:37:25.425Z</time></trkpt><trkpt lat="43.5731543" lon="11.6205451"><ele>257.5</ele><time>2026-03-28T11:37:26.425Z</time></trkpt><trkpt lat="43.5730362" lon="11.620638"><ele>253.75</ele><time>2026-03-28T11:37:27.426Z</time></trkpt><trkpt lat="43.5729317" lon="11.6207304"><ele>250.0</ele><time>2026-03-28T11:37:28.425Z</time></trkpt><trkpt lat="43.572835" lon="11.6207969"><ele>246.25</ele><time>2026-03-28T11:37:29.425Z</time></trkpt><trkpt lat="43.5727346" lon="11.6208048"><ele>242.5</ele><time>2026-03-28T11:37:30.425Z</time></trkpt><trkpt lat="43.5726223" lon="11.6207513"><ele>238.75</ele><time>2026-03-28T11:37:31.425Z</time></trkpt><trkpt lat="43.572508" lon="11.6206614"><ele>235.0</ele><time>2026-03-28T11:37:32.425Z</time></trkpt><trkpt lat="43.5724185" lon="11.6205318"><ele>235.0</ele><time>2026-03-28T11:37:33.425Z</time></trkpt><trkpt lat="43.5723568" lon="11.6203437"><ele>235.0</ele><time>2026-03-28T11:37:34.425Z</time></trkpt><trkpt lat="43.5722914" lon="11.6201664"><ele>235.0</ele><time>2026-03-28T11:37:35.425Z</time></trkpt><trkpt lat="43.5722103" lon="11.6199952"><ele>235.0</ele><time>2026-03-28T11:37:36.425Z</time></trkpt><trkpt lat="43.5721195" lon="11.6198206"><ele>235.5</ele><time>2026-03-28T11:37:37.425Z</time></trkpt><trkpt lat="43.5720276" lon="11.619661"><ele>236.0</ele><time>2026-03-28T11:37:38.425Z</time></trkpt><trkpt lat="43.5719372" lon="11.6195011"><ele>236.5</ele><time>2026-03-28T11:37:39.425Z</time></trkpt><trkpt lat="43.5718519" lon="11.6193308"><ele>237.0</ele><time>2026-03-28T11:37:40.425Z</time></trkpt><trkpt lat="43.5717717" lon="11.6191486"><ele>237.0</ele><time>2026-03-28T11:37:41.425Z</time></trkpt><trkpt lat="43.5717115" lon="11.6189554"><ele>237.0</ele><time>2026-03-28T11:37:42.425Z</time></trkpt><trkpt lat="43.571656" lon="11.6187506"><ele>237.0</ele><time>2026-03-28T11:37:43.425Z</time></trkpt><trkpt lat="43.571591" lon="11.6185498"><ele>239.66666666666669</ele><time>2026-03-28T11:37:44.425Z</time></trkpt><trkpt lat="43.5715089" lon="11.618368"><ele>242.33333333333334</ele><time>2026-03-28T11:37:45.425Z</time></trkpt><trkpt lat="43.5714214" lon="11.6181985"><ele>245.0</ele><time>2026-03-28T11:37:46.425Z</time></trkpt><trkpt lat="43.5713238" lon="11.6180303"><ele>245.0</ele><time>2026-03-28T11:37:47.425Z</time></trkpt><trkpt lat="43.5712356" lon="11.617852"><ele>245.0</ele><time>2026-03-28T11:37:48.425Z</time></trkpt><trkpt lat="43.5711424" lon="11.6176589"><ele>245.0</ele><time>2026-03-28T11:37:49.425Z</time></trkpt><trkpt lat="43.5710505" lon="11.6174666"><ele>241.0</ele><time>2026-03-28T11:37:50.425Z</time></trkpt><trkpt lat="43.57096" lon="11.6172825"><ele>237.0</ele><time>2026-03-28T11:37:51.425Z</time></trkpt><trkpt lat="43.5708716" lon="11.6170952"><ele>233.0</ele><time>2026-03-28T11:37:52.425Z</time></trkpt><trkpt lat="43.5707821" lon="11.6169197"><ele>233.0</ele><time>2026-03-28T11:37:53.425Z</time></trkpt><trkpt lat="43.5706855" lon="11.6167476"><ele>233.0</ele><time>2026-03-28T11:37:54.425Z</time></trkpt><trkpt lat="43.5706013" lon="11.6165742"><ele>233.0</ele><time>2026-03-28T11:37:55.425Z</time></trkpt><trkpt lat="43.5705224" lon="11.6164138"><ele>233.0</ele><time>2026-03-28T11:37:56.425Z</time></trkpt><trkpt lat="43.5704451" lon="11.6162499"><ele>235.25</ele><time>2026-03-28T11:37:57.425Z</time></trkpt><trkpt lat="43.5703712" lon="11.6160783"><ele>237.5</ele><time>2026-03-28T11:37:58.425Z</time></trkpt><trkpt lat="43.5703033" lon="11.6159022"><ele>239.75</ele><time>2026-03-28T11:37:59.425Z</time></trkpt><trkpt lat="43.5702401" lon="11.6157181"><ele>242.0</ele><time>2026-03-28T11:38:00.425Z</time></trkpt><trkpt lat="43.5701876" lon="11.6155378"><ele>236.0</ele><time>2026-03-28T11:38:01.425Z</time></trkpt><trkpt lat="43.5701274" lon="11.6153693"><ele>230.0</ele><time>2026-03-28T11:38:02.425Z</time></trkpt><trkpt lat="43.5700725" lon="11.6151885"><ele>224.0</ele><time>2026-03-28T11:38:03.425Z</time></trkpt><trkpt lat="43.5700293" lon="11.6150228"><ele>218.0</ele><time>2026-03-28T11:38:04.425Z</time></trkpt><trkpt lat="43.5699836" lon="11.6148702"><ele>218.00000000000003</ele><time>2026-03-28T11:38:05.425Z</time></trkpt><trkpt lat="43.5699383" lon="11.6147477"><ele>218.0</ele><time>2026-03-28T11:38:06.425Z</time></trkpt><trkpt lat="43.5699068" lon="11.6146347"><ele>218.0</ele><time>2026-03-28T11:38:07.425Z</time></trkpt><trkpt lat="43.5698794" lon="11.6145467"><ele>218.0</ele><time>2026-03-28T11:38:08.425Z</time></trkpt><trkpt lat="43.5698566" lon="11.6144631"><ele>218.00000000000003</ele><time>2026-03-28T11:38:09.425Z</time></trkpt><trkpt lat="43.5698377" lon="11.6143771"><ele>218.0</ele><time>2026-03-28T11:38:10.425Z</time></trkpt><trkpt lat="43.5698192" lon="11.614213"><ele>218.66666666666669</ele><time>2026-03-28T11:38:12.425Z</time></trkpt><trkpt lat="43.5698943" lon="11.6140739"><ele>219.33333333333334</ele><time>2026-03-28T11:38:14.425Z</time></trkpt><trkpt lat="43.5699389" lon="11.6140034"><ele>220.0</ele><time>2026-03-28T11:38:15.425Z</time></trkpt><trkpt lat="43.5699774" lon="11.6139208"><ele>220.66666666666669</ele><time>2026-03-28T11:38:16.425Z</time></trkpt><trkpt lat="43.5699936" lon="11.6138256"><ele>221.33333333333334</ele><time>2026-03-28T11:38:17.425Z</time></trkpt><trkpt lat="43.569976" lon="11.6137248"><ele>222.0</ele><time>2026-03-28T11:38:18.425Z</time></trkpt><trkpt lat="43.5699303" lon="11.6136319"><ele>222.0</ele><time>2026-03-28T11:38:19.425Z</time></trkpt><trkpt lat="43.5698662" lon="11.6135526"><ele>222.0</ele><time>2026-03-28T11:38:20.425Z</time></trkpt><trkpt lat="43.5697926" lon="11.6134915"><ele>222.0</ele><time>2026-03-28T11:38:21.425Z</time></trkpt><trkpt lat="43.5697103" lon="11.6134381"><ele>222.0</ele><time>2026-03-28T11:38:22.425Z</time></trkpt><trkpt lat="43.5696296" lon="11.6133643"><ele>222.0</ele><time>2026-03-28T11:38:23.425Z</time></trkpt><trkpt lat="43.5695724" lon="11.6132558"><ele>222.0</ele><time>2026-03-28T11:38:24.425Z</time></trkpt><trkpt lat="43.5695348" lon="11.6131105"><ele>222.0</ele><time>2026-03-28T11:38:25.425Z</time></trkpt><trkpt lat="43.5694884" lon="11.6129629"><ele>222.0</ele><time>2026-03-28T11:38:26.425Z</time></trkpt><trkpt lat="43.5694277" lon="11.612817"><ele>222.0</ele><time>2026-03-28T11:38:27.425Z</time></trkpt><trkpt lat="43.5693494" lon="11.6126714"><ele>218.75</ele><time>2026-03-28T11:38:28.425Z</time></trkpt><trkpt lat="43.5692578" lon="11.612524"><ele>215.5</ele><time>2026-03-28T11:38:29.425Z</time></trkpt><trkpt lat="43.56916" lon="11.6123818"><ele>212.25</ele><time>2026-03-28T11:38:30.425Z</time></trkpt><trkpt lat="43.5690523" lon="11.612241"><ele>209.0</ele><time>2026-03-28T11:38:31.426Z</time></trkpt><trkpt lat="43.5689491" lon="11.6120892"><ele>207.0</ele><time>2026-03-28T11:38:32.425Z</time></trkpt><trkpt lat="43.5688472" lon="11.6119247"><ele>205.0</ele><time>2026-03-28T11:38:33.425Z</time></trkpt><trkpt lat="43.5687493" lon="11.6117588"><ele>203.0</ele><time>2026-03-28T11:38:34.425Z</time></trkpt><trkpt lat="43.5686562" lon="11.6115754"><ele>203.0</ele><time>2026-03-28T11:38:35.425Z</time></trkpt><trkpt lat="43.5685735" lon="11.6113789"><ele>203.0</ele><time>2026-03-28T11:38:36.425Z</time></trkpt><trkpt lat="43.5685008" lon="11.6111744"><ele>203.0</ele><time>2026-03-28T11:38:37.425Z</time></trkpt><trkpt lat="43.5684352" lon="11.6109617"><ele>203.33333333333334</ele><time>2026-03-28T11:38:38.425Z</time></trkpt><trkpt lat="43.5683731" lon="11.6107425"><ele>203.66666666666669</ele><time>2026-03-28T11:38:39.425Z</time></trkpt><trkpt lat="43.5683186" lon="11.6105172"><ele>204.0</ele><time>2026-03-28T11:38:40.425Z</time></trkpt><trkpt lat="43.5682687" lon="11.6103007"><ele>204.75</ele><time>2026-03-28T11:38:41.425Z</time></trkpt><trkpt lat="43.5682108" lon="11.6100959"><ele>205.5</ele><time>2026-03-28T11:38:42.425Z</time></trkpt><trkpt lat="43.5681502" lon="11.60991"><ele>206.25</ele><time>2026-03-28T11:38:43.425Z</time></trkpt><trkpt lat="43.5680875" lon="11.6097336"><ele>207.0</ele><time>2026-03-28T11:38:44.425Z</time></trkpt><trkpt lat="43.568021" lon="11.6095728"><ele>208.75</ele><time>2026-03-28T11:38:45.425Z</time></trkpt><trkpt lat="43.5679536" lon="11.6094142"><ele>210.5</ele><time>2026-03-28T11:38:46.425Z</time></trkpt><trkpt lat="43.5678867" lon="11.6092604"><ele>212.25</ele><time>2026-03-28T11:38:47.425Z</time></trkpt><trkpt lat="43.5678243" lon="11.6091171"><ele>214.0</ele><time>2026-03-28T11:38:48.425Z</time></trkpt><trkpt lat="43.5677676" lon="11.6089768"><ele>211.66666666666666</ele><time>2026-03-28T11:38:49.425Z</time></trkpt><trkpt lat="43.567713" lon="11.6088439"><ele>209.33333333333331</ele><time>2026-03-28T11:38:50.425Z</time></trkpt><trkpt lat="43.5676622" lon="11.6087212"><ele>207.0</ele><time>2026-03-28T11:38:51.425Z</time></trkpt><trkpt lat="43.5676258" lon="11.6086236"><ele>204.66666666666669</ele><time>2026-03-28T11:38:52.425Z</time></trkpt><trkpt lat="43.5675914" lon="11.6085335"><ele>202.33333333333334</ele><time>2026-03-28T11:38:55.425Z</time></trkpt><trkpt lat="43.5675665" lon="11.6084478"><ele>200.0</ele><time>2026-03-28T11:38:58.425Z</time></trkpt><trkpt lat="43.567553" lon="11.60836"><ele>200.0</ele><time>2026-03-28T11:39:00.425Z</time></trkpt><trkpt lat="43.5675656" lon="11.6082739"><ele>200.0</ele><time>2026-03-28T11:39:01.425Z</time></trkpt><trkpt lat="43.5676025" lon="11.6081772"><ele>200.0</ele><time>2026-03-28T11:39:02.425Z</time></trkpt><trkpt lat="43.5676885" lon="11.6081255"><ele>200.0</ele><time>2026-03-28T11:39:03.425Z</time></trkpt><trkpt lat="43.5678025" lon="11.6081382"><ele>200.0</ele><time>2026-03-28T11:39:04.425Z</time></trkpt><trkpt lat="43.5679253" lon="11.6081728"><ele>204.25</ele><time>2026-03-28T11:39:05.425Z</time></trkpt><trkpt lat="43.5680574" lon="11.6081747"><ele>208.5</ele><time>2026-03-28T11:39:06.425Z</time></trkpt><trkpt lat="43.5681843" lon="11.6081253"><ele>212.75</ele><time>2026-03-28T11:39:07.425Z</time></trkpt><trkpt lat="43.5683051" lon="11.6080713"><ele>217.0</ele><time>2026-03-28T11:39:08.425Z</time></trkpt><trkpt lat="43.5684121" lon="11.6080177"><ele>217.0</ele><time>2026-03-28T11:39:09.425Z</time></trkpt><trkpt lat="43.5684943" lon="11.6079457"><ele>217.0</ele><time>2026-03-28T11:39:10.425Z</time></trkpt><trkpt lat="43.5685814" lon="11.6078468"><ele>217.0</ele><time>2026-03-28T11:39:11.425Z</time></trkpt><trkpt lat="43.5686727" lon="11.6077396"><ele>217.0</ele><time>2026-03-28T11:39:12.425Z</time></trkpt><trkpt lat="43.5687822" lon="11.6076587"><ele>218.0</ele><time>2026-03-28T11:39:13.425Z</time></trkpt><trkpt lat="43.5689083" lon="11.6075963"><ele>219.0</ele><time>2026-03-28T11:39:14.425Z</time></trkpt><trkpt lat="43.5690303" lon="11.6075632"><ele>220.0</ele><time>2026-03-28T11:39:15.425Z</time></trkpt><trkpt lat="43.5691286" lon="11.6075479"><ele>221.0</ele><time>2026-03-28T11:39:16.425Z</time></trkpt><trkpt lat="43.569212" lon="11.6075455"><ele>222.0</ele><time>2026-03-28T11:39:17.425Z</time></trkpt><trkpt lat="43.5692914" lon="11.6075347"><ele>222.0</ele><time>2026-03-28T11:39:18.425Z</time></trkpt><trkpt lat="43.569347" lon="11.6074931"><ele>222.0</ele><time>2026-03-28T11:39:19.425Z</time></trkpt><trkpt lat="43.5693965" lon="11.6074168"><ele>222.0</ele><time>2026-03-28T11:39:20.425Z</time></trkpt><trkpt lat="43.5694551" lon="11.6073153"><ele>222.0</ele><time>2026-03-28T11:39:21.425Z</time></trkpt><trkpt lat="43.5695179" lon="11.6071945"><ele>222.0</ele><time>2026-03-28T11:39:22.425Z</time></trkpt><trkpt lat="43.5695816" lon="11.6070517"><ele>221.0</ele><time>2026-03-28T11:39:23.425Z</time></trkpt><trkpt lat="43.5696547" lon="11.606883"><ele>220.0</ele><time>2026-03-28T11:39:24.425Z</time></trkpt><trkpt lat="43.5697263" lon="11.6067009"><ele>219.0</ele><time>2026-03-28T11:39:25.425Z</time></trkpt><trkpt lat="43.5698028" lon="11.6064958"><ele>219.0</ele><time>2026-03-28T11:39:26.425Z</time></trkpt><trkpt lat="43.569885" lon="11.6062875"><ele>219.0</ele><time>2026-03-28T11:39:27.425Z</time></trkpt><trkpt lat="43.5699721" lon="11.6060731"><ele>219.0</ele><time>2026-03-28T11:39:28.425Z</time></trkpt><trkpt lat="43.5700602" lon="11.6058611"><ele>218.33333333333331</ele><time>2026-03-28T11:39:29.425Z</time></trkpt><trkpt lat="43.5701471" lon="11.6056455"><ele>217.66666666666666</ele><time>2026-03-28T11:39:30.425Z</time></trkpt><trkpt lat="43.5702283" lon="11.6054387"><ele>217.0</ele><time>2026-03-28T11:39:31.425Z</time></trkpt><trkpt lat="43.5703035" lon="11.6052386"><ele>214.25</ele><time>2026-03-28T11:39:32.425Z</time></trkpt><trkpt lat="43.5703775" lon="11.6050455"><ele>211.5</ele><time>2026-03-28T11:39:33.425Z</time></trkpt><trkpt lat="43.5704453" lon="11.6048784"><ele>208.75</ele><time>2026-03-28T11:39:34.425Z</time></trkpt><trkpt lat="43.5705051" lon="11.6047035"><ele>206.0</ele><time>2026-03-28T11:39:35.425Z</time></trkpt><trkpt lat="43.5705516" lon="11.6045134"><ele>204.33333333333334</ele><time>2026-03-28T11:39:36.425Z</time></trkpt><trkpt lat="43.5705635" lon="11.6042965"><ele>202.66666666666669</ele><time>2026-03-28T11:39:37.425Z</time></trkpt><trkpt lat="43.5705266" lon="11.6040468"><ele>201.0</ele><time>2026-03-28T11:39:38.425Z</time></trkpt><trkpt lat="43.5704886" lon="11.6037862"><ele>202.66666666666669</ele><time>2026-03-28T11:39:39.425Z</time></trkpt><trkpt lat="43.5704502" lon="11.6035101"><ele>204.33333333333334</ele><time>2026-03-28T11:39:40.425Z</time></trkpt><trkpt lat="43.5704242" lon="11.6032257"><ele>206.0</ele><time>2026-03-28T11:39:41.425Z</time></trkpt><trkpt lat="43.5703912" lon="11.602947"><ele>205.66666666666669</ele><time>2026-03-28T11:39:42.425Z</time></trkpt><trkpt lat="43.5703541" lon="11.6026687"><ele>205.33333333333331</ele><time>2026-03-28T11:39:43.425Z</time></trkpt><trkpt lat="43.5703251" lon="11.6023955"><ele>205.0</ele><time>2026-03-28T11:39:44.425Z</time></trkpt><trkpt lat="43.5702965" lon="11.6021196"><ele>203.33333333333331</ele><time>2026-03-28T11:39:45.425Z</time></trkpt><trkpt lat="43.5702683" lon="11.6018264"><ele>201.66666666666669</ele><time>2026-03-28T11:39:46.425Z</time></trkpt><trkpt lat="43.5702396" lon="11.6015272"><ele>200.0</ele><time>2026-03-28T11:39:47.425Z</time></trkpt><trkpt lat="43.5702225" lon="11.6012249"><ele>200.0</ele><time>2026-03-28T11:39:48.425Z</time></trkpt><trkpt lat="43.5702222" lon="11.6009145"><ele>200.0</ele><time>2026-03-28T11:39:49.425Z</time></trkpt><trkpt lat="43.5702439" lon="11.6005991"><ele>198.5</ele><time>2026-03-28T11:39:50.425Z</time></trkpt><trkpt lat="43.5702646" lon="11.6002824"><ele>197.0</ele><time>2026-03-28T11:39:51.425Z</time></trkpt><trkpt lat="43.5702831" lon="11.5999683"><ele>197.0</ele><time>2026-03-28T11:39:52.425Z</time></trkpt><trkpt lat="43.5702999" lon="11.5996587"><ele>197.0</ele><time>2026-03-28T11:39:53.425Z</time></trkpt><trkpt lat="43.5703201" lon="11.5993481"><ele>197.33333333333334</ele><time>2026-03-28T11:39:54.425Z</time></trkpt><trkpt lat="43.5703397" lon="11.599043"><ele>197.66666666666669</ele><time>2026-03-28T11:39:55.425Z</time></trkpt><trkpt lat="43.5703638" lon="11.5987417"><ele>198.0</ele><time>2026-03-28T11:39:56.425Z</time></trkpt><trkpt lat="43.5703806" lon="11.5984344"><ele>198.0</ele><time>2026-03-28T11:39:57.425Z</time></trkpt><trkpt lat="43.5703929" lon="11.5981425"><ele>198.0</ele><time>2026-03-28T11:39:58.425Z</time></trkpt><trkpt lat="43.5704064" lon="11.5978574"><ele>198.0</ele><time>2026-03-28T11:39:59.425Z</time></trkpt><trkpt lat="43.5704212" lon="11.5975757"><ele>197.33333333333331</ele><time>2026-03-28T11:40:00.425Z</time></trkpt><trkpt lat="43.5704383" lon="11.5973024"><ele>196.66666666666666</ele><time>2026-03-28T11:40:01.425Z</time></trkpt><trkpt lat="43.5704592" lon="11.597024"><ele>196.0</ele><time>2026-03-28T11:40:02.425Z</time></trkpt><trkpt lat="43.570489" lon="11.5967415"><ele>194.0</ele><time>2026-03-28T11:40:03.425Z</time></trkpt><trkpt lat="43.5705321" lon="11.5964704"><ele>192.0</ele><time>2026-03-28T11:40:04.425Z</time></trkpt><trkpt lat="43.5705976" lon="11.5962065"><ele>190.0</ele><time>2026-03-28T11:40:05.425Z</time></trkpt><trkpt lat="43.570684" lon="11.5959793"><ele>189.33333333333334</ele><time>2026-03-28T11:40:06.425Z</time></trkpt><trkpt lat="43.5707763" lon="11.5957567"><ele>188.66666666666666</ele><time>2026-03-28T11:40:07.425Z</time></trkpt><trkpt lat="43.5708622" lon="11.5955303"><ele>188.0</ele><time>2026-03-28T11:40:08.425Z</time></trkpt><trkpt lat="43.5709426" lon="11.5952911"><ele>188.0</ele><time>2026-03-28T11:40:09.425Z</time></trkpt><trkpt lat="43.5710291" lon="11.5950694"><ele>188.0</ele><time>2026-03-28T11:40:10.425Z</time></trkpt><trkpt lat="43.571119" lon="11.5948352"><ele>188.0</ele><time>2026-03-28T11:40:11.425Z</time></trkpt><trkpt lat="43.5712119" lon="11.5945816"><ele>187.5</ele><time>2026-03-28T11:40:12.425Z</time></trkpt><trkpt lat="43.5713187" lon="11.5943036"><ele>187.0</ele><time>2026-03-28T11:40:13.425Z</time></trkpt><trkpt lat="43.5714246" lon="11.5940293"><ele>187.0</ele><time>2026-03-28T11:40:14.425Z</time></trkpt><trkpt lat="43.5715267" lon="11.59376"><ele>187.0</ele><time>2026-03-28T11:40:15.425Z</time></trkpt><trkpt lat="43.5716175" lon="11.5934959"><ele>187.0</ele><time>2026-03-28T11:40:16.425Z</time></trkpt><trkpt lat="43.5716824" lon="11.5932419"><ele>186.0</ele><time>2026-03-28T11:40:17.425Z</time></trkpt><trkpt lat="43.571724" lon="11.5929946"><ele>185.0</ele><time>2026-03-28T11:40:18.425Z</time></trkpt><trkpt lat="43.5717572" lon="11.5927317"><ele>184.0</ele><time>2026-03-28T11:40:19.425Z</time></trkpt><trkpt lat="43.5717856" lon="11.5924676"><ele>184.0</ele><time>2026-03-28T11:40:20.425Z</time></trkpt><trkpt lat="43.5718352" lon="11.5921928"><ele>184.0</ele><time>2026-03-28T11:40:21.425Z</time></trkpt><trkpt lat="43.5719002" lon="11.5918928"><ele>184.0</ele><time>2026-03-28T11:40:22.425Z</time></trkpt><trkpt lat="43.5719623" lon="11.5916045"><ele>185.0</ele><time>2026-03-28T11:40:23.425Z</time></trkpt><trkpt lat="43.5720316" lon="11.5913063"><ele>186.0</ele><time>2026-03-28T11:40:24.425Z</time></trkpt><trkpt lat="43.572106" lon="11.5910145"><ele>184.66666666666666</ele><time>2026-03-28T11:40:25.425Z</time></trkpt><trkpt lat="43.572188" lon="11.5907293"><ele>183.33333333333331</ele><time>2026-03-28T11:40:26.425Z</time></trkpt><trkpt lat="43.5722922" lon="11.5904554"><ele>182.0</ele><time>2026-03-28T11:40:27.425Z</time></trkpt><trkpt lat="43.5724026" lon="11.590178"><ele>180.0</ele><time>2026-03-28T11:40:28.425Z</time></trkpt><trkpt lat="43.5725212" lon="11.5899033"><ele>178.0</ele><time>2026-03-28T11:40:29.425Z</time></trkpt><trkpt lat="43.5726452" lon="11.5896394"><ele>177.33333333333334</ele><time>2026-03-28T11:40:30.425Z</time></trkpt><trkpt lat="43.5727667" lon="11.589391"><ele>176.66666666666666</ele><time>2026-03-28T11:40:31.425Z</time></trkpt><trkpt lat="43.5729016" lon="11.5891714"><ele>176.0</ele><time>2026-03-28T11:40:32.425Z</time></trkpt><trkpt lat="43.5730491" lon="11.5889645"><ele>176.33333333333331</ele><time>2026-03-28T11:40:33.425Z</time></trkpt><trkpt lat="43.5732067" lon="11.5887718"><ele>176.66666666666666</ele><time>2026-03-28T11:40:34.425Z</time></trkpt><trkpt lat="43.5733776" lon="11.5885911"><ele>177.0</ele><time>2026-03-28T11:40:35.425Z</time></trkpt><trkpt lat="43.5735685" lon="11.5884316"><ele>179.0</ele><time>2026-03-28T11:40:36.425Z</time></trkpt><trkpt lat="43.5737607" lon="11.5882727"><ele>181.0</ele><time>2026-03-28T11:40:37.425Z</time></trkpt><trkpt lat="43.5739567" lon="11.588119"><ele>183.0</ele><time>2026-03-28T11:40:38.425Z</time></trkpt><trkpt lat="43.5741398" lon="11.5879798"><ele>180.66666666666666</ele><time>2026-03-28T11:40:39.425Z</time></trkpt><trkpt lat="43.5743088" lon="11.5878268"><ele>178.33333333333331</ele><time>2026-03-28T11:40:40.425Z</time></trkpt><trkpt lat="43.5744676" lon="11.5876635"><ele>176.0</ele><time>2026-03-28T11:40:41.425Z</time></trkpt><trkpt lat="43.5746148" lon="11.5874705"><ele>176.0</ele><time>2026-03-28T11:40:42.425Z</time></trkpt><trkpt lat="43.5747631" lon="11.5872657"><ele>176.0</ele><time>2026-03-28T11:40:43.425Z</time></trkpt><trkpt lat="43.5749139" lon="11.5870528"><ele>176.0</ele><time>2026-03-28T11:40:44.425Z</time></trkpt><trkpt lat="43.5750591" lon="11.5868186"><ele>176.0</ele><time>2026-03-28T11:40:45.425Z</time></trkpt><trkpt lat="43.5752139" lon="11.5865798"><ele>176.0</ele><time>2026-03-28T11:40:46.425Z</time></trkpt><trkpt lat="43.5753601" lon="11.5863338"><ele>179.0</ele><time>2026-03-28T11:40:47.425Z</time></trkpt><trkpt lat="43.5755115" lon="11.5860973"><ele>182.0</ele><time>2026-03-28T11:40:48.425Z</time></trkpt><trkpt lat="43.5756576" lon="11.5858675"><ele>182.0</ele><time>2026-03-28T11:40:49.425Z</time></trkpt><trkpt lat="43.575798" lon="11.5856469"><ele>182.0</ele><time>2026-03-28T11:40:50.425Z</time></trkpt><trkpt lat="43.5759362" lon="11.5854359"><ele>182.0</ele><time>2026-03-28T11:40:51.425Z</time></trkpt><trkpt lat="43.5760707" lon="11.5852245"><ele>181.66666666666666</ele><time>2026-03-28T11:40:52.425Z</time></trkpt><trkpt lat="43.5761931" lon="11.5850206"><ele>181.33333333333334</ele><time>2026-03-28T11:40:53.425Z</time></trkpt><trkpt lat="43.5763245" lon="11.5848285"><ele>181.0</ele><time>2026-03-28T11:40:54.425Z</time></trkpt><trkpt lat="43.5764685" lon="11.5846664"><ele>181.0</ele><time>2026-03-28T11:40:55.425Z</time></trkpt><trkpt lat="43.5766212" lon="11.5845268"><ele>181.0</ele><time>2026-03-28T11:40:56.425Z</time></trkpt><trkpt lat="43.5767649" lon="11.5843902"><ele>181.0</ele><time>2026-03-28T11:40:57.425Z</time></trkpt><trkpt lat="43.576904" lon="11.5842571"><ele>176.66666666666669</ele><time>2026-03-28T11:40:58.425Z</time></trkpt><trkpt lat="43.5770385" lon="11.5841304"><ele>172.33333333333334</ele><time>2026-03-28T11:40:59.425Z</time></trkpt><trkpt lat="43.5771655" lon="11.584009"><ele>168.0</ele><time>2026-03-28T11:41:00.425Z</time></trkpt><trkpt lat="43.5772812" lon="11.5838859"><ele>168.0</ele><time>2026-03-28T11:41:01.425Z</time></trkpt><trkpt lat="43.5773855" lon="11.5837528"><ele>168.0</ele><time>2026-03-28T11:41:02.425Z</time></trkpt><trkpt lat="43.5774804" lon="11.5836188"><ele>168.0</ele><time>2026-03-28T11:41:03.425Z</time></trkpt><trkpt lat="43.5775838" lon="11.5834785"><ele>168.0</ele><time>2026-03-28T11:41:04.425Z</time></trkpt><trkpt lat="43.5776985" lon="11.5833264"><ele>168.0</ele><time>2026-03-28T11:41:05.425Z</time></trkpt><trkpt lat="43.5778185" lon="11.5831765"><ele>168.0</ele><time>2026-03-28T11:41:06.425Z</time></trkpt><trkpt lat="43.5779687" lon="11.5830704"><ele>168.0</ele><time>2026-03-28T11:41:07.425Z</time></trkpt><trkpt lat="43.5781475" lon="11.5829921"><ele>168.0</ele><time>2026-03-28T11:41:08.425Z</time></trkpt><trkpt lat="43.5783423" lon="11.5829292"><ele>168.0</ele><time>2026-03-28T11:41:09.425Z</time></trkpt><trkpt lat="43.5785408" lon="11.582872"><ele>168.0</ele><time>2026-03-28T11:41:10.425Z</time></trkpt><trkpt lat="43.5787405" lon="11.5828063"><ele>167.33333333333334</ele><time>2026-03-28T11:41:11.425Z</time></trkpt><trkpt lat="43.5789447" lon="11.5827386"><ele>166.66666666666669</ele><time>2026-03-28T11:41:12.425Z</time></trkpt><trkpt lat="43.5791527" lon="11.5826756"><ele>166.0</ele><time>2026-03-28T11:41:13.425Z</time></trkpt><trkpt lat="43.5793553" lon="11.5826052"><ele>166.33333333333334</ele><time>2026-03-28T11:41:14.425Z</time></trkpt><trkpt lat="43.5795603" lon="11.5825448"><ele>166.66666666666666</ele><time>2026-03-28T11:41:15.425Z</time></trkpt><trkpt lat="43.5797653" lon="11.5824782"><ele>167.0</ele><time>2026-03-28T11:41:16.425Z</time></trkpt><trkpt lat="43.5799741" lon="11.5824189"><ele>167.0</ele><time>2026-03-28T11:41:17.425Z</time></trkpt><trkpt lat="43.5801833" lon="11.5823591"><ele>167.0</ele><time>2026-03-28T11:41:18.425Z</time></trkpt><trkpt lat="43.5803813" lon="11.5823025"><ele>167.0</ele><time>2026-03-28T11:41:19.425Z</time></trkpt><trkpt lat="43.5805647" lon="11.5822445"><ele>169.33333333333331</ele><time>2026-03-28T11:41:20.425Z</time></trkpt><trkpt lat="43.5807344" lon="11.5821867"><ele>171.66666666666666</ele><time>2026-03-28T11:41:21.425Z</time></trkpt><trkpt lat="43.5808982" lon="11.5821317"><ele>174.0</ele><time>2026-03-28T11:41:22.425Z</time></trkpt><trkpt lat="43.5810382" lon="11.5820936"><ele>174.0</ele><time>2026-03-28T11:41:23.425Z</time></trkpt><trkpt lat="43.5811685" lon="11.5820498"><ele>174.0</ele><time>2026-03-28T11:41:24.425Z</time></trkpt><trkpt lat="43.581278" lon="11.5819665"><ele>174.0</ele><time>2026-03-28T11:41:25.425Z</time></trkpt><trkpt lat="43.5813608" lon="11.5818442"><ele>174.0</ele><time>2026-03-28T11:41:26.425Z</time></trkpt><trkpt lat="43.5814148" lon="11.581683"><ele>171.75</ele><time>2026-03-28T11:41:27.425Z</time></trkpt><trkpt lat="43.5814698" lon="11.5815188"><ele>169.5</ele><time>2026-03-28T11:41:28.425Z</time></trkpt><trkpt lat="43.5815329" lon="11.5813596"><ele>167.25</ele><time>2026-03-28T11:41:29.425Z</time></trkpt><trkpt lat="43.5816006" lon="11.5811931"><ele>165.0</ele><time>2026-03-28T11:41:30.425Z</time></trkpt><trkpt lat="43.5816688" lon="11.5810204"><ele>164.33333333333334</ele><time>2026-03-28T11:41:31.425Z</time></trkpt><trkpt lat="43.5817471" lon="11.5808405"><ele>163.66666666666669</ele><time>2026-03-28T11:41:32.425Z</time></trkpt><trkpt lat="43.581832" lon="11.5806329"><ele>163.0</ele><time>2026-03-28T11:41:33.425Z</time></trkpt><trkpt lat="43.5819238" lon="11.5804031"><ele>162.66666666666669</ele><time>2026-03-28T11:41:34.425Z</time></trkpt><trkpt lat="43.5820282" lon="11.5801676"><ele>162.33333333333334</ele><time>2026-03-28T11:41:35.425Z</time></trkpt><trkpt lat="43.5821578" lon="11.5799503"><ele>162.0</ele><time>2026-03-28T11:41:36.425Z</time></trkpt><trkpt lat="43.5823028" lon="11.5797443"><ele>162.0</ele><time>2026-03-28T11:41:37.425Z</time></trkpt><trkpt lat="43.5824574" lon="11.5795518"><ele>162.0</ele><time>2026-03-28T11:41:38.425Z</time></trkpt><trkpt lat="43.5826188" lon="11.5793734"><ele>162.0</ele><time>2026-03-28T11:41:39.425Z</time></trkpt><trkpt lat="43.5827914" lon="11.5792051"><ele>162.0</ele><time>2026-03-28T11:41:40.425Z</time></trkpt><trkpt lat="43.5829745" lon="11.5790289"><ele>162.0</ele><time>2026-03-28T11:41:41.425Z</time></trkpt><trkpt lat="43.5831592" lon="11.5788606"><ele>162.0</ele><time>2026-03-28T11:41:42.425Z</time></trkpt><trkpt lat="43.5833477" lon="11.5786832"><ele>160.5</ele><time>2026-03-28T11:41:43.425Z</time></trkpt><trkpt lat="43.5835362" lon="11.5785027"><ele>159.0</ele><time>2026-03-28T11:41:44.425Z</time></trkpt><trkpt lat="43.5837314" lon="11.5783129"><ele>159.0</ele><time>2026-03-28T11:41:45.425Z</time></trkpt><trkpt lat="43.5839161" lon="11.5781429"><ele>159.0</ele><time>2026-03-28T11:41:46.425Z</time></trkpt><trkpt lat="43.5841028" lon="11.5779678"><ele>159.0</ele><time>2026-03-28T11:41:47.425Z</time></trkpt><trkpt lat="43.5842923" lon="11.5777996"><ele>159.0</ele><time>2026-03-28T11:41:48.425Z</time></trkpt><trkpt lat="43.5844745" lon="11.5776685"><ele>159.0</ele><time>2026-03-28T11:41:49.425Z</time></trkpt><trkpt lat="43.5846622" lon="11.5775622"><ele>159.0</ele><time>2026-03-28T11:41:50.425Z</time></trkpt><trkpt lat="43.5848595" lon="11.5774433"><ele>158.66666666666666</ele><time>2026-03-28T11:41:51.425Z</time></trkpt><trkpt lat="43.5850466" lon="11.5773242"><ele>158.33333333333331</ele><time>2026-03-28T11:41:52.425Z</time></trkpt><trkpt lat="43.5852259" lon="11.5772116"><ele>158.0</ele><time>2026-03-28T11:41:53.425Z</time></trkpt><trkpt lat="43.5853954" lon="11.5771082"><ele>157.66666666666666</ele><time>2026-03-28T11:41:54.425Z</time></trkpt><trkpt lat="43.5855534" lon="11.5770039"><ele>157.33333333333334</ele><time>2026-03-28T11:41:55.425Z</time></trkpt><trkpt lat="43.5857068" lon="11.5769028"><ele>157.0</ele><time>2026-03-28T11:41:56.425Z</time></trkpt><trkpt lat="43.5858486" lon="11.5767879"><ele>157.0</ele><time>2026-03-28T11:41:57.425Z</time></trkpt><trkpt lat="43.5859928" lon="11.5766689"><ele>157.0</ele><time>2026-03-28T11:41:58.425Z</time></trkpt><trkpt lat="43.5861246" lon="11.5765503"><ele>157.0</ele><time>2026-03-28T11:41:59.425Z</time></trkpt><trkpt lat="43.5862583" lon="11.5764015"><ele>157.0</ele><time>2026-03-28T11:42:00.425Z</time></trkpt><trkpt lat="43.5864039" lon="11.5762357"><ele>157.0</ele><time>2026-03-28T11:42:01.425Z</time></trkpt><trkpt lat="43.5865692" lon="11.5760606"><ele>157.0</ele><time>2026-03-28T11:42:02.425Z</time></trkpt><trkpt lat="43.5867408" lon="11.575875"><ele>157.0</ele><time>2026-03-28T11:42:03.425Z</time></trkpt><trkpt lat="43.5869058" lon="11.5756711"><ele>157.0</ele><time>2026-03-28T11:42:04.425Z</time></trkpt><trkpt lat="43.5870584" lon="11.5754561"><ele>157.0</ele><time>2026-03-28T11:42:05.425Z</time></trkpt><trkpt lat="43.5872101" lon="11.5752385"><ele>157.33333333333334</ele><time>2026-03-28T11:42:06.425Z</time></trkpt><trkpt lat="43.5873475" lon="11.5750034"><ele>157.66666666666666</ele><time>2026-03-28T11:42:07.425Z</time></trkpt><trkpt lat="43.5874706" lon="11.5747354"><ele>158.0</ele><time>2026-03-28T11:42:08.425Z</time></trkpt><trkpt lat="43.5875932" lon="11.5744582"><ele>157.0</ele><time>2026-03-28T11:42:09.425Z</time></trkpt><trkpt lat="43.5877151" lon="11.5741832"><ele>156.0</ele><time>2026-03-28T11:42:10.425Z</time></trkpt><trkpt lat="43.5878403" lon="11.5739113"><ele>155.0</ele><time>2026-03-28T11:42:11.426Z</time></trkpt><trkpt lat="43.5879684" lon="11.5736383"><ele>154.0</ele><time>2026-03-28T11:42:12.425Z</time></trkpt><trkpt lat="43.5880965" lon="11.5733616"><ele>154.0</ele><time>2026-03-28T11:42:13.425Z</time></trkpt><trkpt lat="43.5882268" lon="11.5730833"><ele>154.0</ele><time>2026-03-28T11:42:14.425Z</time></trkpt><trkpt lat="43.5883586" lon="11.5728062"><ele>154.0</ele><time>2026-03-28T11:42:15.425Z</time></trkpt><trkpt lat="43.588487" lon="11.5725326"><ele>154.0</ele><time>2026-03-28T11:42:16.425Z</time></trkpt><trkpt lat="43.5886117" lon="11.5722649"><ele>154.33333333333334</ele><time>2026-03-28T11:42:17.425Z</time></trkpt><trkpt lat="43.5887306" lon="11.5720037"><ele>154.66666666666666</ele><time>2026-03-28T11:42:18.425Z</time></trkpt><trkpt lat="43.5888392" lon="11.5717627"><ele>155.0</ele><time>2026-03-28T11:42:19.425Z</time></trkpt><trkpt lat="43.5889384" lon="11.5715383"><ele>155.0</ele><time>2026-03-28T11:42:20.425Z</time></trkpt><trkpt lat="43.5890363" lon="11.5713322"><ele>155.0</ele><time>2026-03-28T11:42:21.425Z</time></trkpt><trkpt lat="43.5891276" lon="11.5711354"><ele>155.0</ele><time>2026-03-28T11:42:22.425Z</time></trkpt><trkpt lat="43.5892065" lon="11.5709295"><ele>154.66666666666666</ele><time>2026-03-28T11:42:23.425Z</time></trkpt><trkpt lat="43.5892696" lon="11.5707239"><ele>154.33333333333334</ele><time>2026-03-28T11:42:24.425Z</time></trkpt><trkpt lat="43.5893074" lon="11.570498"><ele>154.0</ele><time>2026-03-28T11:42:25.425Z</time></trkpt><trkpt lat="43.5893058" lon="11.5702525"><ele>153.33333333333334</ele><time>2026-03-28T11:42:26.425Z</time></trkpt><trkpt lat="43.5892644" lon="11.5700163"><ele>152.66666666666666</ele><time>2026-03-28T11:42:27.425Z</time></trkpt><trkpt lat="43.5891582" lon="11.5697928"><ele>152.0</ele><time>2026-03-28T11:42:28.425Z</time></trkpt><trkpt lat="43.5890146" lon="11.5695876"><ele>151.66666666666666</ele><time>2026-03-28T11:42:29.425Z</time></trkpt><trkpt lat="43.5888819" lon="11.5693529"><ele>151.33333333333334</ele><time>2026-03-28T11:42:30.425Z</time></trkpt><trkpt lat="43.5887592" lon="11.5690887"><ele>151.0</ele><time>2026-03-28T11:42:31.425Z</time></trkpt><trkpt lat="43.5886432" lon="11.5688214"><ele>151.5</ele><time>2026-03-28T11:42:32.425Z</time></trkpt><trkpt lat="43.588514" lon="11.5685561"><ele>152.0</ele><time>2026-03-28T11:42:33.425Z</time></trkpt><trkpt lat="43.5883783" lon="11.5682873"><ele>152.0</ele><time>2026-03-28T11:42:34.425Z</time></trkpt><trkpt lat="43.5882416" lon="11.5680301"><ele>152.0</ele><time>2026-03-28T11:42:35.425Z</time></trkpt><trkpt lat="43.5881033" lon="11.5677598"><ele>151.0</ele><time>2026-03-28T11:42:36.425Z</time></trkpt><trkpt lat="43.5879716" lon="11.5674849"><ele>150.0</ele><time>2026-03-28T11:42:37.425Z</time></trkpt><trkpt lat="43.5878506" lon="11.5671977"><ele>150.0</ele><time>2026-03-28T11:42:38.425Z</time></trkpt><trkpt lat="43.5877384" lon="11.5668986"><ele>150.0</ele><time>2026-03-28T11:42:39.425Z</time></trkpt><trkpt lat="43.5876463" lon="11.5665902"><ele>150.0</ele><time>2026-03-28T11:42:40.425Z</time></trkpt><trkpt lat="43.5875725" lon="11.5662688"><ele>150.0</ele><time>2026-03-28T11:42:41.425Z</time></trkpt><trkpt lat="43.5874997" lon="11.5659534"><ele>149.0</ele><time>2026-03-28T11:42:42.425Z</time></trkpt><trkpt lat="43.5874236" lon="11.565631"><ele>148.0</ele><time>2026-03-28T11:42:43.426Z</time></trkpt><trkpt lat="43.5873449" lon="11.5653067"><ele>147.5</ele><time>2026-03-28T11:42:44.425Z</time></trkpt><trkpt lat="43.5872626" lon="11.5649816"><ele>147.0</ele><time>2026-03-28T11:42:45.425Z</time></trkpt><trkpt lat="43.5871707" lon="11.5646586"><ele>147.0</ele><time>2026-03-28T11:42:46.425Z</time></trkpt><trkpt lat="43.5870593" lon="11.5643327"><ele>147.0</ele><time>2026-03-28T11:42:47.425Z</time></trkpt><trkpt lat="43.5869338" lon="11.5640026"><ele>147.0</ele><time>2026-03-28T11:42:48.425Z</time></trkpt><trkpt lat="43.5868034" lon="11.5636772"><ele>147.0</ele><time>2026-03-28T11:42:49.425Z</time></trkpt><trkpt lat="43.586668" lon="11.5633475"><ele>147.0</ele><time>2026-03-28T11:42:50.425Z</time></trkpt><trkpt lat="43.586517" lon="11.5630166"><ele>147.0</ele><time>2026-03-28T11:42:51.425Z</time></trkpt><trkpt lat="43.586349" lon="11.5626742"><ele>147.0</ele><time>2026-03-28T11:42:52.425Z</time></trkpt><trkpt lat="43.5861686" lon="11.5623344"><ele>147.0</ele><time>2026-03-28T11:42:53.425Z</time></trkpt><trkpt lat="43.5859968" lon="11.5620127"><ele>147.0</ele><time>2026-03-28T11:42:54.425Z</time></trkpt><trkpt lat="43.5858333" lon="11.5617114"><ele>147.0</ele><time>2026-03-28T11:42:55.425Z</time></trkpt><trkpt lat="43.5856732" lon="11.5614341"><ele>147.5</ele><time>2026-03-28T11:42:56.425Z</time></trkpt><trkpt lat="43.5855146" lon="11.5611668"><ele>148.0</ele><time>2026-03-28T11:42:57.425Z</time></trkpt><trkpt lat="43.5853698" lon="11.5609201"><ele>146.66666666666669</ele><time>2026-03-28T11:42:58.425Z</time></trkpt><trkpt lat="43.585221" lon="11.5606841"><ele>145.33333333333334</ele><time>2026-03-28T11:42:59.425Z</time></trkpt><trkpt lat="43.5850863" lon="11.5604744"><ele>144.0</ele><time>2026-03-28T11:43:00.425Z</time></trkpt><trkpt lat="43.584964" lon="11.5602929"><ele>144.0</ele><time>2026-03-28T11:43:01.425Z</time></trkpt><trkpt lat="43.5848584" lon="11.5601189"><ele>144.0</ele><time>2026-03-28T11:43:02.425Z</time></trkpt><trkpt lat="43.5847504" lon="11.5599553"><ele>144.0</ele><time>2026-03-28T11:43:03.425Z</time></trkpt><trkpt lat="43.584643" lon="11.5597925"><ele>144.0</ele><time>2026-03-28T11:43:04.425Z</time></trkpt><trkpt lat="43.5845401" lon="11.5596243"><ele>144.0</ele><time>2026-03-28T11:43:05.425Z</time></trkpt><trkpt lat="43.5844433" lon="11.5594585"><ele>144.0</ele><time>2026-03-28T11:43:06.425Z</time></trkpt><trkpt lat="43.5843604" lon="11.5592906"><ele>144.0</ele><time>2026-03-28T11:43:07.425Z</time></trkpt><trkpt lat="43.584283" lon="11.5591327"><ele>144.0</ele><time>2026-03-28T11:43:08.425Z</time></trkpt><trkpt lat="43.584212" lon="11.5589812"><ele>144.0</ele><time>2026-03-28T11:43:09.425Z</time></trkpt><trkpt lat="43.5841514" lon="11.5588388"><ele>144.0</ele><time>2026-03-28T11:43:10.425Z</time></trkpt><trkpt lat="43.5840919" lon="11.5586959"><ele>144.75</ele><time>2026-03-28T11:43:11.425Z</time></trkpt><trkpt lat="43.5840323" lon="11.558553"><ele>145.5</ele><time>2026-03-28T11:43:12.425Z</time></trkpt><trkpt lat="43.5839706" lon="11.5583976"><ele>146.25</ele><time>2026-03-28T11:43:13.425Z</time></trkpt><trkpt lat="43.5839153" lon="11.5582286"><ele>147.0</ele><time>2026-03-28T11:43:14.425Z</time></trkpt><trkpt lat="43.5838746" lon="11.5580457"><ele>146.75</ele><time>2026-03-28T11:43:15.425Z</time></trkpt><trkpt lat="43.5838446" lon="11.5578577"><ele>146.5</ele><time>2026-03-28T11:43:16.425Z</time></trkpt><trkpt lat="43.5838332" lon="11.5576633"><ele>146.25</ele><time>2026-03-28T11:43:17.425Z</time></trkpt><trkpt lat="43.5838417" lon="11.5574674"><ele>146.0</ele><time>2026-03-28T11:43:18.425Z</time></trkpt><trkpt lat="43.5838728" lon="11.5572848"><ele>146.0</ele><time>2026-03-28T11:43:19.425Z</time></trkpt><trkpt lat="43.5839127" lon="11.557111"><ele>146.0</ele><time>2026-03-28T11:43:20.425Z</time></trkpt><trkpt lat="43.5839629" lon="11.5569517"><ele>146.0</ele><time>2026-03-28T11:43:21.425Z</time></trkpt><trkpt lat="43.5840192" lon="11.5567925"><ele>146.0</ele><time>2026-03-28T11:43:22.425Z</time></trkpt><trkpt lat="43.5840825" lon="11.5566348"><ele>145.8</ele><time>2026-03-28T11:43:23.425Z</time></trkpt><trkpt lat="43.5841448" lon="11.5564984"><ele>145.6</ele><time>2026-03-28T11:43:24.425Z</time></trkpt><trkpt lat="43.5842087" lon="11.5563917"><ele>145.4</ele><time>2026-03-28T11:43:25.425Z</time></trkpt><trkpt lat="43.5842786" lon="11.5562925"><ele>145.2</ele><time>2026-03-28T11:43:26.425Z</time></trkpt><trkpt lat="43.5843503" lon="11.5561881"><ele>145.0</ele><time>2026-03-28T11:43:27.425Z</time></trkpt><trkpt lat="43.5844207" lon="11.5560821"><ele>145.0</ele><time>2026-03-28T11:43:28.425Z</time></trkpt><trkpt lat="43.5844855" lon="11.5559772"><ele>145.0</ele><time>2026-03-28T11:43:29.425Z</time></trkpt><trkpt lat="43.5845413" lon="11.5558798"><ele>145.0</ele><time>2026-03-28T11:43:30.425Z</time></trkpt><trkpt lat="43.5846009" lon="11.5557869"><ele>145.0</ele><time>2026-03-28T11:43:31.425Z</time></trkpt><trkpt lat="43.5846586" lon="11.5556953"><ele>145.0</ele><time>2026-03-28T11:43:32.425Z</time></trkpt><trkpt lat="43.5847188" lon="11.5556007"><ele>144.8</ele><time>2026-03-28T11:43:33.425Z</time></trkpt><trkpt lat="43.5847785" lon="11.5555049"><ele>144.6</ele><time>2026-03-28T11:43:34.425Z</time></trkpt><trkpt lat="43.5848384" lon="11.5554116"><ele>144.4</ele><time>2026-03-28T11:43:35.425Z</time></trkpt><trkpt lat="43.5848967" lon="11.5553068"><ele>144.2</ele><time>2026-03-28T11:43:36.425Z</time></trkpt><trkpt lat="43.5849542" lon="11.5552008"><ele>144.0</ele><time>2026-03-28T11:43:37.425Z</time></trkpt><trkpt lat="43.5850178" lon="11.5550872"><ele>143.5</ele><time>2026-03-28T11:43:38.425Z</time></trkpt><trkpt lat="43.5850858" lon="11.5549558"><ele>143.0</ele><time>2026-03-28T11:43:39.425Z</time></trkpt><trkpt lat="43.5851593" lon="11.5547953"><ele>142.5</ele><time>2026-03-28T11:43:40.425Z</time></trkpt><trkpt lat="43.5852334" lon="11.5546182"><ele>142.0</ele><time>2026-03-28T11:43:41.425Z</time></trkpt><trkpt lat="43.5853031" lon="11.5544538"><ele>141.6</ele><time>2026-03-28T11:43:42.426Z</time></trkpt><trkpt lat="43.5853717" lon="11.5543171"><ele>141.2</ele><time>2026-03-28T11:43:43.425Z</time></trkpt><trkpt lat="43.5854441" lon="11.5542026"><ele>140.8</ele><time>2026-03-28T11:43:44.425Z</time></trkpt><trkpt lat="43.5855227" lon="11.5541111"><ele>140.4</ele><time>2026-03-28T11:43:45.425Z</time></trkpt><trkpt lat="43.5856007" lon="11.5540373"><ele>140.0</ele><time>2026-03-28T11:43:46.425Z</time></trkpt><trkpt lat="43.585659" lon="11.5539488"><ele>140.0</ele><time>2026-03-28T11:43:47.425Z</time></trkpt><trkpt lat="43.5856773" lon="11.5538536"><ele>140.0</ele><time>2026-03-28T11:43:48.425Z</time></trkpt><trkpt lat="43.5856557" lon="11.5537475"><ele>140.0</ele><time>2026-03-28T11:43:49.425Z</time></trkpt><trkpt lat="43.5855821" lon="11.5536679"><ele>140.0</ele><time>2026-03-28T11:43:50.425Z</time></trkpt><trkpt lat="43.5854859" lon="11.5536362"><ele>140.0</ele><time>2026-03-28T11:43:51.425Z</time></trkpt><trkpt lat="43.5853606" lon="11.5536211"><ele>141.0</ele><time>2026-03-28T11:43:52.425Z</time></trkpt><trkpt lat="43.5852321" lon="11.5535494"><ele>142.0</ele><time>2026-03-28T11:43:53.425Z</time></trkpt><trkpt lat="43.5850929" lon="11.5534453"><ele>143.0</ele><time>2026-03-28T11:43:54.425Z</time></trkpt><trkpt lat="43.584937" lon="11.5533339"><ele>143.0</ele><time>2026-03-28T11:43:55.425Z</time></trkpt><trkpt lat="43.5847687" lon="11.55324"><ele>143.0</ele><time>2026-03-28T11:43:56.425Z</time></trkpt><trkpt lat="43.5845749" lon="11.5531433"><ele>143.0</ele><time>2026-03-28T11:43:57.425Z</time></trkpt><trkpt lat="43.5843708" lon="11.5530562"><ele>143.0</ele><time>2026-03-28T11:43:58.425Z</time></trkpt><trkpt lat="43.5841596" lon="11.5529672"><ele>143.0</ele><time>2026-03-28T11:43:59.425Z</time></trkpt><trkpt lat="43.5839496" lon="11.5528631"><ele>143.0</ele><time>2026-03-28T11:44:00.425Z</time></trkpt><trkpt lat="43.5837367" lon="11.5527598"><ele>142.0</ele><time>2026-03-28T11:44:01.425Z</time></trkpt><trkpt lat="43.5835325" lon="11.5526512"><ele>141.0</ele><time>2026-03-28T11:44:02.425Z</time></trkpt><trkpt lat="43.583349" lon="11.5525047"><ele>140.0</ele><time>2026-03-28T11:44:03.425Z</time></trkpt><trkpt lat="43.5831893" lon="11.5523018"><ele>140.0</ele><time>2026-03-28T11:44:04.425Z</time></trkpt><trkpt lat="43.5830591" lon="11.5520457"><ele>140.0</ele><time>2026-03-28T11:44:05.425Z</time></trkpt><trkpt lat="43.5829703" lon="11.5517701"><ele>140.0</ele><time>2026-03-28T11:44:06.425Z</time></trkpt><trkpt lat="43.5829148" lon="11.5514295"><ele>139.5</ele><time>2026-03-28T11:44:07.425Z</time></trkpt><trkpt lat="43.5828624" lon="11.5510978"><ele>139.0</ele><time>2026-03-28T11:44:08.425Z</time></trkpt><trkpt lat="43.5827956" lon="11.5507737"><ele>139.0</ele><time>2026-03-28T11:44:09.425Z</time></trkpt><trkpt lat="43.5827031" lon="11.5504694"><ele>139.0</ele><time>2026-03-28T11:44:10.425Z</time></trkpt><trkpt lat="43.5826001" lon="11.5501888"><ele>139.0</ele><time>2026-03-28T11:44:11.425Z</time></trkpt><trkpt lat="43.5824936" lon="11.5499262"><ele>139.0</ele><time>2026-03-28T11:44:12.425Z</time></trkpt><trkpt lat="43.5823774" lon="11.5496735"><ele>139.0</ele><time>2026-03-28T11:44:13.425Z</time></trkpt><trkpt lat="43.5822653" lon="11.5494138"><ele>139.0</ele><time>2026-03-28T11:44:14.425Z</time></trkpt><trkpt lat="43.5821536" lon="11.5491438"><ele>139.0</ele><time>2026-03-28T11:44:15.425Z</time></trkpt><trkpt lat="43.5820522" lon="11.5488526"><ele>138.5</ele><time>2026-03-28T11:44:16.425Z</time></trkpt><trkpt lat="43.5819923" lon="11.5485347"><ele>138.0</ele><time>2026-03-28T11:44:17.425Z</time></trkpt><trkpt lat="43.5819572" lon="11.5482219"><ele>138.0</ele><time>2026-03-28T11:44:18.425Z</time></trkpt><trkpt lat="43.5819404" lon="11.5479236"><ele>138.0</ele><time>2026-03-28T11:44:19.425Z</time></trkpt><trkpt lat="43.5819187" lon="11.5476496"><ele>138.0</ele><time>2026-03-28T11:44:20.425Z</time></trkpt><trkpt lat="43.5818822" lon="11.5473811"><ele>138.0</ele><time>2026-03-28T11:44:21.425Z</time></trkpt><trkpt lat="43.5818289" lon="11.5471225"><ele>138.0</ele><time>2026-03-28T11:44:22.425Z</time></trkpt><trkpt lat="43.5817377" lon="11.5468617"><ele>138.0</ele><time>2026-03-28T11:44:23.425Z</time></trkpt><trkpt lat="43.581634" lon="11.5465902"><ele>139.5</ele><time>2026-03-28T11:44:24.425Z</time></trkpt><trkpt lat="43.5815246" lon="11.5463043"><ele>141.0</ele><time>2026-03-28T11:44:25.425Z</time></trkpt><trkpt lat="43.5814364" lon="11.5459969"><ele>142.0</ele><time>2026-03-28T11:44:26.425Z</time></trkpt><trkpt lat="43.581365" lon="11.5456719"><ele>143.0</ele><time>2026-03-28T11:44:27.425Z</time></trkpt><trkpt lat="43.5813148" lon="11.5453416"><ele>143.0</ele><time>2026-03-28T11:44:28.425Z</time></trkpt><trkpt lat="43.5812706" lon="11.5450029"><ele>143.0</ele><time>2026-03-28T11:44:29.425Z</time></trkpt><trkpt lat="43.5812248" lon="11.5446564"><ele>139.5</ele><time>2026-03-28T11:44:30.425Z</time></trkpt><trkpt lat="43.5811782" lon="11.544302"><ele>136.0</ele><time>2026-03-28T11:44:31.425Z</time></trkpt><trkpt lat="43.5811333" lon="11.5439492"><ele>136.5</ele><time>2026-03-28T11:44:32.425Z</time></trkpt><trkpt lat="43.5810863" lon="11.5435949"><ele>137.0</ele><time>2026-03-28T11:44:33.425Z</time></trkpt><trkpt lat="43.5810387" lon="11.5432377"><ele>137.0</ele><time>2026-03-28T11:44:34.425Z</time></trkpt><trkpt lat="43.5809818" lon="11.5428868"><ele>137.0</ele><time>2026-03-28T11:44:35.425Z</time></trkpt><trkpt lat="43.5809103" lon="11.5425536"><ele>137.5</ele><time>2026-03-28T11:44:36.425Z</time></trkpt><trkpt lat="43.580817" lon="11.5422558"><ele>138.0</ele><time>2026-03-28T11:44:37.425Z</time></trkpt><trkpt lat="43.5807133" lon="11.5419951"><ele>139.0</ele><time>2026-03-28T11:44:38.425Z</time></trkpt><trkpt lat="43.5806134" lon="11.5417491"><ele>140.0</ele><time>2026-03-28T11:44:39.425Z</time></trkpt><trkpt lat="43.5805124" lon="11.5414992"><ele>141.0</ele><time>2026-03-28T11:44:40.425Z</time></trkpt><trkpt lat="43.5804545" lon="11.5412304"><ele>143.33333333333334</ele><time>2026-03-28T11:44:41.425Z</time></trkpt><trkpt lat="43.5804353" lon="11.5409486"><ele>145.66666666666669</ele><time>2026-03-28T11:44:42.425Z</time></trkpt><trkpt lat="43.5804772" lon="11.5406721"><ele>148.0</ele><time>2026-03-28T11:44:43.425Z</time></trkpt><trkpt lat="43.5805589" lon="11.5404267"><ele>148.0</ele><time>2026-03-28T11:44:44.425Z</time></trkpt><trkpt lat="43.5806722" lon="11.540217"><ele>148.0</ele><time>2026-03-28T11:44:45.425Z</time></trkpt><trkpt lat="43.5807906" lon="11.5400428"><ele>148.0</ele><time>2026-03-28T11:44:46.425Z</time></trkpt><trkpt lat="43.5808965" lon="11.5398786"><ele>148.0</ele><time>2026-03-28T11:44:47.425Z</time></trkpt><trkpt lat="43.5809787" lon="11.5397205"><ele>148.0</ele><time>2026-03-28T11:44:48.425Z</time></trkpt><trkpt lat="43.5810388" lon="11.5395577"><ele>148.0</ele><time>2026-03-28T11:44:49.425Z</time></trkpt><trkpt lat="43.581088" lon="11.5394008"><ele>148.0</ele><time>2026-03-28T11:44:50.425Z</time></trkpt><trkpt lat="43.5811231" lon="11.5392322"><ele>148.5</ele><time>2026-03-28T11:44:51.425Z</time></trkpt><trkpt lat="43.5811474" lon="11.5390552"><ele>149.0</ele><time>2026-03-28T11:44:52.425Z</time></trkpt><trkpt lat="43.581159" lon="11.5388707"><ele>149.5</ele><time>2026-03-28T11:44:53.425Z</time></trkpt><trkpt lat="43.5811625" lon="11.5386902"><ele>150.0</ele><time>2026-03-28T11:44:54.425Z</time></trkpt><trkpt lat="43.5811585" lon="11.5385117"><ele>150.0</ele><time>2026-03-28T11:44:55.425Z</time></trkpt><trkpt lat="43.5811459" lon="11.5383392"><ele>150.0</ele><time>2026-03-28T11:44:56.425Z</time></trkpt><trkpt lat="43.5811343" lon="11.538165"><ele>150.0</ele><time>2026-03-28T11:44:57.425Z</time></trkpt><trkpt lat="43.5811253" lon="11.5379916"><ele>150.0</ele><time>2026-03-28T11:44:58.425Z</time></trkpt><trkpt lat="43.5811172" lon="11.5378101"><ele>149.5</ele><time>2026-03-28T11:44:59.425Z</time></trkpt><trkpt lat="43.5811134" lon="11.5376383"><ele>149.0</ele><time>2026-03-28T11:45:00.425Z</time></trkpt><trkpt lat="43.5811001" lon="11.5374696"><ele>148.5</ele><time>2026-03-28T11:45:01.425Z</time></trkpt><trkpt lat="43.5810898" lon="11.5373031"><ele>148.0</ele><time>2026-03-28T11:45:02.425Z</time></trkpt><trkpt lat="43.5810851" lon="11.5371399"><ele>147.0</ele><time>2026-03-28T11:45:03.425Z</time></trkpt><trkpt lat="43.5810849" lon="11.5369805"><ele>146.0</ele><time>2026-03-28T11:45:04.425Z</time></trkpt><trkpt lat="43.5810949" lon="11.5368214"><ele>145.0</ele><time>2026-03-28T11:45:05.425Z</time></trkpt><trkpt lat="43.5811188" lon="11.5366559"><ele>144.0</ele><time>2026-03-28T11:45:06.425Z</time></trkpt><trkpt lat="43.5811578" lon="11.5364896"><ele>143.25</ele><time>2026-03-28T11:45:07.426Z</time></trkpt><trkpt lat="43.5812144" lon="11.5363313"><ele>142.5</ele><time>2026-03-28T11:45:08.425Z</time></trkpt><trkpt lat="43.5812913" lon="11.5361806"><ele>141.75</ele><time>2026-03-28T11:45:09.425Z</time></trkpt><trkpt lat="43.5813957" lon="11.5360506"><ele>141.0</ele><time>2026-03-28T11:45:10.425Z</time></trkpt><trkpt lat="43.5815142" lon="11.5359449"><ele>141.0</ele><time>2026-03-28T11:45:11.425Z</time></trkpt><trkpt lat="43.5816343" lon="11.5358589"><ele>141.0</ele><time>2026-03-28T11:45:12.425Z</time></trkpt><trkpt lat="43.5817598" lon="11.5357905"><ele>141.0</ele><time>2026-03-28T11:45:13.425Z</time></trkpt><trkpt lat="43.5818822" lon="11.5357275"><ele>141.0</ele><time>2026-03-28T11:45:14.425Z</time></trkpt><trkpt lat="43.5819888" lon="11.5356652"><ele>140.8</ele><time>2026-03-28T11:45:15.425Z</time></trkpt><trkpt lat="43.5820784" lon="11.5356101"><ele>140.6</ele><time>2026-03-28T11:45:16.425Z</time></trkpt><trkpt lat="43.58218" lon="11.5355952"><ele>140.4</ele><time>2026-03-28T11:45:17.425Z</time></trkpt><trkpt lat="43.5822848" lon="11.5356538"><ele>140.2</ele><time>2026-03-28T11:45:18.425Z</time></trkpt><trkpt lat="43.5823809" lon="11.5357046"><ele>140.0</ele><time>2026-03-28T11:45:19.425Z</time></trkpt><trkpt lat="43.5824817" lon="11.5357173"><ele>140.0</ele><time>2026-03-28T11:45:20.425Z</time></trkpt><trkpt lat="43.5825745" lon="11.5356569"><ele>140.0</ele><time>2026-03-28T11:45:21.425Z</time></trkpt><trkpt lat="43.5826401" lon="11.5355657"><ele>140.0</ele><time>2026-03-28T11:45:22.425Z</time></trkpt><trkpt lat="43.5826765" lon="11.535434"><ele>140.0</ele><time>2026-03-28T11:45:23.425Z</time></trkpt><trkpt lat="43.5826599" lon="11.5353"><ele>140.0</ele><time>2026-03-28T11:45:24.425Z</time></trkpt><trkpt lat="43.5825947" lon="11.5351792"><ele>138.5</ele><time>2026-03-28T11:45:25.425Z</time></trkpt><trkpt lat="43.5824882" lon="11.5350984"><ele>137.0</ele><time>2026-03-28T11:45:26.425Z</time></trkpt><trkpt lat="43.5823728" lon="11.5350249"><ele>135.5</ele><time>2026-03-28T11:45:27.425Z</time></trkpt><trkpt lat="43.5822651" lon="11.5349234"><ele>134.0</ele><time>2026-03-28T11:45:28.425Z</time></trkpt><trkpt lat="43.5821536" lon="11.5347727"><ele>134.0</ele><time>2026-03-28T11:45:29.425Z</time></trkpt><trkpt lat="43.5820269" lon="11.5346042"><ele>134.0</ele><time>2026-03-28T11:45:30.425Z</time></trkpt><trkpt lat="43.5818848" lon="11.5344626"><ele>134.0</ele><time>2026-03-28T11:45:31.425Z</time></trkpt><trkpt lat="43.5817127" lon="11.5343574"><ele>134.33333333333331</ele><time>2026-03-28T11:45:32.425Z</time></trkpt><trkpt lat="43.581518" lon="11.5343163"><ele>134.66666666666666</ele><time>2026-03-28T11:45:33.425Z</time></trkpt><trkpt lat="43.5813204" lon="11.5343222"><ele>135.0</ele><time>2026-03-28T11:45:34.425Z</time></trkpt><trkpt lat="43.5811238" lon="11.534371"><ele>135.33333333333334</ele><time>2026-03-28T11:45:35.425Z</time></trkpt><trkpt lat="43.580909" lon="11.5344627"><ele>135.66666666666669</ele><time>2026-03-28T11:45:36.425Z</time></trkpt><trkpt lat="43.5807037" lon="11.5345747"><ele>136.0</ele><time>2026-03-28T11:45:37.425Z</time></trkpt><trkpt lat="43.5804885" lon="11.5346726"><ele>135.0</ele><time>2026-03-28T11:45:38.425Z</time></trkpt><trkpt lat="43.5802708" lon="11.5347608"><ele>134.0</ele><time>2026-03-28T11:45:39.425Z</time></trkpt><trkpt lat="43.580052" lon="11.5348271"><ele>134.0</ele><time>2026-03-28T11:45:40.425Z</time></trkpt><trkpt lat="43.5798253" lon="11.5348757"><ele>134.0</ele><time>2026-03-28T11:45:41.425Z</time></trkpt><trkpt lat="43.5796056" lon="11.5349001"><ele>133.66666666666666</ele><time>2026-03-28T11:45:42.425Z</time></trkpt><trkpt lat="43.5793851" lon="11.5349134"><ele>133.33333333333334</ele><time>2026-03-28T11:45:43.425Z</time></trkpt><trkpt lat="43.5791803" lon="11.5349044"><ele>133.0</ele><time>2026-03-28T11:45:44.425Z</time></trkpt><trkpt lat="43.578996" lon="11.5348767"><ele>133.0</ele><time>2026-03-28T11:45:45.425Z</time></trkpt><trkpt lat="43.5788177" lon="11.5348255"><ele>133.0</ele><time>2026-03-28T11:45:46.425Z</time></trkpt><trkpt lat="43.5786583" lon="11.5347655"><ele>133.0</ele><time>2026-03-28T11:45:47.425Z</time></trkpt><trkpt lat="43.5785055" lon="11.5346889"><ele>134.0</ele><time>2026-03-28T11:45:48.425Z</time></trkpt><trkpt lat="43.578363" lon="11.5346281"><ele>135.0</ele><time>2026-03-28T11:45:49.425Z</time></trkpt><trkpt lat="43.5782426" lon="11.534563"><ele>136.0</ele><time>2026-03-28T11:45:50.425Z</time></trkpt><trkpt lat="43.5781426" lon="11.534467"><ele>137.0</ele><time>2026-03-28T11:45:51.425Z</time></trkpt><trkpt lat="43.5780638" lon="11.5343419"><ele>137.0</ele><time>2026-03-28T11:45:52.425Z</time></trkpt><trkpt lat="43.5780205" lon="11.5341547"><ele>137.0</ele><time>2026-03-28T11:45:53.425Z</time></trkpt><trkpt lat="43.5780284" lon="11.5339436"><ele>137.0</ele><time>2026-03-28T11:45:54.425Z</time></trkpt><trkpt lat="43.5780817" lon="11.5337252"><ele>135.66666666666666</ele><time>2026-03-28T11:45:55.425Z</time></trkpt><trkpt lat="43.5781631" lon="11.5335118"><ele>134.33333333333334</ele><time>2026-03-28T11:45:56.425Z</time></trkpt><trkpt lat="43.5782418" lon="11.5332896"><ele>133.0</ele><time>2026-03-28T11:45:57.425Z</time></trkpt><trkpt lat="43.5783413" lon="11.5330609"><ele>133.0</ele><time>2026-03-28T11:45:58.425Z</time></trkpt><trkpt lat="43.5784798" lon="11.5328113"><ele>133.0</ele><time>2026-03-28T11:45:59.425Z</time></trkpt><trkpt lat="43.5786226" lon="11.5325533"><ele>132.0</ele><time>2026-03-28T11:46:00.425Z</time></trkpt><trkpt lat="43.5787627" lon="11.5322937"><ele>131.0</ele><time>2026-03-28T11:46:01.425Z</time></trkpt><trkpt lat="43.5789049" lon="11.5320288"><ele>131.0</ele><time>2026-03-28T11:46:02.425Z</time></trkpt><trkpt lat="43.5790472" lon="11.5317638"><ele>131.0</ele><time>2026-03-28T11:46:03.425Z</time></trkpt><trkpt lat="43.5791929" lon="11.5315074"><ele>131.0</ele><time>2026-03-28T11:46:04.425Z</time></trkpt><trkpt lat="43.5793334" lon="11.5312433"><ele>131.0</ele><time>2026-03-28T11:46:05.425Z</time></trkpt><trkpt lat="43.5794672" lon="11.5309947"><ele>130.0</ele><time>2026-03-28T11:46:06.425Z</time></trkpt><trkpt lat="43.5796073" lon="11.5307482"><ele>129.0</ele><time>2026-03-28T11:46:07.425Z</time></trkpt><trkpt lat="43.5797548" lon="11.5305149"><ele>129.0</ele><time>2026-03-28T11:46:08.425Z</time></trkpt><trkpt lat="43.5799126" lon="11.5302981"><ele>129.0</ele><time>2026-03-28T11:46:09.425Z</time></trkpt><trkpt lat="43.5800757" lon="11.5301054"><ele>129.0</ele><time>2026-03-28T11:46:10.425Z</time></trkpt><trkpt lat="43.5802491" lon="11.5299546"><ele>129.0</ele><time>2026-03-28T11:46:11.425Z</time></trkpt><trkpt lat="43.5804215" lon="11.5298096"><ele>129.0</ele><time>2026-03-28T11:46:12.425Z</time></trkpt><trkpt lat="43.5805844" lon="11.5296469"><ele>129.0</ele><time>2026-03-28T11:46:13.425Z</time></trkpt><trkpt lat="43.5807301" lon="11.5294479"><ele>129.0</ele><time>2026-03-28T11:46:14.426Z</time></trkpt><trkpt lat="43.5808571" lon="11.5292241"><ele>129.0</ele><time>2026-03-28T11:46:15.425Z</time></trkpt><trkpt lat="43.5809654" lon="11.528971"><ele>129.0</ele><time>2026-03-28T11:46:16.425Z</time></trkpt><trkpt lat="43.5810649" lon="11.5287034"><ele>130.0</ele><time>2026-03-28T11:46:17.425Z</time></trkpt><trkpt lat="43.5811641" lon="11.5283956"><ele>131.0</ele><time>2026-03-28T11:46:18.425Z</time></trkpt><trkpt lat="43.5812779" lon="11.5280797"><ele>132.5</ele><time>2026-03-28T11:46:19.425Z</time></trkpt><trkpt lat="43.5813992" lon="11.5277541"><ele>134.0</ele><time>2026-03-28T11:46:20.425Z</time></trkpt><trkpt lat="43.5815293" lon="11.5274215"><ele>134.0</ele><time>2026-03-28T11:46:21.425Z</time></trkpt><trkpt lat="43.5816714" lon="11.5270789"><ele>134.0</ele><time>2026-03-28T11:46:22.425Z</time></trkpt><trkpt lat="43.5818199" lon="11.52673"><ele>133.5</ele><time>2026-03-28T11:46:23.425Z</time></trkpt><trkpt lat="43.5819852" lon="11.5263668"><ele>133.0</ele><time>2026-03-28T11:46:24.425Z</time></trkpt><trkpt lat="43.5821603" lon="11.5260028"><ele>132.5</ele><time>2026-03-28T11:46:25.425Z</time></trkpt><trkpt lat="43.5823504" lon="11.5256437"><ele>132.0</ele><time>2026-03-28T11:46:26.425Z</time></trkpt><trkpt lat="43.5825601" lon="11.5252781"><ele>132.0</ele><time>2026-03-28T11:46:27.425Z</time></trkpt><trkpt lat="43.5827761" lon="11.5249145"><ele>132.0</ele><time>2026-03-28T11:46:28.425Z</time></trkpt><trkpt lat="43.5830039" lon="11.5245636"><ele>132.5</ele><time>2026-03-28T11:46:29.425Z</time></trkpt><trkpt lat="43.5832391" lon="11.5242047"><ele>133.0</ele><time>2026-03-28T11:46:30.425Z</time></trkpt><trkpt lat="43.5834779" lon="11.5238485"><ele>134.0</ele><time>2026-03-28T11:46:31.425Z</time></trkpt><trkpt lat="43.5837241" lon="11.5234868"><ele>135.0</ele><time>2026-03-28T11:46:32.425Z</time></trkpt><trkpt lat="43.5839719" lon="11.5231308"><ele>133.0</ele><time>2026-03-28T11:46:33.425Z</time></trkpt><trkpt lat="43.5842251" lon="11.5227751"><ele>131.0</ele><time>2026-03-28T11:46:34.425Z</time></trkpt><trkpt lat="43.5844793" lon="11.522425"><ele>131.5</ele><time>2026-03-28T11:46:35.425Z</time></trkpt><trkpt lat="43.5847326" lon="11.5220709"><ele>132.0</ele><time>2026-03-28T11:46:36.425Z</time></trkpt><trkpt lat="43.5849869" lon="11.5217188"><ele>132.0</ele><time>2026-03-28T11:46:37.425Z</time></trkpt><trkpt lat="43.5852438" lon="11.5213608"><ele>132.0</ele><time>2026-03-28T11:46:38.425Z</time></trkpt><trkpt lat="43.5855004" lon="11.5210031"><ele>132.0</ele><time>2026-03-28T11:46:39.425Z</time></trkpt><trkpt lat="43.5857575" lon="11.5206442"><ele>132.0</ele><time>2026-03-28T11:46:40.425Z</time></trkpt><trkpt lat="43.586014" lon="11.5202808"><ele>132.0</ele><time>2026-03-28T11:46:41.425Z</time></trkpt><trkpt lat="43.5862718" lon="11.5199183"><ele>132.0</ele><time>2026-03-28T11:46:42.425Z</time></trkpt><trkpt lat="43.5865316" lon="11.5195525"><ele>132.0</ele><time>2026-03-28T11:46:43.425Z</time></trkpt><trkpt lat="43.5867921" lon="11.5191873"><ele>132.0</ele><time>2026-03-28T11:46:44.425Z</time></trkpt><trkpt lat="43.5870522" lon="11.5188201"><ele>131.5</ele><time>2026-03-28T11:46:45.425Z</time></trkpt><trkpt lat="43.5873117" lon="11.5184567"><ele>131.0</ele><time>2026-03-28T11:46:46.425Z</time></trkpt><trkpt lat="43.5875603" lon="11.5181042"><ele>131.0</ele><time>2026-03-28T11:46:47.425Z</time></trkpt><trkpt lat="43.587794" lon="11.5177673"><ele>131.0</ele><time>2026-03-28T11:46:48.425Z</time></trkpt><trkpt lat="43.588012" lon="11.5174551"><ele>131.5</ele><time>2026-03-28T11:46:49.425Z</time></trkpt><trkpt lat="43.5882146" lon="11.517165"><ele>132.0</ele><time>2026-03-28T11:46:50.425Z</time></trkpt><trkpt lat="43.5884089" lon="11.5168873"><ele>132.0</ele><time>2026-03-28T11:46:51.425Z</time></trkpt><trkpt lat="43.5885914" lon="11.5166257"><ele>132.0</ele><time>2026-03-28T11:46:52.425Z</time></trkpt><trkpt lat="43.5887704" lon="11.5163907"><ele>133.0</ele><time>2026-03-28T11:46:53.425Z</time></trkpt><trkpt lat="43.5889367" lon="11.5161622"><ele>134.0</ele><time>2026-03-28T11:46:54.425Z</time></trkpt><trkpt lat="43.589098" lon="11.5159496"><ele>134.0</ele><time>2026-03-28T11:46:55.425Z</time></trkpt><trkpt lat="43.589259" lon="11.5157497"><ele>134.0</ele><time>2026-03-28T11:46:56.425Z</time></trkpt><trkpt lat="43.5894208" lon="11.5155643"><ele>134.0</ele><time>2026-03-28T11:46:57.425Z</time></trkpt><trkpt lat="43.5895959" lon="11.5154111"><ele>133.33333333333331</ele><time>2026-03-28T11:46:58.425Z</time></trkpt><trkpt lat="43.5897783" lon="11.5152869"><ele>132.66666666666666</ele><time>2026-03-28T11:46:59.425Z</time></trkpt><trkpt lat="43.5899598" lon="11.5151954"><ele>132.0</ele><time>2026-03-28T11:47:00.425Z</time></trkpt><trkpt lat="43.5901449" lon="11.5151343"><ele>132.0</ele><time>2026-03-28T11:47:01.425Z</time></trkpt><trkpt lat="43.5903357" lon="11.5151098"><ele>132.0</ele><time>2026-03-28T11:47:02.425Z</time></trkpt><trkpt lat="43.5905283" lon="11.5151279"><ele>132.0</ele><time>2026-03-28T11:47:03.425Z</time></trkpt><trkpt lat="43.590718" lon="11.5151768"><ele>131.66666666666666</ele><time>2026-03-28T11:47:04.425Z</time></trkpt><trkpt lat="43.5909102" lon="11.5152597"><ele>131.33333333333331</ele><time>2026-03-28T11:47:05.425Z</time></trkpt><trkpt lat="43.5911117" lon="11.5153881"><ele>131.0</ele><time>2026-03-28T11:47:06.425Z</time></trkpt><trkpt lat="43.5913291" lon="11.5155802"><ele>133.0</ele><time>2026-03-28T11:47:07.425Z</time></trkpt><trkpt lat="43.5915272" lon="11.5157886"><ele>135.0</ele><time>2026-03-28T11:47:08.425Z</time></trkpt><trkpt lat="43.5916916" lon="11.5160067"><ele>135.0</ele><time>2026-03-28T11:47:09.425Z</time></trkpt><trkpt lat="43.5918289" lon="11.5161947"><ele>135.0</ele><time>2026-03-28T11:47:10.425Z</time></trkpt><trkpt lat="43.5919486" lon="11.5163488"><ele>135.0</ele><time>2026-03-28T11:47:11.425Z</time></trkpt><trkpt lat="43.5920676" lon="11.5164826"><ele>134.5</ele><time>2026-03-28T11:47:12.425Z</time></trkpt><trkpt lat="43.5921846" lon="11.5165733"><ele>134.0</ele><time>2026-03-28T11:47:13.425Z</time></trkpt><trkpt lat="43.5923348" lon="11.516619"><ele>133.5</ele><time>2026-03-28T11:47:14.425Z</time></trkpt><trkpt lat="43.5924884" lon="11.5166434"><ele>133.0</ele><time>2026-03-28T11:47:15.425Z</time></trkpt><trkpt lat="43.5926323" lon="11.5166706"><ele>133.0</ele><time>2026-03-28T11:47:16.425Z</time></trkpt><trkpt lat="43.5927743" lon="11.51665"><ele>133.0</ele><time>2026-03-28T11:47:17.425Z</time></trkpt><trkpt lat="43.5929139" lon="11.5165805"><ele>133.0</ele><time>2026-03-28T11:47:18.425Z</time></trkpt><trkpt lat="43.5930269" lon="11.5164779"><ele>133.0</ele><time>2026-03-28T11:47:19.425Z</time></trkpt><trkpt lat="43.593128" lon="11.5163805"><ele>132.75</ele><time>2026-03-28T11:47:20.425Z</time></trkpt><trkpt lat="43.593234" lon="11.5163227"><ele>132.5</ele><time>2026-03-28T11:47:21.425Z</time></trkpt><trkpt lat="43.5933446" lon="11.51635"><ele>132.25</ele><time>2026-03-28T11:47:22.425Z</time></trkpt><trkpt lat="43.593457" lon="11.5164006"><ele>132.0</ele><time>2026-03-28T11:47:23.425Z</time></trkpt><trkpt lat="43.5935854" lon="11.5164675"><ele>132.5</ele><time>2026-03-28T11:47:24.425Z</time></trkpt><trkpt lat="43.5937135" lon="11.5165507"><ele>133.0</ele><time>2026-03-28T11:47:25.425Z</time></trkpt><trkpt lat="43.5938485" lon="11.5166272"><ele>133.5</ele><time>2026-03-28T11:47:26.425Z</time></trkpt><trkpt lat="43.593986" lon="11.5166955"><ele>134.0</ele><time>2026-03-28T11:47:27.425Z</time></trkpt><trkpt lat="43.5941301" lon="11.5167479"><ele>134.0</ele><time>2026-03-28T11:47:28.425Z</time></trkpt><trkpt lat="43.594283" lon="11.5167809"><ele>134.0</ele><time>2026-03-28T11:47:29.425Z</time></trkpt><trkpt lat="43.5944499" lon="11.5167917"><ele>134.0</ele><time>2026-03-28T11:47:30.425Z</time></trkpt><trkpt lat="43.5946182" lon="11.5167733"><ele>135.0</ele><time>2026-03-28T11:47:31.425Z</time></trkpt><trkpt lat="43.5947984" lon="11.5167502"><ele>136.0</ele><time>2026-03-28T11:47:32.425Z</time></trkpt><trkpt lat="43.5949683" lon="11.5167219"><ele>137.0</ele><time>2026-03-28T11:47:33.425Z</time></trkpt><trkpt lat="43.5951194" lon="11.5167014"><ele>137.0</ele><time>2026-03-28T11:47:34.425Z</time></trkpt><trkpt lat="43.5952535" lon="11.5166866"><ele>137.0</ele><time>2026-03-28T11:47:35.425Z</time></trkpt><trkpt lat="43.5953787" lon="11.5166763"><ele>137.0</ele><time>2026-03-28T11:47:36.425Z</time></trkpt><trkpt lat="43.5955016" lon="11.5166608"><ele>137.0</ele><time>2026-03-28T11:47:37.425Z</time></trkpt><trkpt lat="43.5956243" lon="11.5166438"><ele>137.5</ele><time>2026-03-28T11:47:38.425Z</time></trkpt><trkpt lat="43.5957574" lon="11.5166362"><ele>138.0</ele><time>2026-03-28T11:47:39.425Z</time></trkpt><trkpt lat="43.5959001" lon="11.5166031"><ele>138.5</ele><time>2026-03-28T11:47:40.426Z</time></trkpt><trkpt lat="43.5960441" lon="11.5165252"><ele>139.0</ele><time>2026-03-28T11:47:41.425Z</time></trkpt><trkpt lat="43.5961984" lon="11.5164439"><ele>139.0</ele><time>2026-03-28T11:47:42.425Z</time></trkpt><trkpt lat="43.5963511" lon="11.5163621"><ele>139.0</ele><time>2026-03-28T11:47:43.425Z</time></trkpt><trkpt lat="43.5965064" lon="11.5162618"><ele>139.0</ele><time>2026-03-28T11:47:44.425Z</time></trkpt><trkpt lat="43.5966606" lon="11.5161429"><ele>139.0</ele><time>2026-03-28T11:47:45.425Z</time></trkpt><trkpt lat="43.5968155" lon="11.5160147"><ele>139.0</ele><time>2026-03-28T11:47:46.425Z</time></trkpt><trkpt lat="43.5969749" lon="11.5158896"><ele>139.0</ele><time>2026-03-28T11:47:47.425Z</time></trkpt><trkpt lat="43.597126" lon="11.5157508"><ele>139.0</ele><time>2026-03-28T11:47:48.425Z</time></trkpt><trkpt lat="43.5972819" lon="11.5156086"><ele>139.0</ele><time>2026-03-28T11:47:49.425Z</time></trkpt><trkpt lat="43.5974435" lon="11.5154663"><ele>139.0</ele><time>2026-03-28T11:47:50.425Z</time></trkpt><trkpt lat="43.5975946" lon="11.5153261"><ele>138.0</ele><time>2026-03-28T11:47:51.425Z</time></trkpt><trkpt lat="43.5977371" lon="11.5151902"><ele>137.0</ele><time>2026-03-28T11:47:52.425Z</time></trkpt><trkpt lat="43.5978747" lon="11.5150548"><ele>136.0</ele><time>2026-03-28T11:47:53.425Z</time></trkpt><trkpt lat="43.5980113" lon="11.5149116"><ele>136.0</ele><time>2026-03-28T11:47:54.425Z</time></trkpt><trkpt lat="43.5981486" lon="11.514765"><ele>136.0</ele><time>2026-03-28T11:47:55.425Z</time></trkpt><trkpt lat="43.5982891" lon="11.5146226"><ele>136.0</ele><time>2026-03-28T11:47:56.425Z</time></trkpt><trkpt lat="43.5984345" lon="11.5144743"><ele>136.33333333333334</ele><time>2026-03-28T11:47:57.425Z</time></trkpt><trkpt lat="43.5985978" lon="11.5143366"><ele>136.66666666666666</ele><time>2026-03-28T11:47:58.425Z</time></trkpt><trkpt lat="43.598772" lon="11.5142136"><ele>137.0</ele><time>2026-03-28T11:47:59.425Z</time></trkpt><trkpt lat="43.5989395" lon="11.5140903"><ele>137.0</ele><time>2026-03-28T11:48:00.425Z</time></trkpt><trkpt lat="43.5991111" lon="11.5139642"><ele>137.0</ele><time>2026-03-28T11:48:01.425Z</time></trkpt><trkpt lat="43.5992828" lon="11.5138286"><ele>137.0</ele><time>2026-03-28T11:48:02.425Z</time></trkpt><trkpt lat="43.5994632" lon="11.5136828"><ele>136.33333333333331</ele><time>2026-03-28T11:48:03.425Z</time></trkpt><trkpt lat="43.5996401" lon="11.5135212"><ele>135.66666666666666</ele><time>2026-03-28T11:48:04.425Z</time></trkpt><trkpt lat="43.599825" lon="11.513349"><ele>135.0</ele><time>2026-03-28T11:48:05.425Z</time></trkpt><trkpt lat="43.6000082" lon="11.5131673"><ele>135.0</ele><time>2026-03-28T11:48:06.425Z</time></trkpt><trkpt lat="43.6001982" lon="11.5129867"><ele>135.0</ele><time>2026-03-28T11:48:07.425Z</time></trkpt><trkpt lat="43.600388" lon="11.5128038"><ele>134.5</ele><time>2026-03-28T11:48:08.425Z</time></trkpt><trkpt lat="43.6005694" lon="11.5126052"><ele>134.0</ele><time>2026-03-28T11:48:09.425Z</time></trkpt><trkpt lat="43.6007397" lon="11.5123728"><ele>134.0</ele><time>2026-03-28T11:48:10.425Z</time></trkpt><trkpt lat="43.6009084" lon="11.5121444"><ele>134.0</ele><time>2026-03-28T11:48:11.425Z</time></trkpt><trkpt lat="43.6010817" lon="11.5119162"><ele>133.0</ele><time>2026-03-28T11:48:12.425Z</time></trkpt><trkpt lat="43.6012622" lon="11.5117036"><ele>132.0</ele><time>2026-03-28T11:48:13.425Z</time></trkpt><trkpt lat="43.6014591" lon="11.5115275"><ele>132.0</ele><time>2026-03-28T11:48:14.425Z</time></trkpt><trkpt lat="43.6016603" lon="11.5113718"><ele>132.0</ele><time>2026-03-28T11:48:15.425Z</time></trkpt><trkpt lat="43.6018606" lon="11.5112166"><ele>131.66666666666666</ele><time>2026-03-28T11:48:16.425Z</time></trkpt><trkpt lat="43.6020531" lon="11.5110656"><ele>131.33333333333331</ele><time>2026-03-28T11:48:17.425Z</time></trkpt><trkpt lat="43.6022309" lon="11.5109272"><ele>131.0</ele><time>2026-03-28T11:48:18.425Z</time></trkpt><trkpt lat="43.6023957" lon="11.5108043"><ele>131.0</ele><time>2026-03-28T11:48:19.425Z</time></trkpt><trkpt lat="43.6025506" lon="11.5106833"><ele>131.0</ele><time>2026-03-28T11:48:20.425Z</time></trkpt><trkpt lat="43.60269" lon="11.510563"><ele>131.0</ele><time>2026-03-28T11:48:21.425Z</time></trkpt><trkpt lat="43.6028083" lon="11.5104184"><ele>132.66666666666666</ele><time>2026-03-28T11:48:22.425Z</time></trkpt><trkpt lat="43.6029185" lon="11.5102181"><ele>134.33333333333334</ele><time>2026-03-28T11:48:23.425Z</time></trkpt><trkpt lat="43.603028" lon="11.5099842"><ele>136.0</ele><time>2026-03-28T11:48:24.425Z</time></trkpt><trkpt lat="43.6031369" lon="11.5097213"><ele>134.0</ele><time>2026-03-28T11:48:25.425Z</time></trkpt><trkpt lat="43.60325" lon="11.5094852"><ele>132.0</ele><time>2026-03-28T11:48:26.425Z</time></trkpt><trkpt lat="43.6033622" lon="11.5092752"><ele>130.0</ele><time>2026-03-28T11:48:27.425Z</time></trkpt><trkpt lat="43.6034964" lon="11.509084"><ele>130.0</ele><time>2026-03-28T11:48:28.425Z</time></trkpt><trkpt lat="43.6036561" lon="11.5088871"><ele>130.0</ele><time>2026-03-28T11:48:29.425Z</time></trkpt><trkpt lat="43.60381" lon="11.5086831"><ele>130.0</ele><time>2026-03-28T11:48:30.425Z</time></trkpt><trkpt lat="43.6039418" lon="11.5084153"><ele>130.5</ele><time>2026-03-28T11:48:31.425Z</time></trkpt><trkpt lat="43.6040217" lon="11.5081032"><ele>131.0</ele><time>2026-03-28T11:48:32.425Z</time></trkpt><trkpt lat="43.6040962" lon="11.5078231"><ele>131.0</ele><time>2026-03-28T11:48:33.425Z</time></trkpt><trkpt lat="43.6041512" lon="11.5075563"><ele>131.0</ele><time>2026-03-28T11:48:34.425Z</time></trkpt><trkpt lat="43.6042086" lon="11.5072842"><ele>131.0</ele><time>2026-03-28T11:48:35.425Z</time></trkpt><trkpt lat="43.604255" lon="11.5070054"><ele>130.0</ele><time>2026-03-28T11:48:36.425Z</time></trkpt><trkpt lat="43.6043151" lon="11.5067337"><ele>129.0</ele><time>2026-03-28T11:48:37.425Z</time></trkpt><trkpt lat="43.6043834" lon="11.5064898"><ele>128.0</ele><time>2026-03-28T11:48:38.425Z</time></trkpt><trkpt lat="43.6044681" lon="11.5062671"><ele>130.33333333333331</ele><time>2026-03-28T11:48:39.425Z</time></trkpt><trkpt lat="43.6045833" lon="11.5060656"><ele>132.66666666666666</ele><time>2026-03-28T11:48:40.425Z</time></trkpt><trkpt lat="43.6047133" lon="11.5058726"><ele>135.0</ele><time>2026-03-28T11:48:41.425Z</time></trkpt><trkpt lat="43.6048352" lon="11.5056945"><ele>135.0</ele><time>2026-03-28T11:48:42.425Z</time></trkpt><trkpt lat="43.6049522" lon="11.5055074"><ele>135.0</ele><time>2026-03-28T11:48:43.425Z</time></trkpt><trkpt lat="43.6050781" lon="11.5053255"><ele>135.0</ele><time>2026-03-28T11:48:44.425Z</time></trkpt><trkpt lat="43.6052022" lon="11.5051512"><ele>137.66666666666666</ele><time>2026-03-28T11:48:45.425Z</time></trkpt><trkpt lat="43.6053309" lon="11.5049735"><ele>140.33333333333331</ele><time>2026-03-28T11:48:46.425Z</time></trkpt><trkpt lat="43.6054677" lon="11.5047955"><ele>143.0</ele><time>2026-03-28T11:48:47.425Z</time></trkpt><trkpt lat="43.6056002" lon="11.5046374"><ele>140.0</ele><time>2026-03-28T11:48:48.425Z</time></trkpt><trkpt lat="43.6057168" lon="11.5044939"><ele>137.0</ele><time>2026-03-28T11:48:49.425Z</time></trkpt><trkpt lat="43.6058298" lon="11.5043697"><ele>134.0</ele><time>2026-03-28T11:48:50.425Z</time></trkpt><trkpt lat="43.6059294" lon="11.5042645"><ele>131.0</ele><time>2026-03-28T11:48:51.425Z</time></trkpt><trkpt lat="43.6060256" lon="11.5041707"><ele>131.0</ele><time>2026-03-28T11:48:52.425Z</time></trkpt><trkpt lat="43.6061284" lon="11.504078"><ele>131.0</ele><time>2026-03-28T11:48:53.425Z</time></trkpt><trkpt lat="43.6062426" lon="11.5039845"><ele>131.0</ele><time>2026-03-28T11:48:54.425Z</time></trkpt><trkpt lat="43.6063648" lon="11.5038801"><ele>131.0</ele><time>2026-03-28T11:48:55.425Z</time></trkpt><trkpt lat="43.6064899" lon="11.5037813"><ele>130.5</ele><time>2026-03-28T11:48:56.425Z</time></trkpt><trkpt lat="43.606609" lon="11.5036971"><ele>130.0</ele><time>2026-03-28T11:48:57.425Z</time></trkpt><trkpt lat="43.6067209" lon="11.50363"><ele>129.5</ele><time>2026-03-28T11:48:58.425Z</time></trkpt><trkpt lat="43.6068329" lon="11.5035693"><ele>129.0</ele><time>2026-03-28T11:48:59.425Z</time></trkpt><trkpt lat="43.6069471" lon="11.5035268"><ele>129.25</ele><time>2026-03-28T11:49:00.425Z</time></trkpt><trkpt lat="43.6070659" lon="11.5034921"><ele>129.5</ele><time>2026-03-28T11:49:01.425Z</time></trkpt><trkpt lat="43.6071898" lon="11.503472"><ele>129.75</ele><time>2026-03-28T11:49:02.425Z</time></trkpt><trkpt lat="43.6073198" lon="11.5034693"><ele>130.0</ele><time>2026-03-28T11:49:03.425Z</time></trkpt><trkpt lat="43.6074429" lon="11.5034755"><ele>130.0</ele><time>2026-03-28T11:49:04.425Z</time></trkpt><trkpt lat="43.6075655" lon="11.5034794"><ele>130.0</ele><time>2026-03-28T11:49:05.425Z</time></trkpt><trkpt lat="43.6076844" lon="11.503481"><ele>130.0</ele><time>2026-03-28T11:49:06.425Z</time></trkpt><trkpt lat="43.6077997" lon="11.5034807"><ele>130.0</ele><time>2026-03-28T11:49:07.425Z</time></trkpt><trkpt lat="43.6079224" lon="11.5034474"><ele>129.0</ele><time>2026-03-28T11:49:08.425Z</time></trkpt><trkpt lat="43.608055" lon="11.5033613"><ele>128.0</ele><time>2026-03-28T11:49:09.425Z</time></trkpt><trkpt lat="43.6081888" lon="11.5032343"><ele>127.0</ele><time>2026-03-28T11:49:10.425Z</time></trkpt><trkpt lat="43.6083473" lon="11.5031062"><ele>127.0</ele><time>2026-03-28T11:49:11.425Z</time></trkpt><trkpt lat="43.6085213" lon="11.5029661"><ele>127.0</ele><time>2026-03-28T11:49:12.425Z</time></trkpt><trkpt lat="43.6086897" lon="11.5028229"><ele>127.0</ele><time>2026-03-28T11:49:13.425Z</time></trkpt><trkpt lat="43.6088507" lon="11.5026592"><ele>127.0</ele><time>2026-03-28T11:49:14.425Z</time></trkpt><trkpt lat="43.6090041" lon="11.5024768"><ele>127.0</ele><time>2026-03-28T11:49:15.425Z</time></trkpt><trkpt lat="43.6091626" lon="11.5022925"><ele>127.0</ele><time>2026-03-28T11:49:16.425Z</time></trkpt><trkpt lat="43.6093443" lon="11.5021336"><ele>126.66666666666667</ele><time>2026-03-28T11:49:17.425Z</time></trkpt><trkpt lat="43.6095494" lon="11.502019"><ele>126.33333333333334</ele><time>2026-03-28T11:49:18.425Z</time></trkpt><trkpt lat="43.6097559" lon="11.5019114"><ele>126.0</ele><time>2026-03-28T11:49:19.425Z</time></trkpt><trkpt lat="43.6099686" lon="11.5018139"><ele>126.0</ele><time>2026-03-28T11:49:20.425Z</time></trkpt><trkpt lat="43.6101892" lon="11.5017118"><ele>126.0</ele><time>2026-03-28T11:49:21.425Z</time></trkpt><trkpt lat="43.6104117" lon="11.501604"><ele>126.5</ele><time>2026-03-28T11:49:22.425Z</time></trkpt><trkpt lat="43.6106375" lon="11.5014983"><ele>127.0</ele><time>2026-03-28T11:49:23.425Z</time></trkpt><trkpt lat="43.610861" lon="11.5013933"><ele>127.0</ele><time>2026-03-28T11:49:24.425Z</time></trkpt><trkpt lat="43.6110831" lon="11.501285"><ele>127.0</ele><time>2026-03-28T11:49:25.425Z</time></trkpt><trkpt lat="43.6112976" lon="11.5011793"><ele>125.5</ele><time>2026-03-28T11:49:26.425Z</time></trkpt><trkpt lat="43.6115185" lon="11.5010884"><ele>124.0</ele><time>2026-03-28T11:49:27.425Z</time></trkpt><trkpt lat="43.6117378" lon="11.501017"><ele>124.0</ele><time>2026-03-28T11:49:28.425Z</time></trkpt><trkpt lat="43.6119668" lon="11.5009481"><ele>124.0</ele><time>2026-03-28T11:49:29.425Z</time></trkpt><trkpt lat="43.612194" lon="11.5008776"><ele>125.0</ele><time>2026-03-28T11:49:30.425Z</time></trkpt><trkpt lat="43.6124252" lon="11.5008114"><ele>126.0</ele><time>2026-03-28T11:49:31.425Z</time></trkpt><trkpt lat="43.612655" lon="11.5007422"><ele>126.0</ele><time>2026-03-28T11:49:32.425Z</time></trkpt><trkpt lat="43.6128783" lon="11.5006784"><ele>126.0</ele><time>2026-03-28T11:49:33.425Z</time></trkpt><trkpt lat="43.6130925" lon="11.5006065"><ele>126.0</ele><time>2026-03-28T11:49:34.425Z</time></trkpt><trkpt lat="43.6132961" lon="11.5005495"><ele>126.0</ele><time>2026-03-28T11:49:35.425Z</time></trkpt><trkpt lat="43.6134877" lon="11.5004933"><ele>126.0</ele><time>2026-03-28T11:49:36.425Z</time></trkpt><trkpt lat="43.6136648" lon="11.5004211"><ele>126.0</ele><time>2026-03-28T11:49:37.425Z</time></trkpt><trkpt lat="43.6138444" lon="11.5003508"><ele>125.33333333333334</ele><time>2026-03-28T11:49:38.425Z</time></trkpt><trkpt lat="43.6140245" lon="11.5002654"><ele>124.66666666666667</ele><time>2026-03-28T11:49:39.425Z</time></trkpt><trkpt lat="43.6142149" lon="11.5001736"><ele>124.0</ele><time>2026-03-28T11:49:40.425Z</time></trkpt><trkpt lat="43.614395" lon="11.5000758"><ele>124.33333333333334</ele><time>2026-03-28T11:49:41.425Z</time></trkpt><trkpt lat="43.6145623" lon="11.4999872"><ele>124.66666666666666</ele><time>2026-03-28T11:49:42.425Z</time></trkpt><trkpt lat="43.6147207" lon="11.4998945"><ele>125.0</ele><time>2026-03-28T11:49:43.425Z</time></trkpt><trkpt lat="43.6148626" lon="11.4998181"><ele>125.0</ele><time>2026-03-28T11:49:44.425Z</time></trkpt><trkpt lat="43.6149939" lon="11.4997432"><ele>125.0</ele><time>2026-03-28T11:49:45.425Z</time></trkpt><trkpt lat="43.6150928" lon="11.499691"><ele>125.0</ele><time>2026-03-28T11:49:46.425Z</time></trkpt><trkpt lat="43.6151638" lon="11.4996468"><ele>125.0</ele><time>2026-03-28T11:49:47.425Z</time></trkpt><trkpt lat="43.6152514" lon="11.4996061"><ele>125.0</ele><time>2026-03-28T11:49:49.425Z</time></trkpt><trkpt lat="43.6153468" lon="11.4995921"><ele>125.0</ele><time>2026-03-28T11:49:54.425Z</time></trkpt><trkpt lat="43.6154702" lon="11.4994984"><ele>125.0</ele><time>2026-03-28T11:49:56.425Z</time></trkpt><trkpt lat="43.6155339" lon="11.4994091"><ele>125.0</ele><time>2026-03-28T11:49:57.425Z</time></trkpt><trkpt lat="43.615606" lon="11.4993189"><ele>125.0</ele><time>2026-03-28T11:49:58.425Z</time></trkpt><trkpt lat="43.6156952" lon="11.4992051"><ele>125.0</ele><time>2026-03-28T11:49:59.425Z</time></trkpt><trkpt lat="43.6157942" lon="11.4990726"><ele>125.0</ele><time>2026-03-28T11:50:00.425Z</time></trkpt><trkpt lat="43.6159063" lon="11.4989232"><ele>125.0</ele><time>2026-03-28T11:50:01.425Z</time></trkpt><trkpt lat="43.6160329" lon="11.498763"><ele>125.0</ele><time>2026-03-28T11:50:02.425Z</time></trkpt><trkpt lat="43.6161755" lon="11.4985958"><ele>125.0</ele><time>2026-03-28T11:50:03.425Z</time></trkpt><trkpt lat="43.6163306" lon="11.4984197"><ele>125.0</ele><time>2026-03-28T11:50:04.425Z</time></trkpt><trkpt lat="43.6164962" lon="11.4982397"><ele>125.0</ele><time>2026-03-28T11:50:05.425Z</time></trkpt><trkpt lat="43.616666" lon="11.4980447"><ele>125.0</ele><time>2026-03-28T11:50:06.425Z</time></trkpt><trkpt lat="43.6168344" lon="11.4978469"><ele>125.0</ele><time>2026-03-28T11:50:07.425Z</time></trkpt><trkpt lat="43.6170004" lon="11.4976502"><ele>125.33333333333333</ele><time>2026-03-28T11:50:08.425Z</time></trkpt><trkpt lat="43.6171671" lon="11.4974497"><ele>125.66666666666666</ele><time>2026-03-28T11:50:09.425Z</time></trkpt><trkpt lat="43.6173372" lon="11.4972528"><ele>126.0</ele><time>2026-03-28T11:50:10.425Z</time></trkpt><trkpt lat="43.6175148" lon="11.4970579"><ele>125.5</ele><time>2026-03-28T11:50:11.425Z</time></trkpt><trkpt lat="43.6176998" lon="11.4968802"><ele>125.0</ele><time>2026-03-28T11:50:12.425Z</time></trkpt><trkpt lat="43.617899" lon="11.4967267"><ele>125.0</ele><time>2026-03-28T11:50:13.425Z</time></trkpt><trkpt lat="43.6181104" lon="11.4966053"><ele>125.0</ele><time>2026-03-28T11:50:14.425Z</time></trkpt><trkpt lat="43.6183316" lon="11.496512"><ele>125.0</ele><time>2026-03-28T11:50:15.425Z</time></trkpt><trkpt lat="43.6185595" lon="11.4964426"><ele>125.0</ele><time>2026-03-28T11:50:16.425Z</time></trkpt><trkpt lat="43.6187914" lon="11.4963925"><ele>127.5</ele><time>2026-03-28T11:50:17.425Z</time></trkpt><trkpt lat="43.6190304" lon="11.4963651"><ele>130.0</ele><time>2026-03-28T11:50:18.425Z</time></trkpt><trkpt lat="43.619269" lon="11.4963368"><ele>129.5</ele><time>2026-03-28T11:50:19.425Z</time></trkpt><trkpt lat="43.6195064" lon="11.4963143"><ele>129.0</ele><time>2026-03-28T11:50:20.425Z</time></trkpt><trkpt lat="43.6197392" lon="11.4962893"><ele>129.0</ele><time>2026-03-28T11:50:21.425Z</time></trkpt><trkpt lat="43.6199652" lon="11.4962634"><ele>129.0</ele><time>2026-03-28T11:50:22.425Z</time></trkpt><trkpt lat="43.6201868" lon="11.4962334"><ele>129.0</ele><time>2026-03-28T11:50:23.425Z</time></trkpt><trkpt lat="43.6204021" lon="11.4962039"><ele>127.66666666666666</ele><time>2026-03-28T11:50:24.425Z</time></trkpt><trkpt lat="43.6206142" lon="11.4961729"><ele>126.33333333333333</ele><time>2026-03-28T11:50:25.425Z</time></trkpt><trkpt lat="43.6208197" lon="11.4961257"><ele>125.0</ele><time>2026-03-28T11:50:26.425Z</time></trkpt><trkpt lat="43.6210213" lon="11.4960344"><ele>125.66666666666666</ele><time>2026-03-28T11:50:27.425Z</time></trkpt><trkpt lat="43.6212203" lon="11.4959103"><ele>126.33333333333334</ele><time>2026-03-28T11:50:28.425Z</time></trkpt><trkpt lat="43.6214211" lon="11.4957762"><ele>127.0</ele><time>2026-03-28T11:50:29.425Z</time></trkpt><trkpt lat="43.6216193" lon="11.4956524"><ele>127.0</ele><time>2026-03-28T11:50:30.425Z</time></trkpt><trkpt lat="43.6218141" lon="11.4955209"><ele>127.0</ele><time>2026-03-28T11:50:31.425Z</time></trkpt><trkpt lat="43.6219929" lon="11.4953712"><ele>127.0</ele><time>2026-03-28T11:50:32.425Z</time></trkpt><trkpt lat="43.622153" lon="11.4952027"><ele>127.0</ele><time>2026-03-28T11:50:33.425Z</time></trkpt><trkpt lat="43.6222815" lon="11.4950162"><ele>127.0</ele><time>2026-03-28T11:50:34.425Z</time></trkpt><trkpt lat="43.6223896" lon="11.4948049"><ele>127.0</ele><time>2026-03-28T11:50:35.425Z</time></trkpt><trkpt lat="43.6224875" lon="11.4945688"><ele>125.66666666666667</ele><time>2026-03-28T11:50:36.425Z</time></trkpt><trkpt lat="43.6225753" lon="11.494324"><ele>124.33333333333334</ele><time>2026-03-28T11:50:37.425Z</time></trkpt><trkpt lat="43.6226449" lon="11.4940533"><ele>123.0</ele><time>2026-03-28T11:50:38.425Z</time></trkpt><trkpt lat="43.6226902" lon="11.4937573"><ele>122.0</ele><time>2026-03-28T11:50:39.425Z</time></trkpt><trkpt lat="43.6227124" lon="11.4934475"><ele>121.0</ele><time>2026-03-28T11:50:40.425Z</time></trkpt><trkpt lat="43.6226983" lon="11.4931332"><ele>122.0</ele><time>2026-03-28T11:50:41.425Z</time></trkpt><trkpt lat="43.6226628" lon="11.4928012"><ele>123.0</ele><time>2026-03-28T11:50:42.425Z</time></trkpt><trkpt lat="43.6226019" lon="11.4924719"><ele>123.0</ele><time>2026-03-28T11:50:43.425Z</time></trkpt><trkpt lat="43.6225256" lon="11.4921453"><ele>123.0</ele><time>2026-03-28T11:50:44.425Z</time></trkpt><trkpt lat="43.6224437" lon="11.4918221"><ele>123.0</ele><time>2026-03-28T11:50:45.425Z</time></trkpt><trkpt lat="43.6223669" lon="11.4914935"><ele>123.0</ele><time>2026-03-28T11:50:46.425Z</time></trkpt><trkpt lat="43.6222894" lon="11.4911615"><ele>123.0</ele><time>2026-03-28T11:50:47.425Z</time></trkpt><trkpt lat="43.6222154" lon="11.4908274"><ele>123.0</ele><time>2026-03-28T11:50:48.425Z</time></trkpt><trkpt lat="43.6221379" lon="11.490498"><ele>123.5</ele><time>2026-03-28T11:50:49.425Z</time></trkpt><trkpt lat="43.6220589" lon="11.4901757"><ele>124.0</ele><time>2026-03-28T11:50:50.425Z</time></trkpt><trkpt lat="43.6219776" lon="11.489855"><ele>123.5</ele><time>2026-03-28T11:50:51.425Z</time></trkpt><trkpt lat="43.6219082" lon="11.4895432"><ele>123.0</ele><time>2026-03-28T11:50:52.425Z</time></trkpt><trkpt lat="43.6218363" lon="11.4892572"><ele>123.0</ele><time>2026-03-28T11:50:53.425Z</time></trkpt><trkpt lat="43.6217741" lon="11.4889816"><ele>123.0</ele><time>2026-03-28T11:50:54.425Z</time></trkpt><trkpt lat="43.6217158" lon="11.4887171"><ele>123.0</ele><time>2026-03-28T11:50:55.425Z</time></trkpt><trkpt lat="43.6216662" lon="11.4884436"><ele>123.0</ele><time>2026-03-28T11:50:56.425Z</time></trkpt><trkpt lat="43.6216271" lon="11.4881616"><ele>123.0</ele><time>2026-03-28T11:50:57.425Z</time></trkpt><trkpt lat="43.6216106" lon="11.4878721"><ele>123.0</ele><time>2026-03-28T11:50:58.425Z</time></trkpt><trkpt lat="43.6216283" lon="11.48758"><ele>123.33333333333334</ele><time>2026-03-28T11:50:59.425Z</time></trkpt><trkpt lat="43.6216753" lon="11.4872827"><ele>123.66666666666667</ele><time>2026-03-28T11:51:00.425Z</time></trkpt><trkpt lat="43.621745" lon="11.4869843"><ele>124.0</ele><time>2026-03-28T11:51:01.425Z</time></trkpt><trkpt lat="43.6218421" lon="11.4866976"><ele>124.0</ele><time>2026-03-28T11:51:02.425Z</time></trkpt><trkpt lat="43.6219678" lon="11.4864086"><ele>124.0</ele><time>2026-03-28T11:51:03.425Z</time></trkpt><trkpt lat="43.6221084" lon="11.4861341"><ele>124.5</ele><time>2026-03-28T11:51:04.425Z</time></trkpt><trkpt lat="43.6222531" lon="11.4858555"><ele>125.0</ele><time>2026-03-28T11:51:05.425Z</time></trkpt><trkpt lat="43.6223933" lon="11.4855652"><ele>124.0</ele><time>2026-03-28T11:51:06.425Z</time></trkpt><trkpt lat="43.6225314" lon="11.4852834"><ele>123.0</ele><time>2026-03-28T11:51:07.425Z</time></trkpt><trkpt lat="43.6226589" lon="11.4850156"><ele>123.0</ele><time>2026-03-28T11:51:08.425Z</time></trkpt><trkpt lat="43.622784" lon="11.4847691"><ele>123.0</ele><time>2026-03-28T11:51:09.425Z</time></trkpt><trkpt lat="43.6229026" lon="11.4845311"><ele>123.0</ele><time>2026-03-28T11:51:10.425Z</time></trkpt><trkpt lat="43.623019" lon="11.4842907"><ele>123.33333333333334</ele><time>2026-03-28T11:51:11.425Z</time></trkpt><trkpt lat="43.6231314" lon="11.484062"><ele>123.66666666666667</ele><time>2026-03-28T11:51:12.425Z</time></trkpt><trkpt lat="43.6232461" lon="11.4838265"><ele>124.0</ele><time>2026-03-28T11:51:13.425Z</time></trkpt><trkpt lat="43.6233608" lon="11.4835865"><ele>124.0</ele><time>2026-03-28T11:51:14.425Z</time></trkpt><trkpt lat="43.6234784" lon="11.4833494"><ele>124.0</ele><time>2026-03-28T11:51:15.425Z</time></trkpt><trkpt lat="43.6235894" lon="11.4831224"><ele>124.0</ele><time>2026-03-28T11:51:16.425Z</time></trkpt><trkpt lat="43.6236955" lon="11.4829121"><ele>124.66666666666667</ele><time>2026-03-28T11:51:17.425Z</time></trkpt><trkpt lat="43.6237944" lon="11.4827154"><ele>125.33333333333334</ele><time>2026-03-28T11:51:18.425Z</time></trkpt><trkpt lat="43.6238821" lon="11.4825357"><ele>126.0</ele><time>2026-03-28T11:51:19.425Z</time></trkpt><trkpt lat="43.6239471" lon="11.4823663"><ele>126.0</ele><time>2026-03-28T11:51:20.425Z</time></trkpt><trkpt lat="43.6240036" lon="11.482233"><ele>126.0</ele><time>2026-03-28T11:51:21.425Z</time></trkpt><trkpt lat="43.6240553" lon="11.4821278"><ele>126.0</ele><time>2026-03-28T11:51:22.425Z</time></trkpt><trkpt lat="43.624119" lon="11.482018"><ele>126.0</ele><time>2026-03-28T11:51:23.426Z</time></trkpt><trkpt lat="43.6241857" lon="11.4819332"><ele>126.0</ele><time>2026-03-28T11:51:24.425Z</time></trkpt><trkpt lat="43.6242257" lon="11.4818432"><ele>126.4</ele><time>2026-03-28T11:51:25.425Z</time></trkpt><trkpt lat="43.6242161" lon="11.4817437"><ele>126.8</ele><time>2026-03-28T11:51:26.425Z</time></trkpt><trkpt lat="43.6241593" lon="11.4816582"><ele>127.20000000000002</ele><time>2026-03-28T11:51:27.425Z</time></trkpt><trkpt lat="43.6240666" lon="11.4815807"><ele>127.60000000000001</ele><time>2026-03-28T11:51:28.425Z</time></trkpt><trkpt lat="43.6239409" lon="11.4814741"><ele>128.0</ele><time>2026-03-28T11:51:29.425Z</time></trkpt><trkpt lat="43.6238446" lon="11.4813181"><ele>127.33333333333333</ele><time>2026-03-28T11:51:30.425Z</time></trkpt><trkpt lat="43.6237591" lon="11.4811467"><ele>126.66666666666666</ele><time>2026-03-28T11:51:31.425Z</time></trkpt><trkpt lat="43.6236578" lon="11.4809558"><ele>126.0</ele><time>2026-03-28T11:51:32.425Z</time></trkpt><trkpt lat="43.6235522" lon="11.4807633"><ele>125.0</ele><time>2026-03-28T11:51:33.425Z</time></trkpt><trkpt lat="43.6234297" lon="11.4805682"><ele>124.0</ele><time>2026-03-28T11:51:34.425Z</time></trkpt><trkpt lat="43.6233174" lon="11.4803852"><ele>123.0</ele><time>2026-03-28T11:51:35.425Z</time></trkpt><trkpt lat="43.6232083" lon="11.4802074"><ele>122.0</ele><time>2026-03-28T11:51:36.425Z</time></trkpt><trkpt lat="43.6231054" lon="11.4800202"><ele>121.0</ele><time>2026-03-28T11:51:37.425Z</time></trkpt><trkpt lat="43.6230002" lon="11.4798437"><ele>120.0</ele><time>2026-03-28T11:51:38.425Z</time></trkpt><trkpt lat="43.6228932" lon="11.4796703"><ele>120.5</ele><time>2026-03-28T11:51:39.425Z</time></trkpt><trkpt lat="43.6227912" lon="11.4795082"><ele>121.0</ele><time>2026-03-28T11:51:40.425Z</time></trkpt><trkpt lat="43.6227011" lon="11.4793625"><ele>121.5</ele><time>2026-03-28T11:51:41.425Z</time></trkpt><trkpt lat="43.6226237" lon="11.4792398"><ele>122.0</ele><time>2026-03-28T11:51:42.425Z</time></trkpt><trkpt lat="43.6225595" lon="11.4791357"><ele>121.99999999999999</ele><time>2026-03-28T11:51:43.425Z</time></trkpt><trkpt lat="43.6225207" lon="11.4790408"><ele>122.0</ele><time>2026-03-28T11:51:44.426Z</time></trkpt><trkpt lat="43.6224908" lon="11.4789558"><ele>122.0</ele><time>2026-03-28T11:51:45.425Z</time></trkpt><trkpt lat="43.6224871" lon="11.4788571"><ele>122.0</ele><time>2026-03-28T11:51:46.425Z</time></trkpt><trkpt lat="43.6225074" lon="11.4787354"><ele>121.99999999999999</ele><time>2026-03-28T11:51:47.425Z</time></trkpt><trkpt lat="43.6225523" lon="11.4785783"><ele>122.0</ele><time>2026-03-28T11:51:48.425Z</time></trkpt><trkpt lat="43.6226165" lon="11.4784241"><ele>122.33333333333333</ele><time>2026-03-28T11:51:49.425Z</time></trkpt><trkpt lat="43.6227247" lon="11.4782846"><ele>122.66666666666666</ele><time>2026-03-28T11:51:50.425Z</time></trkpt><trkpt lat="43.622852" lon="11.4781433"><ele>123.0</ele><time>2026-03-28T11:51:51.425Z</time></trkpt><trkpt lat="43.6229991" lon="11.4779949"><ele>123.0</ele><time>2026-03-28T11:51:52.425Z</time></trkpt><trkpt lat="43.6231469" lon="11.477839"><ele>123.0</ele><time>2026-03-28T11:51:53.425Z</time></trkpt><trkpt lat="43.6232954" lon="11.4776651"><ele>123.0</ele><time>2026-03-28T11:51:54.425Z</time></trkpt><trkpt lat="43.6234498" lon="11.477482"><ele>123.0</ele><time>2026-03-28T11:51:55.425Z</time></trkpt><trkpt lat="43.6236034" lon="11.4772884"><ele>123.0</ele><time>2026-03-28T11:51:56.425Z</time></trkpt><trkpt lat="43.6237543" lon="11.4770838"><ele>123.0</ele><time>2026-03-28T11:51:57.425Z</time></trkpt><trkpt lat="43.6239025" lon="11.47687"><ele>123.0</ele><time>2026-03-28T11:51:58.425Z</time></trkpt><trkpt lat="43.624045" lon="11.4766503"><ele>123.0</ele><time>2026-03-28T11:51:59.425Z</time></trkpt><trkpt lat="43.6241858" lon="11.4764159"><ele>123.0</ele><time>2026-03-28T11:52:00.425Z</time></trkpt><trkpt lat="43.6243209" lon="11.4761679"><ele>123.0</ele><time>2026-03-28T11:52:01.425Z</time></trkpt><trkpt lat="43.624456" lon="11.4759136"><ele>123.0</ele><time>2026-03-28T11:52:02.425Z</time></trkpt><trkpt lat="43.6245882" lon="11.4756569"><ele>123.0</ele><time>2026-03-28T11:52:03.425Z</time></trkpt><trkpt lat="43.6247148" lon="11.4753931"><ele>123.0</ele><time>2026-03-28T11:52:04.425Z</time></trkpt><trkpt lat="43.6248403" lon="11.4751233"><ele>123.0</ele><time>2026-03-28T11:52:05.425Z</time></trkpt><trkpt lat="43.6249669" lon="11.4748517"><ele>123.0</ele><time>2026-03-28T11:52:06.425Z</time></trkpt><trkpt lat="43.6250925" lon="11.4745798"><ele>122.0</ele><time>2026-03-28T11:52:07.425Z</time></trkpt><trkpt lat="43.6252175" lon="11.4743046"><ele>121.0</ele><time>2026-03-28T11:52:08.425Z</time></trkpt><trkpt lat="43.6253385" lon="11.4740327"><ele>122.0</ele><time>2026-03-28T11:52:09.425Z</time></trkpt><trkpt lat="43.6254626" lon="11.4737563"><ele>123.0</ele><time>2026-03-28T11:52:10.425Z</time></trkpt><trkpt lat="43.6255954" lon="11.4734698"><ele>123.0</ele><time>2026-03-28T11:52:11.425Z</time></trkpt><trkpt lat="43.625731" lon="11.4731753"><ele>123.0</ele><time>2026-03-28T11:52:12.425Z</time></trkpt><trkpt lat="43.6258706" lon="11.4728786"><ele>122.5</ele><time>2026-03-28T11:52:13.425Z</time></trkpt><trkpt lat="43.6260076" lon="11.4725891"><ele>122.0</ele><time>2026-03-28T11:52:14.425Z</time></trkpt><trkpt lat="43.6261342" lon="11.4723177"><ele>121.5</ele><time>2026-03-28T11:52:15.425Z</time></trkpt><trkpt lat="43.6262401" lon="11.4720215"><ele>121.0</ele><time>2026-03-28T11:52:16.425Z</time></trkpt><trkpt lat="43.6263114" lon="11.4717096"><ele>121.0</ele><time>2026-03-28T11:52:17.425Z</time></trkpt><trkpt lat="43.6263562" lon="11.4713889"><ele>121.0</ele><time>2026-03-28T11:52:18.425Z</time></trkpt><trkpt lat="43.6263736" lon="11.4710577"><ele>121.0</ele><time>2026-03-28T11:52:19.425Z</time></trkpt><trkpt lat="43.6263444" lon="11.4707154"><ele>121.0</ele><time>2026-03-28T11:52:20.425Z</time></trkpt><trkpt lat="43.6263027" lon="11.4703787"><ele>121.0</ele><time>2026-03-28T11:52:21.425Z</time></trkpt><trkpt lat="43.6262266" lon="11.4700394"><ele>121.0</ele><time>2026-03-28T11:52:22.425Z</time></trkpt><trkpt lat="43.6261482" lon="11.4697325"><ele>120.66666666666667</ele><time>2026-03-28T11:52:23.425Z</time></trkpt><trkpt lat="43.626072" lon="11.4694479"><ele>120.33333333333334</ele><time>2026-03-28T11:52:24.425Z</time></trkpt><trkpt lat="43.6259998" lon="11.4691763"><ele>120.0</ele><time>2026-03-28T11:52:25.425Z</time></trkpt><trkpt lat="43.6259377" lon="11.4689123"><ele>120.33333333333334</ele><time>2026-03-28T11:52:26.425Z</time></trkpt><trkpt lat="43.6258891" lon="11.4686606"><ele>120.66666666666667</ele><time>2026-03-28T11:52:27.425Z</time></trkpt><trkpt lat="43.6258595" lon="11.4684609"><ele>121.0</ele><time>2026-03-28T11:52:28.425Z</time></trkpt><trkpt lat="43.625863" lon="11.4682995"><ele>121.0</ele><time>2026-03-28T11:52:29.425Z</time></trkpt><trkpt lat="43.6258999" lon="11.4681616"><ele>121.0</ele><time>2026-03-28T11:52:30.425Z</time></trkpt><trkpt lat="43.6259608" lon="11.4680477"><ele>121.0</ele><time>2026-03-28T11:52:31.425Z</time></trkpt><trkpt lat="43.6260297" lon="11.4679223"><ele>121.0</ele><time>2026-03-28T11:52:32.425Z</time></trkpt><trkpt lat="43.6260895" lon="11.4677732"><ele>121.0</ele><time>2026-03-28T11:52:33.425Z</time></trkpt><trkpt lat="43.6261386" lon="11.4675822"><ele>120.66666666666667</ele><time>2026-03-28T11:52:34.425Z</time></trkpt><trkpt lat="43.6262239" lon="11.4673891"><ele>120.33333333333334</ele><time>2026-03-28T11:52:35.425Z</time></trkpt><trkpt lat="43.6263559" lon="11.4672064"><ele>120.0</ele><time>2026-03-28T11:52:36.425Z</time></trkpt><trkpt lat="43.6265046" lon="11.4670376"><ele>120.0</ele><time>2026-03-28T11:52:37.425Z</time></trkpt><trkpt lat="43.6266633" lon="11.4668583"><ele>120.0</ele><time>2026-03-28T11:52:38.425Z</time></trkpt><trkpt lat="43.6268382" lon="11.4666795"><ele>120.0</ele><time>2026-03-28T11:52:39.425Z</time></trkpt><trkpt lat="43.6270126" lon="11.4664963"><ele>120.0</ele><time>2026-03-28T11:52:40.425Z</time></trkpt><trkpt lat="43.6271894" lon="11.466314"><ele>120.0</ele><time>2026-03-28T11:52:41.425Z</time></trkpt><trkpt lat="43.6273688" lon="11.4661516"><ele>120.0</ele><time>2026-03-28T11:52:42.425Z</time></trkpt><trkpt lat="43.6275489" lon="11.4659991"><ele>121.0</ele><time>2026-03-28T11:52:43.425Z</time></trkpt><trkpt lat="43.6277244" lon="11.4658418"><ele>122.0</ele><time>2026-03-28T11:52:44.425Z</time></trkpt><trkpt lat="43.6278957" lon="11.4656827"><ele>123.0</ele><time>2026-03-28T11:52:45.425Z</time></trkpt><trkpt lat="43.6280683" lon="11.4655277"><ele>122.33333333333334</ele><time>2026-03-28T11:52:46.425Z</time></trkpt><trkpt lat="43.6282266" lon="11.4653859"><ele>121.66666666666667</ele><time>2026-03-28T11:52:47.425Z</time></trkpt><trkpt lat="43.6283835" lon="11.4652544"><ele>121.0</ele><time>2026-03-28T11:52:48.425Z</time></trkpt><trkpt lat="43.6285333" lon="11.4651243"><ele>120.66666666666667</ele><time>2026-03-28T11:52:49.425Z</time></trkpt><trkpt lat="43.6286806" lon="11.465005"><ele>120.33333333333334</ele><time>2026-03-28T11:52:50.425Z</time></trkpt><trkpt lat="43.6288226" lon="11.4648858"><ele>120.0</ele><time>2026-03-28T11:52:51.425Z</time></trkpt><trkpt lat="43.6289509" lon="11.4647768"><ele>120.0</ele><time>2026-03-28T11:52:52.425Z</time></trkpt><trkpt lat="43.6290588" lon="11.4646891"><ele>120.0</ele><time>2026-03-28T11:52:53.425Z</time></trkpt><trkpt lat="43.6291614" lon="11.4646246"><ele>120.0</ele><time>2026-03-28T11:52:54.425Z</time></trkpt><trkpt lat="43.6292652" lon="11.4646074"><ele>120.0</ele><time>2026-03-28T11:52:55.425Z</time></trkpt><trkpt lat="43.6293611" lon="11.4646154"><ele>120.0</ele><time>2026-03-28T11:52:56.425Z</time></trkpt><trkpt lat="43.6294546" lon="11.4646095"><ele>120.2</ele><time>2026-03-28T11:52:57.425Z</time></trkpt><trkpt lat="43.6295361" lon="11.4645533"><ele>120.4</ele><time>2026-03-28T11:52:58.425Z</time></trkpt><trkpt lat="43.6295939" lon="11.4644588"><ele>120.6</ele><time>2026-03-28T11:52:59.425Z</time></trkpt><trkpt lat="43.6296366" lon="11.4643298"><ele>120.8</ele><time>2026-03-28T11:53:00.425Z</time></trkpt><trkpt lat="43.6296815" lon="11.4641699"><ele>121.0</ele><time>2026-03-28T11:53:01.425Z</time></trkpt><trkpt lat="43.6297672" lon="11.4640071"><ele>121.0</ele><time>2026-03-28T11:53:02.425Z</time></trkpt><trkpt lat="43.6298881" lon="11.4638738"><ele>121.0</ele><time>2026-03-28T11:53:03.425Z</time></trkpt><trkpt lat="43.630001" lon="11.4637538"><ele>121.0</ele><time>2026-03-28T11:53:04.425Z</time></trkpt><trkpt lat="43.6301119" lon="11.4636194"><ele>121.0</ele><time>2026-03-28T11:53:05.425Z</time></trkpt><trkpt lat="43.6302434" lon="11.4634836"><ele>121.0</ele><time>2026-03-28T11:53:06.425Z</time></trkpt><trkpt lat="43.6303943" lon="11.4633524"><ele>121.0</ele><time>2026-03-28T11:53:07.425Z</time></trkpt><trkpt lat="43.6305561" lon="11.4632121"><ele>121.0</ele><time>2026-03-28T11:53:08.425Z</time></trkpt><trkpt lat="43.6307168" lon="11.4630646"><ele>121.0</ele><time>2026-03-28T11:53:09.425Z</time></trkpt><trkpt lat="43.6308771" lon="11.4629134"><ele>121.0</ele><time>2026-03-28T11:53:10.425Z</time></trkpt><trkpt lat="43.6310409" lon="11.4627594"><ele>121.0</ele><time>2026-03-28T11:53:11.425Z</time></trkpt><trkpt lat="43.631213" lon="11.4625994"><ele>121.0</ele><time>2026-03-28T11:53:12.425Z</time></trkpt><trkpt lat="43.6313813" lon="11.4624498"><ele>121.0</ele><time>2026-03-28T11:53:13.425Z</time></trkpt><trkpt lat="43.6315541" lon="11.4622951"><ele>121.0</ele><time>2026-03-28T11:53:14.425Z</time></trkpt><trkpt lat="43.6317326" lon="11.4621197"><ele>121.0</ele><time>2026-03-28T11:53:15.425Z</time></trkpt><trkpt lat="43.6319189" lon="11.4619401"><ele>121.0</ele><time>2026-03-28T11:53:16.425Z</time></trkpt><trkpt lat="43.6321162" lon="11.4617668"><ele>121.0</ele><time>2026-03-28T11:53:17.425Z</time></trkpt><trkpt lat="43.6323236" lon="11.4615838"><ele>121.0</ele><time>2026-03-28T11:53:18.425Z</time></trkpt><trkpt lat="43.6325295" lon="11.46139"><ele>121.0</ele><time>2026-03-28T11:53:19.425Z</time></trkpt><trkpt lat="43.6327392" lon="11.4611944"><ele>121.0</ele><time>2026-03-28T11:53:20.425Z</time></trkpt><trkpt lat="43.6329514" lon="11.4609977"><ele>121.0</ele><time>2026-03-28T11:53:21.425Z</time></trkpt><trkpt lat="43.6331691" lon="11.4607999"><ele>121.0</ele><time>2026-03-28T11:53:22.425Z</time></trkpt><trkpt lat="43.6333879" lon="11.4605983"><ele>120.5</ele><time>2026-03-28T11:53:23.425Z</time></trkpt><trkpt lat="43.6336058" lon="11.4604089"><ele>120.0</ele><time>2026-03-28T11:53:24.425Z</time></trkpt><trkpt lat="43.6338226" lon="11.4602189"><ele>120.0</ele><time>2026-03-28T11:53:25.425Z</time></trkpt><trkpt lat="43.6340325" lon="11.4600257"><ele>120.0</ele><time>2026-03-28T11:53:26.425Z</time></trkpt><trkpt lat="43.6342355" lon="11.4598445"><ele>120.0</ele><time>2026-03-28T11:53:27.425Z</time></trkpt><trkpt lat="43.6344309" lon="11.4596651"><ele>120.0</ele><time>2026-03-28T11:53:28.425Z</time></trkpt><trkpt lat="43.6346244" lon="11.4594913"><ele>120.0</ele><time>2026-03-28T11:53:29.425Z</time></trkpt><trkpt lat="43.6348076" lon="11.4593298"><ele>120.0</ele><time>2026-03-28T11:53:30.425Z</time></trkpt><trkpt lat="43.6349749" lon="11.4591833"><ele>120.0</ele><time>2026-03-28T11:53:31.425Z</time></trkpt><trkpt lat="43.6351327" lon="11.4590393"><ele>120.0</ele><time>2026-03-28T11:53:32.425Z</time></trkpt><trkpt lat="43.635278" lon="11.4589061"><ele>120.0</ele><time>2026-03-28T11:53:33.425Z</time></trkpt><trkpt lat="43.6354126" lon="11.4587495"><ele>120.0</ele><time>2026-03-28T11:53:34.425Z</time></trkpt><trkpt lat="43.6355215" lon="11.4585527"><ele>120.0</ele><time>2026-03-28T11:53:35.425Z</time></trkpt><trkpt lat="43.6356073" lon="11.4583302"><ele>120.0</ele><time>2026-03-28T11:53:36.425Z</time></trkpt><trkpt lat="43.6356811" lon="11.4580771"><ele>120.0</ele><time>2026-03-28T11:53:37.425Z</time></trkpt><trkpt lat="43.6357642" lon="11.4578441"><ele>120.0</ele><time>2026-03-28T11:53:38.425Z</time></trkpt><trkpt lat="43.6358633" lon="11.4576589"><ele>120.0</ele><time>2026-03-28T11:53:39.425Z</time></trkpt><trkpt lat="43.6359639" lon="11.4574907"><ele>120.0</ele><time>2026-03-28T11:53:40.425Z</time></trkpt><trkpt lat="43.6360646" lon="11.4573602"><ele>120.0</ele><time>2026-03-28T11:53:41.425Z</time></trkpt><trkpt lat="43.6361709" lon="11.4572445"><ele>120.0</ele><time>2026-03-28T11:53:42.425Z</time></trkpt><trkpt lat="43.6363048" lon="11.4571323"><ele>120.0</ele><time>2026-03-28T11:53:43.425Z</time></trkpt><trkpt lat="43.636445" lon="11.4569957"><ele>120.0</ele><time>2026-03-28T11:53:44.425Z</time></trkpt><trkpt lat="43.6366008" lon="11.456846"><ele>120.0</ele><time>2026-03-28T11:53:45.425Z</time></trkpt><trkpt lat="43.6367676" lon="11.4566964"><ele>120.0</ele><time>2026-03-28T11:53:46.425Z</time></trkpt><trkpt lat="43.6369339" lon="11.4565349"><ele>120.0</ele><time>2026-03-28T11:53:47.425Z</time></trkpt><trkpt lat="43.6370996" lon="11.4563866"><ele>120.0</ele><time>2026-03-28T11:53:48.425Z</time></trkpt><trkpt lat="43.6372657" lon="11.4562318"><ele>120.0</ele><time>2026-03-28T11:53:49.425Z</time></trkpt><trkpt lat="43.6374338" lon="11.456076"><ele>120.0</ele><time>2026-03-28T11:53:50.425Z</time></trkpt><trkpt lat="43.637601" lon="11.4559217"><ele>120.0</ele><time>2026-03-28T11:53:51.425Z</time></trkpt><trkpt lat="43.6377761" lon="11.4557614"><ele>120.0</ele><time>2026-03-28T11:53:52.425Z</time></trkpt><trkpt lat="43.6379457" lon="11.4556068"><ele>120.0</ele><time>2026-03-28T11:53:53.425Z</time></trkpt><trkpt lat="43.6381151" lon="11.4554568"><ele>120.0</ele><time>2026-03-28T11:53:54.425Z</time></trkpt><trkpt lat="43.6382745" lon="11.4553091"><ele>120.0</ele><time>2026-03-28T11:53:55.425Z</time></trkpt><trkpt lat="43.6384328" lon="11.4551678"><ele>120.0</ele><time>2026-03-28T11:53:56.425Z</time></trkpt><trkpt lat="43.6385992" lon="11.4550109"><ele>120.0</ele><time>2026-03-28T11:53:57.425Z</time></trkpt><trkpt lat="43.6387718" lon="11.4548399"><ele>120.0</ele><time>2026-03-28T11:53:58.426Z</time></trkpt><trkpt lat="43.6389505" lon="11.4546725"><ele>120.33333333333334</ele><time>2026-03-28T11:53:59.425Z</time></trkpt><trkpt lat="43.6391319" lon="11.4545067"><ele>120.66666666666667</ele><time>2026-03-28T11:54:00.425Z</time></trkpt><trkpt lat="43.639318" lon="11.4543453"><ele>121.0</ele><time>2026-03-28T11:54:01.426Z</time></trkpt><trkpt lat="43.6395017" lon="11.4541796"><ele>121.0</ele><time>2026-03-28T11:54:02.425Z</time></trkpt><trkpt lat="43.6396833" lon="11.4540142"><ele>121.0</ele><time>2026-03-28T11:54:03.425Z</time></trkpt><trkpt lat="43.6398617" lon="11.4538537"><ele>121.0</ele><time>2026-03-28T11:54:04.425Z</time></trkpt><trkpt lat="43.6400354" lon="11.4536822"><ele>121.0</ele><time>2026-03-28T11:54:05.425Z</time></trkpt><trkpt lat="43.6401957" lon="11.4535177"><ele>121.0</ele><time>2026-03-28T11:54:06.425Z</time></trkpt><trkpt lat="43.6403506" lon="11.4533633"><ele>121.0</ele><time>2026-03-28T11:54:07.425Z</time></trkpt><trkpt lat="43.6404942" lon="11.453223"><ele>121.0</ele><time>2026-03-28T11:54:08.425Z</time></trkpt><trkpt lat="43.6406332" lon="11.4530912"><ele>121.0</ele><time>2026-03-28T11:54:09.425Z</time></trkpt><trkpt lat="43.640762" lon="11.452976"><ele>121.0</ele><time>2026-03-28T11:54:10.425Z</time></trkpt><trkpt lat="43.6408993" lon="11.4528837"><ele>121.0</ele><time>2026-03-28T11:54:11.425Z</time></trkpt><trkpt lat="43.6410396" lon="11.4528126"><ele>121.0</ele><time>2026-03-28T11:54:12.425Z</time></trkpt><trkpt lat="43.6411816" lon="11.4527857"><ele>121.0</ele><time>2026-03-28T11:54:13.425Z</time></trkpt><trkpt lat="43.6413066" lon="11.4527835"><ele>121.0</ele><time>2026-03-28T11:54:14.425Z</time></trkpt><trkpt lat="43.6414092" lon="11.4527782"><ele>121.0</ele><time>2026-03-28T11:54:15.425Z</time></trkpt><trkpt lat="43.6414982" lon="11.4527784"><ele>121.0</ele><time>2026-03-28T11:54:16.425Z</time></trkpt><trkpt lat="43.6415974" lon="11.4528115"><ele>121.0</ele><time>2026-03-28T11:54:17.425Z</time></trkpt><trkpt lat="43.6416874" lon="11.4528306"><ele>121.0</ele><time>2026-03-28T11:54:18.425Z</time></trkpt><trkpt lat="43.641777" lon="11.4528155"><ele>121.0</ele><time>2026-03-28T11:54:19.425Z</time></trkpt><trkpt lat="43.6418551" lon="11.4527477"><ele>121.0</ele><time>2026-03-28T11:54:20.425Z</time></trkpt><trkpt lat="43.6419014" lon="11.4526165"><ele>121.0</ele><time>2026-03-28T11:54:21.425Z</time></trkpt><trkpt lat="43.6419156" lon="11.4524577"><ele>121.0</ele><time>2026-03-28T11:54:22.425Z</time></trkpt><trkpt lat="43.641933" lon="11.4522711"><ele>121.0</ele><time>2026-03-28T11:54:23.425Z</time></trkpt><trkpt lat="43.6420208" lon="11.4521153"><ele>121.75</ele><time>2026-03-28T11:54:24.425Z</time></trkpt><trkpt lat="43.6421152" lon="11.451973"><ele>122.5</ele><time>2026-03-28T11:54:25.425Z</time></trkpt><trkpt lat="43.6421886" lon="11.4518297"><ele>123.25</ele><time>2026-03-28T11:54:26.425Z</time></trkpt><trkpt lat="43.6422406" lon="11.4516846"><ele>124.0</ele><time>2026-03-28T11:54:27.425Z</time></trkpt><trkpt lat="43.6422974" lon="11.451569"><ele>124.0</ele><time>2026-03-28T11:54:28.425Z</time></trkpt><trkpt lat="43.6423842" lon="11.4514794"><ele>124.0</ele><time>2026-03-28T11:54:29.425Z</time></trkpt><trkpt lat="43.6424796" lon="11.4514288"><ele>124.0</ele><time>2026-03-28T11:54:30.425Z</time></trkpt><trkpt lat="43.6425773" lon="11.4514165"><ele>124.0</ele><time>2026-03-28T11:54:31.425Z</time></trkpt><trkpt lat="43.6426631" lon="11.4513885"><ele>124.0</ele><time>2026-03-28T11:54:32.425Z</time></trkpt><trkpt lat="43.6427031" lon="11.451286"><ele>124.2</ele><time>2026-03-28T11:54:33.425Z</time></trkpt><trkpt lat="43.6426979" lon="11.4511264"><ele>124.4</ele><time>2026-03-28T11:54:34.425Z</time></trkpt><trkpt lat="43.6426784" lon="11.4509787"><ele>124.6</ele><time>2026-03-28T11:54:35.425Z</time></trkpt><trkpt lat="43.6426726" lon="11.4508315"><ele>124.8</ele><time>2026-03-28T11:54:36.425Z</time></trkpt><trkpt lat="43.6426693" lon="11.4507044"><ele>125.0</ele><time>2026-03-28T11:54:37.425Z</time></trkpt><trkpt lat="43.642675" lon="11.450589"><ele>125.0</ele><time>2026-03-28T11:54:38.425Z</time></trkpt><trkpt lat="43.6426957" lon="11.4504795"><ele>125.0</ele><time>2026-03-28T11:54:39.425Z</time></trkpt><trkpt lat="43.642746" lon="11.4503951"><ele>125.0</ele><time>2026-03-28T11:54:40.425Z</time></trkpt><trkpt lat="43.6428305" lon="11.4503638"><ele>125.0</ele><time>2026-03-28T11:54:41.425Z</time></trkpt><trkpt lat="43.6429347" lon="11.4503598"><ele>125.0</ele><time>2026-03-28T11:54:42.425Z</time></trkpt><trkpt lat="43.6430352" lon="11.4503614"><ele>125.16666666666666</ele><time>2026-03-28T11:54:43.425Z</time></trkpt><trkpt lat="43.6431282" lon="11.4503484"><ele>125.33333333333333</ele><time>2026-03-28T11:54:44.425Z</time></trkpt><trkpt lat="43.6432153" lon="11.4503476"><ele>125.5</ele><time>2026-03-28T11:54:45.425Z</time></trkpt><trkpt lat="43.6432903" lon="11.4503487"><ele>125.66666666666666</ele><time>2026-03-28T11:54:47.425Z</time></trkpt><trkpt lat="43.6433414" lon="11.4502745"><ele>125.83333333333333</ele><time>2026-03-28T11:54:49.425Z</time></trkpt><trkpt lat="43.6433766" lon="11.4501251"><ele>126.0</ele><time>2026-03-28T11:54:51.425Z</time></trkpt><trkpt lat="43.6434993" lon="11.4500661"><ele>126.0</ele><time>2026-03-28T11:54:53.425Z</time></trkpt><trkpt lat="43.6435701" lon="11.450074"><ele>126.0</ele><time>2026-03-28T11:54:54.425Z</time></trkpt><trkpt lat="43.6436376" lon="11.4500767"><ele>126.0</ele><time>2026-03-28T11:54:55.425Z</time></trkpt><trkpt lat="43.6437413" lon="11.45003"><ele>126.0</ele><time>2026-03-28T11:54:57.425Z</time></trkpt><trkpt lat="43.6437634" lon="11.4499479"><ele>126.0</ele><time>2026-03-28T11:54:58.425Z</time></trkpt><trkpt lat="43.6438395" lon="11.4498174"><ele>126.0</ele><time>2026-03-28T11:55:00.425Z</time></trkpt><trkpt lat="43.6439084" lon="11.4497984"><ele>127.0</ele><time>2026-03-28T11:55:01.425Z</time></trkpt><trkpt lat="43.6439819" lon="11.4498003"><ele>127.0</ele><time>2026-03-28T11:55:02.425Z</time></trkpt><trkpt lat="43.6440518" lon="11.449805"><ele>127.0</ele><time>2026-03-28T11:55:03.426Z</time></trkpt><trkpt lat="43.6441238" lon="11.4497957"><ele>127.0</ele><time>2026-03-28T11:55:04.425Z</time></trkpt><trkpt lat="43.6442196" lon="11.4497803"><ele>127.0</ele><time>2026-03-28T11:55:06.425Z</time></trkpt><trkpt lat="43.6442833" lon="11.4497691"><ele>127.0</ele><time>2026-03-28T11:55:08.425Z</time></trkpt></trkseg></trk></gpx>